<gpx xmlns="http://www.topografix.com/GPX/1/1" xmlns:xsi="http://www.w3.org/2001/XMLSchema-instance" version="1.1" xsi:schemaLocation="http://www.topografix.com/GPX/1/1 http://www.topografix.com/GPX/1/1/gpx.xsd" creator="MotionXGPSFull 24.2 Build 5063R64">
<trk>
<name>NG Kandangra Run</name>
<desc>25 Oct 2017  8:15 am</desc>
<trkseg>
<trkpt lat="-27.3584945" lon="152.9699025">
<ele>34.007</ele>
<time>2017-10-24T22:15:19.281Z</time>
</trkpt>
<trkpt lat="-27.3584945" lon="152.9699025">
<ele>33.977</ele>
<time>2017-10-24T22:17:28.876Z</time>
</trkpt>
<trkpt lat="-27.3585362" lon="152.9701357">
<ele>33.984</ele>
<time>2017-10-24T22:35:32.998Z</time>
</trkpt>
<trkpt lat="-27.3585362" lon="152.9701357">
<ele>33.984</ele>
<time>2017-10-24T22:35:32.998Z</time>
</trkpt>
<trkpt lat="-27.3585362" lon="152.9701357">
<ele>34.005</ele>
<time>2017-10-24T22:35:36.998Z</time>
</trkpt>
<trkpt lat="-27.3585362" lon="152.9701357">
<ele>34.002</ele>
<time>2017-10-24T22:37:11.878Z</time>
</trkpt>
<trkpt lat="-27.3585867" lon="152.9699848">
<ele>33.988</ele>
<time>2017-10-24T22:37:18.221Z</time>
</trkpt>
<trkpt lat="-27.3586886" lon="152.9700562">
<ele>33.978</ele>
<time>2017-10-24T22:37:20.933Z</time>
</trkpt>
<trkpt lat="-27.3587813" lon="152.9700889">
<ele>33.984</ele>
<time>2017-10-24T22:37:23.001Z</time>
</trkpt>
<trkpt lat="-27.3587813" lon="152.9700889">
<ele>33.997</ele>
<time>2017-10-24T22:37:29.001Z</time>
</trkpt>
<trkpt lat="-27.3587813" lon="152.9700889">
<ele>33.999</ele>
<time>2017-10-24T22:37:37.889Z</time>
</trkpt>
<trkpt lat="-27.3589137" lon="152.9699124">
<ele>33.984</ele>
<time>2017-10-24T22:37:47.847Z</time>
</trkpt>
<trkpt lat="-27.3589178" lon="152.9697905">
<ele>33.992</ele>
<time>2017-10-24T22:37:50.607Z</time>
</trkpt>
<trkpt lat="-27.3589053" lon="152.9696684">
<ele>34.092</ele>
<time>2017-10-24T22:37:53.206Z</time>
</trkpt>
<trkpt lat="-27.3588881" lon="152.9695194">
<ele>34.319</ele>
<time>2017-10-24T22:37:56.107Z</time>
</trkpt>
<trkpt lat="-27.3589025" lon="152.9693431">
<ele>34.617</ele>
<time>2017-10-24T22:37:59.792Z</time>
</trkpt>
<trkpt lat="-27.3589276" lon="152.9692125">
<ele>34.880</ele>
<time>2017-10-24T22:38:04.238Z</time>
</trkpt>
<trkpt lat="-27.3589667" lon="152.9691070">
<ele>35.102</ele>
<time>2017-10-24T22:38:08.405Z</time>
</trkpt>
<trkpt lat="-27.3590295" lon="152.9690124">
<ele>35.421</ele>
<time>2017-10-24T22:38:10.954Z</time>
</trkpt>
<trkpt lat="-27.3592335" lon="152.9689900">
<ele>35.887</ele>
<time>2017-10-24T22:38:14.421Z</time>
</trkpt>
<trkpt lat="-27.3594208" lon="152.9689983">
<ele>36.420</ele>
<time>2017-10-24T22:38:17.562Z</time>
</trkpt>
<trkpt lat="-27.3595812" lon="152.9689815">
<ele>36.977</ele>
<time>2017-10-24T22:38:20.531Z</time>
</trkpt>
<trkpt lat="-27.3597452" lon="152.9688743">
<ele>37.531</ele>
<time>2017-10-24T22:38:24.389Z</time>
</trkpt>
<trkpt lat="-27.3598799" lon="152.9688551">
<ele>38.044</ele>
<time>2017-10-24T22:38:27.437Z</time>
</trkpt>
<trkpt lat="-27.3600086" lon="152.9688402">
<ele>38.542</ele>
<time>2017-10-24T22:38:30.221Z</time>
</trkpt>
<trkpt lat="-27.3601493" lon="152.9688172">
<ele>39.055</ele>
<time>2017-10-24T22:38:32.825Z</time>
</trkpt>
<trkpt lat="-27.3603225" lon="152.9687505">
<ele>39.513</ele>
<time>2017-10-24T22:38:35.431Z</time>
</trkpt>
<trkpt lat="-27.3605394" lon="152.9686313">
<ele>39.814</ele>
<time>2017-10-24T22:38:38.406Z</time>
</trkpt>
<trkpt lat="-27.3607564" lon="152.9685074">
<ele>39.937</ele>
<time>2017-10-24T22:38:41.545Z</time>
</trkpt>
<trkpt lat="-27.3609451" lon="152.9684171">
<ele>39.941</ele>
<time>2017-10-24T22:38:44.158Z</time>
</trkpt>
<trkpt lat="-27.3611701" lon="152.9685784">
<ele>39.861</ele>
<time>2017-10-24T22:38:46.898Z</time>
</trkpt>
<trkpt lat="-27.3614339" lon="152.9688609">
<ele>39.582</ele>
<time>2017-10-24T22:38:49.946Z</time>
</trkpt>
<trkpt lat="-27.3616877" lon="152.9691888">
<ele>38.876</ele>
<time>2017-10-24T22:38:52.866Z</time>
</trkpt>
<trkpt lat="-27.3619495" lon="152.9695302">
<ele>37.898</ele>
<time>2017-10-24T22:38:55.892Z</time>
</trkpt>
<trkpt lat="-27.3621899" lon="152.9698369">
<ele>37.199</ele>
<time>2017-10-24T22:38:58.778Z</time>
</trkpt>
<trkpt lat="-27.3624225" lon="152.9701327">
<ele>37.097</ele>
<time>2017-10-24T22:39:01.648Z</time>
</trkpt>
<trkpt lat="-27.3626632" lon="152.9704316">
<ele>37.513</ele>
<time>2017-10-24T22:39:04.507Z</time>
</trkpt>
<trkpt lat="-27.3629364" lon="152.9707325">
<ele>38.292</ele>
<time>2017-10-24T22:39:07.389Z</time>
</trkpt>
<trkpt lat="-27.3632649" lon="152.9710120">
<ele>39.258</ele>
<time>2017-10-24T22:39:10.369Z</time>
</trkpt>
<trkpt lat="-27.3636262" lon="152.9712251">
<ele>40.193</ele>
<time>2017-10-24T22:39:13.306Z</time>
</trkpt>
<trkpt lat="-27.3639967" lon="152.9714041">
<ele>41.088</ele>
<time>2017-10-24T22:39:16.241Z</time>
</trkpt>
<trkpt lat="-27.3643488" lon="152.9715825">
<ele>42.161</ele>
<time>2017-10-24T22:39:19.180Z</time>
</trkpt>
<trkpt lat="-27.3646462" lon="152.9717535">
<ele>43.538</ele>
<time>2017-10-24T22:39:22.028Z</time>
</trkpt>
<trkpt lat="-27.3648789" lon="152.9718921">
<ele>45.391</ele>
<time>2017-10-24T22:39:24.752Z</time>
</trkpt>
<trkpt lat="-27.3650313" lon="152.9719841">
<ele>48.020</ele>
<time>2017-10-24T22:39:27.000Z</time>
</trkpt>
<trkpt lat="-27.3650313" lon="152.9719841">
<ele>50.879</ele>
<time>2017-10-24T22:39:33.000Z</time>
</trkpt>
<trkpt lat="-27.3650313" lon="152.9719841">
<ele>52.492</ele>
<time>2017-10-24T22:39:41.257Z</time>
</trkpt>
<trkpt lat="-27.3652130" lon="152.9721421">
<ele>52.351</ele>
<time>2017-10-24T22:39:51.169Z</time>
</trkpt>
<trkpt lat="-27.3654091" lon="152.9720158">
<ele>52.574</ele>
<time>2017-10-24T22:39:53.842Z</time>
</trkpt>
<trkpt lat="-27.3656009" lon="152.9716580">
<ele>54.820</ele>
<time>2017-10-24T22:39:56.919Z</time>
</trkpt>
<trkpt lat="-27.3658305" lon="152.9712353">
<ele>57.692</ele>
<time>2017-10-24T22:39:59.894Z</time>
</trkpt>
<trkpt lat="-27.3661381" lon="152.9707662">
<ele>59.626</ele>
<time>2017-10-24T22:40:03.052Z</time>
</trkpt>
<trkpt lat="-27.3664951" lon="152.9703583">
<ele>60.887</ele>
<time>2017-10-24T22:40:06.035Z</time>
</trkpt>
<trkpt lat="-27.3669212" lon="152.9699999">
<ele>61.990</ele>
<time>2017-10-24T22:40:09.084Z</time>
</trkpt>
<trkpt lat="-27.3673790" lon="152.9697094">
<ele>63.214</ele>
<time>2017-10-24T22:40:12.014Z</time>
</trkpt>
<trkpt lat="-27.3679158" lon="152.9695227">
<ele>64.655</ele>
<time>2017-10-24T22:40:15.082Z</time>
</trkpt>
<trkpt lat="-27.3684167" lon="152.9692801">
<ele>66.586</ele>
<time>2017-10-24T22:40:18.061Z</time>
</trkpt>
<trkpt lat="-27.3688806" lon="152.9689419">
<ele>69.043</ele>
<time>2017-10-24T22:40:21.065Z</time>
</trkpt>
<trkpt lat="-27.3692890" lon="152.9684928">
<ele>71.417</ele>
<time>2017-10-24T22:40:24.049Z</time>
</trkpt>
<trkpt lat="-27.3696985" lon="152.9679582">
<ele>73.074</ele>
<time>2017-10-24T22:40:27.239Z</time>
</trkpt>
<trkpt lat="-27.3701427" lon="152.9675658">
<ele>73.957</ele>
<time>2017-10-24T22:40:30.166Z</time>
</trkpt>
<trkpt lat="-27.3706456" lon="152.9673140">
<ele>74.680</ele>
<time>2017-10-24T22:40:33.123Z</time>
</trkpt>
<trkpt lat="-27.3710992" lon="152.9670367">
<ele>75.705</ele>
<time>2017-10-24T22:40:35.957Z</time>
</trkpt>
<trkpt lat="-27.3715658" lon="152.9667331">
<ele>76.556</ele>
<time>2017-10-24T22:40:38.922Z</time>
</trkpt>
<trkpt lat="-27.3719669" lon="152.9663061">
<ele>76.791</ele>
<time>2017-10-24T22:40:41.941Z</time>
</trkpt>
<trkpt lat="-27.3721782" lon="152.9657265">
<ele>76.660</ele>
<time>2017-10-24T22:40:44.921Z</time>
</trkpt>
<trkpt lat="-27.3723402" lon="152.9650894">
<ele>76.820</ele>
<time>2017-10-24T22:40:48.010Z</time>
</trkpt>
<trkpt lat="-27.3725469" lon="152.9644949">
<ele>77.890</ele>
<time>2017-10-24T22:40:51.010Z</time>
</trkpt>
<trkpt lat="-27.3729506" lon="152.9640738">
<ele>79.550</ele>
<time>2017-10-24T22:40:53.954Z</time>
</trkpt>
<trkpt lat="-27.3733816" lon="152.9636513">
<ele>80.827</ele>
<time>2017-10-24T22:40:57.030Z</time>
</trkpt>
<trkpt lat="-27.3736448" lon="152.9631238">
<ele>81.462</ele>
<time>2017-10-24T22:40:59.922Z</time>
</trkpt>
<trkpt lat="-27.3737329" lon="152.9625062">
<ele>82.092</ele>
<time>2017-10-24T22:41:02.866Z</time>
</trkpt>
<trkpt lat="-27.3737285" lon="152.9618475">
<ele>83.105</ele>
<time>2017-10-24T22:41:05.960Z</time>
</trkpt>
<trkpt lat="-27.3737563" lon="152.9612186">
<ele>84.526</ele>
<time>2017-10-24T22:41:08.991Z</time>
</trkpt>
<trkpt lat="-27.3737624" lon="152.9606316">
<ele>86.326</ele>
<time>2017-10-24T22:41:11.895Z</time>
</trkpt>
<trkpt lat="-27.3737864" lon="152.9600500">
<ele>88.343</ele>
<time>2017-10-24T22:41:14.820Z</time>
</trkpt>
<trkpt lat="-27.3738139" lon="152.9594296">
<ele>90.293</ele>
<time>2017-10-24T22:41:17.957Z</time>
</trkpt>
<trkpt lat="-27.3738201" lon="152.9588699">
<ele>91.826</ele>
<time>2017-10-24T22:41:20.796Z</time>
</trkpt>
<trkpt lat="-27.3738150" lon="152.9582630">
<ele>92.816</ele>
<time>2017-10-24T22:41:23.888Z</time>
</trkpt>
<trkpt lat="-27.3739018" lon="152.9576820">
<ele>93.517</ele>
<time>2017-10-24T22:41:26.948Z</time>
</trkpt>
<trkpt lat="-27.3741185" lon="152.9572096">
<ele>94.113</ele>
<time>2017-10-24T22:41:29.779Z</time>
</trkpt>
<trkpt lat="-27.3744139" lon="152.9567396">
<ele>94.623</ele>
<time>2017-10-24T22:41:32.854Z</time>
</trkpt>
<trkpt lat="-27.3746666" lon="152.9562349">
<ele>95.246</ele>
<time>2017-10-24T22:41:35.880Z</time>
</trkpt>
<trkpt lat="-27.3748420" lon="152.9556846">
<ele>96.225</ele>
<time>2017-10-24T22:41:38.795Z</time>
</trkpt>
<trkpt lat="-27.3748579" lon="152.9550362">
<ele>97.438</ele>
<time>2017-10-24T22:41:41.826Z</time>
</trkpt>
<trkpt lat="-27.3748093" lon="152.9543702">
<ele>98.839</ele>
<time>2017-10-24T22:41:44.896Z</time>
</trkpt>
<trkpt lat="-27.3748132" lon="152.9537729">
<ele>100.522</ele>
<time>2017-10-24T22:41:47.781Z</time>
</trkpt>
<trkpt lat="-27.3749040" lon="152.9532029">
<ele>102.155</ele>
<time>2017-10-24T22:41:50.661Z</time>
</trkpt>
<trkpt lat="-27.3751792" lon="152.9526671">
<ele>103.333</ele>
<time>2017-10-24T22:41:53.678Z</time>
</trkpt>
<trkpt lat="-27.3755628" lon="152.9521546">
<ele>103.671</ele>
<time>2017-10-24T22:41:56.861Z</time>
</trkpt>
<trkpt lat="-27.3759416" lon="152.9516866">
<ele>103.084</ele>
<time>2017-10-24T22:41:59.888Z</time>
</trkpt>
<trkpt lat="-27.3763329" lon="152.9512596">
<ele>102.250</ele>
<time>2017-10-24T22:42:02.893Z</time>
</trkpt>
<trkpt lat="-27.3767439" lon="152.9509178">
<ele>101.747</ele>
<time>2017-10-24T22:42:05.692Z</time>
</trkpt>
<trkpt lat="-27.3772166" lon="152.9505418">
<ele>101.583</ele>
<time>2017-10-24T22:42:08.766Z</time>
</trkpt>
<trkpt lat="-27.3776805" lon="152.9501713">
<ele>101.964</ele>
<time>2017-10-24T22:42:11.791Z</time>
</trkpt>
<trkpt lat="-27.3781455" lon="152.9498798">
<ele>103.055</ele>
<time>2017-10-24T22:42:14.689Z</time>
</trkpt>
<trkpt lat="-27.3786665" lon="152.9496953">
<ele>104.579</ele>
<time>2017-10-24T22:42:17.684Z</time>
</trkpt>
<trkpt lat="-27.3791549" lon="152.9494171">
<ele>106.029</ele>
<time>2017-10-24T22:42:20.703Z</time>
</trkpt>
<trkpt lat="-27.3796149" lon="152.9490728">
<ele>106.535</ele>
<time>2017-10-24T22:42:23.791Z</time>
</trkpt>
<trkpt lat="-27.3798806" lon="152.9487691">
<ele>105.562</ele>
<time>2017-10-24T22:42:25.948Z</time>
</trkpt>
<trkpt lat="-27.3802336" lon="152.9483682">
<ele>104.133</ele>
<time>2017-10-24T22:42:29.044Z</time>
</trkpt>
<trkpt lat="-27.3805781" lon="152.9481397">
<ele>103.661</ele>
<time>2017-10-24T22:42:32.117Z</time>
</trkpt>
<trkpt lat="-27.3808652" lon="152.9482248">
<ele>104.390</ele>
<time>2017-10-24T22:42:35.191Z</time>
</trkpt>
<trkpt lat="-27.3810817" lon="152.9483412">
<ele>105.880</ele>
<time>2017-10-24T22:42:38.899Z</time>
</trkpt>
<trkpt lat="-27.3811940" lon="152.9484270">
<ele>108.062</ele>
<time>2017-10-24T22:42:42.738Z</time>
</trkpt>
<trkpt lat="-27.3813007" lon="152.9484207">
<ele>110.880</ele>
<time>2017-10-24T22:42:46.201Z</time>
</trkpt>
<trkpt lat="-27.3813920" lon="152.9484384">
<ele>113.468</ele>
<time>2017-10-24T22:42:48.096Z</time>
</trkpt>
<trkpt lat="-27.3815344" lon="152.9482994">
<ele>114.817</ele>
<time>2017-10-24T22:42:50.510Z</time>
</trkpt>
<trkpt lat="-27.3815345" lon="152.9478388">
<ele>114.793</ele>
<time>2017-10-24T22:42:53.860Z</time>
</trkpt>
<trkpt lat="-27.3816229" lon="152.9472769">
<ele>114.061</ele>
<time>2017-10-24T22:42:57.104Z</time>
</trkpt>
<trkpt lat="-27.3816592" lon="152.9467281">
<ele>112.716</ele>
<time>2017-10-24T22:43:00.324Z</time>
</trkpt>
<trkpt lat="-27.3817349" lon="152.9463474">
<ele>110.339</ele>
<time>2017-10-24T22:43:03.103Z</time>
</trkpt>
<trkpt lat="-27.3818029" lon="152.9460273">
<ele>106.946</ele>
<time>2017-10-24T22:43:05.816Z</time>
</trkpt>
<trkpt lat="-27.3818455" lon="152.9457019">
<ele>103.366</ele>
<time>2017-10-24T22:43:08.554Z</time>
</trkpt>
<trkpt lat="-27.3818746" lon="152.9453016">
<ele>100.765</ele>
<time>2017-10-24T22:43:11.625Z</time>
</trkpt>
<trkpt lat="-27.3819431" lon="152.9448360">
<ele>99.667</ele>
<time>2017-10-24T22:43:14.773Z</time>
</trkpt>
<trkpt lat="-27.3819949" lon="152.9443006">
<ele>99.453</ele>
<time>2017-10-24T22:43:17.931Z</time>
</trkpt>
<trkpt lat="-27.3820662" lon="152.9437828">
<ele>99.472</ele>
<time>2017-10-24T22:43:20.871Z</time>
</trkpt>
<trkpt lat="-27.3822118" lon="152.9432817">
<ele>99.610</ele>
<time>2017-10-24T22:43:23.832Z</time>
</trkpt>
<trkpt lat="-27.3824204" lon="152.9428141">
<ele>100.153</ele>
<time>2017-10-24T22:43:26.819Z</time>
</trkpt>
<trkpt lat="-27.3826631" lon="152.9423825">
<ele>101.195</ele>
<time>2017-10-24T22:43:29.848Z</time>
</trkpt>
<trkpt lat="-27.3828813" lon="152.9419821">
<ele>102.457</ele>
<time>2017-10-24T22:43:32.676Z</time>
</trkpt>
<trkpt lat="-27.3830741" lon="152.9414886">
<ele>103.676</ele>
<time>2017-10-24T22:43:35.811Z</time>
</trkpt>
<trkpt lat="-27.3831950" lon="152.9409633">
<ele>104.901</ele>
<time>2017-10-24T22:43:38.937Z</time>
</trkpt>
<trkpt lat="-27.3832428" lon="152.9405071">
<ele>106.284</ele>
<time>2017-10-24T22:43:41.705Z</time>
</trkpt>
<trkpt lat="-27.3832750" lon="152.9400411">
<ele>107.879</ele>
<time>2017-10-24T22:43:44.640Z</time>
</trkpt>
<trkpt lat="-27.3832321" lon="152.9395885">
<ele>109.410</ele>
<time>2017-10-24T22:43:47.520Z</time>
</trkpt>
<trkpt lat="-27.3830903" lon="152.9391068">
<ele>110.059</ele>
<time>2017-10-24T22:43:50.712Z</time>
</trkpt>
<trkpt lat="-27.3830062" lon="152.9386470">
<ele>109.253</ele>
<time>2017-10-24T22:43:53.645Z</time>
</trkpt>
<trkpt lat="-27.3827955" lon="152.9382294">
<ele>107.661</ele>
<time>2017-10-24T22:43:56.528Z</time>
</trkpt>
<trkpt lat="-27.3824345" lon="152.9378830">
<ele>106.516</ele>
<time>2017-10-24T22:43:59.653Z</time>
</trkpt>
<trkpt lat="-27.3821423" lon="152.9375359">
<ele>106.483</ele>
<time>2017-10-24T22:44:02.557Z</time>
</trkpt>
<trkpt lat="-27.3818365" lon="152.9372246">
<ele>107.416</ele>
<time>2017-10-24T22:44:05.471Z</time>
</trkpt>
<trkpt lat="-27.3814307" lon="152.9370162">
<ele>108.599</ele>
<time>2017-10-24T22:44:08.541Z</time>
</trkpt>
<trkpt lat="-27.3809453" lon="152.9371559">
<ele>109.173</ele>
<time>2017-10-24T22:44:11.784Z</time>
</trkpt>
<trkpt lat="-27.3804801" lon="152.9371487">
<ele>108.469</ele>
<time>2017-10-24T22:44:14.674Z</time>
</trkpt>
<trkpt lat="-27.3799941" lon="152.9372884">
<ele>106.652</ele>
<time>2017-10-24T22:44:17.759Z</time>
</trkpt>
<trkpt lat="-27.3795690" lon="152.9375540">
<ele>104.543</ele>
<time>2017-10-24T22:44:20.807Z</time>
</trkpt>
<trkpt lat="-27.3791927" lon="152.9378564">
<ele>102.616</ele>
<time>2017-10-24T22:44:23.741Z</time>
</trkpt>
<trkpt lat="-27.3788666" lon="152.9382414">
<ele>101.074</ele>
<time>2017-10-24T22:44:26.673Z</time>
</trkpt>
<trkpt lat="-27.3786442" lon="152.9385702">
<ele>99.996</ele>
<time>2017-10-24T22:44:28.837Z</time>
</trkpt>
<trkpt lat="-27.3783519" lon="152.9390070">
<ele>99.061</ele>
<time>2017-10-24T22:44:31.757Z</time>
</trkpt>
<trkpt lat="-27.3780647" lon="152.9393972">
<ele>98.108</ele>
<time>2017-10-24T22:44:34.620Z</time>
</trkpt>
<trkpt lat="-27.3778848" lon="152.9396595">
<ele>97.118</ele>
<time>2017-10-24T22:44:36.522Z</time>
</trkpt>
<trkpt lat="-27.3776833" lon="152.9399619">
<ele>95.980</ele>
<time>2017-10-24T22:44:38.630Z</time>
</trkpt>
<trkpt lat="-27.3775027" lon="152.9402742">
<ele>94.586</ele>
<time>2017-10-24T22:44:40.666Z</time>
</trkpt>
<trkpt lat="-27.3772907" lon="152.9405628">
<ele>92.759</ele>
<time>2017-10-24T22:44:42.694Z</time>
</trkpt>
<trkpt lat="-27.3770838" lon="152.9408651">
<ele>90.777</ele>
<time>2017-10-24T22:44:44.768Z</time>
</trkpt>
<trkpt lat="-27.3768816" lon="152.9411395">
<ele>89.627</ele>
<time>2017-10-24T22:44:46.732Z</time>
</trkpt>
<trkpt lat="-27.3766223" lon="152.9415957">
<ele>89.748</ele>
<time>2017-10-24T22:44:49.750Z</time>
</trkpt>
<trkpt lat="-27.3762997" lon="152.9419610">
<ele>91.055</ele>
<time>2017-10-24T22:44:52.599Z</time>
</trkpt>
<trkpt lat="-27.3757585" lon="152.9419354">
<ele>93.237</ele>
<time>2017-10-24T22:44:55.900Z</time>
</trkpt>
<trkpt lat="-27.3752735" lon="152.9418906">
<ele>95.298</ele>
<time>2017-10-24T22:44:58.886Z</time>
</trkpt>
<trkpt lat="-27.3748067" lon="152.9418477">
<ele>96.604</ele>
<time>2017-10-24T22:45:01.735Z</time>
</trkpt>
<trkpt lat="-27.3742737" lon="152.9417456">
<ele>97.427</ele>
<time>2017-10-24T22:45:04.920Z</time>
</trkpt>
<trkpt lat="-27.3737821" lon="152.9416287">
<ele>97.915</ele>
<time>2017-10-24T22:45:07.902Z</time>
</trkpt>
<trkpt lat="-27.3733470" lon="152.9414424">
<ele>98.115</ele>
<time>2017-10-24T22:45:10.729Z</time>
</trkpt>
<trkpt lat="-27.3729469" lon="152.9410988">
<ele>98.293</ele>
<time>2017-10-24T22:45:13.729Z</time>
</trkpt>
<trkpt lat="-27.3726262" lon="152.9406157">
<ele>98.615</ele>
<time>2017-10-24T22:45:16.835Z</time>
</trkpt>
<trkpt lat="-27.3723032" lon="152.9401799">
<ele>98.757</ele>
<time>2017-10-24T22:45:19.780Z</time>
</trkpt>
<trkpt lat="-27.3718542" lon="152.9399390">
<ele>98.219</ele>
<time>2017-10-24T22:45:22.695Z</time>
</trkpt>
<trkpt lat="-27.3713169" lon="152.9400160">
<ele>97.188</ele>
<time>2017-10-24T22:45:25.862Z</time>
</trkpt>
<trkpt lat="-27.3708391" lon="152.9400378">
<ele>96.096</ele>
<time>2017-10-24T22:45:28.763Z</time>
</trkpt>
<trkpt lat="-27.3704179" lon="152.9397606">
<ele>94.441</ele>
<time>2017-10-24T22:45:31.790Z</time>
</trkpt>
<trkpt lat="-27.3702106" lon="152.9392021">
<ele>91.744</ele>
<time>2017-10-24T22:45:34.966Z</time>
</trkpt>
<trkpt lat="-27.3700761" lon="152.9386041">
<ele>88.858</ele>
<time>2017-10-24T22:45:38.031Z</time>
</trkpt>
<trkpt lat="-27.3699192" lon="152.9380317">
<ele>86.487</ele>
<time>2017-10-24T22:45:40.999Z</time>
</trkpt>
<trkpt lat="-27.3697470" lon="152.9374926">
<ele>83.437</ele>
<time>2017-10-24T22:45:43.865Z</time>
</trkpt>
<trkpt lat="-27.3695164" lon="152.9370097">
<ele>78.901</ele>
<time>2017-10-24T22:45:46.573Z</time>
</trkpt>
<trkpt lat="-27.3690286" lon="152.9366951">
<ele>73.197</ele>
<time>2017-10-24T22:45:49.583Z</time>
</trkpt>
<trkpt lat="-27.3685110" lon="152.9363715">
<ele>66.100</ele>
<time>2017-10-24T22:45:52.611Z</time>
</trkpt>
<trkpt lat="-27.3679919" lon="152.9359739">
<ele>57.691</ele>
<time>2017-10-24T22:45:55.713Z</time>
</trkpt>
<trkpt lat="-27.3676003" lon="152.9354369">
<ele>50.073</ele>
<time>2017-10-24T22:45:58.675Z</time>
</trkpt>
<trkpt lat="-27.3673513" lon="152.9347348">
<ele>44.650</ele>
<time>2017-10-24T22:46:01.931Z</time>
</trkpt>
<trkpt lat="-27.3671220" lon="152.9341676">
<ele>41.150</ele>
<time>2017-10-24T22:46:04.808Z</time>
</trkpt>
<trkpt lat="-27.3671741" lon="152.9335562">
<ele>39.269</ele>
<time>2017-10-24T22:46:07.790Z</time>
</trkpt>
<trkpt lat="-27.3672649" lon="152.9329402">
<ele>43.101</ele>
<time>2017-10-24T22:46:10.944Z</time>
</trkpt>
<trkpt lat="-27.3673303" lon="152.9324272">
<ele>54.443</ele>
<time>2017-10-24T22:46:13.810Z</time>
</trkpt>
<trkpt lat="-27.3672477" lon="152.9319459">
<ele>66.175</ele>
<time>2017-10-24T22:46:16.787Z</time>
</trkpt>
<trkpt lat="-27.3669740" lon="152.9315808">
<ele>70.827</ele>
<time>2017-10-24T22:46:19.699Z</time>
</trkpt>
<trkpt lat="-27.3666470" lon="152.9311734">
<ele>68.263</ele>
<time>2017-10-24T22:46:22.806Z</time>
</trkpt>
<trkpt lat="-27.3663239" lon="152.9307406">
<ele>61.983</ele>
<time>2017-10-24T22:46:25.813Z</time>
</trkpt>
<trkpt lat="-27.3659552" lon="152.9303444">
<ele>56.162</ele>
<time>2017-10-24T22:46:28.764Z</time>
</trkpt>
<trkpt lat="-27.3657121" lon="152.9298252">
<ele>52.310</ele>
<time>2017-10-24T22:46:31.546Z</time>
</trkpt>
<trkpt lat="-27.3657297" lon="152.9290016">
<ele>49.905</ele>
<time>2017-10-24T22:46:34.990Z</time>
</trkpt>
<trkpt lat="-27.3656074" lon="152.9281983">
<ele>48.584</ele>
<time>2017-10-24T22:46:38.244Z</time>
</trkpt>
<trkpt lat="-27.3655500" lon="152.9275114">
<ele>48.239</ele>
<time>2017-10-24T22:46:41.273Z</time>
</trkpt>
<trkpt lat="-27.3655787" lon="152.9269374">
<ele>48.758</ele>
<time>2017-10-24T22:46:44.229Z</time>
</trkpt>
<trkpt lat="-27.3654598" lon="152.9264575">
<ele>50.342</ele>
<time>2017-10-24T22:46:47.107Z</time>
</trkpt>
<trkpt lat="-27.3652668" lon="152.9260209">
<ele>53.050</ele>
<time>2017-10-24T22:46:50.032Z</time>
</trkpt>
<trkpt lat="-27.3650588" lon="152.9255994">
<ele>56.067</ele>
<time>2017-10-24T22:46:52.878Z</time>
</trkpt>
<trkpt lat="-27.3647675" lon="152.9252267">
<ele>58.356</ele>
<time>2017-10-24T22:46:55.710Z</time>
</trkpt>
<trkpt lat="-27.3643083" lon="152.9250234">
<ele>61.805</ele>
<time>2017-10-24T22:46:58.869Z</time>
</trkpt>
<trkpt lat="-27.3638757" lon="152.9249437">
<ele>68.002</ele>
<time>2017-10-24T22:47:01.751Z</time>
</trkpt>
<trkpt lat="-27.3634210" lon="152.9250413">
<ele>75.496</ele>
<time>2017-10-24T22:47:04.776Z</time>
</trkpt>
<trkpt lat="-27.3630345" lon="152.9253528">
<ele>82.656</ele>
<time>2017-10-24T22:47:07.833Z</time>
</trkpt>
<trkpt lat="-27.3627046" lon="152.9257513">
<ele>88.194</ele>
<time>2017-10-24T22:47:10.970Z</time>
</trkpt>
<trkpt lat="-27.3625646" lon="152.9262424">
<ele>90.527</ele>
<time>2017-10-24T22:47:13.983Z</time>
</trkpt>
<trkpt lat="-27.3624329" lon="152.9267283">
<ele>89.677</ele>
<time>2017-10-24T22:47:16.934Z</time>
</trkpt>
<trkpt lat="-27.3623071" lon="152.9272210">
<ele>86.948</ele>
<time>2017-10-24T22:47:19.896Z</time>
</trkpt>
<trkpt lat="-27.3621469" lon="152.9276984">
<ele>85.593</ele>
<time>2017-10-24T22:47:22.874Z</time>
</trkpt>
<trkpt lat="-27.3619430" lon="152.9281703">
<ele>88.076</ele>
<time>2017-10-24T22:47:25.940Z</time>
</trkpt>
<trkpt lat="-27.3616079" lon="152.9285191">
<ele>93.347</ele>
<time>2017-10-24T22:47:28.945Z</time>
</trkpt>
<trkpt lat="-27.3611737" lon="152.9286868">
<ele>99.098</ele>
<time>2017-10-24T22:47:31.946Z</time>
</trkpt>
<trkpt lat="-27.3607018" lon="152.9285114">
<ele>103.647</ele>
<time>2017-10-24T22:47:34.988Z</time>
</trkpt>
<trkpt lat="-27.3602666" lon="152.9281283">
<ele>105.987</ele>
<time>2017-10-24T22:47:38.137Z</time>
</trkpt>
<trkpt lat="-27.3598595" lon="152.9277220">
<ele>106.242</ele>
<time>2017-10-24T22:47:41.146Z</time>
</trkpt>
<trkpt lat="-27.3594757" lon="152.9272804">
<ele>105.172</ele>
<time>2017-10-24T22:47:44.188Z</time>
</trkpt>
<trkpt lat="-27.3590336" lon="152.9269874">
<ele>103.122</ele>
<time>2017-10-24T22:47:47.039Z</time>
</trkpt>
<trkpt lat="-27.3584674" lon="152.9270457">
<ele>100.143</ele>
<time>2017-10-24T22:47:50.136Z</time>
</trkpt>
<trkpt lat="-27.3578890" lon="152.9270733">
<ele>96.342</ele>
<time>2017-10-24T22:47:53.301Z</time>
</trkpt>
<trkpt lat="-27.3573873" lon="152.9269235">
<ele>91.887</ele>
<time>2017-10-24T22:47:56.172Z</time>
</trkpt>
<trkpt lat="-27.3569127" lon="152.9265451">
<ele>87.402</ele>
<time>2017-10-24T22:47:59.394Z</time>
</trkpt>
<trkpt lat="-27.3563904" lon="152.9264649">
<ele>83.444</ele>
<time>2017-10-24T22:48:02.251Z</time>
</trkpt>
<trkpt lat="-27.3558106" lon="152.9265754">
<ele>79.678</ele>
<time>2017-10-24T22:48:05.227Z</time>
</trkpt>
<trkpt lat="-27.3551790" lon="152.9266097">
<ele>75.615</ele>
<time>2017-10-24T22:48:08.265Z</time>
</trkpt>
<trkpt lat="-27.3545600" lon="152.9264735">
<ele>71.347</ele>
<time>2017-10-24T22:48:11.339Z</time>
</trkpt>
<trkpt lat="-27.3539933" lon="152.9264071">
<ele>67.138</ele>
<time>2017-10-24T22:48:14.282Z</time>
</trkpt>
<trkpt lat="-27.3534421" lon="152.9263106">
<ele>63.634</ele>
<time>2017-10-24T22:48:17.345Z</time>
</trkpt>
<trkpt lat="-27.3529460" lon="152.9262106">
<ele>61.810</ele>
<time>2017-10-24T22:48:20.264Z</time>
</trkpt>
<trkpt lat="-27.3524725" lon="152.9260373">
<ele>61.798</ele>
<time>2017-10-24T22:48:23.267Z</time>
</trkpt>
<trkpt lat="-27.3520415" lon="152.9258350">
<ele>62.404</ele>
<time>2017-10-24T22:48:26.243Z</time>
</trkpt>
<trkpt lat="-27.3517183" lon="152.9254783">
<ele>62.444</ele>
<time>2017-10-24T22:48:29.066Z</time>
</trkpt>
<trkpt lat="-27.3515794" lon="152.9248836">
<ele>61.638</ele>
<time>2017-10-24T22:48:32.126Z</time>
</trkpt>
<trkpt lat="-27.3514775" lon="152.9242305">
<ele>60.366</ele>
<time>2017-10-24T22:48:35.243Z</time>
</trkpt>
<trkpt lat="-27.3512966" lon="152.9236421">
<ele>58.757</ele>
<time>2017-10-24T22:48:38.217Z</time>
</trkpt>
<trkpt lat="-27.3509648" lon="152.9231267">
<ele>56.367</ele>
<time>2017-10-24T22:48:41.293Z</time>
</trkpt>
<trkpt lat="-27.3506636" lon="152.9225938">
<ele>53.516</ele>
<time>2017-10-24T22:48:44.402Z</time>
</trkpt>
<trkpt lat="-27.3504194" lon="152.9220767">
<ele>52.069</ele>
<time>2017-10-24T22:48:47.447Z</time>
</trkpt>
<trkpt lat="-27.3502037" lon="152.9215802">
<ele>52.925</ele>
<time>2017-10-24T22:48:50.638Z</time>
</trkpt>
<trkpt lat="-27.3502530" lon="152.9211015">
<ele>54.127</ele>
<time>2017-10-24T22:48:53.654Z</time>
</trkpt>
<trkpt lat="-27.3503816" lon="152.9206283">
<ele>52.782</ele>
<time>2017-10-24T22:48:56.855Z</time>
</trkpt>
<trkpt lat="-27.3504781" lon="152.9202124">
<ele>48.453</ele>
<time>2017-10-24T22:49:00.154Z</time>
</trkpt>
<trkpt lat="-27.3504452" lon="152.9198958">
<ele>43.401</ele>
<time>2017-10-24T22:49:03.094Z</time>
</trkpt>
<trkpt lat="-27.3503718" lon="152.9196046">
<ele>39.331</ele>
<time>2017-10-24T22:49:05.898Z</time>
</trkpt>
<trkpt lat="-27.3502791" lon="152.9192887">
<ele>36.218</ele>
<time>2017-10-24T22:49:08.786Z</time>
</trkpt>
<trkpt lat="-27.3501392" lon="152.9189618">
<ele>33.990</ele>
<time>2017-10-24T22:49:12.419Z</time>
</trkpt>
<trkpt lat="-27.3501774" lon="152.9187157">
<ele>32.654</ele>
<time>2017-10-24T22:49:15.643Z</time>
</trkpt>
<trkpt lat="-27.3503612" lon="152.9185933">
<ele>32.021</ele>
<time>2017-10-24T22:49:18.852Z</time>
</trkpt>
<trkpt lat="-27.3505735" lon="152.9185636">
<ele>31.873</ele>
<time>2017-10-24T22:49:21.782Z</time>
</trkpt>
<trkpt lat="-27.3507954" lon="152.9185603">
<ele>31.916</ele>
<time>2017-10-24T22:49:24.443Z</time>
</trkpt>
<trkpt lat="-27.3510424" lon="152.9183829">
<ele>31.898</ele>
<time>2017-10-24T22:49:27.424Z</time>
</trkpt>
<trkpt lat="-27.3512267" lon="152.9180817">
<ele>31.759</ele>
<time>2017-10-24T22:49:30.395Z</time>
</trkpt>
<trkpt lat="-27.3514173" lon="152.9178062">
<ele>31.767</ele>
<time>2017-10-24T22:49:33.110Z</time>
</trkpt>
<trkpt lat="-27.3516044" lon="152.9174627">
<ele>32.275</ele>
<time>2017-10-24T22:49:36.092Z</time>
</trkpt>
<trkpt lat="-27.3517726" lon="152.9171193">
<ele>33.341</ele>
<time>2017-10-24T22:49:38.840Z</time>
</trkpt>
<trkpt lat="-27.3518528" lon="152.9166747">
<ele>34.801</ele>
<time>2017-10-24T22:49:41.913Z</time>
</trkpt>
<trkpt lat="-27.3519055" lon="152.9162301">
<ele>36.718</ele>
<time>2017-10-24T22:49:45.098Z</time>
</trkpt>
<trkpt lat="-27.3520174" lon="152.9158612">
<ele>39.149</ele>
<time>2017-10-24T22:49:48.195Z</time>
</trkpt>
<trkpt lat="-27.3522070" lon="152.9155658">
<ele>41.687</ele>
<time>2017-10-24T22:49:51.035Z</time>
</trkpt>
<trkpt lat="-27.3524042" lon="152.9151899">
<ele>43.872</ele>
<time>2017-10-24T22:49:54.203Z</time>
</trkpt>
<trkpt lat="-27.3523954" lon="152.9147840">
<ele>45.891</ele>
<time>2017-10-24T22:49:57.114Z</time>
</trkpt>
<trkpt lat="-27.3523719" lon="152.9143695">
<ele>48.723</ele>
<time>2017-10-24T22:50:00.074Z</time>
</trkpt>
<trkpt lat="-27.3522771" lon="152.9139878">
<ele>53.000</ele>
<time>2017-10-24T22:50:02.738Z</time>
</trkpt>
<trkpt lat="-27.3520310" lon="152.9136026">
<ele>57.821</ele>
<time>2017-10-24T22:50:05.576Z</time>
</trkpt>
<trkpt lat="-27.3517500" lon="152.9131416">
<ele>61.825</ele>
<time>2017-10-24T22:50:08.648Z</time>
</trkpt>
<trkpt lat="-27.3515381" lon="152.9126265">
<ele>64.537</ele>
<time>2017-10-24T22:50:11.483Z</time>
</trkpt>
<trkpt lat="-27.3513387" lon="152.9120171">
<ele>66.042</ele>
<time>2017-10-24T22:50:14.637Z</time>
</trkpt>
<trkpt lat="-27.3511675" lon="152.9114847">
<ele>66.733</ele>
<time>2017-10-24T22:50:17.555Z</time>
</trkpt>
<trkpt lat="-27.3508982" lon="152.9110597">
<ele>67.161</ele>
<time>2017-10-24T22:50:20.483Z</time>
</trkpt>
<trkpt lat="-27.3506281" lon="152.9106662">
<ele>70.211</ele>
<time>2017-10-24T22:50:23.431Z</time>
</trkpt>
<trkpt lat="-27.3505180" lon="152.9101356">
<ele>77.390</ele>
<time>2017-10-24T22:50:26.486Z</time>
</trkpt>
<trkpt lat="-27.3505111" lon="152.9095455">
<ele>84.559</ele>
<time>2017-10-24T22:50:29.672Z</time>
</trkpt>
<trkpt lat="-27.3505085" lon="152.9090001">
<ele>87.833</ele>
<time>2017-10-24T22:50:32.667Z</time>
</trkpt>
<trkpt lat="-27.3505532" lon="152.9084590">
<ele>87.578</ele>
<time>2017-10-24T22:50:35.615Z</time>
</trkpt>
<trkpt lat="-27.3504839" lon="152.9078942">
<ele>85.318</ele>
<time>2017-10-24T22:50:38.710Z</time>
</trkpt>
<trkpt lat="-27.3502241" lon="152.9073992">
<ele>83.900</ele>
<time>2017-10-24T22:50:41.710Z</time>
</trkpt>
<trkpt lat="-27.3497598" lon="152.9070024">
<ele>85.311</ele>
<time>2017-10-24T22:50:45.063Z</time>
</trkpt>
<trkpt lat="-27.3494741" lon="152.9065720">
<ele>88.730</ele>
<time>2017-10-24T22:50:47.952Z</time>
</trkpt>
<trkpt lat="-27.3493815" lon="152.9060104">
<ele>93.104</ele>
<time>2017-10-24T22:50:51.009Z</time>
</trkpt>
<trkpt lat="-27.3495180" lon="152.9054551">
<ele>98.464</ele>
<time>2017-10-24T22:50:54.170Z</time>
</trkpt>
<trkpt lat="-27.3497114" lon="152.9049789">
<ele>103.728</ele>
<time>2017-10-24T22:50:57.188Z</time>
</trkpt>
<trkpt lat="-27.3498080" lon="152.9044718">
<ele>106.915</ele>
<time>2017-10-24T22:51:00.047Z</time>
</trkpt>
<trkpt lat="-27.3496437" lon="152.9039023">
<ele>107.642</ele>
<time>2017-10-24T22:51:03.103Z</time>
</trkpt>
<trkpt lat="-27.3493441" lon="152.9034234">
<ele>107.538</ele>
<time>2017-10-24T22:51:06.061Z</time>
</trkpt>
<trkpt lat="-27.3489599" lon="152.9030117">
<ele>108.376</ele>
<time>2017-10-24T22:51:09.285Z</time>
</trkpt>
<trkpt lat="-27.3486507" lon="152.9026478">
<ele>110.574</ele>
<time>2017-10-24T22:51:12.692Z</time>
</trkpt>
<trkpt lat="-27.3484568" lon="152.9023360">
<ele>113.182</ele>
<time>2017-10-24T22:51:16.502Z</time>
</trkpt>
<trkpt lat="-27.3483720" lon="152.9020925">
<ele>116.189</ele>
<time>2017-10-24T22:51:19.966Z</time>
</trkpt>
<trkpt lat="-27.3482540" lon="152.9019779">
<ele>119.871</ele>
<time>2017-10-24T22:51:21.915Z</time>
</trkpt>
<trkpt lat="-27.3481247" lon="152.9018508">
<ele>122.785</ele>
<time>2017-10-24T22:51:23.667Z</time>
</trkpt>
<trkpt lat="-27.3480545" lon="152.9013568">
<ele>123.573</ele>
<time>2017-10-24T22:51:26.671Z</time>
</trkpt>
<trkpt lat="-27.3479391" lon="152.9007585">
<ele>122.806</ele>
<time>2017-10-24T22:51:29.742Z</time>
</trkpt>
<trkpt lat="-27.3478651" lon="152.9001728">
<ele>121.629</ele>
<time>2017-10-24T22:51:32.606Z</time>
</trkpt>
<trkpt lat="-27.3478416" lon="152.8997514">
<ele>120.551</ele>
<time>2017-10-24T22:51:34.641Z</time>
</trkpt>
<trkpt lat="-27.3478182" lon="152.8993355">
<ele>119.359</ele>
<time>2017-10-24T22:51:36.675Z</time>
</trkpt>
<trkpt lat="-27.3478379" lon="152.8989326">
<ele>117.751</ele>
<time>2017-10-24T22:51:38.678Z</time>
</trkpt>
<trkpt lat="-27.3478456" lon="152.8985386">
<ele>115.722</ele>
<time>2017-10-24T22:51:40.615Z</time>
</trkpt>
<trkpt lat="-27.3478554" lon="152.8981222">
<ele>113.848</ele>
<time>2017-10-24T22:51:42.592Z</time>
</trkpt>
<trkpt lat="-27.3477875" lon="152.8976790">
<ele>112.911</ele>
<time>2017-10-24T22:51:44.682Z</time>
</trkpt>
<trkpt lat="-27.3476974" lon="152.8972778">
<ele>112.963</ele>
<time>2017-10-24T22:51:46.587Z</time>
</trkpt>
<trkpt lat="-27.3475772" lon="152.8968934">
<ele>113.464</ele>
<time>2017-10-24T22:51:48.430Z</time>
</trkpt>
<trkpt lat="-27.3474098" lon="152.8964928">
<ele>113.928</ele>
<time>2017-10-24T22:51:50.385Z</time>
</trkpt>
<trkpt lat="-27.3472816" lon="152.8960537">
<ele>114.042</ele>
<time>2017-10-24T22:51:52.407Z</time>
</trkpt>
<trkpt lat="-27.3470602" lon="152.8954186">
<ele>113.593</ele>
<time>2017-10-24T22:51:55.399Z</time>
</trkpt>
<trkpt lat="-27.3468833" lon="152.8947693">
<ele>112.298</ele>
<time>2017-10-24T22:51:58.455Z</time>
</trkpt>
<trkpt lat="-27.3468523" lon="152.8940746">
<ele>109.771</ele>
<time>2017-10-24T22:52:01.647Z</time>
</trkpt>
<trkpt lat="-27.3468796" lon="152.8934278">
<ele>106.462</ele>
<time>2017-10-24T22:52:04.541Z</time>
</trkpt>
<trkpt lat="-27.3468147" lon="152.8927414">
<ele>103.735</ele>
<time>2017-10-24T22:52:07.556Z</time>
</trkpt>
<trkpt lat="-27.3466129" lon="152.8920903">
<ele>102.226</ele>
<time>2017-10-24T22:52:10.581Z</time>
</trkpt>
<trkpt lat="-27.3464193" lon="152.8914635">
<ele>101.157</ele>
<time>2017-10-24T22:52:13.515Z</time>
</trkpt>
<trkpt lat="-27.3464008" lon="152.8907762">
<ele>99.570</ele>
<time>2017-10-24T22:52:16.632Z</time>
</trkpt>
<trkpt lat="-27.3464921" lon="152.8901596">
<ele>97.656</ele>
<time>2017-10-24T22:52:19.533Z</time>
</trkpt>
<trkpt lat="-27.3466308" lon="152.8895360">
<ele>96.528</ele>
<time>2017-10-24T22:52:22.484Z</time>
</trkpt>
<trkpt lat="-27.3469111" lon="152.8889618">
<ele>96.611</ele>
<time>2017-10-24T22:52:25.434Z</time>
</trkpt>
<trkpt lat="-27.3472916" lon="152.8884481">
<ele>97.151</ele>
<time>2017-10-24T22:52:28.379Z</time>
</trkpt>
<trkpt lat="-27.3477716" lon="152.8880148">
<ele>97.233</ele>
<time>2017-10-24T22:52:31.453Z</time>
</trkpt>
<trkpt lat="-27.3481948" lon="152.8876069">
<ele>96.555</ele>
<time>2017-10-24T22:52:34.262Z</time>
</trkpt>
<trkpt lat="-27.3485649" lon="152.8870611">
<ele>95.384</ele>
<time>2017-10-24T22:52:37.274Z</time>
</trkpt>
<trkpt lat="-27.3488962" lon="152.8865068">
<ele>94.267</ele>
<time>2017-10-24T22:52:40.212Z</time>
</trkpt>
<trkpt lat="-27.3492409" lon="152.8859669">
<ele>93.606</ele>
<time>2017-10-24T22:52:43.277Z</time>
</trkpt>
<trkpt lat="-27.3495406" lon="152.8854667">
<ele>93.452</ele>
<time>2017-10-24T22:52:46.382Z</time>
</trkpt>
<trkpt lat="-27.3497374" lon="152.8850664">
<ele>93.908</ele>
<time>2017-10-24T22:52:49.032Z</time>
</trkpt>
<trkpt lat="-27.3498707" lon="152.8846105">
<ele>94.934</ele>
<time>2017-10-24T22:52:51.856Z</time>
</trkpt>
<trkpt lat="-27.3499141" lon="152.8840327">
<ele>95.921</ele>
<time>2017-10-24T22:52:55.110Z</time>
</trkpt>
<trkpt lat="-27.3498751" lon="152.8834593">
<ele>96.221</ele>
<time>2017-10-24T22:52:58.402Z</time>
</trkpt>
<trkpt lat="-27.3497611" lon="152.8830275">
<ele>95.606</ele>
<time>2017-10-24T22:53:01.313Z</time>
</trkpt>
<trkpt lat="-27.3496016" lon="152.8826747">
<ele>94.282</ele>
<time>2017-10-24T22:53:04.637Z</time>
</trkpt>
<trkpt lat="-27.3495426" lon="152.8825475">
<ele>92.657</ele>
<time>2017-10-24T22:53:06.623Z</time>
</trkpt>
<trkpt lat="-27.3494467" lon="152.8824392">
<ele>90.894</ele>
<time>2017-10-24T22:53:09.937Z</time>
</trkpt>
<trkpt lat="-27.3494229" lon="152.8823393">
<ele>89.091</ele>
<time>2017-10-24T22:53:13.000Z</time>
</trkpt>
<trkpt lat="-27.3494229" lon="152.8823393">
<ele>87.612</ele>
<time>2017-10-24T22:53:16.000Z</time>
</trkpt>
<trkpt lat="-27.3494229" lon="152.8823393">
<ele>86.889</ele>
<time>2017-10-24T22:53:18.813Z</time>
</trkpt>
<trkpt lat="-27.3493988" lon="152.8821698">
<ele>86.927</ele>
<time>2017-10-24T22:53:24.000Z</time>
</trkpt>
<trkpt lat="-27.3493988" lon="152.8821698">
<ele>87.155</ele>
<time>2017-10-24T22:53:28.000Z</time>
</trkpt>
<trkpt lat="-27.3493988" lon="152.8821698">
<ele>87.140</ele>
<time>2017-10-24T22:53:30.654Z</time>
</trkpt>
<trkpt lat="-27.3493324" lon="152.8820013">
<ele>86.969</ele>
<time>2017-10-24T22:53:36.136Z</time>
</trkpt>
<trkpt lat="-27.3489919" lon="152.8817522">
<ele>85.436</ele>
<time>2017-10-24T22:53:39.917Z</time>
</trkpt>
<trkpt lat="-27.3485058" lon="152.8813354">
<ele>81.723</ele>
<time>2017-10-24T22:53:43.293Z</time>
</trkpt>
<trkpt lat="-27.3480278" lon="152.8807980">
<ele>78.099</ele>
<time>2017-10-24T22:53:46.458Z</time>
</trkpt>
<trkpt lat="-27.3475854" lon="152.8802959">
<ele>77.151</ele>
<time>2017-10-24T22:53:49.504Z</time>
</trkpt>
<trkpt lat="-27.3472366" lon="152.8798309">
<ele>78.808</ele>
<time>2017-10-24T22:53:52.385Z</time>
</trkpt>
<trkpt lat="-27.3468877" lon="152.8794076">
<ele>81.422</ele>
<time>2017-10-24T22:53:55.197Z</time>
</trkpt>
<trkpt lat="-27.3465808" lon="152.8789166">
<ele>83.300</ele>
<time>2017-10-24T22:53:58.114Z</time>
</trkpt>
<trkpt lat="-27.3462571" lon="152.8784621">
<ele>84.044</ele>
<time>2017-10-24T22:54:01.054Z</time>
</trkpt>
<trkpt lat="-27.3461056" lon="152.8779448">
<ele>84.236</ele>
<time>2017-10-24T22:54:03.879Z</time>
</trkpt>
<trkpt lat="-27.3460726" lon="152.8773447">
<ele>84.403</ele>
<time>2017-10-24T22:54:06.917Z</time>
</trkpt>
<trkpt lat="-27.3458523" lon="152.8767360">
<ele>84.589</ele>
<time>2017-10-24T22:54:10.209Z</time>
</trkpt>
<trkpt lat="-27.3456582" lon="152.8762205">
<ele>84.489</ele>
<time>2017-10-24T22:54:13.086Z</time>
</trkpt>
<trkpt lat="-27.3454521" lon="152.8756717">
<ele>83.788</ele>
<time>2017-10-24T22:54:16.161Z</time>
</trkpt>
<trkpt lat="-27.3452492" lon="152.8751414">
<ele>82.434</ele>
<time>2017-10-24T22:54:19.137Z</time>
</trkpt>
<trkpt lat="-27.3451079" lon="152.8746315">
<ele>80.909</ele>
<time>2017-10-24T22:54:21.877Z</time>
</trkpt>
<trkpt lat="-27.3450535" lon="152.8740412">
<ele>79.805</ele>
<time>2017-10-24T22:54:24.888Z</time>
</trkpt>
<trkpt lat="-27.3448174" lon="152.8735130">
<ele>79.119</ele>
<time>2017-10-24T22:54:27.820Z</time>
</trkpt>
<trkpt lat="-27.3444088" lon="152.8731229">
<ele>78.334</ele>
<time>2017-10-24T22:54:30.642Z</time>
</trkpt>
<trkpt lat="-27.3438657" lon="152.8727536">
<ele>77.137</ele>
<time>2017-10-24T22:54:33.751Z</time>
</trkpt>
<trkpt lat="-27.3433438" lon="152.8723377">
<ele>75.828</ele>
<time>2017-10-24T22:54:36.777Z</time>
</trkpt>
<trkpt lat="-27.3428375" lon="152.8719642">
<ele>75.013</ele>
<time>2017-10-24T22:54:39.660Z</time>
</trkpt>
<trkpt lat="-27.3422552" lon="152.8717592">
<ele>75.223</ele>
<time>2017-10-24T22:54:42.617Z</time>
</trkpt>
<trkpt lat="-27.3416311" lon="152.8717474">
<ele>76.463</ele>
<time>2017-10-24T22:54:45.701Z</time>
</trkpt>
<trkpt lat="-27.3410676" lon="152.8717156">
<ele>78.066</ele>
<time>2017-10-24T22:54:48.528Z</time>
</trkpt>
<trkpt lat="-27.3404761" lon="152.8716645">
<ele>79.262</ele>
<time>2017-10-24T22:54:51.475Z</time>
</trkpt>
<trkpt lat="-27.3398520" lon="152.8715901">
<ele>79.669</ele>
<time>2017-10-24T22:54:54.499Z</time>
</trkpt>
<trkpt lat="-27.3391987" lon="152.8715766">
<ele>79.238</ele>
<time>2017-10-24T22:54:57.553Z</time>
</trkpt>
<trkpt lat="-27.3385366" lon="152.8715749">
<ele>78.354</ele>
<time>2017-10-24T22:55:00.628Z</time>
</trkpt>
<trkpt lat="-27.3379273" lon="152.8715374">
<ele>77.569</ele>
<time>2017-10-24T22:55:03.527Z</time>
</trkpt>
<trkpt lat="-27.3373165" lon="152.8715095">
<ele>77.318</ele>
<time>2017-10-24T22:55:06.501Z</time>
</trkpt>
<trkpt lat="-27.3367111" lon="152.8714714">
<ele>77.715</ele>
<time>2017-10-24T22:55:09.486Z</time>
</trkpt>
<trkpt lat="-27.3360998" lon="152.8714909">
<ele>78.446</ele>
<time>2017-10-24T22:55:12.530Z</time>
</trkpt>
<trkpt lat="-27.3355127" lon="152.8716003">
<ele>79.285</ele>
<time>2017-10-24T22:55:15.535Z</time>
</trkpt>
<trkpt lat="-27.3349507" lon="152.8717678">
<ele>80.167</ele>
<time>2017-10-24T22:55:18.538Z</time>
</trkpt>
<trkpt lat="-27.3344161" lon="152.8719279">
<ele>80.794</ele>
<time>2017-10-24T22:55:21.474Z</time>
</trkpt>
<trkpt lat="-27.3338783" lon="152.8719230">
<ele>80.597</ele>
<time>2017-10-24T22:55:24.295Z</time>
</trkpt>
<trkpt lat="-27.3333356" lon="152.8716728">
<ele>78.782</ele>
<time>2017-10-24T22:55:27.171Z</time>
</trkpt>
<trkpt lat="-27.3328185" lon="152.8711167">
<ele>74.547</ele>
<time>2017-10-24T22:55:30.423Z</time>
</trkpt>
<trkpt lat="-27.3325021" lon="152.8704070">
<ele>68.432</ele>
<time>2017-10-24T22:55:33.576Z</time>
</trkpt>
<trkpt lat="-27.3322772" lon="152.8697130">
<ele>62.828</ele>
<time>2017-10-24T22:55:36.614Z</time>
</trkpt>
<trkpt lat="-27.3320694" lon="152.8690766">
<ele>60.516</ele>
<time>2017-10-24T22:55:39.526Z</time>
</trkpt>
<trkpt lat="-27.3317304" lon="152.8685473">
<ele>62.502</ele>
<time>2017-10-24T22:55:42.409Z</time>
</trkpt>
<trkpt lat="-27.3312997" lon="152.8680425">
<ele>67.371</ele>
<time>2017-10-24T22:55:45.557Z</time>
</trkpt>
<trkpt lat="-27.3308891" lon="152.8676634">
<ele>72.547</ele>
<time>2017-10-24T22:55:48.357Z</time>
</trkpt>
<trkpt lat="-27.3304406" lon="152.8673486">
<ele>76.110</ele>
<time>2017-10-24T22:55:51.268Z</time>
</trkpt>
<trkpt lat="-27.3299370" lon="152.8670939">
<ele>77.384</ele>
<time>2017-10-24T22:55:54.248Z</time>
</trkpt>
<trkpt lat="-27.3293626" lon="152.8668918">
<ele>76.529</ele>
<time>2017-10-24T22:55:57.224Z</time>
</trkpt>
<trkpt lat="-27.3287061" lon="152.8667277">
<ele>73.885</ele>
<time>2017-10-24T22:56:00.306Z</time>
</trkpt>
<trkpt lat="-27.3280791" lon="152.8665384">
<ele>70.165</ele>
<time>2017-10-24T22:56:03.178Z</time>
</trkpt>
<trkpt lat="-27.3274550" lon="152.8661762">
<ele>66.453</ele>
<time>2017-10-24T22:56:06.234Z</time>
</trkpt>
<trkpt lat="-27.3269595" lon="152.8656066">
<ele>63.502</ele>
<time>2017-10-24T22:56:09.389Z</time>
</trkpt>
<trkpt lat="-27.3265031" lon="152.8651323">
<ele>61.638</ele>
<time>2017-10-24T22:56:12.311Z</time>
</trkpt>
<trkpt lat="-27.3260738" lon="152.8646091">
<ele>60.965</ele>
<time>2017-10-24T22:56:15.380Z</time>
</trkpt>
<trkpt lat="-27.3256337" lon="152.8640768">
<ele>61.330</ele>
<time>2017-10-24T22:56:18.560Z</time>
</trkpt>
<trkpt lat="-27.3252710" lon="152.8635471">
<ele>62.273</ele>
<time>2017-10-24T22:56:21.487Z</time>
</trkpt>
<trkpt lat="-27.3249344" lon="152.8629771">
<ele>63.111</ele>
<time>2017-10-24T22:56:24.407Z</time>
</trkpt>
<trkpt lat="-27.3244908" lon="152.8624439">
<ele>63.425</ele>
<time>2017-10-24T22:56:27.436Z</time>
</trkpt>
<trkpt lat="-27.3240086" lon="152.8620308">
<ele>63.317</ele>
<time>2017-10-24T22:56:30.254Z</time>
</trkpt>
<trkpt lat="-27.3234544" lon="152.8617263">
<ele>63.083</ele>
<time>2017-10-24T22:56:33.190Z</time>
</trkpt>
<trkpt lat="-27.3228855" lon="152.8615457">
<ele>62.954</ele>
<time>2017-10-24T22:56:36.131Z</time>
</trkpt>
<trkpt lat="-27.3223414" lon="152.8613737">
<ele>63.100</ele>
<time>2017-10-24T22:56:39.095Z</time>
</trkpt>
<trkpt lat="-27.3218143" lon="152.8612512">
<ele>63.585</ele>
<time>2017-10-24T22:56:42.030Z</time>
</trkpt>
<trkpt lat="-27.3212901" lon="152.8611618">
<ele>64.384</ele>
<time>2017-10-24T22:56:44.956Z</time>
</trkpt>
<trkpt lat="-27.3207529" lon="152.8610067">
<ele>65.518</ele>
<time>2017-10-24T22:56:47.967Z</time>
</trkpt>
<trkpt lat="-27.3201883" lon="152.8608166">
<ele>66.943</ele>
<time>2017-10-24T22:56:51.046Z</time>
</trkpt>
<trkpt lat="-27.3196001" lon="152.8606937">
<ele>68.498</ele>
<time>2017-10-24T22:56:54.059Z</time>
</trkpt>
<trkpt lat="-27.3190071" lon="152.8605273">
<ele>70.084</ele>
<time>2017-10-24T22:56:57.063Z</time>
</trkpt>
<trkpt lat="-27.3184047" lon="152.8603905">
<ele>71.504</ele>
<time>2017-10-24T22:57:00.121Z</time>
</trkpt>
<trkpt lat="-27.3179042" lon="152.8602466">
<ele>72.700</ele>
<time>2017-10-24T22:57:02.819Z</time>
</trkpt>
<trkpt lat="-27.3173838" lon="152.8600525">
<ele>73.864</ele>
<time>2017-10-24T22:57:05.722Z</time>
</trkpt>
<trkpt lat="-27.3168283" lon="152.8597562">
<ele>74.959</ele>
<time>2017-10-24T22:57:08.769Z</time>
</trkpt>
<trkpt lat="-27.3162747" lon="152.8592872">
<ele>75.854</ele>
<time>2017-10-24T22:57:11.992Z</time>
</trkpt>
<trkpt lat="-27.3158242" lon="152.8587617">
<ele>76.825</ele>
<time>2017-10-24T22:57:15.005Z</time>
</trkpt>
<trkpt lat="-27.3154413" lon="152.8581864">
<ele>78.393</ele>
<time>2017-10-24T22:57:18.013Z</time>
</trkpt>
<trkpt lat="-27.3150224" lon="152.8577014">
<ele>80.562</ele>
<time>2017-10-24T22:57:20.836Z</time>
</trkpt>
<trkpt lat="-27.3144818" lon="152.8573059">
<ele>82.687</ele>
<time>2017-10-24T22:57:23.817Z</time>
</trkpt>
<trkpt lat="-27.3138617" lon="152.8570138">
<ele>84.177</ele>
<time>2017-10-24T22:57:26.812Z</time>
</trkpt>
<trkpt lat="-27.3131479" lon="152.8567680">
<ele>84.656</ele>
<time>2017-10-24T22:57:29.974Z</time>
</trkpt>
<trkpt lat="-27.3124857" lon="152.8564550">
<ele>83.815</ele>
<time>2017-10-24T22:57:32.909Z</time>
</trkpt>
<trkpt lat="-27.3118805" lon="152.8559736">
<ele>81.854</ele>
<time>2017-10-24T22:57:35.896Z</time>
</trkpt>
<trkpt lat="-27.3113005" lon="152.8554104">
<ele>79.592</ele>
<time>2017-10-24T22:57:38.960Z</time>
</trkpt>
<trkpt lat="-27.3108247" lon="152.8547102">
<ele>77.865</ele>
<time>2017-10-24T22:57:42.064Z</time>
</trkpt>
<trkpt lat="-27.3105267" lon="152.8539513">
<ele>76.943</ele>
<time>2017-10-24T22:57:44.945Z</time>
</trkpt>
<trkpt lat="-27.3103086" lon="152.8530958">
<ele>76.281</ele>
<time>2017-10-24T22:57:47.931Z</time>
</trkpt>
<trkpt lat="-27.3102733" lon="152.8521227">
<ele>74.726</ele>
<time>2017-10-24T22:57:51.045Z</time>
</trkpt>
<trkpt lat="-27.3104032" lon="152.8511773">
<ele>71.353</ele>
<time>2017-10-24T22:57:54.068Z</time>
</trkpt>
<trkpt lat="-27.3106488" lon="152.8503288">
<ele>66.463</ele>
<time>2017-10-24T22:57:56.936Z</time>
</trkpt>
<trkpt lat="-27.3108942" lon="152.8494103">
<ele>61.647</ele>
<time>2017-10-24T22:58:00.022Z</time>
</trkpt>
<trkpt lat="-27.3110550" lon="152.8485160">
<ele>58.550</ele>
<time>2017-10-24T22:58:02.965Z</time>
</trkpt>
<trkpt lat="-27.3110920" lon="152.8476732">
<ele>57.557</ele>
<time>2017-10-24T22:58:05.783Z</time>
</trkpt>
<trkpt lat="-27.3109958" lon="152.8468234">
<ele>57.949</ele>
<time>2017-10-24T22:58:08.757Z</time>
</trkpt>
<trkpt lat="-27.3108245" lon="152.8460239">
<ele>58.737</ele>
<time>2017-10-24T22:58:11.696Z</time>
</trkpt>
<trkpt lat="-27.3105537" lon="152.8453140">
<ele>59.400</ele>
<time>2017-10-24T22:58:14.555Z</time>
</trkpt>
<trkpt lat="-27.3101623" lon="152.8446366">
<ele>59.981</ele>
<time>2017-10-24T22:58:17.560Z</time>
</trkpt>
<trkpt lat="-27.3096782" lon="152.8440094">
<ele>60.497</ele>
<time>2017-10-24T22:58:20.628Z</time>
</trkpt>
<trkpt lat="-27.3091862" lon="152.8435291">
<ele>60.948</ele>
<time>2017-10-24T22:58:23.393Z</time>
</trkpt>
<trkpt lat="-27.3086116" lon="152.8430965">
<ele>61.502</ele>
<time>2017-10-24T22:58:26.401Z</time>
</trkpt>
<trkpt lat="-27.3080325" lon="152.8427857">
<ele>62.105</ele>
<time>2017-10-24T22:58:29.263Z</time>
</trkpt>
<trkpt lat="-27.3073801" lon="152.8425408">
<ele>62.451</ele>
<time>2017-10-24T22:58:32.330Z</time>
</trkpt>
<trkpt lat="-27.3066505" lon="152.8424050">
<ele>62.040</ele>
<time>2017-10-24T22:58:35.444Z</time>
</trkpt>
<trkpt lat="-27.3058963" lon="152.8424219">
<ele>60.563</ele>
<time>2017-10-24T22:58:38.499Z</time>
</trkpt>
<trkpt lat="-27.3054292" lon="152.8425020">
<ele>58.585</ele>
<time>2017-10-24T22:58:40.428Z</time>
</trkpt>
<trkpt lat="-27.3049553" lon="152.8426222">
<ele>57.071</ele>
<time>2017-10-24T22:58:42.451Z</time>
</trkpt>
<trkpt lat="-27.3045006" lon="152.8427054">
<ele>56.526</ele>
<time>2017-10-24T22:58:44.407Z</time>
</trkpt>
<trkpt lat="-27.3040757" lon="152.8427857">
<ele>56.985</ele>
<time>2017-10-24T22:58:46.302Z</time>
</trkpt>
<trkpt lat="-27.3036999" lon="152.8428449">
<ele>58.070</ele>
<time>2017-10-24T22:58:48.067Z</time>
</trkpt>
<trkpt lat="-27.3033245" lon="152.8429215">
<ele>59.146</ele>
<time>2017-10-24T22:58:49.964Z</time>
</trkpt>
<trkpt lat="-27.3029790" lon="152.8430087">
<ele>59.723</ele>
<time>2017-10-24T22:58:51.820Z</time>
</trkpt>
<trkpt lat="-27.3026303" lon="152.8430538">
<ele>59.770</ele>
<time>2017-10-24T22:58:53.736Z</time>
</trkpt>
<trkpt lat="-27.3022510" lon="152.8431281">
<ele>59.526</ele>
<time>2017-10-24T22:58:55.804Z</time>
</trkpt>
<trkpt lat="-27.3015620" lon="152.8432734">
<ele>59.203</ele>
<time>2017-10-24T22:58:59.188Z</time>
</trkpt>
<trkpt lat="-27.3009014" lon="152.8434028">
<ele>58.630</ele>
<time>2017-10-24T22:59:02.144Z</time>
</trkpt>
<trkpt lat="-27.3001999" lon="152.8434409">
<ele>57.384</ele>
<time>2017-10-24T22:59:05.173Z</time>
</trkpt>
<trkpt lat="-27.2995108" lon="152.8433486">
<ele>55.362</ele>
<time>2017-10-24T22:59:08.154Z</time>
</trkpt>
<trkpt lat="-27.2988373" lon="152.8431391">
<ele>52.852</ele>
<time>2017-10-24T22:59:11.153Z</time>
</trkpt>
<trkpt lat="-27.2980755" lon="152.8429661">
<ele>50.397</ele>
<time>2017-10-24T22:59:14.391Z</time>
</trkpt>
<trkpt lat="-27.2973208" lon="152.8427875">
<ele>48.676</ele>
<time>2017-10-24T22:59:17.453Z</time>
</trkpt>
<trkpt lat="-27.2966953" lon="152.8426799">
<ele>47.841</ele>
<time>2017-10-24T22:59:20.044Z</time>
</trkpt>
<trkpt lat="-27.2960529" lon="152.8425307">
<ele>47.133</ele>
<time>2017-10-24T22:59:22.986Z</time>
</trkpt>
<trkpt lat="-27.2953930" lon="152.8423704">
<ele>45.743</ele>
<time>2017-10-24T22:59:26.019Z</time>
</trkpt>
<trkpt lat="-27.2947533" lon="152.8422641">
<ele>43.987</ele>
<time>2017-10-24T22:59:28.903Z</time>
</trkpt>
<trkpt lat="-27.2940765" lon="152.8421481">
<ele>42.794</ele>
<time>2017-10-24T22:59:31.982Z</time>
</trkpt>
<trkpt lat="-27.2933814" lon="152.8420936">
<ele>42.413</ele>
<time>2017-10-24T22:59:35.009Z</time>
</trkpt>
<trkpt lat="-27.2926343" lon="152.8421185">
<ele>42.476</ele>
<time>2017-10-24T22:59:38.121Z</time>
</trkpt>
<trkpt lat="-27.2919026" lon="152.8421969">
<ele>42.553</ele>
<time>2017-10-24T22:59:41.134Z</time>
</trkpt>
<trkpt lat="-27.2912270" lon="152.8423077">
<ele>42.290</ele>
<time>2017-10-24T22:59:43.977Z</time>
</trkpt>
<trkpt lat="-27.2906427" lon="152.8424484">
<ele>41.567</ele>
<time>2017-10-24T22:59:46.672Z</time>
</trkpt>
<trkpt lat="-27.2900568" lon="152.8425801">
<ele>40.558</ele>
<time>2017-10-24T22:59:49.552Z</time>
</trkpt>
<trkpt lat="-27.2893957" lon="152.8427423">
<ele>39.517</ele>
<time>2017-10-24T22:59:52.742Z</time>
</trkpt>
<trkpt lat="-27.2887289" lon="152.8429152">
<ele>38.573</ele>
<time>2017-10-24T22:59:55.772Z</time>
</trkpt>
<trkpt lat="-27.2880782" lon="152.8431094">
<ele>37.832</ele>
<time>2017-10-24T22:59:58.720Z</time>
</trkpt>
<trkpt lat="-27.2874295" lon="152.8432338">
<ele>37.414</ele>
<time>2017-10-24T23:00:01.637Z</time>
</trkpt>
<trkpt lat="-27.2867329" lon="152.8434043">
<ele>37.564</ele>
<time>2017-10-24T23:00:04.751Z</time>
</trkpt>
<trkpt lat="-27.2860778" lon="152.8436261">
<ele>38.273</ele>
<time>2017-10-24T23:00:07.706Z</time>
</trkpt>
<trkpt lat="-27.2854055" lon="152.8438779">
<ele>39.025</ele>
<time>2017-10-24T23:00:10.727Z</time>
</trkpt>
<trkpt lat="-27.2847866" lon="152.8441662">
<ele>39.441</ele>
<time>2017-10-24T23:00:13.544Z</time>
</trkpt>
<trkpt lat="-27.2842172" lon="152.8444819">
<ele>39.690</ele>
<time>2017-10-24T23:00:16.304Z</time>
</trkpt>
<trkpt lat="-27.2836337" lon="152.8448114">
<ele>39.983</ele>
<time>2017-10-24T23:00:19.277Z</time>
</trkpt>
<trkpt lat="-27.2830391" lon="152.8451145">
<ele>40.305</ele>
<time>2017-10-24T23:00:22.285Z</time>
</trkpt>
<trkpt lat="-27.2824267" lon="152.8454449">
<ele>40.552</ele>
<time>2017-10-24T23:00:25.341Z</time>
</trkpt>
<trkpt lat="-27.2817435" lon="152.8457860">
<ele>40.748</ele>
<time>2017-10-24T23:00:28.585Z</time>
</trkpt>
<trkpt lat="-27.2811112" lon="152.8461482">
<ele>41.138</ele>
<time>2017-10-24T23:00:31.552Z</time>
</trkpt>
<trkpt lat="-27.2804626" lon="152.8465043">
<ele>41.965</ele>
<time>2017-10-24T23:00:34.538Z</time>
</trkpt>
<trkpt lat="-27.2798412" lon="152.8468519">
<ele>43.087</ele>
<time>2017-10-24T23:00:37.438Z</time>
</trkpt>
<trkpt lat="-27.2792031" lon="152.8472255">
<ele>44.123</ele>
<time>2017-10-24T23:00:40.480Z</time>
</trkpt>
<trkpt lat="-27.2785891" lon="152.8475279">
<ele>44.939</ele>
<time>2017-10-24T23:00:43.345Z</time>
</trkpt>
<trkpt lat="-27.2779625" lon="152.8479056">
<ele>45.585</ele>
<time>2017-10-24T23:00:46.366Z</time>
</trkpt>
<trkpt lat="-27.2773446" lon="152.8481663">
<ele>46.153</ele>
<time>2017-10-24T23:00:49.179Z</time>
</trkpt>
<trkpt lat="-27.2767144" lon="152.8484161">
<ele>46.723</ele>
<time>2017-10-24T23:00:52.094Z</time>
</trkpt>
<trkpt lat="-27.2760287" lon="152.8486696">
<ele>47.220</ele>
<time>2017-10-24T23:00:55.274Z</time>
</trkpt>
<trkpt lat="-27.2753541" lon="152.8489166">
<ele>47.506</ele>
<time>2017-10-24T23:00:58.356Z</time>
</trkpt>
<trkpt lat="-27.2746679" lon="152.8491426">
<ele>47.581</ele>
<time>2017-10-24T23:01:01.429Z</time>
</trkpt>
<trkpt lat="-27.2739879" lon="152.8493297">
<ele>47.521</ele>
<time>2017-10-24T23:01:04.425Z</time>
</trkpt>
<trkpt lat="-27.2732919" lon="152.8494635">
<ele>47.191</ele>
<time>2017-10-24T23:01:07.422Z</time>
</trkpt>
<trkpt lat="-27.2725539" lon="152.8496473">
<ele>46.364</ele>
<time>2017-10-24T23:01:10.625Z</time>
</trkpt>
<trkpt lat="-27.2719391" lon="152.8497278">
<ele>45.313</ele>
<time>2017-10-24T23:01:13.305Z</time>
</trkpt>
<trkpt lat="-27.2712727" lon="152.8498343">
<ele>44.724</ele>
<time>2017-10-24T23:01:16.258Z</time>
</trkpt>
<trkpt lat="-27.2705946" lon="152.8499603">
<ele>44.876</ele>
<time>2017-10-24T23:01:19.261Z</time>
</trkpt>
<trkpt lat="-27.2698964" lon="152.8501156">
<ele>45.477</ele>
<time>2017-10-24T23:01:22.340Z</time>
</trkpt>
<trkpt lat="-27.2691844" lon="152.8502388">
<ele>46.282</ele>
<time>2017-10-24T23:01:25.386Z</time>
</trkpt>
<trkpt lat="-27.2685072" lon="152.8503982">
<ele>47.287</ele>
<time>2017-10-24T23:01:28.242Z</time>
</trkpt>
<trkpt lat="-27.2678164" lon="152.8505340">
<ele>48.438</ele>
<time>2017-10-24T23:01:31.152Z</time>
</trkpt>
<trkpt lat="-27.2671254" lon="152.8506584">
<ele>49.604</ele>
<time>2017-10-24T23:01:34.087Z</time>
</trkpt>
<trkpt lat="-27.2663705" lon="152.8507686">
<ele>50.558</ele>
<time>2017-10-24T23:01:37.240Z</time>
</trkpt>
<trkpt lat="-27.2656758" lon="152.8508929">
<ele>51.067</ele>
<time>2017-10-24T23:01:40.118Z</time>
</trkpt>
<trkpt lat="-27.2649890" lon="152.8510387">
<ele>51.175</ele>
<time>2017-10-24T23:01:42.992Z</time>
</trkpt>
<trkpt lat="-27.2642787" lon="152.8511875">
<ele>51.110</ele>
<time>2017-10-24T23:01:45.986Z</time>
</trkpt>
<trkpt lat="-27.2635987" lon="152.8513373">
<ele>50.989</ele>
<time>2017-10-24T23:01:48.882Z</time>
</trkpt>
<trkpt lat="-27.2628908" lon="152.8514673">
<ele>50.592</ele>
<time>2017-10-24T23:01:51.928Z</time>
</trkpt>
<trkpt lat="-27.2621840" lon="152.8516021">
<ele>49.335</ele>
<time>2017-10-24T23:01:54.976Z</time>
</trkpt>
<trkpt lat="-27.2614593" lon="152.8516842">
<ele>46.790</ele>
<time>2017-10-24T23:01:58.004Z</time>
</trkpt>
<trkpt lat="-27.2607226" lon="152.8517659">
<ele>43.349</ele>
<time>2017-10-24T23:02:01.030Z</time>
</trkpt>
<trkpt lat="-27.2600171" lon="152.8517135">
<ele>40.107</ele>
<time>2017-10-24T23:02:03.927Z</time>
</trkpt>
<trkpt lat="-27.2593143" lon="152.8516291">
<ele>38.015</ele>
<time>2017-10-24T23:02:06.842Z</time>
</trkpt>
<trkpt lat="-27.2586467" lon="152.8515100">
<ele>37.438</ele>
<time>2017-10-24T23:02:09.669Z</time>
</trkpt>
<trkpt lat="-27.2580030" lon="152.8512780">
<ele>38.038</ele>
<time>2017-10-24T23:02:12.573Z</time>
</trkpt>
<trkpt lat="-27.2573950" lon="152.8510130">
<ele>39.141</ele>
<time>2017-10-24T23:02:15.452Z</time>
</trkpt>
<trkpt lat="-27.2567631" lon="152.8506777">
<ele>40.412</ele>
<time>2017-10-24T23:02:18.562Z</time>
</trkpt>
<trkpt lat="-27.2561817" lon="152.8503174">
<ele>41.622</ele>
<time>2017-10-24T23:02:21.483Z</time>
</trkpt>
<trkpt lat="-27.2555946" lon="152.8498637">
<ele>42.335</ele>
<time>2017-10-24T23:02:24.568Z</time>
</trkpt>
<trkpt lat="-27.2550356" lon="152.8494105">
<ele>42.157</ele>
<time>2017-10-24T23:02:27.541Z</time>
</trkpt>
<trkpt lat="-27.2546272" lon="152.8489277">
<ele>41.135</ele>
<time>2017-10-24T23:02:30.187Z</time>
</trkpt>
<trkpt lat="-27.2541912" lon="152.8483875">
<ele>39.660</ele>
<time>2017-10-24T23:02:33.213Z</time>
</trkpt>
<trkpt lat="-27.2537437" lon="152.8477869">
<ele>38.066</ele>
<time>2017-10-24T23:02:36.392Z</time>
</trkpt>
<trkpt lat="-27.2532748" lon="152.8471491">
<ele>36.579</ele>
<time>2017-10-24T23:02:39.537Z</time>
</trkpt>
<trkpt lat="-27.2528291" lon="152.8464907">
<ele>35.474</ele>
<time>2017-10-24T23:02:42.564Z</time>
</trkpt>
<trkpt lat="-27.2524011" lon="152.8458969">
<ele>34.860</ele>
<time>2017-10-24T23:02:45.368Z</time>
</trkpt>
<trkpt lat="-27.2519716" lon="152.8453199">
<ele>34.975</ele>
<time>2017-10-24T23:02:48.203Z</time>
</trkpt>
<trkpt lat="-27.2515432" lon="152.8447266">
<ele>36.087</ele>
<time>2017-10-24T23:02:51.157Z</time>
</trkpt>
<trkpt lat="-27.2511358" lon="152.8441037">
<ele>37.974</ele>
<time>2017-10-24T23:02:54.181Z</time>
</trkpt>
<trkpt lat="-27.2508314" lon="152.8434319">
<ele>40.014</ele>
<time>2017-10-24T23:02:57.164Z</time>
</trkpt>
<trkpt lat="-27.2505837" lon="152.8427576">
<ele>41.828</ele>
<time>2017-10-24T23:03:00.100Z</time>
</trkpt>
<trkpt lat="-27.2503514" lon="152.8420538">
<ele>43.578</ele>
<time>2017-10-24T23:03:03.159Z</time>
</trkpt>
<trkpt lat="-27.2502264" lon="152.8413653">
<ele>45.507</ele>
<time>2017-10-24T23:03:06.015Z</time>
</trkpt>
<trkpt lat="-27.2501180" lon="152.8406525">
<ele>47.769</ele>
<time>2017-10-24T23:03:08.951Z</time>
</trkpt>
<trkpt lat="-27.2499703" lon="152.8399059">
<ele>50.456</ele>
<time>2017-10-24T23:03:12.048Z</time>
</trkpt>
<trkpt lat="-27.2498277" lon="152.8391797">
<ele>53.268</ele>
<time>2017-10-24T23:03:15.016Z</time>
</trkpt>
<trkpt lat="-27.2495881" lon="152.8385368">
<ele>55.468</ele>
<time>2017-10-24T23:03:17.785Z</time>
</trkpt>
<trkpt lat="-27.2492398" lon="152.8378515">
<ele>56.498</ele>
<time>2017-10-24T23:03:20.936Z</time>
</trkpt>
<trkpt lat="-27.2488146" lon="152.8371843">
<ele>56.030</ele>
<time>2017-10-24T23:03:24.142Z</time>
</trkpt>
<trkpt lat="-27.2483125" lon="152.8366621">
<ele>54.034</ele>
<time>2017-10-24T23:03:27.047Z</time>
</trkpt>
<trkpt lat="-27.2478328" lon="152.8361717">
<ele>51.045</ele>
<time>2017-10-24T23:03:29.797Z</time>
</trkpt>
<trkpt lat="-27.2473766" lon="152.8356528">
<ele>48.251</ele>
<time>2017-10-24T23:03:32.634Z</time>
</trkpt>
<trkpt lat="-27.2469190" lon="152.8351556">
<ele>46.781</ele>
<time>2017-10-24T23:03:35.470Z</time>
</trkpt>
<trkpt lat="-27.2464259" lon="152.8346181">
<ele>47.067</ele>
<time>2017-10-24T23:03:38.534Z</time>
</trkpt>
<trkpt lat="-27.2458228" lon="152.8342048">
<ele>49.154</ele>
<time>2017-10-24T23:03:41.642Z</time>
</trkpt>
<trkpt lat="-27.2451747" lon="152.8338949">
<ele>52.719</ele>
<time>2017-10-24T23:03:44.672Z</time>
</trkpt>
<trkpt lat="-27.2445114" lon="152.8337313">
<ele>56.730</ele>
<time>2017-10-24T23:03:47.596Z</time>
</trkpt>
<trkpt lat="-27.2438307" lon="152.8336174">
<ele>60.254</ele>
<time>2017-10-24T23:03:50.597Z</time>
</trkpt>
<trkpt lat="-27.2431592" lon="152.8335057">
<ele>62.793</ele>
<time>2017-10-24T23:03:53.570Z</time>
</trkpt>
<trkpt lat="-27.2424988" lon="152.8333175">
<ele>64.015</ele>
<time>2017-10-24T23:03:56.570Z</time>
</trkpt>
<trkpt lat="-27.2418569" lon="152.8330022">
<ele>64.160</ele>
<time>2017-10-24T23:03:59.662Z</time>
</trkpt>
<trkpt lat="-27.2411480" lon="152.8327265">
<ele>63.917</ele>
<time>2017-10-24T23:04:02.899Z</time>
</trkpt>
<trkpt lat="-27.2404540" lon="152.8325550">
<ele>64.013</ele>
<time>2017-10-24T23:04:05.860Z</time>
</trkpt>
<trkpt lat="-27.2397324" lon="152.8324868">
<ele>64.944</ele>
<time>2017-10-24T23:04:08.834Z</time>
</trkpt>
<trkpt lat="-27.2390186" lon="152.8325007">
<ele>66.559</ele>
<time>2017-10-24T23:04:11.798Z</time>
</trkpt>
<trkpt lat="-27.2383233" lon="152.8324547">
<ele>68.177</ele>
<time>2017-10-24T23:04:14.710Z</time>
</trkpt>
<trkpt lat="-27.2376035" lon="152.8323035">
<ele>69.321</ele>
<time>2017-10-24T23:04:17.771Z</time>
</trkpt>
<trkpt lat="-27.2369251" lon="152.8320845">
<ele>70.064</ele>
<time>2017-10-24T23:04:20.715Z</time>
</trkpt>
<trkpt lat="-27.2362769" lon="152.8318088">
<ele>71.129</ele>
<time>2017-10-24T23:04:23.602Z</time>
</trkpt>
<trkpt lat="-27.2356494" lon="152.8314946">
<ele>73.125</ele>
<time>2017-10-24T23:04:26.498Z</time>
</trkpt>
<trkpt lat="-27.2350146" lon="152.8311762">
<ele>75.739</ele>
<time>2017-10-24T23:04:29.470Z</time>
</trkpt>
<trkpt lat="-27.2343486" lon="152.8308497">
<ele>78.453</ele>
<time>2017-10-24T23:04:32.556Z</time>
</trkpt>
<trkpt lat="-27.2336838" lon="152.8305595">
<ele>81.126</ele>
<time>2017-10-24T23:04:35.548Z</time>
</trkpt>
<trkpt lat="-27.2329662" lon="152.8303004">
<ele>83.337</ele>
<time>2017-10-24T23:04:38.675Z</time>
</trkpt>
<trkpt lat="-27.2322350" lon="152.8301161">
<ele>84.597</ele>
<time>2017-10-24T23:04:41.708Z</time>
</trkpt>
<trkpt lat="-27.2315225" lon="152.8299837">
<ele>84.905</ele>
<time>2017-10-24T23:04:44.597Z</time>
</trkpt>
<trkpt lat="-27.2307884" lon="152.8299018">
<ele>84.525</ele>
<time>2017-10-24T23:04:47.588Z</time>
</trkpt>
<trkpt lat="-27.2300600" lon="152.8298775">
<ele>83.636</ele>
<time>2017-10-24T23:04:50.566Z</time>
</trkpt>
<trkpt lat="-27.2293228" lon="152.8298422">
<ele>82.174</ele>
<time>2017-10-24T23:04:53.581Z</time>
</trkpt>
<trkpt lat="-27.2285899" lon="152.8297726">
<ele>80.187</ele>
<time>2017-10-24T23:04:56.586Z</time>
</trkpt>
<trkpt lat="-27.2278693" lon="152.8297335">
<ele>78.104</ele>
<time>2017-10-24T23:04:59.543Z</time>
</trkpt>
<trkpt lat="-27.2271270" lon="152.8296845">
<ele>76.315</ele>
<time>2017-10-24T23:05:02.598Z</time>
</trkpt>
<trkpt lat="-27.2264157" lon="152.8296958">
<ele>74.808</ele>
<time>2017-10-24T23:05:05.503Z</time>
</trkpt>
<trkpt lat="-27.2257027" lon="152.8297437">
<ele>73.397</ele>
<time>2017-10-24T23:05:08.409Z</time>
</trkpt>
<trkpt lat="-27.2249679" lon="152.8298736">
<ele>72.117</ele>
<time>2017-10-24T23:05:11.445Z</time>
</trkpt>
<trkpt lat="-27.2242878" lon="152.8301002">
<ele>71.127</ele>
<time>2017-10-24T23:05:14.361Z</time>
</trkpt>
<trkpt lat="-27.2235505" lon="152.8303847">
<ele>70.283</ele>
<time>2017-10-24T23:05:17.522Z</time>
</trkpt>
<trkpt lat="-27.2228888" lon="152.8306899">
<ele>69.277</ele>
<time>2017-10-24T23:05:20.377Z</time>
</trkpt>
<trkpt lat="-27.2222657" lon="152.8310347">
<ele>67.959</ele>
<time>2017-10-24T23:05:23.170Z</time>
</trkpt>
<trkpt lat="-27.2216101" lon="152.8313590">
<ele>66.154</ele>
<time>2017-10-24T23:05:26.127Z</time>
</trkpt>
<trkpt lat="-27.2209184" lon="152.8317093">
<ele>63.817</ele>
<time>2017-10-24T23:05:29.283Z</time>
</trkpt>
<trkpt lat="-27.2202887" lon="152.8320118">
<ele>61.354</ele>
<time>2017-10-24T23:05:32.075Z</time>
</trkpt>
<trkpt lat="-27.2196192" lon="152.8323331">
<ele>59.179</ele>
<time>2017-10-24T23:05:35.059Z</time>
</trkpt>
<trkpt lat="-27.2189700" lon="152.8326360">
<ele>57.316</ele>
<time>2017-10-24T23:05:37.970Z</time>
</trkpt>
<trkpt lat="-27.2183204" lon="152.8329415">
<ele>55.561</ele>
<time>2017-10-24T23:05:40.884Z</time>
</trkpt>
<trkpt lat="-27.2178050" lon="152.8331080">
<ele>53.953</ele>
<time>2017-10-24T23:05:43.125Z</time>
</trkpt>
<trkpt lat="-27.2172975" lon="152.8332122">
<ele>52.897</ele>
<time>2017-10-24T23:05:45.272Z</time>
</trkpt>
<trkpt lat="-27.2167644" lon="152.8332938">
<ele>52.557</ele>
<time>2017-10-24T23:05:47.476Z</time>
</trkpt>
<trkpt lat="-27.2162681" lon="152.8332848">
<ele>52.479</ele>
<time>2017-10-24T23:05:49.468Z</time>
</trkpt>
<trkpt lat="-27.2158157" lon="152.8332967">
<ele>52.249</ele>
<time>2017-10-24T23:05:51.274Z</time>
</trkpt>
<trkpt lat="-27.2153937" lon="152.8332386">
<ele>51.722</ele>
<time>2017-10-24T23:05:52.998Z</time>
</trkpt>
<trkpt lat="-27.2149972" lon="152.8332328">
<ele>50.961</ele>
<time>2017-10-24T23:05:54.655Z</time>
</trkpt>
<trkpt lat="-27.2145882" lon="152.8332095">
<ele>50.154</ele>
<time>2017-10-24T23:05:56.443Z</time>
</trkpt>
<trkpt lat="-27.2141954" lon="152.8330737">
<ele>49.310</ele>
<time>2017-10-24T23:05:58.316Z</time>
</trkpt>
<trkpt lat="-27.2136019" lon="152.8327753">
<ele>47.986</ele>
<time>2017-10-24T23:06:01.363Z</time>
</trkpt>
<trkpt lat="-27.2130240" lon="152.8325297">
<ele>45.812</ele>
<time>2017-10-24T23:06:04.312Z</time>
</trkpt>
<trkpt lat="-27.2125243" lon="152.8323072">
<ele>43.157</ele>
<time>2017-10-24T23:06:06.917Z</time>
</trkpt>
<trkpt lat="-27.2119923" lon="152.8321153">
<ele>40.852</ele>
<time>2017-10-24T23:06:09.720Z</time>
</trkpt>
<trkpt lat="-27.2114275" lon="152.8319051">
<ele>39.206</ele>
<time>2017-10-24T23:06:12.868Z</time>
</trkpt>
<trkpt lat="-27.2108868" lon="152.8316875">
<ele>38.097</ele>
<time>2017-10-24T23:06:15.944Z</time>
</trkpt>
<trkpt lat="-27.2104136" lon="152.8314461">
<ele>37.618</ele>
<time>2017-10-24T23:06:18.655Z</time>
</trkpt>
<trkpt lat="-27.2098941" lon="152.8312302">
<ele>37.756</ele>
<time>2017-10-24T23:06:21.533Z</time>
</trkpt>
<trkpt lat="-27.2094412" lon="152.8309692">
<ele>38.347</ele>
<time>2017-10-24T23:06:24.222Z</time>
</trkpt>
<trkpt lat="-27.2089638" lon="152.8307307">
<ele>39.272</ele>
<time>2017-10-24T23:06:27.025Z</time>
</trkpt>
<trkpt lat="-27.2085463" lon="152.8304865">
<ele>40.095</ele>
<time>2017-10-24T23:06:29.575Z</time>
</trkpt>
<trkpt lat="-27.2081671" lon="152.8302272">
<ele>40.285</ele>
<time>2017-10-24T23:06:32.033Z</time>
</trkpt>
<trkpt lat="-27.2077318" lon="152.8299380">
<ele>39.618</ele>
<time>2017-10-24T23:06:35.035Z</time>
</trkpt>
<trkpt lat="-27.2072728" lon="152.8296201">
<ele>38.257</ele>
<time>2017-10-24T23:06:38.341Z</time>
</trkpt>
<trkpt lat="-27.2068336" lon="152.8292952">
<ele>36.764</ele>
<time>2017-10-24T23:06:41.420Z</time>
</trkpt>
<trkpt lat="-27.2063954" lon="152.8289350">
<ele>35.676</ele>
<time>2017-10-24T23:06:44.454Z</time>
</trkpt>
<trkpt lat="-27.2058879" lon="152.8286814">
<ele>35.147</ele>
<time>2017-10-24T23:06:47.543Z</time>
</trkpt>
<trkpt lat="-27.2054045" lon="152.8283837">
<ele>35.149</ele>
<time>2017-10-24T23:06:50.629Z</time>
</trkpt>
<trkpt lat="-27.2049694" lon="152.8279976">
<ele>35.484</ele>
<time>2017-10-24T23:06:53.713Z</time>
</trkpt>
<trkpt lat="-27.2045321" lon="152.8276014">
<ele>35.837</ele>
<time>2017-10-24T23:06:56.788Z</time>
</trkpt>
<trkpt lat="-27.2041008" lon="152.8272336">
<ele>35.978</ele>
<time>2017-10-24T23:06:59.717Z</time>
</trkpt>
<trkpt lat="-27.2036572" lon="152.8268777">
<ele>35.924</ele>
<time>2017-10-24T23:07:02.642Z</time>
</trkpt>
<trkpt lat="-27.2032464" lon="152.8265077">
<ele>36.029</ele>
<time>2017-10-24T23:07:05.494Z</time>
</trkpt>
<trkpt lat="-27.2028395" lon="152.8261263">
<ele>36.799</ele>
<time>2017-10-24T23:07:08.416Z</time>
</trkpt>
<trkpt lat="-27.2024966" lon="152.8257560">
<ele>38.135</ele>
<time>2017-10-24T23:07:11.038Z</time>
</trkpt>
<trkpt lat="-27.2021921" lon="152.8254458">
<ele>39.382</ele>
<time>2017-10-24T23:07:13.330Z</time>
</trkpt>
<trkpt lat="-27.2018474" lon="152.8251780">
<ele>40.482</ele>
<time>2017-10-24T23:07:15.756Z</time>
</trkpt>
<trkpt lat="-27.2015366" lon="152.8248845">
<ele>42.072</ele>
<time>2017-10-24T23:07:18.252Z</time>
</trkpt>
<trkpt lat="-27.2012603" lon="152.8245793">
<ele>44.229</ele>
<time>2017-10-24T23:07:20.817Z</time>
</trkpt>
<trkpt lat="-27.2009681" lon="152.8243170">
<ele>46.127</ele>
<time>2017-10-24T23:07:23.448Z</time>
</trkpt>
<trkpt lat="-27.2006883" lon="152.8240361">
<ele>47.075</ele>
<time>2017-10-24T23:07:26.153Z</time>
</trkpt>
<trkpt lat="-27.2003948" lon="152.8237802">
<ele>47.051</ele>
<time>2017-10-24T23:07:28.868Z</time>
</trkpt>
<trkpt lat="-27.2000913" lon="152.8235769">
<ele>46.479</ele>
<time>2017-10-24T23:07:31.546Z</time>
</trkpt>
<trkpt lat="-27.1997184" lon="152.8234895">
<ele>46.010</ele>
<time>2017-10-24T23:07:34.517Z</time>
</trkpt>
<trkpt lat="-27.1993624" lon="152.8234255">
<ele>45.984</ele>
<time>2017-10-24T23:07:37.370Z</time>
</trkpt>
<trkpt lat="-27.1990140" lon="152.8233519">
<ele>46.209</ele>
<time>2017-10-24T23:07:40.239Z</time>
</trkpt>
<trkpt lat="-27.1986851" lon="152.8232359">
<ele>46.586</ele>
<time>2017-10-24T23:07:43.035Z</time>
</trkpt>
<trkpt lat="-27.1983026" lon="152.8231571">
<ele>47.240</ele>
<time>2017-10-24T23:07:46.153Z</time>
</trkpt>
<trkpt lat="-27.1979763" lon="152.8230802">
<ele>48.077</ele>
<time>2017-10-24T23:07:48.846Z</time>
</trkpt>
<trkpt lat="-27.1976489" lon="152.8229724">
<ele>48.965</ele>
<time>2017-10-24T23:07:51.645Z</time>
</trkpt>
<trkpt lat="-27.1973966" lon="152.8228325">
<ele>49.899</ele>
<time>2017-10-24T23:07:53.971Z</time>
</trkpt>
<trkpt lat="-27.1971999" lon="152.8226966">
<ele>50.689</ele>
<time>2017-10-24T23:07:55.884Z</time>
</trkpt>
<trkpt lat="-27.1969945" lon="152.8226646">
<ele>51.083</ele>
<time>2017-10-24T23:07:57.605Z</time>
</trkpt>
<trkpt lat="-27.1969020" lon="152.8229916">
<ele>50.953</ele>
<time>2017-10-24T23:08:00.176Z</time>
</trkpt>
<trkpt lat="-27.1967137" lon="152.8233166">
<ele>50.402</ele>
<time>2017-10-24T23:08:03.249Z</time>
</trkpt>
<trkpt lat="-27.1965410" lon="152.8235977">
<ele>49.792</ele>
<time>2017-10-24T23:08:06.288Z</time>
</trkpt>
<trkpt lat="-27.1963992" lon="152.8238778">
<ele>49.162</ele>
<time>2017-10-24T23:08:09.767Z</time>
</trkpt>
<trkpt lat="-27.1962486" lon="152.8241787">
<ele>48.377</ele>
<time>2017-10-24T23:08:14.011Z</time>
</trkpt>
<trkpt lat="-27.1960820" lon="152.8244985">
<ele>47.728</ele>
<time>2017-10-24T23:08:17.458Z</time>
</trkpt>
<trkpt lat="-27.1959199" lon="152.8248073">
<ele>47.460</ele>
<time>2017-10-24T23:08:20.528Z</time>
</trkpt>
<trkpt lat="-27.1958543" lon="152.8251716">
<ele>47.419</ele>
<time>2017-10-24T23:08:23.824Z</time>
</trkpt>
<trkpt lat="-27.1958613" lon="152.8254903">
<ele>47.417</ele>
<time>2017-10-24T23:08:26.599Z</time>
</trkpt>
<trkpt lat="-27.1957893" lon="152.8257810">
<ele>47.586</ele>
<time>2017-10-24T23:08:29.129Z</time>
</trkpt>
<trkpt lat="-27.1956280" lon="152.8259919">
<ele>48.245</ele>
<time>2017-10-24T23:08:31.425Z</time>
</trkpt>
<trkpt lat="-27.1952861" lon="152.8260540">
<ele>49.280</ele>
<time>2017-10-24T23:08:34.664Z</time>
</trkpt>
<trkpt lat="-27.1949389" lon="152.8261272">
<ele>50.162</ele>
<time>2017-10-24T23:08:38.043Z</time>
</trkpt>
<trkpt lat="-27.1945480" lon="152.8261728">
<ele>50.467</ele>
<time>2017-10-24T23:08:42.183Z</time>
</trkpt>
<trkpt lat="-27.1942155" lon="152.8262838">
<ele>49.937</ele>
<time>2017-10-24T23:08:45.925Z</time>
</trkpt>
<trkpt lat="-27.1938537" lon="152.8264017">
<ele>48.802</ele>
<time>2017-10-24T23:08:49.416Z</time>
</trkpt>
<trkpt lat="-27.1934786" lon="152.8265282">
<ele>47.871</ele>
<time>2017-10-24T23:08:52.717Z</time>
</trkpt>
<trkpt lat="-27.1931269" lon="152.8266388">
<ele>47.603</ele>
<time>2017-10-24T23:08:55.714Z</time>
</trkpt>
<trkpt lat="-27.1927575" lon="152.8267218">
<ele>47.508</ele>
<time>2017-10-24T23:08:58.784Z</time>
</trkpt>
<trkpt lat="-27.1923105" lon="152.8266805">
<ele>46.811</ele>
<time>2017-10-24T23:09:02.349Z</time>
</trkpt>
<trkpt lat="-27.1918681" lon="152.8265895">
<ele>45.267</ele>
<time>2017-10-24T23:09:05.919Z</time>
</trkpt>
<trkpt lat="-27.1914248" lon="152.8265730">
<ele>43.396</ele>
<time>2017-10-24T23:09:09.327Z</time>
</trkpt>
<trkpt lat="-27.1909946" lon="152.8265418">
<ele>41.970</ele>
<time>2017-10-24T23:09:12.376Z</time>
</trkpt>
<trkpt lat="-27.1905487" lon="152.8265208">
<ele>41.368</ele>
<time>2017-10-24T23:09:15.390Z</time>
</trkpt>
<trkpt lat="-27.1900862" lon="152.8264742">
<ele>41.451</ele>
<time>2017-10-24T23:09:18.519Z</time>
</trkpt>
<trkpt lat="-27.1896361" lon="152.8264169">
<ele>41.925</ele>
<time>2017-10-24T23:09:21.590Z</time>
</trkpt>
<trkpt lat="-27.1892096" lon="152.8263801">
<ele>42.546</ele>
<time>2017-10-24T23:09:24.461Z</time>
</trkpt>
<trkpt lat="-27.1887689" lon="152.8263870">
<ele>43.141</ele>
<time>2017-10-24T23:09:27.370Z</time>
</trkpt>
<trkpt lat="-27.1883492" lon="152.8265591">
<ele>43.658</ele>
<time>2017-10-24T23:09:30.340Z</time>
</trkpt>
<trkpt lat="-27.1879865" lon="152.8268673">
<ele>44.299</ele>
<time>2017-10-24T23:09:33.436Z</time>
</trkpt>
<trkpt lat="-27.1876536" lon="152.8272422">
<ele>45.347</ele>
<time>2017-10-24T23:09:36.666Z</time>
</trkpt>
<trkpt lat="-27.1872914" lon="152.8276123">
<ele>46.785</ele>
<time>2017-10-24T23:09:39.983Z</time>
</trkpt>
<trkpt lat="-27.1868662" lon="152.8279233">
<ele>48.208</ele>
<time>2017-10-24T23:09:43.319Z</time>
</trkpt>
<trkpt lat="-27.1864282" lon="152.8281951">
<ele>49.175</ele>
<time>2017-10-24T23:09:46.442Z</time>
</trkpt>
<trkpt lat="-27.1860151" lon="152.8285004">
<ele>49.525</ele>
<time>2017-10-24T23:09:49.414Z</time>
</trkpt>
<trkpt lat="-27.1856262" lon="152.8287952">
<ele>49.447</ele>
<time>2017-10-24T23:09:52.221Z</time>
</trkpt>
<trkpt lat="-27.1852372" lon="152.8290106">
<ele>49.277</ele>
<time>2017-10-24T23:09:54.819Z</time>
</trkpt>
<trkpt lat="-27.1848138" lon="152.8289251">
<ele>49.504</ele>
<time>2017-10-24T23:09:57.396Z</time>
</trkpt>
<trkpt lat="-27.1844323" lon="152.8286541">
<ele>50.790</ele>
<time>2017-10-24T23:10:00.171Z</time>
</trkpt>
<trkpt lat="-27.1840828" lon="152.8283562">
<ele>53.169</ele>
<time>2017-10-24T23:10:03.060Z</time>
</trkpt>
<trkpt lat="-27.1837037" lon="152.8280807">
<ele>55.680</ele>
<time>2017-10-24T23:10:06.208Z</time>
</trkpt>
<trkpt lat="-27.1832526" lon="152.8279670">
<ele>57.737</ele>
<time>2017-10-24T23:10:09.365Z</time>
</trkpt>
<trkpt lat="-27.1828094" lon="152.8278536">
<ele>59.594</ele>
<time>2017-10-24T23:10:12.396Z</time>
</trkpt>
<trkpt lat="-27.1823615" lon="152.8277194">
<ele>61.500</ele>
<time>2017-10-24T23:10:15.497Z</time>
</trkpt>
<trkpt lat="-27.1819117" lon="152.8276001">
<ele>63.590</ele>
<time>2017-10-24T23:10:18.584Z</time>
</trkpt>
<trkpt lat="-27.1814619" lon="152.8275221">
<ele>65.731</ele>
<time>2017-10-24T23:10:21.592Z</time>
</trkpt>
<trkpt lat="-27.1810707" lon="152.8275518">
<ele>67.464</ele>
<time>2017-10-24T23:10:24.156Z</time>
</trkpt>
<trkpt lat="-27.1806438" lon="152.8275304">
<ele>68.991</ele>
<time>2017-10-24T23:10:26.939Z</time>
</trkpt>
<trkpt lat="-27.1802135" lon="152.8274052">
<ele>70.837</ele>
<time>2017-10-24T23:10:29.892Z</time>
</trkpt>
<trkpt lat="-27.1797349" lon="152.8272857">
<ele>72.825</ele>
<time>2017-10-24T23:10:33.290Z</time>
</trkpt>
<trkpt lat="-27.1793034" lon="152.8271895">
<ele>74.362</ele>
<time>2017-10-24T23:10:36.334Z</time>
</trkpt>
<trkpt lat="-27.1788244" lon="152.8270480">
<ele>75.324</ele>
<time>2017-10-24T23:10:39.613Z</time>
</trkpt>
<trkpt lat="-27.1783790" lon="152.8269586">
<ele>76.258</ele>
<time>2017-10-24T23:10:42.523Z</time>
</trkpt>
<trkpt lat="-27.1778943" lon="152.8268202">
<ele>77.865</ele>
<time>2017-10-24T23:10:45.735Z</time>
</trkpt>
<trkpt lat="-27.1773899" lon="152.8267389">
<ele>79.895</ele>
<time>2017-10-24T23:10:48.993Z</time>
</trkpt>
<trkpt lat="-27.1768567" lon="152.8265922">
<ele>81.228</ele>
<time>2017-10-24T23:10:52.438Z</time>
</trkpt>
<trkpt lat="-27.1763293" lon="152.8264365">
<ele>81.174</ele>
<time>2017-10-24T23:10:55.705Z</time>
</trkpt>
<trkpt lat="-27.1758313" lon="152.8263223">
<ele>80.054</ele>
<time>2017-10-24T23:10:58.580Z</time>
</trkpt>
<trkpt lat="-27.1753300" lon="152.8261521">
<ele>78.687</ele>
<time>2017-10-24T23:11:01.433Z</time>
</trkpt>
<trkpt lat="-27.1749424" lon="152.8257276">
<ele>77.793</ele>
<time>2017-10-24T23:11:04.395Z</time>
</trkpt>
<trkpt lat="-27.1746022" lon="152.8252925">
<ele>77.759</ele>
<time>2017-10-24T23:11:07.306Z</time>
</trkpt>
<trkpt lat="-27.1741917" lon="152.8250001">
<ele>78.858</ele>
<time>2017-10-24T23:11:10.111Z</time>
</trkpt>
<trkpt lat="-27.1736660" lon="152.8249741">
<ele>81.252</ele>
<time>2017-10-24T23:11:13.195Z</time>
</trkpt>
<trkpt lat="-27.1731756" lon="152.8249498">
<ele>84.519</ele>
<time>2017-10-24T23:11:16.130Z</time>
</trkpt>
<trkpt lat="-27.1727347" lon="152.8249643">
<ele>87.579</ele>
<time>2017-10-24T23:11:18.819Z</time>
</trkpt>
<trkpt lat="-27.1723636" lon="152.8250061">
<ele>89.527</ele>
<time>2017-10-24T23:11:21.105Z</time>
</trkpt>
<trkpt lat="-27.1719663" lon="152.8251485">
<ele>90.711</ele>
<time>2017-10-24T23:11:23.672Z</time>
</trkpt>
<trkpt lat="-27.1715107" lon="152.8251731">
<ele>92.391</ele>
<time>2017-10-24T23:11:26.566Z</time>
</trkpt>
<trkpt lat="-27.1710701" lon="152.8250590">
<ele>95.414</ele>
<time>2017-10-24T23:11:29.670Z</time>
</trkpt>
<trkpt lat="-27.1705859" lon="152.8250250">
<ele>99.571</ele>
<time>2017-10-24T23:11:33.086Z</time>
</trkpt>
<trkpt lat="-27.1701638" lon="152.8252776">
<ele>103.947</ele>
<time>2017-10-24T23:11:36.307Z</time>
</trkpt>
<trkpt lat="-27.1698227" lon="152.8256125">
<ele>107.804</ele>
<time>2017-10-24T23:11:39.260Z</time>
</trkpt>
<trkpt lat="-27.1694673" lon="152.8258889">
<ele>111.212</ele>
<time>2017-10-24T23:11:42.035Z</time>
</trkpt>
<trkpt lat="-27.1692612" lon="152.8263539">
<ele>114.539</ele>
<time>2017-10-24T23:11:44.994Z</time>
</trkpt>
<trkpt lat="-27.1692407" lon="152.8268884">
<ele>117.940</ele>
<time>2017-10-24T23:11:48.077Z</time>
</trkpt>
<trkpt lat="-27.1689131" lon="152.8271879">
<ele>121.593</ele>
<time>2017-10-24T23:11:50.881Z</time>
</trkpt>
<trkpt lat="-27.1684122" lon="152.8270950">
<ele>125.392</ele>
<time>2017-10-24T23:11:54.328Z</time>
</trkpt>
<trkpt lat="-27.1679556" lon="152.8268003">
<ele>128.772</ele>
<time>2017-10-24T23:11:57.924Z</time>
</trkpt>
<trkpt lat="-27.1675200" lon="152.8265851">
<ele>131.496</ele>
<time>2017-10-24T23:12:01.140Z</time>
</trkpt>
<trkpt lat="-27.1670339" lon="152.8265406">
<ele>133.749</ele>
<time>2017-10-24T23:12:04.216Z</time>
</trkpt>
<trkpt lat="-27.1665761" lon="152.8266437">
<ele>135.749</ele>
<time>2017-10-24T23:12:07.056Z</time>
</trkpt>
<trkpt lat="-27.1661159" lon="152.8267949">
<ele>137.830</ele>
<time>2017-10-24T23:12:10.017Z</time>
</trkpt>
<trkpt lat="-27.1656788" lon="152.8269528">
<ele>140.211</ele>
<time>2017-10-24T23:12:12.905Z</time>
</trkpt>
<trkpt lat="-27.1652829" lon="152.8270796">
<ele>142.908</ele>
<time>2017-10-24T23:12:15.507Z</time>
</trkpt>
<trkpt lat="-27.1648244" lon="152.8270968">
<ele>146.335</ele>
<time>2017-10-24T23:12:18.422Z</time>
</trkpt>
<trkpt lat="-27.1644405" lon="152.8269307">
<ele>150.515</ele>
<time>2017-10-24T23:12:21.080Z</time>
</trkpt>
<trkpt lat="-27.1640942" lon="152.8267937">
<ele>154.414</ele>
<time>2017-10-24T23:12:23.498Z</time>
</trkpt>
<trkpt lat="-27.1638507" lon="152.8265438">
<ele>157.430</ele>
<time>2017-10-24T23:12:25.696Z</time>
</trkpt>
<trkpt lat="-27.1638722" lon="152.8261354">
<ele>160.000</ele>
<time>2017-10-24T23:12:28.200Z</time>
</trkpt>
<trkpt lat="-27.1640680" lon="152.8256862">
<ele>162.372</ele>
<time>2017-10-24T23:12:31.517Z</time>
</trkpt>
<trkpt lat="-27.1642117" lon="152.8252008">
<ele>164.490</ele>
<time>2017-10-24T23:12:35.421Z</time>
</trkpt>
<trkpt lat="-27.1643295" lon="152.8247402">
<ele>166.415</ele>
<time>2017-10-24T23:12:39.107Z</time>
</trkpt>
<trkpt lat="-27.1643072" lon="152.8244238">
<ele>168.200</ele>
<time>2017-10-24T23:12:41.240Z</time>
</trkpt>
<trkpt lat="-27.1640872" lon="152.8241665">
<ele>169.646</ele>
<time>2017-10-24T23:12:43.330Z</time>
</trkpt>
<trkpt lat="-27.1638371" lon="152.8239453">
<ele>170.473</ele>
<time>2017-10-24T23:12:45.436Z</time>
</trkpt>
<trkpt lat="-27.1635550" lon="152.8236812">
<ele>170.799</ele>
<time>2017-10-24T23:12:47.913Z</time>
</trkpt>
<trkpt lat="-27.1632646" lon="152.8234478">
<ele>170.988</ele>
<time>2017-10-24T23:12:50.377Z</time>
</trkpt>
<trkpt lat="-27.1630105" lon="152.8232101">
<ele>171.139</ele>
<time>2017-10-24T23:12:52.558Z</time>
</trkpt>
<trkpt lat="-27.1627792" lon="152.8230593">
<ele>171.232</ele>
<time>2017-10-24T23:12:54.211Z</time>
</trkpt>
<trkpt lat="-27.1624827" lon="152.8229830">
<ele>171.571</ele>
<time>2017-10-24T23:12:56.010Z</time>
</trkpt>
<trkpt lat="-27.1621732" lon="152.8230338">
<ele>172.622</ele>
<time>2017-10-24T23:12:57.819Z</time>
</trkpt>
<trkpt lat="-27.1618940" lon="152.8231174">
<ele>174.391</ele>
<time>2017-10-24T23:12:59.511Z</time>
</trkpt>
<trkpt lat="-27.1615379" lon="152.8234279">
<ele>176.255</ele>
<time>2017-10-24T23:13:02.337Z</time>
</trkpt>
<trkpt lat="-27.1613074" lon="152.8237966">
<ele>177.904</ele>
<time>2017-10-24T23:13:04.981Z</time>
</trkpt>
<trkpt lat="-27.1610510" lon="152.8241582">
<ele>180.049</ele>
<time>2017-10-24T23:13:07.741Z</time>
</trkpt>
<trkpt lat="-27.1606720" lon="152.8242750">
<ele>183.462</ele>
<time>2017-10-24T23:13:10.426Z</time>
</trkpt>
<trkpt lat="-27.1602183" lon="152.8244862">
<ele>187.795</ele>
<time>2017-10-24T23:13:13.893Z</time>
</trkpt>
<trkpt lat="-27.1599233" lon="152.8248922">
<ele>192.031</ele>
<time>2017-10-24T23:13:17.224Z</time>
</trkpt>
<trkpt lat="-27.1595398" lon="152.8251839">
<ele>195.576</ele>
<time>2017-10-24T23:13:20.516Z</time>
</trkpt>
<trkpt lat="-27.1591529" lon="152.8252726">
<ele>198.610</ele>
<time>2017-10-24T23:13:23.224Z</time>
</trkpt>
<trkpt lat="-27.1588937" lon="152.8249667">
<ele>201.855</ele>
<time>2017-10-24T23:13:25.719Z</time>
</trkpt>
<trkpt lat="-27.1585819" lon="152.8247065">
<ele>206.144</ele>
<time>2017-10-24T23:13:28.307Z</time>
</trkpt>
<trkpt lat="-27.1582332" lon="152.8248213">
<ele>211.380</ele>
<time>2017-10-24T23:13:30.871Z</time>
</trkpt>
<trkpt lat="-27.1578840" lon="152.8249678">
<ele>216.175</ele>
<time>2017-10-24T23:13:33.745Z</time>
</trkpt>
<trkpt lat="-27.1575387" lon="152.8247587">
<ele>219.532</ele>
<time>2017-10-24T23:13:36.979Z</time>
</trkpt>
<trkpt lat="-27.1572206" lon="152.8246022">
<ele>221.781</ele>
<time>2017-10-24T23:13:39.981Z</time>
</trkpt>
<trkpt lat="-27.1568608" lon="152.8245934">
<ele>223.765</ele>
<time>2017-10-24T23:13:43.067Z</time>
</trkpt>
<trkpt lat="-27.1565007" lon="152.8244780">
<ele>226.026</ele>
<time>2017-10-24T23:13:46.136Z</time>
</trkpt>
<trkpt lat="-27.1561477" lon="152.8245864">
<ele>228.328</ele>
<time>2017-10-24T23:13:49.090Z</time>
</trkpt>
<trkpt lat="-27.1560000" lon="152.8249968">
<ele>230.254</ele>
<time>2017-10-24T23:13:52.385Z</time>
</trkpt>
<trkpt lat="-27.1558650" lon="152.8253951">
<ele>232.004</ele>
<time>2017-10-24T23:13:55.609Z</time>
</trkpt>
<trkpt lat="-27.1555112" lon="152.8254422">
<ele>233.934</ele>
<time>2017-10-24T23:13:58.546Z</time>
</trkpt>
<trkpt lat="-27.1550630" lon="152.8254034">
<ele>236.607</ele>
<time>2017-10-24T23:14:02.029Z</time>
</trkpt>
<trkpt lat="-27.1546413" lon="152.8255574">
<ele>240.759</ele>
<time>2017-10-24T23:14:05.479Z</time>
</trkpt>
<trkpt lat="-27.1543679" lon="152.8258743">
<ele>245.995</ele>
<time>2017-10-24T23:14:08.615Z</time>
</trkpt>
<trkpt lat="-27.1540711" lon="152.8259438">
<ele>250.846</ele>
<time>2017-10-24T23:14:10.930Z</time>
</trkpt>
<trkpt lat="-27.1537323" lon="152.8256240">
<ele>254.384</ele>
<time>2017-10-24T23:14:14.139Z</time>
</trkpt>
<trkpt lat="-27.1534836" lon="152.8251102">
<ele>256.886</ele>
<time>2017-10-24T23:14:18.104Z</time>
</trkpt>
<trkpt lat="-27.1532142" lon="152.8246882">
<ele>259.071</ele>
<time>2017-10-24T23:14:21.896Z</time>
</trkpt>
<trkpt lat="-27.1529964" lon="152.8243070">
<ele>261.319</ele>
<time>2017-10-24T23:14:24.614Z</time>
</trkpt>
<trkpt lat="-27.1526306" lon="152.8240789">
<ele>263.733</ele>
<time>2017-10-24T23:14:27.224Z</time>
</trkpt>
<trkpt lat="-27.1522266" lon="152.8237953">
<ele>266.269</ele>
<time>2017-10-24T23:14:30.270Z</time>
</trkpt>
<trkpt lat="-27.1519397" lon="152.8233469">
<ele>268.515</ele>
<time>2017-10-24T23:14:33.579Z</time>
</trkpt>
<trkpt lat="-27.1518855" lon="152.8226654">
<ele>270.368</ele>
<time>2017-10-24T23:14:37.669Z</time>
</trkpt>
<trkpt lat="-27.1517807" lon="152.8219717">
<ele>272.807</ele>
<time>2017-10-24T23:14:41.453Z</time>
</trkpt>
<trkpt lat="-27.1517076" lon="152.8213017">
<ele>276.525</ele>
<time>2017-10-24T23:14:44.598Z</time>
</trkpt>
<trkpt lat="-27.1517224" lon="152.8207505">
<ele>280.945</ele>
<time>2017-10-24T23:14:47.005Z</time>
</trkpt>
<trkpt lat="-27.1516085" lon="152.8203093">
<ele>285.348</ele>
<time>2017-10-24T23:14:48.988Z</time>
</trkpt>
<trkpt lat="-27.1512964" lon="152.8199975">
<ele>289.637</ele>
<time>2017-10-24T23:14:51.199Z</time>
</trkpt>
<trkpt lat="-27.1509571" lon="152.8197130">
<ele>293.825</ele>
<time>2017-10-24T23:14:53.728Z</time>
</trkpt>
<trkpt lat="-27.1507725" lon="152.8193479">
<ele>297.827</ele>
<time>2017-10-24T23:14:56.227Z</time>
</trkpt>
<trkpt lat="-27.1508731" lon="152.8189159">
<ele>301.408</ele>
<time>2017-10-24T23:14:59.046Z</time>
</trkpt>
<trkpt lat="-27.1509822" lon="152.8185415">
<ele>304.542</ele>
<time>2017-10-24T23:15:01.585Z</time>
</trkpt>
<trkpt lat="-27.1507707" lon="152.8181869">
<ele>307.480</ele>
<time>2017-10-24T23:15:04.524Z</time>
</trkpt>
<trkpt lat="-27.1503476" lon="152.8180268">
<ele>310.090</ele>
<time>2017-10-24T23:15:08.103Z</time>
</trkpt>
<trkpt lat="-27.1499658" lon="152.8178629">
<ele>311.949</ele>
<time>2017-10-24T23:15:11.405Z</time>
</trkpt>
<trkpt lat="-27.1496423" lon="152.8177053">
<ele>313.267</ele>
<time>2017-10-24T23:15:14.239Z</time>
</trkpt>
<trkpt lat="-27.1493678" lon="152.8174776">
<ele>314.698</ele>
<time>2017-10-24T23:15:16.830Z</time>
</trkpt>
<trkpt lat="-27.1492145" lon="152.8170643">
<ele>316.640</ele>
<time>2017-10-24T23:15:19.755Z</time>
</trkpt>
<trkpt lat="-27.1491110" lon="152.8165457">
<ele>319.013</ele>
<time>2017-10-24T23:15:23.455Z</time>
</trkpt>
<trkpt lat="-27.1490309" lon="152.8160996">
<ele>321.556</ele>
<time>2017-10-24T23:15:26.675Z</time>
</trkpt>
<trkpt lat="-27.1488162" lon="152.8157469">
<ele>324.379</ele>
<time>2017-10-24T23:15:29.486Z</time>
</trkpt>
<trkpt lat="-27.1484021" lon="152.8156804">
<ele>327.552</ele>
<time>2017-10-24T23:15:32.397Z</time>
</trkpt>
<trkpt lat="-27.1480231" lon="152.8156475">
<ele>330.449</ele>
<time>2017-10-24T23:15:35.116Z</time>
</trkpt>
<trkpt lat="-27.1477231" lon="152.8153871">
<ele>332.530</ele>
<time>2017-10-24T23:15:38.056Z</time>
</trkpt>
<trkpt lat="-27.1475661" lon="152.8149651">
<ele>334.183</ele>
<time>2017-10-24T23:15:41.296Z</time>
</trkpt>
<trkpt lat="-27.1476045" lon="152.8144347">
<ele>335.900</ele>
<time>2017-10-24T23:15:45.040Z</time>
</trkpt>
<trkpt lat="-27.1476969" lon="152.8138959">
<ele>337.569</ele>
<time>2017-10-24T23:15:48.890Z</time>
</trkpt>
<trkpt lat="-27.1475294" lon="152.8134574">
<ele>338.950</ele>
<time>2017-10-24T23:15:51.931Z</time>
</trkpt>
<trkpt lat="-27.1472212" lon="152.8130917">
<ele>340.267</ele>
<time>2017-10-24T23:15:54.857Z</time>
</trkpt>
<trkpt lat="-27.1468148" lon="152.8127859">
<ele>341.976</ele>
<time>2017-10-24T23:15:58.121Z</time>
</trkpt>
<trkpt lat="-27.1464719" lon="152.8125350">
<ele>344.134</ele>
<time>2017-10-24T23:16:00.896Z</time>
</trkpt>
<trkpt lat="-27.1461462" lon="152.8122936">
<ele>346.440</ele>
<time>2017-10-24T23:16:03.442Z</time>
</trkpt>
<trkpt lat="-27.1458608" lon="152.8119858">
<ele>348.657</ele>
<time>2017-10-24T23:16:06.087Z</time>
</trkpt>
<trkpt lat="-27.1455884" lon="152.8116564">
<ele>350.735</ele>
<time>2017-10-24T23:16:08.933Z</time>
</trkpt>
<trkpt lat="-27.1451942" lon="152.8114636">
<ele>352.827</ele>
<time>2017-10-24T23:16:12.148Z</time>
</trkpt>
<trkpt lat="-27.1447637" lon="152.8114173">
<ele>354.791</ele>
<time>2017-10-24T23:16:15.388Z</time>
</trkpt>
<trkpt lat="-27.1443845" lon="152.8112509">
<ele>356.338</ele>
<time>2017-10-24T23:16:18.415Z</time>
</trkpt>
<trkpt lat="-27.1441772" lon="152.8108377">
<ele>357.953</ele>
<time>2017-10-24T23:16:21.475Z</time>
</trkpt>
<trkpt lat="-27.1439043" lon="152.8105421">
<ele>359.925</ele>
<time>2017-10-24T23:16:24.180Z</time>
</trkpt>
<trkpt lat="-27.1435641" lon="152.8105850">
<ele>361.896</ele>
<time>2017-10-24T23:16:26.650Z</time>
</trkpt>
<trkpt lat="-27.1432521" lon="152.8105810">
<ele>364.319</ele>
<time>2017-10-24T23:16:28.956Z</time>
</trkpt>
<trkpt lat="-27.1430005" lon="152.8102316">
<ele>367.859</ele>
<time>2017-10-24T23:16:32.105Z</time>
</trkpt>
<trkpt lat="-27.1428900" lon="152.8097992">
<ele>371.686</ele>
<time>2017-10-24T23:16:35.677Z</time>
</trkpt>
<trkpt lat="-27.1425824" lon="152.8095344">
<ele>374.427</ele>
<time>2017-10-24T23:16:39.256Z</time>
</trkpt>
<trkpt lat="-27.1421839" lon="152.8095253">
<ele>375.775</ele>
<time>2017-10-24T23:16:42.530Z</time>
</trkpt>
<trkpt lat="-27.1419442" lon="152.8092637">
<ele>376.413</ele>
<time>2017-10-24T23:16:45.127Z</time>
</trkpt>
<trkpt lat="-27.1417920" lon="152.8088543">
<ele>377.195</ele>
<time>2017-10-24T23:16:48.189Z</time>
</trkpt>
<trkpt lat="-27.1415025" lon="152.8086682">
<ele>378.564</ele>
<time>2017-10-24T23:16:50.911Z</time>
</trkpt>
<trkpt lat="-27.1411455" lon="152.8087461">
<ele>380.649</ele>
<time>2017-10-24T23:16:53.977Z</time>
</trkpt>
<trkpt lat="-27.1408400" lon="152.8089221">
<ele>383.564</ele>
<time>2017-10-24T23:16:56.837Z</time>
</trkpt>
<trkpt lat="-27.1404868" lon="152.8089741">
<ele>387.063</ele>
<time>2017-10-24T23:16:59.823Z</time>
</trkpt>
<trkpt lat="-27.1401476" lon="152.8087691">
<ele>390.307</ele>
<time>2017-10-24T23:17:03.097Z</time>
</trkpt>
<trkpt lat="-27.1398169" lon="152.8085982">
<ele>392.919</ele>
<time>2017-10-24T23:17:06.285Z</time>
</trkpt>
<trkpt lat="-27.1394961" lon="152.8084705">
<ele>395.406</ele>
<time>2017-10-24T23:17:09.254Z</time>
</trkpt>
<trkpt lat="-27.1391850" lon="152.8083477">
<ele>397.863</ele>
<time>2017-10-24T23:17:12.006Z</time>
</trkpt>
<trkpt lat="-27.1388446" lon="152.8081231">
<ele>399.615</ele>
<time>2017-10-24T23:17:15.279Z</time>
</trkpt>
<trkpt lat="-27.1384950" lon="152.8079286">
<ele>400.534</ele>
<time>2017-10-24T23:17:18.585Z</time>
</trkpt>
<trkpt lat="-27.1381037" lon="152.8078965">
<ele>401.440</ele>
<time>2017-10-24T23:17:21.892Z</time>
</trkpt>
<trkpt lat="-27.1376560" lon="152.8079223">
<ele>403.225</ele>
<time>2017-10-24T23:17:25.498Z</time>
</trkpt>
<trkpt lat="-27.1372110" lon="152.8080230">
<ele>406.255</ele>
<time>2017-10-24T23:17:28.944Z</time>
</trkpt>
<trkpt lat="-27.1367479" lon="152.8081098">
<ele>409.885</ele>
<time>2017-10-24T23:17:32.282Z</time>
</trkpt>
<trkpt lat="-27.1362918" lon="152.8080888">
<ele>412.707</ele>
<time>2017-10-24T23:17:35.346Z</time>
</trkpt>
<trkpt lat="-27.1357867" lon="152.8079691">
<ele>413.952</ele>
<time>2017-10-24T23:17:38.642Z</time>
</trkpt>
<trkpt lat="-27.1353135" lon="152.8078320">
<ele>413.725</ele>
<time>2017-10-24T23:17:41.631Z</time>
</trkpt>
<trkpt lat="-27.1348529" lon="152.8077124">
<ele>412.378</ele>
<time>2017-10-24T23:17:44.460Z</time>
</trkpt>
<trkpt lat="-27.1344529" lon="152.8075534">
<ele>410.392</ele>
<time>2017-10-24T23:17:47.038Z</time>
</trkpt>
<trkpt lat="-27.1340534" lon="152.8073090">
<ele>407.853</ele>
<time>2017-10-24T23:17:49.936Z</time>
</trkpt>
<trkpt lat="-27.1336260" lon="152.8069824">
<ele>404.668</ele>
<time>2017-10-24T23:17:53.338Z</time>
</trkpt>
<trkpt lat="-27.1331891" lon="152.8067361">
<ele>401.281</ele>
<time>2017-10-24T23:17:56.443Z</time>
</trkpt>
<trkpt lat="-27.1326644" lon="152.8067646">
<ele>398.421</ele>
<time>2017-10-24T23:17:59.613Z</time>
</trkpt>
<trkpt lat="-27.1321467" lon="152.8068379">
<ele>396.645</ele>
<time>2017-10-24T23:18:02.732Z</time>
</trkpt>
<trkpt lat="-27.1317339" lon="152.8069231">
<ele>395.780</ele>
<time>2017-10-24T23:18:05.228Z</time>
</trkpt>
<trkpt lat="-27.1314340" lon="152.8070701">
<ele>395.044</ele>
<time>2017-10-24T23:18:07.160Z</time>
</trkpt>
<trkpt lat="-27.1311862" lon="152.8070255">
<ele>394.136</ele>
<time>2017-10-24T23:18:08.720Z</time>
</trkpt>
<trkpt lat="-27.1309280" lon="152.8067008">
<ele>393.326</ele>
<time>2017-10-24T23:18:11.345Z</time>
</trkpt>
<trkpt lat="-27.1307420" lon="152.8062753">
<ele>392.672</ele>
<time>2017-10-24T23:18:14.700Z</time>
</trkpt>
<trkpt lat="-27.1305752" lon="152.8057409">
<ele>392.126</ele>
<time>2017-10-24T23:18:18.976Z</time>
</trkpt>
<trkpt lat="-27.1303785" lon="152.8052388">
<ele>391.850</ele>
<time>2017-10-24T23:18:22.572Z</time>
</trkpt>
<trkpt lat="-27.1300144" lon="152.8049809">
<ele>392.113</ele>
<time>2017-10-24T23:18:25.393Z</time>
</trkpt>
<trkpt lat="-27.1296284" lon="152.8047341">
<ele>392.859</ele>
<time>2017-10-24T23:18:28.130Z</time>
</trkpt>
<trkpt lat="-27.1293019" lon="152.8043808">
<ele>393.583</ele>
<time>2017-10-24T23:18:31.046Z</time>
</trkpt>
<trkpt lat="-27.1290613" lon="152.8039336">
<ele>393.957</ele>
<time>2017-10-24T23:18:34.209Z</time>
</trkpt>
<trkpt lat="-27.1288172" lon="152.8035058">
<ele>394.093</ele>
<time>2017-10-24T23:18:37.244Z</time>
</trkpt>
<trkpt lat="-27.1285257" lon="152.8031646">
<ele>394.533</ele>
<time>2017-10-24T23:18:40.006Z</time>
</trkpt>
<trkpt lat="-27.1280502" lon="152.8029362">
<ele>395.790</ele>
<time>2017-10-24T23:18:43.385Z</time>
</trkpt>
<trkpt lat="-27.1276398" lon="152.8026638">
<ele>397.409</ele>
<time>2017-10-24T23:18:46.514Z</time>
</trkpt>
<trkpt lat="-27.1272449" lon="152.8024569">
<ele>398.710</ele>
<time>2017-10-24T23:18:49.312Z</time>
</trkpt>
<trkpt lat="-27.1268826" lon="152.8022766">
<ele>399.918</ele>
<time>2017-10-24T23:18:51.781Z</time>
</trkpt>
<trkpt lat="-27.1265095" lon="152.8019694">
<ele>401.223</ele>
<time>2017-10-24T23:18:54.758Z</time>
</trkpt>
<trkpt lat="-27.1262544" lon="152.8015362">
<ele>402.291</ele>
<time>2017-10-24T23:18:57.941Z</time>
</trkpt>
<trkpt lat="-27.1261450" lon="152.8009561">
<ele>403.178</ele>
<time>2017-10-24T23:19:01.544Z</time>
</trkpt>
<trkpt lat="-27.1262151" lon="152.8004469">
<ele>404.781</ele>
<time>2017-10-24T23:19:04.532Z</time>
</trkpt>
<trkpt lat="-27.1262508" lon="152.8000189">
<ele>408.034</ele>
<time>2017-10-24T23:19:06.969Z</time>
</trkpt>
<trkpt lat="-27.1262074" lon="152.7995545">
<ele>412.724</ele>
<time>2017-10-24T23:19:09.657Z</time>
</trkpt>
<trkpt lat="-27.1261122" lon="152.7991452">
<ele>417.423</ele>
<time>2017-10-24T23:19:12.291Z</time>
</trkpt>
<trkpt lat="-27.1259861" lon="152.7988949">
<ele>421.229</ele>
<time>2017-10-24T23:19:14.164Z</time>
</trkpt>
<trkpt lat="-27.1256170" lon="152.7988431">
<ele>424.522</ele>
<time>2017-10-24T23:19:16.957Z</time>
</trkpt>
<trkpt lat="-27.1252801" lon="152.7985731">
<ele>427.944</ele>
<time>2017-10-24T23:19:20.260Z</time>
</trkpt>
<trkpt lat="-27.1250557" lon="152.7981179">
<ele>431.628</ele>
<time>2017-10-24T23:19:24.476Z</time>
</trkpt>
<trkpt lat="-27.1248504" lon="152.7976697">
<ele>435.082</ele>
<time>2017-10-24T23:19:28.234Z</time>
</trkpt>
<trkpt lat="-27.1246142" lon="152.7973144">
<ele>437.593</ele>
<time>2017-10-24T23:19:31.100Z</time>
</trkpt>
<trkpt lat="-27.1242201" lon="152.7970493">
<ele>439.010</ele>
<time>2017-10-24T23:19:34.205Z</time>
</trkpt>
<trkpt lat="-27.1238248" lon="152.7968168">
<ele>439.702</ele>
<time>2017-10-24T23:19:37.332Z</time>
</trkpt>
<trkpt lat="-27.1236718" lon="152.7963861">
<ele>440.035</ele>
<time>2017-10-24T23:19:40.267Z</time>
</trkpt>
<trkpt lat="-27.1238109" lon="152.7959092">
<ele>440.331</ele>
<time>2017-10-24T23:19:43.358Z</time>
</trkpt>
<trkpt lat="-27.1239116" lon="152.7954812">
<ele>441.423</ele>
<time>2017-10-24T23:19:46.157Z</time>
</trkpt>
<trkpt lat="-27.1236716" lon="152.7950689">
<ele>443.555</ele>
<time>2017-10-24T23:19:49.469Z</time>
</trkpt>
<trkpt lat="-27.1234901" lon="152.7947770">
<ele>445.518</ele>
<time>2017-10-24T23:19:51.889Z</time>
</trkpt>
<trkpt lat="-27.1233037" lon="152.7944852">
<ele>446.353</ele>
<time>2017-10-24T23:19:54.193Z</time>
</trkpt>
<trkpt lat="-27.1230758" lon="152.7941737">
<ele>446.310</ele>
<time>2017-10-24T23:19:56.634Z</time>
</trkpt>
<trkpt lat="-27.1228600" lon="152.7938320">
<ele>445.768</ele>
<time>2017-10-24T23:19:58.986Z</time>
</trkpt>
<trkpt lat="-27.1226195" lon="152.7935427">
<ele>444.931</ele>
<time>2017-10-24T23:20:01.094Z</time>
</trkpt>
<trkpt lat="-27.1223723" lon="152.7932696">
<ele>444.073</ele>
<time>2017-10-24T23:20:03.083Z</time>
</trkpt>
<trkpt lat="-27.1220990" lon="152.7930583">
<ele>443.535</ele>
<time>2017-10-24T23:20:04.928Z</time>
</trkpt>
<trkpt lat="-27.1218407" lon="152.7928783">
<ele>443.449</ele>
<time>2017-10-24T23:20:06.650Z</time>
</trkpt>
<trkpt lat="-27.1215367" lon="152.7927299">
<ele>443.946</ele>
<time>2017-10-24T23:20:08.593Z</time>
</trkpt>
<trkpt lat="-27.1210568" lon="152.7925366">
<ele>445.210</ele>
<time>2017-10-24T23:20:11.691Z</time>
</trkpt>
<trkpt lat="-27.1206265" lon="152.7923052">
<ele>447.164</ele>
<time>2017-10-24T23:20:14.611Z</time>
</trkpt>
<trkpt lat="-27.1202823" lon="152.7919117">
<ele>449.223</ele>
<time>2017-10-24T23:20:17.596Z</time>
</trkpt>
<trkpt lat="-27.1199824" lon="152.7914953">
<ele>450.868</ele>
<time>2017-10-24T23:20:20.497Z</time>
</trkpt>
<trkpt lat="-27.1197528" lon="152.7910135">
<ele>452.328</ele>
<time>2017-10-24T23:20:23.432Z</time>
</trkpt>
<trkpt lat="-27.1196281" lon="152.7904567">
<ele>453.888</ele>
<time>2017-10-24T23:20:26.531Z</time>
</trkpt>
<trkpt lat="-27.1193875" lon="152.7899975">
<ele>455.179</ele>
<time>2017-10-24T23:20:29.499Z</time>
</trkpt>
<trkpt lat="-27.1190357" lon="152.7896364">
<ele>455.857</ele>
<time>2017-10-24T23:20:32.525Z</time>
</trkpt>
<trkpt lat="-27.1188074" lon="152.7892000">
<ele>455.684</ele>
<time>2017-10-24T23:20:35.375Z</time>
</trkpt>
<trkpt lat="-27.1185477" lon="152.7888770">
<ele>454.708</ele>
<time>2017-10-24T23:20:37.825Z</time>
</trkpt>
<trkpt lat="-27.1181527" lon="152.7887509">
<ele>453.627</ele>
<time>2017-10-24T23:20:40.487Z</time>
</trkpt>
<trkpt lat="-27.1177871" lon="152.7885791">
<ele>453.156</ele>
<time>2017-10-24T23:20:43.319Z</time>
</trkpt>
<trkpt lat="-27.1173904" lon="152.7883921">
<ele>453.331</ele>
<time>2017-10-24T23:20:46.609Z</time>
</trkpt>
<trkpt lat="-27.1170439" lon="152.7880914">
<ele>453.813</ele>
<time>2017-10-24T23:20:49.877Z</time>
</trkpt>
<trkpt lat="-27.1167327" lon="152.7877109">
<ele>454.524</ele>
<time>2017-10-24T23:20:53.229Z</time>
</trkpt>
<trkpt lat="-27.1164582" lon="152.7872846">
<ele>455.738</ele>
<time>2017-10-24T23:20:56.511Z</time>
</trkpt>
<trkpt lat="-27.1162935" lon="152.7867093">
<ele>457.404</ele>
<time>2017-10-24T23:21:00.106Z</time>
</trkpt>
<trkpt lat="-27.1161869" lon="152.7860966">
<ele>459.385</ele>
<time>2017-10-24T23:21:03.626Z</time>
</trkpt>
<trkpt lat="-27.1161499" lon="152.7855319">
<ele>461.784</ele>
<time>2017-10-24T23:21:06.607Z</time>
</trkpt>
<trkpt lat="-27.1161637" lon="152.7849815">
<ele>464.401</ele>
<time>2017-10-24T23:21:09.473Z</time>
</trkpt>
<trkpt lat="-27.1161627" lon="152.7844677">
<ele>466.538</ele>
<time>2017-10-24T23:21:12.199Z</time>
</trkpt>
<trkpt lat="-27.1161757" lon="152.7839514">
<ele>467.476</ele>
<time>2017-10-24T23:21:14.994Z</time>
</trkpt>
<trkpt lat="-27.1161949" lon="152.7833340">
<ele>467.170</ele>
<time>2017-10-24T23:21:18.393Z</time>
</trkpt>
<trkpt lat="-27.1161444" lon="152.7827241">
<ele>466.007</ele>
<time>2017-10-24T23:21:21.672Z</time>
</trkpt>
<trkpt lat="-27.1161482" lon="152.7821910">
<ele>464.028</ele>
<time>2017-10-24T23:21:24.398Z</time>
</trkpt>
<trkpt lat="-27.1161597" lon="152.7815705">
<ele>461.374</ele>
<time>2017-10-24T23:21:27.597Z</time>
</trkpt>
<trkpt lat="-27.1163729" lon="152.7809461">
<ele>458.926</ele>
<time>2017-10-24T23:21:30.994Z</time>
</trkpt>
<trkpt lat="-27.1168191" lon="152.7804667">
<ele>457.507</ele>
<time>2017-10-24T23:21:34.307Z</time>
</trkpt>
<trkpt lat="-27.1172680" lon="152.7800149">
<ele>457.478</ele>
<time>2017-10-24T23:21:37.401Z</time>
</trkpt>
<trkpt lat="-27.1177474" lon="152.7796015">
<ele>459.053</ele>
<time>2017-10-24T23:21:40.437Z</time>
</trkpt>
<trkpt lat="-27.1182085" lon="152.7791579">
<ele>462.067</ele>
<time>2017-10-24T23:21:43.485Z</time>
</trkpt>
<trkpt lat="-27.1186192" lon="152.7787416">
<ele>465.673</ele>
<time>2017-10-24T23:21:46.257Z</time>
</trkpt>
<trkpt lat="-27.1190467" lon="152.7782657">
<ele>468.914</ele>
<time>2017-10-24T23:21:49.306Z</time>
</trkpt>
<trkpt lat="-27.1194358" lon="152.7777933">
<ele>471.132</ele>
<time>2017-10-24T23:21:52.220Z</time>
</trkpt>
<trkpt lat="-27.1197040" lon="152.7771894">
<ele>472.146</ele>
<time>2017-10-24T23:21:55.269Z</time>
</trkpt>
<trkpt lat="-27.1199225" lon="152.7765876">
<ele>472.128</ele>
<time>2017-10-24T23:21:58.222Z</time>
</trkpt>
<trkpt lat="-27.1201516" lon="152.7760070">
<ele>471.509</ele>
<time>2017-10-24T23:22:01.132Z</time>
</trkpt>
<trkpt lat="-27.1204528" lon="152.7754952">
<ele>470.995</ele>
<time>2017-10-24T23:22:03.956Z</time>
</trkpt>
<trkpt lat="-27.1208762" lon="152.7751415">
<ele>471.252</ele>
<time>2017-10-24T23:22:06.729Z</time>
</trkpt>
<trkpt lat="-27.1213539" lon="152.7747558">
<ele>472.223</ele>
<time>2017-10-24T23:22:09.913Z</time>
</trkpt>
<trkpt lat="-27.1217842" lon="152.7743585">
<ele>473.383</ele>
<time>2017-10-24T23:22:12.924Z</time>
</trkpt>
<trkpt lat="-27.1222394" lon="152.7739313">
<ele>474.330</ele>
<time>2017-10-24T23:22:16.057Z</time>
</trkpt>
<trkpt lat="-27.1225987" lon="152.7734250">
<ele>474.778</ele>
<time>2017-10-24T23:22:19.053Z</time>
</trkpt>
<trkpt lat="-27.1229279" lon="152.7729049">
<ele>474.452</ele>
<time>2017-10-24T23:22:21.971Z</time>
</trkpt>
<trkpt lat="-27.1232964" lon="152.7723895">
<ele>473.594</ele>
<time>2017-10-24T23:22:24.979Z</time>
</trkpt>
<trkpt lat="-27.1237565" lon="152.7720087">
<ele>472.840</ele>
<time>2017-10-24T23:22:27.917Z</time>
</trkpt>
<trkpt lat="-27.1242977" lon="152.7717503">
<ele>472.650</ele>
<time>2017-10-24T23:22:30.948Z</time>
</trkpt>
<trkpt lat="-27.1248124" lon="152.7714319">
<ele>472.989</ele>
<time>2017-10-24T23:22:33.978Z</time>
</trkpt>
<trkpt lat="-27.1250360" lon="152.7708777">
<ele>473.877</ele>
<time>2017-10-24T23:22:36.840Z</time>
</trkpt>
<trkpt lat="-27.1251512" lon="152.7702448">
<ele>475.285</ele>
<time>2017-10-24T23:22:39.976Z</time>
</trkpt>
<trkpt lat="-27.1253361" lon="152.7696366">
<ele>476.632</ele>
<time>2017-10-24T23:22:43.047Z</time>
</trkpt>
<trkpt lat="-27.1257793" lon="152.7693183">
<ele>477.304</ele>
<time>2017-10-24T23:22:45.800Z</time>
</trkpt>
<trkpt lat="-27.1263130" lon="152.7692106">
<ele>477.308</ele>
<time>2017-10-24T23:22:48.734Z</time>
</trkpt>
<trkpt lat="-27.1268512" lon="152.7691278">
<ele>476.956</ele>
<time>2017-10-24T23:22:51.727Z</time>
</trkpt>
<trkpt lat="-27.1273198" lon="152.7688441">
<ele>476.833</ele>
<time>2017-10-24T23:22:54.611Z</time>
</trkpt>
<trkpt lat="-27.1275354" lon="152.7682351">
<ele>477.534</ele>
<time>2017-10-24T23:22:57.834Z</time>
</trkpt>
<trkpt lat="-27.1275066" lon="152.7676510">
<ele>478.939</ele>
<time>2017-10-24T23:23:00.765Z</time>
</trkpt>
<trkpt lat="-27.1272749" lon="152.7671045">
<ele>480.393</ele>
<time>2017-10-24T23:23:03.779Z</time>
</trkpt>
<trkpt lat="-27.1269071" lon="152.7666574">
<ele>481.790</ele>
<time>2017-10-24T23:23:06.876Z</time>
</trkpt>
<trkpt lat="-27.1264321" lon="152.7663495">
<ele>483.220</ele>
<time>2017-10-24T23:23:10.069Z</time>
</trkpt>
<trkpt lat="-27.1259578" lon="152.7660557">
<ele>484.255</ele>
<time>2017-10-24T23:23:13.079Z</time>
</trkpt>
<trkpt lat="-27.1253975" lon="152.7658578">
<ele>484.757</ele>
<time>2017-10-24T23:23:16.178Z</time>
</trkpt>
<trkpt lat="-27.1249243" lon="152.7655626">
<ele>485.128</ele>
<time>2017-10-24T23:23:19.040Z</time>
</trkpt>
<trkpt lat="-27.1245700" lon="152.7650741">
<ele>485.813</ele>
<time>2017-10-24T23:23:22.101Z</time>
</trkpt>
<trkpt lat="-27.1243547" lon="152.7645074">
<ele>487.268</ele>
<time>2017-10-24T23:23:25.154Z</time>
</trkpt>
<trkpt lat="-27.1241452" lon="152.7638823">
<ele>489.575</ele>
<time>2017-10-24T23:23:28.394Z</time>
</trkpt>
<trkpt lat="-27.1239585" lon="152.7632227">
<ele>492.203</ele>
<time>2017-10-24T23:23:31.595Z</time>
</trkpt>
<trkpt lat="-27.1239128" lon="152.7625576">
<ele>494.512</ele>
<time>2017-10-24T23:23:34.575Z</time>
</trkpt>
<trkpt lat="-27.1238350" lon="152.7618774">
<ele>496.174</ele>
<time>2017-10-24T23:23:37.597Z</time>
</trkpt>
<trkpt lat="-27.1237444" lon="152.7612024">
<ele>497.519</ele>
<time>2017-10-24T23:23:40.614Z</time>
</trkpt>
<trkpt lat="-27.1236226" lon="152.7605738">
<ele>499.229</ele>
<time>2017-10-24T23:23:43.509Z</time>
</trkpt>
<trkpt lat="-27.1234174" lon="152.7600038">
<ele>501.175</ele>
<time>2017-10-24T23:23:46.343Z</time>
</trkpt>
<trkpt lat="-27.1231502" lon="152.7594152">
<ele>502.308</ele>
<time>2017-10-24T23:23:49.445Z</time>
</trkpt>
<trkpt lat="-27.1228943" lon="152.7588133">
<ele>502.069</ele>
<time>2017-10-24T23:23:52.534Z</time>
</trkpt>
<trkpt lat="-27.1227095" lon="152.7581515">
<ele>501.069</ele>
<time>2017-10-24T23:23:55.678Z</time>
</trkpt>
<trkpt lat="-27.1223931" lon="152.7575796">
<ele>500.207</ele>
<time>2017-10-24T23:23:58.715Z</time>
</trkpt>
<trkpt lat="-27.1219940" lon="152.7570837">
<ele>499.738</ele>
<time>2017-10-24T23:24:01.779Z</time>
</trkpt>
<trkpt lat="-27.1214122" lon="152.7567050">
<ele>499.273</ele>
<time>2017-10-24T23:24:05.276Z</time>
</trkpt>
<trkpt lat="-27.1208369" lon="152.7563348">
<ele>498.043</ele>
<time>2017-10-24T23:24:08.547Z</time>
</trkpt>
<trkpt lat="-27.1202700" lon="152.7559260">
<ele>495.824</ele>
<time>2017-10-24T23:24:11.707Z</time>
</trkpt>
<trkpt lat="-27.1196960" lon="152.7555720">
<ele>493.609</ele>
<time>2017-10-24T23:24:14.727Z</time>
</trkpt>
<trkpt lat="-27.1191402" lon="152.7552157">
<ele>492.801</ele>
<time>2017-10-24T23:24:17.718Z</time>
</trkpt>
<trkpt lat="-27.1185954" lon="152.7549037">
<ele>494.032</ele>
<time>2017-10-24T23:24:20.628Z</time>
</trkpt>
<trkpt lat="-27.1180113" lon="152.7546992">
<ele>496.667</ele>
<time>2017-10-24T23:24:23.566Z</time>
</trkpt>
<trkpt lat="-27.1174282" lon="152.7544944">
<ele>499.451</ele>
<time>2017-10-24T23:24:26.510Z</time>
</trkpt>
<trkpt lat="-27.1168557" lon="152.7542311">
<ele>501.967</ele>
<time>2017-10-24T23:24:29.517Z</time>
</trkpt>
<trkpt lat="-27.1163668" lon="152.7538473">
<ele>504.596</ele>
<time>2017-10-24T23:24:32.474Z</time>
</trkpt>
<trkpt lat="-27.1159509" lon="152.7533741">
<ele>507.658</ele>
<time>2017-10-24T23:24:35.464Z</time>
</trkpt>
<trkpt lat="-27.1155862" lon="152.7528606">
<ele>511.282</ele>
<time>2017-10-24T23:24:38.458Z</time>
</trkpt>
<trkpt lat="-27.1151515" lon="152.7524525">
<ele>515.224</ele>
<time>2017-10-24T23:24:41.424Z</time>
</trkpt>
<trkpt lat="-27.1146068" lon="152.7522012">
<ele>518.493</ele>
<time>2017-10-24T23:24:44.602Z</time>
</trkpt>
<trkpt lat="-27.1140388" lon="152.7519364">
<ele>520.143</ele>
<time>2017-10-24T23:24:47.878Z</time>
</trkpt>
<trkpt lat="-27.1134659" lon="152.7516716">
<ele>519.982</ele>
<time>2017-10-24T23:24:51.025Z</time>
</trkpt>
<trkpt lat="-27.1129096" lon="152.7514130">
<ele>518.512</ele>
<time>2017-10-24T23:24:54.021Z</time>
</trkpt>
<trkpt lat="-27.1123812" lon="152.7511843">
<ele>516.712</ele>
<time>2017-10-24T23:24:56.866Z</time>
</trkpt>
<trkpt lat="-27.1118362" lon="152.7509180">
<ele>515.385</ele>
<time>2017-10-24T23:24:59.879Z</time>
</trkpt>
<trkpt lat="-27.1112248" lon="152.7506937">
<ele>514.431</ele>
<time>2017-10-24T23:25:03.062Z</time>
</trkpt>
<trkpt lat="-27.1105827" lon="152.7505254">
<ele>513.230</ele>
<time>2017-10-24T23:25:06.134Z</time>
</trkpt>
<trkpt lat="-27.1099037" lon="152.7504691">
<ele>511.547</ele>
<time>2017-10-24T23:25:09.174Z</time>
</trkpt>
<trkpt lat="-27.1092177" lon="152.7505045">
<ele>509.780</ele>
<time>2017-10-24T23:25:12.214Z</time>
</trkpt>
<trkpt lat="-27.1085404" lon="152.7506576">
<ele>508.478</ele>
<time>2017-10-24T23:25:15.226Z</time>
</trkpt>
<trkpt lat="-27.1078408" lon="152.7508014">
<ele>507.885</ele>
<time>2017-10-24T23:25:18.250Z</time>
</trkpt>
<trkpt lat="-27.1070928" lon="152.7509486">
<ele>508.059</ele>
<time>2017-10-24T23:25:21.349Z</time>
</trkpt>
<trkpt lat="-27.1062958" lon="152.7511170">
<ele>508.933</ele>
<time>2017-10-24T23:25:24.493Z</time>
</trkpt>
<trkpt lat="-27.1055205" lon="152.7512528">
<ele>510.038</ele>
<time>2017-10-24T23:25:27.482Z</time>
</trkpt>
<trkpt lat="-27.1047761" lon="152.7513919">
<ele>510.714</ele>
<time>2017-10-24T23:25:30.413Z</time>
</trkpt>
<trkpt lat="-27.1040487" lon="152.7514901">
<ele>510.777</ele>
<time>2017-10-24T23:25:33.345Z</time>
</trkpt>
<trkpt lat="-27.1033176" lon="152.7513677">
<ele>510.465</ele>
<time>2017-10-24T23:25:36.318Z</time>
</trkpt>
<trkpt lat="-27.1025860" lon="152.7511640">
<ele>509.882</ele>
<time>2017-10-24T23:25:39.322Z</time>
</trkpt>
<trkpt lat="-27.1019464" lon="152.7508799">
<ele>508.709</ele>
<time>2017-10-24T23:25:42.122Z</time>
</trkpt>
<trkpt lat="-27.1013280" lon="152.7502984">
<ele>506.429</ele>
<time>2017-10-24T23:25:45.379Z</time>
</trkpt>
<trkpt lat="-27.1008373" lon="152.7496374">
<ele>503.050</ele>
<time>2017-10-24T23:25:48.329Z</time>
</trkpt>
<trkpt lat="-27.1003179" lon="152.7490390">
<ele>499.540</ele>
<time>2017-10-24T23:25:51.212Z</time>
</trkpt>
<trkpt lat="-27.0996985" lon="152.7486223">
<ele>497.039</ele>
<time>2017-10-24T23:25:54.099Z</time>
</trkpt>
<trkpt lat="-27.0989862" lon="152.7484238">
<ele>495.760</ele>
<time>2017-10-24T23:25:57.070Z</time>
</trkpt>
<trkpt lat="-27.0982399" lon="152.7482951">
<ele>495.032</ele>
<time>2017-10-24T23:26:00.095Z</time>
</trkpt>
<trkpt lat="-27.0973772" lon="152.7483129">
<ele>494.340</ele>
<time>2017-10-24T23:26:03.406Z</time>
</trkpt>
<trkpt lat="-27.0965698" lon="152.7484593">
<ele>493.800</ele>
<time>2017-10-24T23:26:06.430Z</time>
</trkpt>
<trkpt lat="-27.0958163" lon="152.7486282">
<ele>493.728</ele>
<time>2017-10-24T23:26:09.306Z</time>
</trkpt>
<trkpt lat="-27.0951112" lon="152.7487656">
<ele>494.304</ele>
<time>2017-10-24T23:26:12.092Z</time>
</trkpt>
<trkpt lat="-27.0944244" lon="152.7488560">
<ele>495.859</ele>
<time>2017-10-24T23:26:14.925Z</time>
</trkpt>
<trkpt lat="-27.0937732" lon="152.7485964">
<ele>498.759</ele>
<time>2017-10-24T23:26:17.859Z</time>
</trkpt>
<trkpt lat="-27.0931161" lon="152.7480551">
<ele>503.049</ele>
<time>2017-10-24T23:26:21.221Z</time>
</trkpt>
<trkpt lat="-27.0925325" lon="152.7475015">
<ele>507.992</ele>
<time>2017-10-24T23:26:24.227Z</time>
</trkpt>
<trkpt lat="-27.0919508" lon="152.7470305">
<ele>512.560</ele>
<time>2017-10-24T23:26:27.094Z</time>
</trkpt>
<trkpt lat="-27.0912954" lon="152.7467093">
<ele>516.559</ele>
<time>2017-10-24T23:26:30.039Z</time>
</trkpt>
<trkpt lat="-27.0905731" lon="152.7467001">
<ele>520.334</ele>
<time>2017-10-24T23:26:33.083Z</time>
</trkpt>
<trkpt lat="-27.0898518" lon="152.7468153">
<ele>523.828</ele>
<time>2017-10-24T23:26:36.136Z</time>
</trkpt>
<trkpt lat="-27.0892095" lon="152.7471881">
<ele>527.130</ele>
<time>2017-10-24T23:26:39.112Z</time>
</trkpt>
<trkpt lat="-27.0886660" lon="152.7477151">
<ele>530.821</ele>
<time>2017-10-24T23:26:42.077Z</time>
</trkpt>
<trkpt lat="-27.0882867" lon="152.7483882">
<ele>535.100</ele>
<time>2017-10-24T23:26:45.053Z</time>
</trkpt>
<trkpt lat="-27.0880373" lon="152.7491571">
<ele>539.265</ele>
<time>2017-10-24T23:26:48.100Z</time>
</trkpt>
<trkpt lat="-27.0877862" lon="152.7499884">
<ele>542.375</ele>
<time>2017-10-24T23:26:51.233Z</time>
</trkpt>
<trkpt lat="-27.0875389" lon="152.7507566">
<ele>544.032</ele>
<time>2017-10-24T23:26:54.062Z</time>
</trkpt>
<trkpt lat="-27.0873742" lon="152.7515270">
<ele>543.930</ele>
<time>2017-10-24T23:26:56.861Z</time>
</trkpt>
<trkpt lat="-27.0872142" lon="152.7522838">
<ele>541.441</ele>
<time>2017-10-24T23:26:59.724Z</time>
</trkpt>
<trkpt lat="-27.0870931" lon="152.7527775">
<ele>536.396</ele>
<time>2017-10-24T23:27:01.659Z</time>
</trkpt>
<trkpt lat="-27.0869423" lon="152.7532895">
<ele>530.083</ele>
<time>2017-10-24T23:27:03.724Z</time>
</trkpt>
<trkpt lat="-27.0867956" lon="152.7538032">
<ele>524.298</ele>
<time>2017-10-24T23:27:05.767Z</time>
</trkpt>
<trkpt lat="-27.0866205" lon="152.7542895">
<ele>519.750</ele>
<time>2017-10-24T23:27:07.717Z</time>
</trkpt>
<trkpt lat="-27.0863719" lon="152.7547595">
<ele>515.993</ele>
<time>2017-10-24T23:27:09.721Z</time>
</trkpt>
<trkpt lat="-27.0861168" lon="152.7551928">
<ele>512.308</ele>
<time>2017-10-24T23:27:11.624Z</time>
</trkpt>
<trkpt lat="-27.0859255" lon="152.7557308">
<ele>508.286</ele>
<time>2017-10-24T23:27:13.757Z</time>
</trkpt>
<trkpt lat="-27.0857633" lon="152.7562517">
<ele>504.521</ele>
<time>2017-10-24T23:27:15.772Z</time>
</trkpt>
<trkpt lat="-27.0856540" lon="152.7567848">
<ele>502.032</ele>
<time>2017-10-24T23:27:17.732Z</time>
</trkpt>
<trkpt lat="-27.0853977" lon="152.7575512">
<ele>500.806</ele>
<time>2017-10-24T23:27:20.649Z</time>
</trkpt>
<trkpt lat="-27.0849801" lon="152.7582819">
<ele>499.822</ele>
<time>2017-10-24T23:27:23.722Z</time>
</trkpt>
<trkpt lat="-27.0844577" lon="152.7589113">
<ele>498.393</ele>
<time>2017-10-24T23:27:26.726Z</time>
</trkpt>
<trkpt lat="-27.0839515" lon="152.7595341">
<ele>496.731</ele>
<time>2017-10-24T23:27:29.678Z</time>
</trkpt>
<trkpt lat="-27.0834764" lon="152.7601184">
<ele>495.125</ele>
<time>2017-10-24T23:27:32.506Z</time>
</trkpt>
<trkpt lat="-27.0829332" lon="152.7604504">
<ele>493.347</ele>
<time>2017-10-24T23:27:35.117Z</time>
</trkpt>
<trkpt lat="-27.0824507" lon="152.7606322">
<ele>490.990</ele>
<time>2017-10-24T23:27:37.445Z</time>
</trkpt>
<trkpt lat="-27.0822363" lon="152.7611605">
<ele>487.886</ele>
<time>2017-10-24T23:27:40.142Z</time>
</trkpt>
<trkpt lat="-27.0823117" lon="152.7618360">
<ele>484.614</ele>
<time>2017-10-24T23:27:43.592Z</time>
</trkpt>
<trkpt lat="-27.0823979" lon="152.7625046">
<ele>482.292</ele>
<time>2017-10-24T23:27:46.835Z</time>
</trkpt>
<trkpt lat="-27.0822758" lon="152.7631389">
<ele>481.465</ele>
<time>2017-10-24T23:27:49.769Z</time>
</trkpt>
<trkpt lat="-27.0818914" lon="152.7637177">
<ele>481.808</ele>
<time>2017-10-24T23:27:52.961Z</time>
</trkpt>
<trkpt lat="-27.0814684" lon="152.7642541">
<ele>483.118</ele>
<time>2017-10-24T23:27:56.022Z</time>
</trkpt>
<trkpt lat="-27.0810798" lon="152.7648100">
<ele>485.552</ele>
<time>2017-10-24T23:27:58.984Z</time>
</trkpt>
<trkpt lat="-27.0809677" lon="152.7654536">
<ele>488.390</ele>
<time>2017-10-24T23:28:01.784Z</time>
</trkpt>
<trkpt lat="-27.0809365" lon="152.7661240">
<ele>490.220</ele>
<time>2017-10-24T23:28:04.737Z</time>
</trkpt>
<trkpt lat="-27.0809191" lon="152.7667638">
<ele>490.586</ele>
<time>2017-10-24T23:28:07.596Z</time>
</trkpt>
<trkpt lat="-27.0808837" lon="152.7673355">
<ele>490.110</ele>
<time>2017-10-24T23:28:10.192Z</time>
</trkpt>
<trkpt lat="-27.0808659" lon="152.7678398">
<ele>489.681</ele>
<time>2017-10-24T23:28:12.628Z</time>
</trkpt>
<trkpt lat="-27.0808286" lon="152.7682367">
<ele>489.897</ele>
<time>2017-10-24T23:28:14.718Z</time>
</trkpt>
<trkpt lat="-27.0808203" lon="152.7686297">
<ele>490.709</ele>
<time>2017-10-24T23:28:16.938Z</time>
</trkpt>
<trkpt lat="-27.0807817" lon="152.7691103">
<ele>491.588</ele>
<time>2017-10-24T23:28:20.034Z</time>
</trkpt>
<trkpt lat="-27.0807432" lon="152.7695712">
<ele>491.915</ele>
<time>2017-10-24T23:28:23.264Z</time>
</trkpt>
<trkpt lat="-27.0806180" lon="152.7699751">
<ele>491.352</ele>
<time>2017-10-24T23:28:26.075Z</time>
</trkpt>
<trkpt lat="-27.0804833" lon="152.7703292">
<ele>490.039</ele>
<time>2017-10-24T23:28:28.491Z</time>
</trkpt>
<trkpt lat="-27.0806061" lon="152.7707815">
<ele>488.344</ele>
<time>2017-10-24T23:28:31.622Z</time>
</trkpt>
<trkpt lat="-27.0807621" lon="152.7712204">
<ele>486.735</ele>
<time>2017-10-24T23:28:35.008Z</time>
</trkpt>
<trkpt lat="-27.0807773" lon="152.7717222">
<ele>485.540</ele>
<time>2017-10-24T23:28:38.442Z</time>
</trkpt>
<trkpt lat="-27.0807019" lon="152.7721921">
<ele>484.431</ele>
<time>2017-10-24T23:28:41.448Z</time>
</trkpt>
<trkpt lat="-27.0805810" lon="152.7726063">
<ele>482.863</ele>
<time>2017-10-24T23:28:44.096Z</time>
</trkpt>
<trkpt lat="-27.0803109" lon="152.7729282">
<ele>481.093</ele>
<time>2017-10-24T23:28:46.824Z</time>
</trkpt>
<trkpt lat="-27.0799783" lon="152.7732184">
<ele>479.695</ele>
<time>2017-10-24T23:28:49.947Z</time>
</trkpt>
<trkpt lat="-27.0796342" lon="152.7735757">
<ele>478.806</ele>
<time>2017-10-24T23:28:53.495Z</time>
</trkpt>
<trkpt lat="-27.0793312" lon="152.7739533">
<ele>478.494</ele>
<time>2017-10-24T23:28:56.726Z</time>
</trkpt>
<trkpt lat="-27.0791488" lon="152.7744682">
<ele>479.288</ele>
<time>2017-10-24T23:29:00.035Z</time>
</trkpt>
<trkpt lat="-27.0789620" lon="152.7749733">
<ele>481.310</ele>
<time>2017-10-24T23:29:03.188Z</time>
</trkpt>
<trkpt lat="-27.0788234" lon="152.7754435">
<ele>483.848</ele>
<time>2017-10-24T23:29:05.956Z</time>
</trkpt>
<trkpt lat="-27.0788677" lon="152.7760002">
<ele>486.286</ele>
<time>2017-10-24T23:29:09.050Z</time>
</trkpt>
<trkpt lat="-27.0790066" lon="152.7765457">
<ele>488.312</ele>
<time>2017-10-24T23:29:12.217Z</time>
</trkpt>
<trkpt lat="-27.0791602" lon="152.7771055">
<ele>489.363</ele>
<time>2017-10-24T23:29:15.412Z</time>
</trkpt>
<trkpt lat="-27.0792008" lon="152.7776555">
<ele>489.157</ele>
<time>2017-10-24T23:29:18.307Z</time>
</trkpt>
<trkpt lat="-27.0791907" lon="152.7780587">
<ele>488.146</ele>
<time>2017-10-24T23:29:20.447Z</time>
</trkpt>
<trkpt lat="-27.0791271" lon="152.7783381">
<ele>487.117</ele>
<time>2017-10-24T23:29:21.992Z</time>
</trkpt>
<trkpt lat="-27.0791000" lon="152.7785894">
<ele>486.399</ele>
<time>2017-10-24T23:29:23.536Z</time>
</trkpt>
<trkpt lat="-27.0791247" lon="152.7789227">
<ele>485.855</ele>
<time>2017-10-24T23:29:25.748Z</time>
</trkpt>
<trkpt lat="-27.0790493" lon="152.7792340">
<ele>485.466</ele>
<time>2017-10-24T23:29:28.383Z</time>
</trkpt>
<trkpt lat="-27.0789817" lon="152.7795130">
<ele>485.191</ele>
<time>2017-10-24T23:29:31.322Z</time>
</trkpt>
<trkpt lat="-27.0791072" lon="152.7797065">
<ele>484.555</ele>
<time>2017-10-24T23:29:33.757Z</time>
</trkpt>
<trkpt lat="-27.0793600" lon="152.7799052">
<ele>483.215</ele>
<time>2017-10-24T23:29:37.044Z</time>
</trkpt>
<trkpt lat="-27.0796332" lon="152.7800466">
<ele>481.302</ele>
<time>2017-10-24T23:29:40.343Z</time>
</trkpt>
<trkpt lat="-27.0799426" lon="152.7801456">
<ele>478.715</ele>
<time>2017-10-24T23:29:44.055Z</time>
</trkpt>
<trkpt lat="-27.0802510" lon="152.7802714">
<ele>475.173</ele>
<time>2017-10-24T23:29:47.538Z</time>
</trkpt>
<trkpt lat="-27.0805124" lon="152.7804966">
<ele>471.045</ele>
<time>2017-10-24T23:29:50.811Z</time>
</trkpt>
<trkpt lat="-27.0806626" lon="152.7808355">
<ele>467.011</ele>
<time>2017-10-24T23:29:54.015Z</time>
</trkpt>
<trkpt lat="-27.0807255" lon="152.7812265">
<ele>463.162</ele>
<time>2017-10-24T23:29:57.264Z</time>
</trkpt>
<trkpt lat="-27.0807181" lon="152.7816195">
<ele>459.295</ele>
<time>2017-10-24T23:30:00.420Z</time>
</trkpt>
<trkpt lat="-27.0807531" lon="152.7820136">
<ele>455.629</ele>
<time>2017-10-24T23:30:03.577Z</time>
</trkpt>
<trkpt lat="-27.0808418" lon="152.7823981">
<ele>452.795</ele>
<time>2017-10-24T23:30:06.736Z</time>
</trkpt>
<trkpt lat="-27.0809889" lon="152.7827616">
<ele>451.228</ele>
<time>2017-10-24T23:30:09.899Z</time>
</trkpt>
<trkpt lat="-27.0812223" lon="152.7830540">
<ele>450.855</ele>
<time>2017-10-24T23:30:12.989Z</time>
</trkpt>
<trkpt lat="-27.0815144" lon="152.7833205">
<ele>451.129</ele>
<time>2017-10-24T23:30:16.261Z</time>
</trkpt>
<trkpt lat="-27.0818174" lon="152.7836397">
<ele>451.021</ele>
<time>2017-10-24T23:30:19.863Z</time>
</trkpt>
<trkpt lat="-27.0820952" lon="152.7838943">
<ele>449.552</ele>
<time>2017-10-24T23:30:22.861Z</time>
</trkpt>
<trkpt lat="-27.0822644" lon="152.7843552">
<ele>446.453</ele>
<time>2017-10-24T23:30:26.408Z</time>
</trkpt>
<trkpt lat="-27.0823955" lon="152.7849183">
<ele>442.099</ele>
<time>2017-10-24T23:30:30.419Z</time>
</trkpt>
<trkpt lat="-27.0825046" lon="152.7854505">
<ele>437.354</ele>
<time>2017-10-24T23:30:33.750Z</time>
</trkpt>
<trkpt lat="-27.0826045" lon="152.7859755">
<ele>432.883</ele>
<time>2017-10-24T23:30:36.709Z</time>
</trkpt>
<trkpt lat="-27.0825892" lon="152.7865682">
<ele>428.439</ele>
<time>2017-10-24T23:30:39.966Z</time>
</trkpt>
<trkpt lat="-27.0825362" lon="152.7872044">
<ele>423.520</ele>
<time>2017-10-24T23:30:43.291Z</time>
</trkpt>
<trkpt lat="-27.0824802" lon="152.7878241">
<ele>418.020</ele>
<time>2017-10-24T23:30:46.318Z</time>
</trkpt>
<trkpt lat="-27.0824259" lon="152.7884988">
<ele>412.082</ele>
<time>2017-10-24T23:30:49.532Z</time>
</trkpt>
<trkpt lat="-27.0824159" lon="152.7892354">
<ele>406.021</ele>
<time>2017-10-24T23:30:52.863Z</time>
</trkpt>
<trkpt lat="-27.0824989" lon="152.7899512">
<ele>400.127</ele>
<time>2017-10-24T23:30:55.905Z</time>
</trkpt>
<trkpt lat="-27.0822735" lon="152.7903892">
<ele>394.544</ele>
<time>2017-10-24T23:30:57.960Z</time>
</trkpt>
<trkpt lat="-27.0818407" lon="152.7905365">
<ele>389.999</ele>
<time>2017-10-24T23:31:00.290Z</time>
</trkpt>
<trkpt lat="-27.0813920" lon="152.7904888">
<ele>387.524</ele>
<time>2017-10-24T23:31:02.977Z</time>
</trkpt>
<trkpt lat="-27.0809850" lon="152.7906011">
<ele>386.804</ele>
<time>2017-10-24T23:31:05.758Z</time>
</trkpt>
<trkpt lat="-27.0805625" lon="152.7909619">
<ele>386.140</ele>
<time>2017-10-24T23:31:09.543Z</time>
</trkpt>
<trkpt lat="-27.0801137" lon="152.7913160">
<ele>383.782</ele>
<time>2017-10-24T23:31:13.105Z</time>
</trkpt>
<trkpt lat="-27.0796442" lon="152.7916089">
<ele>379.364</ele>
<time>2017-10-24T23:31:16.038Z</time>
</trkpt>
<trkpt lat="-27.0791180" lon="152.7917507">
<ele>373.993</ele>
<time>2017-10-24T23:31:18.902Z</time>
</trkpt>
<trkpt lat="-27.0785835" lon="152.7919161">
<ele>368.764</ele>
<time>2017-10-24T23:31:21.926Z</time>
</trkpt>
<trkpt lat="-27.0781782" lon="152.7923051">
<ele>364.607</ele>
<time>2017-10-24T23:31:24.955Z</time>
</trkpt>
<trkpt lat="-27.0777942" lon="152.7926973">
<ele>362.615</ele>
<time>2017-10-24T23:31:27.884Z</time>
</trkpt>
<trkpt lat="-27.0774731" lon="152.7930362">
<ele>363.339</ele>
<time>2017-10-24T23:31:30.400Z</time>
</trkpt>
<trkpt lat="-27.0771685" lon="152.7935390">
<ele>365.995</ele>
<time>2017-10-24T23:31:33.642Z</time>
</trkpt>
<trkpt lat="-27.0769911" lon="152.7941256">
<ele>368.727</ele>
<time>2017-10-24T23:31:36.912Z</time>
</trkpt>
<trkpt lat="-27.0768649" lon="152.7946603">
<ele>370.090</ele>
<time>2017-10-24T23:31:39.683Z</time>
</trkpt>
<trkpt lat="-27.0769922" lon="152.7951988">
<ele>370.082</ele>
<time>2017-10-24T23:31:42.529Z</time>
</trkpt>
<trkpt lat="-27.0771446" lon="152.7956971">
<ele>369.488</ele>
<time>2017-10-24T23:31:45.320Z</time>
</trkpt>
<trkpt lat="-27.0773999" lon="152.7959900">
<ele>369.069</ele>
<time>2017-10-24T23:31:47.573Z</time>
</trkpt>
<trkpt lat="-27.0777226" lon="152.7961883">
<ele>369.234</ele>
<time>2017-10-24T23:31:50.031Z</time>
</trkpt>
<trkpt lat="-27.0779663" lon="152.7965866">
<ele>370.125</ele>
<time>2017-10-24T23:31:53.394Z</time>
</trkpt>
<trkpt lat="-27.0781047" lon="152.7970793">
<ele>374.522</ele>
<time>2017-10-24T23:31:57.202Z</time>
</trkpt>
<trkpt lat="-27.0783345" lon="152.7975246">
<ele>383.635</ele>
<time>2017-10-24T23:32:00.591Z</time>
</trkpt>
<trkpt lat="-27.0785235" lon="152.7980475">
<ele>392.020</ele>
<time>2017-10-24T23:32:03.959Z</time>
</trkpt>
<trkpt lat="-27.0786792" lon="152.7985501">
<ele>395.076</ele>
<time>2017-10-24T23:32:07.012Z</time>
</trkpt>
<trkpt lat="-27.0788820" lon="152.7990176">
<ele>394.734</ele>
<time>2017-10-24T23:32:09.939Z</time>
</trkpt>
<trkpt lat="-27.0788383" lon="152.7994718">
<ele>393.905</ele>
<time>2017-10-24T23:32:12.538Z</time>
</trkpt>
<trkpt lat="-27.0786354" lon="152.7999212">
<ele>393.751</ele>
<time>2017-10-24T23:32:15.612Z</time>
</trkpt>
<trkpt lat="-27.0783832" lon="152.8003964">
<ele>394.097</ele>
<time>2017-10-24T23:32:19.014Z</time>
</trkpt>
<trkpt lat="-27.0782941" lon="152.8009256">
<ele>393.146</ele>
<time>2017-10-24T23:32:22.026Z</time>
</trkpt>
<trkpt lat="-27.0784034" lon="152.8014768">
<ele>389.092</ele>
<time>2017-10-24T23:32:25.086Z</time>
</trkpt>
<trkpt lat="-27.0783909" lon="152.8020276">
<ele>382.960</ele>
<time>2017-10-24T23:32:28.075Z</time>
</trkpt>
<trkpt lat="-27.0782953" lon="152.8025517">
<ele>377.238</ele>
<time>2017-10-24T23:32:30.994Z</time>
</trkpt>
<trkpt lat="-27.0781144" lon="152.8030523">
<ele>372.489</ele>
<time>2017-10-24T23:32:34.035Z</time>
</trkpt>
<trkpt lat="-27.0778535" lon="152.8035378">
<ele>368.059</ele>
<time>2017-10-24T23:32:37.280Z</time>
</trkpt>
<trkpt lat="-27.0776137" lon="152.8039434">
<ele>363.288</ele>
<time>2017-10-24T23:32:40.021Z</time>
</trkpt>
<trkpt lat="-27.0774487" lon="152.8044009">
<ele>358.367</ele>
<time>2017-10-24T23:32:42.933Z</time>
</trkpt>
<trkpt lat="-27.0774364" lon="152.8048684">
<ele>354.580</ele>
<time>2017-10-24T23:32:45.870Z</time>
</trkpt>
<trkpt lat="-27.0773299" lon="152.8052591">
<ele>352.832</ele>
<time>2017-10-24T23:32:48.544Z</time>
</trkpt>
<trkpt lat="-27.0770911" lon="152.8056035">
<ele>352.576</ele>
<time>2017-10-24T23:32:51.596Z</time>
</trkpt>
<trkpt lat="-27.0768876" lon="152.8059332">
<ele>353.019</ele>
<time>2017-10-24T23:32:54.511Z</time>
</trkpt>
<trkpt lat="-27.0766689" lon="152.8061504">
<ele>353.745</ele>
<time>2017-10-24T23:32:56.899Z</time>
</trkpt>
<trkpt lat="-27.0763112" lon="152.8064032">
<ele>354.633</ele>
<time>2017-10-24T23:33:00.541Z</time>
</trkpt>
<trkpt lat="-27.0760221" lon="152.8066240">
<ele>355.470</ele>
<time>2017-10-24T23:33:03.543Z</time>
</trkpt>
<trkpt lat="-27.0756724" lon="152.8068640">
<ele>356.005</ele>
<time>2017-10-24T23:33:06.864Z</time>
</trkpt>
<trkpt lat="-27.0753247" lon="152.8071549">
<ele>356.220</ele>
<time>2017-10-24T23:33:10.357Z</time>
</trkpt>
<trkpt lat="-27.0751309" lon="152.8075289">
<ele>355.935</ele>
<time>2017-10-24T23:33:13.237Z</time>
</trkpt>
<trkpt lat="-27.0749304" lon="152.8078238">
<ele>354.864</ele>
<time>2017-10-24T23:33:15.687Z</time>
</trkpt>
<trkpt lat="-27.0746179" lon="152.8078716">
<ele>352.810</ele>
<time>2017-10-24T23:33:18.323Z</time>
</trkpt>
<trkpt lat="-27.0741884" lon="152.8076000">
<ele>349.345</ele>
<time>2017-10-24T23:33:22.553Z</time>
</trkpt>
<trkpt lat="-27.0737488" lon="152.8074026">
<ele>344.346</ele>
<time>2017-10-24T23:33:25.995Z</time>
</trkpt>
<trkpt lat="-27.0733613" lon="152.8072963">
<ele>338.324</ele>
<time>2017-10-24T23:33:28.704Z</time>
</trkpt>
<trkpt lat="-27.0729417" lon="152.8073658">
<ele>331.796</ele>
<time>2017-10-24T23:33:31.640Z</time>
</trkpt>
<trkpt lat="-27.0725346" lon="152.8075891">
<ele>325.405</ele>
<time>2017-10-24T23:33:34.913Z</time>
</trkpt>
<trkpt lat="-27.0722780" lon="152.8078831">
<ele>319.966</ele>
<time>2017-10-24T23:33:37.633Z</time>
</trkpt>
<trkpt lat="-27.0721284" lon="152.8082740">
<ele>315.789</ele>
<time>2017-10-24T23:33:40.527Z</time>
</trkpt>
<trkpt lat="-27.0719594" lon="152.8086891">
<ele>312.487</ele>
<time>2017-10-24T23:33:43.715Z</time>
</trkpt>
<trkpt lat="-27.0717844" lon="152.8090751">
<ele>309.441</ele>
<time>2017-10-24T23:33:46.706Z</time>
</trkpt>
<trkpt lat="-27.0717536" lon="152.8094896">
<ele>306.239</ele>
<time>2017-10-24T23:33:49.574Z</time>
</trkpt>
<trkpt lat="-27.0716382" lon="152.8098274">
<ele>302.620</ele>
<time>2017-10-24T23:33:52.110Z</time>
</trkpt>
<trkpt lat="-27.0713667" lon="152.8101643">
<ele>298.527</ele>
<time>2017-10-24T23:33:55.457Z</time>
</trkpt>
<trkpt lat="-27.0711456" lon="152.8105008">
<ele>294.212</ele>
<time>2017-10-24T23:33:58.510Z</time>
</trkpt>
<trkpt lat="-27.0709253" lon="152.8105282">
<ele>289.789</ele>
<time>2017-10-24T23:34:00.301Z</time>
</trkpt>
<trkpt lat="-27.0707856" lon="152.8103860">
<ele>284.706</ele>
<time>2017-10-24T23:34:02.037Z</time>
</trkpt>
<trkpt lat="-27.0706004" lon="152.8102584">
<ele>278.879</ele>
<time>2017-10-24T23:34:04.284Z</time>
</trkpt>
<trkpt lat="-27.0704397" lon="152.8102218">
<ele>273.446</ele>
<time>2017-10-24T23:34:06.202Z</time>
</trkpt>
<trkpt lat="-27.0702163" lon="152.8103834">
<ele>269.454</ele>
<time>2017-10-24T23:34:08.983Z</time>
</trkpt>
<trkpt lat="-27.0699422" lon="152.8105766">
<ele>266.801</ele>
<time>2017-10-24T23:34:12.153Z</time>
</trkpt>
<trkpt lat="-27.0696244" lon="152.8107073">
<ele>264.625</ele>
<time>2017-10-24T23:34:14.635Z</time>
</trkpt>
<trkpt lat="-27.0692750" lon="152.8109122">
<ele>261.965</ele>
<time>2017-10-24T23:34:16.953Z</time>
</trkpt>
<trkpt lat="-27.0689504" lon="152.8111664">
<ele>258.407</ele>
<time>2017-10-24T23:34:18.991Z</time>
</trkpt>
<trkpt lat="-27.0686544" lon="152.8113837">
<ele>254.533</ele>
<time>2017-10-24T23:34:20.760Z</time>
</trkpt>
<trkpt lat="-27.0683688" lon="152.8115547">
<ele>251.618</ele>
<time>2017-10-24T23:34:22.470Z</time>
</trkpt>
<trkpt lat="-27.0680258" lon="152.8118528">
<ele>250.626</ele>
<time>2017-10-24T23:34:25.045Z</time>
</trkpt>
<trkpt lat="-27.0677047" lon="152.8123105">
<ele>251.631</ele>
<time>2017-10-24T23:34:28.251Z</time>
</trkpt>
<trkpt lat="-27.0673928" lon="152.8127106">
<ele>253.851</ele>
<time>2017-10-24T23:34:31.244Z</time>
</trkpt>
<trkpt lat="-27.0671013" lon="152.8129361">
<ele>256.248</ele>
<time>2017-10-24T23:34:33.575Z</time>
</trkpt>
<trkpt lat="-27.0668221" lon="152.8131547">
<ele>258.578</ele>
<time>2017-10-24T23:34:35.972Z</time>
</trkpt>
<trkpt lat="-27.0667966" lon="152.8134105">
<ele>261.355</ele>
<time>2017-10-24T23:34:37.858Z</time>
</trkpt>
<trkpt lat="-27.0668761" lon="152.8136752">
<ele>264.461</ele>
<time>2017-10-24T23:34:40.176Z</time>
</trkpt>
<trkpt lat="-27.0667974" lon="152.8140683">
<ele>267.116</ele>
<time>2017-10-24T23:34:44.258Z</time>
</trkpt>
<trkpt lat="-27.0665726" lon="152.8143577">
<ele>269.164</ele>
<time>2017-10-24T23:34:47.990Z</time>
</trkpt>
<trkpt lat="-27.0665352" lon="152.8147417">
<ele>270.986</ele>
<time>2017-10-24T23:34:51.295Z</time>
</trkpt>
<trkpt lat="-27.0664598" lon="152.8150611">
<ele>272.631</ele>
<time>2017-10-24T23:34:53.946Z</time>
</trkpt>
<trkpt lat="-27.0660756" lon="152.8151612">
<ele>273.838</ele>
<time>2017-10-24T23:34:57.808Z</time>
</trkpt>
<trkpt lat="-27.0658224" lon="152.8154177">
<ele>274.062</ele>
<time>2017-10-24T23:35:01.037Z</time>
</trkpt>
<trkpt lat="-27.0657376" lon="152.8158069">
<ele>273.074</ele>
<time>2017-10-24T23:35:04.258Z</time>
</trkpt>
<trkpt lat="-27.0657901" lon="152.8161515">
<ele>271.481</ele>
<time>2017-10-24T23:35:07.114Z</time>
</trkpt>
<trkpt lat="-27.0660222" lon="152.8165043">
<ele>270.050</ele>
<time>2017-10-24T23:35:10.584Z</time>
</trkpt>
<trkpt lat="-27.0662304" lon="152.8169102">
<ele>268.947</ele>
<time>2017-10-24T23:35:13.910Z</time>
</trkpt>
<trkpt lat="-27.0662785" lon="152.8174282">
<ele>268.013</ele>
<time>2017-10-24T23:35:17.321Z</time>
</trkpt>
<trkpt lat="-27.0663579" lon="152.8179180">
<ele>266.981</ele>
<time>2017-10-24T23:35:20.482Z</time>
</trkpt>
<trkpt lat="-27.0664624" lon="152.8183833">
<ele>265.272</ele>
<time>2017-10-24T23:35:23.476Z</time>
</trkpt>
<trkpt lat="-27.0665692" lon="152.8188688">
<ele>262.369</ele>
<time>2017-10-24T23:35:26.557Z</time>
</trkpt>
<trkpt lat="-27.0669112" lon="152.8192315">
<ele>258.419</ele>
<time>2017-10-24T23:35:29.829Z</time>
</trkpt>
<trkpt lat="-27.0673893" lon="152.8193935">
<ele>253.891</ele>
<time>2017-10-24T23:35:33.112Z</time>
</trkpt>
<trkpt lat="-27.0678614" lon="152.8195127">
<ele>249.413</ele>
<time>2017-10-24T23:35:36.073Z</time>
</trkpt>
<trkpt lat="-27.0681739" lon="152.8197123">
<ele>245.754</ele>
<time>2017-10-24T23:35:38.517Z</time>
</trkpt>
<trkpt lat="-27.0682964" lon="152.8200729">
<ele>243.384</ele>
<time>2017-10-24T23:35:41.196Z</time>
</trkpt>
<trkpt lat="-27.0683445" lon="152.8204759">
<ele>242.321</ele>
<time>2017-10-24T23:35:44.244Z</time>
</trkpt>
<trkpt lat="-27.0681679" lon="152.8209245">
<ele>242.351</ele>
<time>2017-10-24T23:35:47.717Z</time>
</trkpt>
<trkpt lat="-27.0679235" lon="152.8213943">
<ele>243.162</ele>
<time>2017-10-24T23:35:51.003Z</time>
</trkpt>
<trkpt lat="-27.0676481" lon="152.8217746">
<ele>244.607</ele>
<time>2017-10-24T23:35:53.822Z</time>
</trkpt>
<trkpt lat="-27.0673908" lon="152.8221852">
<ele>246.726</ele>
<time>2017-10-24T23:35:56.796Z</time>
</trkpt>
<trkpt lat="-27.0672703" lon="152.8226790">
<ele>249.205</ele>
<time>2017-10-24T23:35:59.886Z</time>
</trkpt>
<trkpt lat="-27.0672190" lon="152.8230204">
<ele>251.462</ele>
<time>2017-10-24T23:36:02.412Z</time>
</trkpt>
<trkpt lat="-27.0670748" lon="152.8232008">
<ele>253.841</ele>
<time>2017-10-24T23:36:04.780Z</time>
</trkpt>
<trkpt lat="-27.0667513" lon="152.8231737">
<ele>256.716</ele>
<time>2017-10-24T23:36:08.644Z</time>
</trkpt>
<trkpt lat="-27.0664106" lon="152.8230773">
<ele>259.177</ele>
<time>2017-10-24T23:36:12.008Z</time>
</trkpt>
<trkpt lat="-27.0660445" lon="152.8231590">
<ele>260.370</ele>
<time>2017-10-24T23:36:15.314Z</time>
</trkpt>
<trkpt lat="-27.0658217" lon="152.8234940">
<ele>260.467</ele>
<time>2017-10-24T23:36:18.440Z</time>
</trkpt>
<trkpt lat="-27.0656649" lon="152.8238430">
<ele>259.921</ele>
<time>2017-10-24T23:36:21.306Z</time>
</trkpt>
<trkpt lat="-27.0655779" lon="152.8241313">
<ele>258.722</ele>
<time>2017-10-24T23:36:23.856Z</time>
</trkpt>
<trkpt lat="-27.0653088" lon="152.8241812">
<ele>256.884</ele>
<time>2017-10-24T23:36:26.901Z</time>
</trkpt>
<trkpt lat="-27.0649924" lon="152.8241838">
<ele>254.933</ele>
<time>2017-10-24T23:36:30.201Z</time>
</trkpt>
<trkpt lat="-27.0646667" lon="152.8240173">
<ele>253.000</ele>
<time>2017-10-24T23:36:33.313Z</time>
</trkpt>
<trkpt lat="-27.0642785" lon="152.8238289">
<ele>250.337</ele>
<time>2017-10-24T23:36:36.601Z</time>
</trkpt>
<trkpt lat="-27.0638809" lon="152.8238378">
<ele>246.557</ele>
<time>2017-10-24T23:36:39.510Z</time>
</trkpt>
<trkpt lat="-27.0633948" lon="152.8239456">
<ele>242.346</ele>
<time>2017-10-24T23:36:42.874Z</time>
</trkpt>
<trkpt lat="-27.0629693" lon="152.8240274">
<ele>238.618</ele>
<time>2017-10-24T23:36:45.832Z</time>
</trkpt>
<trkpt lat="-27.0626427" lon="152.8241647">
<ele>235.275</ele>
<time>2017-10-24T23:36:48.608Z</time>
</trkpt>
<trkpt lat="-27.0625300" lon="152.8244212">
<ele>231.512</ele>
<time>2017-10-24T23:36:51.189Z</time>
</trkpt>
<trkpt lat="-27.0625488" lon="152.8247360">
<ele>226.949</ele>
<time>2017-10-24T23:36:54.418Z</time>
</trkpt>
<trkpt lat="-27.0624024" lon="152.8249654">
<ele>221.966</ele>
<time>2017-10-24T23:36:57.328Z</time>
</trkpt>
<trkpt lat="-27.0622867" lon="152.8252207">
<ele>217.194</ele>
<time>2017-10-24T23:37:00.349Z</time>
</trkpt>
<trkpt lat="-27.0623269" lon="152.8256692">
<ele>212.997</ele>
<time>2017-10-24T23:37:03.969Z</time>
</trkpt>
<trkpt lat="-27.0622503" lon="152.8261573">
<ele>209.298</ele>
<time>2017-10-24T23:37:07.272Z</time>
</trkpt>
<trkpt lat="-27.0622836" lon="152.8265865">
<ele>205.790</ele>
<time>2017-10-24T23:37:10.288Z</time>
</trkpt>
<trkpt lat="-27.0621095" lon="152.8268793">
<ele>202.052</ele>
<time>2017-10-24T23:37:13.096Z</time>
</trkpt>
<trkpt lat="-27.0618330" lon="152.8270858">
<ele>197.644</ele>
<time>2017-10-24T23:37:16.197Z</time>
</trkpt>
<trkpt lat="-27.0617959" lon="152.8274837">
<ele>192.671</ele>
<time>2017-10-24T23:37:19.324Z</time>
</trkpt>
<trkpt lat="-27.0617040" lon="152.8278838">
<ele>187.850</ele>
<time>2017-10-24T23:37:22.537Z</time>
</trkpt>
<trkpt lat="-27.0615827" lon="152.8281889">
<ele>183.466</ele>
<time>2017-10-24T23:37:25.269Z</time>
</trkpt>
<trkpt lat="-27.0616516" lon="152.8285814">
<ele>179.112</ele>
<time>2017-10-24T23:37:28.524Z</time>
</trkpt>
<trkpt lat="-27.0616873" lon="152.8289560">
<ele>174.633</ele>
<time>2017-10-24T23:37:31.586Z</time>
</trkpt>
<trkpt lat="-27.0617516" lon="152.8292770">
<ele>170.259</ele>
<time>2017-10-24T23:37:34.588Z</time>
</trkpt>
<trkpt lat="-27.0616679" lon="152.8295126">
<ele>165.970</ele>
<time>2017-10-24T23:37:37.218Z</time>
</trkpt>
<trkpt lat="-27.0614069" lon="152.8296556">
<ele>161.347</ele>
<time>2017-10-24T23:37:40.632Z</time>
</trkpt>
<trkpt lat="-27.0611375" lon="152.8295220">
<ele>155.958</ele>
<time>2017-10-24T23:37:43.691Z</time>
</trkpt>
<trkpt lat="-27.0608399" lon="152.8293436">
<ele>149.818</ele>
<time>2017-10-24T23:37:46.858Z</time>
</trkpt>
<trkpt lat="-27.0605409" lon="152.8291840">
<ele>143.752</ele>
<time>2017-10-24T23:37:49.954Z</time>
</trkpt>
<trkpt lat="-27.0602469" lon="152.8290826">
<ele>138.726</ele>
<time>2017-10-24T23:37:52.884Z</time>
</trkpt>
<trkpt lat="-27.0599731" lon="152.8293911">
<ele>134.944</ele>
<time>2017-10-24T23:37:56.269Z</time>
</trkpt>
<trkpt lat="-27.0597355" lon="152.8297675">
<ele>131.889</ele>
<time>2017-10-24T23:37:59.333Z</time>
</trkpt>
<trkpt lat="-27.0593986" lon="152.8301337">
<ele>128.890</ele>
<time>2017-10-24T23:38:02.515Z</time>
</trkpt>
<trkpt lat="-27.0590363" lon="152.8304599">
<ele>125.458</ele>
<time>2017-10-24T23:38:05.466Z</time>
</trkpt>
<trkpt lat="-27.0586439" lon="152.8308232">
<ele>121.080</ele>
<time>2017-10-24T23:38:08.375Z</time>
</trkpt>
<trkpt lat="-27.0584109" lon="152.8314081">
<ele>115.118</ele>
<time>2017-10-24T23:38:11.356Z</time>
</trkpt>
<trkpt lat="-27.0582451" lon="152.8320748">
<ele>107.872</ele>
<time>2017-10-24T23:38:14.488Z</time>
</trkpt>
<trkpt lat="-27.0581172" lon="152.8326640">
<ele>101.244</ele>
<time>2017-10-24T23:38:17.594Z</time>
</trkpt>
<trkpt lat="-27.0578875" lon="152.8329967">
<ele>97.173</ele>
<time>2017-10-24T23:38:20.115Z</time>
</trkpt>
<trkpt lat="-27.0574825" lon="152.8332522">
<ele>95.837</ele>
<time>2017-10-24T23:38:23.292Z</time>
</trkpt>
<trkpt lat="-27.0571046" lon="152.8335577">
<ele>95.982</ele>
<time>2017-10-24T23:38:26.379Z</time>
</trkpt>
<trkpt lat="-27.0568460" lon="152.8340432">
<ele>96.418</ele>
<time>2017-10-24T23:38:29.607Z</time>
</trkpt>
<trkpt lat="-27.0566090" lon="152.8344790">
<ele>96.527</ele>
<time>2017-10-24T23:38:32.463Z</time>
</trkpt>
<trkpt lat="-27.0563292" lon="152.8349331">
<ele>95.873</ele>
<time>2017-10-24T23:38:35.494Z</time>
</trkpt>
<trkpt lat="-27.0561128" lon="152.8354064">
<ele>93.963</ele>
<time>2017-10-24T23:38:38.348Z</time>
</trkpt>
<trkpt lat="-27.0558395" lon="152.8359303">
<ele>90.529</ele>
<time>2017-10-24T23:38:41.638Z</time>
</trkpt>
<trkpt lat="-27.0556090" lon="152.8363757">
<ele>85.659</ele>
<time>2017-10-24T23:38:44.636Z</time>
</trkpt>
<trkpt lat="-27.0555243" lon="152.8368387">
<ele>79.725</ele>
<time>2017-10-24T23:38:47.419Z</time>
</trkpt>
<trkpt lat="-27.0554796" lon="152.8373749">
<ele>73.446</ele>
<time>2017-10-24T23:38:50.357Z</time>
</trkpt>
<trkpt lat="-27.0555921" lon="152.8379748">
<ele>67.472</ele>
<time>2017-10-24T23:38:53.366Z</time>
</trkpt>
<trkpt lat="-27.0557771" lon="152.8385929">
<ele>61.976</ele>
<time>2017-10-24T23:38:56.323Z</time>
</trkpt>
<trkpt lat="-27.0557748" lon="152.8392946">
<ele>56.976</ele>
<time>2017-10-24T23:38:59.372Z</time>
</trkpt>
<trkpt lat="-27.0555701" lon="152.8399557">
<ele>53.067</ele>
<time>2017-10-24T23:39:02.385Z</time>
</trkpt>
<trkpt lat="-27.0552991" lon="152.8405729">
<ele>51.079</ele>
<time>2017-10-24T23:39:05.386Z</time>
</trkpt>
<trkpt lat="-27.0550318" lon="152.8411802">
<ele>51.227</ele>
<time>2017-10-24T23:39:08.369Z</time>
</trkpt>
<trkpt lat="-27.0548191" lon="152.8417893">
<ele>52.663</ele>
<time>2017-10-24T23:39:11.240Z</time>
</trkpt>
<trkpt lat="-27.0545431" lon="152.8424189">
<ele>53.931</ele>
<time>2017-10-24T23:39:14.287Z</time>
</trkpt>
<trkpt lat="-27.0543152" lon="152.8430536">
<ele>53.826</ele>
<time>2017-10-24T23:39:17.196Z</time>
</trkpt>
<trkpt lat="-27.0540926" lon="152.8437348">
<ele>52.151</ele>
<time>2017-10-24T23:39:20.229Z</time>
</trkpt>
<trkpt lat="-27.0538547" lon="152.8443997">
<ele>49.337</ele>
<time>2017-10-24T23:39:23.271Z</time>
</trkpt>
<trkpt lat="-27.0536028" lon="152.8449838">
<ele>46.371</ele>
<time>2017-10-24T23:39:26.087Z</time>
</trkpt>
<trkpt lat="-27.0533647" lon="152.8456189">
<ele>44.585</ele>
<time>2017-10-24T23:39:29.114Z</time>
</trkpt>
<trkpt lat="-27.0531204" lon="152.8462184">
<ele>44.399</ele>
<time>2017-10-24T23:39:32.073Z</time>
</trkpt>
<trkpt lat="-27.0529550" lon="152.8468281">
<ele>44.852</ele>
<time>2017-10-24T23:39:34.973Z</time>
</trkpt>
<trkpt lat="-27.0528849" lon="152.8474854">
<ele>45.087</ele>
<time>2017-10-24T23:39:38.006Z</time>
</trkpt>
<trkpt lat="-27.0528278" lon="152.8481092">
<ele>44.991</ele>
<time>2017-10-24T23:39:40.925Z</time>
</trkpt>
<trkpt lat="-27.0527415" lon="152.8487457">
<ele>44.485</ele>
<time>2017-10-24T23:39:43.971Z</time>
</trkpt>
<trkpt lat="-27.0526592" lon="152.8493523">
<ele>43.386</ele>
<time>2017-10-24T23:39:46.875Z</time>
</trkpt>
<trkpt lat="-27.0525391" lon="152.8499916">
<ele>41.973</ele>
<time>2017-10-24T23:39:50.011Z</time>
</trkpt>
<trkpt lat="-27.0524649" lon="152.8505343">
<ele>40.861</ele>
<time>2017-10-24T23:39:52.892Z</time>
</trkpt>
<trkpt lat="-27.0524152" lon="152.8510053">
<ele>40.405</ele>
<time>2017-10-24T23:39:55.672Z</time>
</trkpt>
<trkpt lat="-27.0523218" lon="152.8514556">
<ele>40.701</ele>
<time>2017-10-24T23:39:58.553Z</time>
</trkpt>
<trkpt lat="-27.0521672" lon="152.8518736">
<ele>41.495</ele>
<time>2017-10-24T23:40:01.478Z</time>
</trkpt>
<trkpt lat="-27.0519638" lon="152.8522217">
<ele>42.161</ele>
<time>2017-10-24T23:40:04.340Z</time>
</trkpt>
<trkpt lat="-27.0517879" lon="152.8525679">
<ele>42.156</ele>
<time>2017-10-24T23:40:07.237Z</time>
</trkpt>
<trkpt lat="-27.0517250" lon="152.8529592">
<ele>41.544</ele>
<time>2017-10-24T23:40:10.125Z</time>
</trkpt>
<trkpt lat="-27.0516710" lon="152.8534250">
<ele>40.790</ele>
<time>2017-10-24T23:40:13.368Z</time>
</trkpt>
<trkpt lat="-27.0517323" lon="152.8538686">
<ele>40.251</ele>
<time>2017-10-24T23:40:16.432Z</time>
</trkpt>
<trkpt lat="-27.0517740" lon="152.8542815">
<ele>40.195</ele>
<time>2017-10-24T23:40:19.393Z</time>
</trkpt>
<trkpt lat="-27.0516995" lon="152.8546894">
<ele>41.047</ele>
<time>2017-10-24T23:40:22.416Z</time>
</trkpt>
<trkpt lat="-27.0515537" lon="152.8550916">
<ele>42.753</ele>
<time>2017-10-24T23:40:25.516Z</time>
</trkpt>
<trkpt lat="-27.0513452" lon="152.8554278">
<ele>44.473</ele>
<time>2017-10-24T23:40:28.427Z</time>
</trkpt>
<trkpt lat="-27.0511148" lon="152.8557586">
<ele>45.300</ele>
<time>2017-10-24T23:40:31.467Z</time>
</trkpt>
<trkpt lat="-27.0509370" lon="152.8560922">
<ele>44.960</ele>
<time>2017-10-24T23:40:34.381Z</time>
</trkpt>
<trkpt lat="-27.0507527" lon="152.8564136">
<ele>43.710</ele>
<time>2017-10-24T23:40:37.334Z</time>
</trkpt>
<trkpt lat="-27.0505734" lon="152.8567671">
<ele>42.113</ele>
<time>2017-10-24T23:40:40.436Z</time>
</trkpt>
<trkpt lat="-27.0503184" lon="152.8570692">
<ele>40.668</ele>
<time>2017-10-24T23:40:43.383Z</time>
</trkpt>
<trkpt lat="-27.0499748" lon="152.8573291">
<ele>39.357</ele>
<time>2017-10-24T23:40:46.393Z</time>
</trkpt>
<trkpt lat="-27.0495901" lon="152.8575402">
<ele>37.867</ele>
<time>2017-10-24T23:40:49.408Z</time>
</trkpt>
<trkpt lat="-27.0491934" lon="152.8576042">
<ele>36.135</ele>
<time>2017-10-24T23:40:52.323Z</time>
</trkpt>
<trkpt lat="-27.0488006" lon="152.8576585">
<ele>34.505</ele>
<time>2017-10-24T23:40:55.312Z</time>
</trkpt>
<trkpt lat="-27.0484292" lon="152.8576679">
<ele>33.175</ele>
<time>2017-10-24T23:40:58.110Z</time>
</trkpt>
<trkpt lat="-27.0479887" lon="152.8576138">
<ele>31.751</ele>
<time>2017-10-24T23:41:01.199Z</time>
</trkpt>
<trkpt lat="-27.0475004" lon="152.8574518">
<ele>29.765</ele>
<time>2017-10-24T23:41:04.296Z</time>
</trkpt>
<trkpt lat="-27.0469523" lon="152.8572015">
<ele>27.163</ele>
<time>2017-10-24T23:41:07.524Z</time>
</trkpt>
<trkpt lat="-27.0463718" lon="152.8572174">
<ele>24.188</ele>
<time>2017-10-24T23:41:10.556Z</time>
</trkpt>
<trkpt lat="-27.0458053" lon="152.8573517">
<ele>21.396</ele>
<time>2017-10-24T23:41:13.557Z</time>
</trkpt>
<trkpt lat="-27.0454200" lon="152.8574284">
<ele>19.395</ele>
<time>2017-10-24T23:41:15.569Z</time>
</trkpt>
<trkpt lat="-27.0450243" lon="152.8575347">
<ele>18.377</ele>
<time>2017-10-24T23:41:17.609Z</time>
</trkpt>
<trkpt lat="-27.0444785" lon="152.8578365">
<ele>17.978</ele>
<time>2017-10-24T23:41:20.566Z</time>
</trkpt>
<trkpt lat="-27.0440998" lon="152.8580141">
<ele>17.766</ele>
<time>2017-10-24T23:41:22.479Z</time>
</trkpt>
<trkpt lat="-27.0437080" lon="152.8582034">
<ele>17.807</ele>
<time>2017-10-24T23:41:24.456Z</time>
</trkpt>
<trkpt lat="-27.0432855" lon="152.8583780">
<ele>18.696</ele>
<time>2017-10-24T23:41:26.564Z</time>
</trkpt>
<trkpt lat="-27.0429012" lon="152.8585183">
<ele>20.863</ele>
<time>2017-10-24T23:41:28.473Z</time>
</trkpt>
<trkpt lat="-27.0425370" lon="152.8587554">
<ele>24.084</ele>
<time>2017-10-24T23:41:30.467Z</time>
</trkpt>
<trkpt lat="-27.0422547" lon="152.8590633">
<ele>27.806</ele>
<time>2017-10-24T23:41:32.402Z</time>
</trkpt>
<trkpt lat="-27.0418878" lon="152.8595506">
<ele>31.875</ele>
<time>2017-10-24T23:41:35.343Z</time>
</trkpt>
<trkpt lat="-27.0415258" lon="152.8599784">
<ele>36.769</ele>
<time>2017-10-24T23:41:38.252Z</time>
</trkpt>
<trkpt lat="-27.0410949" lon="152.8602765">
<ele>42.831</ele>
<time>2017-10-24T23:41:41.315Z</time>
</trkpt>
<trkpt lat="-27.0407095" lon="152.8603364">
<ele>49.400</ele>
<time>2017-10-24T23:41:44.200Z</time>
</trkpt>
<trkpt lat="-27.0404562" lon="152.8603935">
<ele>55.136</ele>
<time>2017-10-24T23:41:46.787Z</time>
</trkpt>
<trkpt lat="-27.0402907" lon="152.8604135">
<ele>58.877</ele>
<time>2017-10-24T23:41:49.007Z</time>
</trkpt>
<trkpt lat="-27.0402907" lon="152.8604135">
<ele>60.388</ele>
<time>2017-10-24T23:41:55.007Z</time>
</trkpt>
<trkpt lat="-27.0402907" lon="152.8604135">
<ele>60.457</ele>
<time>2017-10-24T23:42:17.435Z</time>
</trkpt>
<trkpt lat="-27.0400613" lon="152.8604274">
<ele>60.162</ele>
<time>2017-10-24T23:42:32.016Z</time>
</trkpt>
<trkpt lat="-27.0399716" lon="152.8606452">
<ele>60.098</ele>
<time>2017-10-24T23:42:34.492Z</time>
</trkpt>
<trkpt lat="-27.0400158" lon="152.8610616">
<ele>60.280</ele>
<time>2017-10-24T23:42:37.769Z</time>
</trkpt>
<trkpt lat="-27.0400269" lon="152.8614883">
<ele>60.494</ele>
<time>2017-10-24T23:42:40.984Z</time>
</trkpt>
<trkpt lat="-27.0399620" lon="152.8618483">
<ele>60.748</ele>
<time>2017-10-24T23:42:43.953Z</time>
</trkpt>
<trkpt lat="-27.0398924" lon="152.8621864">
<ele>61.111</ele>
<time>2017-10-24T23:42:46.886Z</time>
</trkpt>
<trkpt lat="-27.0398592" lon="152.8625362">
<ele>61.430</ele>
<time>2017-10-24T23:42:49.914Z</time>
</trkpt>
<trkpt lat="-27.0398167" lon="152.8628747">
<ele>61.431</ele>
<time>2017-10-24T23:42:53.072Z</time>
</trkpt>
<trkpt lat="-27.0397510" lon="152.8631734">
<ele>61.062</ele>
<time>2017-10-24T23:42:56.244Z</time>
</trkpt>
<trkpt lat="-27.0396828" lon="152.8634229">
<ele>60.527</ele>
<time>2017-10-24T23:42:59.320Z</time>
</trkpt>
<trkpt lat="-27.0396328" lon="152.8636308">
<ele>60.012</ele>
<time>2017-10-24T23:43:02.407Z</time>
</trkpt>
<trkpt lat="-27.0395846" lon="152.8637900">
<ele>59.305</ele>
<time>2017-10-24T23:43:05.034Z</time>
</trkpt>
<trkpt lat="-27.0394159" lon="152.8638333">
<ele>57.887</ele>
<time>2017-10-24T23:43:07.796Z</time>
</trkpt>
<trkpt lat="-27.0392244" lon="152.8637801">
<ele>55.644</ele>
<time>2017-10-24T23:43:11.009Z</time>
</trkpt>
<trkpt lat="-27.0390669" lon="152.8637832">
<ele>53.280</ele>
<time>2017-10-24T23:43:14.247Z</time>
</trkpt>
<trkpt lat="-27.0389460" lon="152.8638073">
<ele>51.490</ele>
<time>2017-10-24T23:43:16.348Z</time>
</trkpt>
<trkpt lat="-27.0388649" lon="152.8640588">
<ele>50.090</ele>
<time>2017-10-24T23:43:18.937Z</time>
</trkpt>
<trkpt lat="-27.0388648" lon="152.8645009">
<ele>48.381</ele>
<time>2017-10-24T23:43:22.176Z</time>
</trkpt>
<trkpt lat="-27.0389830" lon="152.8649411">
<ele>46.113</ele>
<time>2017-10-24T23:43:25.395Z</time>
</trkpt>
<trkpt lat="-27.0391014" lon="152.8652939">
<ele>43.932</ele>
<time>2017-10-24T23:43:28.520Z</time>
</trkpt>
<trkpt lat="-27.0389868" lon="152.8655237">
<ele>42.923</ele>
<time>2017-10-24T23:43:30.726Z</time>
</trkpt>
<trkpt lat="-27.0385758" lon="152.8655956">
<ele>43.440</ele>
<time>2017-10-24T23:43:33.923Z</time>
</trkpt>
<trkpt lat="-27.0380867" lon="152.8656798">
<ele>44.747</ele>
<time>2017-10-24T23:43:37.037Z</time>
</trkpt>
<trkpt lat="-27.0375795" lon="152.8657840">
<ele>46.165</ele>
<time>2017-10-24T23:43:40.013Z</time>
</trkpt>
<trkpt lat="-27.0370414" lon="152.8658730">
<ele>47.447</ele>
<time>2017-10-24T23:43:43.007Z</time>
</trkpt>
<trkpt lat="-27.0364944" lon="152.8659900">
<ele>48.224</ele>
<time>2017-10-24T23:43:46.050Z</time>
</trkpt>
<trkpt lat="-27.0359680" lon="152.8660661">
<ele>48.120</ele>
<time>2017-10-24T23:43:48.994Z</time>
</trkpt>
<trkpt lat="-27.0354302" lon="152.8661581">
<ele>46.865</ele>
<time>2017-10-24T23:43:51.976Z</time>
</trkpt>
<trkpt lat="-27.0348708" lon="152.8662374">
<ele>44.385</ele>
<time>2017-10-24T23:43:54.956Z</time>
</trkpt>
<trkpt lat="-27.0342851" lon="152.8663335">
<ele>41.328</ele>
<time>2017-10-24T23:43:58.020Z</time>
</trkpt>
<trkpt lat="-27.0337137" lon="152.8664579">
<ele>38.837</ele>
<time>2017-10-24T23:44:01.048Z</time>
</trkpt>
<trkpt lat="-27.0331816" lon="152.8665744">
<ele>37.570</ele>
<time>2017-10-24T23:44:03.952Z</time>
</trkpt>
<trkpt lat="-27.0326936" lon="152.8667798">
<ele>37.529</ele>
<time>2017-10-24T23:44:06.863Z</time>
</trkpt>
<trkpt lat="-27.0322040" lon="152.8669641">
<ele>38.356</ele>
<time>2017-10-24T23:44:09.872Z</time>
</trkpt>
<trkpt lat="-27.0317256" lon="152.8671220">
<ele>39.357</ele>
<time>2017-10-24T23:44:12.896Z</time>
</trkpt>
<trkpt lat="-27.0312702" lon="152.8673028">
<ele>39.914</ele>
<time>2017-10-24T23:44:15.872Z</time>
</trkpt>
<trkpt lat="-27.0308270" lon="152.8675389">
<ele>39.978</ele>
<time>2017-10-24T23:44:18.806Z</time>
</trkpt>
<trkpt lat="-27.0303822" lon="152.8678969">
<ele>40.047</ele>
<time>2017-10-24T23:44:21.843Z</time>
</trkpt>
<trkpt lat="-27.0299130" lon="152.8683448">
<ele>40.488</ele>
<time>2017-10-24T23:44:25.025Z</time>
</trkpt>
<trkpt lat="-27.0294321" lon="152.8687283">
<ele>41.027</ele>
<time>2017-10-24T23:44:27.880Z</time>
</trkpt>
<trkpt lat="-27.0288599" lon="152.8691300">
<ele>41.177</ele>
<time>2017-10-24T23:44:30.936Z</time>
</trkpt>
<trkpt lat="-27.0282199" lon="152.8694088">
<ele>40.354</ele>
<time>2017-10-24T23:44:34.037Z</time>
</trkpt>
<trkpt lat="-27.0275998" lon="152.8695517">
<ele>38.374</ele>
<time>2017-10-24T23:44:37.072Z</time>
</trkpt>
<trkpt lat="-27.0270122" lon="152.8696229">
<ele>36.220</ele>
<time>2017-10-24T23:44:39.987Z</time>
</trkpt>
<trkpt lat="-27.0263952" lon="152.8697641">
<ele>35.001</ele>
<time>2017-10-24T23:44:43.029Z</time>
</trkpt>
<trkpt lat="-27.0257691" lon="152.8698995">
<ele>34.760</ele>
<time>2017-10-24T23:44:46.018Z</time>
</trkpt>
<trkpt lat="-27.0251270" lon="152.8700119">
<ele>34.846</ele>
<time>2017-10-24T23:44:48.975Z</time>
</trkpt>
<trkpt lat="-27.0244499" lon="152.8701174">
<ele>34.366</ele>
<time>2017-10-24T23:44:51.972Z</time>
</trkpt>
<trkpt lat="-27.0237429" lon="152.8702570">
<ele>32.940</ele>
<time>2017-10-24T23:44:55.071Z</time>
</trkpt>
<trkpt lat="-27.0231090" lon="152.8703938">
<ele>31.267</ele>
<time>2017-10-24T23:44:57.991Z</time>
</trkpt>
<trkpt lat="-27.0225187" lon="152.8706512">
<ele>30.522</ele>
<time>2017-10-24T23:45:01.045Z</time>
</trkpt>
<trkpt lat="-27.0220181" lon="152.8710516">
<ele>31.378</ele>
<time>2017-10-24T23:45:04.043Z</time>
</trkpt>
<trkpt lat="-27.0215696" lon="152.8715675">
<ele>33.810</ele>
<time>2017-10-24T23:45:07.144Z</time>
</trkpt>
<trkpt lat="-27.0210729" lon="152.8719833">
<ele>36.792</ele>
<time>2017-10-24T23:45:10.221Z</time>
</trkpt>
<trkpt lat="-27.0205738" lon="152.8722568">
<ele>38.683</ele>
<time>2017-10-24T23:45:13.107Z</time>
</trkpt>
<trkpt lat="-27.0200197" lon="152.8723603">
<ele>38.583</ele>
<time>2017-10-24T23:45:16.072Z</time>
</trkpt>
<trkpt lat="-27.0194633" lon="152.8724445">
<ele>36.937</ele>
<time>2017-10-24T23:45:19.039Z</time>
</trkpt>
<trkpt lat="-27.0189153" lon="152.8725569">
<ele>34.805</ele>
<time>2017-10-24T23:45:22.026Z</time>
</trkpt>
<trkpt lat="-27.0183880" lon="152.8726309">
<ele>33.167</ele>
<time>2017-10-24T23:45:25.020Z</time>
</trkpt>
<trkpt lat="-27.0179026" lon="152.8727563">
<ele>32.775</ele>
<time>2017-10-24T23:45:28.041Z</time>
</trkpt>
<trkpt lat="-27.0174589" lon="152.8728641">
<ele>33.871</ele>
<time>2017-10-24T23:45:30.870Z</time>
</trkpt>
<trkpt lat="-27.0169594" lon="152.8729704">
<ele>35.646</ele>
<time>2017-10-24T23:45:33.964Z</time>
</trkpt>
<trkpt lat="-27.0164793" lon="152.8730672">
<ele>36.948</ele>
<time>2017-10-24T23:45:36.990Z</time>
</trkpt>
<trkpt lat="-27.0160533" lon="152.8731356">
<ele>37.426</ele>
<time>2017-10-24T23:45:39.877Z</time>
</trkpt>
<trkpt lat="-27.0156683" lon="152.8731798">
<ele>37.337</ele>
<time>2017-10-24T23:45:42.801Z</time>
</trkpt>
<trkpt lat="-27.0153386" lon="152.8732318">
<ele>36.925</ele>
<time>2017-10-24T23:45:45.856Z</time>
</trkpt>
<trkpt lat="-27.0150948" lon="152.8732748">
<ele>36.373</ele>
<time>2017-10-24T23:45:48.774Z</time>
</trkpt>
<trkpt lat="-27.0149644" lon="152.8731301">
<ele>35.821</ele>
<time>2017-10-24T23:45:50.963Z</time>
</trkpt>
<trkpt lat="-27.0148140" lon="152.8727254">
<ele>35.368</ele>
<time>2017-10-24T23:45:54.424Z</time>
</trkpt>
<trkpt lat="-27.0146120" lon="152.8722195">
<ele>35.268</ele>
<time>2017-10-24T23:45:57.630Z</time>
</trkpt>
<trkpt lat="-27.0143638" lon="152.8716336">
<ele>35.747</ele>
<time>2017-10-24T23:46:00.978Z</time>
</trkpt>
<trkpt lat="-27.0141501" lon="152.8711534">
<ele>36.575</ele>
<time>2017-10-24T23:46:03.847Z</time>
</trkpt>
<trkpt lat="-27.0139362" lon="152.8707271">
<ele>37.540</ele>
<time>2017-10-24T23:46:06.626Z</time>
</trkpt>
<trkpt lat="-27.0137391" lon="152.8702750">
<ele>38.576</ele>
<time>2017-10-24T23:46:09.505Z</time>
</trkpt>
<trkpt lat="-27.0135641" lon="152.8697933">
<ele>39.342</ele>
<time>2017-10-24T23:46:12.339Z</time>
</trkpt>
<trkpt lat="-27.0133876" lon="152.8692391">
<ele>39.519</ele>
<time>2017-10-24T23:46:15.354Z</time>
</trkpt>
<trkpt lat="-27.0131321" lon="152.8686850">
<ele>39.249</ele>
<time>2017-10-24T23:46:18.475Z</time>
</trkpt>
<trkpt lat="-27.0129435" lon="152.8681807">
<ele>38.936</ele>
<time>2017-10-24T23:46:21.265Z</time>
</trkpt>
<trkpt lat="-27.0126091" lon="152.8677319">
<ele>38.924</ele>
<time>2017-10-24T23:46:24.245Z</time>
</trkpt>
<trkpt lat="-27.0120930" lon="152.8674344">
<ele>39.303</ele>
<time>2017-10-24T23:46:27.414Z</time>
</trkpt>
<trkpt lat="-27.0116205" lon="152.8670795">
<ele>39.911</ele>
<time>2017-10-24T23:46:30.452Z</time>
</trkpt>
<trkpt lat="-27.0111906" lon="152.8666703">
<ele>40.421</ele>
<time>2017-10-24T23:46:33.461Z</time>
</trkpt>
<trkpt lat="-27.0109551" lon="152.8660518">
<ele>40.674</ele>
<time>2017-10-24T23:46:36.596Z</time>
</trkpt>
<trkpt lat="-27.0106639" lon="152.8654938">
<ele>40.802</ele>
<time>2017-10-24T23:46:39.654Z</time>
</trkpt>
<trkpt lat="-27.0104267" lon="152.8649497">
<ele>41.122</ele>
<time>2017-10-24T23:46:42.773Z</time>
</trkpt>
<trkpt lat="-27.0102360" lon="152.8645255">
<ele>41.738</ele>
<time>2017-10-24T23:46:45.506Z</time>
</trkpt>
<trkpt lat="-27.0100032" lon="152.8641488">
<ele>42.322</ele>
<time>2017-10-24T23:46:48.419Z</time>
</trkpt>
<trkpt lat="-27.0098508" lon="152.8637929">
<ele>42.703</ele>
<time>2017-10-24T23:46:51.217Z</time>
</trkpt>
<trkpt lat="-27.0095814" lon="152.8635960">
<ele>43.070</ele>
<time>2017-10-24T23:46:53.966Z</time>
</trkpt>
<trkpt lat="-27.0091282" lon="152.8637199">
<ele>43.732</ele>
<time>2017-10-24T23:46:57.487Z</time>
</trkpt>
<trkpt lat="-27.0086555" lon="152.8639580">
<ele>45.094</ele>
<time>2017-10-24T23:47:00.672Z</time>
</trkpt>
<trkpt lat="-27.0081756" lon="152.8641955">
<ele>47.146</ele>
<time>2017-10-24T23:47:03.719Z</time>
</trkpt>
<trkpt lat="-27.0077312" lon="152.8644415">
<ele>49.133</ele>
<time>2017-10-24T23:47:06.634Z</time>
</trkpt>
<trkpt lat="-27.0072781" lon="152.8646686">
<ele>50.482</ele>
<time>2017-10-24T23:47:09.572Z</time>
</trkpt>
<trkpt lat="-27.0068219" lon="152.8649289">
<ele>51.492</ele>
<time>2017-10-24T23:47:12.641Z</time>
</trkpt>
<trkpt lat="-27.0063836" lon="152.8651166">
<ele>52.614</ele>
<time>2017-10-24T23:47:15.525Z</time>
</trkpt>
<trkpt lat="-27.0059477" lon="152.8653778">
<ele>53.670</ele>
<time>2017-10-24T23:47:18.617Z</time>
</trkpt>
<trkpt lat="-27.0055306" lon="152.8656522">
<ele>54.283</ele>
<time>2017-10-24T23:47:21.641Z</time>
</trkpt>
<trkpt lat="-27.0051115" lon="152.8659827">
<ele>54.360</ele>
<time>2017-10-24T23:47:24.724Z</time>
</trkpt>
<trkpt lat="-27.0046660" lon="152.8662729">
<ele>53.846</ele>
<time>2017-10-24T23:47:27.655Z</time>
</trkpt>
<trkpt lat="-27.0042063" lon="152.8666152">
<ele>52.276</ele>
<time>2017-10-24T23:47:30.736Z</time>
</trkpt>
<trkpt lat="-27.0037787" lon="152.8669041">
<ele>49.445</ele>
<time>2017-10-24T23:47:33.737Z</time>
</trkpt>
<trkpt lat="-27.0034675" lon="152.8671595">
<ele>46.124</ele>
<time>2017-10-24T23:47:36.494Z</time>
</trkpt>
<trkpt lat="-27.0032087" lon="152.8673542">
<ele>43.365</ele>
<time>2017-10-24T23:47:39.253Z</time>
</trkpt>
<trkpt lat="-27.0029782" lon="152.8674727">
<ele>41.588</ele>
<time>2017-10-24T23:47:41.794Z</time>
</trkpt>
<trkpt lat="-27.0026388" lon="152.8673221">
<ele>40.484</ele>
<time>2017-10-24T23:47:45.128Z</time>
</trkpt>
<trkpt lat="-27.0022523" lon="152.8672066">
<ele>39.576</ele>
<time>2017-10-24T23:47:48.322Z</time>
</trkpt>
<trkpt lat="-27.0018633" lon="152.8671475">
<ele>38.846</ele>
<time>2017-10-24T23:47:51.322Z</time>
</trkpt>
<trkpt lat="-27.0014674" lon="152.8670435">
<ele>38.434</ele>
<time>2017-10-24T23:47:54.314Z</time>
</trkpt>
<trkpt lat="-27.0010439" lon="152.8668981">
<ele>38.275</ele>
<time>2017-10-24T23:47:57.399Z</time>
</trkpt>
<trkpt lat="-27.0005908" lon="152.8667627">
<ele>38.336</ele>
<time>2017-10-24T23:48:00.556Z</time>
</trkpt>
<trkpt lat="-27.0001553" lon="152.8666729">
<ele>38.585</ele>
<time>2017-10-24T23:48:03.548Z</time>
</trkpt>
<trkpt lat="-26.9997027" lon="152.8666153">
<ele>39.063</ele>
<time>2017-10-24T23:48:06.669Z</time>
</trkpt>
<trkpt lat="-26.9992688" lon="152.8665543">
<ele>40.212</ele>
<time>2017-10-24T23:48:09.725Z</time>
</trkpt>
<trkpt lat="-26.9988383" lon="152.8664750">
<ele>42.512</ele>
<time>2017-10-24T23:48:12.886Z</time>
</trkpt>
<trkpt lat="-26.9984339" lon="152.8664479">
<ele>45.643</ele>
<time>2017-10-24T23:48:16.017Z</time>
</trkpt>
<trkpt lat="-26.9980645" lon="152.8664509">
<ele>48.673</ele>
<time>2017-10-24T23:48:18.999Z</time>
</trkpt>
<trkpt lat="-26.9978172" lon="152.8664620">
<ele>50.809</ele>
<time>2017-10-24T23:48:20.991Z</time>
</trkpt>
<trkpt lat="-26.9975597" lon="152.8664758">
<ele>51.782</ele>
<time>2017-10-24T23:48:22.996Z</time>
</trkpt>
<trkpt lat="-26.9973049" lon="152.8664780">
<ele>51.839</ele>
<time>2017-10-24T23:48:24.895Z</time>
</trkpt>
<trkpt lat="-26.9970302" lon="152.8664815">
<ele>51.489</ele>
<time>2017-10-24T23:48:26.904Z</time>
</trkpt>
<trkpt lat="-26.9967508" lon="152.8664983">
<ele>51.142</ele>
<time>2017-10-24T23:48:28.945Z</time>
</trkpt>
<trkpt lat="-26.9964768" lon="152.8665069">
<ele>51.154</ele>
<time>2017-10-24T23:48:30.978Z</time>
</trkpt>
<trkpt lat="-26.9962082" lon="152.8664849">
<ele>51.878</ele>
<time>2017-10-24T23:48:33.181Z</time>
</trkpt>
<trkpt lat="-26.9960136" lon="152.8665047">
<ele>53.219</ele>
<time>2017-10-24T23:48:35.118Z</time>
</trkpt>
<trkpt lat="-26.9958665" lon="152.8665299">
<ele>54.663</ele>
<time>2017-10-24T23:48:37.055Z</time>
</trkpt>
<trkpt lat="-26.9957610" lon="152.8665345">
<ele>55.960</ele>
<time>2017-10-24T23:48:39.113Z</time>
</trkpt>
<trkpt lat="-26.9956681" lon="152.8665580">
<ele>57.301</ele>
<time>2017-10-24T23:48:41.411Z</time>
</trkpt>
<trkpt lat="-26.9955715" lon="152.8666135">
<ele>58.995</ele>
<time>2017-10-24T23:48:43.755Z</time>
</trkpt>
<trkpt lat="-26.9954828" lon="152.8669424">
<ele>61.016</ele>
<time>2017-10-24T23:48:47.138Z</time>
</trkpt>
<trkpt lat="-26.9953495" lon="152.8674539">
<ele>62.765</ele>
<time>2017-10-24T23:48:50.395Z</time>
</trkpt>
<trkpt lat="-26.9952088" lon="152.8680470">
<ele>63.685</ele>
<time>2017-10-24T23:48:53.485Z</time>
</trkpt>
<trkpt lat="-26.9950184" lon="152.8686706">
<ele>63.856</ele>
<time>2017-10-24T23:48:56.462Z</time>
</trkpt>
<trkpt lat="-26.9948582" lon="152.8693362">
<ele>63.614</ele>
<time>2017-10-24T23:48:59.465Z</time>
</trkpt>
<trkpt lat="-26.9946803" lon="152.8699747">
<ele>63.207</ele>
<time>2017-10-24T23:49:02.397Z</time>
</trkpt>
<trkpt lat="-26.9944934" lon="152.8706372">
<ele>62.848</ele>
<time>2017-10-24T23:49:05.415Z</time>
</trkpt>
<trkpt lat="-26.9943181" lon="152.8713151">
<ele>62.261</ele>
<time>2017-10-24T23:49:08.472Z</time>
</trkpt>
<trkpt lat="-26.9941647" lon="152.8719236">
<ele>60.685</ele>
<time>2017-10-24T23:49:11.375Z</time>
</trkpt>
<trkpt lat="-26.9940126" lon="152.8724495">
<ele>58.360</ele>
<time>2017-10-24T23:49:14.126Z</time>
</trkpt>
<trkpt lat="-26.9938051" lon="152.8729878">
<ele>56.705</ele>
<time>2017-10-24T23:49:17.141Z</time>
</trkpt>
<trkpt lat="-26.9935577" lon="152.8735377">
<ele>56.388</ele>
<time>2017-10-24T23:49:20.258Z</time>
</trkpt>
<trkpt lat="-26.9933444" lon="152.8740471">
<ele>56.722</ele>
<time>2017-10-24T23:49:23.166Z</time>
</trkpt>
<trkpt lat="-26.9931333" lon="152.8745226">
<ele>56.988</ele>
<time>2017-10-24T23:49:26.101Z</time>
</trkpt>
<trkpt lat="-26.9929329" lon="152.8749350">
<ele>57.048</ele>
<time>2017-10-24T23:49:28.896Z</time>
</trkpt>
<trkpt lat="-26.9928795" lon="152.8754080">
<ele>56.896</ele>
<time>2017-10-24T23:49:31.932Z</time>
</trkpt>
<trkpt lat="-26.9929680" lon="152.8758479">
<ele>56.306</ele>
<time>2017-10-24T23:49:35.069Z</time>
</trkpt>
<trkpt lat="-26.9930805" lon="152.8762009">
<ele>55.304</ele>
<time>2017-10-24T23:49:38.013Z</time>
</trkpt>
<trkpt lat="-26.9931966" lon="152.8764798">
<ele>54.163</ele>
<time>2017-10-24T23:49:40.772Z</time>
</trkpt>
<trkpt lat="-26.9933145" lon="152.8767307">
<ele>52.871</ele>
<time>2017-10-24T23:49:43.611Z</time>
</trkpt>
<trkpt lat="-26.9934299" lon="152.8769319">
<ele>51.452</ele>
<time>2017-10-24T23:49:46.225Z</time>
</trkpt>
<trkpt lat="-26.9934417" lon="152.8771418">
<ele>50.022</ele>
<time>2017-10-24T23:49:48.972Z</time>
</trkpt>
<trkpt lat="-26.9932136" lon="152.8772705">
<ele>48.390</ele>
<time>2017-10-24T23:49:52.470Z</time>
</trkpt>
<trkpt lat="-26.9928171" lon="152.8773418">
<ele>46.362</ele>
<time>2017-10-24T23:49:55.903Z</time>
</trkpt>
<trkpt lat="-26.9923422" lon="152.8774342">
<ele>44.335</ele>
<time>2017-10-24T23:49:59.005Z</time>
</trkpt>
<trkpt lat="-26.9917895" lon="152.8775227">
<ele>43.255</ele>
<time>2017-10-24T23:50:02.168Z</time>
</trkpt>
<trkpt lat="-26.9912294" lon="152.8776383">
<ele>44.040</ele>
<time>2017-10-24T23:50:05.223Z</time>
</trkpt>
<trkpt lat="-26.9906749" lon="152.8777453">
<ele>46.354</ele>
<time>2017-10-24T23:50:08.218Z</time>
</trkpt>
<trkpt lat="-26.9901291" lon="152.8778499">
<ele>48.696</ele>
<time>2017-10-24T23:50:11.190Z</time>
</trkpt>
<trkpt lat="-26.9896065" lon="152.8779506">
<ele>50.233</ele>
<time>2017-10-24T23:50:14.037Z</time>
</trkpt>
<trkpt lat="-26.9890027" lon="152.8780283">
<ele>51.392</ele>
<time>2017-10-24T23:50:17.212Z</time>
</trkpt>
<trkpt lat="-26.9884437" lon="152.8781290">
<ele>52.511</ele>
<time>2017-10-24T23:50:20.194Z</time>
</trkpt>
<trkpt lat="-26.9879167" lon="152.8782004">
<ele>53.862</ele>
<time>2017-10-24T23:50:23.122Z</time>
</trkpt>
<trkpt lat="-26.9874073" lon="152.8783284">
<ele>55.913</ele>
<time>2017-10-24T23:50:26.065Z</time>
</trkpt>
<trkpt lat="-26.9869006" lon="152.8784082">
<ele>58.477</ele>
<time>2017-10-24T23:50:28.968Z</time>
</trkpt>
<trkpt lat="-26.9863722" lon="152.8785119">
<ele>60.602</ele>
<time>2017-10-24T23:50:32.012Z</time>
</trkpt>
<trkpt lat="-26.9858212" lon="152.8786262">
<ele>61.391</ele>
<time>2017-10-24T23:50:35.162Z</time>
</trkpt>
<trkpt lat="-26.9853002" lon="152.8787705">
<ele>60.289</ele>
<time>2017-10-24T23:50:38.272Z</time>
</trkpt>
<trkpt lat="-26.9851262" lon="152.8792412">
<ele>57.303</ele>
<time>2017-10-24T23:50:41.065Z</time>
</trkpt>
<trkpt lat="-26.9851962" lon="152.8798152">
<ele>53.659</ele>
<time>2017-10-24T23:50:44.120Z</time>
</trkpt>
<trkpt lat="-26.9852711" lon="152.8805000">
<ele>51.091</ele>
<time>2017-10-24T23:50:47.283Z</time>
</trkpt>
<trkpt lat="-26.9853803" lon="152.8812544">
<ele>50.139</ele>
<time>2017-10-24T23:50:50.435Z</time>
</trkpt>
<trkpt lat="-26.9854995" lon="152.8820112">
<ele>50.183</ele>
<time>2017-10-24T23:50:53.527Z</time>
</trkpt>
<trkpt lat="-26.9856119" lon="152.8826847">
<ele>50.693</ele>
<time>2017-10-24T23:50:56.370Z</time>
</trkpt>
<trkpt lat="-26.9857324" lon="152.8834390">
<ele>51.344</ele>
<time>2017-10-24T23:50:59.584Z</time>
</trkpt>
<trkpt lat="-26.9858474" lon="152.8841667">
<ele>51.818</ele>
<time>2017-10-24T23:51:02.560Z</time>
</trkpt>
<trkpt lat="-26.9859487" lon="152.8849481">
<ele>51.913</ele>
<time>2017-10-24T23:51:05.535Z</time>
</trkpt>
<trkpt lat="-26.9860293" lon="152.8858027">
<ele>51.437</ele>
<time>2017-10-24T23:51:08.598Z</time>
</trkpt>
<trkpt lat="-26.9861313" lon="152.8866500">
<ele>49.796</ele>
<time>2017-10-24T23:51:11.629Z</time>
</trkpt>
<trkpt lat="-26.9862360" lon="152.8874196">
<ele>46.772</ele>
<time>2017-10-24T23:51:14.496Z</time>
</trkpt>
<trkpt lat="-26.9863640" lon="152.8881616">
<ele>43.323</ele>
<time>2017-10-24T23:51:17.408Z</time>
</trkpt>
<trkpt lat="-26.9864667" lon="152.8889224">
<ele>40.709</ele>
<time>2017-10-24T23:51:20.479Z</time>
</trkpt>
<trkpt lat="-26.9865698" lon="152.8896124">
<ele>39.241</ele>
<time>2017-10-24T23:51:23.380Z</time>
</trkpt>
<trkpt lat="-26.9866950" lon="152.8902793">
<ele>38.563</ele>
<time>2017-10-24T23:51:26.333Z</time>
</trkpt>
<trkpt lat="-26.9867791" lon="152.8909218">
<ele>38.580</ele>
<time>2017-10-24T23:51:29.227Z</time>
</trkpt>
<trkpt lat="-26.9868628" lon="152.8915708">
<ele>39.521</ele>
<time>2017-10-24T23:51:32.141Z</time>
</trkpt>
<trkpt lat="-26.9869764" lon="152.8922799">
<ele>41.276</ele>
<time>2017-10-24T23:51:35.240Z</time>
</trkpt>
<trkpt lat="-26.9870305" lon="152.8929915">
<ele>43.136</ele>
<time>2017-10-24T23:51:38.205Z</time>
</trkpt>
<trkpt lat="-26.9871204" lon="152.8937296">
<ele>44.155</ele>
<time>2017-10-24T23:51:41.242Z</time>
</trkpt>
<trkpt lat="-26.9872440" lon="152.8944556">
<ele>43.724</ele>
<time>2017-10-24T23:51:44.256Z</time>
</trkpt>
<trkpt lat="-26.9873625" lon="152.8951823">
<ele>42.020</ele>
<time>2017-10-24T23:51:47.288Z</time>
</trkpt>
<trkpt lat="-26.9874585" lon="152.8958946">
<ele>39.945</ele>
<time>2017-10-24T23:51:50.224Z</time>
</trkpt>
<trkpt lat="-26.9875628" lon="152.8966464">
<ele>38.275</ele>
<time>2017-10-24T23:51:53.252Z</time>
</trkpt>
<trkpt lat="-26.9876816" lon="152.8974347">
<ele>37.082</ele>
<time>2017-10-24T23:51:56.307Z</time>
</trkpt>
<trkpt lat="-26.9878071" lon="152.8982395">
<ele>36.285</ele>
<time>2017-10-24T23:51:59.311Z</time>
</trkpt>
<trkpt lat="-26.9879074" lon="152.8990466">
<ele>35.737</ele>
<time>2017-10-24T23:52:02.280Z</time>
</trkpt>
<trkpt lat="-26.9880310" lon="152.8998345">
<ele>34.867</ele>
<time>2017-10-24T23:52:05.251Z</time>
</trkpt>
<trkpt lat="-26.9881667" lon="152.9005945">
<ele>33.367</ele>
<time>2017-10-24T23:52:08.198Z</time>
</trkpt>
<trkpt lat="-26.9882606" lon="152.9013562">
<ele>31.814</ele>
<time>2017-10-24T23:52:11.201Z</time>
</trkpt>
<trkpt lat="-26.9883345" lon="152.9020609">
<ele>30.926</ele>
<time>2017-10-24T23:52:14.021Z</time>
</trkpt>
<trkpt lat="-26.9884478" lon="152.9028672">
<ele>30.971</ele>
<time>2017-10-24T23:52:17.159Z</time>
</trkpt>
<trkpt lat="-26.9885740" lon="152.9037211">
<ele>31.692</ele>
<time>2017-10-24T23:52:20.262Z</time>
</trkpt>
<trkpt lat="-26.9887113" lon="152.9046210">
<ele>32.386</ele>
<time>2017-10-24T23:52:23.399Z</time>
</trkpt>
<trkpt lat="-26.9888367" lon="152.9054988">
<ele>32.490</ele>
<time>2017-10-24T23:52:26.457Z</time>
</trkpt>
<trkpt lat="-26.9889299" lon="152.9062875">
<ele>31.752</ele>
<time>2017-10-24T23:52:29.247Z</time>
</trkpt>
<trkpt lat="-26.9890623" lon="152.9071097">
<ele>30.074</ele>
<time>2017-10-24T23:52:32.196Z</time>
</trkpt>
<trkpt lat="-26.9891986" lon="152.9079789">
<ele>27.939</ele>
<time>2017-10-24T23:52:35.312Z</time>
</trkpt>
<trkpt lat="-26.9893215" lon="152.9087870">
<ele>26.202</ele>
<time>2017-10-24T23:52:38.262Z</time>
</trkpt>
<trkpt lat="-26.9893514" lon="152.9095868">
<ele>25.284</ele>
<time>2017-10-24T23:52:41.219Z</time>
</trkpt>
<trkpt lat="-26.9891580" lon="152.9103607">
<ele>24.775</ele>
<time>2017-10-24T23:52:44.249Z</time>
</trkpt>
<trkpt lat="-26.9890630" lon="152.9111067">
<ele>23.993</ele>
<time>2017-10-24T23:52:47.160Z</time>
</trkpt>
<trkpt lat="-26.9891081" lon="152.9118573">
<ele>22.970</ele>
<time>2017-10-24T23:52:50.137Z</time>
</trkpt>
<trkpt lat="-26.9892824" lon="152.9126055">
<ele>22.508</ele>
<time>2017-10-24T23:52:53.157Z</time>
</trkpt>
<trkpt lat="-26.9897430" lon="152.9132773">
<ele>23.279</ele>
<time>2017-10-24T23:52:56.311Z</time>
</trkpt>
<trkpt lat="-26.9901839" lon="152.9139623">
<ele>25.563</ele>
<time>2017-10-24T23:52:59.430Z</time>
</trkpt>
<trkpt lat="-26.9905709" lon="152.9146122">
<ele>29.011</ele>
<time>2017-10-24T23:53:02.382Z</time>
</trkpt>
<trkpt lat="-26.9909630" lon="152.9152733">
<ele>32.588</ele>
<time>2017-10-24T23:53:05.402Z</time>
</trkpt>
<trkpt lat="-26.9913561" lon="152.9159361">
<ele>35.416</ele>
<time>2017-10-24T23:53:08.445Z</time>
</trkpt>
<trkpt lat="-26.9917446" lon="152.9165925">
<ele>37.534</ele>
<time>2017-10-24T23:53:11.461Z</time>
</trkpt>
<trkpt lat="-26.9921306" lon="152.9173025">
<ele>39.157</ele>
<time>2017-10-24T23:53:14.610Z</time>
</trkpt>
<trkpt lat="-26.9925678" lon="152.9179189">
<ele>40.278</ele>
<time>2017-10-24T23:53:17.592Z</time>
</trkpt>
<trkpt lat="-26.9929457" lon="152.9185577">
<ele>40.888</ele>
<time>2017-10-24T23:53:20.519Z</time>
</trkpt>
<trkpt lat="-26.9933271" lon="152.9192202">
<ele>41.077</ele>
<time>2017-10-24T23:53:23.528Z</time>
</trkpt>
<trkpt lat="-26.9937206" lon="152.9198729">
<ele>40.971</ele>
<time>2017-10-24T23:53:26.507Z</time>
</trkpt>
<trkpt lat="-26.9940757" lon="152.9205455">
<ele>40.782</ele>
<time>2017-10-24T23:53:29.431Z</time>
</trkpt>
<trkpt lat="-26.9944690" lon="152.9212222">
<ele>40.739</ele>
<time>2017-10-24T23:53:32.471Z</time>
</trkpt>
<trkpt lat="-26.9948478" lon="152.9218557">
<ele>41.067</ele>
<time>2017-10-24T23:53:35.430Z</time>
</trkpt>
<trkpt lat="-26.9952325" lon="152.9225163">
<ele>41.762</ele>
<time>2017-10-24T23:53:38.575Z</time>
</trkpt>
<trkpt lat="-26.9955712" lon="152.9231495">
<ele>42.575</ele>
<time>2017-10-24T23:53:41.611Z</time>
</trkpt>
<trkpt lat="-26.9959367" lon="152.9237189">
<ele>43.202</ele>
<time>2017-10-24T23:53:44.524Z</time>
</trkpt>
<trkpt lat="-26.9962533" lon="152.9243672">
<ele>43.566</ele>
<time>2017-10-24T23:53:47.483Z</time>
</trkpt>
<trkpt lat="-26.9966465" lon="152.9250124">
<ele>43.719</ele>
<time>2017-10-24T23:53:50.516Z</time>
</trkpt>
<trkpt lat="-26.9969310" lon="152.9256519">
<ele>43.633</ele>
<time>2017-10-24T23:53:53.320Z</time>
</trkpt>
<trkpt lat="-26.9974464" lon="152.9261076">
<ele>43.269</ele>
<time>2017-10-24T23:53:56.262Z</time>
</trkpt>
<trkpt lat="-26.9980155" lon="152.9265771">
<ele>42.614</ele>
<time>2017-10-24T23:53:59.407Z</time>
</trkpt>
<trkpt lat="-26.9985261" lon="152.9271135">
<ele>41.411</ele>
<time>2017-10-24T23:54:02.428Z</time>
</trkpt>
<trkpt lat="-26.9990684" lon="152.9276750">
<ele>39.572</ele>
<time>2017-10-24T23:54:05.506Z</time>
</trkpt>
<trkpt lat="-26.9996161" lon="152.9282288">
<ele>37.257</ele>
<time>2017-10-24T23:54:08.553Z</time>
</trkpt>
<trkpt lat="-27.0001073" lon="152.9288108">
<ele>34.547</ele>
<time>2017-10-24T23:54:11.574Z</time>
</trkpt>
<trkpt lat="-27.0005626" lon="152.9293749">
<ele>31.478</ele>
<time>2017-10-24T23:54:14.604Z</time>
</trkpt>
<trkpt lat="-27.0009534" lon="152.9299099">
<ele>28.650</ele>
<time>2017-10-24T23:54:17.548Z</time>
</trkpt>
<trkpt lat="-27.0013489" lon="152.9303797">
<ele>27.027</ele>
<time>2017-10-24T23:54:20.395Z</time>
</trkpt>
<trkpt lat="-27.0017361" lon="152.9309001">
<ele>26.875</ele>
<time>2017-10-24T23:54:23.377Z</time>
</trkpt>
<trkpt lat="-27.0021305" lon="152.9314239">
<ele>27.423</ele>
<time>2017-10-24T23:54:26.353Z</time>
</trkpt>
<trkpt lat="-27.0025618" lon="152.9319515">
<ele>27.892</ele>
<time>2017-10-24T23:54:29.433Z</time>
</trkpt>
<trkpt lat="-27.0029912" lon="152.9324549">
<ele>28.030</ele>
<time>2017-10-24T23:54:32.388Z</time>
</trkpt>
<trkpt lat="-27.0034277" lon="152.9330263">
<ele>27.969</ele>
<time>2017-10-24T23:54:35.475Z</time>
</trkpt>
<trkpt lat="-27.0038645" lon="152.9335968">
<ele>27.813</ele>
<time>2017-10-24T23:54:38.479Z</time>
</trkpt>
<trkpt lat="-27.0042910" lon="152.9341493">
<ele>27.346</ele>
<time>2017-10-24T23:54:41.367Z</time>
</trkpt>
<trkpt lat="-27.0047499" lon="152.9347173">
<ele>26.110</ele>
<time>2017-10-24T23:54:44.358Z</time>
</trkpt>
<trkpt lat="-27.0052078" lon="152.9353220">
<ele>23.967</ele>
<time>2017-10-24T23:54:47.440Z</time>
</trkpt>
<trkpt lat="-27.0056836" lon="152.9359050">
<ele>21.424</ele>
<time>2017-10-24T23:54:50.601Z</time>
</trkpt>
<trkpt lat="-27.0061008" lon="152.9364373">
<ele>19.195</ele>
<time>2017-10-24T23:54:53.626Z</time>
</trkpt>
<trkpt lat="-27.0065040" lon="152.9369008">
<ele>17.742</ele>
<time>2017-10-24T23:54:56.685Z</time>
</trkpt>
<trkpt lat="-27.0069538" lon="152.9371275">
<ele>17.015</ele>
<time>2017-10-24T23:54:59.635Z</time>
</trkpt>
<trkpt lat="-27.0074031" lon="152.9373283">
<ele>16.752</ele>
<time>2017-10-24T23:55:02.723Z</time>
</trkpt>
<trkpt lat="-27.0078703" lon="152.9375345">
<ele>16.846</ele>
<time>2017-10-24T23:55:05.886Z</time>
</trkpt>
<trkpt lat="-27.0082750" lon="152.9378427">
<ele>17.234</ele>
<time>2017-10-24T23:55:08.910Z</time>
</trkpt>
<trkpt lat="-27.0085751" lon="152.9382777">
<ele>17.819</ele>
<time>2017-10-24T23:55:11.944Z</time>
</trkpt>
<trkpt lat="-27.0088790" lon="152.9386928">
<ele>18.464</ele>
<time>2017-10-24T23:55:14.899Z</time>
</trkpt>
<trkpt lat="-27.0091957" lon="152.9391016">
<ele>19.029</ele>
<time>2017-10-24T23:55:17.900Z</time>
</trkpt>
<trkpt lat="-27.0094783" lon="152.9394898">
<ele>19.597</ele>
<time>2017-10-24T23:55:20.770Z</time>
</trkpt>
<trkpt lat="-27.0097350" lon="152.9398541">
<ele>20.342</ele>
<time>2017-10-24T23:55:23.515Z</time>
</trkpt>
<trkpt lat="-27.0099340" lon="152.9400811">
<ele>21.192</ele>
<time>2017-10-24T23:55:25.426Z</time>
</trkpt>
<trkpt lat="-27.0101403" lon="152.9403532">
<ele>21.671</ele>
<time>2017-10-24T23:55:27.554Z</time>
</trkpt>
<trkpt lat="-27.0103438" lon="152.9406307">
<ele>21.240</ele>
<time>2017-10-24T23:55:29.663Z</time>
</trkpt>
<trkpt lat="-27.0105623" lon="152.9408957">
<ele>19.965</ele>
<time>2017-10-24T23:55:31.770Z</time>
</trkpt>
<trkpt lat="-27.0107732" lon="152.9411691">
<ele>18.584</ele>
<time>2017-10-24T23:55:33.925Z</time>
</trkpt>
<trkpt lat="-27.0109215" lon="152.9414319">
<ele>17.769</ele>
<time>2017-10-24T23:55:35.931Z</time>
</trkpt>
<trkpt lat="-27.0110810" lon="152.9418254">
<ele>17.490</ele>
<time>2017-10-24T23:55:38.908Z</time>
</trkpt>
<trkpt lat="-27.0111808" lon="152.9420482">
<ele>17.281</ele>
<time>2017-10-24T23:55:40.806Z</time>
</trkpt>
<trkpt lat="-27.0112959" lon="152.9422525">
<ele>16.907</ele>
<time>2017-10-24T23:55:42.671Z</time>
</trkpt>
<trkpt lat="-27.0113945" lon="152.9425159">
<ele>16.342</ele>
<time>2017-10-24T23:55:44.856Z</time>
</trkpt>
<trkpt lat="-27.0114549" lon="152.9428819">
<ele>15.374</ele>
<time>2017-10-24T23:55:47.905Z</time>
</trkpt>
<trkpt lat="-27.0114315" lon="152.9431518">
<ele>13.954</ele>
<time>2017-10-24T23:55:50.604Z</time>
</trkpt>
<trkpt lat="-27.0114357" lon="152.9433516">
<ele>12.558</ele>
<time>2017-10-24T23:55:53.245Z</time>
</trkpt>
<trkpt lat="-27.0114237" lon="152.9434570">
<ele>11.678</ele>
<time>2017-10-24T23:55:55.008Z</time>
</trkpt>
<trkpt lat="-27.0114237" lon="152.9434570">
<ele>11.386</ele>
<time>2017-10-24T23:55:59.008Z</time>
</trkpt>
<trkpt lat="-27.0114237" lon="152.9434570">
<ele>11.439</ele>
<time>2017-10-24T23:56:02.845Z</time>
</trkpt>
<trkpt lat="-27.0112666" lon="152.9435693">
<ele>11.534</ele>
<time>2017-10-24T23:56:10.305Z</time>
</trkpt>
<trkpt lat="-27.0109266" lon="152.9436274">
<ele>11.294</ele>
<time>2017-10-24T23:56:13.788Z</time>
</trkpt>
<trkpt lat="-27.0105183" lon="152.9435990">
<ele>10.635</ele>
<time>2017-10-24T23:56:16.769Z</time>
</trkpt>
<trkpt lat="-27.0100516" lon="152.9436274">
<ele>10.028</ele>
<time>2017-10-24T23:56:19.828Z</time>
</trkpt>
<trkpt lat="-27.0095835" lon="152.9437694">
<ele>10.056</ele>
<time>2017-10-24T23:56:22.862Z</time>
</trkpt>
<trkpt lat="-27.0091242" lon="152.9439819">
<ele>11.034</ele>
<time>2017-10-24T23:56:25.923Z</time>
</trkpt>
<trkpt lat="-27.0086662" lon="152.9442209">
<ele>12.925</ele>
<time>2017-10-24T23:56:29.014Z</time>
</trkpt>
<trkpt lat="-27.0082291" lon="152.9444189">
<ele>15.267</ele>
<time>2017-10-24T23:56:31.891Z</time>
</trkpt>
<trkpt lat="-27.0077891" lon="152.9446585">
<ele>17.297</ele>
<time>2017-10-24T23:56:34.822Z</time>
</trkpt>
<trkpt lat="-27.0073404" lon="152.9449626">
<ele>18.184</ele>
<time>2017-10-24T23:56:37.862Z</time>
</trkpt>
<trkpt lat="-27.0068795" lon="152.9452497">
<ele>17.600</ele>
<time>2017-10-24T23:56:40.829Z</time>
</trkpt>
<trkpt lat="-27.0064032" lon="152.9455337">
<ele>16.216</ele>
<time>2017-10-24T23:56:43.798Z</time>
</trkpt>
<trkpt lat="-27.0059142" lon="152.9458004">
<ele>15.087</ele>
<time>2017-10-24T23:56:46.734Z</time>
</trkpt>
<trkpt lat="-27.0053987" lon="152.9460566">
<ele>14.635</ele>
<time>2017-10-24T23:56:49.670Z</time>
</trkpt>
<trkpt lat="-27.0048378" lon="152.9463745">
<ele>14.698</ele>
<time>2017-10-24T23:56:52.788Z</time>
</trkpt>
<trkpt lat="-27.0042715" lon="152.9466829">
<ele>15.014</ele>
<time>2017-10-24T23:56:55.794Z</time>
</trkpt>
<trkpt lat="-27.0036250" lon="152.9469057">
<ele>15.542</ele>
<time>2017-10-24T23:56:58.952Z</time>
</trkpt>
<trkpt lat="-27.0030131" lon="152.9470581">
<ele>16.290</ele>
<time>2017-10-24T23:57:01.893Z</time>
</trkpt>
<trkpt lat="-27.0023851" lon="152.9471490">
<ele>17.507</ele>
<time>2017-10-24T23:57:04.906Z</time>
</trkpt>
<trkpt lat="-27.0017600" lon="152.9471760">
<ele>19.871</ele>
<time>2017-10-24T23:57:07.966Z</time>
</trkpt>
<trkpt lat="-27.0012258" lon="152.9470994">
<ele>23.180</ele>
<time>2017-10-24T23:57:10.700Z</time>
</trkpt>
<trkpt lat="-27.0006478" lon="152.9470435">
<ele>26.053</ele>
<time>2017-10-24T23:57:13.675Z</time>
</trkpt>
<trkpt lat="-27.0000237" lon="152.9469500">
<ele>27.660</ele>
<time>2017-10-24T23:57:16.855Z</time>
</trkpt>
<trkpt lat="-26.9993795" lon="152.9468792">
<ele>27.967</ele>
<time>2017-10-24T23:57:20.042Z</time>
</trkpt>
<trkpt lat="-26.9987423" lon="152.9470131">
<ele>26.824</ele>
<time>2017-10-24T23:57:23.161Z</time>
</trkpt>
<trkpt lat="-26.9981395" lon="152.9471773">
<ele>24.032</ele>
<time>2017-10-24T23:57:26.082Z</time>
</trkpt>
<trkpt lat="-26.9975086" lon="152.9473612">
<ele>20.424</ele>
<time>2017-10-24T23:57:29.079Z</time>
</trkpt>
<trkpt lat="-26.9968633" lon="152.9475056">
<ele>17.667</ele>
<time>2017-10-24T23:57:32.111Z</time>
</trkpt>
<trkpt lat="-26.9962416" lon="152.9476215">
<ele>16.862</ele>
<time>2017-10-24T23:57:35.097Z</time>
</trkpt>
<trkpt lat="-26.9956601" lon="152.9477955">
<ele>17.819</ele>
<time>2017-10-24T23:57:38.044Z</time>
</trkpt>
<trkpt lat="-26.9950617" lon="152.9479079">
<ele>19.523</ele>
<time>2017-10-24T23:57:41.123Z</time>
</trkpt>
<trkpt lat="-26.9945136" lon="152.9480409">
<ele>21.041</ele>
<time>2017-10-24T23:57:44.040Z</time>
</trkpt>
<trkpt lat="-26.9939391" lon="152.9482153">
<ele>22.069</ele>
<time>2017-10-24T23:57:47.114Z</time>
</trkpt>
<trkpt lat="-26.9933435" lon="152.9483731">
<ele>22.614</ele>
<time>2017-10-24T23:57:50.182Z</time>
</trkpt>
<trkpt lat="-26.9927216" lon="152.9484494">
<ele>22.810</ele>
<time>2017-10-24T23:57:53.280Z</time>
</trkpt>
<trkpt lat="-26.9921663" lon="152.9485594">
<ele>22.761</ele>
<time>2017-10-24T23:57:56.188Z</time>
</trkpt>
<trkpt lat="-26.9916083" lon="152.9486047">
<ele>22.522</ele>
<time>2017-10-24T23:57:59.187Z</time>
</trkpt>
<trkpt lat="-26.9910436" lon="152.9485908">
<ele>22.155</ele>
<time>2017-10-24T23:58:02.220Z</time>
</trkpt>
<trkpt lat="-26.9904670" lon="152.9485441">
<ele>21.649</ele>
<time>2017-10-24T23:58:05.211Z</time>
</trkpt>
<trkpt lat="-26.9898502" lon="152.9485300">
<ele>20.939</ele>
<time>2017-10-24T23:58:08.220Z</time>
</trkpt>
<trkpt lat="-26.9892115" lon="152.9485542">
<ele>19.872</ele>
<time>2017-10-24T23:58:11.187Z</time>
</trkpt>
<trkpt lat="-26.9885484" lon="152.9485319">
<ele>18.047</ele>
<time>2017-10-24T23:58:14.241Z</time>
</trkpt>
<trkpt lat="-26.9879180" lon="152.9485197">
<ele>15.149</ele>
<time>2017-10-24T23:58:17.273Z</time>
</trkpt>
<trkpt lat="-26.9873619" lon="152.9484839">
<ele>11.715</ele>
<time>2017-10-24T23:58:20.097Z</time>
</trkpt>
<trkpt lat="-26.9867801" lon="152.9485273">
<ele>8.973</ele>
<time>2017-10-24T23:58:23.095Z</time>
</trkpt>
<trkpt lat="-26.9861862" lon="152.9487072">
<ele>8.008</ele>
<time>2017-10-24T23:58:26.178Z</time>
</trkpt>
<trkpt lat="-26.9856129" lon="152.9489504">
<ele>8.858</ele>
<time>2017-10-24T23:58:29.211Z</time>
</trkpt>
<trkpt lat="-26.9850683" lon="152.9491849">
<ele>10.536</ele>
<time>2017-10-24T23:58:32.146Z</time>
</trkpt>
<trkpt lat="-26.9845507" lon="152.9495291">
<ele>12.059</ele>
<time>2017-10-24T23:58:35.168Z</time>
</trkpt>
<trkpt lat="-26.9840109" lon="152.9498200">
<ele>13.204</ele>
<time>2017-10-24T23:58:38.111Z</time>
</trkpt>
<trkpt lat="-26.9834741" lon="152.9501090">
<ele>14.371</ele>
<time>2017-10-24T23:58:41.054Z</time>
</trkpt>
<trkpt lat="-26.9829307" lon="152.9503455">
<ele>16.157</ele>
<time>2017-10-24T23:58:43.961Z</time>
</trkpt>
<trkpt lat="-26.9823332" lon="152.9505486">
<ele>18.456</ele>
<time>2017-10-24T23:58:47.036Z</time>
</trkpt>
<trkpt lat="-26.9817393" lon="152.9506433">
<ele>20.477</ele>
<time>2017-10-24T23:58:49.956Z</time>
</trkpt>
<trkpt lat="-26.9811260" lon="152.9505731">
<ele>21.952</ele>
<time>2017-10-24T23:58:52.961Z</time>
</trkpt>
<trkpt lat="-26.9804804" lon="152.9505509">
<ele>23.117</ele>
<time>2017-10-24T23:58:56.087Z</time>
</trkpt>
<trkpt lat="-26.9798382" lon="152.9505420">
<ele>23.728</ele>
<time>2017-10-24T23:58:59.170Z</time>
</trkpt>
<trkpt lat="-26.9792216" lon="152.9505192">
<ele>23.318</ele>
<time>2017-10-24T23:59:02.176Z</time>
</trkpt>
<trkpt lat="-26.9786196" lon="152.9504981">
<ele>22.045</ele>
<time>2017-10-24T23:59:05.151Z</time>
</trkpt>
<trkpt lat="-26.9780179" lon="152.9504997">
<ele>20.673</ele>
<time>2017-10-24T23:59:08.092Z</time>
</trkpt>
<trkpt lat="-26.9773757" lon="152.9504671">
<ele>19.751</ele>
<time>2017-10-24T23:59:11.136Z</time>
</trkpt>
<trkpt lat="-26.9767172" lon="152.9504534">
<ele>19.010</ele>
<time>2017-10-24T23:59:14.172Z</time>
</trkpt>
<trkpt lat="-26.9760603" lon="152.9505028">
<ele>17.646</ele>
<time>2017-10-24T23:59:17.185Z</time>
</trkpt>
<trkpt lat="-26.9754192" lon="152.9505115">
<ele>15.618</ele>
<time>2017-10-24T23:59:20.121Z</time>
</trkpt>
<trkpt lat="-26.9747710" lon="152.9504702">
<ele>14.181</ele>
<time>2017-10-24T23:59:23.119Z</time>
</trkpt>
<trkpt lat="-26.9741354" lon="152.9504486">
<ele>14.616</ele>
<time>2017-10-24T23:59:26.151Z</time>
</trkpt>
<trkpt lat="-26.9735394" lon="152.9504392">
<ele>16.858</ele>
<time>2017-10-24T23:59:29.081Z</time>
</trkpt>
<trkpt lat="-26.9729441" lon="152.9504623">
<ele>19.527</ele>
<time>2017-10-24T23:59:31.965Z</time>
</trkpt>
<trkpt lat="-26.9723019" lon="152.9504549">
<ele>20.942</ele>
<time>2017-10-24T23:59:34.981Z</time>
</trkpt>
<trkpt lat="-26.9716299" lon="152.9504460">
<ele>20.410</ele>
<time>2017-10-24T23:59:38.126Z</time>
</trkpt>
<trkpt lat="-26.9710107" lon="152.9504557">
<ele>18.572</ele>
<time>2017-10-24T23:59:41.072Z</time>
</trkpt>
<trkpt lat="-26.9703967" lon="152.9504779">
<ele>16.664</ele>
<time>2017-10-24T23:59:43.998Z</time>
</trkpt>
<trkpt lat="-26.9697491" lon="152.9505011">
<ele>15.207</ele>
<time>2017-10-24T23:59:47.065Z</time>
</trkpt>
<trkpt lat="-26.9691178" lon="152.9505972">
<ele>13.492</ele>
<time>2017-10-24T23:59:50.096Z</time>
</trkpt>
<trkpt lat="-26.9685245" lon="152.9508072">
<ele>11.230</ele>
<time>2017-10-24T23:59:53.099Z</time>
</trkpt>
<trkpt lat="-26.9679652" lon="152.9510589">
<ele>9.779</ele>
<time>2017-10-24T23:59:56.058Z</time>
</trkpt>
<trkpt lat="-26.9674046" lon="152.9513180">
<ele>10.383</ele>
<time>2017-10-24T23:59:59.036Z</time>
</trkpt>
<trkpt lat="-26.9668555" lon="152.9516262">
<ele>12.300</ele>
<time>2017-10-25T00:00:01.948Z</time>
</trkpt>
<trkpt lat="-26.9662412" lon="152.9519157">
<ele>13.945</ele>
<time>2017-10-25T00:00:05.019Z</time>
</trkpt>
<trkpt lat="-26.9656381" lon="152.9521845">
<ele>14.758</ele>
<time>2017-10-25T00:00:08.072Z</time>
</trkpt>
<trkpt lat="-26.9650920" lon="152.9524715">
<ele>15.111</ele>
<time>2017-10-25T00:00:10.980Z</time>
</trkpt>
<trkpt lat="-26.9645182" lon="152.9527615">
<ele>15.260</ele>
<time>2017-10-25T00:00:14.020Z</time>
</trkpt>
<trkpt lat="-26.9639545" lon="152.9530160">
<ele>15.342</ele>
<time>2017-10-25T00:00:17.084Z</time>
</trkpt>
<trkpt lat="-26.9634994" lon="152.9532862">
<ele>15.863</ele>
<time>2017-10-25T00:00:19.927Z</time>
</trkpt>
<trkpt lat="-26.9630507" lon="152.9534927">
<ele>17.518</ele>
<time>2017-10-25T00:00:22.777Z</time>
</trkpt>
<trkpt lat="-26.9625660" lon="152.9536700">
<ele>20.235</ele>
<time>2017-10-25T00:00:25.892Z</time>
</trkpt>
<trkpt lat="-26.9621302" lon="152.9538834">
<ele>23.125</ele>
<time>2017-10-25T00:00:29.072Z</time>
</trkpt>
<trkpt lat="-26.9617889" lon="152.9540533">
<ele>25.660</ele>
<time>2017-10-25T00:00:32.002Z</time>
</trkpt>
<trkpt lat="-26.9615349" lon="152.9542294">
<ele>27.860</ele>
<time>2017-10-25T00:00:34.985Z</time>
</trkpt>
<trkpt lat="-26.9613391" lon="152.9542632">
<ele>29.860</ele>
<time>2017-10-25T00:00:37.603Z</time>
</trkpt>
<trkpt lat="-26.9612407" lon="152.9540591">
<ele>31.584</ele>
<time>2017-10-25T00:00:40.664Z</time>
</trkpt>
<trkpt lat="-26.9611775" lon="152.9537951">
<ele>32.672</ele>
<time>2017-10-25T00:00:43.864Z</time>
</trkpt>
<trkpt lat="-26.9610975" lon="152.9535059">
<ele>33.034</ele>
<time>2017-10-25T00:00:46.589Z</time>
</trkpt>
<trkpt lat="-26.9610154" lon="152.9530156">
<ele>33.158</ele>
<time>2017-10-25T00:00:49.886Z</time>
</trkpt>
<trkpt lat="-26.9609644" lon="152.9524320">
<ele>33.561</ele>
<time>2017-10-25T00:00:53.054Z</time>
</trkpt>
<trkpt lat="-26.9609861" lon="152.9518880">
<ele>34.306</ele>
<time>2017-10-25T00:00:55.826Z</time>
</trkpt>
<trkpt lat="-26.9610249" lon="152.9512394">
<ele>34.997</ele>
<time>2017-10-25T00:00:59.002Z</time>
</trkpt>
<trkpt lat="-26.9610537" lon="152.9506124">
<ele>35.350</ele>
<time>2017-10-25T00:01:01.986Z</time>
</trkpt>
<trkpt lat="-26.9610957" lon="152.9499914">
<ele>35.413</ele>
<time>2017-10-25T00:01:04.880Z</time>
</trkpt>
<trkpt lat="-26.9611914" lon="152.9493073">
<ele>35.323</ele>
<time>2017-10-25T00:01:07.937Z</time>
</trkpt>
<trkpt lat="-26.9612415" lon="152.9486062">
<ele>34.803</ele>
<time>2017-10-25T00:01:10.896Z</time>
</trkpt>
<trkpt lat="-26.9612533" lon="152.9478900">
<ele>33.538</ele>
<time>2017-10-25T00:01:13.905Z</time>
</trkpt>
<trkpt lat="-26.9612813" lon="152.9472031">
<ele>32.025</ele>
<time>2017-10-25T00:01:16.865Z</time>
</trkpt>
<trkpt lat="-26.9612302" lon="152.9465361">
<ele>31.291</ele>
<time>2017-10-25T00:01:19.786Z</time>
</trkpt>
<trkpt lat="-26.9610726" lon="152.9458617">
<ele>31.588</ele>
<time>2017-10-25T00:01:22.802Z</time>
</trkpt>
<trkpt lat="-26.9607288" lon="152.9452670">
<ele>31.949</ele>
<time>2017-10-25T00:01:25.786Z</time>
</trkpt>
<trkpt lat="-26.9603205" lon="152.9446783">
<ele>31.377</ele>
<time>2017-10-25T00:01:28.755Z</time>
</trkpt>
<trkpt lat="-26.9598221" lon="152.9440793">
<ele>30.157</ele>
<time>2017-10-25T00:01:31.860Z</time>
</trkpt>
<trkpt lat="-26.9593744" lon="152.9434980">
<ele>29.581</ele>
<time>2017-10-25T00:01:34.853Z</time>
</trkpt>
<trkpt lat="-26.9588980" lon="152.9430548">
<ele>30.623</ele>
<time>2017-10-25T00:01:37.682Z</time>
</trkpt>
<trkpt lat="-26.9582706" lon="152.9427202">
<ele>33.182</ele>
<time>2017-10-25T00:01:40.889Z</time>
</trkpt>
<trkpt lat="-26.9577201" lon="152.9423280">
<ele>36.597</ele>
<time>2017-10-25T00:01:43.877Z</time>
</trkpt>
<trkpt lat="-26.9572746" lon="152.9417888">
<ele>39.885</ele>
<time>2017-10-25T00:01:46.832Z</time>
</trkpt>
<trkpt lat="-26.9569743" lon="152.9411178">
<ele>41.943</ele>
<time>2017-10-25T00:01:49.780Z</time>
</trkpt>
<trkpt lat="-26.9567546" lon="152.9403792">
<ele>42.501</ele>
<time>2017-10-25T00:01:52.787Z</time>
</trkpt>
<trkpt lat="-26.9566366" lon="152.9396128">
<ele>42.073</ele>
<time>2017-10-25T00:01:55.819Z</time>
</trkpt>
<trkpt lat="-26.9565354" lon="152.9388922">
<ele>41.192</ele>
<time>2017-10-25T00:01:58.766Z</time>
</trkpt>
<trkpt lat="-26.9563905" lon="152.9382112">
<ele>39.899</ele>
<time>2017-10-25T00:02:01.709Z</time>
</trkpt>
<trkpt lat="-26.9562904" lon="152.9375183">
<ele>37.958</ele>
<time>2017-10-25T00:02:04.689Z</time>
</trkpt>
<trkpt lat="-26.9560198" lon="152.9368381">
<ele>35.638</ele>
<time>2017-10-25T00:02:07.768Z</time>
</trkpt>
<trkpt lat="-26.9556966" lon="152.9361970">
<ele>33.713</ele>
<time>2017-10-25T00:02:10.769Z</time>
</trkpt>
<trkpt lat="-26.9555621" lon="152.9355022">
<ele>32.923</ele>
<time>2017-10-25T00:02:13.562Z</time>
</trkpt>
<trkpt lat="-26.9554705" lon="152.9346680">
<ele>33.771</ele>
<time>2017-10-25T00:02:16.678Z</time>
</trkpt>
<trkpt lat="-26.9554055" lon="152.9338883">
<ele>35.803</ele>
<time>2017-10-25T00:02:19.593Z</time>
</trkpt>
<trkpt lat="-26.9552853" lon="152.9331531">
<ele>38.113</ele>
<time>2017-10-25T00:02:22.486Z</time>
</trkpt>
<trkpt lat="-26.9550070" lon="152.9324367">
<ele>40.409</ele>
<time>2017-10-25T00:02:25.522Z</time>
</trkpt>
<trkpt lat="-26.9547475" lon="152.9317073">
<ele>42.607</ele>
<time>2017-10-25T00:02:28.528Z</time>
</trkpt>
<trkpt lat="-26.9545864" lon="152.9312145">
<ele>44.449</ele>
<time>2017-10-25T00:02:30.517Z</time>
</trkpt>
<trkpt lat="-26.9544115" lon="152.9307459">
<ele>45.880</ele>
<time>2017-10-25T00:02:32.413Z</time>
</trkpt>
<trkpt lat="-26.9541986" lon="152.9302507">
<ele>46.939</ele>
<time>2017-10-25T00:02:34.418Z</time>
</trkpt>
<trkpt lat="-26.9539711" lon="152.9297486">
<ele>47.690</ele>
<time>2017-10-25T00:02:36.454Z</time>
</trkpt>
<trkpt lat="-26.9537991" lon="152.9292407">
<ele>48.224</ele>
<time>2017-10-25T00:02:38.453Z</time>
</trkpt>
<trkpt lat="-26.9536104" lon="152.9287672">
<ele>48.597</ele>
<time>2017-10-25T00:02:40.405Z</time>
</trkpt>
<trkpt lat="-26.9534306" lon="152.9282837">
<ele>48.819</ele>
<time>2017-10-25T00:02:42.387Z</time>
</trkpt>
<trkpt lat="-26.9532680" lon="152.9277769">
<ele>48.597</ele>
<time>2017-10-25T00:02:44.408Z</time>
</trkpt>
<trkpt lat="-26.9531423" lon="152.9272684">
<ele>47.836</ele>
<time>2017-10-25T00:02:46.360Z</time>
</trkpt>
<trkpt lat="-26.9530175" lon="152.9267236">
<ele>47.061</ele>
<time>2017-10-25T00:02:48.430Z</time>
</trkpt>
<trkpt lat="-26.9529362" lon="152.9259444">
<ele>46.796</ele>
<time>2017-10-25T00:02:51.324Z</time>
</trkpt>
<trkpt lat="-26.9528632" lon="152.9251547">
<ele>47.067</ele>
<time>2017-10-25T00:02:54.253Z</time>
</trkpt>
<trkpt lat="-26.9527859" lon="152.9243525">
<ele>47.625</ele>
<time>2017-10-25T00:02:57.215Z</time>
</trkpt>
<trkpt lat="-26.9526683" lon="152.9235526">
<ele>48.158</ele>
<time>2017-10-25T00:03:00.199Z</time>
</trkpt>
<trkpt lat="-26.9526093" lon="152.9227598">
<ele>48.710</ele>
<time>2017-10-25T00:03:03.223Z</time>
</trkpt>
<trkpt lat="-26.9525336" lon="152.9220278">
<ele>49.587</ele>
<time>2017-10-25T00:03:06.213Z</time>
</trkpt>
<trkpt lat="-26.9521324" lon="152.9214955">
<ele>50.834</ele>
<time>2017-10-25T00:03:09.104Z</time>
</trkpt>
<trkpt lat="-26.9515554" lon="152.9210066">
<ele>52.050</ele>
<time>2017-10-25T00:03:12.244Z</time>
</trkpt>
<trkpt lat="-26.9509853" lon="152.9204656">
<ele>52.701</ele>
<time>2017-10-25T00:03:15.348Z</time>
</trkpt>
<trkpt lat="-26.9504810" lon="152.9199620">
<ele>52.684</ele>
<time>2017-10-25T00:03:18.241Z</time>
</trkpt>
<trkpt lat="-26.9499903" lon="152.9194928">
<ele>52.202</ele>
<time>2017-10-25T00:03:21.154Z</time>
</trkpt>
<trkpt lat="-26.9495404" lon="152.9190469">
<ele>51.473</ele>
<time>2017-10-25T00:03:24.061Z</time>
</trkpt>
<trkpt lat="-26.9491202" lon="152.9186884">
<ele>50.821</ele>
<time>2017-10-25T00:03:26.825Z</time>
</trkpt>
<trkpt lat="-26.9485472" lon="152.9185509">
<ele>50.497</ele>
<time>2017-10-25T00:03:29.901Z</time>
</trkpt>
<trkpt lat="-26.9478979" lon="152.9183185">
<ele>50.345</ele>
<time>2017-10-25T00:03:33.069Z</time>
</trkpt>
<trkpt lat="-26.9472446" lon="152.9180681">
<ele>50.146</ele>
<time>2017-10-25T00:03:36.031Z</time>
</trkpt>
<trkpt lat="-26.9465354" lon="152.9179102">
<ele>50.223</ele>
<time>2017-10-25T00:03:39.100Z</time>
</trkpt>
<trkpt lat="-26.9458441" lon="152.9179260">
<ele>51.097</ele>
<time>2017-10-25T00:03:42.085Z</time>
</trkpt>
<trkpt lat="-26.9451820" lon="152.9179416">
<ele>52.702</ele>
<time>2017-10-25T00:03:45.027Z</time>
</trkpt>
<trkpt lat="-26.9445392" lon="152.9179681">
<ele>54.410</ele>
<time>2017-10-25T00:03:47.925Z</time>
</trkpt>
<trkpt lat="-26.9438622" lon="152.9180068">
<ele>55.600</ele>
<time>2017-10-25T00:03:50.922Z</time>
</trkpt>
<trkpt lat="-26.9431573" lon="152.9180342">
<ele>55.723</ele>
<time>2017-10-25T00:03:53.970Z</time>
</trkpt>
<trkpt lat="-26.9424715" lon="152.9180783">
<ele>54.475</ele>
<time>2017-10-25T00:03:56.961Z</time>
</trkpt>
<trkpt lat="-26.9418166" lon="152.9181170">
<ele>52.228</ele>
<time>2017-10-25T00:03:59.874Z</time>
</trkpt>
<trkpt lat="-26.9411469" lon="152.9182165">
<ele>49.753</ele>
<time>2017-10-25T00:04:02.904Z</time>
</trkpt>
<trkpt lat="-26.9405563" lon="152.9185795">
<ele>47.386</ele>
<time>2017-10-25T00:04:05.907Z</time>
</trkpt>
<trkpt lat="-26.9399520" lon="152.9189179">
<ele>44.985</ele>
<time>2017-10-25T00:04:08.862Z</time>
</trkpt>
<trkpt lat="-26.9392601" lon="152.9190572">
<ele>42.382</ele>
<time>2017-10-25T00:04:11.870Z</time>
</trkpt>
<trkpt lat="-26.9385337" lon="152.9190640">
<ele>39.899</ele>
<time>2017-10-25T00:04:14.915Z</time>
</trkpt>
<trkpt lat="-26.9377938" lon="152.9190861">
<ele>37.685</ele>
<time>2017-10-25T00:04:17.932Z</time>
</trkpt>
<trkpt lat="-26.9370436" lon="152.9190608">
<ele>35.596</ele>
<time>2017-10-25T00:04:20.909Z</time>
</trkpt>
<trkpt lat="-26.9362650" lon="152.9190193">
<ele>34.010</ele>
<time>2017-10-25T00:04:23.941Z</time>
</trkpt>
<trkpt lat="-26.9354920" lon="152.9190442">
<ele>33.471</ele>
<time>2017-10-25T00:04:26.923Z</time>
</trkpt>
<trkpt lat="-26.9347049" lon="152.9190271">
<ele>34.027</ele>
<time>2017-10-25T00:04:29.954Z</time>
</trkpt>
<trkpt lat="-26.9339444" lon="152.9190365">
<ele>35.785</ele>
<time>2017-10-25T00:04:32.896Z</time>
</trkpt>
<trkpt lat="-26.9331974" lon="152.9190215">
<ele>38.902</ele>
<time>2017-10-25T00:04:35.868Z</time>
</trkpt>
<trkpt lat="-26.9325067" lon="152.9190486">
<ele>43.061</ele>
<time>2017-10-25T00:04:38.755Z</time>
</trkpt>
<trkpt lat="-26.9318451" lon="152.9190767">
<ele>47.334</ele>
<time>2017-10-25T00:04:41.633Z</time>
</trkpt>
<trkpt lat="-26.9311495" lon="152.9190595">
<ele>50.584</ele>
<time>2017-10-25T00:04:44.669Z</time>
</trkpt>
<trkpt lat="-26.9304519" lon="152.9190590">
<ele>52.108</ele>
<time>2017-10-25T00:04:47.672Z</time>
</trkpt>
<trkpt lat="-26.9297850" lon="152.9190590">
<ele>52.010</ele>
<time>2017-10-25T00:04:50.600Z</time>
</trkpt>
<trkpt lat="-26.9291555" lon="152.9190393">
<ele>50.721</ele>
<time>2017-10-25T00:04:53.521Z</time>
</trkpt>
<trkpt lat="-26.9285981" lon="152.9191247">
<ele>48.615</ele>
<time>2017-10-25T00:04:56.308Z</time>
</trkpt>
<trkpt lat="-26.9280564" lon="152.9193437">
<ele>46.160</ele>
<time>2017-10-25T00:04:59.273Z</time>
</trkpt>
<trkpt lat="-26.9274950" lon="152.9197320">
<ele>43.730</ele>
<time>2017-10-25T00:05:02.403Z</time>
</trkpt>
<trkpt lat="-26.9269117" lon="152.9201162">
<ele>41.721</ele>
<time>2017-10-25T00:05:05.412Z</time>
</trkpt>
<trkpt lat="-26.9263989" lon="152.9205824">
<ele>40.804</ele>
<time>2017-10-25T00:05:08.346Z</time>
</trkpt>
<trkpt lat="-26.9258481" lon="152.9210770">
<ele>41.092</ele>
<time>2017-10-25T00:05:11.429Z</time>
</trkpt>
<trkpt lat="-26.9253455" lon="152.9215232">
<ele>41.589</ele>
<time>2017-10-25T00:05:14.271Z</time>
</trkpt>
<trkpt lat="-26.9248434" lon="152.9218582">
<ele>41.259</ele>
<time>2017-10-25T00:05:17.085Z</time>
</trkpt>
<trkpt lat="-26.9242223" lon="152.9221248">
<ele>39.904</ele>
<time>2017-10-25T00:05:20.282Z</time>
</trkpt>
<trkpt lat="-26.9235987" lon="152.9223332">
<ele>37.986</ele>
<time>2017-10-25T00:05:23.229Z</time>
</trkpt>
<trkpt lat="-26.9229940" lon="152.9224897">
<ele>36.197</ele>
<time>2017-10-25T00:05:26.119Z</time>
</trkpt>
<trkpt lat="-26.9224648" lon="152.9226166">
<ele>34.766</ele>
<time>2017-10-25T00:05:28.856Z</time>
</trkpt>
<trkpt lat="-26.9218528" lon="152.9225293">
<ele>33.587</ele>
<time>2017-10-25T00:05:32.045Z</time>
</trkpt>
<trkpt lat="-26.9212722" lon="152.9223960">
<ele>32.903</ele>
<time>2017-10-25T00:05:35.066Z</time>
</trkpt>
<trkpt lat="-26.9207096" lon="152.9222585">
<ele>33.220</ele>
<time>2017-10-25T00:05:38.091Z</time>
</trkpt>
<trkpt lat="-26.9201387" lon="152.9222806">
<ele>34.433</ele>
<time>2017-10-25T00:05:41.098Z</time>
</trkpt>
<trkpt lat="-26.9195477" lon="152.9224857">
<ele>35.696</ele>
<time>2017-10-25T00:05:44.201Z</time>
</trkpt>
<trkpt lat="-26.9189766" lon="152.9226280">
<ele>35.959</ele>
<time>2017-10-25T00:05:47.079Z</time>
</trkpt>
<trkpt lat="-26.9183795" lon="152.9226763">
<ele>35.051</ele>
<time>2017-10-25T00:05:50.060Z</time>
</trkpt>
<trkpt lat="-26.9177617" lon="152.9226497">
<ele>33.852</ele>
<time>2017-10-25T00:05:53.143Z</time>
</trkpt>
<trkpt lat="-26.9171614" lon="152.9226632">
<ele>33.405</ele>
<time>2017-10-25T00:05:56.190Z</time>
</trkpt>
<trkpt lat="-26.9166367" lon="152.9226510">
<ele>34.078</ele>
<time>2017-10-25T00:05:58.976Z</time>
</trkpt>
<trkpt lat="-26.9161437" lon="152.9226960">
<ele>35.396</ele>
<time>2017-10-25T00:06:01.793Z</time>
</trkpt>
<trkpt lat="-26.9157056" lon="152.9227452">
<ele>36.527</ele>
<time>2017-10-25T00:06:04.512Z</time>
</trkpt>
<trkpt lat="-26.9153025" lon="152.9227164">
<ele>37.160</ele>
<time>2017-10-25T00:06:07.255Z</time>
</trkpt>
<trkpt lat="-26.9149121" lon="152.9227523">
<ele>37.793</ele>
<time>2017-10-25T00:06:10.141Z</time>
</trkpt>
<trkpt lat="-26.9145182" lon="152.9227563">
<ele>39.067</ele>
<time>2017-10-25T00:06:13.141Z</time>
</trkpt>
<trkpt lat="-26.9141249" lon="152.9227719">
<ele>40.713</ele>
<time>2017-10-25T00:06:16.115Z</time>
</trkpt>
<trkpt lat="-26.9137807" lon="152.9228758">
<ele>41.947</ele>
<time>2017-10-25T00:06:18.838Z</time>
</trkpt>
<trkpt lat="-26.9133439" lon="152.9229438">
<ele>42.784</ele>
<time>2017-10-25T00:06:22.193Z</time>
</trkpt>
<trkpt lat="-26.9128483" lon="152.9230539">
<ele>43.532</ele>
<time>2017-10-25T00:06:25.634Z</time>
</trkpt>
<trkpt lat="-26.9123452" lon="152.9231627">
<ele>43.848</ele>
<time>2017-10-25T00:06:28.768Z</time>
</trkpt>
<trkpt lat="-26.9118932" lon="152.9232935">
<ele>43.250</ele>
<time>2017-10-25T00:06:31.625Z</time>
</trkpt>
<trkpt lat="-26.9114449" lon="152.9234487">
<ele>41.969</ele>
<time>2017-10-25T00:06:34.519Z</time>
</trkpt>
<trkpt lat="-26.9109825" lon="152.9235651">
<ele>40.752</ele>
<time>2017-10-25T00:06:37.462Z</time>
</trkpt>
<trkpt lat="-26.9105323" lon="152.9236402">
<ele>40.105</ele>
<time>2017-10-25T00:06:40.396Z</time>
</trkpt>
<trkpt lat="-26.9100905" lon="152.9237517">
<ele>39.997</ele>
<time>2017-10-25T00:06:43.386Z</time>
</trkpt>
<trkpt lat="-26.9096395" lon="152.9238669">
<ele>40.323</ele>
<time>2017-10-25T00:06:46.407Z</time>
</trkpt>
<trkpt lat="-26.9091443" lon="152.9239120">
<ele>41.196</ele>
<time>2017-10-25T00:06:49.525Z</time>
</trkpt>
<trkpt lat="-26.9086195" lon="152.9239550">
<ele>42.381</ele>
<time>2017-10-25T00:06:52.629Z</time>
</trkpt>
<trkpt lat="-26.9080319" lon="152.9239413">
<ele>43.141</ele>
<time>2017-10-25T00:06:55.863Z</time>
</trkpt>
<trkpt lat="-26.9074771" lon="152.9239541">
<ele>42.745</ele>
<time>2017-10-25T00:06:58.774Z</time>
</trkpt>
<trkpt lat="-26.9069787" lon="152.9240075">
<ele>41.168</ele>
<time>2017-10-25T00:07:01.483Z</time>
</trkpt>
<trkpt lat="-26.9064716" lon="152.9240203">
<ele>39.351</ele>
<time>2017-10-25T00:07:04.404Z</time>
</trkpt>
<trkpt lat="-26.9059316" lon="152.9240080">
<ele>38.468</ele>
<time>2017-10-25T00:07:07.578Z</time>
</trkpt>
<trkpt lat="-26.9053421" lon="152.9239707">
<ele>38.714</ele>
<time>2017-10-25T00:07:10.823Z</time>
</trkpt>
<trkpt lat="-26.9047414" lon="152.9239117">
<ele>39.002</ele>
<time>2017-10-25T00:07:13.884Z</time>
</trkpt>
<trkpt lat="-26.9041355" lon="152.9238916">
<ele>38.482</ele>
<time>2017-10-25T00:07:16.901Z</time>
</trkpt>
<trkpt lat="-26.9035436" lon="152.9238745">
<ele>37.782</ele>
<time>2017-10-25T00:07:19.893Z</time>
</trkpt>
<trkpt lat="-26.9029646" lon="152.9238540">
<ele>37.933</ele>
<time>2017-10-25T00:07:22.857Z</time>
</trkpt>
<trkpt lat="-26.9023876" lon="152.9237983">
<ele>39.525</ele>
<time>2017-10-25T00:07:25.857Z</time>
</trkpt>
<trkpt lat="-26.9018815" lon="152.9237741">
<ele>42.909</ele>
<time>2017-10-25T00:07:28.622Z</time>
</trkpt>
<trkpt lat="-26.9014447" lon="152.9237662">
<ele>47.723</ele>
<time>2017-10-25T00:07:31.233Z</time>
</trkpt>
<trkpt lat="-26.9009544" lon="152.9237258">
<ele>52.847</ele>
<time>2017-10-25T00:07:34.304Z</time>
</trkpt>
<trkpt lat="-26.9005162" lon="152.9234319">
<ele>56.891</ele>
<time>2017-10-25T00:07:37.408Z</time>
</trkpt>
<trkpt lat="-26.9001277" lon="152.9230551">
<ele>58.935</ele>
<time>2017-10-25T00:07:40.441Z</time>
</trkpt>
<trkpt lat="-26.8997044" lon="152.9227600">
<ele>59.021</ele>
<time>2017-10-25T00:07:43.376Z</time>
</trkpt>
<trkpt lat="-26.8992216" lon="152.9225239">
<ele>57.559</ele>
<time>2017-10-25T00:07:46.455Z</time>
</trkpt>
<trkpt lat="-26.8987287" lon="152.9222946">
<ele>55.276</ele>
<time>2017-10-25T00:07:49.492Z</time>
</trkpt>
<trkpt lat="-26.8982462" lon="152.9220050">
<ele>53.426</ele>
<time>2017-10-25T00:07:52.527Z</time>
</trkpt>
<trkpt lat="-26.8978545" lon="152.9215470">
<ele>52.871</ele>
<time>2017-10-25T00:07:55.593Z</time>
</trkpt>
<trkpt lat="-26.8975336" lon="152.9210683">
<ele>53.577</ele>
<time>2017-10-25T00:07:58.483Z</time>
</trkpt>
<trkpt lat="-26.8972769" lon="152.9206242">
<ele>55.199</ele>
<time>2017-10-25T00:08:01.163Z</time>
</trkpt>
<trkpt lat="-26.8970917" lon="152.9201324">
<ele>57.419</ele>
<time>2017-10-25T00:08:04.013Z</time>
</trkpt>
<trkpt lat="-26.8968065" lon="152.9196614">
<ele>59.613</ele>
<time>2017-10-25T00:08:07.123Z</time>
</trkpt>
<trkpt lat="-26.8963271" lon="152.9194184">
<ele>60.925</ele>
<time>2017-10-25T00:08:10.279Z</time>
</trkpt>
<trkpt lat="-26.8958128" lon="152.9191500">
<ele>60.974</ele>
<time>2017-10-25T00:08:13.499Z</time>
</trkpt>
<trkpt lat="-26.8953086" lon="152.9187556">
<ele>59.995</ele>
<time>2017-10-25T00:08:16.771Z</time>
</trkpt>
<trkpt lat="-26.8948570" lon="152.9183695">
<ele>58.706</ele>
<time>2017-10-25T00:08:19.727Z</time>
</trkpt>
<trkpt lat="-26.8944308" lon="152.9180213">
<ele>57.865</ele>
<time>2017-10-25T00:08:22.549Z</time>
</trkpt>
<trkpt lat="-26.8939937" lon="152.9176684">
<ele>57.717</ele>
<time>2017-10-25T00:08:25.491Z</time>
</trkpt>
<trkpt lat="-26.8935584" lon="152.9172853">
<ele>58.032</ele>
<time>2017-10-25T00:08:28.527Z</time>
</trkpt>
<trkpt lat="-26.8931131" lon="152.9169606">
<ele>58.111</ele>
<time>2017-10-25T00:08:31.465Z</time>
</trkpt>
<trkpt lat="-26.8925984" lon="152.9166713">
<ele>57.382</ele>
<time>2017-10-25T00:08:34.633Z</time>
</trkpt>
<trkpt lat="-26.8920943" lon="152.9163703">
<ele>56.236</ele>
<time>2017-10-25T00:08:37.700Z</time>
</trkpt>
<trkpt lat="-26.8915594" lon="152.9161237">
<ele>55.446</ele>
<time>2017-10-25T00:08:40.785Z</time>
</trkpt>
<trkpt lat="-26.8910716" lon="152.9158475">
<ele>55.207</ele>
<time>2017-10-25T00:08:43.712Z</time>
</trkpt>
<trkpt lat="-26.8905950" lon="152.9156041">
<ele>55.003</ele>
<time>2017-10-25T00:08:46.596Z</time>
</trkpt>
<trkpt lat="-26.8901782" lon="152.9153931">
<ele>54.427</ele>
<time>2017-10-25T00:08:49.354Z</time>
</trkpt>
<trkpt lat="-26.8897572" lon="152.9152046">
<ele>53.781</ele>
<time>2017-10-25T00:08:52.290Z</time>
</trkpt>
<trkpt lat="-26.8893131" lon="152.9149689">
<ele>53.378</ele>
<time>2017-10-25T00:08:55.446Z</time>
</trkpt>
<trkpt lat="-26.8887781" lon="152.9149332">
<ele>53.000</ele>
<time>2017-10-25T00:08:58.767Z</time>
</trkpt>
<trkpt lat="-26.8883098" lon="152.9151633">
<ele>52.534</ele>
<time>2017-10-25T00:09:01.855Z</time>
</trkpt>
<trkpt lat="-26.8878528" lon="152.9154604">
<ele>52.525</ele>
<time>2017-10-25T00:09:04.955Z</time>
</trkpt>
<trkpt lat="-26.8873799" lon="152.9157534">
<ele>53.603</ele>
<time>2017-10-25T00:09:08.036Z</time>
</trkpt>
<trkpt lat="-26.8868707" lon="152.9160044">
<ele>55.437</ele>
<time>2017-10-25T00:09:11.103Z</time>
</trkpt>
<trkpt lat="-26.8863099" lon="152.9161646">
<ele>57.024</ele>
<time>2017-10-25T00:09:14.173Z</time>
</trkpt>
<trkpt lat="-26.8857633" lon="152.9163295">
<ele>57.367</ele>
<time>2017-10-25T00:09:17.150Z</time>
</trkpt>
<trkpt lat="-26.8852354" lon="152.9164931">
<ele>56.034</ele>
<time>2017-10-25T00:09:20.073Z</time>
</trkpt>
<trkpt lat="-26.8846829" lon="152.9166701">
<ele>53.657</ele>
<time>2017-10-25T00:09:23.134Z</time>
</trkpt>
<trkpt lat="-26.8841451" lon="152.9167883">
<ele>51.140</ele>
<time>2017-10-25T00:09:26.067Z</time>
</trkpt>
<trkpt lat="-26.8835931" lon="152.9168464">
<ele>48.794</ele>
<time>2017-10-25T00:09:29.078Z</time>
</trkpt>
<trkpt lat="-26.8830200" lon="152.9169246">
<ele>46.685</ele>
<time>2017-10-25T00:09:32.104Z</time>
</trkpt>
<trkpt lat="-26.8826467" lon="152.9169781">
<ele>44.914</ele>
<time>2017-10-25T00:09:34.021Z</time>
</trkpt>
<trkpt lat="-26.8822718" lon="152.9169632">
<ele>43.682</ele>
<time>2017-10-25T00:09:35.956Z</time>
</trkpt>
<trkpt lat="-26.8818909" lon="152.9169484">
<ele>43.329</ele>
<time>2017-10-25T00:09:37.945Z</time>
</trkpt>
<trkpt lat="-26.8815026" lon="152.9169786">
<ele>43.832</ele>
<time>2017-10-25T00:09:39.987Z</time>
</trkpt>
<trkpt lat="-26.8811778" lon="152.9170500">
<ele>44.722</ele>
<time>2017-10-25T00:09:41.826Z</time>
</trkpt>
<trkpt lat="-26.8809042" lon="152.9171757">
<ele>45.812</ele>
<time>2017-10-25T00:09:43.634Z</time>
</trkpt>
<trkpt lat="-26.8806377" lon="152.9173196">
<ele>47.118</ele>
<time>2017-10-25T00:09:45.542Z</time>
</trkpt>
<trkpt lat="-26.8803787" lon="152.9174590">
<ele>48.308</ele>
<time>2017-10-25T00:09:47.417Z</time>
</trkpt>
<trkpt lat="-26.8801260" lon="152.9175780">
<ele>49.182</ele>
<time>2017-10-25T00:09:49.236Z</time>
</trkpt>
<trkpt lat="-26.8798851" lon="152.9177372">
<ele>49.918</ele>
<time>2017-10-25T00:09:51.125Z</time>
</trkpt>
<trkpt lat="-26.8793715" lon="152.9180196">
<ele>50.679</ele>
<time>2017-10-25T00:09:54.772Z</time>
</trkpt>
<trkpt lat="-26.8788297" lon="152.9183187">
<ele>51.372</ele>
<time>2017-10-25T00:09:58.155Z</time>
</trkpt>
<trkpt lat="-26.8782894" lon="152.9185119">
<ele>51.375</ele>
<time>2017-10-25T00:10:01.165Z</time>
</trkpt>
<trkpt lat="-26.8777246" lon="152.9185766">
<ele>50.152</ele>
<time>2017-10-25T00:10:04.249Z</time>
</trkpt>
<trkpt lat="-26.8772153" lon="152.9186634">
<ele>48.348</ele>
<time>2017-10-25T00:10:07.205Z</time>
</trkpt>
<trkpt lat="-26.8767467" lon="152.9187284">
<ele>47.081</ele>
<time>2017-10-25T00:10:10.045Z</time>
</trkpt>
<trkpt lat="-26.8762463" lon="152.9188040">
<ele>46.626</ele>
<time>2017-10-25T00:10:13.119Z</time>
</trkpt>
<trkpt lat="-26.8757693" lon="152.9188606">
<ele>46.468</ele>
<time>2017-10-25T00:10:16.033Z</time>
</trkpt>
<trkpt lat="-26.8753578" lon="152.9190117">
<ele>46.112</ele>
<time>2017-10-25T00:10:18.815Z</time>
</trkpt>
<trkpt lat="-26.8749857" lon="152.9193147">
<ele>45.429</ele>
<time>2017-10-25T00:10:21.984Z</time>
</trkpt>
<trkpt lat="-26.8746529" lon="152.9196572">
<ele>43.994</ele>
<time>2017-10-25T00:10:25.036Z</time>
</trkpt>
<trkpt lat="-26.8743265" lon="152.9200311">
<ele>40.974</ele>
<time>2017-10-25T00:10:28.027Z</time>
</trkpt>
<trkpt lat="-26.8740114" lon="152.9204109">
<ele>36.381</ele>
<time>2017-10-25T00:10:30.978Z</time>
</trkpt>
<trkpt lat="-26.8736659" lon="152.9207816">
<ele>31.473</ele>
<time>2017-10-25T00:10:34.053Z</time>
</trkpt>
<trkpt lat="-26.8733510" lon="152.9211852">
<ele>27.805</ele>
<time>2017-10-25T00:10:37.117Z</time>
</trkpt>
<trkpt lat="-26.8730658" lon="152.9215983">
<ele>26.171</ele>
<time>2017-10-25T00:10:40.073Z</time>
</trkpt>
<trkpt lat="-26.8727801" lon="152.9220248">
<ele>26.136</ele>
<time>2017-10-25T00:10:43.088Z</time>
</trkpt>
<trkpt lat="-26.8724802" lon="152.9224082">
<ele>26.637</ele>
<time>2017-10-25T00:10:46.052Z</time>
</trkpt>
<trkpt lat="-26.8722842" lon="152.9227480">
<ele>26.991</ele>
<time>2017-10-25T00:10:48.626Z</time>
</trkpt>
<trkpt lat="-26.8720254" lon="152.9231160">
<ele>27.516</ele>
<time>2017-10-25T00:10:51.778Z</time>
</trkpt>
<trkpt lat="-26.8717723" lon="152.9234725">
<ele>28.780</ele>
<time>2017-10-25T00:10:54.904Z</time>
</trkpt>
<trkpt lat="-26.8715609" lon="152.9237550">
<ele>30.362</ele>
<time>2017-10-25T00:10:57.591Z</time>
</trkpt>
<trkpt lat="-26.8712579" lon="152.9238835">
<ele>31.605</ele>
<time>2017-10-25T00:11:00.280Z</time>
</trkpt>
<trkpt lat="-26.8707761" lon="152.9238011">
<ele>32.635</ele>
<time>2017-10-25T00:11:04.023Z</time>
</trkpt>
<trkpt lat="-26.8703299" lon="152.9235987">
<ele>33.710</ele>
<time>2017-10-25T00:11:07.261Z</time>
</trkpt>
<trkpt lat="-26.8698230" lon="152.9236117">
<ele>34.905</ele>
<time>2017-10-25T00:11:10.401Z</time>
</trkpt>
<trkpt lat="-26.8693142" lon="152.9237473">
<ele>36.235</ele>
<time>2017-10-25T00:11:13.526Z</time>
</trkpt>
<trkpt lat="-26.8688205" lon="152.9238038">
<ele>37.632</ele>
<time>2017-10-25T00:11:16.610Z</time>
</trkpt>
<trkpt lat="-26.8683855" lon="152.9239142">
<ele>39.255</ele>
<time>2017-10-25T00:11:19.512Z</time>
</trkpt>
<trkpt lat="-26.8679213" lon="152.9239240">
<ele>41.027</ele>
<time>2017-10-25T00:11:22.472Z</time>
</trkpt>
<trkpt lat="-26.8674407" lon="152.9240007">
<ele>42.310</ele>
<time>2017-10-25T00:11:25.519Z</time>
</trkpt>
<trkpt lat="-26.8670204" lon="152.9240876">
<ele>42.663</ele>
<time>2017-10-25T00:11:28.340Z</time>
</trkpt>
<trkpt lat="-26.8665772" lon="152.9241719">
<ele>42.086</ele>
<time>2017-10-25T00:11:31.365Z</time>
</trkpt>
<trkpt lat="-26.8660798" lon="152.9242294">
<ele>40.721</ele>
<time>2017-10-25T00:11:34.543Z</time>
</trkpt>
<trkpt lat="-26.8656257" lon="152.9243987">
<ele>39.170</ele>
<time>2017-10-25T00:11:37.485Z</time>
</trkpt>
<trkpt lat="-26.8651922" lon="152.9245724">
<ele>38.334</ele>
<time>2017-10-25T00:11:40.405Z</time>
</trkpt>
<trkpt lat="-26.8648285" lon="152.9248496">
<ele>39.098</ele>
<time>2017-10-25T00:11:43.340Z</time>
</trkpt>
<trkpt lat="-26.8644340" lon="152.9252039">
<ele>41.372</ele>
<time>2017-10-25T00:11:46.505Z</time>
</trkpt>
<trkpt lat="-26.8640821" lon="152.9257073">
<ele>43.724</ele>
<time>2017-10-25T00:11:49.719Z</time>
</trkpt>
<trkpt lat="-26.8637661" lon="152.9261822">
<ele>44.829</ele>
<time>2017-10-25T00:11:52.580Z</time>
</trkpt>
<trkpt lat="-26.8634588" lon="152.9267652">
<ele>44.730</ele>
<time>2017-10-25T00:11:55.765Z</time>
</trkpt>
<trkpt lat="-26.8630860" lon="152.9272891">
<ele>44.196</ele>
<time>2017-10-25T00:11:58.870Z</time>
</trkpt>
<trkpt lat="-26.8627194" lon="152.9277010">
<ele>43.850</ele>
<time>2017-10-25T00:12:01.714Z</time>
</trkpt>
<trkpt lat="-26.8624429" lon="152.9280226">
<ele>43.796</ele>
<time>2017-10-25T00:12:04.188Z</time>
</trkpt>
<trkpt lat="-26.8622346" lon="152.9283168">
<ele>43.523</ele>
<time>2017-10-25T00:12:06.728Z</time>
</trkpt>
<trkpt lat="-26.8619840" lon="152.9286622">
<ele>42.451</ele>
<time>2017-10-25T00:12:09.852Z</time>
</trkpt>
<trkpt lat="-26.8616749" lon="152.9290941">
<ele>40.904</ele>
<time>2017-10-25T00:12:13.249Z</time>
</trkpt>
<trkpt lat="-26.8613943" lon="152.9295345">
<ele>39.481</ele>
<time>2017-10-25T00:12:16.282Z</time>
</trkpt>
<trkpt lat="-26.8610868" lon="152.9299802">
<ele>38.337</ele>
<time>2017-10-25T00:12:19.335Z</time>
</trkpt>
<trkpt lat="-26.8606695" lon="152.9302114">
<ele>37.616</ele>
<time>2017-10-25T00:12:22.184Z</time>
</trkpt>
<trkpt lat="-26.8602327" lon="152.9303625">
<ele>37.628</ele>
<time>2017-10-25T00:12:25.200Z</time>
</trkpt>
<trkpt lat="-26.8598750" lon="152.9305052">
<ele>38.333</ele>
<time>2017-10-25T00:12:27.901Z</time>
</trkpt>
<trkpt lat="-26.8594977" lon="152.9307754">
<ele>39.172</ele>
<time>2017-10-25T00:12:31.133Z</time>
</trkpt>
<trkpt lat="-26.8592636" lon="152.9312556">
<ele>39.477</ele>
<time>2017-10-25T00:12:34.474Z</time>
</trkpt>
<trkpt lat="-26.8591495" lon="152.9317458">
<ele>39.109</ele>
<time>2017-10-25T00:12:37.451Z</time>
</trkpt>
<trkpt lat="-26.8589606" lon="152.9322171">
<ele>38.292</ele>
<time>2017-10-25T00:12:40.474Z</time>
</trkpt>
<trkpt lat="-26.8588007" lon="152.9327066">
<ele>37.160</ele>
<time>2017-10-25T00:12:43.515Z</time>
</trkpt>
<trkpt lat="-26.8586124" lon="152.9331457">
<ele>35.941</ele>
<time>2017-10-25T00:12:46.424Z</time>
</trkpt>
<trkpt lat="-26.8584197" lon="152.9335913">
<ele>35.149</ele>
<time>2017-10-25T00:12:49.487Z</time>
</trkpt>
<trkpt lat="-26.8582321" lon="152.9339837">
<ele>34.980</ele>
<time>2017-10-25T00:12:52.324Z</time>
</trkpt>
<trkpt lat="-26.8580922" lon="152.9344703">
<ele>35.126</ele>
<time>2017-10-25T00:12:55.491Z</time>
</trkpt>
<trkpt lat="-26.8579236" lon="152.9349830">
<ele>34.993</ele>
<time>2017-10-25T00:12:58.640Z</time>
</trkpt>
<trkpt lat="-26.8578297" lon="152.9354867">
<ele>34.194</ele>
<time>2017-10-25T00:13:01.606Z</time>
</trkpt>
<trkpt lat="-26.8577300" lon="152.9359542">
<ele>32.949</ele>
<time>2017-10-25T00:13:04.443Z</time>
</trkpt>
<trkpt lat="-26.8576531" lon="152.9364460">
<ele>31.601</ele>
<time>2017-10-25T00:13:07.427Z</time>
</trkpt>
<trkpt lat="-26.8576140" lon="152.9369391">
<ele>30.206</ele>
<time>2017-10-25T00:13:10.411Z</time>
</trkpt>
<trkpt lat="-26.8575957" lon="152.9374005">
<ele>28.802</ele>
<time>2017-10-25T00:13:13.204Z</time>
</trkpt>
<trkpt lat="-26.8575612" lon="152.9378584">
<ele>27.419</ele>
<time>2017-10-25T00:13:16.098Z</time>
</trkpt>
<trkpt lat="-26.8573787" lon="152.9382876">
<ele>26.016</ele>
<time>2017-10-25T00:13:19.263Z</time>
</trkpt>
<trkpt lat="-26.8571103" lon="152.9385346">
<ele>24.499</ele>
<time>2017-10-25T00:13:22.038Z</time>
</trkpt>
<trkpt lat="-26.8569038" lon="152.9387417">
<ele>22.942</ele>
<time>2017-10-25T00:13:24.746Z</time>
</trkpt>
<trkpt lat="-26.8567432" lon="152.9388412">
<ele>21.479</ele>
<time>2017-10-25T00:13:27.067Z</time>
</trkpt>
<trkpt lat="-26.8566153" lon="152.9388857">
<ele>20.085</ele>
<time>2017-10-25T00:13:29.107Z</time>
</trkpt>
<trkpt lat="-26.8565251" lon="152.9389197">
<ele>18.613</ele>
<time>2017-10-25T00:13:30.784Z</time>
</trkpt>
<trkpt lat="-26.8563588" lon="152.9390372">
<ele>17.082</ele>
<time>2017-10-25T00:13:35.467Z</time>
</trkpt>
<trkpt lat="-26.8559209" lon="152.9392779">
<ele>15.819</ele>
<time>2017-10-25T00:13:40.746Z</time>
</trkpt>
<trkpt lat="-26.8555100" lon="152.9395419">
<ele>15.576</ele>
<time>2017-10-25T00:13:43.817Z</time>
</trkpt>
<trkpt lat="-26.8550605" lon="152.9397598">
<ele>17.021</ele>
<time>2017-10-25T00:13:46.849Z</time>
</trkpt>
<trkpt lat="-26.8545847" lon="152.9397617">
<ele>20.308</ele>
<time>2017-10-25T00:13:49.868Z</time>
</trkpt>
<trkpt lat="-26.8541385" lon="152.9396833">
<ele>24.571</ele>
<time>2017-10-25T00:13:52.799Z</time>
</trkpt>
<trkpt lat="-26.8537255" lon="152.9395547">
<ele>28.108</ele>
<time>2017-10-25T00:13:55.696Z</time>
</trkpt>
<trkpt lat="-26.8532735" lon="152.9394128">
<ele>29.549</ele>
<time>2017-10-25T00:13:58.927Z</time>
</trkpt>
<trkpt lat="-26.8528404" lon="152.9392144">
<ele>29.111</ele>
<time>2017-10-25T00:14:02.097Z</time>
</trkpt>
<trkpt lat="-26.8524374" lon="152.9390644">
<ele>28.321</ele>
<time>2017-10-25T00:14:04.956Z</time>
</trkpt>
<trkpt lat="-26.8519641" lon="152.9390404">
<ele>28.322</ele>
<time>2017-10-25T00:14:08.038Z</time>
</trkpt>
<trkpt lat="-26.8514393" lon="152.9391068">
<ele>29.009</ele>
<time>2017-10-25T00:14:11.299Z</time>
</trkpt>
<trkpt lat="-26.8509507" lon="152.9391244">
<ele>30.301</ele>
<time>2017-10-25T00:14:14.292Z</time>
</trkpt>
<trkpt lat="-26.8504817" lon="152.9390548">
<ele>32.283</ele>
<time>2017-10-25T00:14:17.233Z</time>
</trkpt>
<trkpt lat="-26.8499820" lon="152.9389810">
<ele>34.270</ele>
<time>2017-10-25T00:14:20.344Z</time>
</trkpt>
<trkpt lat="-26.8494742" lon="152.9388892">
<ele>35.440</ele>
<time>2017-10-25T00:14:23.431Z</time>
</trkpt>
<trkpt lat="-26.8489778" lon="152.9387815">
<ele>35.685</ele>
<time>2017-10-25T00:14:26.394Z</time>
</trkpt>
<trkpt lat="-26.8484542" lon="152.9386553">
<ele>35.334</ele>
<time>2017-10-25T00:14:29.516Z</time>
</trkpt>
<trkpt lat="-26.8479480" lon="152.9385957">
<ele>34.856</ele>
<time>2017-10-25T00:14:32.530Z</time>
</trkpt>
<trkpt lat="-26.8474635" lon="152.9385475">
<ele>34.594</ele>
<time>2017-10-25T00:14:35.514Z</time>
</trkpt>
<trkpt lat="-26.8470145" lon="152.9385238">
<ele>34.703</ele>
<time>2017-10-25T00:14:38.404Z</time>
</trkpt>
<trkpt lat="-26.8465814" lon="152.9385741">
<ele>35.137</ele>
<time>2017-10-25T00:14:41.260Z</time>
</trkpt>
<trkpt lat="-26.8461027" lon="152.9385900">
<ele>35.558</ele>
<time>2017-10-25T00:14:44.361Z</time>
</trkpt>
<trkpt lat="-26.8456398" lon="152.9386608">
<ele>35.643</ele>
<time>2017-10-25T00:14:47.411Z</time>
</trkpt>
<trkpt lat="-26.8452277" lon="152.9387588">
<ele>35.380</ele>
<time>2017-10-25T00:14:50.230Z</time>
</trkpt>
<trkpt lat="-26.8447524" lon="152.9387681">
<ele>34.866</ele>
<time>2017-10-25T00:14:53.352Z</time>
</trkpt>
<trkpt lat="-26.8442431" lon="152.9387919">
<ele>34.256</ele>
<time>2017-10-25T00:14:56.426Z</time>
</trkpt>
<trkpt lat="-26.8436644" lon="152.9388069">
<ele>33.518</ele>
<time>2017-10-25T00:14:59.621Z</time>
</trkpt>
<trkpt lat="-26.8431123" lon="152.9387761">
<ele>32.627</ele>
<time>2017-10-25T00:15:02.549Z</time>
</trkpt>
<trkpt lat="-26.8425293" lon="152.9386521">
<ele>32.155</ele>
<time>2017-10-25T00:15:05.662Z</time>
</trkpt>
<trkpt lat="-26.8419788" lon="152.9385165">
<ele>32.510</ele>
<time>2017-10-25T00:15:08.665Z</time>
</trkpt>
<trkpt lat="-26.8414599" lon="152.9384231">
<ele>33.159</ele>
<time>2017-10-25T00:15:11.568Z</time>
</trkpt>
<trkpt lat="-26.8409342" lon="152.9384630">
<ele>33.720</ele>
<time>2017-10-25T00:15:14.515Z</time>
</trkpt>
<trkpt lat="-26.8404061" lon="152.9385647">
<ele>34.428</ele>
<time>2017-10-25T00:15:17.514Z</time>
</trkpt>
<trkpt lat="-26.8398910" lon="152.9386332">
<ele>35.411</ele>
<time>2017-10-25T00:15:20.542Z</time>
</trkpt>
<trkpt lat="-26.8394395" lon="152.9387582">
<ele>36.548</ele>
<time>2017-10-25T00:15:23.446Z</time>
</trkpt>
<trkpt lat="-26.8389939" lon="152.9388144">
<ele>37.933</ele>
<time>2017-10-25T00:15:26.396Z</time>
</trkpt>
<trkpt lat="-26.8385471" lon="152.9388506">
<ele>39.762</ele>
<time>2017-10-25T00:15:29.373Z</time>
</trkpt>
<trkpt lat="-26.8380882" lon="152.9388339">
<ele>41.808</ele>
<time>2017-10-25T00:15:32.292Z</time>
</trkpt>
<trkpt lat="-26.8375811" lon="152.9388854">
<ele>43.460</ele>
<time>2017-10-25T00:15:35.355Z</time>
</trkpt>
<trkpt lat="-26.8370993" lon="152.9390626">
<ele>44.459</ele>
<time>2017-10-25T00:15:38.307Z</time>
</trkpt>
<trkpt lat="-26.8365658" lon="152.9391523">
<ele>44.997</ele>
<time>2017-10-25T00:15:41.379Z</time>
</trkpt>
<trkpt lat="-26.8360502" lon="152.9392335">
<ele>45.274</ele>
<time>2017-10-25T00:15:44.365Z</time>
</trkpt>
<trkpt lat="-26.8355817" lon="152.9393648">
<ele>45.600</ele>
<time>2017-10-25T00:15:47.243Z</time>
</trkpt>
<trkpt lat="-26.8351291" lon="152.9396142">
<ele>46.423</ele>
<time>2017-10-25T00:15:50.300Z</time>
</trkpt>
<trkpt lat="-26.8348153" lon="152.9400637">
<ele>47.742</ele>
<time>2017-10-25T00:15:53.342Z</time>
</trkpt>
<trkpt lat="-26.8345073" lon="152.9404993">
<ele>49.232</ele>
<time>2017-10-25T00:15:56.302Z</time>
</trkpt>
<trkpt lat="-26.8342143" lon="152.9409266">
<ele>50.644</ele>
<time>2017-10-25T00:15:59.249Z</time>
</trkpt>
<trkpt lat="-26.8339036" lon="152.9413094">
<ele>51.912</ele>
<time>2017-10-25T00:16:02.178Z</time>
</trkpt>
<trkpt lat="-26.8336890" lon="152.9417760">
<ele>52.979</ele>
<time>2017-10-25T00:16:05.162Z</time>
</trkpt>
<trkpt lat="-26.8334469" lon="152.9422786">
<ele>53.248</ele>
<time>2017-10-25T00:16:08.303Z</time>
</trkpt>
<trkpt lat="-26.8331814" lon="152.9427317">
<ele>51.533</ele>
<time>2017-10-25T00:16:11.264Z</time>
</trkpt>
<trkpt lat="-26.8330866" lon="152.9432738">
<ele>47.450</ele>
<time>2017-10-25T00:16:14.316Z</time>
</trkpt>
<trkpt lat="-26.8328142" lon="152.9437566">
<ele>42.715</ele>
<time>2017-10-25T00:16:17.441Z</time>
</trkpt>
<trkpt lat="-26.8324577" lon="152.9441186">
<ele>39.787</ele>
<time>2017-10-25T00:16:20.336Z</time>
</trkpt>
<trkpt lat="-26.8320569" lon="152.9444900">
<ele>39.219</ele>
<time>2017-10-25T00:16:23.424Z</time>
</trkpt>
<trkpt lat="-26.8316785" lon="152.9448216">
<ele>39.767</ele>
<time>2017-10-25T00:16:26.326Z</time>
</trkpt>
<trkpt lat="-26.8312107" lon="152.9449739">
<ele>40.316</ele>
<time>2017-10-25T00:16:29.326Z</time>
</trkpt>
<trkpt lat="-26.8306793" lon="152.9450354">
<ele>40.953</ele>
<time>2017-10-25T00:16:32.583Z</time>
</trkpt>
<trkpt lat="-26.8302157" lon="152.9452414">
<ele>42.670</ele>
<time>2017-10-25T00:16:35.590Z</time>
</trkpt>
<trkpt lat="-26.8298179" lon="152.9456038">
<ele>45.731</ele>
<time>2017-10-25T00:16:38.670Z</time>
</trkpt>
<trkpt lat="-26.8295171" lon="152.9460208">
<ele>48.811</ele>
<time>2017-10-25T00:16:41.558Z</time>
</trkpt>
<trkpt lat="-26.8293684" lon="152.9463568">
<ele>50.442</ele>
<time>2017-10-25T00:16:43.641Z</time>
</trkpt>
<trkpt lat="-26.8293416" lon="152.9467500">
<ele>50.530</ele>
<time>2017-10-25T00:16:45.909Z</time>
</trkpt>
<trkpt lat="-26.8293248" lon="152.9471146">
<ele>49.981</ele>
<time>2017-10-25T00:16:48.005Z</time>
</trkpt>
<trkpt lat="-26.8292958" lon="152.9474704">
<ele>49.536</ele>
<time>2017-10-25T00:16:50.066Z</time>
</trkpt>
<trkpt lat="-26.8291829" lon="152.9477835">
<ele>49.386</ele>
<time>2017-10-25T00:16:52.020Z</time>
</trkpt>
<trkpt lat="-26.8289800" lon="152.9480601">
<ele>49.450</ele>
<time>2017-10-25T00:16:54.046Z</time>
</trkpt>
<trkpt lat="-26.8287485" lon="152.9483098">
<ele>49.825</ele>
<time>2017-10-25T00:16:56.109Z</time>
</trkpt>
<trkpt lat="-26.8285375" lon="152.9485458">
<ele>50.681</ele>
<time>2017-10-25T00:16:58.100Z</time>
</trkpt>
<trkpt lat="-26.8283108" lon="152.9487267">
<ele>51.690</ele>
<time>2017-10-25T00:16:59.923Z</time>
</trkpt>
<trkpt lat="-26.8278128" lon="152.9487689">
<ele>52.069</ele>
<time>2017-10-25T00:17:03.102Z</time>
</trkpt>
<trkpt lat="-26.8273133" lon="152.9486822">
<ele>51.165</ele>
<time>2017-10-25T00:17:06.249Z</time>
</trkpt>
<trkpt lat="-26.8267971" lon="152.9486124">
<ele>49.182</ele>
<time>2017-10-25T00:17:09.356Z</time>
</trkpt>
<trkpt lat="-26.8262805" lon="152.9486141">
<ele>47.179</ele>
<time>2017-10-25T00:17:12.310Z</time>
</trkpt>
<trkpt lat="-26.8257346" lon="152.9485859">
<ele>45.961</ele>
<time>2017-10-25T00:17:15.491Z</time>
</trkpt>
<trkpt lat="-26.8252471" lon="152.9484960">
<ele>45.631</ele>
<time>2017-10-25T00:17:18.612Z</time>
</trkpt>
<trkpt lat="-26.8248146" lon="152.9485092">
<ele>45.886</ele>
<time>2017-10-25T00:17:21.492Z</time>
</trkpt>
<trkpt lat="-26.8244844" lon="152.9488553">
<ele>46.093</ele>
<time>2017-10-25T00:17:24.505Z</time>
</trkpt>
<trkpt lat="-26.8241893" lon="152.9492352">
<ele>45.636</ele>
<time>2017-10-25T00:17:27.596Z</time>
</trkpt>
<trkpt lat="-26.8238021" lon="152.9494794">
<ele>44.526</ele>
<time>2017-10-25T00:17:30.697Z</time>
</trkpt>
<trkpt lat="-26.8234479" lon="152.9497457">
<ele>43.392</ele>
<time>2017-10-25T00:17:33.514Z</time>
</trkpt>
<trkpt lat="-26.8230567" lon="152.9500879">
<ele>43.173</ele>
<time>2017-10-25T00:17:36.539Z</time>
</trkpt>
<trkpt lat="-26.8226698" lon="152.9504595">
<ele>44.108</ele>
<time>2017-10-25T00:17:39.507Z</time>
</trkpt>
<trkpt lat="-26.8223114" lon="152.9508610">
<ele>45.199</ele>
<time>2017-10-25T00:17:42.455Z</time>
</trkpt>
<trkpt lat="-26.8219166" lon="152.9512182">
<ele>45.519</ele>
<time>2017-10-25T00:17:45.412Z</time>
</trkpt>
<trkpt lat="-26.8214498" lon="152.9514746">
<ele>44.849</ele>
<time>2017-10-25T00:17:48.445Z</time>
</trkpt>
<trkpt lat="-26.8209356" lon="152.9514584">
<ele>43.094</ele>
<time>2017-10-25T00:17:51.419Z</time>
</trkpt>
<trkpt lat="-26.8204576" lon="152.9511986">
<ele>40.846</ele>
<time>2017-10-25T00:17:54.500Z</time>
</trkpt>
<trkpt lat="-26.8199883" lon="152.9509704">
<ele>39.203</ele>
<time>2017-10-25T00:17:57.430Z</time>
</trkpt>
<trkpt lat="-26.8194652" lon="152.9507890">
<ele>38.703</ele>
<time>2017-10-25T00:18:00.546Z</time>
</trkpt>
<trkpt lat="-26.8189721" lon="152.9506194">
<ele>39.219</ele>
<time>2017-10-25T00:18:03.594Z</time>
</trkpt>
<trkpt lat="-26.8184675" lon="152.9505109">
<ele>40.409</ele>
<time>2017-10-25T00:18:06.706Z</time>
</trkpt>
<trkpt lat="-26.8179798" lon="152.9506507">
<ele>41.825</ele>
<time>2017-10-25T00:18:09.790Z</time>
</trkpt>
<trkpt lat="-26.8175504" lon="152.9508372">
<ele>43.049</ele>
<time>2017-10-25T00:18:12.613Z</time>
</trkpt>
<trkpt lat="-26.8171153" lon="152.9510652">
<ele>44.001</ele>
<time>2017-10-25T00:18:15.542Z</time>
</trkpt>
<trkpt lat="-26.8167406" lon="152.9513887">
<ele>44.948</ele>
<time>2017-10-25T00:18:18.395Z</time>
</trkpt>
<trkpt lat="-26.8162712" lon="152.9515869">
<ele>46.080</ele>
<time>2017-10-25T00:18:21.521Z</time>
</trkpt>
<trkpt lat="-26.8159403" lon="152.9519266">
<ele>47.194</ele>
<time>2017-10-25T00:18:24.433Z</time>
</trkpt>
<trkpt lat="-26.8157307" lon="152.9524057">
<ele>47.898</ele>
<time>2017-10-25T00:18:27.418Z</time>
</trkpt>
<trkpt lat="-26.8155483" lon="152.9529270">
<ele>48.330</ele>
<time>2017-10-25T00:18:30.325Z</time>
</trkpt>
<trkpt lat="-26.8152492" lon="152.9534562">
<ele>48.979</ele>
<time>2017-10-25T00:18:33.393Z</time>
</trkpt>
<trkpt lat="-26.8149656" lon="152.9539896">
<ele>49.779</ele>
<time>2017-10-25T00:18:36.471Z</time>
</trkpt>
<trkpt lat="-26.8146761" lon="152.9544278">
<ele>50.239</ele>
<time>2017-10-25T00:18:39.294Z</time>
</trkpt>
<trkpt lat="-26.8143423" lon="152.9548623">
<ele>49.953</ele>
<time>2017-10-25T00:18:42.325Z</time>
</trkpt>
<trkpt lat="-26.8139945" lon="152.9552909">
<ele>48.745</ele>
<time>2017-10-25T00:18:45.394Z</time>
</trkpt>
<trkpt lat="-26.8136694" lon="152.9557249">
<ele>46.795</ele>
<time>2017-10-25T00:18:48.378Z</time>
</trkpt>
<trkpt lat="-26.8132986" lon="152.9561151">
<ele>44.523</ele>
<time>2017-10-25T00:18:51.421Z</time>
</trkpt>
<trkpt lat="-26.8128788" lon="152.9564138">
<ele>42.437</ele>
<time>2017-10-25T00:18:54.458Z</time>
</trkpt>
<trkpt lat="-26.8124976" lon="152.9567086">
<ele>40.894</ele>
<time>2017-10-25T00:18:57.495Z</time>
</trkpt>
<trkpt lat="-26.8121807" lon="152.9569859">
<ele>39.947</ele>
<time>2017-10-25T00:19:00.542Z</time>
</trkpt>
<trkpt lat="-26.8118722" lon="152.9571785">
<ele>39.930</ele>
<time>2017-10-25T00:19:03.408Z</time>
</trkpt>
<trkpt lat="-26.8115337" lon="152.9574233">
<ele>41.021</ele>
<time>2017-10-25T00:19:06.386Z</time>
</trkpt>
<trkpt lat="-26.8111705" lon="152.9576812">
<ele>42.401</ele>
<time>2017-10-25T00:19:09.154Z</time>
</trkpt>
<trkpt lat="-26.8107102" lon="152.9579541">
<ele>43.207</ele>
<time>2017-10-25T00:19:12.267Z</time>
</trkpt>
<trkpt lat="-26.8102410" lon="152.9581222">
<ele>43.255</ele>
<time>2017-10-25T00:19:15.147Z</time>
</trkpt>
<trkpt lat="-26.8097692" lon="152.9583133">
<ele>42.764</ele>
<time>2017-10-25T00:19:18.076Z</time>
</trkpt>
<trkpt lat="-26.8093140" lon="152.9584867">
<ele>42.276</ele>
<time>2017-10-25T00:19:20.902Z</time>
</trkpt>
<trkpt lat="-26.8088518" lon="152.9587665">
<ele>42.151</ele>
<time>2017-10-25T00:19:23.939Z</time>
</trkpt>
<trkpt lat="-26.8083554" lon="152.9591352">
<ele>42.130</ele>
<time>2017-10-25T00:19:27.347Z</time>
</trkpt>
<trkpt lat="-26.8079922" lon="152.9595022">
<ele>41.457</ele>
<time>2017-10-25T00:19:30.269Z</time>
</trkpt>
<trkpt lat="-26.8075852" lon="152.9597793">
<ele>39.872</ele>
<time>2017-10-25T00:19:33.238Z</time>
</trkpt>
<trkpt lat="-26.8071319" lon="152.9599118">
<ele>37.947</ele>
<time>2017-10-25T00:19:36.314Z</time>
</trkpt>
<trkpt lat="-26.8066939" lon="152.9599777">
<ele>36.179</ele>
<time>2017-10-25T00:19:39.496Z</time>
</trkpt>
<trkpt lat="-26.8063247" lon="152.9600150">
<ele>34.729</ele>
<time>2017-10-25T00:19:42.775Z</time>
</trkpt>
<trkpt lat="-26.8060943" lon="152.9601068">
<ele>33.808</ele>
<time>2017-10-25T00:19:45.831Z</time>
</trkpt>
<trkpt lat="-26.8059462" lon="152.9601810">
<ele>33.457</ele>
<time>2017-10-25T00:19:48.210Z</time>
</trkpt>
<trkpt lat="-26.8057179" lon="152.9602260">
<ele>33.532</ele>
<time>2017-10-25T00:19:51.451Z</time>
</trkpt>
<trkpt lat="-26.8057201" lon="152.9604517">
<ele>33.903</ele>
<time>2017-10-25T00:19:53.721Z</time>
</trkpt>
<trkpt lat="-26.8058705" lon="152.9608065">
<ele>34.451</ele>
<time>2017-10-25T00:19:56.818Z</time>
</trkpt>
<trkpt lat="-26.8059722" lon="152.9612761">
<ele>34.986</ele>
<time>2017-10-25T00:19:59.887Z</time>
</trkpt>
<trkpt lat="-26.8060773" lon="152.9617800">
<ele>35.549</ele>
<time>2017-10-25T00:20:02.934Z</time>
</trkpt>
<trkpt lat="-26.8063618" lon="152.9621628">
<ele>36.273</ele>
<time>2017-10-25T00:20:05.959Z</time>
</trkpt>
<trkpt lat="-26.8067114" lon="152.9624078">
<ele>36.943</ele>
<time>2017-10-25T00:20:08.957Z</time>
</trkpt>
<trkpt lat="-26.8069931" lon="152.9627092">
<ele>37.270</ele>
<time>2017-10-25T00:20:11.905Z</time>
</trkpt>
<trkpt lat="-26.8073039" lon="152.9629897">
<ele>37.248</ele>
<time>2017-10-25T00:20:15.020Z</time>
</trkpt>
<trkpt lat="-26.8075876" lon="152.9632399">
<ele>37.060</ele>
<time>2017-10-25T00:20:17.920Z</time>
</trkpt>
<trkpt lat="-26.8078724" lon="152.9634902">
<ele>36.903</ele>
<time>2017-10-25T00:20:20.788Z</time>
</trkpt>
<trkpt lat="-26.8081707" lon="152.9637878">
<ele>36.852</ele>
<time>2017-10-25T00:20:23.895Z</time>
</trkpt>
<trkpt lat="-26.8084591" lon="152.9640678">
<ele>36.663</ele>
<time>2017-10-25T00:20:26.949Z</time>
</trkpt>
<trkpt lat="-26.8086959" lon="152.9643915">
<ele>36.081</ele>
<time>2017-10-25T00:20:30.090Z</time>
</trkpt>
<trkpt lat="-26.8088821" lon="152.9647192">
<ele>35.350</ele>
<time>2017-10-25T00:20:33.125Z</time>
</trkpt>
<trkpt lat="-26.8090541" lon="152.9649964">
<ele>35.031</ele>
<time>2017-10-25T00:20:35.902Z</time>
</trkpt>
<trkpt lat="-26.8091767" lon="152.9653102">
<ele>35.298</ele>
<time>2017-10-25T00:20:38.972Z</time>
</trkpt>
<trkpt lat="-26.8092225" lon="152.9655911">
<ele>35.794</ele>
<time>2017-10-25T00:20:42.276Z</time>
</trkpt>
<trkpt lat="-26.8090523" lon="152.9657100">
<ele>36.073</ele>
<time>2017-10-25T00:20:45.744Z</time>
</trkpt>
<trkpt lat="-26.8088237" lon="152.9657077">
<ele>35.716</ele>
<time>2017-10-25T00:20:49.682Z</time>
</trkpt>
<trkpt lat="-26.8086620" lon="152.9656891">
<ele>34.509</ele>
<time>2017-10-25T00:20:52.546Z</time>
</trkpt>
<trkpt lat="-26.8084853" lon="152.9657115">
<ele>32.968</ele>
<time>2017-10-25T00:20:55.602Z</time>
</trkpt>
<trkpt lat="-26.8083113" lon="152.9657386">
<ele>31.735</ele>
<time>2017-10-25T00:20:58.546Z</time>
</trkpt>
<trkpt lat="-26.8081320" lon="152.9657624">
<ele>30.673</ele>
<time>2017-10-25T00:21:01.478Z</time>
</trkpt>
<trkpt lat="-26.8079371" lon="152.9657771">
<ele>29.588</ele>
<time>2017-10-25T00:21:04.627Z</time>
</trkpt>
<trkpt lat="-26.8077476" lon="152.9657751">
<ele>28.796</ele>
<time>2017-10-25T00:21:08.237Z</time>
</trkpt>
<trkpt lat="-26.8075858" lon="152.9657868">
<ele>28.567</ele>
<time>2017-10-25T00:21:13.301Z</time>
</trkpt>
<trkpt lat="-26.8074842" lon="152.9657953">
<ele>28.880</ele>
<time>2017-10-25T00:21:18.065Z</time>
</trkpt>
<trkpt lat="-26.8073863" lon="152.9658031">
<ele>29.488</ele>
<time>2017-10-25T00:21:23.903Z</time>
</trkpt>
<trkpt lat="-26.8072800" lon="152.9658119">
<ele>29.720</ele>
<time>2017-10-25T00:21:31.769Z</time>
</trkpt>
<trkpt lat="-26.8071878" lon="152.9658460">
<ele>29.199</ele>
<time>2017-10-25T00:21:39.713Z</time>
</trkpt>
<trkpt lat="-26.8070842" lon="152.9658299">
<ele>28.411</ele>
<time>2017-10-25T00:21:46.859Z</time>
</trkpt>
<trkpt lat="-26.8069943" lon="152.9658616">
<ele>27.899</ele>
<time>2017-10-25T00:21:51.564Z</time>
</trkpt>
<trkpt lat="-26.8068915" lon="152.9658319">
<ele>27.489</ele>
<time>2017-10-25T00:21:56.373Z</time>
</trkpt>
<trkpt lat="-26.8069811" lon="152.9659002">
<ele>26.700</ele>
<time>2017-10-25T00:22:01.320Z</time>
</trkpt>
<trkpt lat="-26.8070700" lon="152.9659257">
<ele>25.727</ele>
<time>2017-10-25T00:22:06.008Z</time>
</trkpt>
<trkpt lat="-26.8070700" lon="152.9659257">
<ele>25.234</ele>
<time>2017-10-25T00:22:15.008Z</time>
</trkpt>
<trkpt lat="-26.8070700" lon="152.9659257">
<ele>25.276</ele>
<time>2017-10-25T00:23:34.728Z</time>
</trkpt>
<trkpt lat="-26.8072420" lon="152.9659508">
<ele>25.465</ele>
<time>2017-10-25T00:23:39.494Z</time>
</trkpt>
<trkpt lat="-26.8073828" lon="152.9659514">
<ele>27.346</ele>
<time>2017-10-25T00:23:42.300Z</time>
</trkpt>
<trkpt lat="-26.8075177" lon="152.9659696">
<ele>31.913</ele>
<time>2017-10-25T00:23:45.380Z</time>
</trkpt>
<trkpt lat="-26.8075461" lon="152.9661004">
<ele>36.481</ele>
<time>2017-10-25T00:23:48.279Z</time>
</trkpt>
<trkpt lat="-26.8075964" lon="152.9662141">
<ele>38.519</ele>
<time>2017-10-25T00:23:50.963Z</time>
</trkpt>
<trkpt lat="-26.8077271" lon="152.9662304">
<ele>38.691</ele>
<time>2017-10-25T00:23:53.835Z</time>
</trkpt>
<trkpt lat="-26.8078233" lon="152.9661973">
<ele>38.207</ele>
<time>2017-10-25T00:23:55.844Z</time>
</trkpt>
<trkpt lat="-26.8079155" lon="152.9661660">
<ele>37.737</ele>
<time>2017-10-25T00:23:57.757Z</time>
</trkpt>
<trkpt lat="-26.8080083" lon="152.9661500">
<ele>37.484</ele>
<time>2017-10-25T00:23:59.749Z</time>
</trkpt>
<trkpt lat="-26.8081069" lon="152.9661257">
<ele>37.412</ele>
<time>2017-10-25T00:24:02.194Z</time>
</trkpt>
<trkpt lat="-26.8081718" lon="152.9660398">
<ele>37.420</ele>
<time>2017-10-25T00:24:06.227Z</time>
</trkpt>
<trkpt lat="-26.8082608" lon="152.9659803">
<ele>37.486</ele>
<time>2017-10-25T00:24:12.012Z</time>
</trkpt>
<trkpt lat="-26.8082608" lon="152.9659803">
<ele>37.603</ele>
<time>2017-10-25T00:24:17.012Z</time>
</trkpt>
<trkpt lat="-26.8082608" lon="152.9659803">
<ele>37.683</ele>
<time>2017-10-25T00:53:24.574Z</time>
</trkpt>
<trkpt lat="-26.8084715" lon="152.9659360">
<ele>37.664</ele>
<time>2017-10-25T00:53:38.017Z</time>
</trkpt>
<trkpt lat="-26.8084715" lon="152.9659360">
<ele>37.612</ele>
<time>2017-10-25T00:53:52.017Z</time>
</trkpt>
<trkpt lat="-26.8084715" lon="152.9659360">
<ele>37.593</ele>
<time>2017-10-25T00:53:54.264Z</time>
</trkpt>
<trkpt lat="-26.8083152" lon="152.9659631">
<ele>37.603</ele>
<time>2017-10-25T00:54:06.248Z</time>
</trkpt>
<trkpt lat="-26.8082436" lon="152.9660272">
<ele>38.013</ele>
<time>2017-10-25T00:54:09.918Z</time>
</trkpt>
<trkpt lat="-26.8081452" lon="152.9660817">
<ele>39.075</ele>
<time>2017-10-25T00:54:12.560Z</time>
</trkpt>
<trkpt lat="-26.8079925" lon="152.9660980">
<ele>40.187</ele>
<time>2017-10-25T00:54:15.805Z</time>
</trkpt>
<trkpt lat="-26.8078428" lon="152.9661047">
<ele>40.738</ele>
<time>2017-10-25T00:54:19.158Z</time>
</trkpt>
<trkpt lat="-26.8077152" lon="152.9660928">
<ele>40.825</ele>
<time>2017-10-25T00:54:22.535Z</time>
</trkpt>
<trkpt lat="-26.8076456" lon="152.9659975">
<ele>40.719</ele>
<time>2017-10-25T00:54:25.798Z</time>
</trkpt>
<trkpt lat="-26.8076326" lon="152.9658975">
<ele>40.632</ele>
<time>2017-10-25T00:54:28.239Z</time>
</trkpt>
<trkpt lat="-26.8075053" lon="152.9658443">
<ele>40.707</ele>
<time>2017-10-25T00:54:31.918Z</time>
</trkpt>
<trkpt lat="-26.8073184" lon="152.9658753">
<ele>41.044</ele>
<time>2017-10-25T00:54:35.847Z</time>
</trkpt>
<trkpt lat="-26.8071469" lon="152.9658848">
<ele>41.534</ele>
<time>2017-10-25T00:54:38.787Z</time>
</trkpt>
<trkpt lat="-26.8069589" lon="152.9658966">
<ele>41.905</ele>
<time>2017-10-25T00:54:41.956Z</time>
</trkpt>
<trkpt lat="-26.8067407" lon="152.9659122">
<ele>42.039</ele>
<time>2017-10-25T00:54:45.262Z</time>
</trkpt>
<trkpt lat="-26.8064926" lon="152.9659229">
<ele>42.045</ele>
<time>2017-10-25T00:54:48.519Z</time>
</trkpt>
<trkpt lat="-26.8062476" lon="152.9659119">
<ele>42.038</ele>
<time>2017-10-25T00:54:51.600Z</time>
</trkpt>
<trkpt lat="-26.8060429" lon="152.9658158">
<ele>42.016</ele>
<time>2017-10-25T00:54:54.530Z</time>
</trkpt>
<trkpt lat="-26.8058552" lon="152.9657088">
<ele>41.945</ele>
<time>2017-10-25T00:54:57.502Z</time>
</trkpt>
<trkpt lat="-26.8056828" lon="152.9656168">
<ele>41.897</ele>
<time>2017-10-25T00:55:00.437Z</time>
</trkpt>
<trkpt lat="-26.8055585" lon="152.9655277">
<ele>41.942</ele>
<time>2017-10-25T00:55:03.016Z</time>
</trkpt>
<trkpt lat="-26.8055585" lon="152.9655277">
<ele>42.032</ele>
<time>2017-10-25T00:55:10.016Z</time>
</trkpt>
<trkpt lat="-26.8055585" lon="152.9655277">
<ele>42.079</ele>
<time>2017-10-25T00:55:32.526Z</time>
</trkpt>
<trkpt lat="-26.8053035" lon="152.9654068">
<ele>42.058</ele>
<time>2017-10-25T00:55:39.897Z</time>
</trkpt>
<trkpt lat="-26.8050530" lon="152.9652592">
<ele>42.138</ele>
<time>2017-10-25T00:55:43.102Z</time>
</trkpt>
<trkpt lat="-26.8047800" lon="152.9650940">
<ele>42.437</ele>
<time>2017-10-25T00:55:46.427Z</time>
</trkpt>
<trkpt lat="-26.8045686" lon="152.9649567">
<ele>42.757</ele>
<time>2017-10-25T00:55:49.895Z</time>
</trkpt>
<trkpt lat="-26.8044433" lon="152.9648697">
<ele>42.742</ele>
<time>2017-10-25T00:55:53.798Z</time>
</trkpt>
<trkpt lat="-26.8043568" lon="152.9648023">
<ele>42.344</ele>
<time>2017-10-25T00:55:57.311Z</time>
</trkpt>
<trkpt lat="-26.8042616" lon="152.9647811">
<ele>41.944</ele>
<time>2017-10-25T00:55:59.693Z</time>
</trkpt>
<trkpt lat="-26.8041370" lon="152.9649532">
<ele>41.855</ele>
<time>2017-10-25T00:56:02.620Z</time>
</trkpt>
<trkpt lat="-26.8039839" lon="152.9652444">
<ele>41.961</ele>
<time>2017-10-25T00:56:05.661Z</time>
</trkpt>
<trkpt lat="-26.8038102" lon="152.9655950">
<ele>42.071</ele>
<time>2017-10-25T00:56:08.735Z</time>
</trkpt>
<trkpt lat="-26.8036710" lon="152.9659602">
<ele>42.172</ele>
<time>2017-10-25T00:56:11.692Z</time>
</trkpt>
<trkpt lat="-26.8035433" lon="152.9663254">
<ele>42.465</ele>
<time>2017-10-25T00:56:14.637Z</time>
</trkpt>
<trkpt lat="-26.8034312" lon="152.9666953">
<ele>42.999</ele>
<time>2017-10-25T00:56:17.517Z</time>
</trkpt>
<trkpt lat="-26.8033220" lon="152.9671058">
<ele>43.334</ele>
<time>2017-10-25T00:56:20.543Z</time>
</trkpt>
<trkpt lat="-26.8032006" lon="152.9675144">
<ele>43.098</ele>
<time>2017-10-25T00:56:23.506Z</time>
</trkpt>
<trkpt lat="-26.8030457" lon="152.9679158">
<ele>42.409</ele>
<time>2017-10-25T00:56:26.492Z</time>
</trkpt>
<trkpt lat="-26.8028552" lon="152.9682885">
<ele>41.459</ele>
<time>2017-10-25T00:56:29.451Z</time>
</trkpt>
<trkpt lat="-26.8026569" lon="152.9686386">
<ele>40.436</ele>
<time>2017-10-25T00:56:32.317Z</time>
</trkpt>
<trkpt lat="-26.8024387" lon="152.9690188">
<ele>39.649</ele>
<time>2017-10-25T00:56:35.391Z</time>
</trkpt>
<trkpt lat="-26.8022306" lon="152.9693709">
<ele>39.274</ele>
<time>2017-10-25T00:56:38.392Z</time>
</trkpt>
<trkpt lat="-26.8020133" lon="152.9696206">
<ele>39.213</ele>
<time>2017-10-25T00:56:41.028Z</time>
</trkpt>
<trkpt lat="-26.8016224" lon="152.9696889">
<ele>39.179</ele>
<time>2017-10-25T00:56:44.179Z</time>
</trkpt>
<trkpt lat="-26.8011849" lon="152.9696987">
<ele>39.002</ele>
<time>2017-10-25T00:56:47.305Z</time>
</trkpt>
<trkpt lat="-26.8007687" lon="152.9697052">
<ele>38.797</ele>
<time>2017-10-25T00:56:50.222Z</time>
</trkpt>
<trkpt lat="-26.8003416" lon="152.9697131">
<ele>38.611</ele>
<time>2017-10-25T00:56:53.175Z</time>
</trkpt>
<trkpt lat="-26.7998816" lon="152.9697223">
<ele>38.376</ele>
<time>2017-10-25T00:56:56.200Z</time>
</trkpt>
<trkpt lat="-26.7994028" lon="152.9696960">
<ele>38.300</ele>
<time>2017-10-25T00:56:59.250Z</time>
</trkpt>
<trkpt lat="-26.7989458" lon="152.9696379">
<ele>38.786</ele>
<time>2017-10-25T00:57:02.184Z</time>
</trkpt>
<trkpt lat="-26.7984979" lon="152.9697160">
<ele>40.246</ele>
<time>2017-10-25T00:57:05.118Z</time>
</trkpt>
<trkpt lat="-26.7980923" lon="152.9699047">
<ele>42.597</ele>
<time>2017-10-25T00:57:08.083Z</time>
</trkpt>
<trkpt lat="-26.7977004" lon="152.9700120">
<ele>44.859</ele>
<time>2017-10-25T00:57:10.984Z</time>
</trkpt>
<trkpt lat="-26.7972937" lon="152.9699132">
<ele>45.639</ele>
<time>2017-10-25T00:57:14.011Z</time>
</trkpt>
<trkpt lat="-26.7969623" lon="152.9696233">
<ele>44.340</ele>
<time>2017-10-25T00:57:16.896Z</time>
</trkpt>
<trkpt lat="-26.7967374" lon="152.9690964">
<ele>41.134</ele>
<time>2017-10-25T00:57:20.179Z</time>
</trkpt>
<trkpt lat="-26.7965632" lon="152.9685749">
<ele>37.092</ele>
<time>2017-10-25T00:57:23.235Z</time>
</trkpt>
<trkpt lat="-26.7963741" lon="152.9681581">
<ele>33.958</ele>
<time>2017-10-25T00:57:25.956Z</time>
</trkpt>
<trkpt lat="-26.7960435" lon="152.9679030">
<ele>32.560</ele>
<time>2017-10-25T00:57:28.730Z</time>
</trkpt>
<trkpt lat="-26.7955517" lon="152.9679849">
<ele>32.281</ele>
<time>2017-10-25T00:57:31.965Z</time>
</trkpt>
<trkpt lat="-26.7950283" lon="152.9683307">
<ele>32.601</ele>
<time>2017-10-25T00:57:35.304Z</time>
</trkpt>
<trkpt lat="-26.7945266" lon="152.9686779">
<ele>33.329</ele>
<time>2017-10-25T00:57:38.349Z</time>
</trkpt>
<trkpt lat="-26.7940725" lon="152.9689603">
<ele>34.339</ele>
<time>2017-10-25T00:57:41.225Z</time>
</trkpt>
<trkpt lat="-26.7937193" lon="152.9692592">
<ele>35.438</ele>
<time>2017-10-25T00:57:43.881Z</time>
</trkpt>
<trkpt lat="-26.7934172" lon="152.9697255">
<ele>36.312</ele>
<time>2017-10-25T00:57:47.028Z</time>
</trkpt>
<trkpt lat="-26.7930893" lon="152.9701222">
<ele>36.655</ele>
<time>2017-10-25T00:57:49.971Z</time>
</trkpt>
<trkpt lat="-26.7927834" lon="152.9705523">
<ele>36.537</ele>
<time>2017-10-25T00:57:53.030Z</time>
</trkpt>
<trkpt lat="-26.7924892" lon="152.9709381">
<ele>36.317</ele>
<time>2017-10-25T00:57:55.915Z</time>
</trkpt>
<trkpt lat="-26.7921823" lon="152.9713746">
<ele>36.251</ele>
<time>2017-10-25T00:57:58.997Z</time>
</trkpt>
<trkpt lat="-26.7918453" lon="152.9718162">
<ele>36.277</ele>
<time>2017-10-25T00:58:02.040Z</time>
</trkpt>
<trkpt lat="-26.7915387" lon="152.9722432">
<ele>36.194</ele>
<time>2017-10-25T00:58:04.897Z</time>
</trkpt>
<trkpt lat="-26.7912031" lon="152.9726424">
<ele>35.743</ele>
<time>2017-10-25T00:58:07.805Z</time>
</trkpt>
<trkpt lat="-26.7908398" lon="152.9729975">
<ele>34.952</ele>
<time>2017-10-25T00:58:10.679Z</time>
</trkpt>
<trkpt lat="-26.7904472" lon="152.9733392">
<ele>34.557</ele>
<time>2017-10-25T00:58:13.722Z</time>
</trkpt>
<trkpt lat="-26.7901436" lon="152.9735943">
<ele>35.496</ele>
<time>2017-10-25T00:58:16.274Z</time>
</trkpt>
<trkpt lat="-26.7898656" lon="152.9737530">
<ele>38.170</ele>
<time>2017-10-25T00:58:18.810Z</time>
</trkpt>
<trkpt lat="-26.7894845" lon="152.9738310">
<ele>42.300</ele>
<time>2017-10-25T00:58:22.053Z</time>
</trkpt>
<trkpt lat="-26.7890380" lon="152.9738809">
<ele>46.829</ele>
<time>2017-10-25T00:58:25.284Z</time>
</trkpt>
<trkpt lat="-26.7886073" lon="152.9739569">
<ele>50.420</ele>
<time>2017-10-25T00:58:28.221Z</time>
</trkpt>
<trkpt lat="-26.7882638" lon="152.9739690">
<ele>52.646</ele>
<time>2017-10-25T00:58:30.658Z</time>
</trkpt>
<trkpt lat="-26.7879030" lon="152.9742127">
<ele>54.277</ele>
<time>2017-10-25T00:58:33.788Z</time>
</trkpt>
<trkpt lat="-26.7876068" lon="152.9746492">
<ele>56.206</ele>
<time>2017-10-25T00:58:37.144Z</time>
</trkpt>
<trkpt lat="-26.7872879" lon="152.9750844">
<ele>58.849</ele>
<time>2017-10-25T00:58:40.253Z</time>
</trkpt>
<trkpt lat="-26.7870145" lon="152.9755000">
<ele>61.909</ele>
<time>2017-10-25T00:58:43.061Z</time>
</trkpt>
<trkpt lat="-26.7867027" lon="152.9757178">
<ele>64.815</ele>
<time>2017-10-25T00:58:45.600Z</time>
</trkpt>
<trkpt lat="-26.7862981" lon="152.9754777">
<ele>67.447</ele>
<time>2017-10-25T00:58:49.049Z</time>
</trkpt>
<trkpt lat="-26.7858528" lon="152.9752028">
<ele>69.951</ele>
<time>2017-10-25T00:58:52.443Z</time>
</trkpt>
<trkpt lat="-26.7853312" lon="152.9750387">
<ele>72.300</ele>
<time>2017-10-25T00:58:55.641Z</time>
</trkpt>
<trkpt lat="-26.7848254" lon="152.9748959">
<ele>74.258</ele>
<time>2017-10-25T00:58:58.585Z</time>
</trkpt>
<trkpt lat="-26.7843226" lon="152.9747170">
<ele>75.409</ele>
<time>2017-10-25T00:59:01.541Z</time>
</trkpt>
<trkpt lat="-26.7838159" lon="152.9745177">
<ele>75.921</ele>
<time>2017-10-25T00:59:04.544Z</time>
</trkpt>
<trkpt lat="-26.7833410" lon="152.9742654">
<ele>76.444</ele>
<time>2017-10-25T00:59:07.523Z</time>
</trkpt>
<trkpt lat="-26.7828966" lon="152.9741204">
<ele>77.341</ele>
<time>2017-10-25T00:59:10.262Z</time>
</trkpt>
<trkpt lat="-26.7824630" lon="152.9739668">
<ele>78.574</ele>
<time>2017-10-25T00:59:13.104Z</time>
</trkpt>
<trkpt lat="-26.7821844" lon="152.9737478">
<ele>80.018</ele>
<time>2017-10-25T00:59:15.251Z</time>
</trkpt>
<trkpt lat="-26.7817977" lon="152.9734220">
<ele>81.391</ele>
<time>2017-10-25T00:59:18.307Z</time>
</trkpt>
<trkpt lat="-26.7814836" lon="152.9733603">
<ele>82.332</ele>
<time>2017-10-25T00:59:20.367Z</time>
</trkpt>
<trkpt lat="-26.7811714" lon="152.9733547">
<ele>83.129</ele>
<time>2017-10-25T00:59:22.344Z</time>
</trkpt>
<trkpt lat="-26.7808619" lon="152.9733747">
<ele>84.428</ele>
<time>2017-10-25T00:59:24.273Z</time>
</trkpt>
<trkpt lat="-26.7806219" lon="152.9732873">
<ele>86.224</ele>
<time>2017-10-25T00:59:25.920Z</time>
</trkpt>
<trkpt lat="-26.7804050" lon="152.9730597">
<ele>87.966</ele>
<time>2017-10-25T00:59:27.997Z</time>
</trkpt>
<trkpt lat="-26.7802053" lon="152.9728244">
<ele>89.178</ele>
<time>2017-10-25T00:59:30.019Z</time>
</trkpt>
<trkpt lat="-26.7800187" lon="152.9725895">
<ele>89.801</ele>
<time>2017-10-25T00:59:31.983Z</time>
</trkpt>
<trkpt lat="-26.7797708" lon="152.9722389">
<ele>90.394</ele>
<time>2017-10-25T00:59:34.910Z</time>
</trkpt>
<trkpt lat="-26.7796422" lon="152.9717784">
<ele>91.937</ele>
<time>2017-10-25T00:59:38.091Z</time>
</trkpt>
<trkpt lat="-26.7794179" lon="152.9714119">
<ele>94.918</ele>
<time>2017-10-25T00:59:40.961Z</time>
</trkpt>
<trkpt lat="-26.7789718" lon="152.9712269">
<ele>98.375</ele>
<time>2017-10-25T00:59:44.170Z</time>
</trkpt>
<trkpt lat="-26.7784422" lon="152.9711297">
<ele>100.801</ele>
<time>2017-10-25T00:59:47.398Z</time>
</trkpt>
<trkpt lat="-26.7779806" lon="152.9709519">
<ele>101.741</ele>
<time>2017-10-25T00:59:50.272Z</time>
</trkpt>
<trkpt lat="-26.7775908" lon="152.9707413">
<ele>101.867</ele>
<time>2017-10-25T00:59:53.002Z</time>
</trkpt>
<trkpt lat="-26.7772080" lon="152.9705712">
<ele>102.118</ele>
<time>2017-10-25T00:59:55.828Z</time>
</trkpt>
<trkpt lat="-26.7767582" lon="152.9705115">
<ele>103.137</ele>
<time>2017-10-25T00:59:58.899Z</time>
</trkpt>
<trkpt lat="-26.7762802" lon="152.9705922">
<ele>104.784</ele>
<time>2017-10-25T01:00:02.034Z</time>
</trkpt>
<trkpt lat="-26.7758398" lon="152.9707674">
<ele>106.430</ele>
<time>2017-10-25T01:00:05.017Z</time>
</trkpt>
<trkpt lat="-26.7754341" lon="152.9710505">
<ele>107.931</ele>
<time>2017-10-25T01:00:08.053Z</time>
</trkpt>
<trkpt lat="-26.7751244" lon="152.9714206">
<ele>109.329</ele>
<time>2017-10-25T01:00:10.947Z</time>
</trkpt>
<trkpt lat="-26.7747863" lon="152.9716335">
<ele>110.114</ele>
<time>2017-10-25T01:00:13.681Z</time>
</trkpt>
<trkpt lat="-26.7743946" lon="152.9717293">
<ele>110.018</ele>
<time>2017-10-25T01:00:16.795Z</time>
</trkpt>
<trkpt lat="-26.7740125" lon="152.9716803">
<ele>109.065</ele>
<time>2017-10-25T01:00:19.733Z</time>
</trkpt>
<trkpt lat="-26.7735669" lon="152.9715203">
<ele>106.978</ele>
<time>2017-10-25T01:00:23.001Z</time>
</trkpt>
<trkpt lat="-26.7731039" lon="152.9712860">
<ele>103.903</ele>
<time>2017-10-25T01:00:26.207Z</time>
</trkpt>
<trkpt lat="-26.7726498" lon="152.9711258">
<ele>100.426</ele>
<time>2017-10-25T01:00:29.135Z</time>
</trkpt>
<trkpt lat="-26.7722276" lon="152.9710175">
<ele>96.717</ele>
<time>2017-10-25T01:00:31.935Z</time>
</trkpt>
<trkpt lat="-26.7717709" lon="152.9711928">
<ele>93.047</ele>
<time>2017-10-25T01:00:35.028Z</time>
</trkpt>
<trkpt lat="-26.7712679" lon="152.9714482">
<ele>89.668</ele>
<time>2017-10-25T01:00:38.246Z</time>
</trkpt>
<trkpt lat="-26.7708005" lon="152.9717068">
<ele>86.073</ele>
<time>2017-10-25T01:00:41.220Z</time>
</trkpt>
<trkpt lat="-26.7703739" lon="152.9719800">
<ele>82.072</ele>
<time>2017-10-25T01:00:44.112Z</time>
</trkpt>
<trkpt lat="-26.7699602" lon="152.9722105">
<ele>78.705</ele>
<time>2017-10-25T01:00:46.968Z</time>
</trkpt>
<trkpt lat="-26.7695844" lon="152.9724086">
<ele>76.920</ele>
<time>2017-10-25T01:00:49.716Z</time>
</trkpt>
<trkpt lat="-26.7692170" lon="152.9724124">
<ele>76.175</ele>
<time>2017-10-25T01:00:52.314Z</time>
</trkpt>
<trkpt lat="-26.7687864" lon="152.9722439">
<ele>75.048</ele>
<time>2017-10-25T01:00:55.507Z</time>
</trkpt>
<trkpt lat="-26.7682970" lon="152.9720902">
<ele>73.250</ele>
<time>2017-10-25T01:00:58.723Z</time>
</trkpt>
<trkpt lat="-26.7677500" lon="152.9720421">
<ele>71.787</ele>
<time>2017-10-25T01:01:01.918Z</time>
</trkpt>
<trkpt lat="-26.7672185" lon="152.9720697">
<ele>71.853</ele>
<time>2017-10-25T01:01:04.913Z</time>
</trkpt>
<trkpt lat="-26.7667721" lon="152.9721481">
<ele>74.303</ele>
<time>2017-10-25T01:01:07.577Z</time>
</trkpt>
<trkpt lat="-26.7663339" lon="152.9722103">
<ele>78.994</ele>
<time>2017-10-25T01:01:10.416Z</time>
</trkpt>
<trkpt lat="-26.7659497" lon="152.9723738">
<ele>84.737</ele>
<time>2017-10-25T01:01:13.205Z</time>
</trkpt>
<trkpt lat="-26.7656146" lon="152.9727098">
<ele>90.069</ele>
<time>2017-10-25T01:01:16.294Z</time>
</trkpt>
<trkpt lat="-26.7653347" lon="152.9731003">
<ele>93.644</ele>
<time>2017-10-25T01:01:19.366Z</time>
</trkpt>
<trkpt lat="-26.7652363" lon="152.9736085">
<ele>94.663</ele>
<time>2017-10-25T01:01:22.547Z</time>
</trkpt>
<trkpt lat="-26.7652868" lon="152.9741592">
<ele>92.989</ele>
<time>2017-10-25T01:01:25.818Z</time>
</trkpt>
<trkpt lat="-26.7653142" lon="152.9747162">
<ele>88.941</ele>
<time>2017-10-25T01:01:28.936Z</time>
</trkpt>
<trkpt lat="-26.7652274" lon="152.9751573">
<ele>83.578</ele>
<time>2017-10-25T01:01:31.593Z</time>
</trkpt>
<trkpt lat="-26.7650063" lon="152.9752819">
<ele>78.310</ele>
<time>2017-10-25T01:01:33.683Z</time>
</trkpt>
<trkpt lat="-26.7648753" lon="152.9754528">
<ele>73.837</ele>
<time>2017-10-25T01:01:35.810Z</time>
</trkpt>
<trkpt lat="-26.7647865" lon="152.9755380">
<ele>70.020</ele>
<time>2017-10-25T01:01:37.517Z</time>
</trkpt>
<trkpt lat="-26.7646892" lon="152.9755171">
<ele>66.720</ele>
<time>2017-10-25T01:01:39.288Z</time>
</trkpt>
<trkpt lat="-26.7646215" lon="152.9752785">
<ele>63.335</ele>
<time>2017-10-25T01:01:45.010Z</time>
</trkpt>
<trkpt lat="-26.7647576" lon="152.9748694">
<ele>59.522</ele>
<time>2017-10-25T01:01:51.058Z</time>
</trkpt>
<trkpt lat="-26.7647436" lon="152.9743678">
<ele>55.979</ele>
<time>2017-10-25T01:01:54.680Z</time>
</trkpt>
<trkpt lat="-26.7644585" lon="152.9739587">
<ele>53.004</ele>
<time>2017-10-25T01:01:57.972Z</time>
</trkpt>
<trkpt lat="-26.7639983" lon="152.9738249">
<ele>49.939</ele>
<time>2017-10-25T01:02:01.304Z</time>
</trkpt>
<trkpt lat="-26.7637004" lon="152.9735600">
<ele>46.854</ele>
<time>2017-10-25T01:02:04.045Z</time>
</trkpt>
<trkpt lat="-26.7636535" lon="152.9730638">
<ele>44.591</ele>
<time>2017-10-25T01:02:07.277Z</time>
</trkpt>
<trkpt lat="-26.7639621" lon="152.9725296">
<ele>43.604</ele>
<time>2017-10-25T01:02:10.818Z</time>
</trkpt>
<trkpt lat="-26.7642674" lon="152.9720605">
<ele>43.399</ele>
<time>2017-10-25T01:02:13.793Z</time>
</trkpt>
<trkpt lat="-26.7645669" lon="152.9715990">
<ele>43.182</ele>
<time>2017-10-25T01:02:16.769Z</time>
</trkpt>
<trkpt lat="-26.7648268" lon="152.9711822">
<ele>42.396</ele>
<time>2017-10-25T01:02:19.578Z</time>
</trkpt>
<trkpt lat="-26.7647645" lon="152.9706954">
<ele>41.006</ele>
<time>2017-10-25T01:02:22.484Z</time>
</trkpt>
<trkpt lat="-26.7646360" lon="152.9701763">
<ele>39.375</ele>
<time>2017-10-25T01:02:25.633Z</time>
</trkpt>
<trkpt lat="-26.7645175" lon="152.9696824">
<ele>37.848</ele>
<time>2017-10-25T01:02:28.569Z</time>
</trkpt>
<trkpt lat="-26.7642750" lon="152.9692439">
<ele>36.334</ele>
<time>2017-10-25T01:02:31.658Z</time>
</trkpt>
<trkpt lat="-26.7640946" lon="152.9688635">
<ele>34.074</ele>
<time>2017-10-25T01:02:34.365Z</time>
</trkpt>
<trkpt lat="-26.7638915" lon="152.9685177">
<ele>30.665</ele>
<time>2017-10-25T01:02:37.113Z</time>
</trkpt>
<trkpt lat="-26.7637655" lon="152.9680590">
<ele>27.116</ele>
<time>2017-10-25T01:02:40.242Z</time>
</trkpt>
<trkpt lat="-26.7637151" lon="152.9675446">
<ele>24.611</ele>
<time>2017-10-25T01:02:43.330Z</time>
</trkpt>
<trkpt lat="-26.7638020" lon="152.9670888">
<ele>23.304</ele>
<time>2017-10-25T01:02:46.070Z</time>
</trkpt>
<trkpt lat="-26.7639801" lon="152.9666863">
<ele>22.852</ele>
<time>2017-10-25T01:02:48.879Z</time>
</trkpt>
<trkpt lat="-26.7641632" lon="152.9662674">
<ele>23.012</ele>
<time>2017-10-25T01:02:51.933Z</time>
</trkpt>
<trkpt lat="-26.7642979" lon="152.9658203">
<ele>23.663</ele>
<time>2017-10-25T01:02:54.974Z</time>
</trkpt>
<trkpt lat="-26.7643964" lon="152.9653177">
<ele>24.588</ele>
<time>2017-10-25T01:02:58.189Z</time>
</trkpt>
<trkpt lat="-26.7644268" lon="152.9648688">
<ele>25.398</ele>
<time>2017-10-25T01:03:01.047Z</time>
</trkpt>
<trkpt lat="-26.7645304" lon="152.9644429">
<ele>25.830</ele>
<time>2017-10-25T01:03:03.943Z</time>
</trkpt>
<trkpt lat="-26.7645833" lon="152.9639949">
<ele>25.950</ele>
<time>2017-10-25T01:03:06.944Z</time>
</trkpt>
<trkpt lat="-26.7646908" lon="152.9635515">
<ele>25.965</ele>
<time>2017-10-25T01:03:09.978Z</time>
</trkpt>
<trkpt lat="-26.7647855" lon="152.9630796">
<ele>25.814</ele>
<time>2017-10-25T01:03:13.088Z</time>
</trkpt>
<trkpt lat="-26.7648625" lon="152.9626582">
<ele>25.298</ele>
<time>2017-10-25T01:03:15.882Z</time>
</trkpt>
<trkpt lat="-26.7649695" lon="152.9624484">
<ele>24.588</ele>
<time>2017-10-25T01:03:17.777Z</time>
</trkpt>
<trkpt lat="-26.7650332" lon="152.9622877">
<ele>24.164</ele>
<time>2017-10-25T01:03:19.252Z</time>
</trkpt>
<trkpt lat="-26.7650332" lon="152.9621308">
<ele>24.190</ele>
<time>2017-10-25T01:03:21.089Z</time>
</trkpt>
<trkpt lat="-26.7647585" lon="152.9619712">
<ele>23.968</ele>
<time>2017-10-25T01:03:26.300Z</time>
</trkpt>
<trkpt lat="-26.7644424" lon="152.9617064">
<ele>22.631</ele>
<time>2017-10-25T01:03:30.642Z</time>
</trkpt>
<trkpt lat="-26.7640728" lon="152.9614074">
<ele>20.600</ele>
<time>2017-10-25T01:03:34.009Z</time>
</trkpt>
<trkpt lat="-26.7636864" lon="152.9612092">
<ele>19.389</ele>
<time>2017-10-25T01:03:36.860Z</time>
</trkpt>
<trkpt lat="-26.7631773" lon="152.9611272">
<ele>19.587</ele>
<time>2017-10-25T01:03:40.133Z</time>
</trkpt>
<trkpt lat="-26.7626781" lon="152.9611861">
<ele>20.186</ele>
<time>2017-10-25T01:03:43.159Z</time>
</trkpt>
<trkpt lat="-26.7622389" lon="152.9613055">
<ele>20.245</ele>
<time>2017-10-25T01:03:45.991Z</time>
</trkpt>
<trkpt lat="-26.7618483" lon="152.9614084">
<ele>20.177</ele>
<time>2017-10-25T01:03:48.675Z</time>
</trkpt>
<trkpt lat="-26.7614920" lon="152.9616013">
<ele>20.652</ele>
<time>2017-10-25T01:03:51.500Z</time>
</trkpt>
<trkpt lat="-26.7611728" lon="152.9618353">
<ele>21.523</ele>
<time>2017-10-25T01:03:54.402Z</time>
</trkpt>
<trkpt lat="-26.7608256" lon="152.9620453">
<ele>22.534</ele>
<time>2017-10-25T01:03:57.499Z</time>
</trkpt>
<trkpt lat="-26.7604960" lon="152.9622003">
<ele>23.589</ele>
<time>2017-10-25T01:04:00.318Z</time>
</trkpt>
<trkpt lat="-26.7601787" lon="152.9623470">
<ele>24.345</ele>
<time>2017-10-25T01:04:03.090Z</time>
</trkpt>
<trkpt lat="-26.7599023" lon="152.9624441">
<ele>24.583</ele>
<time>2017-10-25T01:04:05.587Z</time>
</trkpt>
<trkpt lat="-26.7596355" lon="152.9624845">
<ele>24.286</ele>
<time>2017-10-25T01:04:08.145Z</time>
</trkpt>
<trkpt lat="-26.7594477" lon="152.9625301">
<ele>23.475</ele>
<time>2017-10-25T01:04:10.159Z</time>
</trkpt>
<trkpt lat="-26.7592559" lon="152.9628303">
<ele>22.540</ele>
<time>2017-10-25T01:04:14.420Z</time>
</trkpt>
<trkpt lat="-26.7588115" lon="152.9628506">
<ele>21.860</ele>
<time>2017-10-25T01:04:18.724Z</time>
</trkpt>
<trkpt lat="-26.7582780" lon="152.9627251">
<ele>21.424</ele>
<time>2017-10-25T01:04:22.141Z</time>
</trkpt>
<trkpt lat="-26.7577603" lon="152.9626157">
<ele>21.157</ele>
<time>2017-10-25T01:04:25.068Z</time>
</trkpt>
<trkpt lat="-26.7573170" lon="152.9625041">
<ele>21.038</ele>
<time>2017-10-25T01:04:27.747Z</time>
</trkpt>
<trkpt lat="-26.7568500" lon="152.9624149">
<ele>21.241</ele>
<time>2017-10-25T01:04:30.738Z</time>
</trkpt>
<trkpt lat="-26.7564056" lon="152.9622843">
<ele>22.074</ele>
<time>2017-10-25T01:04:33.692Z</time>
</trkpt>
<trkpt lat="-26.7559844" lon="152.9622129">
<ele>23.275</ele>
<time>2017-10-25T01:04:36.501Z</time>
</trkpt>
<trkpt lat="-26.7555673" lon="152.9624149">
<ele>24.122</ele>
<time>2017-10-25T01:04:39.601Z</time>
</trkpt>
<trkpt lat="-26.7550805" lon="152.9626732">
<ele>24.252</ele>
<time>2017-10-25T01:04:43.051Z</time>
</trkpt>
<trkpt lat="-26.7545989" lon="152.9627762">
<ele>23.883</ele>
<time>2017-10-25T01:04:45.909Z</time>
</trkpt>
<trkpt lat="-26.7541033" lon="152.9629812">
<ele>23.377</ele>
<time>2017-10-25T01:04:48.968Z</time>
</trkpt>
<trkpt lat="-26.7537004" lon="152.9634512">
<ele>22.838</ele>
<time>2017-10-25T01:04:52.232Z</time>
</trkpt>
<trkpt lat="-26.7533139" lon="152.9639772">
<ele>22.303</ele>
<time>2017-10-25T01:04:55.357Z</time>
</trkpt>
<trkpt lat="-26.7528585" lon="152.9644459">
<ele>21.967</ele>
<time>2017-10-25T01:04:58.432Z</time>
</trkpt>
<trkpt lat="-26.7524233" lon="152.9646758">
<ele>22.660</ele>
<time>2017-10-25T01:05:01.011Z</time>
</trkpt>
<trkpt lat="-26.7518241" lon="152.9645687">
<ele>25.287</ele>
<time>2017-10-25T01:05:04.255Z</time>
</trkpt>
<trkpt lat="-26.7511986" lon="152.9644930">
<ele>29.128</ele>
<time>2017-10-25T01:05:07.371Z</time>
</trkpt>
<trkpt lat="-26.7506580" lon="152.9645398">
<ele>32.771</ele>
<time>2017-10-25T01:05:10.189Z</time>
</trkpt>
<trkpt lat="-26.7502977" lon="152.9647831">
<ele>36.281</ele>
<time>2017-10-25T01:05:12.759Z</time>
</trkpt>
<trkpt lat="-26.7499968" lon="152.9652254">
<ele>40.593</ele>
<time>2017-10-25T01:05:15.969Z</time>
</trkpt>
<trkpt lat="-26.7496309" lon="152.9655284">
<ele>45.501</ele>
<time>2017-10-25T01:05:18.796Z</time>
</trkpt>
<trkpt lat="-26.7490310" lon="152.9655557">
<ele>49.484</ele>
<time>2017-10-25T01:05:22.180Z</time>
</trkpt>
<trkpt lat="-26.7484237" lon="152.9656834">
<ele>51.673</ele>
<time>2017-10-25T01:05:25.288Z</time>
</trkpt>
<trkpt lat="-26.7477943" lon="152.9657685">
<ele>52.632</ele>
<time>2017-10-25T01:05:28.390Z</time>
</trkpt>
<trkpt lat="-26.7472187" lon="152.9658989">
<ele>53.341</ele>
<time>2017-10-25T01:05:31.258Z</time>
</trkpt>
<trkpt lat="-26.7466782" lon="152.9660830">
<ele>54.409</ele>
<time>2017-10-25T01:05:34.129Z</time>
</trkpt>
<trkpt lat="-26.7461764" lon="152.9662394">
<ele>56.298</ele>
<time>2017-10-25T01:05:36.979Z</time>
</trkpt>
<trkpt lat="-26.7456652" lon="152.9663209">
<ele>59.496</ele>
<time>2017-10-25T01:05:39.978Z</time>
</trkpt>
<trkpt lat="-26.7450880" lon="152.9660238">
<ele>63.785</ele>
<time>2017-10-25T01:05:43.434Z</time>
</trkpt>
<trkpt lat="-26.7445827" lon="152.9656866">
<ele>67.941</ele>
<time>2017-10-25T01:05:46.462Z</time>
</trkpt>
<trkpt lat="-26.7440583" lon="152.9655494">
<ele>71.038</ele>
<time>2017-10-25T01:05:49.335Z</time>
</trkpt>
<trkpt lat="-26.7435496" lon="152.9656345">
<ele>73.281</ele>
<time>2017-10-25T01:05:52.292Z</time>
</trkpt>
<trkpt lat="-26.7430909" lon="152.9659384">
<ele>75.824</ele>
<time>2017-10-25T01:05:55.400Z</time>
</trkpt>
<trkpt lat="-26.7426430" lon="152.9661434">
<ele>79.498</ele>
<time>2017-10-25T01:05:58.273Z</time>
</trkpt>
<trkpt lat="-26.7423643" lon="152.9664770">
<ele>83.973</ele>
<time>2017-10-25T01:06:00.988Z</time>
</trkpt>
<trkpt lat="-26.7421551" lon="152.9665118">
<ele>88.387</ele>
<time>2017-10-25T01:06:02.959Z</time>
</trkpt>
<trkpt lat="-26.7420224" lon="152.9660668">
<ele>92.308</ele>
<time>2017-10-25T01:06:07.025Z</time>
</trkpt>
<trkpt lat="-26.7418177" lon="152.9654753">
<ele>95.329</ele>
<time>2017-10-25T01:06:10.554Z</time>
</trkpt>
<trkpt lat="-26.7415859" lon="152.9650527">
<ele>96.810</ele>
<time>2017-10-25T01:06:13.326Z</time>
</trkpt>
<trkpt lat="-26.7413768" lon="152.9649155">
<ele>96.116</ele>
<time>2017-10-25T01:06:15.482Z</time>
</trkpt>
<trkpt lat="-26.7412143" lon="152.9651912">
<ele>93.511</ele>
<time>2017-10-25T01:06:18.499Z</time>
</trkpt>
<trkpt lat="-26.7411534" lon="152.9655670">
<ele>90.566</ele>
<time>2017-10-25T01:06:21.358Z</time>
</trkpt>
<trkpt lat="-26.7410498" lon="152.9658731">
<ele>88.757</ele>
<time>2017-10-25T01:06:23.472Z</time>
</trkpt>
<trkpt lat="-26.7409535" lon="152.9661124">
<ele>88.067</ele>
<time>2017-10-25T01:06:25.276Z</time>
</trkpt>
<trkpt lat="-26.7408476" lon="152.9662358">
<ele>87.790</ele>
<time>2017-10-25T01:06:26.655Z</time>
</trkpt>
<trkpt lat="-26.7407021" lon="152.9661738">
<ele>87.535</ele>
<time>2017-10-25T01:06:28.434Z</time>
</trkpt>
<trkpt lat="-26.7405520" lon="152.9658867">
<ele>87.511</ele>
<time>2017-10-25T01:06:31.595Z</time>
</trkpt>
<trkpt lat="-26.7404981" lon="152.9655085">
<ele>88.158</ele>
<time>2017-10-25T01:06:34.091Z</time>
</trkpt>
<trkpt lat="-26.7405962" lon="152.9651050">
<ele>89.704</ele>
<time>2017-10-25T01:06:36.422Z</time>
</trkpt>
<trkpt lat="-26.7405096" lon="152.9647407">
<ele>94.828</ele>
<time>2017-10-25T01:06:38.452Z</time>
</trkpt>
<trkpt lat="-26.7403035" lon="152.9642158">
<ele>104.824</ele>
<time>2017-10-25T01:06:41.527Z</time>
</trkpt>
<trkpt lat="-26.7401436" lon="152.9636794">
<ele>114.661</ele>
<time>2017-10-25T01:06:44.580Z</time>
</trkpt>
<trkpt lat="-26.7398051" lon="152.9633388">
<ele>119.701</ele>
<time>2017-10-25T01:06:47.387Z</time>
</trkpt>
<trkpt lat="-26.7393805" lon="152.9630639">
<ele>122.355</ele>
<time>2017-10-25T01:06:50.423Z</time>
</trkpt>
<trkpt lat="-26.7388905" lon="152.9628811">
<ele>125.612</ele>
<time>2017-10-25T01:06:53.492Z</time>
</trkpt>
<trkpt lat="-26.7383643" lon="152.9627215">
<ele>128.260</ele>
<time>2017-10-25T01:06:56.592Z</time>
</trkpt>
<trkpt lat="-26.7378439" lon="152.9627747">
<ele>128.082</ele>
<time>2017-10-25T01:06:59.602Z</time>
</trkpt>
<trkpt lat="-26.7373586" lon="152.9629676">
<ele>125.109</ele>
<time>2017-10-25T01:07:02.637Z</time>
</trkpt>
<trkpt lat="-26.7368660" lon="152.9631405">
<ele>120.181</ele>
<time>2017-10-25T01:07:05.732Z</time>
</trkpt>
<trkpt lat="-26.7363878" lon="152.9630406">
<ele>114.348</ele>
<time>2017-10-25T01:07:08.740Z</time>
</trkpt>
<trkpt lat="-26.7359885" lon="152.9627176">
<ele>108.570</ele>
<time>2017-10-25T01:07:11.756Z</time>
</trkpt>
<trkpt lat="-26.7357049" lon="152.9622023">
<ele>103.160</ele>
<time>2017-10-25T01:07:14.967Z</time>
</trkpt>
<trkpt lat="-26.7354573" lon="152.9617163">
<ele>97.981</ele>
<time>2017-10-25T01:07:17.859Z</time>
</trkpt>
<trkpt lat="-26.7351639" lon="152.9612338">
<ele>90.725</ele>
<time>2017-10-25T01:07:20.756Z</time>
</trkpt>
<trkpt lat="-26.7348269" lon="152.9607127">
<ele>80.011</ele>
<time>2017-10-25T01:07:23.909Z</time>
</trkpt>
<trkpt lat="-26.7344878" lon="152.9602594">
<ele>69.405</ele>
<time>2017-10-25T01:07:26.802Z</time>
</trkpt>
<trkpt lat="-26.7339757" lon="152.9598991">
<ele>62.896</ele>
<time>2017-10-25T01:07:29.956Z</time>
</trkpt>
<trkpt lat="-26.7333729" lon="152.9598812">
<ele>60.425</ele>
<time>2017-10-25T01:07:32.962Z</time>
</trkpt>
<trkpt lat="-26.7327538" lon="152.9598853">
<ele>60.320</ele>
<time>2017-10-25T01:07:36.078Z</time>
</trkpt>
<trkpt lat="-26.7321956" lon="152.9598300">
<ele>60.920</ele>
<time>2017-10-25T01:07:39.076Z</time>
</trkpt>
<trkpt lat="-26.7316897" lon="152.9598158">
<ele>61.085</ele>
<time>2017-10-25T01:07:42.023Z</time>
</trkpt>
<trkpt lat="-26.7312312" lon="152.9597775">
<ele>60.121</ele>
<time>2017-10-25T01:07:44.915Z</time>
</trkpt>
<trkpt lat="-26.7308009" lon="152.9597745">
<ele>57.939</ele>
<time>2017-10-25T01:07:47.711Z</time>
</trkpt>
<trkpt lat="-26.7303146" lon="152.9597242">
<ele>55.263</ele>
<time>2017-10-25T01:07:50.891Z</time>
</trkpt>
<trkpt lat="-26.7298724" lon="152.9596555">
<ele>53.023</ele>
<time>2017-10-25T01:07:53.894Z</time>
</trkpt>
<trkpt lat="-26.7294859" lon="152.9595647">
<ele>51.536</ele>
<time>2017-10-25T01:07:56.758Z</time>
</trkpt>
<trkpt lat="-26.7291466" lon="152.9594011">
<ele>50.131</ele>
<time>2017-10-25T01:07:59.595Z</time>
</trkpt>
<trkpt lat="-26.7287662" lon="152.9592849">
<ele>47.930</ele>
<time>2017-10-25T01:08:02.602Z</time>
</trkpt>
<trkpt lat="-26.7283311" lon="152.9592884">
<ele>45.182</ele>
<time>2017-10-25T01:08:05.765Z</time>
</trkpt>
<trkpt lat="-26.7278926" lon="152.9592885">
<ele>43.011</ele>
<time>2017-10-25T01:08:08.859Z</time>
</trkpt>
<trkpt lat="-26.7274764" lon="152.9592645">
<ele>41.543</ele>
<time>2017-10-25T01:08:11.760Z</time>
</trkpt>
<trkpt lat="-26.7270781" lon="152.9590868">
<ele>39.738</ele>
<time>2017-10-25T01:08:14.716Z</time>
</trkpt>
<trkpt lat="-26.7267408" lon="152.9587547">
<ele>37.301</ele>
<time>2017-10-25T01:08:17.925Z</time>
</trkpt>
<trkpt lat="-26.7264577" lon="152.9584840">
<ele>35.187</ele>
<time>2017-10-25T01:08:20.826Z</time>
</trkpt>
<trkpt lat="-26.7262637" lon="152.9581926">
<ele>33.834</ele>
<time>2017-10-25T01:08:23.679Z</time>
</trkpt>
<trkpt lat="-26.7260860" lon="152.9579814">
<ele>32.899</ele>
<time>2017-10-25T01:08:26.394Z</time>
</trkpt>
<trkpt lat="-26.7258959" lon="152.9579154">
<ele>32.510</ele>
<time>2017-10-25T01:08:28.770Z</time>
</trkpt>
<trkpt lat="-26.7256534" lon="152.9580895">
<ele>32.833</ele>
<time>2017-10-25T01:08:31.955Z</time>
</trkpt>
<trkpt lat="-26.7254087" lon="152.9584114">
<ele>33.285</ele>
<time>2017-10-25T01:08:35.162Z</time>
</trkpt>
<trkpt lat="-26.7251422" lon="152.9587673">
<ele>33.196</ele>
<time>2017-10-25T01:08:38.195Z</time>
</trkpt>
<trkpt lat="-26.7248348" lon="152.9591389">
<ele>32.412</ele>
<time>2017-10-25T01:08:41.289Z</time>
</trkpt>
<trkpt lat="-26.7244894" lon="152.9594596">
<ele>31.227</ele>
<time>2017-10-25T01:08:44.186Z</time>
</trkpt>
<trkpt lat="-26.7239809" lon="152.9595109">
<ele>30.053</ele>
<time>2017-10-25T01:08:47.340Z</time>
</trkpt>
<trkpt lat="-26.7235063" lon="152.9593355">
<ele>29.182</ele>
<time>2017-10-25T01:08:50.363Z</time>
</trkpt>
<trkpt lat="-26.7231276" lon="152.9589552">
<ele>28.788</ele>
<time>2017-10-25T01:08:53.412Z</time>
</trkpt>
<trkpt lat="-26.7228429" lon="152.9584960">
<ele>28.925</ele>
<time>2017-10-25T01:08:56.428Z</time>
</trkpt>
<trkpt lat="-26.7225782" lon="152.9580513">
<ele>29.403</ele>
<time>2017-10-25T01:08:59.450Z</time>
</trkpt>
<trkpt lat="-26.7222520" lon="152.9577706">
<ele>29.896</ele>
<time>2017-10-25T01:09:02.176Z</time>
</trkpt>
<trkpt lat="-26.7219330" lon="152.9577332">
<ele>30.398</ele>
<time>2017-10-25T01:09:04.218Z</time>
</trkpt>
<trkpt lat="-26.7214019" lon="152.9577139">
<ele>31.163</ele>
<time>2017-10-25T01:09:07.393Z</time>
</trkpt>
<trkpt lat="-26.7209052" lon="152.9575822">
<ele>32.143</ele>
<time>2017-10-25T01:09:10.307Z</time>
</trkpt>
<trkpt lat="-26.7204377" lon="152.9573105">
<ele>33.205</ele>
<time>2017-10-25T01:09:13.300Z</time>
</trkpt>
<trkpt lat="-26.7199948" lon="152.9570204">
<ele>34.402</ele>
<time>2017-10-25T01:09:16.296Z</time>
</trkpt>
<trkpt lat="-26.7195650" lon="152.9567920">
<ele>35.518</ele>
<time>2017-10-25T01:09:19.302Z</time>
</trkpt>
<trkpt lat="-26.7191747" lon="152.9568853">
<ele>36.172</ele>
<time>2017-10-25T01:09:21.967Z</time>
</trkpt>
<trkpt lat="-26.7188001" lon="152.9573517">
<ele>36.894</ele>
<time>2017-10-25T01:09:25.445Z</time>
</trkpt>
<trkpt lat="-26.7185107" lon="152.9578518">
<ele>38.265</ele>
<time>2017-10-25T01:09:28.684Z</time>
</trkpt>
<trkpt lat="-26.7181481" lon="152.9580936">
<ele>39.293</ele>
<time>2017-10-25T01:09:31.400Z</time>
</trkpt>
<trkpt lat="-26.7176201" lon="152.9580415">
<ele>38.917</ele>
<time>2017-10-25T01:09:34.697Z</time>
</trkpt>
<trkpt lat="-26.7170758" lon="152.9580008">
<ele>37.772</ele>
<time>2017-10-25T01:09:37.974Z</time>
</trkpt>
<trkpt lat="-26.7166459" lon="152.9581162">
<ele>39.229</ele>
<time>2017-10-25T01:09:40.706Z</time>
</trkpt>
<trkpt lat="-26.7162296" lon="152.9582767">
<ele>45.043</ele>
<time>2017-10-25T01:09:43.526Z</time>
</trkpt>
<trkpt lat="-26.7158304" lon="152.9585271">
<ele>51.467</ele>
<time>2017-10-25T01:09:46.509Z</time>
</trkpt>
<trkpt lat="-26.7153741" lon="152.9586678">
<ele>55.098</ele>
<time>2017-10-25T01:09:49.554Z</time>
</trkpt>
<trkpt lat="-26.7149319" lon="152.9588124">
<ele>56.712</ele>
<time>2017-10-25T01:09:52.408Z</time>
</trkpt>
<trkpt lat="-26.7144231" lon="152.9589678">
<ele>56.949</ele>
<time>2017-10-25T01:09:55.468Z</time>
</trkpt>
<trkpt lat="-26.7138463" lon="152.9590686">
<ele>55.008</ele>
<time>2017-10-25T01:09:58.644Z</time>
</trkpt>
<trkpt lat="-26.7132956" lon="152.9591973">
<ele>50.309</ele>
<time>2017-10-25T01:10:01.694Z</time>
</trkpt>
<trkpt lat="-26.7127896" lon="152.9593147">
<ele>44.574</ele>
<time>2017-10-25T01:10:04.553Z</time>
</trkpt>
<trkpt lat="-26.7122336" lon="152.9593197">
<ele>40.620</ele>
<time>2017-10-25T01:10:07.636Z</time>
</trkpt>
<trkpt lat="-26.7116883" lon="152.9592895">
<ele>39.521</ele>
<time>2017-10-25T01:10:10.642Z</time>
</trkpt>
<trkpt lat="-26.7111285" lon="152.9592678">
<ele>40.695</ele>
<time>2017-10-25T01:10:13.657Z</time>
</trkpt>
<trkpt lat="-26.7105631" lon="152.9592486">
<ele>43.142</ele>
<time>2017-10-25T01:10:16.607Z</time>
</trkpt>
<trkpt lat="-26.7099634" lon="152.9592147">
<ele>45.668</ele>
<time>2017-10-25T01:10:19.734Z</time>
</trkpt>
<trkpt lat="-26.7094181" lon="152.9591457">
<ele>47.343</ele>
<time>2017-10-25T01:10:22.742Z</time>
</trkpt>
<trkpt lat="-26.7088941" lon="152.9591858">
<ele>48.370</ele>
<time>2017-10-25T01:10:25.759Z</time>
</trkpt>
<trkpt lat="-26.7084701" lon="152.9595831">
<ele>49.402</ele>
<time>2017-10-25T01:10:28.882Z</time>
</trkpt>
<trkpt lat="-26.7081263" lon="152.9600983">
<ele>49.793</ele>
<time>2017-10-25T01:10:32.051Z</time>
</trkpt>
<trkpt lat="-26.7077840" lon="152.9605454">
<ele>48.628</ele>
<time>2017-10-25T01:10:34.953Z</time>
</trkpt>
<trkpt lat="-26.7073916" lon="152.9609751">
<ele>46.648</ele>
<time>2017-10-25T01:10:37.897Z</time>
</trkpt>
<trkpt lat="-26.7069025" lon="152.9612877">
<ele>45.403</ele>
<time>2017-10-25T01:10:40.735Z</time>
</trkpt>
<trkpt lat="-26.7062844" lon="152.9614554">
<ele>46.002</ele>
<time>2017-10-25T01:10:43.743Z</time>
</trkpt>
<trkpt lat="-26.7056344" lon="152.9616608">
<ele>48.145</ele>
<time>2017-10-25T01:10:46.850Z</time>
</trkpt>
<trkpt lat="-26.7050028" lon="152.9617767">
<ele>50.239</ele>
<time>2017-10-25T01:10:49.871Z</time>
</trkpt>
<trkpt lat="-26.7043939" lon="152.9618372">
<ele>51.284</ele>
<time>2017-10-25T01:10:52.921Z</time>
</trkpt>
<trkpt lat="-26.7038257" lon="152.9619339">
<ele>51.803</ele>
<time>2017-10-25T01:10:55.904Z</time>
</trkpt>
<trkpt lat="-26.7032306" lon="152.9620632">
<ele>52.516</ele>
<time>2017-10-25T01:10:59.043Z</time>
</trkpt>
<trkpt lat="-26.7026372" lon="152.9621196">
<ele>53.384</ele>
<time>2017-10-25T01:11:02.092Z</time>
</trkpt>
<trkpt lat="-26.7020454" lon="152.9620837">
<ele>53.649</ele>
<time>2017-10-25T01:11:05.113Z</time>
</trkpt>
<trkpt lat="-26.7014719" lon="152.9620458">
<ele>52.961</ele>
<time>2017-10-25T01:11:08.032Z</time>
</trkpt>
<trkpt lat="-26.7008828" lon="152.9620093">
<ele>51.450</ele>
<time>2017-10-25T01:11:11.039Z</time>
</trkpt>
<trkpt lat="-26.7002971" lon="152.9619951">
<ele>49.302</ele>
<time>2017-10-25T01:11:14.070Z</time>
</trkpt>
<trkpt lat="-26.6997312" lon="152.9619428">
<ele>46.944</ele>
<time>2017-10-25T01:11:17.080Z</time>
</trkpt>
<trkpt lat="-26.6992013" lon="152.9618483">
<ele>44.860</ele>
<time>2017-10-25T01:11:20.054Z</time>
</trkpt>
<trkpt lat="-26.6987381" lon="152.9616342">
<ele>43.161</ele>
<time>2017-10-25T01:11:22.843Z</time>
</trkpt>
<trkpt lat="-26.6983758" lon="152.9611140">
<ele>41.861</ele>
<time>2017-10-25T01:11:25.950Z</time>
</trkpt>
<trkpt lat="-26.6980439" lon="152.9605701">
<ele>40.553</ele>
<time>2017-10-25T01:11:28.930Z</time>
</trkpt>
<trkpt lat="-26.6976203" lon="152.9601066">
<ele>38.746</ele>
<time>2017-10-25T01:11:31.923Z</time>
</trkpt>
<trkpt lat="-26.6970950" lon="152.9597704">
<ele>36.847</ele>
<time>2017-10-25T01:11:35.044Z</time>
</trkpt>
<trkpt lat="-26.6965319" lon="152.9596902">
<ele>35.865</ele>
<time>2017-10-25T01:11:38.079Z</time>
</trkpt>
<trkpt lat="-26.6960165" lon="152.9595606">
<ele>36.553</ele>
<time>2017-10-25T01:11:40.964Z</time>
</trkpt>
<trkpt lat="-26.6954727" lon="152.9597836">
<ele>38.599</ele>
<time>2017-10-25T01:11:44.140Z</time>
</trkpt>
<trkpt lat="-26.6949809" lon="152.9599876">
<ele>40.916</ele>
<time>2017-10-25T01:11:47.092Z</time>
</trkpt>
<trkpt lat="-26.6945059" lon="152.9601536">
<ele>42.711</ele>
<time>2017-10-25T01:11:49.952Z</time>
</trkpt>
<trkpt lat="-26.6940673" lon="152.9604539">
<ele>43.502</ele>
<time>2017-10-25T01:11:52.961Z</time>
</trkpt>
<trkpt lat="-26.6936461" lon="152.9607233">
<ele>42.839</ele>
<time>2017-10-25T01:11:55.865Z</time>
</trkpt>
<trkpt lat="-26.6932479" lon="152.9610080">
<ele>41.085</ele>
<time>2017-10-25T01:11:58.767Z</time>
</trkpt>
<trkpt lat="-26.6928748" lon="152.9612820">
<ele>39.350</ele>
<time>2017-10-25T01:12:01.589Z</time>
</trkpt>
<trkpt lat="-26.6925033" lon="152.9616177">
<ele>38.427</ele>
<time>2017-10-25T01:12:04.675Z</time>
</trkpt>
<trkpt lat="-26.6921943" lon="152.9619549">
<ele>38.238</ele>
<time>2017-10-25T01:12:07.637Z</time>
</trkpt>
<trkpt lat="-26.6920078" lon="152.9622863">
<ele>38.381</ele>
<time>2017-10-25T01:12:10.316Z</time>
</trkpt>
<trkpt lat="-26.6919585" lon="152.9626839">
<ele>38.622</ele>
<time>2017-10-25T01:12:13.456Z</time>
</trkpt>
<trkpt lat="-26.6919482" lon="152.9629794">
<ele>39.141</ele>
<time>2017-10-25T01:12:16.502Z</time>
</trkpt>
<trkpt lat="-26.6918977" lon="152.9630785">
<ele>40.232</ele>
<time>2017-10-25T01:12:18.019Z</time>
</trkpt>
<trkpt lat="-26.6918977" lon="152.9630785">
<ele>41.583</ele>
<time>2017-10-25T01:12:21.019Z</time>
</trkpt>
<trkpt lat="-26.6918977" lon="152.9630785">
<ele>42.369</ele>
<time>2017-10-25T01:12:21.253Z</time>
</trkpt>
<trkpt lat="-26.6918046" lon="152.9631986">
<ele>42.283</ele>
<time>2017-10-25T01:12:28.110Z</time>
</trkpt>
<trkpt lat="-26.6914860" lon="152.9630689">
<ele>41.818</ele>
<time>2017-10-25T01:12:31.974Z</time>
</trkpt>
<trkpt lat="-26.6911650" lon="152.9628779">
<ele>41.469</ele>
<time>2017-10-25T01:12:35.128Z</time>
</trkpt>
<trkpt lat="-26.6908285" lon="152.9627663">
<ele>41.301</ele>
<time>2017-10-25T01:12:38.075Z</time>
</trkpt>
<trkpt lat="-26.6904502" lon="152.9628818">
<ele>41.223</ele>
<time>2017-10-25T01:12:41.331Z</time>
</trkpt>
<trkpt lat="-26.6901190" lon="152.9629649">
<ele>41.309</ele>
<time>2017-10-25T01:12:44.166Z</time>
</trkpt>
<trkpt lat="-26.6897648" lon="152.9629864">
<ele>41.618</ele>
<time>2017-10-25T01:12:47.125Z</time>
</trkpt>
<trkpt lat="-26.6894294" lon="152.9631061">
<ele>41.909</ele>
<time>2017-10-25T01:12:50.083Z</time>
</trkpt>
<trkpt lat="-26.6890790" lon="152.9631566">
<ele>41.971</ele>
<time>2017-10-25T01:12:53.099Z</time>
</trkpt>
<trkpt lat="-26.6887566" lon="152.9631558">
<ele>42.108</ele>
<time>2017-10-25T01:12:55.819Z</time>
</trkpt>
<trkpt lat="-26.6883947" lon="152.9629775">
<ele>42.579</ele>
<time>2017-10-25T01:12:59.058Z</time>
</trkpt>
<trkpt lat="-26.6880402" lon="152.9628183">
<ele>43.006</ele>
<time>2017-10-25T01:13:02.316Z</time>
</trkpt>
<trkpt lat="-26.6877573" lon="152.9626942">
<ele>42.672</ele>
<time>2017-10-25T01:13:04.997Z</time>
</trkpt>
<trkpt lat="-26.6876422" lon="152.9622839">
<ele>41.453</ele>
<time>2017-10-25T01:13:08.006Z</time>
</trkpt>
<trkpt lat="-26.6874412" lon="152.9617920">
<ele>40.029</ele>
<time>2017-10-25T01:13:11.299Z</time>
</trkpt>
<trkpt lat="-26.6872640" lon="152.9613000">
<ele>39.062</ele>
<time>2017-10-25T01:13:14.270Z</time>
</trkpt>
<trkpt lat="-26.6870560" lon="152.9607952">
<ele>38.386</ele>
<time>2017-10-25T01:13:17.269Z</time>
</trkpt>
<trkpt lat="-26.6868092" lon="152.9603319">
<ele>37.341</ele>
<time>2017-10-25T01:13:20.286Z</time>
</trkpt>
<trkpt lat="-26.6865678" lon="152.9599492">
<ele>35.219</ele>
<time>2017-10-25T01:13:23.143Z</time>
</trkpt>
<trkpt lat="-26.6862247" lon="152.9596522">
<ele>31.925</ele>
<time>2017-10-25T01:13:26.394Z</time>
</trkpt>
<trkpt lat="-26.6859721" lon="152.9597070">
<ele>28.369</ele>
<time>2017-10-25T01:13:28.493Z</time>
</trkpt>
<trkpt lat="-26.6857380" lon="152.9597900">
<ele>25.609</ele>
<time>2017-10-25T01:13:30.763Z</time>
</trkpt>
<trkpt lat="-26.6855240" lon="152.9598785">
<ele>23.797</ele>
<time>2017-10-25T01:13:34.838Z</time>
</trkpt>
<trkpt lat="-26.6854112" lon="152.9598941">
<ele>22.551</ele>
<time>2017-10-25T01:13:37.694Z</time>
</trkpt>
<trkpt lat="-26.6853204" lon="152.9598730">
<ele>21.584</ele>
<time>2017-10-25T01:13:40.023Z</time>
</trkpt>
<trkpt lat="-26.6853204" lon="152.9598730">
<ele>20.874</ele>
<time>2017-10-25T01:13:41.023Z</time>
</trkpt>
<trkpt lat="-26.6853204" lon="152.9598730">
<ele>20.540</ele>
<time>2017-10-25T01:13:42.112Z</time>
</trkpt>
<trkpt lat="-26.6851928" lon="152.9600020">
<ele>20.667</ele>
<time>2017-10-25T01:13:51.783Z</time>
</trkpt>
<trkpt lat="-26.6850989" lon="152.9600039">
<ele>20.982</ele>
<time>2017-10-25T01:13:56.023Z</time>
</trkpt>
<trkpt lat="-26.6850989" lon="152.9600039">
<ele>21.115</ele>
<time>2017-10-25T01:13:57.023Z</time>
</trkpt>
<trkpt lat="-26.6850989" lon="152.9600039">
<ele>21.054</ele>
<time>2017-10-25T01:14:07.678Z</time>
</trkpt>
<trkpt lat="-26.6849264" lon="152.9599163">
<ele>20.986</ele>
<time>2017-10-25T01:14:22.980Z</time>
</trkpt>
<trkpt lat="-26.6848590" lon="152.9597394">
<ele>20.766</ele>
<time>2017-10-25T01:14:26.180Z</time>
</trkpt>
<trkpt lat="-26.6846798" lon="152.9596097">
<ele>20.082</ele>
<time>2017-10-25T01:14:30.404Z</time>
</trkpt>
<trkpt lat="-26.6845429" lon="152.9596534">
<ele>19.083</ele>
<time>2017-10-25T01:14:33.085Z</time>
</trkpt>
<trkpt lat="-26.6844001" lon="152.9596732">
<ele>18.506</ele>
<time>2017-10-25T01:14:35.286Z</time>
</trkpt>
<trkpt lat="-26.6841804" lon="152.9596199">
<ele>18.681</ele>
<time>2017-10-25T01:14:37.870Z</time>
</trkpt>
<trkpt lat="-26.6838887" lon="152.9595433">
<ele>19.092</ele>
<time>2017-10-25T01:14:40.673Z</time>
</trkpt>
<trkpt lat="-26.6835198" lon="152.9594539">
<ele>19.237</ele>
<time>2017-10-25T01:14:44.064Z</time>
</trkpt>
<trkpt lat="-26.6832101" lon="152.9593347">
<ele>19.168</ele>
<time>2017-10-25T01:14:47.139Z</time>
</trkpt>
<trkpt lat="-26.6829174" lon="152.9592008">
<ele>19.075</ele>
<time>2017-10-25T01:14:49.918Z</time>
</trkpt>
<trkpt lat="-26.6825690" lon="152.9590339">
<ele>18.981</ele>
<time>2017-10-25T01:14:52.926Z</time>
</trkpt>
<trkpt lat="-26.6822186" lon="152.9588233">
<ele>18.716</ele>
<time>2017-10-25T01:14:55.829Z</time>
</trkpt>
<trkpt lat="-26.6818529" lon="152.9585585">
<ele>18.176</ele>
<time>2017-10-25T01:14:58.849Z</time>
</trkpt>
<trkpt lat="-26.6814960" lon="152.9582715">
<ele>17.586</ele>
<time>2017-10-25T01:15:01.861Z</time>
</trkpt>
<trkpt lat="-26.6811982" lon="152.9579158">
<ele>17.242</ele>
<time>2017-10-25T01:15:04.947Z</time>
</trkpt>
<trkpt lat="-26.6809487" lon="152.9575424">
<ele>17.209</ele>
<time>2017-10-25T01:15:07.948Z</time>
</trkpt>
<trkpt lat="-26.6805965" lon="152.9572754">
<ele>17.477</ele>
<time>2017-10-25T01:15:11.011Z</time>
</trkpt>
<trkpt lat="-26.6803415" lon="152.9569408">
<ele>17.941</ele>
<time>2017-10-25T01:15:13.664Z</time>
</trkpt>
<trkpt lat="-26.6801725" lon="152.9564574">
<ele>18.430</ele>
<time>2017-10-25T01:15:16.488Z</time>
</trkpt>
<trkpt lat="-26.6800584" lon="152.9558443">
<ele>18.887</ele>
<time>2017-10-25T01:15:19.755Z</time>
</trkpt>
<trkpt lat="-26.6799899" lon="152.9552753">
<ele>19.252</ele>
<time>2017-10-25T01:15:22.805Z</time>
</trkpt>
<trkpt lat="-26.6799414" lon="152.9547339">
<ele>19.406</ele>
<time>2017-10-25T01:15:25.757Z</time>
</trkpt>
<trkpt lat="-26.6798451" lon="152.9542111">
<ele>19.188</ele>
<time>2017-10-25T01:15:28.591Z</time>
</trkpt>
<trkpt lat="-26.6797871" lon="152.9536293">
<ele>18.548</ele>
<time>2017-10-25T01:15:31.826Z</time>
</trkpt>
<trkpt lat="-26.6796907" lon="152.9531682">
<ele>17.822</ele>
<time>2017-10-25T01:15:34.822Z</time>
</trkpt>
<trkpt lat="-26.6795636" lon="152.9527642">
<ele>17.350</ele>
<time>2017-10-25T01:15:38.134Z</time>
</trkpt>
<trkpt lat="-26.6793262" lon="152.9525898">
<ele>16.994</ele>
<time>2017-10-25T01:15:40.796Z</time>
</trkpt>
<trkpt lat="-26.6789427" lon="152.9526776">
<ele>16.221</ele>
<time>2017-10-25T01:15:43.680Z</time>
</trkpt>
<trkpt lat="-26.6784659" lon="152.9528458">
<ele>14.949</ele>
<time>2017-10-25T01:15:46.784Z</time>
</trkpt>
<trkpt lat="-26.6779875" lon="152.9530114">
<ele>13.897</ele>
<time>2017-10-25T01:15:49.751Z</time>
</trkpt>
<trkpt lat="-26.6775047" lon="152.9532143">
<ele>13.579</ele>
<time>2017-10-25T01:15:52.703Z</time>
</trkpt>
<trkpt lat="-26.6769863" lon="152.9534070">
<ele>13.997</ele>
<time>2017-10-25T01:15:55.748Z</time>
</trkpt>
<trkpt lat="-26.6764979" lon="152.9535714">
<ele>15.258</ele>
<time>2017-10-25T01:15:58.921Z</time>
</trkpt>
<trkpt lat="-26.6761473" lon="152.9536940">
<ele>17.288</ele>
<time>2017-10-25T01:16:01.764Z</time>
</trkpt>
<trkpt lat="-26.6758289" lon="152.9538168">
<ele>19.464</ele>
<time>2017-10-25T01:16:04.615Z</time>
</trkpt>
<trkpt lat="-26.6754777" lon="152.9539471">
<ele>21.015</ele>
<time>2017-10-25T01:16:07.511Z</time>
</trkpt>
<trkpt lat="-26.6750605" lon="152.9541156">
<ele>21.650</ele>
<time>2017-10-25T01:16:10.537Z</time>
</trkpt>
<trkpt lat="-26.6746181" lon="152.9543227">
<ele>21.442</ele>
<time>2017-10-25T01:16:13.563Z</time>
</trkpt>
<trkpt lat="-26.6741629" lon="152.9545482">
<ele>20.293</ele>
<time>2017-10-25T01:16:16.487Z</time>
</trkpt>
<trkpt lat="-26.6736693" lon="152.9548391">
<ele>18.327</ele>
<time>2017-10-25T01:16:19.506Z</time>
</trkpt>
<trkpt lat="-26.6731589" lon="152.9551636">
<ele>16.357</ele>
<time>2017-10-25T01:16:22.542Z</time>
</trkpt>
<trkpt lat="-26.6726634" lon="152.9555003">
<ele>15.167</ele>
<time>2017-10-25T01:16:25.526Z</time>
</trkpt>
<trkpt lat="-26.6721487" lon="152.9558062">
<ele>15.376</ele>
<time>2017-10-25T01:16:28.677Z</time>
</trkpt>
<trkpt lat="-26.6717216" lon="152.9559291">
<ele>17.882</ele>
<time>2017-10-25T01:16:31.271Z</time>
</trkpt>
<trkpt lat="-26.6712412" lon="152.9559308">
<ele>22.473</ele>
<time>2017-10-25T01:16:34.159Z</time>
</trkpt>
<trkpt lat="-26.6707301" lon="152.9559130">
<ele>27.112</ele>
<time>2017-10-25T01:16:37.153Z</time>
</trkpt>
<trkpt lat="-26.6701919" lon="152.9559385">
<ele>30.010</ele>
<time>2017-10-25T01:16:40.145Z</time>
</trkpt>
<trkpt lat="-26.6696246" lon="152.9559505">
<ele>30.676</ele>
<time>2017-10-25T01:16:43.130Z</time>
</trkpt>
<trkpt lat="-26.6690375" lon="152.9559582">
<ele>29.007</ele>
<time>2017-10-25T01:16:46.144Z</time>
</trkpt>
<trkpt lat="-26.6684232" lon="152.9559204">
<ele>25.344</ele>
<time>2017-10-25T01:16:49.293Z</time>
</trkpt>
<trkpt lat="-26.6678427" lon="152.9559603">
<ele>21.076</ele>
<time>2017-10-25T01:16:52.268Z</time>
</trkpt>
<trkpt lat="-26.6672465" lon="152.9560023">
<ele>17.920</ele>
<time>2017-10-25T01:16:55.384Z</time>
</trkpt>
<trkpt lat="-26.6666906" lon="152.9559961">
<ele>16.570</ele>
<time>2017-10-25T01:16:58.409Z</time>
</trkpt>
<trkpt lat="-26.6661722" lon="152.9559578">
<ele>17.134</ele>
<time>2017-10-25T01:17:01.322Z</time>
</trkpt>
<trkpt lat="-26.6656227" lon="152.9559435">
<ele>19.122</ele>
<time>2017-10-25T01:17:04.254Z</time>
</trkpt>
<trkpt lat="-26.6649989" lon="152.9559432">
<ele>21.034</ele>
<time>2017-10-25T01:17:07.380Z</time>
</trkpt>
<trkpt lat="-26.6643964" lon="152.9559819">
<ele>21.672</ele>
<time>2017-10-25T01:17:10.512Z</time>
</trkpt>
<trkpt lat="-26.6638888" lon="152.9559679">
<ele>21.271</ele>
<time>2017-10-25T01:17:13.389Z</time>
</trkpt>
<trkpt lat="-26.6634069" lon="152.9560058">
<ele>20.927</ele>
<time>2017-10-25T01:17:16.460Z</time>
</trkpt>
<trkpt lat="-26.6630065" lon="152.9560580">
<ele>21.604</ele>
<time>2017-10-25T01:17:19.569Z</time>
</trkpt>
<trkpt lat="-26.6627755" lon="152.9562939">
<ele>23.110</ele>
<time>2017-10-25T01:17:22.850Z</time>
</trkpt>
<trkpt lat="-26.6625974" lon="152.9563885">
<ele>24.504</ele>
<time>2017-10-25T01:17:25.389Z</time>
</trkpt>
<trkpt lat="-26.6625043" lon="152.9560842">
<ele>25.209</ele>
<time>2017-10-25T01:17:28.248Z</time>
</trkpt>
<trkpt lat="-26.6624106" lon="152.9556358">
<ele>25.223</ele>
<time>2017-10-25T01:17:31.293Z</time>
</trkpt>
<trkpt lat="-26.6623013" lon="152.9551184">
<ele>24.714</ele>
<time>2017-10-25T01:17:34.278Z</time>
</trkpt>
<trkpt lat="-26.6622150" lon="152.9545415">
<ele>23.469</ele>
<time>2017-10-25T01:17:37.259Z</time>
</trkpt>
<trkpt lat="-26.6621498" lon="152.9539202">
<ele>21.078</ele>
<time>2017-10-25T01:17:40.207Z</time>
</trkpt>
<trkpt lat="-26.6620551" lon="152.9532443">
<ele>17.927</ele>
<time>2017-10-25T01:17:43.333Z</time>
</trkpt>
<trkpt lat="-26.6619526" lon="152.9526440">
<ele>15.261</ele>
<time>2017-10-25T01:17:46.275Z</time>
</trkpt>
<trkpt lat="-26.6618907" lon="152.9520780">
<ele>14.064</ele>
<time>2017-10-25T01:17:49.290Z</time>
</trkpt>
<trkpt lat="-26.6618441" lon="152.9515584">
<ele>14.337</ele>
<time>2017-10-25T01:17:52.264Z</time>
</trkpt>
<trkpt lat="-26.6617754" lon="152.9510655">
<ele>15.339</ele>
<time>2017-10-25T01:17:55.084Z</time>
</trkpt>
<trkpt lat="-26.6616304" lon="152.9505085">
<ele>16.297</ele>
<time>2017-10-25T01:17:58.159Z</time>
</trkpt>
<trkpt lat="-26.6615526" lon="152.9499201">
<ele>16.827</ele>
<time>2017-10-25T01:18:01.294Z</time>
</trkpt>
<trkpt lat="-26.6615071" lon="152.9494048">
<ele>16.986</ele>
<time>2017-10-25T01:18:04.132Z</time>
</trkpt>
<trkpt lat="-26.6614404" lon="152.9488984">
<ele>17.016</ele>
<time>2017-10-25T01:18:07.014Z</time>
</trkpt>
<trkpt lat="-26.6613838" lon="152.9483656">
<ele>16.915</ele>
<time>2017-10-25T01:18:10.345Z</time>
</trkpt>
<trkpt lat="-26.6613021" lon="152.9480080">
<ele>16.624</ele>
<time>2017-10-25T01:18:13.085Z</time>
</trkpt>
<trkpt lat="-26.6609986" lon="152.9478997">
<ele>16.489</ele>
<time>2017-10-25T01:18:15.800Z</time>
</trkpt>
<trkpt lat="-26.6605709" lon="152.9479870">
<ele>17.228</ele>
<time>2017-10-25T01:18:19.285Z</time>
</trkpt>
<trkpt lat="-26.6602416" lon="152.9480468">
<ele>19.231</ele>
<time>2017-10-25T01:18:22.417Z</time>
</trkpt>
<trkpt lat="-26.6600479" lon="152.9480172">
<ele>22.033</ele>
<time>2017-10-25T01:18:24.775Z</time>
</trkpt>
<trkpt lat="-26.6599693" lon="152.9477322">
<ele>24.747</ele>
<time>2017-10-25T01:18:27.784Z</time>
</trkpt>
<trkpt lat="-26.6599052" lon="152.9473259">
<ele>27.008</ele>
<time>2017-10-25T01:18:31.249Z</time>
</trkpt>
<trkpt lat="-26.6598725" lon="152.9469435">
<ele>28.961</ele>
<time>2017-10-25T01:18:34.480Z</time>
</trkpt>
<trkpt lat="-26.6598851" lon="152.9465865">
<ele>30.508</ele>
<time>2017-10-25T01:18:38.641Z</time>
</trkpt>
<trkpt lat="-26.6598034" lon="152.9465174">
<ele>31.215</ele>
<time>2017-10-25T01:18:40.141Z</time>
</trkpt>
<trkpt lat="-26.6595285" lon="152.9464643">
<ele>30.773</ele>
<time>2017-10-25T01:18:42.995Z</time>
</trkpt>
<trkpt lat="-26.6591329" lon="152.9464058">
<ele>29.109</ele>
<time>2017-10-25T01:18:46.196Z</time>
</trkpt>
<trkpt lat="-26.6588080" lon="152.9461281">
<ele>26.638</ele>
<time>2017-10-25T01:18:49.117Z</time>
</trkpt>
<trkpt lat="-26.6584638" lon="152.9457291">
<ele>24.260</ele>
<time>2017-10-25T01:18:52.302Z</time>
</trkpt>
<trkpt lat="-26.6582365" lon="152.9452312">
<ele>22.629</ele>
<time>2017-10-25T01:18:55.251Z</time>
</trkpt>
<trkpt lat="-26.6580790" lon="152.9446632">
<ele>21.804</ele>
<time>2017-10-25T01:18:58.272Z</time>
</trkpt>
<trkpt lat="-26.6579164" lon="152.9441043">
<ele>21.677</ele>
<time>2017-10-25T01:19:01.209Z</time>
</trkpt>
<trkpt lat="-26.6577202" lon="152.9434919">
<ele>22.089</ele>
<time>2017-10-25T01:19:04.286Z</time>
</trkpt>
<trkpt lat="-26.6574968" lon="152.9428674">
<ele>22.654</ele>
<time>2017-10-25T01:19:07.325Z</time>
</trkpt>
<trkpt lat="-26.6571141" lon="152.9423620">
<ele>22.884</ele>
<time>2017-10-25T01:19:10.374Z</time>
</trkpt>
<trkpt lat="-26.6567335" lon="152.9419462">
<ele>22.649</ele>
<time>2017-10-25T01:19:13.200Z</time>
</trkpt>
<trkpt lat="-26.6561842" lon="152.9417240">
<ele>22.348</ele>
<time>2017-10-25T01:19:16.269Z</time>
</trkpt>
<trkpt lat="-26.6555913" lon="152.9416840">
<ele>23.135</ele>
<time>2017-10-25T01:19:19.373Z</time>
</trkpt>
<trkpt lat="-26.6550640" lon="152.9416175">
<ele>26.324</ele>
<time>2017-10-25T01:19:22.458Z</time>
</trkpt>
<trkpt lat="-26.6548023" lon="152.9413232">
<ele>31.731</ele>
<time>2017-10-25T01:19:24.802Z</time>
</trkpt>
<trkpt lat="-26.6544929" lon="152.9408698">
<ele>37.655</ele>
<time>2017-10-25T01:19:27.889Z</time>
</trkpt>
<trkpt lat="-26.6540978" lon="152.9404601">
<ele>42.755</ele>
<time>2017-10-25T01:19:30.944Z</time>
</trkpt>
<trkpt lat="-26.6536483" lon="152.9400565">
<ele>46.762</ele>
<time>2017-10-25T01:19:34.159Z</time>
</trkpt>
<trkpt lat="-26.6532414" lon="152.9396609">
<ele>50.020</ele>
<time>2017-10-25T01:19:37.351Z</time>
</trkpt>
<trkpt lat="-26.6529250" lon="152.9393078">
<ele>53.141</ele>
<time>2017-10-25T01:19:40.497Z</time>
</trkpt>
<trkpt lat="-26.6526879" lon="152.9391003">
<ele>56.890</ele>
<time>2017-10-25T01:19:43.670Z</time>
</trkpt>
<trkpt lat="-26.6525525" lon="152.9390355">
<ele>61.399</ele>
<time>2017-10-25T01:19:45.610Z</time>
</trkpt>
<trkpt lat="-26.6522818" lon="152.9392573">
<ele>65.700</ele>
<time>2017-10-25T01:19:48.959Z</time>
</trkpt>
<trkpt lat="-26.6519924" lon="152.9396225">
<ele>69.102</ele>
<time>2017-10-25T01:19:52.176Z</time>
</trkpt>
<trkpt lat="-26.6517036" lon="152.9399759">
<ele>71.851</ele>
<time>2017-10-25T01:19:55.251Z</time>
</trkpt>
<trkpt lat="-26.6514475" lon="152.9403108">
<ele>74.297</ele>
<time>2017-10-25T01:19:58.037Z</time>
</trkpt>
<trkpt lat="-26.6511437" lon="152.9407120">
<ele>76.343</ele>
<time>2017-10-25T01:20:01.165Z</time>
</trkpt>
<trkpt lat="-26.6507871" lon="152.9410500">
<ele>77.628</ele>
<time>2017-10-25T01:20:04.340Z</time>
</trkpt>
<trkpt lat="-26.6505263" lon="152.9413439">
<ele>77.810</ele>
<time>2017-10-25T01:20:07.172Z</time>
</trkpt>
<trkpt lat="-26.6502861" lon="152.9416167">
<ele>77.004</ele>
<time>2017-10-25T01:20:10.024Z</time>
</trkpt>
<trkpt lat="-26.6500587" lon="152.9419227">
<ele>75.665</ele>
<time>2017-10-25T01:20:12.961Z</time>
</trkpt>
<trkpt lat="-26.6498007" lon="152.9422013">
<ele>74.047</ele>
<time>2017-10-25T01:20:15.824Z</time>
</trkpt>
<trkpt lat="-26.6495460" lon="152.9424903">
<ele>71.434</ele>
<time>2017-10-25T01:20:18.723Z</time>
</trkpt>
<trkpt lat="-26.6492812" lon="152.9427706">
<ele>67.242</ele>
<time>2017-10-25T01:20:21.743Z</time>
</trkpt>
<trkpt lat="-26.6491018" lon="152.9430528">
<ele>62.167</ele>
<time>2017-10-25T01:20:24.472Z</time>
</trkpt>
<trkpt lat="-26.6491333" lon="152.9434696">
<ele>57.043</ele>
<time>2017-10-25T01:20:27.889Z</time>
</trkpt>
<trkpt lat="-26.6493191" lon="152.9438084">
<ele>52.615</ele>
<time>2017-10-25T01:20:31.178Z</time>
</trkpt>
<trkpt lat="-26.6493455" lon="152.9440410">
<ele>50.440</ele>
<time>2017-10-25T01:20:33.060Z</time>
</trkpt>
<trkpt lat="-26.6492287" lon="152.9442756">
<ele>51.194</ele>
<time>2017-10-25T01:20:34.904Z</time>
</trkpt>
<trkpt lat="-26.6490307" lon="152.9445320">
<ele>53.670</ele>
<time>2017-10-25T01:20:37.026Z</time>
</trkpt>
<trkpt lat="-26.6488380" lon="152.9447600">
<ele>56.329</ele>
<time>2017-10-25T01:20:38.957Z</time>
</trkpt>
<trkpt lat="-26.6486527" lon="152.9449841">
<ele>58.247</ele>
<time>2017-10-25T01:20:40.915Z</time>
</trkpt>
<trkpt lat="-26.6484991" lon="152.9452053">
<ele>58.873</ele>
<time>2017-10-25T01:20:42.808Z</time>
</trkpt>
<trkpt lat="-26.6483143" lon="152.9454154">
<ele>57.952</ele>
<time>2017-10-25T01:20:44.804Z</time>
</trkpt>
<trkpt lat="-26.6480220" lon="152.9455363">
<ele>56.021</ele>
<time>2017-10-25T01:20:47.119Z</time>
</trkpt>
<trkpt lat="-26.6477555" lon="152.9456394">
<ele>54.277</ele>
<time>2017-10-25T01:20:49.222Z</time>
</trkpt>
<trkpt lat="-26.6475288" lon="152.9457749">
<ele>53.530</ele>
<time>2017-10-25T01:20:51.113Z</time>
</trkpt>
<trkpt lat="-26.6471204" lon="152.9459413">
<ele>53.734</ele>
<time>2017-10-25T01:20:54.212Z</time>
</trkpt>
<trkpt lat="-26.6467053" lon="152.9461396">
<ele>54.476</ele>
<time>2017-10-25T01:20:57.377Z</time>
</trkpt>
<trkpt lat="-26.6463846" lon="152.9464447">
<ele>55.364</ele>
<time>2017-10-25T01:21:00.435Z</time>
</trkpt>
<trkpt lat="-26.6460756" lon="152.9467018">
<ele>56.077</ele>
<time>2017-10-25T01:21:03.305Z</time>
</trkpt>
<trkpt lat="-26.6457303" lon="152.9469362">
<ele>56.417</ele>
<time>2017-10-25T01:21:06.259Z</time>
</trkpt>
<trkpt lat="-26.6453660" lon="152.9471823">
<ele>55.903</ele>
<time>2017-10-25T01:21:09.275Z</time>
</trkpt>
<trkpt lat="-26.6449462" lon="152.9472879">
<ele>53.759</ele>
<time>2017-10-25T01:21:12.240Z</time>
</trkpt>
<trkpt lat="-26.6445345" lon="152.9474272">
<ele>50.121</ele>
<time>2017-10-25T01:21:15.146Z</time>
</trkpt>
<trkpt lat="-26.6441278" lon="152.9476403">
<ele>46.002</ele>
<time>2017-10-25T01:21:18.101Z</time>
</trkpt>
<trkpt lat="-26.6437924" lon="152.9479702">
<ele>41.821</ele>
<time>2017-10-25T01:21:20.946Z</time>
</trkpt>
<trkpt lat="-26.6434598" lon="152.9483500">
<ele>37.323</ele>
<time>2017-10-25T01:21:23.954Z</time>
</trkpt>
<trkpt lat="-26.6431071" lon="152.9486791">
<ele>32.454</ele>
<time>2017-10-25T01:21:26.936Z</time>
</trkpt>
<trkpt lat="-26.6427565" lon="152.9489433">
<ele>27.647</ele>
<time>2017-10-25T01:21:29.727Z</time>
</trkpt>
<trkpt lat="-26.6423784" lon="152.9492612">
<ele>23.451</ele>
<time>2017-10-25T01:21:32.913Z</time>
</trkpt>
<trkpt lat="-26.6420598" lon="152.9495118">
<ele>20.274</ele>
<time>2017-10-25T01:21:35.656Z</time>
</trkpt>
<trkpt lat="-26.6417051" lon="152.9497377">
<ele>18.393</ele>
<time>2017-10-25T01:21:38.623Z</time>
</trkpt>
<trkpt lat="-26.6412754" lon="152.9497702">
<ele>17.864</ele>
<time>2017-10-25T01:21:41.826Z</time>
</trkpt>
<trkpt lat="-26.6408871" lon="152.9498060">
<ele>18.373</ele>
<time>2017-10-25T01:21:44.791Z</time>
</trkpt>
<trkpt lat="-26.6405016" lon="152.9498441">
<ele>19.264</ele>
<time>2017-10-25T01:21:47.693Z</time>
</trkpt>
<trkpt lat="-26.6400807" lon="152.9498890">
<ele>19.675</ele>
<time>2017-10-25T01:21:50.806Z</time>
</trkpt>
<trkpt lat="-26.6396848" lon="152.9499011">
<ele>19.048</ele>
<time>2017-10-25T01:21:53.769Z</time>
</trkpt>
<trkpt lat="-26.6392801" lon="152.9499704">
<ele>17.408</ele>
<time>2017-10-25T01:21:56.969Z</time>
</trkpt>
<trkpt lat="-26.6389279" lon="152.9500066">
<ele>15.437</ele>
<time>2017-10-25T01:21:59.826Z</time>
</trkpt>
<trkpt lat="-26.6385503" lon="152.9500199">
<ele>14.148</ele>
<time>2017-10-25T01:22:02.769Z</time>
</trkpt>
<trkpt lat="-26.6381132" lon="152.9499556">
<ele>13.901</ele>
<time>2017-10-25T01:22:05.981Z</time>
</trkpt>
<trkpt lat="-26.6376607" lon="152.9499692">
<ele>13.931</ele>
<time>2017-10-25T01:22:09.116Z</time>
</trkpt>
<trkpt lat="-26.6372253" lon="152.9501037">
<ele>13.552</ele>
<time>2017-10-25T01:22:12.194Z</time>
</trkpt>
<trkpt lat="-26.6368370" lon="152.9502175">
<ele>12.966</ele>
<time>2017-10-25T01:22:14.973Z</time>
</trkpt>
<trkpt lat="-26.6363933" lon="152.9501452">
<ele>12.957</ele>
<time>2017-10-25T01:22:18.096Z</time>
</trkpt>
<trkpt lat="-26.6359596" lon="152.9501223">
<ele>13.992</ele>
<time>2017-10-25T01:22:21.119Z</time>
</trkpt>
<trkpt lat="-26.6355433" lon="152.9502212">
<ele>15.538</ele>
<time>2017-10-25T01:22:24.087Z</time>
</trkpt>
<trkpt lat="-26.6351441" lon="152.9504022">
<ele>16.422</ele>
<time>2017-10-25T01:22:27.151Z</time>
</trkpt>
<trkpt lat="-26.6347546" lon="152.9505060">
<ele>16.242</ele>
<time>2017-10-25T01:22:30.203Z</time>
</trkpt>
<trkpt lat="-26.6344171" lon="152.9505917">
<ele>15.562</ele>
<time>2017-10-25T01:22:33.344Z</time>
</trkpt>
<trkpt lat="-26.6341860" lon="152.9506704">
<ele>14.800</ele>
<time>2017-10-25T01:22:36.427Z</time>
</trkpt>
<trkpt lat="-26.6340500" lon="152.9506761">
<ele>13.908</ele>
<time>2017-10-25T01:22:39.227Z</time>
</trkpt>
<trkpt lat="-26.6339443" lon="152.9506427">
<ele>12.970</ele>
<time>2017-10-25T01:22:41.975Z</time>
</trkpt>
<trkpt lat="-26.6338302" lon="152.9507010">
<ele>11.899</ele>
<time>2017-10-25T01:22:44.763Z</time>
</trkpt>
<trkpt lat="-26.6336508" lon="152.9510714">
<ele>10.528</ele>
<time>2017-10-25T01:22:48.881Z</time>
</trkpt>
<trkpt lat="-26.6334960" lon="152.9514409">
<ele>9.261</ele>
<time>2017-10-25T01:22:51.847Z</time>
</trkpt>
<trkpt lat="-26.6332929" lon="152.9518666">
<ele>8.586</ele>
<time>2017-10-25T01:22:55.145Z</time>
</trkpt>
<trkpt lat="-26.6330597" lon="152.9521823">
<ele>8.252</ele>
<time>2017-10-25T01:22:57.991Z</time>
</trkpt>
<trkpt lat="-26.6328148" lon="152.9524630">
<ele>7.752</ele>
<time>2017-10-25T01:23:00.862Z</time>
</trkpt>
<trkpt lat="-26.6326197" lon="152.9527481">
<ele>7.071</ele>
<time>2017-10-25T01:23:03.732Z</time>
</trkpt>
<trkpt lat="-26.6324797" lon="152.9529935">
<ele>6.403</ele>
<time>2017-10-25T01:23:06.441Z</time>
</trkpt>
<trkpt lat="-26.6323137" lon="152.9531847">
<ele>5.649</ele>
<time>2017-10-25T01:23:09.524Z</time>
</trkpt>
<trkpt lat="-26.6321168" lon="152.9532529">
<ele>4.844</ele>
<time>2017-10-25T01:23:12.494Z</time>
</trkpt>
<trkpt lat="-26.6320369" lon="152.9534899">
<ele>4.347</ele>
<time>2017-10-25T01:23:15.415Z</time>
</trkpt>
<trkpt lat="-26.6319110" lon="152.9537640">
<ele>4.299</ele>
<time>2017-10-25T01:23:18.372Z</time>
</trkpt>
<trkpt lat="-26.6315673" lon="152.9539546">
<ele>4.333</ele>
<time>2017-10-25T01:23:21.818Z</time>
</trkpt>
<trkpt lat="-26.6312201" lon="152.9540347">
<ele>4.146</ele>
<time>2017-10-25T01:23:24.920Z</time>
</trkpt>
<trkpt lat="-26.6308998" lon="152.9541153">
<ele>4.085</ele>
<time>2017-10-25T01:23:28.293Z</time>
</trkpt>
<trkpt lat="-26.6307281" lon="152.9542084">
<ele>5.001</ele>
<time>2017-10-25T01:23:31.462Z</time>
</trkpt>
<trkpt lat="-26.6305721" lon="152.9542646">
<ele>6.874</ele>
<time>2017-10-25T01:23:34.668Z</time>
</trkpt>
<trkpt lat="-26.6303234" lon="152.9543031">
<ele>8.551</ele>
<time>2017-10-25T01:23:39.349Z</time>
</trkpt>
<trkpt lat="-26.6300649" lon="152.9542458">
<ele>9.307</ele>
<time>2017-10-25T01:23:42.555Z</time>
</trkpt>
<trkpt lat="-26.6297681" lon="152.9541741">
<ele>9.460</ele>
<time>2017-10-25T01:23:45.766Z</time>
</trkpt>
<trkpt lat="-26.6294240" lon="152.9540759">
<ele>9.449</ele>
<time>2017-10-25T01:23:49.122Z</time>
</trkpt>
<trkpt lat="-26.6291501" lon="152.9538729">
<ele>9.450</ele>
<time>2017-10-25T01:23:52.054Z</time>
</trkpt>
<trkpt lat="-26.6288863" lon="152.9535540">
<ele>9.457</ele>
<time>2017-10-25T01:23:55.280Z</time>
</trkpt>
<trkpt lat="-26.6286292" lon="152.9532586">
<ele>9.685</ele>
<time>2017-10-25T01:23:58.250Z</time>
</trkpt>
<trkpt lat="-26.6284075" lon="152.9529329">
<ele>10.609</ele>
<time>2017-10-25T01:24:01.322Z</time>
</trkpt>
<trkpt lat="-26.6281804" lon="152.9526664">
<ele>12.120</ele>
<time>2017-10-25T01:24:04.349Z</time>
</trkpt>
<trkpt lat="-26.6279861" lon="152.9524635">
<ele>13.551</ele>
<time>2017-10-25T01:24:07.036Z</time>
</trkpt>
<trkpt lat="-26.6277839" lon="152.9522440">
<ele>14.817</ele>
<time>2017-10-25T01:24:10.097Z</time>
</trkpt>
<trkpt lat="-26.6276332" lon="152.9520559">
<ele>16.148</ele>
<time>2017-10-25T01:24:12.840Z</time>
</trkpt>
<trkpt lat="-26.6275393" lon="152.9519203">
<ele>17.246</ele>
<time>2017-10-25T01:24:15.044Z</time>
</trkpt>
<trkpt lat="-26.6274293" lon="152.9518088">
<ele>17.782</ele>
<time>2017-10-25T01:24:17.818Z</time>
</trkpt>
<trkpt lat="-26.6273186" lon="152.9516757">
<ele>17.860</ele>
<time>2017-10-25T01:24:20.936Z</time>
</trkpt>
<trkpt lat="-26.6271957" lon="152.9515253">
<ele>17.784</ele>
<time>2017-10-25T01:24:24.101Z</time>
</trkpt>
<trkpt lat="-26.6270451" lon="152.9513506">
<ele>17.785</ele>
<time>2017-10-25T01:24:27.328Z</time>
</trkpt>
<trkpt lat="-26.6268770" lon="152.9511589">
<ele>17.947</ele>
<time>2017-10-25T01:24:30.452Z</time>
</trkpt>
<trkpt lat="-26.6266807" lon="152.9509234">
<ele>18.338</ele>
<time>2017-10-25T01:24:33.612Z</time>
</trkpt>
<trkpt lat="-26.6264506" lon="152.9506468">
<ele>19.080</ele>
<time>2017-10-25T01:24:36.752Z</time>
</trkpt>
<trkpt lat="-26.6261933" lon="152.9503420">
<ele>20.181</ele>
<time>2017-10-25T01:24:39.839Z</time>
</trkpt>
<trkpt lat="-26.6259264" lon="152.9500226">
<ele>21.471</ele>
<time>2017-10-25T01:24:42.887Z</time>
</trkpt>
<trkpt lat="-26.6256658" lon="152.9497168">
<ele>22.757</ele>
<time>2017-10-25T01:24:45.847Z</time>
</trkpt>
<trkpt lat="-26.6254075" lon="152.9494099">
<ele>23.921</ele>
<time>2017-10-25T01:24:48.812Z</time>
</trkpt>
<trkpt lat="-26.6251585" lon="152.9490685">
<ele>24.929</ele>
<time>2017-10-25T01:24:51.845Z</time>
</trkpt>
<trkpt lat="-26.6249662" lon="152.9486602">
<ele>25.862</ele>
<time>2017-10-25T01:24:54.896Z</time>
</trkpt>
<trkpt lat="-26.6247554" lon="152.9482567">
<ele>26.830</ele>
<time>2017-10-25T01:24:57.929Z</time>
</trkpt>
<trkpt lat="-26.6245707" lon="152.9478663">
<ele>27.890</ele>
<time>2017-10-25T01:25:00.851Z</time>
</trkpt>
<trkpt lat="-26.6243191" lon="152.9475076">
<ele>28.967</ele>
<time>2017-10-25T01:25:03.921Z</time>
</trkpt>
<trkpt lat="-26.6240043" lon="152.9472867">
<ele>29.949</ele>
<time>2017-10-25T01:25:06.743Z</time>
</trkpt>
<trkpt lat="-26.6235781" lon="152.9472711">
<ele>31.005</ele>
<time>2017-10-25T01:25:09.959Z</time>
</trkpt>
<trkpt lat="-26.6232389" lon="152.9471238">
<ele>32.638</ele>
<time>2017-10-25T01:25:12.778Z</time>
</trkpt>
<trkpt lat="-26.6229671" lon="152.9468380">
<ele>35.010</ele>
<time>2017-10-25T01:25:15.780Z</time>
</trkpt>
<trkpt lat="-26.6227177" lon="152.9465264">
<ele>37.595</ele>
<time>2017-10-25T01:25:18.866Z</time>
</trkpt>
<trkpt lat="-26.6225966" lon="152.9462017">
<ele>39.928</ele>
<time>2017-10-25T01:25:21.640Z</time>
</trkpt>
<trkpt lat="-26.6226435" lon="152.9458023">
<ele>42.170</ele>
<time>2017-10-25T01:25:24.886Z</time>
</trkpt>
<trkpt lat="-26.6226174" lon="152.9454532">
<ele>44.785</ele>
<time>2017-10-25T01:25:27.751Z</time>
</trkpt>
<trkpt lat="-26.6224536" lon="152.9451482">
<ele>47.963</ele>
<time>2017-10-25T01:25:30.802Z</time>
</trkpt>
<trkpt lat="-26.6222140" lon="152.9449299">
<ele>51.191</ele>
<time>2017-10-25T01:25:33.961Z</time>
</trkpt>
<trkpt lat="-26.6220773" lon="152.9447094">
<ele>53.844</ele>
<time>2017-10-25T01:25:36.792Z</time>
</trkpt>
<trkpt lat="-26.6220031" lon="152.9445347">
<ele>55.915</ele>
<time>2017-10-25T01:25:39.268Z</time>
</trkpt>
<trkpt lat="-26.6219423" lon="152.9443726">
<ele>57.670</ele>
<time>2017-10-25T01:25:42.024Z</time>
</trkpt>
<trkpt lat="-26.6219423" lon="152.9443726">
<ele>59.052</ele>
<time>2017-10-25T01:25:48.024Z</time>
</trkpt>
<trkpt lat="-26.6219423" lon="152.9443726">
<ele>59.709</ele>
<time>2017-10-25T01:26:05.016Z</time>
</trkpt>
<trkpt lat="-26.6217325" lon="152.9443258">
<ele>59.615</ele>
<time>2017-10-25T01:26:10.211Z</time>
</trkpt>
<trkpt lat="-26.6214836" lon="152.9446621">
<ele>61.681</ele>
<time>2017-10-25T01:26:13.666Z</time>
</trkpt>
<trkpt lat="-26.6211178" lon="152.9450257">
<ele>67.767</ele>
<time>2017-10-25T01:26:16.959Z</time>
</trkpt>
<trkpt lat="-26.6206485" lon="152.9453473">
<ele>74.197</ele>
<time>2017-10-25T01:26:20.554Z</time>
</trkpt>
<trkpt lat="-26.6201870" lon="152.9453517">
<ele>77.127</ele>
<time>2017-10-25T01:26:23.682Z</time>
</trkpt>
<trkpt lat="-26.6197455" lon="152.9453759">
<ele>77.113</ele>
<time>2017-10-25T01:26:26.744Z</time>
</trkpt>
<trkpt lat="-26.6193189" lon="152.9455639">
<ele>75.985</ele>
<time>2017-10-25T01:26:29.862Z</time>
</trkpt>
<trkpt lat="-26.6190943" lon="152.9460308">
<ele>75.176</ele>
<time>2017-10-25T01:26:32.951Z</time>
</trkpt>
<trkpt lat="-26.6189837" lon="152.9465550">
<ele>75.103</ele>
<time>2017-10-25T01:26:36.055Z</time>
</trkpt>
<trkpt lat="-26.6188408" lon="152.9470384">
<ele>75.731</ele>
<time>2017-10-25T01:26:39.107Z</time>
</trkpt>
<trkpt lat="-26.6187412" lon="152.9474491">
<ele>76.790</ele>
<time>2017-10-25T01:26:41.799Z</time>
</trkpt>
<trkpt lat="-26.6186310" lon="152.9478920">
<ele>77.457</ele>
<time>2017-10-25T01:26:44.678Z</time>
</trkpt>
<trkpt lat="-26.6186180" lon="152.9483753">
<ele>76.877</ele>
<time>2017-10-25T01:26:47.605Z</time>
</trkpt>
<trkpt lat="-26.6187440" lon="152.9488529">
<ele>74.853</ele>
<time>2017-10-25T01:26:50.582Z</time>
</trkpt>
<trkpt lat="-26.6187753" lon="152.9493513">
<ele>71.521</ele>
<time>2017-10-25T01:26:53.640Z</time>
</trkpt>
<trkpt lat="-26.6189252" lon="152.9497894">
<ele>67.188</ele>
<time>2017-10-25T01:26:56.732Z</time>
</trkpt>
<trkpt lat="-26.6191044" lon="152.9501201">
<ele>62.721</ele>
<time>2017-10-25T01:26:59.443Z</time>
</trkpt>
<trkpt lat="-26.6192901" lon="152.9505061">
<ele>59.183</ele>
<time>2017-10-25T01:27:02.539Z</time>
</trkpt>
<trkpt lat="-26.6194721" lon="152.9508853">
<ele>56.596</ele>
<time>2017-10-25T01:27:05.597Z</time>
</trkpt>
<trkpt lat="-26.6196464" lon="152.9512463">
<ele>54.293</ele>
<time>2017-10-25T01:27:08.576Z</time>
</trkpt>
<trkpt lat="-26.6199040" lon="152.9515154">
<ele>52.150</ele>
<time>2017-10-25T01:27:11.570Z</time>
</trkpt>
<trkpt lat="-26.6201712" lon="152.9517113">
<ele>50.342</ele>
<time>2017-10-25T01:27:14.562Z</time>
</trkpt>
<trkpt lat="-26.6204083" lon="152.9518591">
<ele>48.999</ele>
<time>2017-10-25T01:27:17.479Z</time>
</trkpt>
<trkpt lat="-26.6205915" lon="152.9520699">
<ele>48.349</ele>
<time>2017-10-25T01:27:20.549Z</time>
</trkpt>
<trkpt lat="-26.6207687" lon="152.9522860">
<ele>48.695</ele>
<time>2017-10-25T01:27:23.583Z</time>
</trkpt>
<trkpt lat="-26.6209493" lon="152.9524920">
<ele>49.875</ele>
<time>2017-10-25T01:27:26.464Z</time>
</trkpt>
<trkpt lat="-26.6210520" lon="152.9527874">
<ele>51.046</ele>
<time>2017-10-25T01:27:29.351Z</time>
</trkpt>
<trkpt lat="-26.6211122" lon="152.9531677">
<ele>51.091</ele>
<time>2017-10-25T01:27:32.566Z</time>
</trkpt>
<trkpt lat="-26.6211585" lon="152.9535353">
<ele>49.320</ele>
<time>2017-10-25T01:27:35.603Z</time>
</trkpt>
<trkpt lat="-26.6210564" lon="152.9538984">
<ele>46.110</ele>
<time>2017-10-25T01:27:38.612Z</time>
</trkpt>
<trkpt lat="-26.6209513" lon="152.9541432">
<ele>42.834</ele>
<time>2017-10-25T01:27:40.627Z</time>
</trkpt>
<trkpt lat="-26.6208537" lon="152.9543947">
<ele>40.653</ele>
<time>2017-10-25T01:27:42.491Z</time>
</trkpt>
<trkpt lat="-26.6207306" lon="152.9546826">
<ele>39.724</ele>
<time>2017-10-25T01:27:44.502Z</time>
</trkpt>
<trkpt lat="-26.6206129" lon="152.9549716">
<ele>39.418</ele>
<time>2017-10-25T01:27:46.473Z</time>
</trkpt>
<trkpt lat="-26.6205029" lon="152.9552591">
<ele>39.227</ele>
<time>2017-10-25T01:27:48.428Z</time>
</trkpt>
<trkpt lat="-26.6204047" lon="152.9555440">
<ele>39.108</ele>
<time>2017-10-25T01:27:50.327Z</time>
</trkpt>
<trkpt lat="-26.6202753" lon="152.9558242">
<ele>39.195</ele>
<time>2017-10-25T01:27:52.262Z</time>
</trkpt>
<trkpt lat="-26.6201609" lon="152.9561236">
<ele>39.525</ele>
<time>2017-10-25T01:27:54.276Z</time>
</trkpt>
<trkpt lat="-26.6200475" lon="152.9563866">
<ele>40.070</ele>
<time>2017-10-25T01:27:56.104Z</time>
</trkpt>
<trkpt lat="-26.6199472" lon="152.9566714">
<ele>40.811</ele>
<time>2017-10-25T01:27:58.047Z</time>
</trkpt>
<trkpt lat="-26.6197820" lon="152.9570911">
<ele>41.678</ele>
<time>2017-10-25T01:28:00.987Z</time>
</trkpt>
<trkpt lat="-26.6196070" lon="152.9574940">
<ele>42.445</ele>
<time>2017-10-25T01:28:03.903Z</time>
</trkpt>
<trkpt lat="-26.6194559" lon="152.9579084">
<ele>42.902</ele>
<time>2017-10-25T01:28:06.923Z</time>
</trkpt>
<trkpt lat="-26.6192909" lon="152.9582784">
<ele>43.049</ele>
<time>2017-10-25T01:28:09.866Z</time>
</trkpt>
<trkpt lat="-26.6191726" lon="152.9586294">
<ele>43.041</ele>
<time>2017-10-25T01:28:12.567Z</time>
</trkpt>
<trkpt lat="-26.6190256" lon="152.9590435">
<ele>42.871</ele>
<time>2017-10-25T01:28:15.700Z</time>
</trkpt>
<trkpt lat="-26.6188415" lon="152.9594108">
<ele>42.343</ele>
<time>2017-10-25T01:28:18.706Z</time>
</trkpt>
<trkpt lat="-26.6186280" lon="152.9596633">
<ele>41.249</ele>
<time>2017-10-25T01:28:21.212Z</time>
</trkpt>
<trkpt lat="-26.6182176" lon="152.9597910">
<ele>39.198</ele>
<time>2017-10-25T01:28:24.410Z</time>
</trkpt>
<trkpt lat="-26.6177606" lon="152.9599230">
<ele>35.808</ele>
<time>2017-10-25T01:28:27.655Z</time>
</trkpt>
<trkpt lat="-26.6173271" lon="152.9600436">
<ele>31.592</ele>
<time>2017-10-25T01:28:30.742Z</time>
</trkpt>
<trkpt lat="-26.6169494" lon="152.9601707">
<ele>27.924</ele>
<time>2017-10-25T01:28:33.601Z</time>
</trkpt>
<trkpt lat="-26.6166416" lon="152.9604754">
<ele>25.747</ele>
<time>2017-10-25T01:28:36.632Z</time>
</trkpt>
<trkpt lat="-26.6164976" lon="152.9609040">
<ele>24.882</ele>
<time>2017-10-25T01:28:39.525Z</time>
</trkpt>
<trkpt lat="-26.6165641" lon="152.9614342">
<ele>24.402</ele>
<time>2017-10-25T01:28:42.781Z</time>
</trkpt>
<trkpt lat="-26.6167594" lon="152.9618792">
<ele>23.416</ele>
<time>2017-10-25T01:28:45.981Z</time>
</trkpt>
<trkpt lat="-26.6168974" lon="152.9621867">
<ele>21.646</ele>
<time>2017-10-25T01:28:48.552Z</time>
</trkpt>
<trkpt lat="-26.6169892" lon="152.9625286">
<ele>19.559</ele>
<time>2017-10-25T01:28:51.413Z</time>
</trkpt>
<trkpt lat="-26.6169835" lon="152.9629714">
<ele>17.926</ele>
<time>2017-10-25T01:28:54.685Z</time>
</trkpt>
<trkpt lat="-26.6169876" lon="152.9634394">
<ele>17.304</ele>
<time>2017-10-25T01:28:57.787Z</time>
</trkpt>
<trkpt lat="-26.6170042" lon="152.9638907">
<ele>17.588</ele>
<time>2017-10-25T01:29:00.709Z</time>
</trkpt>
<trkpt lat="-26.6169289" lon="152.9643255">
<ele>18.182</ele>
<time>2017-10-25T01:29:03.621Z</time>
</trkpt>
<trkpt lat="-26.6167186" lon="152.9647250">
<ele>18.627</ele>
<time>2017-10-25T01:29:06.798Z</time>
</trkpt>
<trkpt lat="-26.6165259" lon="152.9650799">
<ele>19.143</ele>
<time>2017-10-25T01:29:09.800Z</time>
</trkpt>
<trkpt lat="-26.6164386" lon="152.9654902">
<ele>20.235</ele>
<time>2017-10-25T01:29:12.908Z</time>
</trkpt>
<trkpt lat="-26.6163427" lon="152.9658475">
<ele>21.922</ele>
<time>2017-10-25T01:29:15.675Z</time>
</trkpt>
<trkpt lat="-26.6162318" lon="152.9662208">
<ele>23.570</ele>
<time>2017-10-25T01:29:18.629Z</time>
</trkpt>
<trkpt lat="-26.6161184" lon="152.9665951">
<ele>24.309</ele>
<time>2017-10-25T01:29:21.702Z</time>
</trkpt>
<trkpt lat="-26.6160755" lon="152.9669359">
<ele>23.773</ele>
<time>2017-10-25T01:29:24.526Z</time>
</trkpt>
<trkpt lat="-26.6160762" lon="152.9672800">
<ele>22.605</ele>
<time>2017-10-25T01:29:27.441Z</time>
</trkpt>
<trkpt lat="-26.6160658" lon="152.9676366">
<ele>21.671</ele>
<time>2017-10-25T01:29:30.581Z</time>
</trkpt>
<trkpt lat="-26.6160972" lon="152.9679107">
<ele>21.020</ele>
<time>2017-10-25T01:29:33.446Z</time>
</trkpt>
<trkpt lat="-26.6161714" lon="152.9680510">
<ele>19.850</ele>
<time>2017-10-25T01:29:35.603Z</time>
</trkpt>
<trkpt lat="-26.6162190" lon="152.9681747">
<ele>17.648</ele>
<time>2017-10-25T01:29:38.027Z</time>
</trkpt>
<trkpt lat="-26.6162190" lon="152.9681747">
<ele>15.192</ele>
<time>2017-10-25T01:29:43.027Z</time>
</trkpt>
<trkpt lat="-26.6162190" lon="152.9681747">
<ele>13.850</ele>
<time>2017-10-25T01:30:20.504Z</time>
</trkpt>
<trkpt lat="-26.6163325" lon="152.9683505">
<ele>13.952</ele>
<time>2017-10-25T01:30:31.349Z</time>
</trkpt>
<trkpt lat="-26.6164221" lon="152.9685870">
<ele>12.910</ele>
<time>2017-10-25T01:30:34.855Z</time>
</trkpt>
<trkpt lat="-26.6163859" lon="152.9688857">
<ele>8.702</ele>
<time>2017-10-25T01:30:37.606Z</time>
</trkpt>
<trkpt lat="-26.6161333" lon="152.9691902">
<ele>3.493</ele>
<time>2017-10-25T01:30:40.682Z</time>
</trkpt>
<trkpt lat="-26.6158496" lon="152.9694986">
<ele>0.000</ele>
<time>2017-10-25T01:30:43.522Z</time>
</trkpt>
<trkpt lat="-26.6154898" lon="152.9698141">
<ele>0.000</ele>
<time>2017-10-25T01:30:46.472Z</time>
</trkpt>
<trkpt lat="-26.6150678" lon="152.9701213">
<ele>0.000</ele>
<time>2017-10-25T01:30:49.503Z</time>
</trkpt>
<trkpt lat="-26.6146004" lon="152.9704228">
<ele>0.000</ele>
<time>2017-10-25T01:30:52.617Z</time>
</trkpt>
<trkpt lat="-26.6141256" lon="152.9707091">
<ele>0.000</ele>
<time>2017-10-25T01:30:55.662Z</time>
</trkpt>
<trkpt lat="-26.6136529" lon="152.9710106">
<ele>0.000</ele>
<time>2017-10-25T01:30:58.695Z</time>
</trkpt>
<trkpt lat="-26.6131511" lon="152.9712775">
<ele>0.000</ele>
<time>2017-10-25T01:31:01.764Z</time>
</trkpt>
<trkpt lat="-26.6126593" lon="152.9715021">
<ele>0.000</ele>
<time>2017-10-25T01:31:04.612Z</time>
</trkpt>
<trkpt lat="-26.6120867" lon="152.9716696">
<ele>0.000</ele>
<time>2017-10-25T01:31:07.603Z</time>
</trkpt>
<trkpt lat="-26.6114565" lon="152.9717561">
<ele>0.000</ele>
<time>2017-10-25T01:31:10.640Z</time>
</trkpt>
<trkpt lat="-26.6108038" lon="152.9718592">
<ele>0.000</ele>
<time>2017-10-25T01:31:13.747Z</time>
</trkpt>
<trkpt lat="-26.6101640" lon="152.9719465">
<ele>0.000</ele>
<time>2017-10-25T01:31:16.796Z</time>
</trkpt>
<trkpt lat="-26.6095494" lon="152.9720281">
<ele>0.000</ele>
<time>2017-10-25T01:31:19.632Z</time>
</trkpt>
<trkpt lat="-26.6089053" lon="152.9722576">
<ele>0.000</ele>
<time>2017-10-25T01:31:22.647Z</time>
</trkpt>
<trkpt lat="-26.6082665" lon="152.9724637">
<ele>0.000</ele>
<time>2017-10-25T01:31:25.643Z</time>
</trkpt>
<trkpt lat="-26.6076369" lon="152.9726093">
<ele>0.000</ele>
<time>2017-10-25T01:31:28.615Z</time>
</trkpt>
<trkpt lat="-26.6070082" lon="152.9727255">
<ele>2.558</ele>
<time>2017-10-25T01:31:31.634Z</time>
</trkpt>
<trkpt lat="-26.6063989" lon="152.9726681">
<ele>6.475</ele>
<time>2017-10-25T01:31:34.582Z</time>
</trkpt>
<trkpt lat="-26.6058242" lon="152.9724504">
<ele>10.512</ele>
<time>2017-10-25T01:31:37.542Z</time>
</trkpt>
<trkpt lat="-26.6052348" lon="152.9722186">
<ele>14.553</ele>
<time>2017-10-25T01:31:40.609Z</time>
</trkpt>
<trkpt lat="-26.6046401" lon="152.9720276">
<ele>17.996</ele>
<time>2017-10-25T01:31:43.570Z</time>
</trkpt>
<trkpt lat="-26.6039796" lon="152.9719451">
<ele>20.220</ele>
<time>2017-10-25T01:31:46.654Z</time>
</trkpt>
<trkpt lat="-26.6033550" lon="152.9718477">
<ele>21.105</ele>
<time>2017-10-25T01:31:49.617Z</time>
</trkpt>
<trkpt lat="-26.6027297" lon="152.9717230">
<ele>21.216</ele>
<time>2017-10-25T01:31:52.670Z</time>
</trkpt>
<trkpt lat="-26.6021218" lon="152.9716583">
<ele>21.622</ele>
<time>2017-10-25T01:31:55.667Z</time>
</trkpt>
<trkpt lat="-26.6015320" lon="152.9716249">
<ele>23.402</ele>
<time>2017-10-25T01:31:58.594Z</time>
</trkpt>
<trkpt lat="-26.6009360" lon="152.9715594">
<ele>26.607</ele>
<time>2017-10-25T01:32:01.493Z</time>
</trkpt>
<trkpt lat="-26.6002803" lon="152.9714720">
<ele>30.244</ele>
<time>2017-10-25T01:32:04.544Z</time>
</trkpt>
<trkpt lat="-26.5996056" lon="152.9712740">
<ele>33.733</ele>
<time>2017-10-25T01:32:07.708Z</time>
</trkpt>
<trkpt lat="-26.5990193" lon="152.9710091">
<ele>37.202</ele>
<time>2017-10-25T01:32:10.623Z</time>
</trkpt>
<trkpt lat="-26.5983890" lon="152.9707629">
<ele>40.466</ele>
<time>2017-10-25T01:32:13.711Z</time>
</trkpt>
<trkpt lat="-26.5977820" lon="152.9705614">
<ele>42.838</ele>
<time>2017-10-25T01:32:16.643Z</time>
</trkpt>
<trkpt lat="-26.5971538" lon="152.9704196">
<ele>43.704</ele>
<time>2017-10-25T01:32:19.646Z</time>
</trkpt>
<trkpt lat="-26.5965545" lon="152.9702138">
<ele>43.266</ele>
<time>2017-10-25T01:32:22.601Z</time>
</trkpt>
<trkpt lat="-26.5959165" lon="152.9700816">
<ele>42.670</ele>
<time>2017-10-25T01:32:25.618Z</time>
</trkpt>
<trkpt lat="-26.5952875" lon="152.9699368">
<ele>42.725</ele>
<time>2017-10-25T01:32:28.601Z</time>
</trkpt>
<trkpt lat="-26.5946794" lon="152.9697941">
<ele>43.124</ele>
<time>2017-10-25T01:32:31.487Z</time>
</trkpt>
<trkpt lat="-26.5940453" lon="152.9696294">
<ele>42.977</ele>
<time>2017-10-25T01:32:34.526Z</time>
</trkpt>
<trkpt lat="-26.5934429" lon="152.9694982">
<ele>41.697</ele>
<time>2017-10-25T01:32:37.503Z</time>
</trkpt>
<trkpt lat="-26.5928739" lon="152.9693736">
<ele>39.655</ele>
<time>2017-10-25T01:32:40.411Z</time>
</trkpt>
<trkpt lat="-26.5922869" lon="152.9692592">
<ele>37.625</ele>
<time>2017-10-25T01:32:43.398Z</time>
</trkpt>
<trkpt lat="-26.5916987" lon="152.9691312">
<ele>35.861</ele>
<time>2017-10-25T01:32:46.350Z</time>
</trkpt>
<trkpt lat="-26.5911021" lon="152.9689637">
<ele>34.317</ele>
<time>2017-10-25T01:32:49.342Z</time>
</trkpt>
<trkpt lat="-26.5905023" lon="152.9688049">
<ele>32.822</ele>
<time>2017-10-25T01:32:52.293Z</time>
</trkpt>
<trkpt lat="-26.5898660" lon="152.9686620">
<ele>30.850</ele>
<time>2017-10-25T01:32:55.340Z</time>
</trkpt>
<trkpt lat="-26.5892458" lon="152.9684950">
<ele>27.860</ele>
<time>2017-10-25T01:32:58.344Z</time>
</trkpt>
<trkpt lat="-26.5886400" lon="152.9683471">
<ele>23.974</ele>
<time>2017-10-25T01:33:01.369Z</time>
</trkpt>
<trkpt lat="-26.5880776" lon="152.9682031">
<ele>19.889</ele>
<time>2017-10-25T01:33:04.308Z</time>
</trkpt>
<trkpt lat="-26.5875639" lon="152.9679918">
<ele>16.184</ele>
<time>2017-10-25T01:33:07.109Z</time>
</trkpt>
<trkpt lat="-26.5870513" lon="152.9676211">
<ele>12.974</ele>
<time>2017-10-25T01:33:10.156Z</time>
</trkpt>
<trkpt lat="-26.5865695" lon="152.9671976">
<ele>10.117</ele>
<time>2017-10-25T01:33:13.141Z</time>
</trkpt>
<trkpt lat="-26.5861074" lon="152.9667121">
<ele>7.524</ele>
<time>2017-10-25T01:33:16.195Z</time>
</trkpt>
<trkpt lat="-26.5856321" lon="152.9662631">
<ele>5.316</ele>
<time>2017-10-25T01:33:19.171Z</time>
</trkpt>
<trkpt lat="-26.5850848" lon="152.9658853">
<ele>3.777</ele>
<time>2017-10-25T01:33:22.239Z</time>
</trkpt>
<trkpt lat="-26.5845223" lon="152.9655568">
<ele>3.055</ele>
<time>2017-10-25T01:33:25.331Z</time>
</trkpt>
<trkpt lat="-26.5840532" lon="152.9652081">
<ele>2.881</ele>
<time>2017-10-25T01:33:28.143Z</time>
</trkpt>
<trkpt lat="-26.5835324" lon="152.9648772">
<ele>2.755</ele>
<time>2017-10-25T01:33:31.117Z</time>
</trkpt>
<trkpt lat="-26.5830912" lon="152.9644236">
<ele>2.334</ele>
<time>2017-10-25T01:33:33.967Z</time>
</trkpt>
<trkpt lat="-26.5825805" lon="152.9638724">
<ele>1.531</ele>
<time>2017-10-25T01:33:37.232Z</time>
</trkpt>
<trkpt lat="-26.5821929" lon="152.9633029">
<ele>0.373</ele>
<time>2017-10-25T01:33:40.235Z</time>
</trkpt>
<trkpt lat="-26.5817663" lon="152.9628088">
<ele>0.000</ele>
<time>2017-10-25T01:33:43.234Z</time>
</trkpt>
<trkpt lat="-26.5813597" lon="152.9623625">
<ele>0.000</ele>
<time>2017-10-25T01:33:46.088Z</time>
</trkpt>
<trkpt lat="-26.5809508" lon="152.9618792">
<ele>0.000</ele>
<time>2017-10-25T01:33:49.124Z</time>
</trkpt>
<trkpt lat="-26.5805368" lon="152.9614269">
<ele>0.000</ele>
<time>2017-10-25T01:33:52.079Z</time>
</trkpt>
<trkpt lat="-26.5800780" lon="152.9609854">
<ele>0.203</ele>
<time>2017-10-25T01:33:55.125Z</time>
</trkpt>
<trkpt lat="-26.5796001" lon="152.9606044">
<ele>1.991</ele>
<time>2017-10-25T01:33:58.073Z</time>
</trkpt>
<trkpt lat="-26.5791042" lon="152.9602353">
<ele>3.262</ele>
<time>2017-10-25T01:34:01.094Z</time>
</trkpt>
<trkpt lat="-26.5786433" lon="152.9598539">
<ele>4.120</ele>
<time>2017-10-25T01:34:04.027Z</time>
</trkpt>
<trkpt lat="-26.5781415" lon="152.9594562">
<ele>5.378</ele>
<time>2017-10-25T01:34:07.173Z</time>
</trkpt>
<trkpt lat="-26.5776654" lon="152.9590995">
<ele>7.255</ele>
<time>2017-10-25T01:34:10.070Z</time>
</trkpt>
<trkpt lat="-26.5771778" lon="152.9586964">
<ele>9.246</ele>
<time>2017-10-25T01:34:13.089Z</time>
</trkpt>
<trkpt lat="-26.5766636" lon="152.9583101">
<ele>11.056</ele>
<time>2017-10-25T01:34:16.152Z</time>
</trkpt>
<trkpt lat="-26.5761582" lon="152.9579374">
<ele>12.624</ele>
<time>2017-10-25T01:34:19.147Z</time>
</trkpt>
<trkpt lat="-26.5756094" lon="152.9576398">
<ele>13.823</ele>
<time>2017-10-25T01:34:22.160Z</time>
</trkpt>
<trkpt lat="-26.5750513" lon="152.9573441">
<ele>14.683</ele>
<time>2017-10-25T01:34:25.219Z</time>
</trkpt>
<trkpt lat="-26.5744699" lon="152.9571774">
<ele>15.319</ele>
<time>2017-10-25T01:34:28.206Z</time>
</trkpt>
<trkpt lat="-26.5738856" lon="152.9569986">
<ele>15.710</ele>
<time>2017-10-25T01:34:31.249Z</time>
</trkpt>
<trkpt lat="-26.5733270" lon="152.9568115">
<ele>15.913</ele>
<time>2017-10-25T01:34:34.208Z</time>
</trkpt>
<trkpt lat="-26.5727565" lon="152.9566349">
<ele>16.117</ele>
<time>2017-10-25T01:34:37.189Z</time>
</trkpt>
<trkpt lat="-26.5722028" lon="152.9563946">
<ele>16.383</ele>
<time>2017-10-25T01:34:40.140Z</time>
</trkpt>
<trkpt lat="-26.5716087" lon="152.9562144">
<ele>16.598</ele>
<time>2017-10-25T01:34:43.183Z</time>
</trkpt>
<trkpt lat="-26.5712131" lon="152.9561105">
<ele>16.423</ele>
<time>2017-10-25T01:34:45.179Z</time>
</trkpt>
<trkpt lat="-26.5708007" lon="152.9560717">
<ele>15.615</ele>
<time>2017-10-25T01:34:47.203Z</time>
</trkpt>
<trkpt lat="-26.5703857" lon="152.9560370">
<ele>14.368</ele>
<time>2017-10-25T01:34:49.266Z</time>
</trkpt>
<trkpt lat="-26.5699935" lon="152.9559891">
<ele>12.859</ele>
<time>2017-10-25T01:34:51.296Z</time>
</trkpt>
<trkpt lat="-26.5696234" lon="152.9559723">
<ele>11.143</ele>
<time>2017-10-25T01:34:53.271Z</time>
</trkpt>
<trkpt lat="-26.5692563" lon="152.9559190">
<ele>9.591</ele>
<time>2017-10-25T01:34:55.270Z</time>
</trkpt>
<trkpt lat="-26.5688849" lon="152.9558865">
<ele>8.429</ele>
<time>2017-10-25T01:34:57.283Z</time>
</trkpt>
<trkpt lat="-26.5685225" lon="152.9558405">
<ele>7.454</ele>
<time>2017-10-25T01:34:59.258Z</time>
</trkpt>
<trkpt lat="-26.5681603" lon="152.9557992">
<ele>6.403</ele>
<time>2017-10-25T01:35:01.233Z</time>
</trkpt>
<trkpt lat="-26.5677850" lon="152.9557541">
<ele>5.120</ele>
<time>2017-10-25T01:35:03.284Z</time>
</trkpt>
<trkpt lat="-26.5672410" lon="152.9556864">
<ele>3.671</ele>
<time>2017-10-25T01:35:06.286Z</time>
</trkpt>
<trkpt lat="-26.5667183" lon="152.9556334">
<ele>2.425</ele>
<time>2017-10-25T01:35:09.241Z</time>
</trkpt>
<trkpt lat="-26.5662116" lon="152.9555682">
<ele>1.454</ele>
<time>2017-10-25T01:35:12.310Z</time>
</trkpt>
<trkpt lat="-26.5657778" lon="152.9554783">
<ele>0.459</ele>
<time>2017-10-25T01:35:15.192Z</time>
</trkpt>
<trkpt lat="-26.5653583" lon="152.9554162">
<ele>0.000</ele>
<time>2017-10-25T01:35:18.060Z</time>
</trkpt>
<trkpt lat="-26.5648933" lon="152.9553833">
<ele>0.000</ele>
<time>2017-10-25T01:35:21.388Z</time>
</trkpt>
<trkpt lat="-26.5645238" lon="152.9553628">
<ele>0.000</ele>
<time>2017-10-25T01:35:24.236Z</time>
</trkpt>
<trkpt lat="-26.5641680" lon="152.9553207">
<ele>0.000</ele>
<time>2017-10-25T01:35:27.113Z</time>
</trkpt>
<trkpt lat="-26.5638240" lon="152.9552431">
<ele>0.000</ele>
<time>2017-10-25T01:35:30.066Z</time>
</trkpt>
<trkpt lat="-26.5634899" lon="152.9551778">
<ele>0.155</ele>
<time>2017-10-25T01:35:33.239Z</time>
</trkpt>
<trkpt lat="-26.5632318" lon="152.9551936">
<ele>0.061</ele>
<time>2017-10-25T01:35:36.336Z</time>
</trkpt>
<trkpt lat="-26.5630931" lon="152.9552248">
<ele>0.000</ele>
<time>2017-10-25T01:35:38.955Z</time>
</trkpt>
<trkpt lat="-26.5630069" lon="152.9552693">
<ele>0.000</ele>
<time>2017-10-25T01:35:41.030Z</time>
</trkpt>
<trkpt lat="-26.5630069" lon="152.9552693">
<ele>0.000</ele>
<time>2017-10-25T01:35:45.030Z</time>
</trkpt>
<trkpt lat="-26.5630069" lon="152.9552693">
<ele>0.000</ele>
<time>2017-10-25T01:36:13.916Z</time>
</trkpt>
<trkpt lat="-26.5628054" lon="152.9552871">
<ele>0.000</ele>
<time>2017-10-25T01:36:19.494Z</time>
</trkpt>
<trkpt lat="-26.5625118" lon="152.9553721">
<ele>0.000</ele>
<time>2017-10-25T01:36:23.192Z</time>
</trkpt>
<trkpt lat="-26.5622423" lon="152.9554742">
<ele>0.000</ele>
<time>2017-10-25T01:36:26.163Z</time>
</trkpt>
<trkpt lat="-26.5619675" lon="152.9555796">
<ele>0.000</ele>
<time>2017-10-25T01:36:29.457Z</time>
</trkpt>
<trkpt lat="-26.5617621" lon="152.9556724">
<ele>0.000</ele>
<time>2017-10-25T01:36:32.653Z</time>
</trkpt>
<trkpt lat="-26.5616487" lon="152.9558020">
<ele>0.000</ele>
<time>2017-10-25T01:36:34.838Z</time>
</trkpt>
<trkpt lat="-26.5614142" lon="152.9559898">
<ele>0.000</ele>
<time>2017-10-25T01:36:38.007Z</time>
</trkpt>
<trkpt lat="-26.5611657" lon="152.9562304">
<ele>0.000</ele>
<time>2017-10-25T01:36:41.033Z</time>
</trkpt>
<trkpt lat="-26.5608151" lon="152.9563318">
<ele>0.000</ele>
<time>2017-10-25T01:36:44.070Z</time>
</trkpt>
<trkpt lat="-26.5604111" lon="152.9563531">
<ele>0.000</ele>
<time>2017-10-25T01:36:47.135Z</time>
</trkpt>
<trkpt lat="-26.5599627" lon="152.9563503">
<ele>0.000</ele>
<time>2017-10-25T01:36:50.242Z</time>
</trkpt>
<trkpt lat="-26.5595236" lon="152.9563635">
<ele>0.000</ele>
<time>2017-10-25T01:36:53.162Z</time>
</trkpt>
<trkpt lat="-26.5590669" lon="152.9563969">
<ele>0.000</ele>
<time>2017-10-25T01:36:56.181Z</time>
</trkpt>
<trkpt lat="-26.5586180" lon="152.9563946">
<ele>0.000</ele>
<time>2017-10-25T01:36:59.234Z</time>
</trkpt>
<trkpt lat="-26.5581925" lon="152.9563819">
<ele>0.000</ele>
<time>2017-10-25T01:37:02.260Z</time>
</trkpt>
<trkpt lat="-26.5577919" lon="152.9563336">
<ele>0.000</ele>
<time>2017-10-25T01:37:05.165Z</time>
</trkpt>
<trkpt lat="-26.5573563" lon="152.9563204">
<ele>0.000</ele>
<time>2017-10-25T01:37:08.194Z</time>
</trkpt>
<trkpt lat="-26.5568725" lon="152.9563487">
<ele>0.000</ele>
<time>2017-10-25T01:37:11.367Z</time>
</trkpt>
<trkpt lat="-26.5564061" lon="152.9564288">
<ele>0.000</ele>
<time>2017-10-25T01:37:14.406Z</time>
</trkpt>
<trkpt lat="-26.5559458" lon="152.9565384">
<ele>0.000</ele>
<time>2017-10-25T01:37:17.483Z</time>
</trkpt>
<trkpt lat="-26.5555112" lon="152.9565518">
<ele>0.000</ele>
<time>2017-10-25T01:37:20.400Z</time>
</trkpt>
<trkpt lat="-26.5550910" lon="152.9566618">
<ele>0.000</ele>
<time>2017-10-25T01:37:23.335Z</time>
</trkpt>
<trkpt lat="-26.5546583" lon="152.9567331">
<ele>0.000</ele>
<time>2017-10-25T01:37:26.233Z</time>
</trkpt>
<trkpt lat="-26.5541897" lon="152.9567824">
<ele>0.000</ele>
<time>2017-10-25T01:37:29.263Z</time>
</trkpt>
<trkpt lat="-26.5537149" lon="152.9568183">
<ele>0.000</ele>
<time>2017-10-25T01:37:32.341Z</time>
</trkpt>
<trkpt lat="-26.5532779" lon="152.9568659">
<ele>0.000</ele>
<time>2017-10-25T01:37:35.205Z</time>
</trkpt>
<trkpt lat="-26.5528167" lon="152.9568833">
<ele>0.000</ele>
<time>2017-10-25T01:37:38.169Z</time>
</trkpt>
<trkpt lat="-26.5523303" lon="152.9568957">
<ele>0.000</ele>
<time>2017-10-25T01:37:41.221Z</time>
</trkpt>
<trkpt lat="-26.5518563" lon="152.9568877">
<ele>0.000</ele>
<time>2017-10-25T01:37:44.116Z</time>
</trkpt>
<trkpt lat="-26.5513577" lon="152.9569242">
<ele>0.000</ele>
<time>2017-10-25T01:37:47.070Z</time>
</trkpt>
<trkpt lat="-26.5508072" lon="152.9569522">
<ele>0.000</ele>
<time>2017-10-25T01:37:50.161Z</time>
</trkpt>
<trkpt lat="-26.5502216" lon="152.9569557">
<ele>0.000</ele>
<time>2017-10-25T01:37:53.183Z</time>
</trkpt>
<trkpt lat="-26.5495825" lon="152.9569515">
<ele>0.000</ele>
<time>2017-10-25T01:37:56.183Z</time>
</trkpt>
<trkpt lat="-26.5488829" lon="152.9569503">
<ele>0.000</ele>
<time>2017-10-25T01:37:59.223Z</time>
</trkpt>
<trkpt lat="-26.5481470" lon="152.9569202">
<ele>0.000</ele>
<time>2017-10-25T01:38:02.281Z</time>
</trkpt>
<trkpt lat="-26.5474169" lon="152.9568594">
<ele>0.000</ele>
<time>2017-10-25T01:38:05.252Z</time>
</trkpt>
<trkpt lat="-26.5466646" lon="152.9568424">
<ele>0.000</ele>
<time>2017-10-25T01:38:08.242Z</time>
</trkpt>
<trkpt lat="-26.5459057" lon="152.9568147">
<ele>0.000</ele>
<time>2017-10-25T01:38:11.202Z</time>
</trkpt>
<trkpt lat="-26.5451154" lon="152.9567922">
<ele>0.000</ele>
<time>2017-10-25T01:38:14.277Z</time>
</trkpt>
<trkpt lat="-26.5443786" lon="152.9567300">
<ele>0.000</ele>
<time>2017-10-25T01:38:17.189Z</time>
</trkpt>
<trkpt lat="-26.5436215" lon="152.9566839">
<ele>0.000</ele>
<time>2017-10-25T01:38:20.133Z</time>
</trkpt>
<trkpt lat="-26.5428139" lon="152.9566435">
<ele>0.000</ele>
<time>2017-10-25T01:38:23.208Z</time>
</trkpt>
<trkpt lat="-26.5420245" lon="152.9566117">
<ele>0.000</ele>
<time>2017-10-25T01:38:26.256Z</time>
</trkpt>
<trkpt lat="-26.5412818" lon="152.9565561">
<ele>0.000</ele>
<time>2017-10-25T01:38:29.184Z</time>
</trkpt>
<trkpt lat="-26.5405321" lon="152.9564714">
<ele>0.000</ele>
<time>2017-10-25T01:38:32.192Z</time>
</trkpt>
<trkpt lat="-26.5398129" lon="152.9564610">
<ele>0.000</ele>
<time>2017-10-25T01:38:35.152Z</time>
</trkpt>
<trkpt lat="-26.5391317" lon="152.9563646">
<ele>0.000</ele>
<time>2017-10-25T01:38:38.100Z</time>
</trkpt>
<trkpt lat="-26.5384831" lon="152.9562234">
<ele>0.000</ele>
<time>2017-10-25T01:38:41.023Z</time>
</trkpt>
<trkpt lat="-26.5378572" lon="152.9560258">
<ele>0.000</ele>
<time>2017-10-25T01:38:43.955Z</time>
</trkpt>
<trkpt lat="-26.5373013" lon="152.9557123">
<ele>0.000</ele>
<time>2017-10-25T01:38:46.851Z</time>
</trkpt>
<trkpt lat="-26.5367720" lon="152.9553573">
<ele>0.000</ele>
<time>2017-10-25T01:38:49.818Z</time>
</trkpt>
<trkpt lat="-26.5362911" lon="152.9549405">
<ele>0.000</ele>
<time>2017-10-25T01:38:52.800Z</time>
</trkpt>
<trkpt lat="-26.5359370" lon="152.9543992">
<ele>0.000</ele>
<time>2017-10-25T01:38:55.802Z</time>
</trkpt>
<trkpt lat="-26.5356795" lon="152.9538274">
<ele>0.000</ele>
<time>2017-10-25T01:38:58.757Z</time>
</trkpt>
<trkpt lat="-26.5354341" lon="152.9532918">
<ele>0.000</ele>
<time>2017-10-25T01:39:01.610Z</time>
</trkpt>
<trkpt lat="-26.5351010" lon="152.9528063">
<ele>0.000</ele>
<time>2017-10-25T01:39:04.537Z</time>
</trkpt>
<trkpt lat="-26.5347200" lon="152.9523243">
<ele>0.000</ele>
<time>2017-10-25T01:39:07.597Z</time>
</trkpt>
<trkpt lat="-26.5343535" lon="152.9518526">
<ele>0.000</ele>
<time>2017-10-25T01:39:10.575Z</time>
</trkpt>
<trkpt lat="-26.5340008" lon="152.9513808">
<ele>0.000</ele>
<time>2017-10-25T01:39:13.544Z</time>
</trkpt>
<trkpt lat="-26.5336492" lon="152.9508939">
<ele>0.000</ele>
<time>2017-10-25T01:39:16.598Z</time>
</trkpt>
<trkpt lat="-26.5333119" lon="152.9504025">
<ele>0.000</ele>
<time>2017-10-25T01:39:19.630Z</time>
</trkpt>
<trkpt lat="-26.5329618" lon="152.9499617">
<ele>0.286</ele>
<time>2017-10-25T01:39:22.542Z</time>
</trkpt>
<trkpt lat="-26.5325802" lon="152.9495314">
<ele>2.109</ele>
<time>2017-10-25T01:39:25.603Z</time>
</trkpt>
<trkpt lat="-26.5321571" lon="152.9492130">
<ele>3.710</ele>
<time>2017-10-25T01:39:28.516Z</time>
</trkpt>
<trkpt lat="-26.5316386" lon="152.9490220">
<ele>5.152</ele>
<time>2017-10-25T01:39:31.568Z</time>
</trkpt>
<trkpt lat="-26.5310627" lon="152.9489340">
<ele>6.481</ele>
<time>2017-10-25T01:39:34.625Z</time>
</trkpt>
<trkpt lat="-26.5303979" lon="152.9489773">
<ele>7.601</ele>
<time>2017-10-25T01:39:37.898Z</time>
</trkpt>
<trkpt lat="-26.5297873" lon="152.9491086">
<ele>8.175</ele>
<time>2017-10-25T01:39:40.933Z</time>
</trkpt>
<trkpt lat="-26.5292349" lon="152.9493135">
<ele>7.932</ele>
<time>2017-10-25T01:39:43.856Z</time>
</trkpt>
<trkpt lat="-26.5286824" lon="152.9495289">
<ele>7.080</ele>
<time>2017-10-25T01:39:46.839Z</time>
</trkpt>
<trkpt lat="-26.5281305" lon="152.9497184">
<ele>6.112</ele>
<time>2017-10-25T01:39:49.809Z</time>
</trkpt>
<trkpt lat="-26.5275941" lon="152.9499153">
<ele>5.382</ele>
<time>2017-10-25T01:39:52.746Z</time>
</trkpt>
<trkpt lat="-26.5270333" lon="152.9501353">
<ele>4.951</ele>
<time>2017-10-25T01:39:55.790Z</time>
</trkpt>
<trkpt lat="-26.5264595" lon="152.9503296">
<ele>4.789</ele>
<time>2017-10-25T01:39:58.742Z</time>
</trkpt>
<trkpt lat="-26.5258518" lon="152.9505616">
<ele>4.814</ele>
<time>2017-10-25T01:40:01.814Z</time>
</trkpt>
<trkpt lat="-26.5252651" lon="152.9508006">
<ele>4.825</ele>
<time>2017-10-25T01:40:04.767Z</time>
</trkpt>
<trkpt lat="-26.5246514" lon="152.9509933">
<ele>4.608</ele>
<time>2017-10-25T01:40:07.752Z</time>
</trkpt>
<trkpt lat="-26.5240438" lon="152.9512330">
<ele>3.952</ele>
<time>2017-10-25T01:40:10.731Z</time>
</trkpt>
<trkpt lat="-26.5234281" lon="152.9514376">
<ele>2.853</ele>
<time>2017-10-25T01:40:13.675Z</time>
</trkpt>
<trkpt lat="-26.5227981" lon="152.9516342">
<ele>1.433</ele>
<time>2017-10-25T01:40:16.751Z</time>
</trkpt>
<trkpt lat="-26.5222230" lon="152.9516556">
<ele>0.000</ele>
<time>2017-10-25T01:40:19.696Z</time>
</trkpt>
<trkpt lat="-26.5217009" lon="152.9516939">
<ele>0.000</ele>
<time>2017-10-25T01:40:22.613Z</time>
</trkpt>
<trkpt lat="-26.5211936" lon="152.9517144">
<ele>0.000</ele>
<time>2017-10-25T01:40:25.519Z</time>
</trkpt>
<trkpt lat="-26.5206547" lon="152.9517458">
<ele>2.329</ele>
<time>2017-10-25T01:40:28.600Z</time>
</trkpt>
<trkpt lat="-26.5201464" lon="152.9517990">
<ele>6.199</ele>
<time>2017-10-25T01:40:31.567Z</time>
</trkpt>
<trkpt lat="-26.5196493" lon="152.9518542">
<ele>9.432</ele>
<time>2017-10-25T01:40:34.519Z</time>
</trkpt>
<trkpt lat="-26.5191405" lon="152.9519038">
<ele>11.111</ele>
<time>2017-10-25T01:40:37.469Z</time>
</trkpt>
<trkpt lat="-26.5185808" lon="152.9518858">
<ele>11.573</ele>
<time>2017-10-25T01:40:40.560Z</time>
</trkpt>
<trkpt lat="-26.5180340" lon="152.9518030">
<ele>11.512</ele>
<time>2017-10-25T01:40:43.495Z</time>
</trkpt>
<trkpt lat="-26.5174652" lon="152.9516733">
<ele>11.038</ele>
<time>2017-10-25T01:40:46.517Z</time>
</trkpt>
<trkpt lat="-26.5169227" lon="152.9514566">
<ele>9.785</ele>
<time>2017-10-25T01:40:49.601Z</time>
</trkpt>
<trkpt lat="-26.5164656" lon="152.9511896">
<ele>7.711</ele>
<time>2017-10-25T01:40:52.655Z</time>
</trkpt>
<trkpt lat="-26.5161316" lon="152.9509069">
<ele>5.227</ele>
<time>2017-10-25T01:40:55.430Z</time>
</trkpt>
<trkpt lat="-26.5157736" lon="152.9506356">
<ele>3.034</ele>
<time>2017-10-25T01:40:58.479Z</time>
</trkpt>
<trkpt lat="-26.5154436" lon="152.9503313">
<ele>1.846</ele>
<time>2017-10-25T01:41:01.543Z</time>
</trkpt>
<trkpt lat="-26.5151583" lon="152.9500029">
<ele>1.855</ele>
<time>2017-10-25T01:41:04.477Z</time>
</trkpt>
<trkpt lat="-26.5148707" lon="152.9496489">
<ele>2.596</ele>
<time>2017-10-25T01:41:07.459Z</time>
</trkpt>
<trkpt lat="-26.5145594" lon="152.9492320">
<ele>3.501</ele>
<time>2017-10-25T01:41:10.719Z</time>
</trkpt>
<trkpt lat="-26.5142728" lon="152.9488295">
<ele>4.344</ele>
<time>2017-10-25T01:41:13.848Z</time>
</trkpt>
<trkpt lat="-26.5140122" lon="152.9484839">
<ele>5.072</ele>
<time>2017-10-25T01:41:16.677Z</time>
</trkpt>
<trkpt lat="-26.5137347" lon="152.9480931">
<ele>5.815</ele>
<time>2017-10-25T01:41:19.785Z</time>
</trkpt>
<trkpt lat="-26.5134565" lon="152.9477224">
<ele>7.057</ele>
<time>2017-10-25T01:41:22.724Z</time>
</trkpt>
<trkpt lat="-26.5131380" lon="152.9473455">
<ele>9.006</ele>
<time>2017-10-25T01:41:25.811Z</time>
</trkpt>
<trkpt lat="-26.5128447" lon="152.9469662">
<ele>11.175</ele>
<time>2017-10-25T01:41:28.774Z</time>
</trkpt>
<trkpt lat="-26.5125700" lon="152.9465599">
<ele>12.796</ele>
<time>2017-10-25T01:41:31.786Z</time>
</trkpt>
<trkpt lat="-26.5123118" lon="152.9461862">
<ele>13.501</ele>
<time>2017-10-25T01:41:34.670Z</time>
</trkpt>
<trkpt lat="-26.5120660" lon="152.9458616">
<ele>13.379</ele>
<time>2017-10-25T01:41:37.590Z</time>
</trkpt>
<trkpt lat="-26.5118911" lon="152.9456213">
<ele>12.549</ele>
<time>2017-10-25T01:41:40.151Z</time>
</trkpt>
<trkpt lat="-26.5118221" lon="152.9453430">
<ele>11.106</ele>
<time>2017-10-25T01:41:42.861Z</time>
</trkpt>
<trkpt lat="-26.5118937" lon="152.9450324">
<ele>9.538</ele>
<time>2017-10-25T01:41:45.597Z</time>
</trkpt>
<trkpt lat="-26.5118245" lon="152.9445573">
<ele>8.631</ele>
<time>2017-10-25T01:41:48.798Z</time>
</trkpt>
<trkpt lat="-26.5117643" lon="152.9441751">
<ele>8.665</ele>
<time>2017-10-25T01:41:50.982Z</time>
</trkpt>
<trkpt lat="-26.5116707" lon="152.9437702">
<ele>9.151</ele>
<time>2017-10-25T01:41:53.158Z</time>
</trkpt>
<trkpt lat="-26.5115386" lon="152.9434062">
<ele>9.420</ele>
<time>2017-10-25T01:41:55.142Z</time>
</trkpt>
<trkpt lat="-26.5113946" lon="152.9430562">
<ele>9.137</ele>
<time>2017-10-25T01:41:57.060Z</time>
</trkpt>
<trkpt lat="-26.5111837" lon="152.9426982">
<ele>8.495</ele>
<time>2017-10-25T01:41:59.131Z</time>
</trkpt>
<trkpt lat="-26.5109792" lon="152.9423372">
<ele>7.925</ele>
<time>2017-10-25T01:42:01.149Z</time>
</trkpt>
<trkpt lat="-26.5107906" lon="152.9419901">
<ele>7.453</ele>
<time>2017-10-25T01:42:03.057Z</time>
</trkpt>
<trkpt lat="-26.5105547" lon="152.9416560">
<ele>6.615</ele>
<time>2017-10-25T01:42:05.038Z</time>
</trkpt>
<trkpt lat="-26.5102972" lon="152.9413138">
<ele>4.881</ele>
<time>2017-10-25T01:42:07.086Z</time>
</trkpt>
<trkpt lat="-26.5099401" lon="152.9407324">
<ele>2.123</ele>
<time>2017-10-25T01:42:10.292Z</time>
</trkpt>
<trkpt lat="-26.5097672" lon="152.9400922">
<ele>0.000</ele>
<time>2017-10-25T01:42:13.319Z</time>
</trkpt>
<trkpt lat="-26.5096863" lon="152.9394092">
<ele>0.000</ele>
<time>2017-10-25T01:42:16.389Z</time>
</trkpt>
<trkpt lat="-26.5096010" lon="152.9387560">
<ele>0.000</ele>
<time>2017-10-25T01:42:19.274Z</time>
</trkpt>
<trkpt lat="-26.5095296" lon="152.9380890">
<ele>0.000</ele>
<time>2017-10-25T01:42:22.151Z</time>
</trkpt>
<trkpt lat="-26.5094139" lon="152.9373566">
<ele>0.000</ele>
<time>2017-10-25T01:42:25.233Z</time>
</trkpt>
<trkpt lat="-26.5092639" lon="152.9366132">
<ele>2.437</ele>
<time>2017-10-25T01:42:28.306Z</time>
</trkpt>
<trkpt lat="-26.5090805" lon="152.9359389">
<ele>6.101</ele>
<time>2017-10-25T01:42:31.181Z</time>
</trkpt>
<trkpt lat="-26.5090394" lon="152.9352579">
<ele>8.749</ele>
<time>2017-10-25T01:42:34.068Z</time>
</trkpt>
<trkpt lat="-26.5089542" lon="152.9345691">
<ele>10.994</ele>
<time>2017-10-25T01:42:37.058Z</time>
</trkpt>
<trkpt lat="-26.5088703" lon="152.9338373">
<ele>13.352</ele>
<time>2017-10-25T01:42:40.179Z</time>
</trkpt>
<trkpt lat="-26.5088084" lon="152.9331556">
<ele>15.629</ele>
<time>2017-10-25T01:42:43.193Z</time>
</trkpt>
<trkpt lat="-26.5087291" lon="152.9326286">
<ele>17.307</ele>
<time>2017-10-25T01:42:45.866Z</time>
</trkpt>
<trkpt lat="-26.5084195" lon="152.9322670">
<ele>18.560</ele>
<time>2017-10-25T01:42:48.621Z</time>
</trkpt>
<trkpt lat="-26.5078265" lon="152.9320445">
<ele>19.840</ele>
<time>2017-10-25T01:42:52.075Z</time>
</trkpt>
<trkpt lat="-26.5073311" lon="152.9317177">
<ele>21.037</ele>
<time>2017-10-25T01:42:55.037Z</time>
</trkpt>
<trkpt lat="-26.5069859" lon="152.9312354">
<ele>22.174</ele>
<time>2017-10-25T01:42:57.986Z</time>
</trkpt>
<trkpt lat="-26.5068932" lon="152.9306333">
<ele>23.528</ele>
<time>2017-10-25T01:43:01.077Z</time>
</trkpt>
<trkpt lat="-26.5065700" lon="152.9302296">
<ele>25.150</ele>
<time>2017-10-25T01:43:03.966Z</time>
</trkpt>
<trkpt lat="-26.5060721" lon="152.9301138">
<ele>26.874</ele>
<time>2017-10-25T01:43:07.056Z</time>
</trkpt>
<trkpt lat="-26.5055593" lon="152.9300522">
<ele>28.263</ele>
<time>2017-10-25T01:43:10.105Z</time>
</trkpt>
<trkpt lat="-26.5050806" lon="152.9296954">
<ele>28.990</ele>
<time>2017-10-25T01:43:13.320Z</time>
</trkpt>
<trkpt lat="-26.5046495" lon="152.9292720">
<ele>29.264</ele>
<time>2017-10-25T01:43:16.468Z</time>
</trkpt>
<trkpt lat="-26.5042023" lon="152.9289107">
<ele>29.527</ele>
<time>2017-10-25T01:43:19.622Z</time>
</trkpt>
<trkpt lat="-26.5038989" lon="152.9285551">
<ele>30.112</ele>
<time>2017-10-25T01:43:22.304Z</time>
</trkpt>
<trkpt lat="-26.5037439" lon="152.9280996">
<ele>31.381</ele>
<time>2017-10-25T01:43:25.168Z</time>
</trkpt>
<trkpt lat="-26.5035089" lon="152.9277251">
<ele>33.362</ele>
<time>2017-10-25T01:43:27.999Z</time>
</trkpt>
<trkpt lat="-26.5030801" lon="152.9275609">
<ele>35.247</ele>
<time>2017-10-25T01:43:31.095Z</time>
</trkpt>
<trkpt lat="-26.5026147" lon="152.9274344">
<ele>35.880</ele>
<time>2017-10-25T01:43:34.171Z</time>
</trkpt>
<trkpt lat="-26.5022549" lon="152.9270155">
<ele>34.800</ele>
<time>2017-10-25T01:43:37.230Z</time>
</trkpt>
<trkpt lat="-26.5019008" lon="152.9265003">
<ele>32.631</ele>
<time>2017-10-25T01:43:40.344Z</time>
</trkpt>
<trkpt lat="-26.5013548" lon="152.9260795">
<ele>30.650</ele>
<time>2017-10-25T01:43:43.667Z</time>
</trkpt>
<trkpt lat="-26.5008359" lon="152.9257741">
<ele>29.648</ele>
<time>2017-10-25T01:43:46.619Z</time>
</trkpt>
<trkpt lat="-26.5004470" lon="152.9253249">
<ele>29.659</ele>
<time>2017-10-25T01:43:49.462Z</time>
</trkpt>
<trkpt lat="-26.5002375" lon="152.9249223">
<ele>30.397</ele>
<time>2017-10-25T01:43:51.603Z</time>
</trkpt>
<trkpt lat="-26.5000011" lon="152.9243700">
<ele>31.481</ele>
<time>2017-10-25T01:43:54.630Z</time>
</trkpt>
<trkpt lat="-26.4996151" lon="152.9239625">
<ele>32.641</ele>
<time>2017-10-25T01:43:57.755Z</time>
</trkpt>
<trkpt lat="-26.4990330" lon="152.9239341">
<ele>33.957</ele>
<time>2017-10-25T01:44:01.080Z</time>
</trkpt>
<trkpt lat="-26.4985259" lon="152.9237660">
<ele>35.653</ele>
<time>2017-10-25T01:44:04.031Z</time>
</trkpt>
<trkpt lat="-26.4981167" lon="152.9233873">
<ele>37.670</ele>
<time>2017-10-25T01:44:06.821Z</time>
</trkpt>
<trkpt lat="-26.4977879" lon="152.9227252">
<ele>39.580</ele>
<time>2017-10-25T01:44:10.111Z</time>
</trkpt>
<trkpt lat="-26.4973974" lon="152.9221451">
<ele>41.303</ele>
<time>2017-10-25T01:44:13.275Z</time>
</trkpt>
<trkpt lat="-26.4970603" lon="152.9216217">
<ele>43.785</ele>
<time>2017-10-25T01:44:16.423Z</time>
</trkpt>
<trkpt lat="-26.4968932" lon="152.9211609">
<ele>48.033</ele>
<time>2017-10-25T01:44:19.071Z</time>
</trkpt>
<trkpt lat="-26.4968974" lon="152.9205562">
<ele>53.549</ele>
<time>2017-10-25T01:44:22.506Z</time>
</trkpt>
<trkpt lat="-26.4968469" lon="152.9200831">
<ele>58.782</ele>
<time>2017-10-25T01:44:25.566Z</time>
</trkpt>
<trkpt lat="-26.4968941" lon="152.9196364">
<ele>63.314</ele>
<time>2017-10-25T01:44:28.615Z</time>
</trkpt>
<trkpt lat="-26.4970550" lon="152.9192507">
<ele>67.955</ele>
<time>2017-10-25T01:44:31.407Z</time>
</trkpt>
<trkpt lat="-26.4971794" lon="152.9187772">
<ele>73.004</ele>
<time>2017-10-25T01:44:34.354Z</time>
</trkpt>
<trkpt lat="-26.4971107" lon="152.9182447">
<ele>77.622</ele>
<time>2017-10-25T01:44:37.225Z</time>
</trkpt>
<trkpt lat="-26.4967722" lon="152.9177579">
<ele>80.757</ele>
<time>2017-10-25T01:44:40.307Z</time>
</trkpt>
<trkpt lat="-26.4965135" lon="152.9172192">
<ele>82.145</ele>
<time>2017-10-25T01:44:43.320Z</time>
</trkpt>
<trkpt lat="-26.4962989" lon="152.9166606">
<ele>82.882</ele>
<time>2017-10-25T01:44:46.335Z</time>
</trkpt>
<trkpt lat="-26.4960539" lon="152.9161196">
<ele>84.381</ele>
<time>2017-10-25T01:44:49.385Z</time>
</trkpt>
<trkpt lat="-26.4956745" lon="152.9157764">
<ele>86.884</ele>
<time>2017-10-25T01:44:52.062Z</time>
</trkpt>
<trkpt lat="-26.4951114" lon="152.9155873">
<ele>89.591</ele>
<time>2017-10-25T01:44:55.187Z</time>
</trkpt>
<trkpt lat="-26.4945381" lon="152.9155324">
<ele>92.040</ele>
<time>2017-10-25T01:44:58.306Z</time>
</trkpt>
<trkpt lat="-26.4940358" lon="152.9154441">
<ele>94.427</ele>
<time>2017-10-25T01:45:01.120Z</time>
</trkpt>
<trkpt lat="-26.4935842" lon="152.9150569">
<ele>97.236</ele>
<time>2017-10-25T01:45:04.276Z</time>
</trkpt>
<trkpt lat="-26.4932331" lon="152.9146318">
<ele>100.857</ele>
<time>2017-10-25T01:45:07.114Z</time>
</trkpt>
<trkpt lat="-26.4929894" lon="152.9140430">
<ele>104.902</ele>
<time>2017-10-25T01:45:10.154Z</time>
</trkpt>
<trkpt lat="-26.4929615" lon="152.9133164">
<ele>108.089</ele>
<time>2017-10-25T01:45:13.512Z</time>
</trkpt>
<trkpt lat="-26.4927727" lon="152.9127344">
<ele>109.202</ele>
<time>2017-10-25T01:45:16.543Z</time>
</trkpt>
<trkpt lat="-26.4926404" lon="152.9121801">
<ele>107.638</ele>
<time>2017-10-25T01:45:19.476Z</time>
</trkpt>
<trkpt lat="-26.4927742" lon="152.9115890">
<ele>103.632</ele>
<time>2017-10-25T01:45:22.463Z</time>
</trkpt>
<trkpt lat="-26.4926594" lon="152.9109243">
<ele>98.491</ele>
<time>2017-10-25T01:45:25.542Z</time>
</trkpt>
<trkpt lat="-26.4925541" lon="152.9102477">
<ele>93.703</ele>
<time>2017-10-25T01:45:28.617Z</time>
</trkpt>
<trkpt lat="-26.4924269" lon="152.9096256">
<ele>90.244</ele>
<time>2017-10-25T01:45:31.418Z</time>
</trkpt>
<trkpt lat="-26.4923094" lon="152.9089055">
<ele>88.464</ele>
<time>2017-10-25T01:45:34.327Z</time>
</trkpt>
<trkpt lat="-26.4922125" lon="152.9080838">
<ele>87.690</ele>
<time>2017-10-25T01:45:37.390Z</time>
</trkpt>
<trkpt lat="-26.4920652" lon="152.9073163">
<ele>86.678</ele>
<time>2017-10-25T01:45:40.358Z</time>
</trkpt>
<trkpt lat="-26.4919481" lon="152.9065919">
<ele>84.867</ele>
<time>2017-10-25T01:45:43.276Z</time>
</trkpt>
<trkpt lat="-26.4918445" lon="152.9058606">
<ele>82.515</ele>
<time>2017-10-25T01:45:46.300Z</time>
</trkpt>
<trkpt lat="-26.4917291" lon="152.9051630">
<ele>80.081</ele>
<time>2017-10-25T01:45:49.243Z</time>
</trkpt>
<trkpt lat="-26.4916568" lon="152.9044505">
<ele>77.815</ele>
<time>2017-10-25T01:45:52.238Z</time>
</trkpt>
<trkpt lat="-26.4915782" lon="152.9037536">
<ele>75.734</ele>
<time>2017-10-25T01:45:55.254Z</time>
</trkpt>
<trkpt lat="-26.4914970" lon="152.9031045">
<ele>74.041</ele>
<time>2017-10-25T01:45:58.150Z</time>
</trkpt>
<trkpt lat="-26.4913351" lon="152.9024309">
<ele>72.909</ele>
<time>2017-10-25T01:46:01.266Z</time>
</trkpt>
<trkpt lat="-26.4909536" lon="152.9019331">
<ele>72.085</ele>
<time>2017-10-25T01:46:04.206Z</time>
</trkpt>
<trkpt lat="-26.4905118" lon="152.9015066">
<ele>71.083</ele>
<time>2017-10-25T01:46:07.046Z</time>
</trkpt>
<trkpt lat="-26.4898386" lon="152.9013357">
<ele>69.402</ele>
<time>2017-10-25T01:46:10.205Z</time>
</trkpt>
<trkpt lat="-26.4891964" lon="152.9010789">
<ele>66.920</ele>
<time>2017-10-25T01:46:13.158Z</time>
</trkpt>
<trkpt lat="-26.4885643" lon="152.9006990">
<ele>63.992</ele>
<time>2017-10-25T01:46:16.197Z</time>
</trkpt>
<trkpt lat="-26.4879119" lon="152.9003714">
<ele>61.312</ele>
<time>2017-10-25T01:46:19.290Z</time>
</trkpt>
<trkpt lat="-26.4873401" lon="152.9000534">
<ele>59.857</ele>
<time>2017-10-25T01:46:22.185Z</time>
</trkpt>
<trkpt lat="-26.4868273" lon="152.8996376">
<ele>60.196</ele>
<time>2017-10-25T01:46:25.208Z</time>
</trkpt>
<trkpt lat="-26.4863644" lon="152.8992331">
<ele>62.088</ele>
<time>2017-10-25T01:46:28.188Z</time>
</trkpt>
<trkpt lat="-26.4858413" lon="152.8990819">
<ele>64.917</ele>
<time>2017-10-25T01:46:30.903Z</time>
</trkpt>
<trkpt lat="-26.4851764" lon="152.8991841">
<ele>67.990</ele>
<time>2017-10-25T01:46:34.062Z</time>
</trkpt>
<trkpt lat="-26.4844944" lon="152.8992983">
<ele>70.602</ele>
<time>2017-10-25T01:46:37.207Z</time>
</trkpt>
<trkpt lat="-26.4838790" lon="152.8993347">
<ele>72.338</ele>
<time>2017-10-25T01:46:40.168Z</time>
</trkpt>
<trkpt lat="-26.4833439" lon="152.8993636">
<ele>73.285</ele>
<time>2017-10-25T01:46:42.964Z</time>
</trkpt>
<trkpt lat="-26.4828325" lon="152.8991491">
<ele>73.712</ele>
<time>2017-10-25T01:46:45.962Z</time>
</trkpt>
<trkpt lat="-26.4823429" lon="152.8988490">
<ele>73.817</ele>
<time>2017-10-25T01:46:49.024Z</time>
</trkpt>
<trkpt lat="-26.4818923" lon="152.8984532">
<ele>73.423</ele>
<time>2017-10-25T01:46:51.991Z</time>
</trkpt>
<trkpt lat="-26.4814729" lon="152.8979275">
<ele>71.662</ele>
<time>2017-10-25T01:46:55.071Z</time>
</trkpt>
<trkpt lat="-26.4811166" lon="152.8973525">
<ele>67.647</ele>
<time>2017-10-25T01:46:58.105Z</time>
</trkpt>
<trkpt lat="-26.4808343" lon="152.8967726">
<ele>61.166</ele>
<time>2017-10-25T01:47:01.045Z</time>
</trkpt>
<trkpt lat="-26.4806878" lon="152.8960966">
<ele>53.125</ele>
<time>2017-10-25T01:47:04.254Z</time>
</trkpt>
<trkpt lat="-26.4809160" lon="152.8954867">
<ele>45.977</ele>
<time>2017-10-25T01:47:07.343Z</time>
</trkpt>
<trkpt lat="-26.4813039" lon="152.8949679">
<ele>42.764</ele>
<time>2017-10-25T01:47:10.649Z</time>
</trkpt>
<trkpt lat="-26.4813921" lon="152.8944215">
<ele>45.025</ele>
<time>2017-10-25T01:47:13.663Z</time>
</trkpt>
<trkpt lat="-26.4812453" lon="152.8939088">
<ele>51.489</ele>
<time>2017-10-25T01:47:16.602Z</time>
</trkpt>
<trkpt lat="-26.4808410" lon="152.8934728">
<ele>58.825</ele>
<time>2017-10-25T01:47:19.906Z</time>
</trkpt>
<trkpt lat="-26.4803780" lon="152.8931757">
<ele>63.987</ele>
<time>2017-10-25T01:47:23.158Z</time>
</trkpt>
<trkpt lat="-26.4800278" lon="152.8928895">
<ele>65.843</ele>
<time>2017-10-25T01:47:26.161Z</time>
</trkpt>
<trkpt lat="-26.4798209" lon="152.8925315">
<ele>64.598</ele>
<time>2017-10-25T01:47:28.988Z</time>
</trkpt>
<trkpt lat="-26.4799815" lon="152.8920966">
<ele>60.810</ele>
<time>2017-10-25T01:47:32.162Z</time>
</trkpt>
<trkpt lat="-26.4801432" lon="152.8916567">
<ele>55.584</ele>
<time>2017-10-25T01:47:35.584Z</time>
</trkpt>
<trkpt lat="-26.4798616" lon="152.8913326">
<ele>50.487</ele>
<time>2017-10-25T01:47:38.465Z</time>
</trkpt>
<trkpt lat="-26.4793769" lon="152.8913913">
<ele>46.459</ele>
<time>2017-10-25T01:47:41.222Z</time>
</trkpt>
<trkpt lat="-26.4787789" lon="152.8915228">
<ele>43.621</ele>
<time>2017-10-25T01:47:44.110Z</time>
</trkpt>
<trkpt lat="-26.4780552" lon="152.8916121">
<ele>41.684</ele>
<time>2017-10-25T01:47:47.405Z</time>
</trkpt>
<trkpt lat="-26.4774330" lon="152.8917841">
<ele>40.080</ele>
<time>2017-10-25T01:47:50.362Z</time>
</trkpt>
<trkpt lat="-26.4767772" lon="152.8919376">
<ele>38.667</ele>
<time>2017-10-25T01:47:53.583Z</time>
</trkpt>
<trkpt lat="-26.4761949" lon="152.8920562">
<ele>37.829</ele>
<time>2017-10-25T01:47:56.631Z</time>
</trkpt>
<trkpt lat="-26.4756597" lon="152.8921495">
<ele>38.178</ele>
<time>2017-10-25T01:47:59.417Z</time>
</trkpt>
<trkpt lat="-26.4750648" lon="152.8922862">
<ele>41.857</ele>
<time>2017-10-25T01:48:02.492Z</time>
</trkpt>
<trkpt lat="-26.4744874" lon="152.8923614">
<ele>49.048</ele>
<time>2017-10-25T01:48:05.951Z</time>
</trkpt>
<trkpt lat="-26.4740617" lon="152.8924645">
<ele>55.420</ele>
<time>2017-10-25T01:48:09.702Z</time>
</trkpt>
<trkpt lat="-26.4737829" lon="152.8925318">
<ele>57.919</ele>
<time>2017-10-25T01:48:13.263Z</time>
</trkpt>
<trkpt lat="-26.4736116" lon="152.8924411">
<ele>58.514</ele>
<time>2017-10-25T01:48:15.181Z</time>
</trkpt>
<trkpt lat="-26.4735910" lon="152.8922086">
<ele>59.563</ele>
<time>2017-10-25T01:48:16.991Z</time>
</trkpt>
<trkpt lat="-26.4737222" lon="152.8917094">
<ele>61.028</ele>
<time>2017-10-25T01:48:19.697Z</time>
</trkpt>
<trkpt lat="-26.4739096" lon="152.8910957">
<ele>62.279</ele>
<time>2017-10-25T01:48:22.628Z</time>
</trkpt>
<trkpt lat="-26.4740521" lon="152.8904200">
<ele>63.714</ele>
<time>2017-10-25T01:48:25.733Z</time>
</trkpt>
<trkpt lat="-26.4741493" lon="152.8897895">
<ele>65.433</ele>
<time>2017-10-25T01:48:28.716Z</time>
</trkpt>
<trkpt lat="-26.4742834" lon="152.8891756">
<ele>67.082</ele>
<time>2017-10-25T01:48:31.537Z</time>
</trkpt>
<trkpt lat="-26.4747415" lon="152.8886243">
<ele>68.402</ele>
<time>2017-10-25T01:48:34.752Z</time>
</trkpt>
<trkpt lat="-26.4751342" lon="152.8880743">
<ele>69.177</ele>
<time>2017-10-25T01:48:37.883Z</time>
</trkpt>
<trkpt lat="-26.4755456" lon="152.8876371">
<ele>69.507</ele>
<time>2017-10-25T01:48:40.891Z</time>
</trkpt>
<trkpt lat="-26.4760376" lon="152.8873363">
<ele>70.177</ele>
<time>2017-10-25T01:48:43.908Z</time>
</trkpt>
<trkpt lat="-26.4766082" lon="152.8872126">
<ele>71.610</ele>
<time>2017-10-25T01:48:47.044Z</time>
</trkpt>
<trkpt lat="-26.4771757" lon="152.8869599">
<ele>73.253</ele>
<time>2017-10-25T01:48:50.208Z</time>
</trkpt>
<trkpt lat="-26.4775410" lon="152.8863364">
<ele>74.408</ele>
<time>2017-10-25T01:48:53.516Z</time>
</trkpt>
<trkpt lat="-26.4777954" lon="152.8857112">
<ele>74.511</ele>
<time>2017-10-25T01:48:56.563Z</time>
</trkpt>
<trkpt lat="-26.4778042" lon="152.8852438">
<ele>73.499</ele>
<time>2017-10-25T01:48:58.628Z</time>
</trkpt>
<trkpt lat="-26.4777569" lon="152.8847643">
<ele>75.442</ele>
<time>2017-10-25T01:49:00.748Z</time>
</trkpt>
<trkpt lat="-26.4777518" lon="152.8843046">
<ele>83.013</ele>
<time>2017-10-25T01:49:02.759Z</time>
</trkpt>
<trkpt lat="-26.4777807" lon="152.8838346">
<ele>91.082</ele>
<time>2017-10-25T01:49:04.809Z</time>
</trkpt>
<trkpt lat="-26.4779193" lon="152.8833927">
<ele>94.595</ele>
<time>2017-10-25T01:49:06.834Z</time>
</trkpt>
<trkpt lat="-26.4780115" lon="152.8829364">
<ele>94.834</ele>
<time>2017-10-25T01:49:08.843Z</time>
</trkpt>
<trkpt lat="-26.4781011" lon="152.8824984">
<ele>94.214</ele>
<time>2017-10-25T01:49:10.725Z</time>
</trkpt>
<trkpt lat="-26.4783606" lon="152.8820709">
<ele>93.608</ele>
<time>2017-10-25T01:49:12.832Z</time>
</trkpt>
<trkpt lat="-26.4786339" lon="152.8816573">
<ele>92.442</ele>
<time>2017-10-25T01:49:14.905Z</time>
</trkpt>
<trkpt lat="-26.4788880" lon="152.8812543">
<ele>90.341</ele>
<time>2017-10-25T01:49:16.903Z</time>
</trkpt>
<trkpt lat="-26.4793364" lon="152.8807052">
<ele>88.181</ele>
<time>2017-10-25T01:49:19.974Z</time>
</trkpt>
<trkpt lat="-26.4797349" lon="152.8801424">
<ele>87.463</ele>
<time>2017-10-25T01:49:23.058Z</time>
</trkpt>
<trkpt lat="-26.4799841" lon="152.8794963">
<ele>89.138</ele>
<time>2017-10-25T01:49:26.216Z</time>
</trkpt>
<trkpt lat="-26.4800961" lon="152.8788430">
<ele>93.103</ele>
<time>2017-10-25T01:49:29.226Z</time>
</trkpt>
<trkpt lat="-26.4800547" lon="152.8782008">
<ele>101.735</ele>
<time>2017-10-25T01:49:32.038Z</time>
</trkpt>
<trkpt lat="-26.4798280" lon="152.8775508">
<ele>116.141</ele>
<time>2017-10-25T01:49:34.996Z</time>
</trkpt>
<trkpt lat="-26.4795416" lon="152.8768793">
<ele>130.127</ele>
<time>2017-10-25T01:49:38.143Z</time>
</trkpt>
<trkpt lat="-26.4793810" lon="152.8761923">
<ele>137.568</ele>
<time>2017-10-25T01:49:41.191Z</time>
</trkpt>
<trkpt lat="-26.4794756" lon="152.8754907">
<ele>139.427</ele>
<time>2017-10-25T01:49:44.301Z</time>
</trkpt>
<trkpt lat="-26.4797096" lon="152.8748519">
<ele>138.924</ele>
<time>2017-10-25T01:49:47.363Z</time>
</trkpt>
<trkpt lat="-26.4801366" lon="152.8743544">
<ele>138.496</ele>
<time>2017-10-25T01:49:50.425Z</time>
</trkpt>
<trkpt lat="-26.4806674" lon="152.8740091">
<ele>138.956</ele>
<time>2017-10-25T01:49:53.540Z</time>
</trkpt>
<trkpt lat="-26.4812204" lon="152.8737421">
<ele>140.226</ele>
<time>2017-10-25T01:49:56.794Z</time>
</trkpt>
<trkpt lat="-26.4817187" lon="152.8734682">
<ele>143.060</ele>
<time>2017-10-25T01:49:59.990Z</time>
</trkpt>
<trkpt lat="-26.4820773" lon="152.8730873">
<ele>148.045</ele>
<time>2017-10-25T01:50:02.845Z</time>
</trkpt>
<trkpt lat="-26.4823926" lon="152.8726135">
<ele>153.328</ele>
<time>2017-10-25T01:50:05.842Z</time>
</trkpt>
<trkpt lat="-26.4827600" lon="152.8721771">
<ele>156.543</ele>
<time>2017-10-25T01:50:08.829Z</time>
</trkpt>
<trkpt lat="-26.4830437" lon="152.8717060">
<ele>159.083</ele>
<time>2017-10-25T01:50:11.542Z</time>
</trkpt>
<trkpt lat="-26.4832833" lon="152.8711880">
<ele>163.075</ele>
<time>2017-10-25T01:50:14.189Z</time>
</trkpt>
<trkpt lat="-26.4835208" lon="152.8705569">
<ele>165.955</ele>
<time>2017-10-25T01:50:17.185Z</time>
</trkpt>
<trkpt lat="-26.4838921" lon="152.8699793">
<ele>164.598</ele>
<time>2017-10-25T01:50:20.262Z</time>
</trkpt>
<trkpt lat="-26.4843556" lon="152.8695135">
<ele>160.528</ele>
<time>2017-10-25T01:50:23.270Z</time>
</trkpt>
<trkpt lat="-26.4848905" lon="152.8691538">
<ele>156.572</ele>
<time>2017-10-25T01:50:26.307Z</time>
</trkpt>
<trkpt lat="-26.4854633" lon="152.8688994">
<ele>153.651</ele>
<time>2017-10-25T01:50:29.350Z</time>
</trkpt>
<trkpt lat="-26.4860750" lon="152.8687753">
<ele>151.266</ele>
<time>2017-10-25T01:50:32.494Z</time>
</trkpt>
<trkpt lat="-26.4866712" lon="152.8687470">
<ele>148.732</ele>
<time>2017-10-25T01:50:35.591Z</time>
</trkpt>
<trkpt lat="-26.4872175" lon="152.8687759">
<ele>145.695</ele>
<time>2017-10-25T01:50:38.422Z</time>
</trkpt>
<trkpt lat="-26.4878096" lon="152.8687803">
<ele>141.703</ele>
<time>2017-10-25T01:50:41.400Z</time>
</trkpt>
<trkpt lat="-26.4883886" lon="152.8687559">
<ele>137.010</ele>
<time>2017-10-25T01:50:44.213Z</time>
</trkpt>
<trkpt lat="-26.4890270" lon="152.8687563">
<ele>133.114</ele>
<time>2017-10-25T01:50:47.233Z</time>
</trkpt>
<trkpt lat="-26.4896624" lon="152.8687226">
<ele>131.079</ele>
<time>2017-10-25T01:50:50.158Z</time>
</trkpt>
<trkpt lat="-26.4903256" lon="152.8687210">
<ele>130.730</ele>
<time>2017-10-25T01:50:53.104Z</time>
</trkpt>
<trkpt lat="-26.4910137" lon="152.8687174">
<ele>131.392</ele>
<time>2017-10-25T01:50:56.109Z</time>
</trkpt>
<trkpt lat="-26.4917034" lon="152.8687183">
<ele>132.099</ele>
<time>2017-10-25T01:50:59.102Z</time>
</trkpt>
<trkpt lat="-26.4923695" lon="152.8686174">
<ele>131.763</ele>
<time>2017-10-25T01:51:01.943Z</time>
</trkpt>
<trkpt lat="-26.4930844" lon="152.8684431">
<ele>129.946</ele>
<time>2017-10-25T01:51:04.967Z</time>
</trkpt>
<trkpt lat="-26.4937775" lon="152.8682690">
<ele>127.526</ele>
<time>2017-10-25T01:51:07.978Z</time>
</trkpt>
<trkpt lat="-26.4944444" lon="152.8680682">
<ele>125.799</ele>
<time>2017-10-25T01:51:11.045Z</time>
</trkpt>
<trkpt lat="-26.4950629" lon="152.8678742">
<ele>124.974</ele>
<time>2017-10-25T01:51:13.938Z</time>
</trkpt>
<trkpt lat="-26.4956963" lon="152.8676257">
<ele>124.478</ele>
<time>2017-10-25T01:51:16.916Z</time>
</trkpt>
<trkpt lat="-26.4962708" lon="152.8671726">
<ele>124.018</ele>
<time>2017-10-25T01:51:20.030Z</time>
</trkpt>
<trkpt lat="-26.4967349" lon="152.8665815">
<ele>123.902</ele>
<time>2017-10-25T01:51:23.238Z</time>
</trkpt>
<trkpt lat="-26.4971012" lon="152.8659763">
<ele>124.574</ele>
<time>2017-10-25T01:51:26.303Z</time>
</trkpt>
<trkpt lat="-26.4974271" lon="152.8654022">
<ele>125.988</ele>
<time>2017-10-25T01:51:29.161Z</time>
</trkpt>
<trkpt lat="-26.4977521" lon="152.8647963">
<ele>127.427</ele>
<time>2017-10-25T01:51:32.084Z</time>
</trkpt>
<trkpt lat="-26.4981177" lon="152.8641950">
<ele>127.616</ele>
<time>2017-10-25T01:51:35.044Z</time>
</trkpt>
<trkpt lat="-26.4984917" lon="152.8635544">
<ele>125.356</ele>
<time>2017-10-25T01:51:38.133Z</time>
</trkpt>
<trkpt lat="-26.4988731" lon="152.8629531">
<ele>120.968</ele>
<time>2017-10-25T01:51:41.105Z</time>
</trkpt>
<trkpt lat="-26.4992230" lon="152.8623283">
<ele>116.577</ele>
<time>2017-10-25T01:51:44.078Z</time>
</trkpt>
<trkpt lat="-26.4995545" lon="152.8616916">
<ele>113.665</ele>
<time>2017-10-25T01:51:47.037Z</time>
</trkpt>
<trkpt lat="-26.4998927" lon="152.8610317">
<ele>112.889</ele>
<time>2017-10-25T01:51:50.081Z</time>
</trkpt>
<trkpt lat="-26.5002038" lon="152.8603780">
<ele>114.228</ele>
<time>2017-10-25T01:51:53.078Z</time>
</trkpt>
<trkpt lat="-26.5005102" lon="152.8597460">
<ele>116.125</ele>
<time>2017-10-25T01:51:56.123Z</time>
</trkpt>
<trkpt lat="-26.5008296" lon="152.8591208">
<ele>116.978</ele>
<time>2017-10-25T01:51:59.321Z</time>
</trkpt>
<trkpt lat="-26.5010997" lon="152.8585563">
<ele>116.781</ele>
<time>2017-10-25T01:52:02.146Z</time>
</trkpt>
<trkpt lat="-26.5014103" lon="152.8579635">
<ele>115.800</ele>
<time>2017-10-25T01:52:05.105Z</time>
</trkpt>
<trkpt lat="-26.5016927" lon="152.8573406">
<ele>114.476</ele>
<time>2017-10-25T01:52:08.071Z</time>
</trkpt>
<trkpt lat="-26.5020196" lon="152.8567355">
<ele>113.381</ele>
<time>2017-10-25T01:52:11.038Z</time>
</trkpt>
<trkpt lat="-26.5023090" lon="152.8560820">
<ele>112.322</ele>
<time>2017-10-25T01:52:14.100Z</time>
</trkpt>
<trkpt lat="-26.5025881" lon="152.8554673">
<ele>110.718</ele>
<time>2017-10-25T01:52:17.021Z</time>
</trkpt>
<trkpt lat="-26.5029005" lon="152.8548781">
<ele>108.600</ele>
<time>2017-10-25T01:52:19.950Z</time>
</trkpt>
<trkpt lat="-26.5032586" lon="152.8543071">
<ele>106.542</ele>
<time>2017-10-25T01:52:22.959Z</time>
</trkpt>
<trkpt lat="-26.5036333" lon="152.8537448">
<ele>105.354</ele>
<time>2017-10-25T01:52:25.987Z</time>
</trkpt>
<trkpt lat="-26.5039894" lon="152.8531877">
<ele>105.313</ele>
<time>2017-10-25T01:52:28.907Z</time>
</trkpt>
<trkpt lat="-26.5043267" lon="152.8525993">
<ele>105.690</ele>
<time>2017-10-25T01:52:31.838Z</time>
</trkpt>
<trkpt lat="-26.5046961" lon="152.8520130">
<ele>105.848</ele>
<time>2017-10-25T01:52:34.831Z</time>
</trkpt>
<trkpt lat="-26.5050703" lon="152.8514295">
<ele>105.756</ele>
<time>2017-10-25T01:52:37.846Z</time>
</trkpt>
<trkpt lat="-26.5054116" lon="152.8508237">
<ele>105.494</ele>
<time>2017-10-25T01:52:40.829Z</time>
</trkpt>
<trkpt lat="-26.5057712" lon="152.8502349">
<ele>105.113</ele>
<time>2017-10-25T01:52:43.763Z</time>
</trkpt>
<trkpt lat="-26.5061320" lon="152.8496253">
<ele>104.575</ele>
<time>2017-10-25T01:52:46.836Z</time>
</trkpt>
<trkpt lat="-26.5065327" lon="152.8490718">
<ele>103.500</ele>
<time>2017-10-25T01:52:49.947Z</time>
</trkpt>
<trkpt lat="-26.5069700" lon="152.8486231">
<ele>101.750</ele>
<time>2017-10-25T01:52:52.852Z</time>
</trkpt>
<trkpt lat="-26.5074632" lon="152.8482388">
<ele>100.013</ele>
<time>2017-10-25T01:52:55.734Z</time>
</trkpt>
<trkpt lat="-26.5079681" lon="152.8478411">
<ele>99.022</ele>
<time>2017-10-25T01:52:58.666Z</time>
</trkpt>
<trkpt lat="-26.5084615" lon="152.8473804">
<ele>98.796</ele>
<time>2017-10-25T01:53:01.742Z</time>
</trkpt>
<trkpt lat="-26.5089794" lon="152.8469579">
<ele>98.757</ele>
<time>2017-10-25T01:53:04.857Z</time>
</trkpt>
<trkpt lat="-26.5094705" lon="152.8465604">
<ele>98.235</ele>
<time>2017-10-25T01:53:07.793Z</time>
</trkpt>
<trkpt lat="-26.5099561" lon="152.8461268">
<ele>97.131</ele>
<time>2017-10-25T01:53:10.738Z</time>
</trkpt>
<trkpt lat="-26.5104904" lon="152.8457068">
<ele>96.014</ele>
<time>2017-10-25T01:53:13.835Z</time>
</trkpt>
<trkpt lat="-26.5109904" lon="152.8452722">
<ele>95.287</ele>
<time>2017-10-25T01:53:16.915Z</time>
</trkpt>
<trkpt lat="-26.5113716" lon="152.8447937">
<ele>94.884</ele>
<time>2017-10-25T01:53:19.670Z</time>
</trkpt>
<trkpt lat="-26.5116871" lon="152.8441759">
<ele>94.879</ele>
<time>2017-10-25T01:53:22.636Z</time>
</trkpt>
<trkpt lat="-26.5119713" lon="152.8435200">
<ele>95.796</ele>
<time>2017-10-25T01:53:25.721Z</time>
</trkpt>
<trkpt lat="-26.5121046" lon="152.8428441">
<ele>97.699</ele>
<time>2017-10-25T01:53:28.715Z</time>
</trkpt>
<trkpt lat="-26.5121492" lon="152.8421488">
<ele>99.803</ele>
<time>2017-10-25T01:53:31.682Z</time>
</trkpt>
<trkpt lat="-26.5120591" lon="152.8414611">
<ele>101.435</ele>
<time>2017-10-25T01:53:34.608Z</time>
</trkpt>
<trkpt lat="-26.5119113" lon="152.8407656">
<ele>102.457</ele>
<time>2017-10-25T01:53:37.688Z</time>
</trkpt>
<trkpt lat="-26.5117131" lon="152.8401125">
<ele>102.699</ele>
<time>2017-10-25T01:53:40.749Z</time>
</trkpt>
<trkpt lat="-26.5114879" lon="152.8395076">
<ele>102.080</ele>
<time>2017-10-25T01:53:43.665Z</time>
</trkpt>
<trkpt lat="-26.5112489" lon="152.8388734">
<ele>100.978</ele>
<time>2017-10-25T01:53:46.668Z</time>
</trkpt>
<trkpt lat="-26.5111159" lon="152.8381559">
<ele>99.890</ele>
<time>2017-10-25T01:53:49.852Z</time>
</trkpt>
<trkpt lat="-26.5110888" lon="152.8374786">
<ele>98.974</ele>
<time>2017-10-25T01:53:52.767Z</time>
</trkpt>
<trkpt lat="-26.5110524" lon="152.8367757">
<ele>98.294</ele>
<time>2017-10-25T01:53:55.699Z</time>
</trkpt>
<trkpt lat="-26.5110771" lon="152.8360364">
<ele>98.060</ele>
<time>2017-10-25T01:53:58.750Z</time>
</trkpt>
<trkpt lat="-26.5112479" lon="152.8353477">
<ele>98.530</ele>
<time>2017-10-25T01:54:01.735Z</time>
</trkpt>
<trkpt lat="-26.5114619" lon="152.8346910">
<ele>99.604</ele>
<time>2017-10-25T01:54:04.650Z</time>
</trkpt>
<trkpt lat="-26.5116884" lon="152.8340212">
<ele>100.827</ele>
<time>2017-10-25T01:54:07.544Z</time>
</trkpt>
<trkpt lat="-26.5119828" lon="152.8333173">
<ele>101.803</ele>
<time>2017-10-25T01:54:10.658Z</time>
</trkpt>
<trkpt lat="-26.5122908" lon="152.8326681">
<ele>102.342</ele>
<time>2017-10-25T01:54:13.702Z</time>
</trkpt>
<trkpt lat="-26.5125793" lon="152.8320534">
<ele>102.295</ele>
<time>2017-10-25T01:54:16.658Z</time>
</trkpt>
<trkpt lat="-26.5127931" lon="152.8314139">
<ele>101.722</ele>
<time>2017-10-25T01:54:19.608Z</time>
</trkpt>
<trkpt lat="-26.5129681" lon="152.8307484">
<ele>100.930</ele>
<time>2017-10-25T01:54:22.615Z</time>
</trkpt>
<trkpt lat="-26.5130464" lon="152.8300289">
<ele>100.126</ele>
<time>2017-10-25T01:54:25.766Z</time>
</trkpt>
<trkpt lat="-26.5129233" lon="152.8293164">
<ele>99.221</ele>
<time>2017-10-25T01:54:28.932Z</time>
</trkpt>
<trkpt lat="-26.5127635" lon="152.8286402">
<ele>98.133</ele>
<time>2017-10-25T01:54:31.926Z</time>
</trkpt>
<trkpt lat="-26.5125825" lon="152.8279579">
<ele>97.008</ele>
<time>2017-10-25T01:54:34.900Z</time>
</trkpt>
<trkpt lat="-26.5124437" lon="152.8272407">
<ele>96.148</ele>
<time>2017-10-25T01:54:37.936Z</time>
</trkpt>
<trkpt lat="-26.5123085" lon="152.8265349">
<ele>95.700</ele>
<time>2017-10-25T01:54:40.930Z</time>
</trkpt>
<trkpt lat="-26.5121439" lon="152.8258384">
<ele>95.546</ele>
<time>2017-10-25T01:54:43.953Z</time>
</trkpt>
<trkpt lat="-26.5120128" lon="152.8251635">
<ele>95.434</ele>
<time>2017-10-25T01:54:46.886Z</time>
</trkpt>
<trkpt lat="-26.5118747" lon="152.8244760">
<ele>95.169</ele>
<time>2017-10-25T01:54:49.945Z</time>
</trkpt>
<trkpt lat="-26.5117185" lon="152.8238301">
<ele>94.838</ele>
<time>2017-10-25T01:54:52.880Z</time>
</trkpt>
<trkpt lat="-26.5115327" lon="152.8231819">
<ele>94.923</ele>
<time>2017-10-25T01:54:55.835Z</time>
</trkpt>
<trkpt lat="-26.5114166" lon="152.8225049">
<ele>95.927</ele>
<time>2017-10-25T01:54:58.811Z</time>
</trkpt>
<trkpt lat="-26.5113442" lon="152.8218036">
<ele>97.793</ele>
<time>2017-10-25T01:55:01.831Z</time>
</trkpt>
<trkpt lat="-26.5113489" lon="152.8211258">
<ele>99.941</ele>
<time>2017-10-25T01:55:04.627Z</time>
</trkpt>
<trkpt lat="-26.5113883" lon="152.8204098">
<ele>101.674</ele>
<time>2017-10-25T01:55:07.464Z</time>
</trkpt>
<trkpt lat="-26.5115364" lon="152.8196415">
<ele>102.432</ele>
<time>2017-10-25T01:55:10.515Z</time>
</trkpt>
<trkpt lat="-26.5117607" lon="152.8189214">
<ele>101.979</ele>
<time>2017-10-25T01:55:13.430Z</time>
</trkpt>
<trkpt lat="-26.5119476" lon="152.8181530">
<ele>100.154</ele>
<time>2017-10-25T01:55:16.390Z</time>
</trkpt>
<trkpt lat="-26.5120982" lon="152.8173704">
<ele>97.048</ele>
<time>2017-10-25T01:55:19.362Z</time>
</trkpt>
<trkpt lat="-26.5121996" lon="152.8165800">
<ele>93.355</ele>
<time>2017-10-25T01:55:22.417Z</time>
</trkpt>
<trkpt lat="-26.5121913" lon="152.8158325">
<ele>90.036</ele>
<time>2017-10-25T01:55:25.374Z</time>
</trkpt>
<trkpt lat="-26.5120967" lon="152.8151042">
<ele>87.646</ele>
<time>2017-10-25T01:55:28.371Z</time>
</trkpt>
<trkpt lat="-26.5119650" lon="152.8143870">
<ele>86.116</ele>
<time>2017-10-25T01:55:31.387Z</time>
</trkpt>
<trkpt lat="-26.5118722" lon="152.8136571">
<ele>85.188</ele>
<time>2017-10-25T01:55:34.797Z</time>
</trkpt>
<trkpt lat="-26.5117975" lon="152.8130383">
<ele>84.874</ele>
<time>2017-10-25T01:55:38.883Z</time>
</trkpt>
<trkpt lat="-26.5117314" lon="152.8126163">
<ele>85.086</ele>
<time>2017-10-25T01:55:43.189Z</time>
</trkpt>
<trkpt lat="-26.5116866" lon="152.8123767">
<ele>85.212</ele>
<time>2017-10-25T01:55:45.008Z</time>
</trkpt>
<trkpt lat="-26.5113676" lon="152.8124091">
<ele>84.387</ele>
<time>2017-10-25T01:55:47.227Z</time>
</trkpt>
<trkpt lat="-26.5109020" lon="152.8123839">
<ele>82.674</ele>
<time>2017-10-25T01:55:49.996Z</time>
</trkpt>
<trkpt lat="-26.5103848" lon="152.8122031">
<ele>81.169</ele>
<time>2017-10-25T01:55:53.076Z</time>
</trkpt>
<trkpt lat="-26.5099078" lon="152.8120102">
<ele>80.508</ele>
<time>2017-10-25T01:55:55.897Z</time>
</trkpt>
<trkpt lat="-26.5093719" lon="152.8118297">
<ele>80.139</ele>
<time>2017-10-25T01:55:58.957Z</time>
</trkpt>
<trkpt lat="-26.5088292" lon="152.8116422">
<ele>79.399</ele>
<time>2017-10-25T01:56:02.202Z</time>
</trkpt>
<trkpt lat="-26.5085183" lon="152.8115283">
<ele>78.424</ele>
<time>2017-10-25T01:56:04.211Z</time>
</trkpt>
<trkpt lat="-26.5082110" lon="152.8114189">
<ele>78.027</ele>
<time>2017-10-25T01:56:06.188Z</time>
</trkpt>
<trkpt lat="-26.5079122" lon="152.8113476">
<ele>78.760</ele>
<time>2017-10-25T01:56:07.913Z</time>
</trkpt>
<trkpt lat="-26.5075773" lon="152.8112363">
<ele>80.472</ele>
<time>2017-10-25T01:56:09.737Z</time>
</trkpt>
<trkpt lat="-26.5071976" lon="152.8111023">
<ele>82.675</ele>
<time>2017-10-25T01:56:11.784Z</time>
</trkpt>
<trkpt lat="-26.5068159" lon="152.8109495">
<ele>84.950</ele>
<time>2017-10-25T01:56:13.887Z</time>
</trkpt>
<trkpt lat="-26.5064578" lon="152.8108153">
<ele>86.961</ele>
<time>2017-10-25T01:56:15.857Z</time>
</trkpt>
<trkpt lat="-26.5061110" lon="152.8106785">
<ele>88.649</ele>
<time>2017-10-25T01:56:17.751Z</time>
</trkpt>
<trkpt lat="-26.5057459" lon="152.8105602">
<ele>90.304</ele>
<time>2017-10-25T01:56:19.652Z</time>
</trkpt>
<trkpt lat="-26.5053534" lon="152.8104118">
<ele>92.265</ele>
<time>2017-10-25T01:56:21.697Z</time>
</trkpt>
<trkpt lat="-26.5048046" lon="152.8100825">
<ele>94.689</ele>
<time>2017-10-25T01:56:24.728Z</time>
</trkpt>
<trkpt lat="-26.5043379" lon="152.8096108">
<ele>97.612</ele>
<time>2017-10-25T01:56:27.845Z</time>
</trkpt>
<trkpt lat="-26.5039496" lon="152.8090985">
<ele>101.087</ele>
<time>2017-10-25T01:56:30.905Z</time>
</trkpt>
<trkpt lat="-26.5036349" lon="152.8085856">
<ele>105.014</ele>
<time>2017-10-25T01:56:33.699Z</time>
</trkpt>
<trkpt lat="-26.5032746" lon="152.8080357">
<ele>108.942</ele>
<time>2017-10-25T01:56:36.620Z</time>
</trkpt>
<trkpt lat="-26.5029142" lon="152.8074206">
<ele>112.032</ele>
<time>2017-10-25T01:56:39.787Z</time>
</trkpt>
<trkpt lat="-26.5025587" lon="152.8068438">
<ele>113.155</ele>
<time>2017-10-25T01:56:42.919Z</time>
</trkpt>
<trkpt lat="-26.5022368" lon="152.8063060">
<ele>111.587</ele>
<time>2017-10-25T01:56:45.792Z</time>
</trkpt>
<trkpt lat="-26.5019028" lon="152.8057343">
<ele>107.787</ele>
<time>2017-10-25T01:56:48.731Z</time>
</trkpt>
<trkpt lat="-26.5015291" lon="152.8051552">
<ele>102.940</ele>
<time>2017-10-25T01:56:51.771Z</time>
</trkpt>
<trkpt lat="-26.5011491" lon="152.8045908">
<ele>97.873</ele>
<time>2017-10-25T01:56:54.853Z</time>
</trkpt>
<trkpt lat="-26.5008102" lon="152.8040523">
<ele>92.840</ele>
<time>2017-10-25T01:56:57.781Z</time>
</trkpt>
<trkpt lat="-26.5003684" lon="152.8036161">
<ele>87.658</ele>
<time>2017-10-25T01:57:00.632Z</time>
</trkpt>
<trkpt lat="-26.4997857" lon="152.8033689">
<ele>81.927</ele>
<time>2017-10-25T01:57:03.513Z</time>
</trkpt>
<trkpt lat="-26.4991291" lon="152.8031815">
<ele>76.464</ele>
<time>2017-10-25T01:57:06.589Z</time>
</trkpt>
<trkpt lat="-26.4984484" lon="152.8030804">
<ele>75.160</ele>
<time>2017-10-25T01:57:09.768Z</time>
</trkpt>
<trkpt lat="-26.4978126" lon="152.8030466">
<ele>79.803</ele>
<time>2017-10-25T01:57:12.758Z</time>
</trkpt>
<trkpt lat="-26.4971652" lon="152.8029734">
<ele>86.303</ele>
<time>2017-10-25T01:57:15.779Z</time>
</trkpt>
<trkpt lat="-26.4965197" lon="152.8028996">
<ele>90.412</ele>
<time>2017-10-25T01:57:18.752Z</time>
</trkpt>
<trkpt lat="-26.4958245" lon="152.8028528">
<ele>91.965</ele>
<time>2017-10-25T01:57:22.018Z</time>
</trkpt>
<trkpt lat="-26.4951984" lon="152.8027764">
<ele>92.191</ele>
<time>2017-10-25T01:57:25.200Z</time>
</trkpt>
<trkpt lat="-26.4946180" lon="152.8027335">
<ele>92.206</ele>
<time>2017-10-25T01:57:28.341Z</time>
</trkpt>
<trkpt lat="-26.4941285" lon="152.8027300">
<ele>92.717</ele>
<time>2017-10-25T01:57:30.961Z</time>
</trkpt>
<trkpt lat="-26.4935981" lon="152.8029854">
<ele>93.741</ele>
<time>2017-10-25T01:57:33.947Z</time>
</trkpt>
<trkpt lat="-26.4931070" lon="152.8033869">
<ele>94.587</ele>
<time>2017-10-25T01:57:37.094Z</time>
</trkpt>
<trkpt lat="-26.4925923" lon="152.8036429">
<ele>94.553</ele>
<time>2017-10-25T01:57:39.990Z</time>
</trkpt>
<trkpt lat="-26.4920254" lon="152.8035455">
<ele>93.489</ele>
<time>2017-10-25T01:57:42.848Z</time>
</trkpt>
<trkpt lat="-26.4913923" lon="152.8034069">
<ele>92.004</ele>
<time>2017-10-25T01:57:46.000Z</time>
</trkpt>
<trkpt lat="-26.4907966" lon="152.8032326">
<ele>90.971</ele>
<time>2017-10-25T01:57:49.006Z</time>
</trkpt>
<trkpt lat="-26.4901695" lon="152.8031014">
<ele>90.662</ele>
<time>2017-10-25T01:57:52.116Z</time>
</trkpt>
<trkpt lat="-26.4895738" lon="152.8029574">
<ele>90.899</ele>
<time>2017-10-25T01:57:55.084Z</time>
</trkpt>
<trkpt lat="-26.4889780" lon="152.8027810">
<ele>91.450</ele>
<time>2017-10-25T01:57:58.066Z</time>
</trkpt>
<trkpt lat="-26.4883826" lon="152.8025012">
<ele>92.244</ele>
<time>2017-10-25T01:58:01.205Z</time>
</trkpt>
<trkpt lat="-26.4879041" lon="152.8020218">
<ele>93.547</ele>
<time>2017-10-25T01:58:04.354Z</time>
</trkpt>
<trkpt lat="-26.4873409" lon="152.8017249">
<ele>95.526</ele>
<time>2017-10-25T01:58:07.366Z</time>
</trkpt>
<trkpt lat="-26.4867004" lon="152.8016479">
<ele>97.791</ele>
<time>2017-10-25T01:58:10.393Z</time>
</trkpt>
<trkpt lat="-26.4861013" lon="152.8015611">
<ele>100.140</ele>
<time>2017-10-25T01:58:13.160Z</time>
</trkpt>
<trkpt lat="-26.4854164" lon="152.8014823">
<ele>102.490</ele>
<time>2017-10-25T01:58:16.361Z</time>
</trkpt>
<trkpt lat="-26.4847583" lon="152.8013739">
<ele>104.279</ele>
<time>2017-10-25T01:58:19.684Z</time>
</trkpt>
<trkpt lat="-26.4841776" lon="152.8012855">
<ele>105.402</ele>
<time>2017-10-25T01:58:22.761Z</time>
</trkpt>
<trkpt lat="-26.4836503" lon="152.8011751">
<ele>106.441</ele>
<time>2017-10-25T01:58:25.488Z</time>
</trkpt>
<trkpt lat="-26.4830264" lon="152.8010921">
<ele>107.533</ele>
<time>2017-10-25T01:58:28.543Z</time>
</trkpt>
<trkpt lat="-26.4824185" lon="152.8008528">
<ele>108.365</ele>
<time>2017-10-25T01:58:31.678Z</time>
</trkpt>
<trkpt lat="-26.4819151" lon="152.8004483">
<ele>108.675</ele>
<time>2017-10-25T01:58:34.799Z</time>
</trkpt>
<trkpt lat="-26.4814331" lon="152.8000175">
<ele>107.315</ele>
<time>2017-10-25T01:58:38.322Z</time>
</trkpt>
<trkpt lat="-26.4810376" lon="152.7995739">
<ele>103.369</ele>
<time>2017-10-25T01:58:42.535Z</time>
</trkpt>
<trkpt lat="-26.4807406" lon="152.7993169">
<ele>98.091</ele>
<time>2017-10-25T01:58:45.829Z</time>
</trkpt>
<trkpt lat="-26.4805051" lon="152.7990914">
<ele>93.486</ele>
<time>2017-10-25T01:58:48.488Z</time>
</trkpt>
<trkpt lat="-26.4802360" lon="152.7988840">
<ele>90.419</ele>
<time>2017-10-25T01:58:50.960Z</time>
</trkpt>
<trkpt lat="-26.4798930" lon="152.7987442">
<ele>88.882</ele>
<time>2017-10-25T01:58:53.292Z</time>
</trkpt>
<trkpt lat="-26.4794207" lon="152.7987453">
<ele>88.299</ele>
<time>2017-10-25T01:58:56.130Z</time>
</trkpt>
<trkpt lat="-26.4789198" lon="152.7987152">
<ele>88.230</ele>
<time>2017-10-25T01:58:59.002Z</time>
</trkpt>
<trkpt lat="-26.4783758" lon="152.7987272">
<ele>88.875</ele>
<time>2017-10-25T01:59:01.949Z</time>
</trkpt>
<trkpt lat="-26.4778566" lon="152.7986193">
<ele>90.217</ele>
<time>2017-10-25T01:59:04.601Z</time>
</trkpt>
<trkpt lat="-26.4773061" lon="152.7982930">
<ele>90.674</ele>
<time>2017-10-25T01:59:07.579Z</time>
</trkpt>
<trkpt lat="-26.4767873" lon="152.7978181">
<ele>89.111</ele>
<time>2017-10-25T01:59:10.788Z</time>
</trkpt>
<trkpt lat="-26.4763044" lon="152.7973865">
<ele>86.897</ele>
<time>2017-10-25T01:59:13.788Z</time>
</trkpt>
<trkpt lat="-26.4758394" lon="152.7969828">
<ele>85.614</ele>
<time>2017-10-25T01:59:16.645Z</time>
</trkpt>
<trkpt lat="-26.4753416" lon="152.7965561">
<ele>85.169</ele>
<time>2017-10-25T01:59:19.726Z</time>
</trkpt>
<trkpt lat="-26.4748471" lon="152.7961670">
<ele>84.984</ele>
<time>2017-10-25T01:59:22.766Z</time>
</trkpt>
<trkpt lat="-26.4742963" lon="152.7959259">
<ele>84.840</ele>
<time>2017-10-25T01:59:25.729Z</time>
</trkpt>
<trkpt lat="-26.4737239" lon="152.7958476">
<ele>84.928</ele>
<time>2017-10-25T01:59:28.561Z</time>
</trkpt>
<trkpt lat="-26.4731036" lon="152.7958144">
<ele>85.565</ele>
<time>2017-10-25T01:59:31.619Z</time>
</trkpt>
<trkpt lat="-26.4724853" lon="152.7957748">
<ele>86.973</ele>
<time>2017-10-25T01:59:34.738Z</time>
</trkpt>
<trkpt lat="-26.4719144" lon="152.7956515">
<ele>89.048</ele>
<time>2017-10-25T01:59:37.762Z</time>
</trkpt>
<trkpt lat="-26.4714474" lon="152.7952449">
<ele>91.787</ele>
<time>2017-10-25T01:59:40.930Z</time>
</trkpt>
<trkpt lat="-26.4710221" lon="152.7949085">
<ele>95.419</ele>
<time>2017-10-25T01:59:43.643Z</time>
</trkpt>
<trkpt lat="-26.4704881" lon="152.7946339">
<ele>99.593</ele>
<time>2017-10-25T01:59:46.606Z</time>
</trkpt>
<trkpt lat="-26.4698657" lon="152.7944865">
<ele>103.449</ele>
<time>2017-10-25T01:59:49.925Z</time>
</trkpt>
<trkpt lat="-26.4693087" lon="152.7944008">
<ele>106.533</ele>
<time>2017-10-25T01:59:53.048Z</time>
</trkpt>
<trkpt lat="-26.4688050" lon="152.7942484">
<ele>108.945</ele>
<time>2017-10-25T01:59:56.005Z</time>
</trkpt>
<trkpt lat="-26.4684793" lon="152.7937844">
<ele>110.756</ele>
<time>2017-10-25T01:59:58.912Z</time>
</trkpt>
<trkpt lat="-26.4683501" lon="152.7931772">
<ele>111.780</ele>
<time>2017-10-25T02:00:01.942Z</time>
</trkpt>
<trkpt lat="-26.4684807" lon="152.7925314">
<ele>112.055</ele>
<time>2017-10-25T02:00:05.280Z</time>
</trkpt>
<trkpt lat="-26.4686669" lon="152.7919772">
<ele>112.190</ele>
<time>2017-10-25T02:00:08.406Z</time>
</trkpt>
<trkpt lat="-26.4685654" lon="152.7914185">
<ele>112.885</ele>
<time>2017-10-25T02:00:11.579Z</time>
</trkpt>
<trkpt lat="-26.4683240" lon="152.7909161">
<ele>114.269</ele>
<time>2017-10-25T02:00:14.671Z</time>
</trkpt>
<trkpt lat="-26.4681732" lon="152.7904374">
<ele>115.861</ele>
<time>2017-10-25T02:00:17.303Z</time>
</trkpt>
<trkpt lat="-26.4682453" lon="152.7898502">
<ele>117.296</ele>
<time>2017-10-25T02:00:20.390Z</time>
</trkpt>
<trkpt lat="-26.4683525" lon="152.7892797">
<ele>118.955</ele>
<time>2017-10-25T02:00:23.509Z</time>
</trkpt>
<trkpt lat="-26.4682641" lon="152.7886747">
<ele>121.365</ele>
<time>2017-10-25T02:00:26.991Z</time>
</trkpt>
<trkpt lat="-26.4681749" lon="152.7881784">
<ele>124.165</ele>
<time>2017-10-25T02:00:29.761Z</time>
</trkpt>
<trkpt lat="-26.4679692" lon="152.7876948">
<ele>126.632</ele>
<time>2017-10-25T02:00:32.435Z</time>
</trkpt>
<trkpt lat="-26.4675060" lon="152.7873828">
<ele>128.693</ele>
<time>2017-10-25T02:00:35.275Z</time>
</trkpt>
<trkpt lat="-26.4669893" lon="152.7871406">
<ele>130.643</ele>
<time>2017-10-25T02:00:38.082Z</time>
</trkpt>
<trkpt lat="-26.4664359" lon="152.7868922">
<ele>132.898</ele>
<time>2017-10-25T02:00:41.007Z</time>
</trkpt>
<trkpt lat="-26.4658623" lon="152.7866387">
<ele>135.706</ele>
<time>2017-10-25T02:00:44.009Z</time>
</trkpt>
<trkpt lat="-26.4653063" lon="152.7863987">
<ele>138.792</ele>
<time>2017-10-25T02:00:46.884Z</time>
</trkpt>
<trkpt lat="-26.4647158" lon="152.7861467">
<ele>141.933</ele>
<time>2017-10-25T02:00:50.000Z</time>
</trkpt>
<trkpt lat="-26.4641487" lon="152.7858568">
<ele>145.503</ele>
<time>2017-10-25T02:00:53.300Z</time>
</trkpt>
<trkpt lat="-26.4637562" lon="152.7853871">
<ele>149.537</ele>
<time>2017-10-25T02:00:56.588Z</time>
</trkpt>
<trkpt lat="-26.4633890" lon="152.7849463">
<ele>153.726</ele>
<time>2017-10-25T02:00:59.892Z</time>
</trkpt>
<trkpt lat="-26.4629568" lon="152.7846686">
<ele>157.690</ele>
<time>2017-10-25T02:01:03.173Z</time>
</trkpt>
<trkpt lat="-26.4625810" lon="152.7843627">
<ele>160.625</ele>
<time>2017-10-25T02:01:06.170Z</time>
</trkpt>
<trkpt lat="-26.4622618" lon="152.7840684">
<ele>161.987</ele>
<time>2017-10-25T02:01:08.519Z</time>
</trkpt>
<trkpt lat="-26.4619742" lon="152.7836241">
<ele>162.257</ele>
<time>2017-10-25T02:01:11.086Z</time>
</trkpt>
<trkpt lat="-26.4616981" lon="152.7830496">
<ele>162.126</ele>
<time>2017-10-25T02:01:13.992Z</time>
</trkpt>
<trkpt lat="-26.4613994" lon="152.7824921">
<ele>161.710</ele>
<time>2017-10-25T02:01:16.836Z</time>
</trkpt>
<trkpt lat="-26.4612243" lon="152.7818419">
<ele>160.638</ele>
<time>2017-10-25T02:01:19.878Z</time>
</trkpt>
<trkpt lat="-26.4610136" lon="152.7811982">
<ele>158.799</ele>
<time>2017-10-25T02:01:23.030Z</time>
</trkpt>
<trkpt lat="-26.4606799" lon="152.7806373">
<ele>156.383</ele>
<time>2017-10-25T02:01:26.090Z</time>
</trkpt>
<trkpt lat="-26.4601986" lon="152.7802732">
<ele>153.289</ele>
<time>2017-10-25T02:01:28.999Z</time>
</trkpt>
<trkpt lat="-26.4597174" lon="152.7799002">
<ele>149.086</ele>
<time>2017-10-25T02:01:31.947Z</time>
</trkpt>
<trkpt lat="-26.4592564" lon="152.7795491">
<ele>143.893</ele>
<time>2017-10-25T02:01:34.786Z</time>
</trkpt>
<trkpt lat="-26.4588728" lon="152.7790640">
<ele>138.863</ele>
<time>2017-10-25T02:01:37.773Z</time>
</trkpt>
<trkpt lat="-26.4586341" lon="152.7784484">
<ele>135.245</ele>
<time>2017-10-25T02:01:40.921Z</time>
</trkpt>
<trkpt lat="-26.4584197" lon="152.7778262">
<ele>133.433</ele>
<time>2017-10-25T02:01:44.047Z</time>
</trkpt>
<trkpt lat="-26.4582006" lon="152.7772285">
<ele>132.996</ele>
<time>2017-10-25T02:01:47.051Z</time>
</trkpt>
<trkpt lat="-26.4579935" lon="152.7766225">
<ele>132.984</ele>
<time>2017-10-25T02:01:50.177Z</time>
</trkpt>
<trkpt lat="-26.4577670" lon="152.7760397">
<ele>132.564</ele>
<time>2017-10-25T02:01:53.328Z</time>
</trkpt>
<trkpt lat="-26.4575253" lon="152.7755174">
<ele>131.663</ele>
<time>2017-10-25T02:01:56.179Z</time>
</trkpt>
<trkpt lat="-26.4570376" lon="152.7751198">
<ele>130.509</ele>
<time>2017-10-25T02:01:59.366Z</time>
</trkpt>
<trkpt lat="-26.4565473" lon="152.7748523">
<ele>128.984</ele>
<time>2017-10-25T02:02:02.194Z</time>
</trkpt>
<trkpt lat="-26.4559867" lon="152.7746889">
<ele>127.300</ele>
<time>2017-10-25T02:02:05.178Z</time>
</trkpt>
<trkpt lat="-26.4554226" lon="152.7745148">
<ele>126.167</ele>
<time>2017-10-25T02:02:08.167Z</time>
</trkpt>
<trkpt lat="-26.4548565" lon="152.7743221">
<ele>125.967</ele>
<time>2017-10-25T02:02:11.199Z</time>
</trkpt>
<trkpt lat="-26.4542960" lon="152.7741544">
<ele>126.676</ele>
<time>2017-10-25T02:02:14.280Z</time>
</trkpt>
<trkpt lat="-26.4537678" lon="152.7739785">
<ele>128.349</ele>
<time>2017-10-25T02:02:17.242Z</time>
</trkpt>
<trkpt lat="-26.4532560" lon="152.7738310">
<ele>130.532</ele>
<time>2017-10-25T02:02:19.953Z</time>
</trkpt>
<trkpt lat="-26.4526918" lon="152.7736567">
<ele>132.097</ele>
<time>2017-10-25T02:02:22.828Z</time>
</trkpt>
<trkpt lat="-26.4521285" lon="152.7733558">
<ele>132.464</ele>
<time>2017-10-25T02:02:25.833Z</time>
</trkpt>
<trkpt lat="-26.4516218" lon="152.7729535">
<ele>132.085</ele>
<time>2017-10-25T02:02:28.792Z</time>
</trkpt>
<trkpt lat="-26.4512417" lon="152.7723785">
<ele>131.328</ele>
<time>2017-10-25T02:02:31.811Z</time>
</trkpt>
<trkpt lat="-26.4508623" lon="152.7718028">
<ele>129.815</ele>
<time>2017-10-25T02:02:34.837Z</time>
</trkpt>
<trkpt lat="-26.4506057" lon="152.7711615">
<ele>126.859</ele>
<time>2017-10-25T02:02:37.875Z</time>
</trkpt>
<trkpt lat="-26.4504687" lon="152.7704931">
<ele>122.701</ele>
<time>2017-10-25T02:02:40.901Z</time>
</trkpt>
<trkpt lat="-26.4504220" lon="152.7698255">
<ele>118.885</ele>
<time>2017-10-25T02:02:43.936Z</time>
</trkpt>
<trkpt lat="-26.4503621" lon="152.7691772">
<ele>116.776</ele>
<time>2017-10-25T02:02:46.917Z</time>
</trkpt>
<trkpt lat="-26.4502805" lon="152.7685795">
<ele>116.115</ele>
<time>2017-10-25T02:02:49.560Z</time>
</trkpt>
<trkpt lat="-26.4500190" lon="152.7679411">
<ele>115.170</ele>
<time>2017-10-25T02:02:52.493Z</time>
</trkpt>
<trkpt lat="-26.4497560" lon="152.7672571">
<ele>112.367</ele>
<time>2017-10-25T02:02:55.564Z</time>
</trkpt>
<trkpt lat="-26.4494953" lon="152.7665856">
<ele>107.558</ele>
<time>2017-10-25T02:02:58.641Z</time>
</trkpt>
<trkpt lat="-26.4492266" lon="152.7659288">
<ele>101.482</ele>
<time>2017-10-25T02:03:01.853Z</time>
</trkpt>
<trkpt lat="-26.4488883" lon="152.7653721">
<ele>94.966</ele>
<time>2017-10-25T02:03:04.944Z</time>
</trkpt>
<trkpt lat="-26.4484529" lon="152.7649990">
<ele>88.934</ele>
<time>2017-10-25T02:03:07.659Z</time>
</trkpt>
<trkpt lat="-26.4479274" lon="152.7647007">
<ele>84.126</ele>
<time>2017-10-25T02:03:10.419Z</time>
</trkpt>
<trkpt lat="-26.4475043" lon="152.7645443">
<ele>80.920</ele>
<time>2017-10-25T02:03:12.481Z</time>
</trkpt>
<trkpt lat="-26.4470862" lon="152.7644237">
<ele>79.280</ele>
<time>2017-10-25T02:03:14.480Z</time>
</trkpt>
<trkpt lat="-26.4466775" lon="152.7642744">
<ele>78.719</ele>
<time>2017-10-25T02:03:16.465Z</time>
</trkpt>
<trkpt lat="-26.4462782" lon="152.7641167">
<ele>78.504</ele>
<time>2017-10-25T02:03:18.424Z</time>
</trkpt>
<trkpt lat="-26.4458632" lon="152.7639569">
<ele>78.186</ele>
<time>2017-10-25T02:03:20.462Z</time>
</trkpt>
<trkpt lat="-26.4454552" lon="152.7637930">
<ele>77.835</ele>
<time>2017-10-25T02:03:22.475Z</time>
</trkpt>
<trkpt lat="-26.4450521" lon="152.7636169">
<ele>77.760</ele>
<time>2017-10-25T02:03:24.472Z</time>
</trkpt>
<trkpt lat="-26.4446175" lon="152.7635082">
<ele>78.010</ele>
<time>2017-10-25T02:03:26.512Z</time>
</trkpt>
<trkpt lat="-26.4441930" lon="152.7634633">
<ele>78.323</ele>
<time>2017-10-25T02:03:28.446Z</time>
</trkpt>
<trkpt lat="-26.4435312" lon="152.7634338">
<ele>78.474</ele>
<time>2017-10-25T02:03:31.443Z</time>
</trkpt>
<trkpt lat="-26.4428637" lon="152.7634498">
<ele>78.957</ele>
<time>2017-10-25T02:03:34.490Z</time>
</trkpt>
<trkpt lat="-26.4422226" lon="152.7634269">
<ele>80.373</ele>
<time>2017-10-25T02:03:37.560Z</time>
</trkpt>
<trkpt lat="-26.4415784" lon="152.7634655">
<ele>82.223</ele>
<time>2017-10-25T02:03:40.977Z</time>
</trkpt>
<trkpt lat="-26.4410461" lon="152.7634316">
<ele>83.808</ele>
<time>2017-10-25T02:03:43.912Z</time>
</trkpt>
<trkpt lat="-26.4405288" lon="152.7634107">
<ele>85.318</ele>
<time>2017-10-25T02:03:46.654Z</time>
</trkpt>
<trkpt lat="-26.4399698" lon="152.7633877">
<ele>86.749</ele>
<time>2017-10-25T02:03:49.489Z</time>
</trkpt>
<trkpt lat="-26.4393611" lon="152.7634219">
<ele>87.352</ele>
<time>2017-10-25T02:03:52.463Z</time>
</trkpt>
<trkpt lat="-26.4387425" lon="152.7633855">
<ele>86.610</ele>
<time>2017-10-25T02:03:55.381Z</time>
</trkpt>
<trkpt lat="-26.4381378" lon="152.7634055">
<ele>84.894</ele>
<time>2017-10-25T02:03:58.141Z</time>
</trkpt>
<trkpt lat="-26.4374652" lon="152.7633861">
<ele>82.818</ele>
<time>2017-10-25T02:04:01.138Z</time>
</trkpt>
<trkpt lat="-26.4367836" lon="152.7633630">
<ele>80.419</ele>
<time>2017-10-25T02:04:04.150Z</time>
</trkpt>
<trkpt lat="-26.4360949" lon="152.7633637">
<ele>77.938</ele>
<time>2017-10-25T02:04:07.172Z</time>
</trkpt>
<trkpt lat="-26.4354123" lon="152.7633824">
<ele>76.182</ele>
<time>2017-10-25T02:04:10.155Z</time>
</trkpt>
<trkpt lat="-26.4347186" lon="152.7633423">
<ele>75.130</ele>
<time>2017-10-25T02:04:13.204Z</time>
</trkpt>
<trkpt lat="-26.4340763" lon="152.7632222">
<ele>73.807</ele>
<time>2017-10-25T02:04:16.201Z</time>
</trkpt>
<trkpt lat="-26.4334030" lon="152.7630664">
<ele>71.856</ele>
<time>2017-10-25T02:04:19.879Z</time>
</trkpt>
<trkpt lat="-26.4329338" lon="152.7629576">
<ele>69.959</ele>
<time>2017-10-25T02:04:22.638Z</time>
</trkpt>
<trkpt lat="-26.4324559" lon="152.7630107">
<ele>68.815</ele>
<time>2017-10-25T02:04:25.216Z</time>
</trkpt>
<trkpt lat="-26.4318653" lon="152.7631930">
<ele>68.326</ele>
<time>2017-10-25T02:04:28.330Z</time>
</trkpt>
<trkpt lat="-26.4312859" lon="152.7633650">
<ele>68.052</ele>
<time>2017-10-25T02:04:31.537Z</time>
</trkpt>
<trkpt lat="-26.4307898" lon="152.7635552">
<ele>68.046</ele>
<time>2017-10-25T02:04:34.543Z</time>
</trkpt>
<trkpt lat="-26.4303099" lon="152.7636853">
<ele>68.429</ele>
<time>2017-10-25T02:04:37.426Z</time>
</trkpt>
<trkpt lat="-26.4298002" lon="152.7637101">
<ele>68.797</ele>
<time>2017-10-25T02:04:40.344Z</time>
</trkpt>
<trkpt lat="-26.4293234" lon="152.7635833">
<ele>68.561</ele>
<time>2017-10-25T02:04:43.044Z</time>
</trkpt>
<trkpt lat="-26.4287752" lon="152.7634089">
<ele>67.715</ele>
<time>2017-10-25T02:04:46.094Z</time>
</trkpt>
<trkpt lat="-26.4282656" lon="152.7631125">
<ele>66.843</ele>
<time>2017-10-25T02:04:49.149Z</time>
</trkpt>
<trkpt lat="-26.4278260" lon="152.7627372">
<ele>66.414</ele>
<time>2017-10-25T02:04:51.960Z</time>
</trkpt>
<trkpt lat="-26.4273640" lon="152.7623055">
<ele>66.852</ele>
<time>2017-10-25T02:04:54.775Z</time>
</trkpt>
<trkpt lat="-26.4269193" lon="152.7617206">
<ele>68.669</ele>
<time>2017-10-25T02:04:57.834Z</time>
</trkpt>
<trkpt lat="-26.4264166" lon="152.7612305">
<ele>71.248</ele>
<time>2017-10-25T02:05:00.841Z</time>
</trkpt>
<trkpt lat="-26.4259516" lon="152.7607024">
<ele>73.102</ele>
<time>2017-10-25T02:05:03.917Z</time>
</trkpt>
<trkpt lat="-26.4255186" lon="152.7602081">
<ele>73.702</ele>
<time>2017-10-25T02:05:06.797Z</time>
</trkpt>
<trkpt lat="-26.4250778" lon="152.7596788">
<ele>73.764</ele>
<time>2017-10-25T02:05:09.703Z</time>
</trkpt>
<trkpt lat="-26.4246269" lon="152.7591073">
<ele>73.969</ele>
<time>2017-10-25T02:05:12.738Z</time>
</trkpt>
<trkpt lat="-26.4243449" lon="152.7584370">
<ele>74.450</ele>
<time>2017-10-25T02:05:15.829Z</time>
</trkpt>
<trkpt lat="-26.4242178" lon="152.7577354">
<ele>75.575</ele>
<time>2017-10-25T02:05:18.988Z</time>
</trkpt>
<trkpt lat="-26.4240779" lon="152.7570861">
<ele>78.056</ele>
<time>2017-10-25T02:05:22.126Z</time>
</trkpt>
<trkpt lat="-26.4239558" lon="152.7564746">
<ele>81.979</ele>
<time>2017-10-25T02:05:25.287Z</time>
</trkpt>
<trkpt lat="-26.4238260" lon="152.7559192">
<ele>86.470</ele>
<time>2017-10-25T02:05:28.317Z</time>
</trkpt>
<trkpt lat="-26.4236088" lon="152.7554030">
<ele>90.098</ele>
<time>2017-10-25T02:05:31.378Z</time>
</trkpt>
<trkpt lat="-26.4232402" lon="152.7550401">
<ele>91.819</ele>
<time>2017-10-25T02:05:34.352Z</time>
</trkpt>
<trkpt lat="-26.4228416" lon="152.7547587">
<ele>91.167</ele>
<time>2017-10-25T02:05:37.263Z</time>
</trkpt>
<trkpt lat="-26.4224183" lon="152.7544660">
<ele>88.233</ele>
<time>2017-10-25T02:05:40.552Z</time>
</trkpt>
<trkpt lat="-26.4220383" lon="152.7542142">
<ele>83.964</ele>
<time>2017-10-25T02:05:44.051Z</time>
</trkpt>
<trkpt lat="-26.4217137" lon="152.7539803">
<ele>79.498</ele>
<time>2017-10-25T02:05:48.225Z</time>
</trkpt>
<trkpt lat="-26.4215118" lon="152.7537845">
<ele>75.805</ele>
<time>2017-10-25T02:05:50.843Z</time>
</trkpt>
<trkpt lat="-26.4214966" lon="152.7535536">
<ele>73.751</ele>
<time>2017-10-25T02:05:52.293Z</time>
</trkpt>
<trkpt lat="-26.4217340" lon="152.7531704">
<ele>73.574</ele>
<time>2017-10-25T02:05:54.867Z</time>
</trkpt>
<trkpt lat="-26.4219889" lon="152.7526907">
<ele>74.721</ele>
<time>2017-10-25T02:05:57.439Z</time>
</trkpt>
<trkpt lat="-26.4223308" lon="152.7520616">
<ele>76.131</ele>
<time>2017-10-25T02:06:00.398Z</time>
</trkpt>
<trkpt lat="-26.4227132" lon="152.7513774">
<ele>76.700</ele>
<time>2017-10-25T02:06:03.538Z</time>
</trkpt>
<trkpt lat="-26.4231433" lon="152.7507998">
<ele>76.215</ele>
<time>2017-10-25T02:06:06.435Z</time>
</trkpt>
<trkpt lat="-26.4236037" lon="152.7501912">
<ele>75.362</ele>
<time>2017-10-25T02:06:09.398Z</time>
</trkpt>
<trkpt lat="-26.4240556" lon="152.7495706">
<ele>74.818</ele>
<time>2017-10-25T02:06:12.346Z</time>
</trkpt>
<trkpt lat="-26.4245552" lon="152.7489774">
<ele>74.510</ele>
<time>2017-10-25T02:06:15.437Z</time>
</trkpt>
<trkpt lat="-26.4249976" lon="152.7484152">
<ele>74.088</ele>
<time>2017-10-25T02:06:18.352Z</time>
</trkpt>
<trkpt lat="-26.4254600" lon="152.7478422">
<ele>73.302</ele>
<time>2017-10-25T02:06:21.286Z</time>
</trkpt>
<trkpt lat="-26.4259581" lon="152.7472272">
<ele>72.284</ele>
<time>2017-10-25T02:06:24.280Z</time>
</trkpt>
<trkpt lat="-26.4264310" lon="152.7465883">
<ele>71.484</ele>
<time>2017-10-25T02:06:27.128Z</time>
</trkpt>
<trkpt lat="-26.4269822" lon="152.7459304">
<ele>71.141</ele>
<time>2017-10-25T02:06:30.143Z</time>
</trkpt>
<trkpt lat="-26.4275280" lon="152.7452802">
<ele>71.095</ele>
<time>2017-10-25T02:06:33.122Z</time>
</trkpt>
<trkpt lat="-26.4281004" lon="152.7446590">
<ele>71.327</ele>
<time>2017-10-25T02:06:36.178Z</time>
</trkpt>
<trkpt lat="-26.4286101" lon="152.7440431">
<ele>72.153</ele>
<time>2017-10-25T02:06:39.238Z</time>
</trkpt>
<trkpt lat="-26.4291242" lon="152.7435038">
<ele>73.663</ele>
<time>2017-10-25T02:06:42.290Z</time>
</trkpt>
<trkpt lat="-26.4295846" lon="152.7429743">
<ele>75.744</ele>
<time>2017-10-25T02:06:45.184Z</time>
</trkpt>
<trkpt lat="-26.4300580" lon="152.7424255">
<ele>78.290</ele>
<time>2017-10-25T02:06:48.141Z</time>
</trkpt>
<trkpt lat="-26.4305454" lon="152.7418872">
<ele>80.788</ele>
<time>2017-10-25T02:06:51.143Z</time>
</trkpt>
<trkpt lat="-26.4310142" lon="152.7413622">
<ele>82.507</ele>
<time>2017-10-25T02:06:54.100Z</time>
</trkpt>
<trkpt lat="-26.4314744" lon="152.7408076">
<ele>83.209</ele>
<time>2017-10-25T02:06:57.081Z</time>
</trkpt>
<trkpt lat="-26.4318850" lon="152.7401468">
<ele>82.813</ele>
<time>2017-10-25T02:07:00.203Z</time>
</trkpt>
<trkpt lat="-26.4321670" lon="152.7394382">
<ele>81.251</ele>
<time>2017-10-25T02:07:03.237Z</time>
</trkpt>
<trkpt lat="-26.4323553" lon="152.7386905">
<ele>78.963</ele>
<time>2017-10-25T02:07:06.317Z</time>
</trkpt>
<trkpt lat="-26.4325202" lon="152.7379572">
<ele>76.844</ele>
<time>2017-10-25T02:07:09.379Z</time>
</trkpt>
<trkpt lat="-26.4326997" lon="152.7372565">
<ele>75.501</ele>
<time>2017-10-25T02:07:12.376Z</time>
</trkpt>
<trkpt lat="-26.4328655" lon="152.7365708">
<ele>75.002</ele>
<time>2017-10-25T02:07:15.305Z</time>
</trkpt>
<trkpt lat="-26.4330515" lon="152.7358824">
<ele>75.185</ele>
<time>2017-10-25T02:07:18.305Z</time>
</trkpt>
<trkpt lat="-26.4333831" lon="152.7352767">
<ele>75.890</ele>
<time>2017-10-25T02:07:21.190Z</time>
</trkpt>
<trkpt lat="-26.4338235" lon="152.7347092">
<ele>76.859</ele>
<time>2017-10-25T02:07:24.132Z</time>
</trkpt>
<trkpt lat="-26.4343409" lon="152.7341935">
<ele>77.692</ele>
<time>2017-10-25T02:07:27.193Z</time>
</trkpt>
<trkpt lat="-26.4348657" lon="152.7337225">
<ele>78.042</ele>
<time>2017-10-25T02:07:30.173Z</time>
</trkpt>
<trkpt lat="-26.4353643" lon="152.7332176">
<ele>77.892</ele>
<time>2017-10-25T02:07:33.130Z</time>
</trkpt>
<trkpt lat="-26.4357670" lon="152.7326050">
<ele>77.636</ele>
<time>2017-10-25T02:07:36.089Z</time>
</trkpt>
<trkpt lat="-26.4360305" lon="152.7318977">
<ele>77.579</ele>
<time>2017-10-25T02:07:39.020Z</time>
</trkpt>
<trkpt lat="-26.4361723" lon="152.7311343">
<ele>77.509</ele>
<time>2017-10-25T02:07:42.015Z</time>
</trkpt>
<trkpt lat="-26.4361818" lon="152.7303835">
<ele>77.187</ele>
<time>2017-10-25T02:07:44.992Z</time>
</trkpt>
<trkpt lat="-26.4360822" lon="152.7296483">
<ele>76.800</ele>
<time>2017-10-25T02:07:47.996Z</time>
</trkpt>
<trkpt lat="-26.4359457" lon="152.7289189">
<ele>76.776</ele>
<time>2017-10-25T02:07:51.000Z</time>
</trkpt>
<trkpt lat="-26.4358199" lon="152.7281845">
<ele>77.207</ele>
<time>2017-10-25T02:07:53.932Z</time>
</trkpt>
<trkpt lat="-26.4358706" lon="152.7274062">
<ele>77.590</ele>
<time>2017-10-25T02:07:56.885Z</time>
</trkpt>
<trkpt lat="-26.4360213" lon="152.7266313">
<ele>77.143</ele>
<time>2017-10-25T02:07:59.921Z</time>
</trkpt>
<trkpt lat="-26.4360821" lon="152.7258690">
<ele>75.190</ele>
<time>2017-10-25T02:08:02.961Z</time>
</trkpt>
<trkpt lat="-26.4359914" lon="152.7251543">
<ele>71.828</ele>
<time>2017-10-25T02:08:05.832Z</time>
</trkpt>
<trkpt lat="-26.4356767" lon="152.7244540">
<ele>68.470</ele>
<time>2017-10-25T02:08:08.823Z</time>
</trkpt>
<trkpt lat="-26.4351588" lon="152.7238985">
<ele>66.363</ele>
<time>2017-10-25T02:08:11.801Z</time>
</trkpt>
<trkpt lat="-26.4345982" lon="152.7233788">
<ele>65.252</ele>
<time>2017-10-25T02:08:14.894Z</time>
</trkpt>
<trkpt lat="-26.4340701" lon="152.7228908">
<ele>64.508</ele>
<time>2017-10-25T02:08:17.994Z</time>
</trkpt>
<trkpt lat="-26.4335994" lon="152.7224278">
<ele>64.230</ele>
<time>2017-10-25T02:08:20.964Z</time>
</trkpt>
<trkpt lat="-26.4331027" lon="152.7219714">
<ele>64.676</ele>
<time>2017-10-25T02:08:24.012Z</time>
</trkpt>
<trkpt lat="-26.4326427" lon="152.7215227">
<ele>65.609</ele>
<time>2017-10-25T02:08:26.882Z</time>
</trkpt>
<trkpt lat="-26.4321365" lon="152.7210682">
<ele>66.616</ele>
<time>2017-10-25T02:08:29.894Z</time>
</trkpt>
<trkpt lat="-26.4316320" lon="152.7206102">
<ele>67.430</ele>
<time>2017-10-25T02:08:32.883Z</time>
</trkpt>
<trkpt lat="-26.4311433" lon="152.7201369">
<ele>67.884</ele>
<time>2017-10-25T02:08:35.861Z</time>
</trkpt>
<trkpt lat="-26.4306434" lon="152.7196582">
<ele>67.958</ele>
<time>2017-10-25T02:08:38.893Z</time>
</trkpt>
<trkpt lat="-26.4301513" lon="152.7191896">
<ele>67.823</ele>
<time>2017-10-25T02:08:41.898Z</time>
</trkpt>
<trkpt lat="-26.4296742" lon="152.7187603">
<ele>67.818</ele>
<time>2017-10-25T02:08:44.928Z</time>
</trkpt>
<trkpt lat="-26.4292670" lon="152.7183527">
<ele>68.160</ele>
<time>2017-10-25T02:08:47.993Z</time>
</trkpt>
<trkpt lat="-26.4289290" lon="152.7180131">
<ele>68.654</ele>
<time>2017-10-25T02:08:51.360Z</time>
</trkpt>
<trkpt lat="-26.4287056" lon="152.7177836">
<ele>69.088</ele>
<time>2017-10-25T02:08:55.397Z</time>
</trkpt>
<trkpt lat="-26.4285832" lon="152.7176637">
<ele>69.465</ele>
<time>2017-10-25T02:08:58.518Z</time>
</trkpt>
<trkpt lat="-26.4285027" lon="152.7175770">
<ele>69.759</ele>
<time>2017-10-25T02:09:00.424Z</time>
</trkpt>
<trkpt lat="-26.4283759" lon="152.7175700">
<ele>69.927</ele>
<time>2017-10-25T02:09:01.933Z</time>
</trkpt>
<trkpt lat="-26.4281597" lon="152.7179236">
<ele>69.848</ele>
<time>2017-10-25T02:09:05.334Z</time>
</trkpt>
<trkpt lat="-26.4278433" lon="152.7182653">
<ele>69.363</ele>
<time>2017-10-25T02:09:08.066Z</time>
</trkpt>
<trkpt lat="-26.4273380" lon="152.7186939">
<ele>68.462</ele>
<time>2017-10-25T02:09:11.211Z</time>
</trkpt>
<trkpt lat="-26.4267277" lon="152.7190987">
<ele>66.963</ele>
<time>2017-10-25T02:09:14.336Z</time>
</trkpt>
<trkpt lat="-26.4260793" lon="152.7194230">
<ele>64.577</ele>
<time>2017-10-25T02:09:17.363Z</time>
</trkpt>
<trkpt lat="-26.4254147" lon="152.7196868">
<ele>61.915</ele>
<time>2017-10-25T02:09:20.265Z</time>
</trkpt>
<trkpt lat="-26.4246370" lon="152.7198284">
<ele>60.161</ele>
<time>2017-10-25T02:09:23.403Z</time>
</trkpt>
<trkpt lat="-26.4238900" lon="152.7199981">
<ele>59.628</ele>
<time>2017-10-25T02:09:26.450Z</time>
</trkpt>
<trkpt lat="-26.4231673" lon="152.7201198">
<ele>59.560</ele>
<time>2017-10-25T02:09:29.343Z</time>
</trkpt>
<trkpt lat="-26.4223937" lon="152.7202308">
<ele>59.009</ele>
<time>2017-10-25T02:09:32.341Z</time>
</trkpt>
<trkpt lat="-26.4215967" lon="152.7203301">
<ele>57.500</ele>
<time>2017-10-25T02:09:35.391Z</time>
</trkpt>
<trkpt lat="-26.4208146" lon="152.7203103">
<ele>55.566</ele>
<time>2017-10-25T02:09:38.412Z</time>
</trkpt>
<trkpt lat="-26.4200589" lon="152.7201502">
<ele>54.293</ele>
<time>2017-10-25T02:09:41.461Z</time>
</trkpt>
<trkpt lat="-26.4193519" lon="152.7199049">
<ele>54.161</ele>
<time>2017-10-25T02:09:44.488Z</time>
</trkpt>
<trkpt lat="-26.4187071" lon="152.7195695">
<ele>54.973</ele>
<time>2017-10-25T02:09:47.440Z</time>
</trkpt>
<trkpt lat="-26.4180747" lon="152.7191502">
<ele>56.777</ele>
<time>2017-10-25T02:09:50.449Z</time>
</trkpt>
<trkpt lat="-26.4174986" lon="152.7186647">
<ele>59.902</ele>
<time>2017-10-25T02:09:53.319Z</time>
</trkpt>
<trkpt lat="-26.4169518" lon="152.7180316">
<ele>64.316</ele>
<time>2017-10-25T02:09:56.366Z</time>
</trkpt>
<trkpt lat="-26.4163790" lon="152.7174036">
<ele>69.222</ele>
<time>2017-10-25T02:09:59.443Z</time>
</trkpt>
<trkpt lat="-26.4158296" lon="152.7167918">
<ele>73.167</ele>
<time>2017-10-25T02:10:02.477Z</time>
</trkpt>
<trkpt lat="-26.4152309" lon="152.7163115">
<ele>74.906</ele>
<time>2017-10-25T02:10:05.461Z</time>
</trkpt>
<trkpt lat="-26.4147004" lon="152.7158031">
<ele>74.235</ele>
<time>2017-10-25T02:10:08.336Z</time>
</trkpt>
<trkpt lat="-26.4141159" lon="152.7153259">
<ele>72.042</ele>
<time>2017-10-25T02:10:11.272Z</time>
</trkpt>
<trkpt lat="-26.4135124" lon="152.7148107">
<ele>69.740</ele>
<time>2017-10-25T02:10:14.288Z</time>
</trkpt>
<trkpt lat="-26.4130973" lon="152.7144883">
<ele>68.316</ele>
<time>2017-10-25T02:10:16.254Z</time>
</trkpt>
<trkpt lat="-26.4126470" lon="152.7141818">
<ele>67.824</ele>
<time>2017-10-25T02:10:18.272Z</time>
</trkpt>
<trkpt lat="-26.4121558" lon="152.7139604">
<ele>67.671</ele>
<time>2017-10-25T02:10:20.303Z</time>
</trkpt>
<trkpt lat="-26.4116423" lon="152.7138762">
<ele>67.215</ele>
<time>2017-10-25T02:10:22.336Z</time>
</trkpt>
<trkpt lat="-26.4111460" lon="152.7137941">
<ele>66.300</ele>
<time>2017-10-25T02:10:24.326Z</time>
</trkpt>
<trkpt lat="-26.4106371" lon="152.7136681">
<ele>65.216</ele>
<time>2017-10-25T02:10:26.392Z</time>
</trkpt>
<trkpt lat="-26.4101580" lon="152.7135480">
<ele>64.285</ele>
<time>2017-10-25T02:10:28.344Z</time>
</trkpt>
<trkpt lat="-26.4096759" lon="152.7134221">
<ele>63.602</ele>
<time>2017-10-25T02:10:30.350Z</time>
</trkpt>
<trkpt lat="-26.4092289" lon="152.7133140">
<ele>63.064</ele>
<time>2017-10-25T02:10:32.239Z</time>
</trkpt>
<trkpt lat="-26.4085256" lon="152.7131685">
<ele>62.574</ele>
<time>2017-10-25T02:10:35.224Z</time>
</trkpt>
<trkpt lat="-26.4078196" lon="152.7129774">
<ele>62.087</ele>
<time>2017-10-25T02:10:38.281Z</time>
</trkpt>
<trkpt lat="-26.4071345" lon="152.7128402">
<ele>61.558</ele>
<time>2017-10-25T02:10:41.176Z</time>
</trkpt>
<trkpt lat="-26.4064102" lon="152.7126712">
<ele>61.028</ele>
<time>2017-10-25T02:10:44.196Z</time>
</trkpt>
<trkpt lat="-26.4056986" lon="152.7124555">
<ele>60.647</ele>
<time>2017-10-25T02:10:47.226Z</time>
</trkpt>
<trkpt lat="-26.4050403" lon="152.7122907">
<ele>60.493</ele>
<time>2017-10-25T02:10:50.067Z</time>
</trkpt>
<trkpt lat="-26.4043774" lon="152.7119966">
<ele>60.514</ele>
<time>2017-10-25T02:10:53.059Z</time>
</trkpt>
<trkpt lat="-26.4037170" lon="152.7116331">
<ele>60.673</ele>
<time>2017-10-25T02:10:56.033Z</time>
</trkpt>
<trkpt lat="-26.4030844" lon="152.7110837">
<ele>61.427</ele>
<time>2017-10-25T02:10:59.218Z</time>
</trkpt>
<trkpt lat="-26.4025229" lon="152.7105415">
<ele>63.911</ele>
<time>2017-10-25T02:11:02.215Z</time>
</trkpt>
<trkpt lat="-26.4019953" lon="152.7099597">
<ele>69.028</ele>
<time>2017-10-25T02:11:05.238Z</time>
</trkpt>
<trkpt lat="-26.4015994" lon="152.7092944">
<ele>76.262</ele>
<time>2017-10-25T02:11:08.181Z</time>
</trkpt>
<trkpt lat="-26.4011833" lon="152.7086845">
<ele>83.957</ele>
<time>2017-10-25T02:11:11.027Z</time>
</trkpt>
<trkpt lat="-26.4008715" lon="152.7082726">
<ele>90.459</ele>
<time>2017-10-25T02:11:12.976Z</time>
</trkpt>
<trkpt lat="-26.4003110" lon="152.7076712">
<ele>94.678</ele>
<time>2017-10-25T02:11:16.019Z</time>
</trkpt>
<trkpt lat="-26.3998975" lon="152.7072970">
<ele>96.300</ele>
<time>2017-10-25T02:11:18.046Z</time>
</trkpt>
<trkpt lat="-26.3993010" lon="152.7067461">
<ele>95.951</ele>
<time>2017-10-25T02:11:21.051Z</time>
</trkpt>
<trkpt lat="-26.3987616" lon="152.7061847">
<ele>94.376</ele>
<time>2017-10-25T02:11:23.969Z</time>
</trkpt>
<trkpt lat="-26.3982476" lon="152.7055618">
<ele>91.700</ele>
<time>2017-10-25T02:11:26.962Z</time>
</trkpt>
<trkpt lat="-26.3978374" lon="152.7048545">
<ele>87.890</ele>
<time>2017-10-25T02:11:29.955Z</time>
</trkpt>
<trkpt lat="-26.3975485" lon="152.7041125">
<ele>83.691</ele>
<time>2017-10-25T02:11:32.885Z</time>
</trkpt>
<trkpt lat="-26.3974127" lon="152.7033035">
<ele>80.485</ele>
<time>2017-10-25T02:11:35.901Z</time>
</trkpt>
<trkpt lat="-26.3973613" lon="152.7024916">
<ele>79.007</ele>
<time>2017-10-25T02:11:38.914Z</time>
</trkpt>
<trkpt lat="-26.3972491" lon="152.7017178">
<ele>78.924</ele>
<time>2017-10-25T02:11:41.832Z</time>
</trkpt>
<trkpt lat="-26.3969688" lon="152.7009399">
<ele>79.745</ele>
<time>2017-10-25T02:11:44.920Z</time>
</trkpt>
<trkpt lat="-26.3965937" lon="152.7002381">
<ele>81.243</ele>
<time>2017-10-25T02:11:47.896Z</time>
</trkpt>
<trkpt lat="-26.3961053" lon="152.6996166">
<ele>82.973</ele>
<time>2017-10-25T02:11:50.953Z</time>
</trkpt>
<trkpt lat="-26.3956374" lon="152.6990507">
<ele>84.566</ele>
<time>2017-10-25T02:11:53.886Z</time>
</trkpt>
<trkpt lat="-26.3953053" lon="152.6984195">
<ele>85.925</ele>
<time>2017-10-25T02:11:56.696Z</time>
</trkpt>
<trkpt lat="-26.3950675" lon="152.6976465">
<ele>86.907</ele>
<time>2017-10-25T02:11:59.797Z</time>
</trkpt>
<trkpt lat="-26.3949213" lon="152.6968585">
<ele>87.743</ele>
<time>2017-10-25T02:12:02.805Z</time>
</trkpt>
<trkpt lat="-26.3948043" lon="152.6960881">
<ele>89.247</ele>
<time>2017-10-25T02:12:05.712Z</time>
</trkpt>
<trkpt lat="-26.3947062" lon="152.6953125">
<ele>91.959</ele>
<time>2017-10-25T02:12:08.668Z</time>
</trkpt>
<trkpt lat="-26.3946342" lon="152.6945445">
<ele>95.674</ele>
<time>2017-10-25T02:12:11.633Z</time>
</trkpt>
<trkpt lat="-26.3945265" lon="152.6937836">
<ele>99.232</ele>
<time>2017-10-25T02:12:14.577Z</time>
</trkpt>
<trkpt lat="-26.3944375" lon="152.6929791">
<ele>101.144</ele>
<time>2017-10-25T02:12:17.631Z</time>
</trkpt>
<trkpt lat="-26.3943301" lon="152.6922111">
<ele>100.716</ele>
<time>2017-10-25T02:12:20.562Z</time>
</trkpt>
<trkpt lat="-26.3941525" lon="152.6914520">
<ele>98.251</ele>
<time>2017-10-25T02:12:23.567Z</time>
</trkpt>
<trkpt lat="-26.3937949" lon="152.6907686">
<ele>94.354</ele>
<time>2017-10-25T02:12:26.638Z</time>
</trkpt>
<trkpt lat="-26.3932345" lon="152.6902422">
<ele>89.742</ele>
<time>2017-10-25T02:12:29.842Z</time>
</trkpt>
<trkpt lat="-26.3926892" lon="152.6898242">
<ele>85.448</ele>
<time>2017-10-25T02:12:32.817Z</time>
</trkpt>
<trkpt lat="-26.3921400" lon="152.6894436">
<ele>82.304</ele>
<time>2017-10-25T02:12:35.804Z</time>
</trkpt>
<trkpt lat="-26.3915907" lon="152.6890690">
<ele>80.272</ele>
<time>2017-10-25T02:12:38.906Z</time>
</trkpt>
<trkpt lat="-26.3911321" lon="152.6887487">
<ele>79.042</ele>
<time>2017-10-25T02:12:41.769Z</time>
</trkpt>
<trkpt lat="-26.3907388" lon="152.6884430">
<ele>78.222</ele>
<time>2017-10-25T02:12:44.637Z</time>
</trkpt>
<trkpt lat="-26.3903752" lon="152.6881925">
<ele>77.073</ele>
<time>2017-10-25T02:12:47.590Z</time>
</trkpt>
<trkpt lat="-26.3900964" lon="152.6879271">
<ele>75.289</ele>
<time>2017-10-25T02:12:50.746Z</time>
</trkpt>
<trkpt lat="-26.3899224" lon="152.6877858">
<ele>73.338</ele>
<time>2017-10-25T02:12:52.908Z</time>
</trkpt>
<trkpt lat="-26.3900208" lon="152.6874380">
<ele>71.458</ele>
<time>2017-10-25T02:12:55.947Z</time>
</trkpt>
<trkpt lat="-26.3898710" lon="152.6869009">
<ele>69.494</ele>
<time>2017-10-25T02:12:59.410Z</time>
</trkpt>
<trkpt lat="-26.3895846" lon="152.6863966">
<ele>67.601</ele>
<time>2017-10-25T02:13:02.499Z</time>
</trkpt>
<trkpt lat="-26.3892399" lon="152.6858843">
<ele>65.980</ele>
<time>2017-10-25T02:13:05.661Z</time>
</trkpt>
<trkpt lat="-26.3889024" lon="152.6854478">
<ele>64.671</ele>
<time>2017-10-25T02:13:08.600Z</time>
</trkpt>
<trkpt lat="-26.3885459" lon="152.6850796">
<ele>64.036</ele>
<time>2017-10-25T02:13:11.577Z</time>
</trkpt>
<trkpt lat="-26.3882201" lon="152.6847949">
<ele>64.651</ele>
<time>2017-10-25T02:13:14.330Z</time>
</trkpt>
<trkpt lat="-26.3879027" lon="152.6844844">
<ele>66.284</ele>
<time>2017-10-25T02:13:17.280Z</time>
</trkpt>
<trkpt lat="-26.3875812" lon="152.6841396">
<ele>67.851</ele>
<time>2017-10-25T02:13:20.402Z</time>
</trkpt>
<trkpt lat="-26.3873144" lon="152.6837724">
<ele>68.409</ele>
<time>2017-10-25T02:13:23.390Z</time>
</trkpt>
<trkpt lat="-26.3871422" lon="152.6833757">
<ele>67.716</ele>
<time>2017-10-25T02:13:26.286Z</time>
</trkpt>
<trkpt lat="-26.3870597" lon="152.6829778">
<ele>66.233</ele>
<time>2017-10-25T02:13:29.089Z</time>
</trkpt>
<trkpt lat="-26.3869706" lon="152.6825786">
<ele>64.847</ele>
<time>2017-10-25T02:13:32.032Z</time>
</trkpt>
<trkpt lat="-26.3868175" lon="152.6822207">
<ele>64.061</ele>
<time>2017-10-25T02:13:34.918Z</time>
</trkpt>
<trkpt lat="-26.3867242" lon="152.6818212">
<ele>64.007</ele>
<time>2017-10-25T02:13:37.869Z</time>
</trkpt>
<trkpt lat="-26.3866927" lon="152.6813848">
<ele>64.948</ele>
<time>2017-10-25T02:13:40.933Z</time>
</trkpt>
<trkpt lat="-26.3868000" lon="152.6809330">
<ele>66.716</ele>
<time>2017-10-25T02:13:44.215Z</time>
</trkpt>
<trkpt lat="-26.3868097" lon="152.6805269">
<ele>68.385</ele>
<time>2017-10-25T02:13:47.175Z</time>
</trkpt>
<trkpt lat="-26.3868423" lon="152.6801576">
<ele>69.049</ele>
<time>2017-10-25T02:13:50.005Z</time>
</trkpt>
<trkpt lat="-26.3868592" lon="152.6797562">
<ele>68.707</ele>
<time>2017-10-25T02:13:53.143Z</time>
</trkpt>
<trkpt lat="-26.3869285" lon="152.6793711">
<ele>68.134</ele>
<time>2017-10-25T02:13:56.255Z</time>
</trkpt>
<trkpt lat="-26.3869953" lon="152.6790392">
<ele>68.033</ele>
<time>2017-10-25T02:13:59.029Z</time>
</trkpt>
<trkpt lat="-26.3870440" lon="152.6786726">
<ele>68.473</ele>
<time>2017-10-25T02:14:02.105Z</time>
</trkpt>
<trkpt lat="-26.3871296" lon="152.6783256">
<ele>69.374</ele>
<time>2017-10-25T02:14:05.131Z</time>
</trkpt>
<trkpt lat="-26.3872085" lon="152.6780034">
<ele>70.654</ele>
<time>2017-10-25T02:14:08.092Z</time>
</trkpt>
<trkpt lat="-26.3872697" lon="152.6777553">
<ele>71.939</ele>
<time>2017-10-25T02:14:10.564Z</time>
</trkpt>
<trkpt lat="-26.3873330" lon="152.6774807">
<ele>72.800</ele>
<time>2017-10-25T02:14:13.506Z</time>
</trkpt>
<trkpt lat="-26.3874175" lon="152.6771957">
<ele>73.244</ele>
<time>2017-10-25T02:14:16.632Z</time>
</trkpt>
<trkpt lat="-26.3874921" lon="152.6768834">
<ele>73.504</ele>
<time>2017-10-25T02:14:19.897Z</time>
</trkpt>
<trkpt lat="-26.3875344" lon="152.6765814">
<ele>73.694</ele>
<time>2017-10-25T02:14:22.929Z</time>
</trkpt>
<trkpt lat="-26.3876627" lon="152.6763331">
<ele>73.827</ele>
<time>2017-10-25T02:14:26.031Z</time>
</trkpt>
<trkpt lat="-26.3878378" lon="152.6763499">
<ele>74.016</ele>
<time>2017-10-25T02:14:28.889Z</time>
</trkpt>
<trkpt lat="-26.3879244" lon="152.6763813">
<ele>74.545</ele>
<time>2017-10-25T02:14:31.043Z</time>
</trkpt>
<trkpt lat="-26.3879244" lon="152.6763813">
<ele>75.407</ele>
<time>2017-10-25T02:14:34.043Z</time>
</trkpt>
<trkpt lat="-26.3879244" lon="152.6763813">
<ele>75.993</ele>
<time>2017-10-25T02:14:41.789Z</time>
</trkpt>
<trkpt lat="-26.3880852" lon="152.6764343">
<ele>75.899</ele>
<time>2017-10-25T02:14:49.204Z</time>
</trkpt>
<trkpt lat="-26.3881911" lon="152.6764268">
<ele>75.455</ele>
<time>2017-10-25T02:14:51.726Z</time>
</trkpt>
<trkpt lat="-26.3883668" lon="152.6764595">
<ele>75.045</ele>
<time>2017-10-25T02:14:54.934Z</time>
</trkpt>
<trkpt lat="-26.3885986" lon="152.6764844">
<ele>74.725</ele>
<time>2017-10-25T02:14:58.492Z</time>
</trkpt>
<trkpt lat="-26.3887490" lon="152.6764982">
<ele>74.481</ele>
<time>2017-10-25T02:15:00.981Z</time>
</trkpt>
<trkpt lat="-26.3889001" lon="152.6765624">
<ele>74.202</ele>
<time>2017-10-25T02:15:04.243Z</time>
</trkpt>
<trkpt lat="-26.3890082" lon="152.6765810">
<ele>73.808</ele>
<time>2017-10-25T02:15:07.299Z</time>
</trkpt>
<trkpt lat="-26.3889433" lon="152.6765016">
<ele>73.468</ele>
<time>2017-10-25T02:15:10.014Z</time>
</trkpt>
<trkpt lat="-26.3887875" lon="152.6764933">
<ele>73.349</ele>
<time>2017-10-25T02:15:13.437Z</time>
</trkpt>
<trkpt lat="-26.3886293" lon="152.6764634">
<ele>73.477</ele>
<time>2017-10-25T02:15:16.402Z</time>
</trkpt>
<trkpt lat="-26.3884762" lon="152.6764374">
<ele>73.928</ele>
<time>2017-10-25T02:15:19.232Z</time>
</trkpt>
<trkpt lat="-26.3883387" lon="152.6764046">
<ele>74.646</ele>
<time>2017-10-25T02:15:22.003Z</time>
</trkpt>
<trkpt lat="-26.3882131" lon="152.6763875">
<ele>75.365</ele>
<time>2017-10-25T02:15:24.819Z</time>
</trkpt>
<trkpt lat="-26.3881002" lon="152.6763693">
<ele>75.958</ele>
<time>2017-10-25T02:15:27.810Z</time>
</trkpt>
<trkpt lat="-26.3880123" lon="152.6763224">
<ele>76.450</ele>
<time>2017-10-25T02:15:31.043Z</time>
</trkpt>
<trkpt lat="-26.3880123" lon="152.6763224">
<ele>76.766</ele>
<time>2017-10-25T02:15:35.043Z</time>
</trkpt>
<trkpt lat="-26.3880123" lon="152.6763224">
<ele>76.856</ele>
<time>2017-10-25T03:09:02.105Z</time>
</trkpt>
<trkpt lat="-26.3879797" lon="152.6760699">
<ele>76.803</ele>
<time>2017-10-25T03:10:33.028Z</time>
</trkpt>
<trkpt lat="-26.3879797" lon="152.6760699">
<ele>76.726</ele>
<time>2017-10-25T03:10:36.028Z</time>
</trkpt>
<trkpt lat="-26.3879797" lon="152.6760699">
<ele>76.693</ele>
<time>2017-10-25T03:14:15.384Z</time>
</trkpt>
<trkpt lat="-26.3878418" lon="152.6760983">
<ele>76.695</ele>
<time>2017-10-25T03:14:22.279Z</time>
</trkpt>
<trkpt lat="-26.3877465" lon="152.6760961">
<ele>77.671</ele>
<time>2017-10-25T03:14:24.988Z</time>
</trkpt>
<trkpt lat="-26.3876750" lon="152.6761751">
<ele>80.192</ele>
<time>2017-10-25T03:14:27.588Z</time>
</trkpt>
<trkpt lat="-26.3876276" lon="152.6762944">
<ele>82.695</ele>
<time>2017-10-25T03:14:31.001Z</time>
</trkpt>
<trkpt lat="-26.3875939" lon="152.6764020">
<ele>83.713</ele>
<time>2017-10-25T03:14:34.281Z</time>
</trkpt>
<trkpt lat="-26.3875727" lon="152.6764996">
<ele>83.702</ele>
<time>2017-10-25T03:14:36.471Z</time>
</trkpt>
<trkpt lat="-26.3875599" lon="152.6766037">
<ele>83.453</ele>
<time>2017-10-25T03:14:38.083Z</time>
</trkpt>
<trkpt lat="-26.3875224" lon="152.6767792">
<ele>83.321</ele>
<time>2017-10-25T03:14:40.082Z</time>
</trkpt>
<trkpt lat="-26.3874764" lon="152.6769856">
<ele>83.303</ele>
<time>2017-10-25T03:14:42.073Z</time>
</trkpt>
<trkpt lat="-26.3874235" lon="152.6772108">
<ele>83.302</ele>
<time>2017-10-25T03:14:44.092Z</time>
</trkpt>
<trkpt lat="-26.3873719" lon="152.6774474">
<ele>83.287</ele>
<time>2017-10-25T03:14:46.123Z</time>
</trkpt>
<trkpt lat="-26.3873131" lon="152.6776855">
<ele>83.329</ele>
<time>2017-10-25T03:14:48.119Z</time>
</trkpt>
<trkpt lat="-26.3872540" lon="152.6779337">
<ele>83.497</ele>
<time>2017-10-25T03:14:50.134Z</time>
</trkpt>
<trkpt lat="-26.3871916" lon="152.6781862">
<ele>83.783</ele>
<time>2017-10-25T03:14:52.127Z</time>
</trkpt>
<trkpt lat="-26.3871324" lon="152.6784488">
<ele>84.133</ele>
<time>2017-10-25T03:14:54.099Z</time>
</trkpt>
<trkpt lat="-26.3870664" lon="152.6787244">
<ele>84.509</ele>
<time>2017-10-25T03:14:56.143Z</time>
</trkpt>
<trkpt lat="-26.3870024" lon="152.6789983">
<ele>84.977</ele>
<time>2017-10-25T03:14:58.202Z</time>
</trkpt>
<trkpt lat="-26.3869397" lon="152.6792611">
<ele>85.576</ele>
<time>2017-10-25T03:15:00.214Z</time>
</trkpt>
<trkpt lat="-26.3868794" lon="152.6795247">
<ele>86.118</ele>
<time>2017-10-25T03:15:02.263Z</time>
</trkpt>
<trkpt lat="-26.3868377" lon="152.6797806">
<ele>86.378</ele>
<time>2017-10-25T03:15:04.210Z</time>
</trkpt>
<trkpt lat="-26.3868119" lon="152.6800481">
<ele>86.322</ele>
<time>2017-10-25T03:15:06.136Z</time>
</trkpt>
<trkpt lat="-26.3868010" lon="152.6803406">
<ele>86.068</ele>
<time>2017-10-25T03:15:08.121Z</time>
</trkpt>
<trkpt lat="-26.3867939" lon="152.6806490">
<ele>85.788</ele>
<time>2017-10-25T03:15:10.187Z</time>
</trkpt>
<trkpt lat="-26.3867872" lon="152.6809396">
<ele>85.607</ele>
<time>2017-10-25T03:15:12.179Z</time>
</trkpt>
<trkpt lat="-26.3867743" lon="152.6812245">
<ele>85.656</ele>
<time>2017-10-25T03:15:14.142Z</time>
</trkpt>
<trkpt lat="-26.3867754" lon="152.6815176">
<ele>85.951</ele>
<time>2017-10-25T03:15:16.109Z</time>
</trkpt>
<trkpt lat="-26.3868021" lon="152.6818189">
<ele>85.397</ele>
<time>2017-10-25T03:15:18.073Z</time>
</trkpt>
<trkpt lat="-26.3868505" lon="152.6821282">
<ele>83.279</ele>
<time>2017-10-25T03:15:20.043Z</time>
</trkpt>
<trkpt lat="-26.3869097" lon="152.6824435">
<ele>80.557</ele>
<time>2017-10-25T03:15:22.016Z</time>
</trkpt>
<trkpt lat="-26.3869818" lon="152.6827613">
<ele>78.441</ele>
<time>2017-10-25T03:15:23.979Z</time>
</trkpt>
<trkpt lat="-26.3870513" lon="152.6830883">
<ele>77.291</ele>
<time>2017-10-25T03:15:25.927Z</time>
</trkpt>
<trkpt lat="-26.3871448" lon="152.6834288">
<ele>76.871</ele>
<time>2017-10-25T03:15:27.888Z</time>
</trkpt>
<trkpt lat="-26.3872857" lon="152.6837862">
<ele>76.645</ele>
<time>2017-10-25T03:15:29.935Z</time>
</trkpt>
<trkpt lat="-26.3875259" lon="152.6840884">
<ele>76.537</ele>
<time>2017-10-25T03:15:31.989Z</time>
</trkpt>
<trkpt lat="-26.3877880" lon="152.6843921">
<ele>76.693</ele>
<time>2017-10-25T03:15:34.091Z</time>
</trkpt>
<trkpt lat="-26.3880629" lon="152.6846679">
<ele>77.616</ele>
<time>2017-10-25T03:15:36.096Z</time>
</trkpt>
<trkpt lat="-26.3883479" lon="152.6849354">
<ele>79.822</ele>
<time>2017-10-25T03:15:38.066Z</time>
</trkpt>
<trkpt lat="-26.3886082" lon="152.6852279">
<ele>82.851</ele>
<time>2017-10-25T03:15:40.058Z</time>
</trkpt>
<trkpt lat="-26.3888425" lon="152.6855147">
<ele>85.561</ele>
<time>2017-10-25T03:15:42.041Z</time>
</trkpt>
<trkpt lat="-26.3890676" lon="152.6857764">
<ele>87.246</ele>
<time>2017-10-25T03:15:43.960Z</time>
</trkpt>
<trkpt lat="-26.3892839" lon="152.6860660">
<ele>87.734</ele>
<time>2017-10-25T03:15:45.964Z</time>
</trkpt>
<trkpt lat="-26.3894908" lon="152.6863602">
<ele>87.064</ele>
<time>2017-10-25T03:15:47.996Z</time>
</trkpt>
<trkpt lat="-26.3896654" lon="152.6866275">
<ele>85.635</ele>
<time>2017-10-25T03:15:49.874Z</time>
</trkpt>
<trkpt lat="-26.3898155" lon="152.6869064">
<ele>84.039</ele>
<time>2017-10-25T03:15:51.839Z</time>
</trkpt>
<trkpt lat="-26.3898975" lon="152.6871965">
<ele>82.662</ele>
<time>2017-10-25T03:15:53.908Z</time>
</trkpt>
<trkpt lat="-26.3899289" lon="152.6874432">
<ele>81.615</ele>
<time>2017-10-25T03:15:56.117Z</time>
</trkpt>
<trkpt lat="-26.3899085" lon="152.6875864">
<ele>80.942</ele>
<time>2017-10-25T03:15:57.956Z</time>
</trkpt>
<trkpt lat="-26.3899066" lon="152.6877170">
<ele>80.661</ele>
<time>2017-10-25T03:16:00.002Z</time>
</trkpt>
<trkpt lat="-26.3898743" lon="152.6878410">
<ele>80.673</ele>
<time>2017-10-25T03:16:02.183Z</time>
</trkpt>
<trkpt lat="-26.3898979" lon="152.6879765">
<ele>80.783</ele>
<time>2017-10-25T03:16:03.956Z</time>
</trkpt>
<trkpt lat="-26.3900640" lon="152.6880829">
<ele>80.922</ele>
<time>2017-10-25T03:16:05.734Z</time>
</trkpt>
<trkpt lat="-26.3903230" lon="152.6882048">
<ele>81.197</ele>
<time>2017-10-25T03:16:07.713Z</time>
</trkpt>
<trkpt lat="-26.3906195" lon="152.6883976">
<ele>81.701</ele>
<time>2017-10-25T03:16:09.682Z</time>
</trkpt>
<trkpt lat="-26.3909864" lon="152.6886342">
<ele>82.475</ele>
<time>2017-10-25T03:16:11.861Z</time>
</trkpt>
<trkpt lat="-26.3913181" lon="152.6889173">
<ele>83.650</ele>
<time>2017-10-25T03:16:13.978Z</time>
</trkpt>
<trkpt lat="-26.3916153" lon="152.6891362">
<ele>85.312</ele>
<time>2017-10-25T03:16:15.901Z</time>
</trkpt>
<trkpt lat="-26.3918820" lon="152.6893405">
<ele>87.344</ele>
<time>2017-10-25T03:16:17.734Z</time>
</trkpt>
<trkpt lat="-26.3921806" lon="152.6895381">
<ele>89.308</ele>
<time>2017-10-25T03:16:19.667Z</time>
</trkpt>
<trkpt lat="-26.3925031" lon="152.6897457">
<ele>90.619</ele>
<time>2017-10-25T03:16:21.624Z</time>
</trkpt>
<trkpt lat="-26.3928483" lon="152.6900111">
<ele>91.144</ele>
<time>2017-10-25T03:16:23.681Z</time>
</trkpt>
<trkpt lat="-26.3932045" lon="152.6902800">
<ele>91.253</ele>
<time>2017-10-25T03:16:25.695Z</time>
</trkpt>
<trkpt lat="-26.3935391" lon="152.6905913">
<ele>91.269</ele>
<time>2017-10-25T03:16:27.731Z</time>
</trkpt>
<trkpt lat="-26.3937967" lon="152.6909370">
<ele>91.391</ele>
<time>2017-10-25T03:16:29.638Z</time>
</trkpt>
<trkpt lat="-26.3940013" lon="152.6913892">
<ele>91.717</ele>
<time>2017-10-25T03:16:31.741Z</time>
</trkpt>
<trkpt lat="-26.3941568" lon="152.6918527">
<ele>92.226</ele>
<time>2017-10-25T03:16:33.694Z</time>
</trkpt>
<trkpt lat="-26.3942922" lon="152.6923774">
<ele>92.809</ele>
<time>2017-10-25T03:16:35.791Z</time>
</trkpt>
<trkpt lat="-26.3943745" lon="152.6929010">
<ele>93.299</ele>
<time>2017-10-25T03:16:37.849Z</time>
</trkpt>
<trkpt lat="-26.3944452" lon="152.6933844">
<ele>93.581</ele>
<time>2017-10-25T03:16:39.802Z</time>
</trkpt>
<trkpt lat="-26.3945078" lon="152.6938617">
<ele>93.699</ele>
<time>2017-10-25T03:16:41.784Z</time>
</trkpt>
<trkpt lat="-26.3945560" lon="152.6943284">
<ele>93.778</ele>
<time>2017-10-25T03:16:43.748Z</time>
</trkpt>
<trkpt lat="-26.3946103" lon="152.6948115">
<ele>94.041</ele>
<time>2017-10-25T03:16:45.798Z</time>
</trkpt>
<trkpt lat="-26.3946542" lon="152.6952655">
<ele>94.810</ele>
<time>2017-10-25T03:16:47.721Z</time>
</trkpt>
<trkpt lat="-26.3947155" lon="152.6957222">
<ele>96.235</ele>
<time>2017-10-25T03:16:49.635Z</time>
</trkpt>
<trkpt lat="-26.3947576" lon="152.6962039">
<ele>98.101</ele>
<time>2017-10-25T03:16:51.606Z</time>
</trkpt>
<trkpt lat="-26.3948429" lon="152.6966867">
<ele>101.669</ele>
<time>2017-10-25T03:16:53.597Z</time>
</trkpt>
<trkpt lat="-26.3949249" lon="152.6971751">
<ele>107.549</ele>
<time>2017-10-25T03:16:55.620Z</time>
</trkpt>
<trkpt lat="-26.3950020" lon="152.6976419">
<ele>113.003</ele>
<time>2017-10-25T03:16:57.569Z</time>
</trkpt>
<trkpt lat="-26.3951095" lon="152.6981296">
<ele>115.710</ele>
<time>2017-10-25T03:16:59.603Z</time>
</trkpt>
<trkpt lat="-26.3952692" lon="152.6985947">
<ele>116.464</ele>
<time>2017-10-25T03:17:01.553Z</time>
</trkpt>
<trkpt lat="-26.3955138" lon="152.6990208">
<ele>116.483</ele>
<time>2017-10-25T03:17:03.454Z</time>
</trkpt>
<trkpt lat="-26.3958222" lon="152.6994828">
<ele>116.370</ele>
<time>2017-10-25T03:17:05.547Z</time>
</trkpt>
<trkpt lat="-26.3961413" lon="152.6998824">
<ele>116.240</ele>
<time>2017-10-25T03:17:07.488Z</time>
</trkpt>
<trkpt lat="-26.3964740" lon="152.7002727">
<ele>115.605</ele>
<time>2017-10-25T03:17:09.486Z</time>
</trkpt>
<trkpt lat="-26.3967950" lon="152.7006270">
<ele>114.177</ele>
<time>2017-10-25T03:17:11.377Z</time>
</trkpt>
<trkpt lat="-26.3970142" lon="152.7011030">
<ele>112.472</ele>
<time>2017-10-25T03:17:13.350Z</time>
</trkpt>
<trkpt lat="-26.3972086" lon="152.7016383">
<ele>111.045</ele>
<time>2017-10-25T03:17:15.434Z</time>
</trkpt>
<trkpt lat="-26.3973608" lon="152.7021708">
<ele>109.923</ele>
<time>2017-10-25T03:17:17.454Z</time>
</trkpt>
<trkpt lat="-26.3974290" lon="152.7027184">
<ele>108.701</ele>
<time>2017-10-25T03:17:19.474Z</time>
</trkpt>
<trkpt lat="-26.3974722" lon="152.7032581">
<ele>106.770</ele>
<time>2017-10-25T03:17:21.483Z</time>
</trkpt>
<trkpt lat="-26.3975045" lon="152.7037841">
<ele>104.117</ele>
<time>2017-10-25T03:17:23.504Z</time>
</trkpt>
<trkpt lat="-26.3976028" lon="152.7042338">
<ele>101.172</ele>
<time>2017-10-25T03:17:25.364Z</time>
</trkpt>
<trkpt lat="-26.3977199" lon="152.7046914">
<ele>97.690</ele>
<time>2017-10-25T03:17:27.395Z</time>
</trkpt>
<trkpt lat="-26.3978826" lon="152.7050697">
<ele>93.697</ele>
<time>2017-10-25T03:17:29.352Z</time>
</trkpt>
<trkpt lat="-26.3980299" lon="152.7053898">
<ele>90.574</ele>
<time>2017-10-25T03:17:31.176Z</time>
</trkpt>
<trkpt lat="-26.3982281" lon="152.7056447">
<ele>89.285</ele>
<time>2017-10-25T03:17:32.983Z</time>
</trkpt>
<trkpt lat="-26.3984350" lon="152.7059336">
<ele>89.274</ele>
<time>2017-10-25T03:17:35.003Z</time>
</trkpt>
<trkpt lat="-26.3986466" lon="152.7062196">
<ele>89.745</ele>
<time>2017-10-25T03:17:36.999Z</time>
</trkpt>
<trkpt lat="-26.3988951" lon="152.7064904">
<ele>90.195</ele>
<time>2017-10-25T03:17:39.024Z</time>
</trkpt>
<trkpt lat="-26.3991785" lon="152.7067422">
<ele>90.441</ele>
<time>2017-10-25T03:17:41.082Z</time>
</trkpt>
<trkpt lat="-26.3994729" lon="152.7069887">
<ele>90.538</ele>
<time>2017-10-25T03:17:43.152Z</time>
</trkpt>
<trkpt lat="-26.3997532" lon="152.7072464">
<ele>90.643</ele>
<time>2017-10-25T03:17:45.193Z</time>
</trkpt>
<trkpt lat="-26.4000025" lon="152.7075195">
<ele>90.999</ele>
<time>2017-10-25T03:17:47.171Z</time>
</trkpt>
<trkpt lat="-26.4002561" lon="152.7077798">
<ele>91.801</ele>
<time>2017-10-25T03:17:49.148Z</time>
</trkpt>
<trkpt lat="-26.4005079" lon="152.7080241">
<ele>93.106</ele>
<time>2017-10-25T03:17:51.058Z</time>
</trkpt>
<trkpt lat="-26.4007925" lon="152.7082774">
<ele>94.895</ele>
<time>2017-10-25T03:17:53.109Z</time>
</trkpt>
<trkpt lat="-26.4010422" lon="152.7085605">
<ele>97.084</ele>
<time>2017-10-25T03:17:55.167Z</time>
</trkpt>
<trkpt lat="-26.4012234" lon="152.7088243">
<ele>99.332</ele>
<time>2017-10-25T03:17:57.058Z</time>
</trkpt>
<trkpt lat="-26.4013581" lon="152.7090597">
<ele>101.231</ele>
<time>2017-10-25T03:17:58.829Z</time>
</trkpt>
<trkpt lat="-26.4014860" lon="152.7092514">
<ele>102.651</ele>
<time>2017-10-25T03:18:00.483Z</time>
</trkpt>
<trkpt lat="-26.4016458" lon="152.7094572">
<ele>103.666</ele>
<time>2017-10-25T03:18:02.460Z</time>
</trkpt>
<trkpt lat="-26.4018216" lon="152.7097006">
<ele>104.331</ele>
<time>2017-10-25T03:18:04.548Z</time>
</trkpt>
<trkpt lat="-26.4020423" lon="152.7100356">
<ele>104.693</ele>
<time>2017-10-25T03:18:06.837Z</time>
</trkpt>
<trkpt lat="-26.4023394" lon="152.7104169">
<ele>104.704</ele>
<time>2017-10-25T03:18:09.177Z</time>
</trkpt>
<trkpt lat="-26.4026517" lon="152.7107128">
<ele>104.153</ele>
<time>2017-10-25T03:18:11.151Z</time>
</trkpt>
<trkpt lat="-26.4029679" lon="152.7110341">
<ele>102.874</ele>
<time>2017-10-25T03:18:13.171Z</time>
</trkpt>
<trkpt lat="-26.4033167" lon="152.7113004">
<ele>101.027</ele>
<time>2017-10-25T03:18:15.112Z</time>
</trkpt>
<trkpt lat="-26.4037188" lon="152.7115939">
<ele>98.837</ele>
<time>2017-10-25T03:18:17.219Z</time>
</trkpt>
<trkpt lat="-26.4041362" lon="152.7118402">
<ele>96.273</ele>
<time>2017-10-25T03:18:19.248Z</time>
</trkpt>
<trkpt lat="-26.4045397" lon="152.7120579">
<ele>93.292</ele>
<time>2017-10-25T03:18:21.206Z</time>
</trkpt>
<trkpt lat="-26.4049404" lon="152.7122312">
<ele>89.972</ele>
<time>2017-10-25T03:18:23.108Z</time>
</trkpt>
<trkpt lat="-26.4053673" lon="152.7123961">
<ele>86.266</ele>
<time>2017-10-25T03:18:25.089Z</time>
</trkpt>
<trkpt lat="-26.4058184" lon="152.7125236">
<ele>82.165</ele>
<time>2017-10-25T03:18:27.101Z</time>
</trkpt>
<trkpt lat="-26.4062584" lon="152.7126366">
<ele>77.974</ele>
<time>2017-10-25T03:18:29.048Z</time>
</trkpt>
<trkpt lat="-26.4067086" lon="152.7127613">
<ele>74.096</ele>
<time>2017-10-25T03:18:31.042Z</time>
</trkpt>
<trkpt lat="-26.4071800" lon="152.7128456">
<ele>70.850</ele>
<time>2017-10-25T03:18:33.046Z</time>
</trkpt>
<trkpt lat="-26.4076951" lon="152.7129978">
<ele>68.454</ele>
<time>2017-10-25T03:18:35.184Z</time>
</trkpt>
<trkpt lat="-26.4082203" lon="152.7131008">
<ele>66.983</ele>
<time>2017-10-25T03:18:37.250Z</time>
</trkpt>
<trkpt lat="-26.4087102" lon="152.7132278">
<ele>66.310</ele>
<time>2017-10-25T03:18:39.175Z</time>
</trkpt>
<trkpt lat="-26.4092388" lon="152.7133203">
<ele>66.085</ele>
<time>2017-10-25T03:18:41.209Z</time>
</trkpt>
<trkpt lat="-26.4097686" lon="152.7134675">
<ele>65.899</ele>
<time>2017-10-25T03:18:43.267Z</time>
</trkpt>
<trkpt lat="-26.4102854" lon="152.7136086">
<ele>65.623</ele>
<time>2017-10-25T03:18:45.263Z</time>
</trkpt>
<trkpt lat="-26.4108010" lon="152.7137009">
<ele>65.314</ele>
<time>2017-10-25T03:18:47.232Z</time>
</trkpt>
<trkpt lat="-26.4112917" lon="152.7138445">
<ele>65.053</ele>
<time>2017-10-25T03:18:49.165Z</time>
</trkpt>
<trkpt lat="-26.4117908" lon="152.7139762">
<ele>64.932</ele>
<time>2017-10-25T03:18:51.146Z</time>
</trkpt>
<trkpt lat="-26.4122620" lon="152.7141374">
<ele>65.125</ele>
<time>2017-10-25T03:18:53.070Z</time>
</trkpt>
<trkpt lat="-26.4127358" lon="152.7143377">
<ele>65.781</ele>
<time>2017-10-25T03:18:55.032Z</time>
</trkpt>
<trkpt lat="-26.4132136" lon="152.7146056">
<ele>66.857</ele>
<time>2017-10-25T03:18:57.034Z</time>
</trkpt>
<trkpt lat="-26.4137020" lon="152.7149525">
<ele>68.011</ele>
<time>2017-10-25T03:18:59.107Z</time>
</trkpt>
<trkpt lat="-26.4141487" lon="152.7153842">
<ele>68.845</ele>
<time>2017-10-25T03:19:01.173Z</time>
</trkpt>
<trkpt lat="-26.4145674" lon="152.7157626">
<ele>69.350</ele>
<time>2017-10-25T03:19:03.094Z</time>
</trkpt>
<trkpt lat="-26.4149639" lon="152.7161110">
<ele>69.892</ele>
<time>2017-10-25T03:19:04.981Z</time>
</trkpt>
<trkpt lat="-26.4153684" lon="152.7164348">
<ele>70.581</ele>
<time>2017-10-25T03:19:06.884Z</time>
</trkpt>
<trkpt lat="-26.4157880" lon="152.7168444">
<ele>71.157</ele>
<time>2017-10-25T03:19:08.954Z</time>
</trkpt>
<trkpt lat="-26.4162440" lon="152.7172739">
<ele>71.291</ele>
<time>2017-10-25T03:19:11.074Z</time>
</trkpt>
<trkpt lat="-26.4166595" lon="152.7176895">
<ele>70.952</ele>
<time>2017-10-25T03:19:13.031Z</time>
</trkpt>
<trkpt lat="-26.4170299" lon="152.7181204">
<ele>70.517</ele>
<time>2017-10-25T03:19:14.949Z</time>
</trkpt>
<trkpt lat="-26.4173891" lon="152.7185145">
<ele>70.422</ele>
<time>2017-10-25T03:19:16.828Z</time>
</trkpt>
<trkpt lat="-26.4177553" lon="152.7189115">
<ele>70.895</ele>
<time>2017-10-25T03:19:18.786Z</time>
</trkpt>
<trkpt lat="-26.4181550" lon="152.7192596">
<ele>71.890</ele>
<time>2017-10-25T03:19:20.756Z</time>
</trkpt>
<trkpt lat="-26.4185875" lon="152.7195224">
<ele>73.047</ele>
<time>2017-10-25T03:19:22.691Z</time>
</trkpt>
<trkpt lat="-26.4190400" lon="152.7197393">
<ele>74.181</ele>
<time>2017-10-25T03:19:24.636Z</time>
</trkpt>
<trkpt lat="-26.4194937" lon="152.7199568">
<ele>75.338</ele>
<time>2017-10-25T03:19:26.583Z</time>
</trkpt>
<trkpt lat="-26.4199727" lon="152.7201241">
<ele>76.318</ele>
<time>2017-10-25T03:19:28.560Z</time>
</trkpt>
<trkpt lat="-26.4204713" lon="152.7202287">
<ele>76.838</ele>
<time>2017-10-25T03:19:30.552Z</time>
</trkpt>
<trkpt lat="-26.4209971" lon="152.7203110">
<ele>76.903</ele>
<time>2017-10-25T03:19:32.618Z</time>
</trkpt>
<trkpt lat="-26.4215227" lon="152.7203044">
<ele>76.697</ele>
<time>2017-10-25T03:19:34.648Z</time>
</trkpt>
<trkpt lat="-26.4220327" lon="152.7202517">
<ele>76.467</ele>
<time>2017-10-25T03:19:36.634Z</time>
</trkpt>
<trkpt lat="-26.4225297" lon="152.7201542">
<ele>76.197</ele>
<time>2017-10-25T03:19:38.625Z</time>
</trkpt>
<trkpt lat="-26.4229869" lon="152.7200521">
<ele>75.626</ele>
<time>2017-10-25T03:19:40.506Z</time>
</trkpt>
<trkpt lat="-26.4234740" lon="152.7199629">
<ele>74.741</ele>
<time>2017-10-25T03:19:42.513Z</time>
</trkpt>
<trkpt lat="-26.4239792" lon="152.7198229">
<ele>73.791</ele>
<time>2017-10-25T03:19:44.577Z</time>
</trkpt>
<trkpt lat="-26.4244936" lon="152.7197586">
<ele>72.998</ele>
<time>2017-10-25T03:19:46.562Z</time>
</trkpt>
<trkpt lat="-26.4250125" lon="152.7196757">
<ele>72.375</ele>
<time>2017-10-25T03:19:48.561Z</time>
</trkpt>
<trkpt lat="-26.4254774" lon="152.7195897">
<ele>71.732</ele>
<time>2017-10-25T03:19:50.401Z</time>
</trkpt>
<trkpt lat="-26.4259827" lon="152.7194631">
<ele>71.065</ele>
<time>2017-10-25T03:19:52.472Z</time>
</trkpt>
<trkpt lat="-26.4264480" lon="152.7192618">
<ele>70.652</ele>
<time>2017-10-25T03:19:54.477Z</time>
</trkpt>
<trkpt lat="-26.4268881" lon="152.7190266">
<ele>70.621</ele>
<time>2017-10-25T03:19:56.428Z</time>
</trkpt>
<trkpt lat="-26.4273004" lon="152.7187219">
<ele>70.839</ele>
<time>2017-10-25T03:19:58.389Z</time>
</trkpt>
<trkpt lat="-26.4277144" lon="152.7183970">
<ele>71.219</ele>
<time>2017-10-25T03:20:00.371Z</time>
</trkpt>
<trkpt lat="-26.4280979" lon="152.7179951">
<ele>71.771</ele>
<time>2017-10-25T03:20:02.407Z</time>
</trkpt>
<trkpt lat="-26.4284559" lon="152.7175676">
<ele>72.352</ele>
<time>2017-10-25T03:20:04.400Z</time>
</trkpt>
<trkpt lat="-26.4288310" lon="152.7171391">
<ele>72.729</ele>
<time>2017-10-25T03:20:06.399Z</time>
</trkpt>
<trkpt lat="-26.4292083" lon="152.7167057">
<ele>72.999</ele>
<time>2017-10-25T03:20:08.402Z</time>
</trkpt>
<trkpt lat="-26.4295584" lon="152.7162934">
<ele>73.614</ele>
<time>2017-10-25T03:20:10.301Z</time>
</trkpt>
<trkpt lat="-26.4299321" lon="152.7159075">
<ele>74.764</ele>
<time>2017-10-25T03:20:12.230Z</time>
</trkpt>
<trkpt lat="-26.4302763" lon="152.7154846">
<ele>76.005</ele>
<time>2017-10-25T03:20:14.196Z</time>
</trkpt>
<trkpt lat="-26.4306240" lon="152.7151043">
<ele>76.916</ele>
<time>2017-10-25T03:20:16.098Z</time>
</trkpt>
<trkpt lat="-26.4309595" lon="152.7147048">
<ele>77.548</ele>
<time>2017-10-25T03:20:18.050Z</time>
</trkpt>
<trkpt lat="-26.4313270" lon="152.7143570">
<ele>78.007</ele>
<time>2017-10-25T03:20:19.991Z</time>
</trkpt>
<trkpt lat="-26.4316945" lon="152.7139691">
<ele>78.276</ele>
<time>2017-10-25T03:20:22.041Z</time>
</trkpt>
<trkpt lat="-26.4321372" lon="152.7136643">
<ele>78.404</ele>
<time>2017-10-25T03:20:24.105Z</time>
</trkpt>
<trkpt lat="-26.4326845" lon="152.7134357">
<ele>78.453</ele>
<time>2017-10-25T03:20:26.295Z</time>
</trkpt>
<trkpt lat="-26.4333165" lon="152.7134194">
<ele>78.455</ele>
<time>2017-10-25T03:20:28.470Z</time>
</trkpt>
<trkpt lat="-26.4339377" lon="152.7133566">
<ele>78.526</ele>
<time>2017-10-25T03:20:30.507Z</time>
</trkpt>
<trkpt lat="-26.4345299" lon="152.7133294">
<ele>78.720</ele>
<time>2017-10-25T03:20:32.466Z</time>
</trkpt>
<trkpt lat="-26.4350688" lon="152.7132961">
<ele>78.856</ele>
<time>2017-10-25T03:20:34.328Z</time>
</trkpt>
<trkpt lat="-26.4356092" lon="152.7132388">
<ele>78.725</ele>
<time>2017-10-25T03:20:36.299Z</time>
</trkpt>
<trkpt lat="-26.4361227" lon="152.7131544">
<ele>78.210</ele>
<time>2017-10-25T03:20:38.251Z</time>
</trkpt>
<trkpt lat="-26.4366486" lon="152.7130650">
<ele>77.356</ele>
<time>2017-10-25T03:20:40.260Z</time>
</trkpt>
<trkpt lat="-26.4371836" lon="152.7129673">
<ele>76.448</ele>
<time>2017-10-25T03:20:42.286Z</time>
</trkpt>
<trkpt lat="-26.4377062" lon="152.7128327">
<ele>75.751</ele>
<time>2017-10-25T03:20:44.266Z</time>
</trkpt>
<trkpt lat="-26.4382316" lon="152.7127146">
<ele>75.313</ele>
<time>2017-10-25T03:20:46.231Z</time>
</trkpt>
<trkpt lat="-26.4387668" lon="152.7126212">
<ele>75.072</ele>
<time>2017-10-25T03:20:48.208Z</time>
</trkpt>
<trkpt lat="-26.4392907" lon="152.7124992">
<ele>74.901</ele>
<time>2017-10-25T03:20:50.173Z</time>
</trkpt>
<trkpt lat="-26.4397735" lon="152.7123389">
<ele>74.686</ele>
<time>2017-10-25T03:20:52.072Z</time>
</trkpt>
<trkpt lat="-26.4402177" lon="152.7120872">
<ele>74.436</ele>
<time>2017-10-25T03:20:54.015Z</time>
</trkpt>
<trkpt lat="-26.4406657" lon="152.7117270">
<ele>74.193</ele>
<time>2017-10-25T03:20:56.141Z</time>
</trkpt>
<trkpt lat="-26.4410820" lon="152.7113330">
<ele>73.886</ele>
<time>2017-10-25T03:20:58.171Z</time>
</trkpt>
<trkpt lat="-26.4414789" lon="152.7109692">
<ele>73.435</ele>
<time>2017-10-25T03:21:00.072Z</time>
</trkpt>
<trkpt lat="-26.4418981" lon="152.7106203">
<ele>72.962</ele>
<time>2017-10-25T03:21:02.038Z</time>
</trkpt>
<trkpt lat="-26.4423333" lon="152.7102946">
<ele>72.988</ele>
<time>2017-10-25T03:21:04.033Z</time>
</trkpt>
<trkpt lat="-26.4427634" lon="152.7100018">
<ele>73.953</ele>
<time>2017-10-25T03:21:05.966Z</time>
</trkpt>
<trkpt lat="-26.4432042" lon="152.7097531">
<ele>75.524</ele>
<time>2017-10-25T03:21:07.874Z</time>
</trkpt>
<trkpt lat="-26.4436335" lon="152.7094552">
<ele>76.901</ele>
<time>2017-10-25T03:21:09.847Z</time>
</trkpt>
<trkpt lat="-26.4440687" lon="152.7091696">
<ele>77.592</ele>
<time>2017-10-25T03:21:11.854Z</time>
</trkpt>
<trkpt lat="-26.4444758" lon="152.7088805">
<ele>77.523</ele>
<time>2017-10-25T03:21:13.810Z</time>
</trkpt>
<trkpt lat="-26.4448868" lon="152.7086054">
<ele>76.903</ele>
<time>2017-10-25T03:21:15.766Z</time>
</trkpt>
<trkpt lat="-26.4453421" lon="152.7083146">
<ele>75.976</ele>
<time>2017-10-25T03:21:17.891Z</time>
</trkpt>
<trkpt lat="-26.4458314" lon="152.7080914">
<ele>74.914</ele>
<time>2017-10-25T03:21:19.994Z</time>
</trkpt>
<trkpt lat="-26.4463389" lon="152.7080042">
<ele>73.926</ele>
<time>2017-10-25T03:21:22.014Z</time>
</trkpt>
<trkpt lat="-26.4468542" lon="152.7079989">
<ele>73.191</ele>
<time>2017-10-25T03:21:24.009Z</time>
</trkpt>
<trkpt lat="-26.4473947" lon="152.7081186">
<ele>72.598</ele>
<time>2017-10-25T03:21:26.094Z</time>
</trkpt>
<trkpt lat="-26.4478883" lon="152.7083106">
<ele>71.935</ele>
<time>2017-10-25T03:21:28.054Z</time>
</trkpt>
<trkpt lat="-26.4484085" lon="152.7085075">
<ele>71.023</ele>
<time>2017-10-25T03:21:30.091Z</time>
</trkpt>
<trkpt lat="-26.4489175" lon="152.7087008">
<ele>69.754</ele>
<time>2017-10-25T03:21:32.078Z</time>
</trkpt>
<trkpt lat="-26.4494328" lon="152.7087591">
<ele>68.439</ele>
<time>2017-10-25T03:21:34.022Z</time>
</trkpt>
<trkpt lat="-26.4499813" lon="152.7086144">
<ele>67.620</ele>
<time>2017-10-25T03:21:36.193Z</time>
</trkpt>
<trkpt lat="-26.4504655" lon="152.7083972">
<ele>67.537</ele>
<time>2017-10-25T03:21:38.234Z</time>
</trkpt>
<trkpt lat="-26.4508978" lon="152.7080862">
<ele>68.210</ele>
<time>2017-10-25T03:21:40.253Z</time>
</trkpt>
<trkpt lat="-26.4512366" lon="152.7076826">
<ele>69.518</ele>
<time>2017-10-25T03:21:42.213Z</time>
</trkpt>
<trkpt lat="-26.4515044" lon="152.7071883">
<ele>71.036</ele>
<time>2017-10-25T03:21:44.248Z</time>
</trkpt>
<trkpt lat="-26.4516827" lon="152.7066507">
<ele>72.325</ele>
<time>2017-10-25T03:21:46.243Z</time>
</trkpt>
<trkpt lat="-26.4518411" lon="152.7061150">
<ele>73.282</ele>
<time>2017-10-25T03:21:48.203Z</time>
</trkpt>
<trkpt lat="-26.4520024" lon="152.7056045">
<ele>74.045</ele>
<time>2017-10-25T03:21:50.098Z</time>
</trkpt>
<trkpt lat="-26.4521853" lon="152.7050805">
<ele>74.704</ele>
<time>2017-10-25T03:21:52.082Z</time>
</trkpt>
<trkpt lat="-26.4524234" lon="152.7045692">
<ele>75.196</ele>
<time>2017-10-25T03:21:54.121Z</time>
</trkpt>
<trkpt lat="-26.4528130" lon="152.7041398">
<ele>75.462</ele>
<time>2017-10-25T03:21:56.285Z</time>
</trkpt>
<trkpt lat="-26.4532274" lon="152.7037958">
<ele>75.749</ele>
<time>2017-10-25T03:21:58.332Z</time>
</trkpt>
<trkpt lat="-26.4536812" lon="152.7035416">
<ele>76.558</ele>
<time>2017-10-25T03:22:00.356Z</time>
</trkpt>
<trkpt lat="-26.4541161" lon="152.7032831">
<ele>78.207</ele>
<time>2017-10-25T03:22:02.329Z</time>
</trkpt>
<trkpt lat="-26.4545694" lon="152.7030831">
<ele>80.434</ele>
<time>2017-10-25T03:22:04.309Z</time>
</trkpt>
<trkpt lat="-26.4550316" lon="152.7029386">
<ele>82.614</ele>
<time>2017-10-25T03:22:06.297Z</time>
</trkpt>
<trkpt lat="-26.4554869" lon="152.7027345">
<ele>84.471</ele>
<time>2017-10-25T03:22:08.336Z</time>
</trkpt>
<trkpt lat="-26.4559542" lon="152.7026493">
<ele>86.294</ele>
<time>2017-10-25T03:22:10.283Z</time>
</trkpt>
<trkpt lat="-26.4564861" lon="152.7026142">
<ele>88.296</ele>
<time>2017-10-25T03:22:12.398Z</time>
</trkpt>
<trkpt lat="-26.4570241" lon="152.7026752">
<ele>90.282</ele>
<time>2017-10-25T03:22:14.454Z</time>
</trkpt>
<trkpt lat="-26.4575678" lon="152.7027208">
<ele>92.004</ele>
<time>2017-10-25T03:22:16.489Z</time>
</trkpt>
<trkpt lat="-26.4581019" lon="152.7027589">
<ele>93.420</ele>
<time>2017-10-25T03:22:18.488Z</time>
</trkpt>
<trkpt lat="-26.4586152" lon="152.7028059">
<ele>94.539</ele>
<time>2017-10-25T03:22:20.440Z</time>
</trkpt>
<trkpt lat="-26.4591158" lon="152.7027253">
<ele>95.397</ele>
<time>2017-10-25T03:22:22.411Z</time>
</trkpt>
<trkpt lat="-26.4595890" lon="152.7025587">
<ele>96.117</ele>
<time>2017-10-25T03:22:24.400Z</time>
</trkpt>
<trkpt lat="-26.4600193" lon="152.7023256">
<ele>96.903</ele>
<time>2017-10-25T03:22:26.367Z</time>
</trkpt>
<trkpt lat="-26.4604176" lon="152.7020947">
<ele>98.045</ele>
<time>2017-10-25T03:22:28.263Z</time>
</trkpt>
<trkpt lat="-26.4609505" lon="152.7015914">
<ele>99.655</ele>
<time>2017-10-25T03:22:31.278Z</time>
</trkpt>
<trkpt lat="-26.4612370" lon="152.7012324">
<ele>101.363</ele>
<time>2017-10-25T03:22:33.202Z</time>
</trkpt>
<trkpt lat="-26.4615185" lon="152.7009198">
<ele>102.688</ele>
<time>2017-10-25T03:22:35.053Z</time>
</trkpt>
<trkpt lat="-26.4617864" lon="152.7006026">
<ele>103.490</ele>
<time>2017-10-25T03:22:36.950Z</time>
</trkpt>
<trkpt lat="-26.4620524" lon="152.7003092">
<ele>103.916</ele>
<time>2017-10-25T03:22:38.828Z</time>
</trkpt>
<trkpt lat="-26.4625123" lon="152.6999576">
<ele>104.375</ele>
<time>2017-10-25T03:22:41.690Z</time>
</trkpt>
<trkpt lat="-26.4628441" lon="152.6997422">
<ele>105.579</ele>
<time>2017-10-25T03:22:43.681Z</time>
</trkpt>
<trkpt lat="-26.4632237" lon="152.6995379">
<ele>107.703</ele>
<time>2017-10-25T03:22:45.829Z</time>
</trkpt>
<trkpt lat="-26.4636664" lon="152.6993983">
<ele>110.050</ele>
<time>2017-10-25T03:22:48.016Z</time>
</trkpt>
<trkpt lat="-26.4641241" lon="152.6992641">
<ele>112.056</ele>
<time>2017-10-25T03:22:50.095Z</time>
</trkpt>
<trkpt lat="-26.4645529" lon="152.6992116">
<ele>113.776</ele>
<time>2017-10-25T03:22:51.980Z</time>
</trkpt>
<trkpt lat="-26.4649763" lon="152.6991756">
<ele>115.384</ele>
<time>2017-10-25T03:22:53.904Z</time>
</trkpt>
<trkpt lat="-26.4653934" lon="152.6991785">
<ele>116.952</ele>
<time>2017-10-25T03:22:55.864Z</time>
</trkpt>
<trkpt lat="-26.4657993" lon="152.6991934">
<ele>118.488</ele>
<time>2017-10-25T03:22:57.817Z</time>
</trkpt>
<trkpt lat="-26.4662055" lon="152.6992620">
<ele>119.798</ele>
<time>2017-10-25T03:22:59.790Z</time>
</trkpt>
<trkpt lat="-26.4666496" lon="152.6993722">
<ele>120.483</ele>
<time>2017-10-25T03:23:01.917Z</time>
</trkpt>
<trkpt lat="-26.4671073" lon="152.6994531">
<ele>120.272</ele>
<time>2017-10-25T03:23:03.999Z</time>
</trkpt>
<trkpt lat="-26.4675528" lon="152.6995172">
<ele>118.958</ele>
<time>2017-10-25T03:23:05.975Z</time>
</trkpt>
<trkpt lat="-26.4680168" lon="152.6995414">
<ele>116.581</ele>
<time>2017-10-25T03:23:07.974Z</time>
</trkpt>
<trkpt lat="-26.4685187" lon="152.6994952">
<ele>113.577</ele>
<time>2017-10-25T03:23:10.054Z</time>
</trkpt>
<trkpt lat="-26.4690405" lon="152.6995147">
<ele>110.398</ele>
<time>2017-10-25T03:23:12.121Z</time>
</trkpt>
<trkpt lat="-26.4695790" lon="152.6995131">
<ele>107.273</ele>
<time>2017-10-25T03:23:14.186Z</time>
</trkpt>
<trkpt lat="-26.4701180" lon="152.6994912">
<ele>104.310</ele>
<time>2017-10-25T03:23:16.215Z</time>
</trkpt>
<trkpt lat="-26.4706407" lon="152.6995054">
<ele>101.607</ele>
<time>2017-10-25T03:23:18.177Z</time>
</trkpt>
<trkpt lat="-26.4711685" lon="152.6994988">
<ele>99.348</ele>
<time>2017-10-25T03:23:20.187Z</time>
</trkpt>
<trkpt lat="-26.4716587" lon="152.6994956">
<ele>97.763</ele>
<time>2017-10-25T03:23:22.096Z</time>
</trkpt>
<trkpt lat="-26.4721421" lon="152.6994731">
<ele>97.092</ele>
<time>2017-10-25T03:23:24.017Z</time>
</trkpt>
<trkpt lat="-26.4726208" lon="152.6994426">
<ele>97.280</ele>
<time>2017-10-25T03:23:25.951Z</time>
</trkpt>
<trkpt lat="-26.4731286" lon="152.6994096">
<ele>97.869</ele>
<time>2017-10-25T03:23:27.988Z</time>
</trkpt>
<trkpt lat="-26.4736726" lon="152.6994358">
<ele>98.384</ele>
<time>2017-10-25T03:23:30.094Z</time>
</trkpt>
<trkpt lat="-26.4741892" lon="152.6995887">
<ele>98.526</ele>
<time>2017-10-25T03:23:32.089Z</time>
</trkpt>
<trkpt lat="-26.4747085" lon="152.6997182">
<ele>98.128</ele>
<time>2017-10-25T03:23:34.049Z</time>
</trkpt>
<trkpt lat="-26.4752118" lon="152.6998803">
<ele>97.179</ele>
<time>2017-10-25T03:23:35.999Z</time>
</trkpt>
<trkpt lat="-26.4757007" lon="152.7000226">
<ele>96.044</ele>
<time>2017-10-25T03:23:37.917Z</time>
</trkpt>
<trkpt lat="-26.4761985" lon="152.7001302">
<ele>95.518</ele>
<time>2017-10-25T03:23:39.858Z</time>
</trkpt>
<trkpt lat="-26.4766800" lon="152.7002477">
<ele>96.068</ele>
<time>2017-10-25T03:23:41.759Z</time>
</trkpt>
<trkpt lat="-26.4771611" lon="152.7004161">
<ele>97.282</ele>
<time>2017-10-25T03:23:43.718Z</time>
</trkpt>
<trkpt lat="-26.4776220" lon="152.7006399">
<ele>98.410</ele>
<time>2017-10-25T03:23:45.678Z</time>
</trkpt>
<trkpt lat="-26.4780913" lon="152.7009064">
<ele>99.016</ele>
<time>2017-10-25T03:23:47.717Z</time>
</trkpt>
<trkpt lat="-26.4785896" lon="152.7011505">
<ele>98.796</ele>
<time>2017-10-25T03:23:49.786Z</time>
</trkpt>
<trkpt lat="-26.4790613" lon="152.7014308">
<ele>97.354</ele>
<time>2017-10-25T03:23:51.774Z</time>
</trkpt>
<trkpt lat="-26.4795448" lon="152.7017091">
<ele>94.651</ele>
<time>2017-10-25T03:23:53.775Z</time>
</trkpt>
<trkpt lat="-26.4800140" lon="152.7019827">
<ele>91.425</ele>
<time>2017-10-25T03:23:55.726Z</time>
</trkpt>
<trkpt lat="-26.4805082" lon="152.7022081">
<ele>88.638</ele>
<time>2017-10-25T03:23:57.699Z</time>
</trkpt>
<trkpt lat="-26.4810181" lon="152.7024605">
<ele>86.807</ele>
<time>2017-10-25T03:23:59.760Z</time>
</trkpt>
<trkpt lat="-26.4815146" lon="152.7026981">
<ele>85.915</ele>
<time>2017-10-25T03:24:01.759Z</time>
</trkpt>
<trkpt lat="-26.4820016" lon="152.7029133">
<ele>85.774</ele>
<time>2017-10-25T03:24:03.712Z</time>
</trkpt>
<trkpt lat="-26.4824685" lon="152.7031284">
<ele>86.140</ele>
<time>2017-10-25T03:24:05.618Z</time>
</trkpt>
<trkpt lat="-26.4829136" lon="152.7033187">
<ele>86.747</ele>
<time>2017-10-25T03:24:07.468Z</time>
</trkpt>
<trkpt lat="-26.4833375" lon="152.7035443">
<ele>87.412</ele>
<time>2017-10-25T03:24:09.362Z</time>
</trkpt>
<trkpt lat="-26.4838081" lon="152.7037302">
<ele>88.118</ele>
<time>2017-10-25T03:24:11.391Z</time>
</trkpt>
<trkpt lat="-26.4843165" lon="152.7039064">
<ele>88.802</ele>
<time>2017-10-25T03:24:13.479Z</time>
</trkpt>
<trkpt lat="-26.4848488" lon="152.7040857">
<ele>89.161</ele>
<time>2017-10-25T03:24:15.584Z</time>
</trkpt>
<trkpt lat="-26.4853329" lon="152.7042889">
<ele>88.899</ele>
<time>2017-10-25T03:24:17.534Z</time>
</trkpt>
<trkpt lat="-26.4858186" lon="152.7044525">
<ele>88.230</ele>
<time>2017-10-25T03:24:19.479Z</time>
</trkpt>
<trkpt lat="-26.4862858" lon="152.7046268">
<ele>87.740</ele>
<time>2017-10-25T03:24:21.397Z</time>
</trkpt>
<trkpt lat="-26.4867590" lon="152.7047985">
<ele>87.717</ele>
<time>2017-10-25T03:24:23.348Z</time>
</trkpt>
<trkpt lat="-26.4872561" lon="152.7049808">
<ele>87.997</ele>
<time>2017-10-25T03:24:25.403Z</time>
</trkpt>
<trkpt lat="-26.4877194" lon="152.7051497">
<ele>88.463</ele>
<time>2017-10-25T03:24:27.330Z</time>
</trkpt>
<trkpt lat="-26.4882049" lon="152.7052548">
<ele>89.121</ele>
<time>2017-10-25T03:24:29.299Z</time>
</trkpt>
<trkpt lat="-26.4887243" lon="152.7053664">
<ele>89.819</ele>
<time>2017-10-25T03:24:31.376Z</time>
</trkpt>
<trkpt lat="-26.4892474" lon="152.7054541">
<ele>90.349</ele>
<time>2017-10-25T03:24:33.410Z</time>
</trkpt>
<trkpt lat="-26.4897384" lon="152.7055652">
<ele>90.850</ele>
<time>2017-10-25T03:24:35.341Z</time>
</trkpt>
<trkpt lat="-26.4902286" lon="152.7056385">
<ele>91.495</ele>
<time>2017-10-25T03:24:37.292Z</time>
</trkpt>
<trkpt lat="-26.4907201" lon="152.7057360">
<ele>92.069</ele>
<time>2017-10-25T03:24:39.295Z</time>
</trkpt>
<trkpt lat="-26.4912234" lon="152.7058485">
<ele>92.463</ele>
<time>2017-10-25T03:24:41.346Z</time>
</trkpt>
<trkpt lat="-26.4917139" lon="152.7059561">
<ele>92.999</ele>
<time>2017-10-25T03:24:43.325Z</time>
</trkpt>
<trkpt lat="-26.4921409" lon="152.7060652">
<ele>93.981</ele>
<time>2017-10-25T03:24:45.070Z</time>
</trkpt>
<trkpt lat="-26.4925856" lon="152.7060794">
<ele>95.312</ele>
<time>2017-10-25T03:24:46.903Z</time>
</trkpt>
<trkpt lat="-26.4929709" lon="152.7059253">
<ele>96.492</ele>
<time>2017-10-25T03:24:48.695Z</time>
</trkpt>
<trkpt lat="-26.4933966" lon="152.7056744">
<ele>97.072</ele>
<time>2017-10-25T03:24:50.889Z</time>
</trkpt>
<trkpt lat="-26.4938522" lon="152.7054526">
<ele>96.895</ele>
<time>2017-10-25T03:24:53.037Z</time>
</trkpt>
<trkpt lat="-26.4942760" lon="152.7051940">
<ele>96.202</ele>
<time>2017-10-25T03:24:55.031Z</time>
</trkpt>
<trkpt lat="-26.4946890" lon="152.7049580">
<ele>95.673</ele>
<time>2017-10-25T03:24:56.958Z</time>
</trkpt>
<trkpt lat="-26.4950936" lon="152.7047427">
<ele>95.844</ele>
<time>2017-10-25T03:24:58.868Z</time>
</trkpt>
<trkpt lat="-26.4955173" lon="152.7046610">
<ele>96.671</ele>
<time>2017-10-25T03:25:00.755Z</time>
</trkpt>
<trkpt lat="-26.4959904" lon="152.7047550">
<ele>97.818</ele>
<time>2017-10-25T03:25:02.890Z</time>
</trkpt>
<trkpt lat="-26.4965281" lon="152.7049254">
<ele>99.057</ele>
<time>2017-10-25T03:25:05.238Z</time>
</trkpt>
<trkpt lat="-26.4970252" lon="152.7050644">
<ele>100.369</ele>
<time>2017-10-25T03:25:07.244Z</time>
</trkpt>
<trkpt lat="-26.4975239" lon="152.7051416">
<ele>101.551</ele>
<time>2017-10-25T03:25:09.190Z</time>
</trkpt>
<trkpt lat="-26.4979788" lon="152.7052227">
<ele>102.175</ele>
<time>2017-10-25T03:25:11.017Z</time>
</trkpt>
<trkpt lat="-26.4984547" lon="152.7053913">
<ele>102.164</ele>
<time>2017-10-25T03:25:13.063Z</time>
</trkpt>
<trkpt lat="-26.4989280" lon="152.7054928">
<ele>101.881</ele>
<time>2017-10-25T03:25:15.076Z</time>
</trkpt>
<trkpt lat="-26.4994020" lon="152.7055098">
<ele>101.655</ele>
<time>2017-10-25T03:25:17.074Z</time>
</trkpt>
<trkpt lat="-26.4997779" lon="152.7054295">
<ele>101.502</ele>
<time>2017-10-25T03:25:18.726Z</time>
</trkpt>
<trkpt lat="-26.5001429" lon="152.7051679">
<ele>101.333</ele>
<time>2017-10-25T03:25:20.673Z</time>
</trkpt>
<trkpt lat="-26.5004811" lon="152.7047697">
<ele>101.298</ele>
<time>2017-10-25T03:25:22.919Z</time>
</trkpt>
<trkpt lat="-26.5008026" lon="152.7043447">
<ele>101.686</ele>
<time>2017-10-25T03:25:25.094Z</time>
</trkpt>
<trkpt lat="-26.5011107" lon="152.7039132">
<ele>102.571</ele>
<time>2017-10-25T03:25:27.135Z</time>
</trkpt>
<trkpt lat="-26.5014539" lon="152.7034769">
<ele>103.851</ele>
<time>2017-10-25T03:25:29.217Z</time>
</trkpt>
<trkpt lat="-26.5018921" lon="152.7028523">
<ele>105.471</ele>
<time>2017-10-25T03:25:32.042Z</time>
</trkpt>
<trkpt lat="-26.5021961" lon="152.7024842">
<ele>107.261</ele>
<time>2017-10-25T03:25:33.851Z</time>
</trkpt>
<trkpt lat="-26.5024736" lon="152.7021474">
<ele>108.780</ele>
<time>2017-10-25T03:25:35.566Z</time>
</trkpt>
<trkpt lat="-26.5027981" lon="152.7018606">
<ele>109.719</ele>
<time>2017-10-25T03:25:37.403Z</time>
</trkpt>
<trkpt lat="-26.5032814" lon="152.7017324">
<ele>110.228</ele>
<time>2017-10-25T03:25:39.709Z</time>
</trkpt>
<trkpt lat="-26.5038469" lon="152.7016003">
<ele>110.758</ele>
<time>2017-10-25T03:25:42.186Z</time>
</trkpt>
<trkpt lat="-26.5044115" lon="152.7014606">
<ele>111.636</ele>
<time>2017-10-25T03:25:44.416Z</time>
</trkpt>
<trkpt lat="-26.5049022" lon="152.7012743">
<ele>112.643</ele>
<time>2017-10-25T03:25:46.331Z</time>
</trkpt>
<trkpt lat="-26.5054094" lon="152.7011056">
<ele>113.275</ele>
<time>2017-10-25T03:25:48.302Z</time>
</trkpt>
<trkpt lat="-26.5058871" lon="152.7009441">
<ele>113.310</ele>
<time>2017-10-25T03:25:50.201Z</time>
</trkpt>
<trkpt lat="-26.5063755" lon="152.7007917">
<ele>112.705</ele>
<time>2017-10-25T03:25:52.162Z</time>
</trkpt>
<trkpt lat="-26.5068490" lon="152.7006222">
<ele>111.685</ele>
<time>2017-10-25T03:25:54.099Z</time>
</trkpt>
<trkpt lat="-26.5072769" lon="152.7004839">
<ele>110.821</ele>
<time>2017-10-25T03:25:55.863Z</time>
</trkpt>
<trkpt lat="-26.5076821" lon="152.7003645">
<ele>110.637</ele>
<time>2017-10-25T03:25:57.584Z</time>
</trkpt>
<trkpt lat="-26.5081272" lon="152.7004261">
<ele>111.309</ele>
<time>2017-10-25T03:25:59.520Z</time>
</trkpt>
<trkpt lat="-26.5086416" lon="152.7005715">
<ele>112.619</ele>
<time>2017-10-25T03:26:01.793Z</time>
</trkpt>
<trkpt lat="-26.5091487" lon="152.7006740">
<ele>114.136</ele>
<time>2017-10-25T03:26:03.874Z</time>
</trkpt>
<trkpt lat="-26.5096669" lon="152.7007481">
<ele>115.509</ele>
<time>2017-10-25T03:26:05.907Z</time>
</trkpt>
<trkpt lat="-26.5101418" lon="152.7008519">
<ele>116.444</ele>
<time>2017-10-25T03:26:07.784Z</time>
</trkpt>
<trkpt lat="-26.5105915" lon="152.7009560">
<ele>116.742</ele>
<time>2017-10-25T03:26:09.604Z</time>
</trkpt>
<trkpt lat="-26.5110538" lon="152.7011156">
<ele>116.527</ele>
<time>2017-10-25T03:26:11.574Z</time>
</trkpt>
<trkpt lat="-26.5114920" lon="152.7014568">
<ele>116.164</ele>
<time>2017-10-25T03:26:13.748Z</time>
</trkpt>
<trkpt lat="-26.5119287" lon="152.7017673">
<ele>115.865</ele>
<time>2017-10-25T03:26:15.807Z</time>
</trkpt>
<trkpt lat="-26.5123907" lon="152.7020038">
<ele>115.541</ele>
<time>2017-10-25T03:26:17.814Z</time>
</trkpt>
<trkpt lat="-26.5129156" lon="152.7021202">
<ele>115.029</ele>
<time>2017-10-25T03:26:19.926Z</time>
</trkpt>
<trkpt lat="-26.5134810" lon="152.7021353">
<ele>114.370</ele>
<time>2017-10-25T03:26:22.077Z</time>
</trkpt>
<trkpt lat="-26.5140856" lon="152.7021806">
<ele>113.837</ele>
<time>2017-10-25T03:26:24.247Z</time>
</trkpt>
<trkpt lat="-26.5146568" lon="152.7022572">
<ele>113.663</ele>
<time>2017-10-25T03:26:26.217Z</time>
</trkpt>
<trkpt lat="-26.5152322" lon="152.7023245">
<ele>113.880</ele>
<time>2017-10-25T03:26:28.172Z</time>
</trkpt>
<trkpt lat="-26.5157828" lon="152.7023513">
<ele>114.434</ele>
<time>2017-10-25T03:26:30.056Z</time>
</trkpt>
<trkpt lat="-26.5162982" lon="152.7023576">
<ele>115.353</ele>
<time>2017-10-25T03:26:31.874Z</time>
</trkpt>
<trkpt lat="-26.5168228" lon="152.7022351">
<ele>116.864</ele>
<time>2017-10-25T03:26:33.843Z</time>
</trkpt>
<trkpt lat="-26.5172930" lon="152.7020658">
<ele>119.116</ele>
<time>2017-10-25T03:26:35.722Z</time>
</trkpt>
<trkpt lat="-26.5177795" lon="152.7019004">
<ele>121.714</ele>
<time>2017-10-25T03:26:37.699Z</time>
</trkpt>
<trkpt lat="-26.5182634" lon="152.7017595">
<ele>124.006</ele>
<time>2017-10-25T03:26:39.656Z</time>
</trkpt>
<trkpt lat="-26.5187098" lon="152.7016234">
<ele>125.764</ele>
<time>2017-10-25T03:26:41.478Z</time>
</trkpt>
<trkpt lat="-26.5191506" lon="152.7014618">
<ele>126.988</ele>
<time>2017-10-25T03:26:43.350Z</time>
</trkpt>
<trkpt lat="-26.5196219" lon="152.7013131">
<ele>127.525</ele>
<time>2017-10-25T03:26:45.391Z</time>
</trkpt>
<trkpt lat="-26.5201004" lon="152.7012164">
<ele>127.176</ele>
<time>2017-10-25T03:26:47.422Z</time>
</trkpt>
<trkpt lat="-26.5205402" lon="152.7011373">
<ele>125.875</ele>
<time>2017-10-25T03:26:49.266Z</time>
</trkpt>
<trkpt lat="-26.5209784" lon="152.7010834">
<ele>123.965</ele>
<time>2017-10-25T03:26:51.116Z</time>
</trkpt>
<trkpt lat="-26.5214565" lon="152.7010679">
<ele>122.041</ele>
<time>2017-10-25T03:26:53.220Z</time>
</trkpt>
<trkpt lat="-26.5219633" lon="152.7011011">
<ele>120.349</ele>
<time>2017-10-25T03:26:55.482Z</time>
</trkpt>
<trkpt lat="-26.5224338" lon="152.7010866">
<ele>118.829</ele>
<time>2017-10-25T03:26:57.473Z</time>
</trkpt>
<trkpt lat="-26.5228797" lon="152.7009834">
<ele>117.587</ele>
<time>2017-10-25T03:26:59.340Z</time>
</trkpt>
<trkpt lat="-26.5232866" lon="152.7007031">
<ele>116.713</ele>
<time>2017-10-25T03:27:01.353Z</time>
</trkpt>
<trkpt lat="-26.5237203" lon="152.7004266">
<ele>115.825</ele>
<time>2017-10-25T03:27:03.480Z</time>
</trkpt>
<trkpt lat="-26.5241765" lon="152.7001786">
<ele>114.515</ele>
<time>2017-10-25T03:27:05.555Z</time>
</trkpt>
<trkpt lat="-26.5246312" lon="152.6999471">
<ele>113.113</ele>
<time>2017-10-25T03:27:07.526Z</time>
</trkpt>
<trkpt lat="-26.5250812" lon="152.6997066">
<ele>112.378</ele>
<time>2017-10-25T03:27:09.479Z</time>
</trkpt>
<trkpt lat="-26.5255168" lon="152.6994657">
<ele>112.630</ele>
<time>2017-10-25T03:27:11.398Z</time>
</trkpt>
<trkpt lat="-26.5259189" lon="152.6992345">
<ele>113.630</ele>
<time>2017-10-25T03:27:13.221Z</time>
</trkpt>
<trkpt lat="-26.5263393" lon="152.6990135">
<ele>115.013</ele>
<time>2017-10-25T03:27:15.140Z</time>
</trkpt>
<trkpt lat="-26.5269819" lon="152.6987228">
<ele>116.486</ele>
<time>2017-10-25T03:27:18.067Z</time>
</trkpt>
<trkpt lat="-26.5274502" lon="152.6987635">
<ele>117.834</ele>
<time>2017-10-25T03:27:20.066Z</time>
</trkpt>
<trkpt lat="-26.5279074" lon="152.6990007">
<ele>119.033</ele>
<time>2017-10-25T03:27:22.230Z</time>
</trkpt>
<trkpt lat="-26.5283557" lon="152.6992956">
<ele>120.054</ele>
<time>2017-10-25T03:27:24.429Z</time>
</trkpt>
<trkpt lat="-26.5288049" lon="152.6995748">
<ele>120.724</ele>
<time>2017-10-25T03:27:26.511Z</time>
</trkpt>
<trkpt lat="-26.5292529" lon="152.6998260">
<ele>120.970</ele>
<time>2017-10-25T03:27:28.482Z</time>
</trkpt>
<trkpt lat="-26.5296896" lon="152.7000890">
<ele>120.882</ele>
<time>2017-10-25T03:27:30.429Z</time>
</trkpt>
<trkpt lat="-26.5301103" lon="152.7003716">
<ele>120.573</ele>
<time>2017-10-25T03:27:32.373Z</time>
</trkpt>
<trkpt lat="-26.5305409" lon="152.7006319">
<ele>120.197</ele>
<time>2017-10-25T03:27:34.329Z</time>
</trkpt>
<trkpt lat="-26.5309695" lon="152.7009333">
<ele>119.895</ele>
<time>2017-10-25T03:27:36.368Z</time>
</trkpt>
<trkpt lat="-26.5313816" lon="152.7013319">
<ele>119.772</ele>
<time>2017-10-25T03:27:38.545Z</time>
</trkpt>
<trkpt lat="-26.5316913" lon="152.7018524">
<ele>119.893</ele>
<time>2017-10-25T03:27:40.717Z</time>
</trkpt>
<trkpt lat="-26.5319869" lon="152.7023482">
<ele>120.174</ele>
<time>2017-10-25T03:27:42.716Z</time>
</trkpt>
<trkpt lat="-26.5322546" lon="152.7028329">
<ele>120.456</ele>
<time>2017-10-25T03:27:44.610Z</time>
</trkpt>
<trkpt lat="-26.5325239" lon="152.7032655">
<ele>120.791</ele>
<time>2017-10-25T03:27:46.403Z</time>
</trkpt>
<trkpt lat="-26.5328307" lon="152.7036071">
<ele>121.592</ele>
<time>2017-10-25T03:27:48.106Z</time>
</trkpt>
<trkpt lat="-26.5332784" lon="152.7037421">
<ele>123.036</ele>
<time>2017-10-25T03:27:50.033Z</time>
</trkpt>
<trkpt lat="-26.5337754" lon="152.7038771">
<ele>124.641</ele>
<time>2017-10-25T03:27:52.230Z</time>
</trkpt>
<trkpt lat="-26.5343072" lon="152.7040029">
<ele>126.000</ele>
<time>2017-10-25T03:27:54.454Z</time>
</trkpt>
<trkpt lat="-26.5348400" lon="152.7041531">
<ele>127.355</ele>
<time>2017-10-25T03:27:56.565Z</time>
</trkpt>
<trkpt lat="-26.5353552" lon="152.7042693">
<ele>129.114</ele>
<time>2017-10-25T03:27:58.527Z</time>
</trkpt>
<trkpt lat="-26.5358528" lon="152.7043643">
<ele>131.196</ele>
<time>2017-10-25T03:28:00.419Z</time>
</trkpt>
<trkpt lat="-26.5363313" lon="152.7044927">
<ele>133.061</ele>
<time>2017-10-25T03:28:02.314Z</time>
</trkpt>
<trkpt lat="-26.5367566" lon="152.7046004">
<ele>134.284</ele>
<time>2017-10-25T03:28:04.037Z</time>
</trkpt>
<trkpt lat="-26.5371512" lon="152.7047472">
<ele>135.003</ele>
<time>2017-10-25T03:28:05.757Z</time>
</trkpt>
<trkpt lat="-26.5374704" lon="152.7050793">
<ele>135.783</ele>
<time>2017-10-25T03:28:07.666Z</time>
</trkpt>
<trkpt lat="-26.5377750" lon="152.7055033">
<ele>136.877</ele>
<time>2017-10-25T03:28:09.858Z</time>
</trkpt>
<trkpt lat="-26.5381015" lon="152.7059444">
<ele>137.980</ele>
<time>2017-10-25T03:28:12.103Z</time>
</trkpt>
<trkpt lat="-26.5384168" lon="152.7063620">
<ele>138.908</ele>
<time>2017-10-25T03:28:14.130Z</time>
</trkpt>
<trkpt lat="-26.5387527" lon="152.7067635">
<ele>139.877</ele>
<time>2017-10-25T03:28:16.112Z</time>
</trkpt>
<trkpt lat="-26.5391101" lon="152.7071382">
<ele>141.060</ele>
<time>2017-10-25T03:28:18.084Z</time>
</trkpt>
<trkpt lat="-26.5394961" lon="152.7074554">
<ele>142.232</ele>
<time>2017-10-25T03:28:20.019Z</time>
</trkpt>
<trkpt lat="-26.5399238" lon="152.7077883">
<ele>143.147</ele>
<time>2017-10-25T03:28:22.108Z</time>
</trkpt>
<trkpt lat="-26.5403266" lon="152.7081139">
<ele>143.987</ele>
<time>2017-10-25T03:28:24.072Z</time>
</trkpt>
<trkpt lat="-26.5407474" lon="152.7084583">
<ele>144.836</ele>
<time>2017-10-25T03:28:26.139Z</time>
</trkpt>
<trkpt lat="-26.5411302" lon="152.7087948">
<ele>145.446</ele>
<time>2017-10-25T03:28:28.078Z</time>
</trkpt>
<trkpt lat="-26.5414779" lon="152.7091543">
<ele>145.750</ele>
<time>2017-10-25T03:28:29.956Z</time>
</trkpt>
<trkpt lat="-26.5417647" lon="152.7096120">
<ele>146.200</ele>
<time>2017-10-25T03:28:31.972Z</time>
</trkpt>
<trkpt lat="-26.5419802" lon="152.7101674">
<ele>147.450</ele>
<time>2017-10-25T03:28:34.180Z</time>
</trkpt>
<trkpt lat="-26.5422388" lon="152.7106310">
<ele>149.830</ele>
<time>2017-10-25T03:28:36.148Z</time>
</trkpt>
<trkpt lat="-26.5425303" lon="152.7110163">
<ele>153.320</ele>
<time>2017-10-25T03:28:37.968Z</time>
</trkpt>
<trkpt lat="-26.5428764" lon="152.7112829">
<ele>157.634</ele>
<time>2017-10-25T03:28:39.718Z</time>
</trkpt>
<trkpt lat="-26.5432096" lon="152.7113919">
<ele>162.148</ele>
<time>2017-10-25T03:28:41.232Z</time>
</trkpt>
<trkpt lat="-26.5435145" lon="152.7114058">
<ele>166.355</ele>
<time>2017-10-25T03:28:42.644Z</time>
</trkpt>
<trkpt lat="-26.5437551" lon="152.7115242">
<ele>170.165</ele>
<time>2017-10-25T03:28:43.933Z</time>
</trkpt>
<trkpt lat="-26.5437562" lon="152.7118223">
<ele>173.651</ele>
<time>2017-10-25T03:28:45.430Z</time>
</trkpt>
<trkpt lat="-26.5437073" lon="152.7122182">
<ele>176.990</ele>
<time>2017-10-25T03:28:47.730Z</time>
</trkpt>
<trkpt lat="-26.5436957" lon="152.7126319">
<ele>180.423</ele>
<time>2017-10-25T03:28:50.483Z</time>
</trkpt>
<trkpt lat="-26.5437763" lon="152.7129479">
<ele>184.065</ele>
<time>2017-10-25T03:28:52.442Z</time>
</trkpt>
<trkpt lat="-26.5439314" lon="152.7131629">
<ele>187.891</ele>
<time>2017-10-25T03:28:53.893Z</time>
</trkpt>
<trkpt lat="-26.5441642" lon="152.7131550">
<ele>191.822</ele>
<time>2017-10-25T03:28:55.248Z</time>
</trkpt>
<trkpt lat="-26.5444392" lon="152.7129631">
<ele>195.696</ele>
<time>2017-10-25T03:28:57.407Z</time>
</trkpt>
<trkpt lat="-26.5447368" lon="152.7127587">
<ele>199.305</ele>
<time>2017-10-25T03:29:00.450Z</time>
</trkpt>
<trkpt lat="-26.5450882" lon="152.7125479">
<ele>202.562</ele>
<time>2017-10-25T03:29:03.355Z</time>
</trkpt>
<trkpt lat="-26.5453481" lon="152.7123516">
<ele>205.708</ele>
<time>2017-10-25T03:29:05.202Z</time>
</trkpt>
<trkpt lat="-26.5455487" lon="152.7122482">
<ele>209.121</ele>
<time>2017-10-25T03:29:06.433Z</time>
</trkpt>
<trkpt lat="-26.5458421" lon="152.7122521">
<ele>212.891</ele>
<time>2017-10-25T03:29:08.042Z</time>
</trkpt>
<trkpt lat="-26.5461749" lon="152.7123775">
<ele>216.755</ele>
<time>2017-10-25T03:29:10.318Z</time>
</trkpt>
<trkpt lat="-26.5465042" lon="152.7124169">
<ele>220.486</ele>
<time>2017-10-25T03:29:12.721Z</time>
</trkpt>
<trkpt lat="-26.5468530" lon="152.7123480">
<ele>224.106</ele>
<time>2017-10-25T03:29:15.056Z</time>
</trkpt>
<trkpt lat="-26.5471469" lon="152.7123189">
<ele>227.701</ele>
<time>2017-10-25T03:29:16.876Z</time>
</trkpt>
<trkpt lat="-26.5474313" lon="152.7122520">
<ele>231.203</ele>
<time>2017-10-25T03:29:18.650Z</time>
</trkpt>
<trkpt lat="-26.5476778" lon="152.7122489">
<ele>234.389</ele>
<time>2017-10-25T03:29:20.184Z</time>
</trkpt>
<trkpt lat="-26.5479073" lon="152.7122990">
<ele>236.985</ele>
<time>2017-10-25T03:29:21.731Z</time>
</trkpt>
<trkpt lat="-26.5480530" lon="152.7124930">
<ele>238.795</ele>
<time>2017-10-25T03:29:23.345Z</time>
</trkpt>
<trkpt lat="-26.5481996" lon="152.7126857">
<ele>239.836</ele>
<time>2017-10-25T03:29:25.105Z</time>
</trkpt>
<trkpt lat="-26.5484418" lon="152.7126354">
<ele>240.328</ele>
<time>2017-10-25T03:29:27.206Z</time>
</trkpt>
<trkpt lat="-26.5486696" lon="152.7125385">
<ele>240.335</ele>
<time>2017-10-25T03:29:29.383Z</time>
</trkpt>
<trkpt lat="-26.5489030" lon="152.7124709">
<ele>239.672</ele>
<time>2017-10-25T03:29:31.590Z</time>
</trkpt>
<trkpt lat="-26.5491445" lon="152.7124826">
<ele>238.409</ele>
<time>2017-10-25T03:29:33.744Z</time>
</trkpt>
<trkpt lat="-26.5493662" lon="152.7124564">
<ele>236.909</ele>
<time>2017-10-25T03:29:35.566Z</time>
</trkpt>
<trkpt lat="-26.5495205" lon="152.7125651">
<ele>235.465</ele>
<time>2017-10-25T03:29:37.046Z</time>
</trkpt>
<trkpt lat="-26.5495152" lon="152.7128456">
<ele>234.314</ele>
<time>2017-10-25T03:29:39.159Z</time>
</trkpt>
<trkpt lat="-26.5494852" lon="152.7131375">
<ele>233.631</ele>
<time>2017-10-25T03:29:41.707Z</time>
</trkpt>
<trkpt lat="-26.5496142" lon="152.7133819">
<ele>233.351</ele>
<time>2017-10-25T03:29:44.428Z</time>
</trkpt>
<trkpt lat="-26.5498089" lon="152.7135079">
<ele>233.200</ele>
<time>2017-10-25T03:29:46.551Z</time>
</trkpt>
<trkpt lat="-26.5498886" lon="152.7137339">
<ele>232.812</ele>
<time>2017-10-25T03:29:48.530Z</time>
</trkpt>
<trkpt lat="-26.5499409" lon="152.7139825">
<ele>232.051</ele>
<time>2017-10-25T03:29:50.618Z</time>
</trkpt>
<trkpt lat="-26.5501797" lon="152.7141746">
<ele>231.069</ele>
<time>2017-10-25T03:29:53.274Z</time>
</trkpt>
<trkpt lat="-26.5504262" lon="152.7143750">
<ele>229.965</ele>
<time>2017-10-25T03:29:55.796Z</time>
</trkpt>
<trkpt lat="-26.5506795" lon="152.7145537">
<ele>228.733</ele>
<time>2017-10-25T03:29:57.951Z</time>
</trkpt>
<trkpt lat="-26.5508662" lon="152.7148098">
<ele>227.378</ele>
<time>2017-10-25T03:29:59.931Z</time>
</trkpt>
<trkpt lat="-26.5511035" lon="152.7149125">
<ele>225.881</ele>
<time>2017-10-25T03:30:01.648Z</time>
</trkpt>
<trkpt lat="-26.5513879" lon="152.7149552">
<ele>224.095</ele>
<time>2017-10-25T03:30:03.638Z</time>
</trkpt>
<trkpt lat="-26.5516706" lon="152.7149329">
<ele>221.769</ele>
<time>2017-10-25T03:30:05.633Z</time>
</trkpt>
<trkpt lat="-26.5519225" lon="152.7150008">
<ele>218.881</ele>
<time>2017-10-25T03:30:07.448Z</time>
</trkpt>
<trkpt lat="-26.5521225" lon="152.7150777">
<ele>215.801</ele>
<time>2017-10-25T03:30:08.958Z</time>
</trkpt>
<trkpt lat="-26.5521965" lon="152.7154159">
<ele>213.006</ele>
<time>2017-10-25T03:30:11.335Z</time>
</trkpt>
<trkpt lat="-26.5522212" lon="152.7158149">
<ele>210.840</ele>
<time>2017-10-25T03:30:14.118Z</time>
</trkpt>
<trkpt lat="-26.5521531" lon="152.7162358">
<ele>209.397</ele>
<time>2017-10-25T03:30:16.568Z</time>
</trkpt>
<trkpt lat="-26.5520028" lon="152.7166385">
<ele>208.488</ele>
<time>2017-10-25T03:30:18.718Z</time>
</trkpt>
<trkpt lat="-26.5518962" lon="152.7170414">
<ele>207.697</ele>
<time>2017-10-25T03:30:20.662Z</time>
</trkpt>
<trkpt lat="-26.5518635" lon="152.7173823">
<ele>206.567</ele>
<time>2017-10-25T03:30:22.270Z</time>
</trkpt>
<trkpt lat="-26.5518526" lon="152.7176674">
<ele>204.763</ele>
<time>2017-10-25T03:30:23.696Z</time>
</trkpt>
<trkpt lat="-26.5520375" lon="152.7179476">
<ele>202.252</ele>
<time>2017-10-25T03:30:25.720Z</time>
</trkpt>
<trkpt lat="-26.5521852" lon="152.7183467">
<ele>199.168</ele>
<time>2017-10-25T03:30:28.474Z</time>
</trkpt>
<trkpt lat="-26.5522224" lon="152.7188167">
<ele>195.527</ele>
<time>2017-10-25T03:30:30.917Z</time>
</trkpt>
<trkpt lat="-26.5522252" lon="152.7192694">
<ele>191.411</ele>
<time>2017-10-25T03:30:32.977Z</time>
</trkpt>
<trkpt lat="-26.5522642" lon="152.7197073">
<ele>187.231</ele>
<time>2017-10-25T03:30:34.947Z</time>
</trkpt>
<trkpt lat="-26.5523863" lon="152.7201064">
<ele>183.472</ele>
<time>2017-10-25T03:30:36.869Z</time>
</trkpt>
<trkpt lat="-26.5525356" lon="152.7205308">
<ele>180.423</ele>
<time>2017-10-25T03:30:38.958Z</time>
</trkpt>
<trkpt lat="-26.5527042" lon="152.7209314">
<ele>178.185</ele>
<time>2017-10-25T03:30:40.935Z</time>
</trkpt>
<trkpt lat="-26.5529217" lon="152.7213397">
<ele>176.600</ele>
<time>2017-10-25T03:30:43.004Z</time>
</trkpt>
<trkpt lat="-26.5531899" lon="152.7217398">
<ele>175.180</ele>
<time>2017-10-25T03:30:45.116Z</time>
</trkpt>
<trkpt lat="-26.5534358" lon="152.7221848">
<ele>173.329</ele>
<time>2017-10-25T03:30:47.212Z</time>
</trkpt>
<trkpt lat="-26.5537003" lon="152.7226120">
<ele>170.690</ele>
<time>2017-10-25T03:30:49.219Z</time>
</trkpt>
<trkpt lat="-26.5539621" lon="152.7230421">
<ele>167.418</ele>
<time>2017-10-25T03:30:51.204Z</time>
</trkpt>
<trkpt lat="-26.5541997" lon="152.7235030">
<ele>164.054</ele>
<time>2017-10-25T03:30:53.221Z</time>
</trkpt>
<trkpt lat="-26.5544676" lon="152.7239631">
<ele>160.955</ele>
<time>2017-10-25T03:30:55.262Z</time>
</trkpt>
<trkpt lat="-26.5546687" lon="152.7245332">
<ele>157.888</ele>
<time>2017-10-25T03:30:57.467Z</time>
</trkpt>
<trkpt lat="-26.5549109" lon="152.7250362">
<ele>154.328</ele>
<time>2017-10-25T03:30:59.464Z</time>
</trkpt>
<trkpt lat="-26.5551303" lon="152.7255278">
<ele>149.982</ele>
<time>2017-10-25T03:31:01.385Z</time>
</trkpt>
<trkpt lat="-26.5553289" lon="152.7260078">
<ele>145.073</ele>
<time>2017-10-25T03:31:03.271Z</time>
</trkpt>
<trkpt lat="-26.5555527" lon="152.7264799">
<ele>140.072</ele>
<time>2017-10-25T03:31:05.213Z</time>
</trkpt>
<trkpt lat="-26.5557803" lon="152.7269527">
<ele>135.496</ele>
<time>2017-10-25T03:31:07.178Z</time>
</trkpt>
<trkpt lat="-26.5559964" lon="152.7274156">
<ele>131.748</ele>
<time>2017-10-25T03:31:09.108Z</time>
</trkpt>
<trkpt lat="-26.5561535" lon="152.7279105">
<ele>128.802</ele>
<time>2017-10-25T03:31:11.081Z</time>
</trkpt>
<trkpt lat="-26.5562426" lon="152.7285008">
<ele>126.024</ele>
<time>2017-10-25T03:31:13.297Z</time>
</trkpt>
<trkpt lat="-26.5563121" lon="152.7290934">
<ele>122.752</ele>
<time>2017-10-25T03:31:15.401Z</time>
</trkpt>
<trkpt lat="-26.5564052" lon="152.7296674">
<ele>118.997</ele>
<time>2017-10-25T03:31:17.403Z</time>
</trkpt>
<trkpt lat="-26.5564810" lon="152.7302005">
<ele>115.481</ele>
<time>2017-10-25T03:31:19.270Z</time>
</trkpt>
<trkpt lat="-26.5565636" lon="152.7307163">
<ele>112.840</ele>
<time>2017-10-25T03:31:21.133Z</time>
</trkpt>
<trkpt lat="-26.5566677" lon="152.7312252">
<ele>111.046</ele>
<time>2017-10-25T03:31:23.055Z</time>
</trkpt>
<trkpt lat="-26.5568188" lon="152.7317257">
<ele>109.803</ele>
<time>2017-10-25T03:31:25.053Z</time>
</trkpt>
<trkpt lat="-26.5570616" lon="152.7321457">
<ele>108.984</ele>
<time>2017-10-25T03:31:26.975Z</time>
</trkpt>
<trkpt lat="-26.5573816" lon="152.7325207">
<ele>108.259</ele>
<time>2017-10-25T03:31:28.981Z</time>
</trkpt>
<trkpt lat="-26.5577688" lon="152.7328280">
<ele>107.172</ele>
<time>2017-10-25T03:31:31.023Z</time>
</trkpt>
<trkpt lat="-26.5581988" lon="152.7330919">
<ele>105.803</ele>
<time>2017-10-25T03:31:33.094Z</time>
</trkpt>
<trkpt lat="-26.5586381" lon="152.7332951">
<ele>104.622</ele>
<time>2017-10-25T03:31:35.064Z</time>
</trkpt>
<trkpt lat="-26.5590952" lon="152.7334489">
<ele>103.913</ele>
<time>2017-10-25T03:31:37.026Z</time>
</trkpt>
<trkpt lat="-26.5595804" lon="152.7336812">
<ele>103.697</ele>
<time>2017-10-25T03:31:39.183Z</time>
</trkpt>
<trkpt lat="-26.5600334" lon="152.7338637">
<ele>103.924</ele>
<time>2017-10-25T03:31:41.143Z</time>
</trkpt>
<trkpt lat="-26.5604569" lon="152.7340366">
<ele>104.551</ele>
<time>2017-10-25T03:31:42.992Z</time>
</trkpt>
<trkpt lat="-26.5608867" lon="152.7342171">
<ele>105.314</ele>
<time>2017-10-25T03:31:44.911Z</time>
</trkpt>
<trkpt lat="-26.5613064" lon="152.7343745">
<ele>105.684</ele>
<time>2017-10-25T03:31:46.803Z</time>
</trkpt>
<trkpt lat="-26.5617201" lon="152.7344159">
<ele>105.417</ele>
<time>2017-10-25T03:31:48.626Z</time>
</trkpt>
<trkpt lat="-26.5621621" lon="152.7342934">
<ele>104.862</ele>
<time>2017-10-25T03:31:50.705Z</time>
</trkpt>
<trkpt lat="-26.5625764" lon="152.7341171">
<ele>104.574</ele>
<time>2017-10-25T03:31:52.748Z</time>
</trkpt>
<trkpt lat="-26.5629513" lon="152.7338445">
<ele>104.711</ele>
<time>2017-10-25T03:31:54.774Z</time>
</trkpt>
<trkpt lat="-26.5632933" lon="152.7334987">
<ele>104.972</ele>
<time>2017-10-25T03:31:56.837Z</time>
</trkpt>
<trkpt lat="-26.5636016" lon="152.7331023">
<ele>104.903</ele>
<time>2017-10-25T03:31:58.887Z</time>
</trkpt>
<trkpt lat="-26.5639102" lon="152.7326944">
<ele>104.221</ele>
<time>2017-10-25T03:32:00.918Z</time>
</trkpt>
<trkpt lat="-26.5642415" lon="152.7323051">
<ele>103.019</ele>
<time>2017-10-25T03:32:02.929Z</time>
</trkpt>
<trkpt lat="-26.5645618" lon="152.7319038">
<ele>101.822</ele>
<time>2017-10-25T03:32:04.921Z</time>
</trkpt>
<trkpt lat="-26.5648790" lon="152.7315033">
<ele>101.196</ele>
<time>2017-10-25T03:32:06.888Z</time>
</trkpt>
<trkpt lat="-26.5651741" lon="152.7311004">
<ele>101.257</ele>
<time>2017-10-25T03:32:08.804Z</time>
</trkpt>
<trkpt lat="-26.5654203" lon="152.7306761">
<ele>101.677</ele>
<time>2017-10-25T03:32:10.689Z</time>
</trkpt>
<trkpt lat="-26.5656740" lon="152.7302733">
<ele>102.271</ele>
<time>2017-10-25T03:32:12.567Z</time>
</trkpt>
<trkpt lat="-26.5658821" lon="152.7298726">
<ele>103.304</ele>
<time>2017-10-25T03:32:14.385Z</time>
</trkpt>
<trkpt lat="-26.5660696" lon="152.7294314">
<ele>105.237</ele>
<time>2017-10-25T03:32:16.385Z</time>
</trkpt>
<trkpt lat="-26.5662463" lon="152.7290461">
<ele>108.171</ele>
<time>2017-10-25T03:32:18.218Z</time>
</trkpt>
<trkpt lat="-26.5664508" lon="152.7287085">
<ele>111.590</ele>
<time>2017-10-25T03:32:19.977Z</time>
</trkpt>
<trkpt lat="-26.5666708" lon="152.7283988">
<ele>114.699</ele>
<time>2017-10-25T03:32:21.762Z</time>
</trkpt>
<trkpt lat="-26.5669338" lon="152.7281631">
<ele>116.886</ele>
<time>2017-10-25T03:32:23.546Z</time>
</trkpt>
<trkpt lat="-26.5672345" lon="152.7279788">
<ele>117.946</ele>
<time>2017-10-25T03:32:25.469Z</time>
</trkpt>
<trkpt lat="-26.5675699" lon="152.7278278">
<ele>118.124</ele>
<time>2017-10-25T03:32:27.609Z</time>
</trkpt>
<trkpt lat="-26.5679084" lon="152.7278016">
<ele>117.591</ele>
<time>2017-10-25T03:32:29.629Z</time>
</trkpt>
<trkpt lat="-26.5682903" lon="152.7277793">
<ele>116.246</ele>
<time>2017-10-25T03:32:31.881Z</time>
</trkpt>
<trkpt lat="-26.5686499" lon="152.7278148">
<ele>113.978</ele>
<time>2017-10-25T03:32:33.966Z</time>
</trkpt>
<trkpt lat="-26.5689884" lon="152.7278860">
<ele>110.881</ele>
<time>2017-10-25T03:32:35.913Z</time>
</trkpt>
<trkpt lat="-26.5692709" lon="152.7279510">
<ele>107.461</ele>
<time>2017-10-25T03:32:37.558Z</time>
</trkpt>
<trkpt lat="-26.5694518" lon="152.7280128">
<ele>104.405</ele>
<time>2017-10-25T03:32:38.670Z</time>
</trkpt>
<trkpt lat="-26.5695552" lon="152.7280238">
<ele>102.023</ele>
<time>2017-10-25T03:32:39.293Z</time>
</trkpt>
<trkpt lat="-26.5696452" lon="152.7281090">
<ele>100.167</ele>
<time>2017-10-25T03:32:39.999Z</time>
</trkpt>
<trkpt lat="-26.5697879" lon="152.7280854">
<ele>98.657</ele>
<time>2017-10-25T03:32:41.032Z</time>
</trkpt>
<trkpt lat="-26.5699065" lon="152.7281061">
<ele>97.619</ele>
<time>2017-10-25T03:32:41.893Z</time>
</trkpt>
<trkpt lat="-26.5700851" lon="152.7280875">
<ele>97.359</ele>
<time>2017-10-25T03:32:43.664Z</time>
</trkpt>
<trkpt lat="-26.5702793" lon="152.7281034">
<ele>97.803</ele>
<time>2017-10-25T03:32:46.726Z</time>
</trkpt>
<trkpt lat="-26.5704705" lon="152.7281153">
<ele>98.421</ele>
<time>2017-10-25T03:32:50.970Z</time>
</trkpt>
<trkpt lat="-26.5706781" lon="152.7281222">
<ele>98.635</ele>
<time>2017-10-25T03:32:54.264Z</time>
</trkpt>
<trkpt lat="-26.5708690" lon="152.7281328">
<ele>98.347</ele>
<time>2017-10-25T03:32:56.415Z</time>
</trkpt>
<trkpt lat="-26.5711187" lon="152.7281511">
<ele>97.905</ele>
<time>2017-10-25T03:32:59.074Z</time>
</trkpt>
<trkpt lat="-26.5714145" lon="152.7281577">
<ele>97.751</ele>
<time>2017-10-25T03:33:02.155Z</time>
</trkpt>
<trkpt lat="-26.5717161" lon="152.7281704">
<ele>97.966</ele>
<time>2017-10-25T03:33:04.801Z</time>
</trkpt>
<trkpt lat="-26.5720279" lon="152.7281912">
<ele>98.283</ele>
<time>2017-10-25T03:33:07.115Z</time>
</trkpt>
<trkpt lat="-26.5723494" lon="152.7281976">
<ele>98.506</ele>
<time>2017-10-25T03:33:09.287Z</time>
</trkpt>
<trkpt lat="-26.5726782" lon="152.7281892">
<ele>98.812</ele>
<time>2017-10-25T03:33:11.416Z</time>
</trkpt>
<trkpt lat="-26.5730234" lon="152.7282266">
<ele>99.294</ele>
<time>2017-10-25T03:33:13.594Z</time>
</trkpt>
<trkpt lat="-26.5733633" lon="152.7283069">
<ele>99.661</ele>
<time>2017-10-25T03:33:15.691Z</time>
</trkpt>
<trkpt lat="-26.5737180" lon="152.7282896">
<ele>99.695</ele>
<time>2017-10-25T03:33:17.755Z</time>
</trkpt>
<trkpt lat="-26.5740650" lon="152.7282602">
<ele>99.589</ele>
<time>2017-10-25T03:33:19.745Z</time>
</trkpt>
<trkpt lat="-26.5744205" lon="152.7282657">
<ele>99.695</ele>
<time>2017-10-25T03:33:21.776Z</time>
</trkpt>
<trkpt lat="-26.5747664" lon="152.7281342">
<ele>100.321</ele>
<time>2017-10-25T03:33:23.847Z</time>
</trkpt>
<trkpt lat="-26.5750341" lon="152.7279415">
<ele>101.544</ele>
<time>2017-10-25T03:33:25.661Z</time>
</trkpt>
<trkpt lat="-26.5752722" lon="152.7276781">
<ele>102.986</ele>
<time>2017-10-25T03:33:27.627Z</time>
</trkpt>
<trkpt lat="-26.5754869" lon="152.7274084">
<ele>104.059</ele>
<time>2017-10-25T03:33:29.550Z</time>
</trkpt>
<trkpt lat="-26.5757251" lon="152.7271790">
<ele>104.367</ele>
<time>2017-10-25T03:33:31.425Z</time>
</trkpt>
<trkpt lat="-26.5760165" lon="152.7270017">
<ele>103.809</ele>
<time>2017-10-25T03:33:33.441Z</time>
</trkpt>
<trkpt lat="-26.5763636" lon="152.7269170">
<ele>102.521</ele>
<time>2017-10-25T03:33:35.665Z</time>
</trkpt>
<trkpt lat="-26.5767348" lon="152.7268915">
<ele>100.941</ele>
<time>2017-10-25T03:33:37.945Z</time>
</trkpt>
<trkpt lat="-26.5770847" lon="152.7268360">
<ele>99.567</ele>
<time>2017-10-25T03:33:39.984Z</time>
</trkpt>
<trkpt lat="-26.5774585" lon="152.7267636">
<ele>98.508</ele>
<time>2017-10-25T03:33:42.114Z</time>
</trkpt>
<trkpt lat="-26.5777994" lon="152.7266587">
<ele>97.507</ele>
<time>2017-10-25T03:33:44.065Z</time>
</trkpt>
<trkpt lat="-26.5781308" lon="152.7264740">
<ele>96.343</ele>
<time>2017-10-25T03:33:46.067Z</time>
</trkpt>
<trkpt lat="-26.5784583" lon="152.7262801">
<ele>94.849</ele>
<time>2017-10-25T03:33:48.072Z</time>
</trkpt>
<trkpt lat="-26.5787490" lon="152.7260667">
<ele>92.941</ele>
<time>2017-10-25T03:33:49.965Z</time>
</trkpt>
<trkpt lat="-26.5790538" lon="152.7258614">
<ele>90.956</ele>
<time>2017-10-25T03:33:51.911Z</time>
</trkpt>
<trkpt lat="-26.5793097" lon="152.7256662">
<ele>89.515</ele>
<time>2017-10-25T03:33:53.649Z</time>
</trkpt>
<trkpt lat="-26.5795832" lon="152.7255559">
<ele>88.892</ele>
<time>2017-10-25T03:33:55.341Z</time>
</trkpt>
<trkpt lat="-26.5799145" lon="152.7254983">
<ele>88.936</ele>
<time>2017-10-25T03:33:57.363Z</time>
</trkpt>
<trkpt lat="-26.5802356" lon="152.7254769">
<ele>89.384</ele>
<time>2017-10-25T03:33:59.337Z</time>
</trkpt>
<trkpt lat="-26.5805825" lon="152.7254443">
<ele>89.925</ele>
<time>2017-10-25T03:34:01.478Z</time>
</trkpt>
<trkpt lat="-26.5809225" lon="152.7253877">
<ele>90.288</ele>
<time>2017-10-25T03:34:03.615Z</time>
</trkpt>
<trkpt lat="-26.5812738" lon="152.7253454">
<ele>90.472</ele>
<time>2017-10-25T03:34:05.790Z</time>
</trkpt>
<trkpt lat="-26.5816308" lon="152.7252835">
<ele>90.657</ele>
<time>2017-10-25T03:34:07.946Z</time>
</trkpt>
<trkpt lat="-26.5819764" lon="152.7252141">
<ele>90.965</ele>
<time>2017-10-25T03:34:10.007Z</time>
</trkpt>
<trkpt lat="-26.5823257" lon="152.7251732">
<ele>91.326</ele>
<time>2017-10-25T03:34:12.043Z</time>
</trkpt>
<trkpt lat="-26.5826705" lon="152.7251202">
<ele>91.560</ele>
<time>2017-10-25T03:34:14.035Z</time>
</trkpt>
<trkpt lat="-26.5830194" lon="152.7250823">
<ele>91.528</ele>
<time>2017-10-25T03:34:16.030Z</time>
</trkpt>
<trkpt lat="-26.5833782" lon="152.7250587">
<ele>91.100</ele>
<time>2017-10-25T03:34:18.074Z</time>
</trkpt>
<trkpt lat="-26.5837756" lon="152.7250498">
<ele>90.355</ele>
<time>2017-10-25T03:34:20.306Z</time>
</trkpt>
<trkpt lat="-26.5841612" lon="152.7250439">
<ele>89.703</ele>
<time>2017-10-25T03:34:22.405Z</time>
</trkpt>
<trkpt lat="-26.5845619" lon="152.7251180">
<ele>89.480</ele>
<time>2017-10-25T03:34:24.550Z</time>
</trkpt>
<trkpt lat="-26.5849242" lon="152.7253556">
<ele>89.641</ele>
<time>2017-10-25T03:34:26.696Z</time>
</trkpt>
<trkpt lat="-26.5852696" lon="152.7256022">
<ele>89.917</ele>
<time>2017-10-25T03:34:28.730Z</time>
</trkpt>
<trkpt lat="-26.5855810" lon="152.7258574">
<ele>89.959</ele>
<time>2017-10-25T03:34:30.645Z</time>
</trkpt>
<trkpt lat="-26.5858545" lon="152.7261217">
<ele>89.591</ele>
<time>2017-10-25T03:34:32.476Z</time>
</trkpt>
<trkpt lat="-26.5861265" lon="152.7263354">
<ele>89.026</ele>
<time>2017-10-25T03:34:34.224Z</time>
</trkpt>
<trkpt lat="-26.5863468" lon="152.7265431">
<ele>88.692</ele>
<time>2017-10-25T03:34:35.816Z</time>
</trkpt>
<trkpt lat="-26.5865349" lon="152.7267297">
<ele>88.913</ele>
<time>2017-10-25T03:34:37.317Z</time>
</trkpt>
<trkpt lat="-26.5867489" lon="152.7269027">
<ele>89.789</ele>
<time>2017-10-25T03:34:39.018Z</time>
</trkpt>
<trkpt lat="-26.5869684" lon="152.7270546">
<ele>91.051</ele>
<time>2017-10-25T03:34:40.825Z</time>
</trkpt>
<trkpt lat="-26.5872188" lon="152.7272306">
<ele>92.160</ele>
<time>2017-10-25T03:34:43.022Z</time>
</trkpt>
<trkpt lat="-26.5874871" lon="152.7274102">
<ele>92.825</ele>
<time>2017-10-25T03:34:45.325Z</time>
</trkpt>
<trkpt lat="-26.5877812" lon="152.7275486">
<ele>93.440</ele>
<time>2017-10-25T03:34:47.522Z</time>
</trkpt>
<trkpt lat="-26.5880772" lon="152.7277013">
<ele>94.516</ele>
<time>2017-10-25T03:34:49.646Z</time>
</trkpt>
<trkpt lat="-26.5883552" lon="152.7278304">
<ele>95.903</ele>
<time>2017-10-25T03:34:51.541Z</time>
</trkpt>
<trkpt lat="-26.5886019" lon="152.7279386">
<ele>97.131</ele>
<time>2017-10-25T03:34:53.206Z</time>
</trkpt>
<trkpt lat="-26.5888297" lon="152.7280374">
<ele>97.999</ele>
<time>2017-10-25T03:34:54.777Z</time>
</trkpt>
<trkpt lat="-26.5890103" lon="152.7281226">
<ele>98.489</ele>
<time>2017-10-25T03:34:56.070Z</time>
</trkpt>
<trkpt lat="-26.5891592" lon="152.7281820">
<ele>98.627</ele>
<time>2017-10-25T03:34:57.182Z</time>
</trkpt>
<trkpt lat="-26.5892979" lon="152.7282632">
<ele>98.531</ele>
<time>2017-10-25T03:34:58.324Z</time>
</trkpt>
<trkpt lat="-26.5894712" lon="152.7283115">
<ele>98.388</ele>
<time>2017-10-25T03:34:59.772Z</time>
</trkpt>
<trkpt lat="-26.5895787" lon="152.7283745">
<ele>98.329</ele>
<time>2017-10-25T03:35:00.947Z</time>
</trkpt>
<trkpt lat="-26.5896861" lon="152.7283958">
<ele>98.338</ele>
<time>2017-10-25T03:35:02.067Z</time>
</trkpt>
<trkpt lat="-26.5897834" lon="152.7284611">
<ele>98.359</ele>
<time>2017-10-25T03:35:03.427Z</time>
</trkpt>
<trkpt lat="-26.5898882" lon="152.7285266">
<ele>98.359</ele>
<time>2017-10-25T03:35:04.908Z</time>
</trkpt>
<trkpt lat="-26.5899852" lon="152.7285431">
<ele>98.220</ele>
<time>2017-10-25T03:35:06.146Z</time>
</trkpt>
<trkpt lat="-26.5900755" lon="152.7284764">
<ele>97.897</ele>
<time>2017-10-25T03:35:07.564Z</time>
</trkpt>
<trkpt lat="-26.5902901" lon="152.7283841">
<ele>97.594</ele>
<time>2017-10-25T03:35:11.100Z</time>
</trkpt>
<trkpt lat="-26.5905431" lon="152.7283541">
<ele>97.496</ele>
<time>2017-10-25T03:35:17.565Z</time>
</trkpt>
<trkpt lat="-26.5908431" lon="152.7283015">
<ele>97.574</ele>
<time>2017-10-25T03:35:26.987Z</time>
</trkpt>
<trkpt lat="-26.5911071" lon="152.7282240">
<ele>97.657</ele>
<time>2017-10-25T03:35:29.850Z</time>
</trkpt>
<trkpt lat="-26.5913682" lon="152.7281740">
<ele>97.605</ele>
<time>2017-10-25T03:35:31.949Z</time>
</trkpt>
<trkpt lat="-26.5916263" lon="152.7281251">
<ele>97.413</ele>
<time>2017-10-25T03:35:33.851Z</time>
</trkpt>
<trkpt lat="-26.5918885" lon="152.7281074">
<ele>97.028</ele>
<time>2017-10-25T03:35:35.717Z</time>
</trkpt>
<trkpt lat="-26.5921334" lon="152.7280271">
<ele>96.480</ele>
<time>2017-10-25T03:35:37.583Z</time>
</trkpt>
<trkpt lat="-26.5923591" lon="152.7280095">
<ele>96.089</ele>
<time>2017-10-25T03:35:39.296Z</time>
</trkpt>
<trkpt lat="-26.5926008" lon="152.7279332">
<ele>96.063</ele>
<time>2017-10-25T03:35:41.230Z</time>
</trkpt>
<trkpt lat="-26.5928463" lon="152.7278835">
<ele>96.132</ele>
<time>2017-10-25T03:35:43.197Z</time>
</trkpt>
<trkpt lat="-26.5930867" lon="152.7278413">
<ele>95.926</ele>
<time>2017-10-25T03:35:45.177Z</time>
</trkpt>
<trkpt lat="-26.5933497" lon="152.7277947">
<ele>95.394</ele>
<time>2017-10-25T03:35:47.373Z</time>
</trkpt>
<trkpt lat="-26.5936063" lon="152.7277693">
<ele>94.745</ele>
<time>2017-10-25T03:35:49.463Z</time>
</trkpt>
<trkpt lat="-26.5938526" lon="152.7277421">
<ele>94.169</ele>
<time>2017-10-25T03:35:51.422Z</time>
</trkpt>
<trkpt lat="-26.5941119" lon="152.7276945">
<ele>93.656</ele>
<time>2017-10-25T03:35:53.482Z</time>
</trkpt>
<trkpt lat="-26.5943741" lon="152.7276475">
<ele>93.177</ele>
<time>2017-10-25T03:35:55.563Z</time>
</trkpt>
<trkpt lat="-26.5946248" lon="152.7276052">
<ele>92.939</ele>
<time>2017-10-25T03:35:57.542Z</time>
</trkpt>
<trkpt lat="-26.5948683" lon="152.7275591">
<ele>93.159</ele>
<time>2017-10-25T03:35:59.455Z</time>
</trkpt>
<trkpt lat="-26.5950494" lon="152.7275363">
<ele>93.936</ele>
<time>2017-10-25T03:36:00.870Z</time>
</trkpt>
<trkpt lat="-26.5952244" lon="152.7275530">
<ele>95.280</ele>
<time>2017-10-25T03:36:02.247Z</time>
</trkpt>
<trkpt lat="-26.5953744" lon="152.7274498">
<ele>96.929</ele>
<time>2017-10-25T03:36:03.670Z</time>
</trkpt>
<trkpt lat="-26.5955526" lon="152.7274254">
<ele>98.410</ele>
<time>2017-10-25T03:36:05.214Z</time>
</trkpt>
<trkpt lat="-26.5957620" lon="152.7274303">
<ele>99.356</ele>
<time>2017-10-25T03:36:07.176Z</time>
</trkpt>
<trkpt lat="-26.5959545" lon="152.7274190">
<ele>99.686</ele>
<time>2017-10-25T03:36:09.167Z</time>
</trkpt>
<trkpt lat="-26.5961718" lon="152.7273936">
<ele>99.626</ele>
<time>2017-10-25T03:36:11.545Z</time>
</trkpt>
<trkpt lat="-26.5963795" lon="152.7273256">
<ele>99.466</ele>
<time>2017-10-25T03:36:13.901Z</time>
</trkpt>
<trkpt lat="-26.5965811" lon="152.7273020">
<ele>99.240</ele>
<time>2017-10-25T03:36:16.066Z</time>
</trkpt>
<trkpt lat="-26.5967903" lon="152.7272422">
<ele>98.791</ele>
<time>2017-10-25T03:36:18.235Z</time>
</trkpt>
<trkpt lat="-26.5970311" lon="152.7271256">
<ele>98.082</ele>
<time>2017-10-25T03:36:20.720Z</time>
</trkpt>
<trkpt lat="-26.5972506" lon="152.7270377">
<ele>97.196</ele>
<time>2017-10-25T03:36:22.870Z</time>
</trkpt>
<trkpt lat="-26.5974787" lon="152.7269089">
<ele>96.346</ele>
<time>2017-10-25T03:36:25.140Z</time>
</trkpt>
<trkpt lat="-26.5976764" lon="152.7267821">
<ele>95.804</ele>
<time>2017-10-25T03:36:27.070Z</time>
</trkpt>
<trkpt lat="-26.5978786" lon="152.7266770">
<ele>95.471</ele>
<time>2017-10-25T03:36:28.899Z</time>
</trkpt>
<trkpt lat="-26.5980867" lon="152.7265649">
<ele>95.029</ele>
<time>2017-10-25T03:36:30.755Z</time>
</trkpt>
<trkpt lat="-26.5982894" lon="152.7264682">
<ele>94.512</ele>
<time>2017-10-25T03:36:32.526Z</time>
</trkpt>
<trkpt lat="-26.5985133" lon="152.7263496">
<ele>94.170</ele>
<time>2017-10-25T03:36:34.593Z</time>
</trkpt>
<trkpt lat="-26.5987298" lon="152.7262061">
<ele>94.071</ele>
<time>2017-10-25T03:36:36.773Z</time>
</trkpt>
<trkpt lat="-26.5989670" lon="152.7260745">
<ele>94.165</ele>
<time>2017-10-25T03:36:39.064Z</time>
</trkpt>
<trkpt lat="-26.5991897" lon="152.7259415">
<ele>94.463</ele>
<time>2017-10-25T03:36:41.168Z</time>
</trkpt>
<trkpt lat="-26.5993787" lon="152.7257794">
<ele>94.967</ele>
<time>2017-10-25T03:36:43.060Z</time>
</trkpt>
<trkpt lat="-26.5995936" lon="152.7255932">
<ele>95.511</ele>
<time>2017-10-25T03:36:45.167Z</time>
</trkpt>
<trkpt lat="-26.5998155" lon="152.7254014">
<ele>95.877</ele>
<time>2017-10-25T03:36:47.347Z</time>
</trkpt>
<trkpt lat="-26.6000589" lon="152.7252603">
<ele>96.030</ele>
<time>2017-10-25T03:36:49.470Z</time>
</trkpt>
<trkpt lat="-26.6003716" lon="152.7252024">
<ele>96.059</ele>
<time>2017-10-25T03:36:51.861Z</time>
</trkpt>
<trkpt lat="-26.6007122" lon="152.7251278">
<ele>96.027</ele>
<time>2017-10-25T03:36:54.401Z</time>
</trkpt>
<trkpt lat="-26.6011090" lon="152.7250732">
<ele>95.978</ele>
<time>2017-10-25T03:36:57.114Z</time>
</trkpt>
<trkpt lat="-26.6014763" lon="152.7250060">
<ele>95.947</ele>
<time>2017-10-25T03:36:59.345Z</time>
</trkpt>
<trkpt lat="-26.6018024" lon="152.7249129">
<ele>95.960</ele>
<time>2017-10-25T03:37:01.204Z</time>
</trkpt>
<trkpt lat="-26.6021298" lon="152.7248527">
<ele>96.118</ele>
<time>2017-10-25T03:37:03.005Z</time>
</trkpt>
<trkpt lat="-26.6024305" lon="152.7247866">
<ele>96.438</ele>
<time>2017-10-25T03:37:04.708Z</time>
</trkpt>
<trkpt lat="-26.6027486" lon="152.7247367">
<ele>96.738</ele>
<time>2017-10-25T03:37:06.582Z</time>
</trkpt>
<trkpt lat="-26.6030638" lon="152.7247197">
<ele>96.795</ele>
<time>2017-10-25T03:37:08.513Z</time>
</trkpt>
<trkpt lat="-26.6034098" lon="152.7246390">
<ele>96.506</ele>
<time>2017-10-25T03:37:10.713Z</time>
</trkpt>
<trkpt lat="-26.6037014" lon="152.7244955">
<ele>95.996</ele>
<time>2017-10-25T03:37:12.670Z</time>
</trkpt>
<trkpt lat="-26.6039411" lon="152.7241786">
<ele>95.508</ele>
<time>2017-10-25T03:37:14.915Z</time>
</trkpt>
<trkpt lat="-26.6041431" lon="152.7238886">
<ele>95.121</ele>
<time>2017-10-25T03:37:16.885Z</time>
</trkpt>
<trkpt lat="-26.6043635" lon="152.7235922">
<ele>94.845</ele>
<time>2017-10-25T03:37:18.921Z</time>
</trkpt>
<trkpt lat="-26.6046004" lon="152.7233474">
<ele>94.755</ele>
<time>2017-10-25T03:37:20.844Z</time>
</trkpt>
<trkpt lat="-26.6048075" lon="152.7231197">
<ele>94.960</ele>
<time>2017-10-25T03:37:22.633Z</time>
</trkpt>
<trkpt lat="-26.6050288" lon="152.7228962">
<ele>95.634</ele>
<time>2017-10-25T03:37:24.530Z</time>
</trkpt>
<trkpt lat="-26.6052706" lon="152.7227041">
<ele>96.921</ele>
<time>2017-10-25T03:37:26.463Z</time>
</trkpt>
<trkpt lat="-26.6055509" lon="152.7225734">
<ele>98.654</ele>
<time>2017-10-25T03:37:28.461Z</time>
</trkpt>
<trkpt lat="-26.6058374" lon="152.7224614">
<ele>100.436</ele>
<time>2017-10-25T03:37:30.465Z</time>
</trkpt>
<trkpt lat="-26.6061285" lon="152.7223108">
<ele>102.009</ele>
<time>2017-10-25T03:37:32.585Z</time>
</trkpt>
<trkpt lat="-26.6063976" lon="152.7221691">
<ele>103.295</ele>
<time>2017-10-25T03:37:34.546Z</time>
</trkpt>
<trkpt lat="-26.6066811" lon="152.7219799">
<ele>104.177</ele>
<time>2017-10-25T03:37:36.712Z</time>
</trkpt>
<trkpt lat="-26.6069556" lon="152.7217843">
<ele>104.467</ele>
<time>2017-10-25T03:37:38.810Z</time>
</trkpt>
<trkpt lat="-26.6072501" lon="152.7215577">
<ele>104.122</ele>
<time>2017-10-25T03:37:41.051Z</time>
</trkpt>
<trkpt lat="-26.6075619" lon="152.7213304">
<ele>103.259</ele>
<time>2017-10-25T03:37:43.301Z</time>
</trkpt>
<trkpt lat="-26.6079517" lon="152.7210807">
<ele>101.906</ele>
<time>2017-10-25T03:37:45.873Z</time>
</trkpt>
<trkpt lat="-26.6083163" lon="152.7208472">
<ele>100.035</ele>
<time>2017-10-25T03:37:48.092Z</time>
</trkpt>
<trkpt lat="-26.6087031" lon="152.7205761">
<ele>97.928</ele>
<time>2017-10-25T03:37:50.374Z</time>
</trkpt>
<trkpt lat="-26.6090559" lon="152.7203319">
<ele>96.098</ele>
<time>2017-10-25T03:37:52.400Z</time>
</trkpt>
<trkpt lat="-26.6094154" lon="152.7201225">
<ele>94.924</ele>
<time>2017-10-25T03:37:54.380Z</time>
</trkpt>
<trkpt lat="-26.6097440" lon="152.7198896">
<ele>94.495</ele>
<time>2017-10-25T03:37:56.298Z</time>
</trkpt>
<trkpt lat="-26.6100856" lon="152.7196564">
<ele>94.834</ele>
<time>2017-10-25T03:37:58.280Z</time>
</trkpt>
<trkpt lat="-26.6103879" lon="152.7194433">
<ele>95.907</ele>
<time>2017-10-25T03:38:00.056Z</time>
</trkpt>
<trkpt lat="-26.6106916" lon="152.7192549">
<ele>97.501</ele>
<time>2017-10-25T03:38:01.807Z</time>
</trkpt>
<trkpt lat="-26.6110126" lon="152.7189512">
<ele>99.290</ele>
<time>2017-10-25T03:38:03.964Z</time>
</trkpt>
<trkpt lat="-26.6112893" lon="152.7186134">
<ele>101.021</ele>
<time>2017-10-25T03:38:06.035Z</time>
</trkpt>
<trkpt lat="-26.6115273" lon="152.7183394">
<ele>102.620</ele>
<time>2017-10-25T03:38:07.723Z</time>
</trkpt>
<trkpt lat="-26.6117396" lon="152.7180698">
<ele>104.279</ele>
<time>2017-10-25T03:38:09.374Z</time>
</trkpt>
<trkpt lat="-26.6117880" lon="152.7177274">
<ele>106.275</ele>
<time>2017-10-25T03:38:11.067Z</time>
</trkpt>
<trkpt lat="-26.6116898" lon="152.7173111">
<ele>108.608</ele>
<time>2017-10-25T03:38:13.312Z</time>
</trkpt>
<trkpt lat="-26.6116021" lon="152.7168706">
<ele>110.960</ele>
<time>2017-10-25T03:38:15.708Z</time>
</trkpt>
<trkpt lat="-26.6114955" lon="152.7164364">
<ele>112.829</ele>
<time>2017-10-25T03:38:17.936Z</time>
</trkpt>
<trkpt lat="-26.6114151" lon="152.7159993">
<ele>113.805</ele>
<time>2017-10-25T03:38:20.013Z</time>
</trkpt>
<trkpt lat="-26.6113544" lon="152.7155871">
<ele>113.818</ele>
<time>2017-10-25T03:38:21.905Z</time>
</trkpt>
<trkpt lat="-26.6113433" lon="152.7151888">
<ele>113.236</ele>
<time>2017-10-25T03:38:23.697Z</time>
</trkpt>
<trkpt lat="-26.6115664" lon="152.7148275">
<ele>112.599</ele>
<time>2017-10-25T03:38:25.729Z</time>
</trkpt>
<trkpt lat="-26.6118984" lon="152.7145701">
<ele>112.101</ele>
<time>2017-10-25T03:38:27.920Z</time>
</trkpt>
<trkpt lat="-26.6122990" lon="152.7144308">
<ele>111.640</ele>
<time>2017-10-25T03:38:30.238Z</time>
</trkpt>
<trkpt lat="-26.6126172" lon="152.7142410">
<ele>111.457</ele>
<time>2017-10-25T03:38:32.191Z</time>
</trkpt>
<trkpt lat="-26.6129013" lon="152.7139555">
<ele>112.058</ele>
<time>2017-10-25T03:38:34.267Z</time>
</trkpt>
<trkpt lat="-26.6130974" lon="152.7135678">
<ele>113.812</ele>
<time>2017-10-25T03:38:36.484Z</time>
</trkpt>
<trkpt lat="-26.6132602" lon="152.7131441">
<ele>116.657</ele>
<time>2017-10-25T03:38:38.680Z</time>
</trkpt>
<trkpt lat="-26.6134366" lon="152.7127631">
<ele>119.937</ele>
<time>2017-10-25T03:38:40.620Z</time>
</trkpt>
<trkpt lat="-26.6136493" lon="152.7124085">
<ele>122.932</ele>
<time>2017-10-25T03:38:42.538Z</time>
</trkpt>
<trkpt lat="-26.6138354" lon="152.7120999">
<ele>125.591</ele>
<time>2017-10-25T03:38:44.247Z</time>
</trkpt>
<trkpt lat="-26.6140867" lon="152.7118624">
<ele>128.269</ele>
<time>2017-10-25T03:38:46.023Z</time>
</trkpt>
<trkpt lat="-26.6143453" lon="152.7116262">
<ele>131.084</ele>
<time>2017-10-25T03:38:47.964Z</time>
</trkpt>
<trkpt lat="-26.6146415" lon="152.7114612">
<ele>133.869</ele>
<time>2017-10-25T03:38:49.948Z</time>
</trkpt>
<trkpt lat="-26.6149395" lon="152.7112976">
<ele>136.248</ele>
<time>2017-10-25T03:38:51.936Z</time>
</trkpt>
<trkpt lat="-26.6152318" lon="152.7111005">
<ele>137.772</ele>
<time>2017-10-25T03:38:53.978Z</time>
</trkpt>
<trkpt lat="-26.6154284" lon="152.7108498">
<ele>138.353</ele>
<time>2017-10-25T03:38:55.779Z</time>
</trkpt>
<trkpt lat="-26.6153964" lon="152.7105036">
<ele>138.181</ele>
<time>2017-10-25T03:38:57.758Z</time>
</trkpt>
<trkpt lat="-26.6153803" lon="152.7101287">
<ele>137.272</ele>
<time>2017-10-25T03:39:00.018Z</time>
</trkpt>
<trkpt lat="-26.6154516" lon="152.7098231">
<ele>135.705</ele>
<time>2017-10-25T03:39:01.928Z</time>
</trkpt>
<trkpt lat="-26.6157391" lon="152.7095953">
<ele>134.061</ele>
<time>2017-10-25T03:39:04.378Z</time>
</trkpt>
<trkpt lat="-26.6160963" lon="152.7094592">
<ele>132.940</ele>
<time>2017-10-25T03:39:06.807Z</time>
</trkpt>
<trkpt lat="-26.6164570" lon="152.7092666">
<ele>132.094</ele>
<time>2017-10-25T03:39:09.127Z</time>
</trkpt>
<trkpt lat="-26.6167427" lon="152.7090243">
<ele>130.661</ele>
<time>2017-10-25T03:39:11.130Z</time>
</trkpt>
<trkpt lat="-26.6169215" lon="152.7086764">
<ele>128.327</ele>
<time>2017-10-25T03:39:13.135Z</time>
</trkpt>
<trkpt lat="-26.6171374" lon="152.7083873">
<ele>125.490</ele>
<time>2017-10-25T03:39:15.064Z</time>
</trkpt>
<trkpt lat="-26.6174090" lon="152.7081851">
<ele>122.563</ele>
<time>2017-10-25T03:39:16.987Z</time>
</trkpt>
<trkpt lat="-26.6176218" lon="152.7078987">
<ele>119.696</ele>
<time>2017-10-25T03:39:18.997Z</time>
</trkpt>
<trkpt lat="-26.6177271" lon="152.7075641">
<ele>116.894</ele>
<time>2017-10-25T03:39:20.948Z</time>
</trkpt>
<trkpt lat="-26.6177487" lon="152.7072264">
<ele>114.476</ele>
<time>2017-10-25T03:39:22.842Z</time>
</trkpt>
<trkpt lat="-26.6176391" lon="152.7068994">
<ele>113.033</ele>
<time>2017-10-25T03:39:24.834Z</time>
</trkpt>
<trkpt lat="-26.6174644" lon="152.7065944">
<ele>112.483</ele>
<time>2017-10-25T03:39:26.924Z</time>
</trkpt>
<trkpt lat="-26.6172185" lon="152.7063140">
<ele>112.241</ele>
<time>2017-10-25T03:39:29.116Z</time>
</trkpt>
<trkpt lat="-26.6169574" lon="152.7060593">
<ele>112.095</ele>
<time>2017-10-25T03:39:31.159Z</time>
</trkpt>
<trkpt lat="-26.6166914" lon="152.7058160">
<ele>112.248</ele>
<time>2017-10-25T03:39:33.124Z</time>
</trkpt>
<trkpt lat="-26.6164086" lon="152.7055533">
<ele>112.935</ele>
<time>2017-10-25T03:39:35.176Z</time>
</trkpt>
<trkpt lat="-26.6161637" lon="152.7052930">
<ele>114.027</ele>
<time>2017-10-25T03:39:37.033Z</time>
</trkpt>
<trkpt lat="-26.6159386" lon="152.7050743">
<ele>115.271</ele>
<time>2017-10-25T03:39:38.712Z</time>
</trkpt>
<trkpt lat="-26.6157649" lon="152.7048498">
<ele>116.642</ele>
<time>2017-10-25T03:39:40.305Z</time>
</trkpt>
<trkpt lat="-26.6157464" lon="152.7045099">
<ele>117.886</ele>
<time>2017-10-25T03:39:42.414Z</time>
</trkpt>
<trkpt lat="-26.6158339" lon="152.7042176">
<ele>118.592</ele>
<time>2017-10-25T03:39:44.491Z</time>
</trkpt>
<trkpt lat="-26.6157909" lon="152.7040007">
<ele>118.874</ele>
<time>2017-10-25T03:39:46.002Z</time>
</trkpt>
<trkpt lat="-26.6155979" lon="152.7038829">
<ele>119.184</ele>
<time>2017-10-25T03:39:47.906Z</time>
</trkpt>
<trkpt lat="-26.6153361" lon="152.7040253">
<ele>119.761</ele>
<time>2017-10-25T03:39:50.732Z</time>
</trkpt>
<trkpt lat="-26.6150859" lon="152.7041437">
<ele>120.624</ele>
<time>2017-10-25T03:39:53.092Z</time>
</trkpt>
<trkpt lat="-26.6148869" lon="152.7040645">
<ele>121.745</ele>
<time>2017-10-25T03:39:54.879Z</time>
</trkpt>
<trkpt lat="-26.6148540" lon="152.7037476">
<ele>123.109</ele>
<time>2017-10-25T03:39:57.454Z</time>
</trkpt>
<trkpt lat="-26.6149708" lon="152.7033857">
<ele>124.825</ele>
<time>2017-10-25T03:40:00.149Z</time>
</trkpt>
<trkpt lat="-26.6150842" lon="152.7030553">
<ele>127.029</ele>
<time>2017-10-25T03:40:02.252Z</time>
</trkpt>
<trkpt lat="-26.6151530" lon="152.7027893">
<ele>129.713</ele>
<time>2017-10-25T03:40:03.998Z</time>
</trkpt>
<trkpt lat="-26.6150426" lon="152.7025856">
<ele>132.712</ele>
<time>2017-10-25T03:40:05.876Z</time>
</trkpt>
<trkpt lat="-26.6148003" lon="152.7026260">
<ele>135.737</ele>
<time>2017-10-25T03:40:08.250Z</time>
</trkpt>
<trkpt lat="-26.6145299" lon="152.7027063">
<ele>138.418</ele>
<time>2017-10-25T03:40:10.777Z</time>
</trkpt>
<trkpt lat="-26.6143401" lon="152.7025617">
<ele>140.550</ele>
<time>2017-10-25T03:40:12.982Z</time>
</trkpt>
<trkpt lat="-26.6143818" lon="152.7022530">
<ele>142.338</ele>
<time>2017-10-25T03:40:15.364Z</time>
</trkpt>
<trkpt lat="-26.6145390" lon="152.7019454">
<ele>144.256</ele>
<time>2017-10-25T03:40:17.518Z</time>
</trkpt>
<trkpt lat="-26.6147297" lon="152.7016289">
<ele>146.541</ele>
<time>2017-10-25T03:40:19.773Z</time>
</trkpt>
<trkpt lat="-26.6148377" lon="152.7013791">
<ele>148.935</ele>
<time>2017-10-25T03:40:21.680Z</time>
</trkpt>
<trkpt lat="-26.6147531" lon="152.7011166">
<ele>151.066</ele>
<time>2017-10-25T03:40:23.657Z</time>
</trkpt>
<trkpt lat="-26.6145283" lon="152.7008715">
<ele>152.768</ele>
<time>2017-10-25T03:40:25.830Z</time>
</trkpt>
<trkpt lat="-26.6142432" lon="152.7006316">
<ele>154.012</ele>
<time>2017-10-25T03:40:28.055Z</time>
</trkpt>
<trkpt lat="-26.6140096" lon="152.7003687">
<ele>154.891</ele>
<time>2017-10-25T03:40:30.084Z</time>
</trkpt>
<trkpt lat="-26.6138817" lon="152.7000153">
<ele>155.641</ele>
<time>2017-10-25T03:40:32.159Z</time>
</trkpt>
<trkpt lat="-26.6138265" lon="152.6996349">
<ele>156.450</ele>
<time>2017-10-25T03:40:34.293Z</time>
</trkpt>
<trkpt lat="-26.6137703" lon="152.6992726">
<ele>157.229</ele>
<time>2017-10-25T03:40:36.478Z</time>
</trkpt>
<trkpt lat="-26.6136060" lon="152.6990007">
<ele>157.569</ele>
<time>2017-10-25T03:40:38.902Z</time>
</trkpt>
<trkpt lat="-26.6134876" lon="152.6988187">
<ele>157.167</ele>
<time>2017-10-25T03:40:40.849Z</time>
</trkpt>
<trkpt lat="-26.6134568" lon="152.6985793">
<ele>156.061</ele>
<time>2017-10-25T03:40:42.780Z</time>
</trkpt>
<trkpt lat="-26.6136409" lon="152.6984024">
<ele>154.473</ele>
<time>2017-10-25T03:40:44.602Z</time>
</trkpt>
<trkpt lat="-26.6139702" lon="152.6983598">
<ele>152.797</ele>
<time>2017-10-25T03:40:46.736Z</time>
</trkpt>
<trkpt lat="-26.6143294" lon="152.6983461">
<ele>151.457</ele>
<time>2017-10-25T03:40:48.917Z</time>
</trkpt>
<trkpt lat="-26.6146524" lon="152.6982438">
<ele>150.527</ele>
<time>2017-10-25T03:40:50.913Z</time>
</trkpt>
<trkpt lat="-26.6149346" lon="152.6980190">
<ele>149.752</ele>
<time>2017-10-25T03:40:52.879Z</time>
</trkpt>
<trkpt lat="-26.6151896" lon="152.6976999">
<ele>148.788</ele>
<time>2017-10-25T03:40:54.933Z</time>
</trkpt>
<trkpt lat="-26.6153347" lon="152.6972882">
<ele>147.462</ele>
<time>2017-10-25T03:40:56.949Z</time>
</trkpt>
<trkpt lat="-26.6154255" lon="152.6968685">
<ele>145.920</ele>
<time>2017-10-25T03:40:58.806Z</time>
</trkpt>
<trkpt lat="-26.6154790" lon="152.6964127">
<ele>144.348</ele>
<time>2017-10-25T03:41:00.705Z</time>
</trkpt>
<trkpt lat="-26.6155167" lon="152.6959077">
<ele>142.738</ele>
<time>2017-10-25T03:41:02.805Z</time>
</trkpt>
<trkpt lat="-26.6155774" lon="152.6954364">
<ele>141.073</ele>
<time>2017-10-25T03:41:04.842Z</time>
</trkpt>
<trkpt lat="-26.6156659" lon="152.6949865">
<ele>139.313</ele>
<time>2017-10-25T03:41:06.880Z</time>
</trkpt>
<trkpt lat="-26.6158175" lon="152.6945468">
<ele>137.252</ele>
<time>2017-10-25T03:41:09.063Z</time>
</trkpt>
<trkpt lat="-26.6159949" lon="152.6941801">
<ele>134.717</ele>
<time>2017-10-25T03:41:11.128Z</time>
</trkpt>
<trkpt lat="-26.6161989" lon="152.6938709">
<ele>131.830</ele>
<time>2017-10-25T03:41:13.069Z</time>
</trkpt>
<trkpt lat="-26.6164761" lon="152.6936351">
<ele>128.980</ele>
<time>2017-10-25T03:41:14.976Z</time>
</trkpt>
<trkpt lat="-26.6168170" lon="152.6934830">
<ele>126.488</ele>
<time>2017-10-25T03:41:16.950Z</time>
</trkpt>
<trkpt lat="-26.6171731" lon="152.6932781">
<ele>124.425</ele>
<time>2017-10-25T03:41:19.126Z</time>
</trkpt>
<trkpt lat="-26.6174877" lon="152.6930716">
<ele>122.793</ele>
<time>2017-10-25T03:41:21.088Z</time>
</trkpt>
<trkpt lat="-26.6177684" lon="152.6927853">
<ele>121.528</ele>
<time>2017-10-25T03:41:23.087Z</time>
</trkpt>
<trkpt lat="-26.6180650" lon="152.6925084">
<ele>120.512</ele>
<time>2017-10-25T03:41:25.083Z</time>
</trkpt>
<trkpt lat="-26.6184268" lon="152.6923367">
<ele>119.800</ele>
<time>2017-10-25T03:41:27.063Z</time>
</trkpt>
<trkpt lat="-26.6188062" lon="152.6922093">
<ele>119.531</ele>
<time>2017-10-25T03:41:29.038Z</time>
</trkpt>
<trkpt lat="-26.6191875" lon="152.6920536">
<ele>119.629</ele>
<time>2017-10-25T03:41:31.098Z</time>
</trkpt>
<trkpt lat="-26.6195308" lon="152.6918535">
<ele>119.617</ele>
<time>2017-10-25T03:41:33.092Z</time>
</trkpt>
<trkpt lat="-26.6198440" lon="152.6916221">
<ele>118.958</ele>
<time>2017-10-25T03:41:35.049Z</time>
</trkpt>
<trkpt lat="-26.6201107" lon="152.6913226">
<ele>117.568</ele>
<time>2017-10-25T03:41:37.079Z</time>
</trkpt>
<trkpt lat="-26.6203685" lon="152.6910647">
<ele>115.956</ele>
<time>2017-10-25T03:41:38.978Z</time>
</trkpt>
<trkpt lat="-26.6207411" lon="152.6909481">
<ele>114.810</ele>
<time>2017-10-25T03:41:41.106Z</time>
</trkpt>
<trkpt lat="-26.6211029" lon="152.6909277">
<ele>114.487</ele>
<time>2017-10-25T03:41:43.099Z</time>
</trkpt>
<trkpt lat="-26.6214651" lon="152.6909156">
<ele>114.885</ele>
<time>2017-10-25T03:41:45.102Z</time>
</trkpt>
<trkpt lat="-26.6217997" lon="152.6908142">
<ele>115.597</ele>
<time>2017-10-25T03:41:47.032Z</time>
</trkpt>
<trkpt lat="-26.6221119" lon="152.6906024">
<ele>116.145</ele>
<time>2017-10-25T03:41:49.096Z</time>
</trkpt>
<trkpt lat="-26.6223889" lon="152.6903401">
<ele>116.357</ele>
<time>2017-10-25T03:41:51.242Z</time>
</trkpt>
<trkpt lat="-26.6226476" lon="152.6900597">
<ele>116.287</ele>
<time>2017-10-25T03:41:53.453Z</time>
</trkpt>
<trkpt lat="-26.6229178" lon="152.6898993">
<ele>115.966</ele>
<time>2017-10-25T03:41:55.277Z</time>
</trkpt>
<trkpt lat="-26.6232324" lon="152.6898745">
<ele>115.437</ele>
<time>2017-10-25T03:41:57.075Z</time>
</trkpt>
<trkpt lat="-26.6236006" lon="152.6899313">
<ele>114.864</ele>
<time>2017-10-25T03:41:59.152Z</time>
</trkpt>
<trkpt lat="-26.6241827" lon="152.6899756">
<ele>114.443</ele>
<time>2017-10-25T03:42:02.401Z</time>
</trkpt>
<trkpt lat="-26.6245255" lon="152.6900581">
<ele>114.130</ele>
<time>2017-10-25T03:42:04.317Z</time>
</trkpt>
<trkpt lat="-26.6248794" lon="152.6899408">
<ele>113.713</ele>
<time>2017-10-25T03:42:06.247Z</time>
</trkpt>
<trkpt lat="-26.6252529" lon="152.6897577">
<ele>113.059</ele>
<time>2017-10-25T03:42:08.297Z</time>
</trkpt>
<trkpt lat="-26.6255998" lon="152.6895208">
<ele>112.049</ele>
<time>2017-10-25T03:42:10.278Z</time>
</trkpt>
<trkpt lat="-26.6259474" lon="152.6892762">
<ele>110.631</ele>
<time>2017-10-25T03:42:12.241Z</time>
</trkpt>
<trkpt lat="-26.6263174" lon="152.6889899">
<ele>109.022</ele>
<time>2017-10-25T03:42:14.383Z</time>
</trkpt>
<trkpt lat="-26.6266821" lon="152.6887698">
<ele>107.378</ele>
<time>2017-10-25T03:42:16.362Z</time>
</trkpt>
<trkpt lat="-26.6270444" lon="152.6885477">
<ele>105.693</ele>
<time>2017-10-25T03:42:18.332Z</time>
</trkpt>
<trkpt lat="-26.6274046" lon="152.6883209">
<ele>104.152</ele>
<time>2017-10-25T03:42:20.294Z</time>
</trkpt>
<trkpt lat="-26.6277765" lon="152.6881077">
<ele>103.097</ele>
<time>2017-10-25T03:42:22.286Z</time>
</trkpt>
<trkpt lat="-26.6281090" lon="152.6878441">
<ele>102.706</ele>
<time>2017-10-25T03:42:24.249Z</time>
</trkpt>
<trkpt lat="-26.6284520" lon="152.6876100">
<ele>102.973</ele>
<time>2017-10-25T03:42:26.191Z</time>
</trkpt>
<trkpt lat="-26.6287476" lon="152.6872828">
<ele>103.754</ele>
<time>2017-10-25T03:42:28.191Z</time>
</trkpt>
<trkpt lat="-26.6289831" lon="152.6868724">
<ele>104.659</ele>
<time>2017-10-25T03:42:30.278Z</time>
</trkpt>
<trkpt lat="-26.6292562" lon="152.6865085">
<ele>105.238</ele>
<time>2017-10-25T03:42:32.329Z</time>
</trkpt>
<trkpt lat="-26.6295888" lon="152.6862606">
<ele>105.271</ele>
<time>2017-10-25T03:42:34.306Z</time>
</trkpt>
<trkpt lat="-26.6299663" lon="152.6860614">
<ele>104.891</ele>
<time>2017-10-25T03:42:36.373Z</time>
</trkpt>
<trkpt lat="-26.6303367" lon="152.6859560">
<ele>104.534</ele>
<time>2017-10-25T03:42:38.200Z</time>
</trkpt>
<trkpt lat="-26.6307507" lon="152.6859421">
<ele>104.647</ele>
<time>2017-10-25T03:42:40.117Z</time>
</trkpt>
<trkpt lat="-26.6311939" lon="152.6859199">
<ele>105.304</ele>
<time>2017-10-25T03:42:42.165Z</time>
</trkpt>
<trkpt lat="-26.6316236" lon="152.6858232">
<ele>106.259</ele>
<time>2017-10-25T03:42:44.229Z</time>
</trkpt>
<trkpt lat="-26.6320482" lon="152.6858015">
<ele>107.157</ele>
<time>2017-10-25T03:42:46.246Z</time>
</trkpt>
<trkpt lat="-26.6324504" lon="152.6857508">
<ele>107.775</ele>
<time>2017-10-25T03:42:48.162Z</time>
</trkpt>
<trkpt lat="-26.6328848" lon="152.6857278">
<ele>108.298</ele>
<time>2017-10-25T03:42:50.248Z</time>
</trkpt>
<trkpt lat="-26.6333046" lon="152.6857424">
<ele>109.080</ele>
<time>2017-10-25T03:42:52.312Z</time>
</trkpt>
<trkpt lat="-26.6337015" lon="152.6858336">
<ele>110.096</ele>
<time>2017-10-25T03:42:54.296Z</time>
</trkpt>
<trkpt lat="-26.6340818" lon="152.6859840">
<ele>111.092</ele>
<time>2017-10-25T03:42:56.163Z</time>
</trkpt>
<trkpt lat="-26.6344527" lon="152.6862226">
<ele>112.000</ele>
<time>2017-10-25T03:42:58.011Z</time>
</trkpt>
<trkpt lat="-26.6348694" lon="152.6864854">
<ele>112.861</ele>
<time>2017-10-25T03:42:59.976Z</time>
</trkpt>
<trkpt lat="-26.6352866" lon="152.6867726">
<ele>113.612</ele>
<time>2017-10-25T03:43:01.938Z</time>
</trkpt>
<trkpt lat="-26.6357207" lon="152.6870794">
<ele>114.113</ele>
<time>2017-10-25T03:43:04.019Z</time>
</trkpt>
<trkpt lat="-26.6361542" lon="152.6873298">
<ele>114.312</ele>
<time>2017-10-25T03:43:06.118Z</time>
</trkpt>
<trkpt lat="-26.6365377" lon="152.6875505">
<ele>114.289</ele>
<time>2017-10-25T03:43:08.110Z</time>
</trkpt>
<trkpt lat="-26.6368963" lon="152.6877985">
<ele>114.196</ele>
<time>2017-10-25T03:43:10.164Z</time>
</trkpt>
<trkpt lat="-26.6372795" lon="152.6879380">
<ele>114.396</ele>
<time>2017-10-25T03:43:12.183Z</time>
</trkpt>
<trkpt lat="-26.6376946" lon="152.6879771">
<ele>115.206</ele>
<time>2017-10-25T03:43:14.289Z</time>
</trkpt>
<trkpt lat="-26.6380993" lon="152.6878544">
<ele>116.326</ele>
<time>2017-10-25T03:43:16.390Z</time>
</trkpt>
<trkpt lat="-26.6384258" lon="152.6876054">
<ele>117.147</ele>
<time>2017-10-25T03:43:18.332Z</time>
</trkpt>
<trkpt lat="-26.6387149" lon="152.6872767">
<ele>117.407</ele>
<time>2017-10-25T03:43:20.323Z</time>
</trkpt>
<trkpt lat="-26.6389196" lon="152.6868988">
<ele>117.166</ele>
<time>2017-10-25T03:43:22.206Z</time>
</trkpt>
<trkpt lat="-26.6391391" lon="152.6864999">
<ele>116.660</ele>
<time>2017-10-25T03:43:24.176Z</time>
</trkpt>
<trkpt lat="-26.6393488" lon="152.6861090">
<ele>116.156</ele>
<time>2017-10-25T03:43:26.059Z</time>
</trkpt>
<trkpt lat="-26.6395829" lon="152.6856587">
<ele>115.739</ele>
<time>2017-10-25T03:43:28.167Z</time>
</trkpt>
<trkpt lat="-26.6398837" lon="152.6853143">
<ele>115.230</ele>
<time>2017-10-25T03:43:30.081Z</time>
</trkpt>
<trkpt lat="-26.6402547" lon="152.6850064">
<ele>114.465</ele>
<time>2017-10-25T03:43:32.130Z</time>
</trkpt>
<trkpt lat="-26.6406442" lon="152.6847395">
<ele>113.563</ele>
<time>2017-10-25T03:43:34.184Z</time>
</trkpt>
<trkpt lat="-26.6409963" lon="152.6844715">
<ele>112.768</ele>
<time>2017-10-25T03:43:36.100Z</time>
</trkpt>
<trkpt lat="-26.6413570" lon="152.6841993">
<ele>112.248</ele>
<time>2017-10-25T03:43:38.029Z</time>
</trkpt>
<trkpt lat="-26.6417275" lon="152.6839353">
<ele>112.145</ele>
<time>2017-10-25T03:43:39.973Z</time>
</trkpt>
<trkpt lat="-26.6420950" lon="152.6836548">
<ele>112.484</ele>
<time>2017-10-25T03:43:41.984Z</time>
</trkpt>
<trkpt lat="-26.6424364" lon="152.6833879">
<ele>113.189</ele>
<time>2017-10-25T03:43:43.922Z</time>
</trkpt>
<trkpt lat="-26.6427791" lon="152.6831199">
<ele>114.262</ele>
<time>2017-10-25T03:43:45.930Z</time>
</trkpt>
<trkpt lat="-26.6431403" lon="152.6828843">
<ele>115.645</ele>
<time>2017-10-25T03:43:47.987Z</time>
</trkpt>
<trkpt lat="-26.6435209" lon="152.6827907">
<ele>117.008</ele>
<time>2017-10-25T03:43:49.893Z</time>
</trkpt>
<trkpt lat="-26.6439137" lon="152.6827946">
<ele>117.970</ele>
<time>2017-10-25T03:43:51.779Z</time>
</trkpt>
<trkpt lat="-26.6443475" lon="152.6828609">
<ele>118.401</ele>
<time>2017-10-25T03:43:53.858Z</time>
</trkpt>
<trkpt lat="-26.6447563" lon="152.6829600">
<ele>118.386</ele>
<time>2017-10-25T03:43:55.836Z</time>
</trkpt>
<trkpt lat="-26.6451651" lon="152.6830567">
<ele>118.061</ele>
<time>2017-10-25T03:43:57.801Z</time>
</trkpt>
<trkpt lat="-26.6455811" lon="152.6831417">
<ele>117.484</ele>
<time>2017-10-25T03:43:59.770Z</time>
</trkpt>
<trkpt lat="-26.6459942" lon="152.6832613">
<ele>116.556</ele>
<time>2017-10-25T03:44:01.742Z</time>
</trkpt>
<trkpt lat="-26.6464288" lon="152.6834280">
<ele>115.172</ele>
<time>2017-10-25T03:44:03.874Z</time>
</trkpt>
<trkpt lat="-26.6468453" lon="152.6835496">
<ele>113.660</ele>
<time>2017-10-25T03:44:05.910Z</time>
</trkpt>
<trkpt lat="-26.6472417" lon="152.6836268">
<ele>112.583</ele>
<time>2017-10-25T03:44:07.850Z</time>
</trkpt>
<trkpt lat="-26.6476312" lon="152.6836844">
<ele>112.104</ele>
<time>2017-10-25T03:44:09.762Z</time>
</trkpt>
<trkpt lat="-26.6480252" lon="152.6837071">
<ele>111.997</ele>
<time>2017-10-25T03:44:11.690Z</time>
</trkpt>
<trkpt lat="-26.6484475" lon="152.6836983">
<ele>112.039</ele>
<time>2017-10-25T03:44:13.770Z</time>
</trkpt>
<trkpt lat="-26.6488527" lon="152.6836417">
<ele>112.121</ele>
<time>2017-10-25T03:44:15.769Z</time>
</trkpt>
<trkpt lat="-26.6492554" lon="152.6835551">
<ele>112.294</ele>
<time>2017-10-25T03:44:17.720Z</time>
</trkpt>
<trkpt lat="-26.6496945" lon="152.6834133">
<ele>112.660</ele>
<time>2017-10-25T03:44:19.841Z</time>
</trkpt>
<trkpt lat="-26.6500945" lon="152.6832719">
<ele>113.123</ele>
<time>2017-10-25T03:44:21.786Z</time>
</trkpt>
<trkpt lat="-26.6504845" lon="152.6830899">
<ele>113.286</ele>
<time>2017-10-25T03:44:23.751Z</time>
</trkpt>
<trkpt lat="-26.6508778" lon="152.6828458">
<ele>112.847</ele>
<time>2017-10-25T03:44:25.844Z</time>
</trkpt>
<trkpt lat="-26.6512379" lon="152.6825993">
<ele>112.055</ele>
<time>2017-10-25T03:44:27.827Z</time>
</trkpt>
<trkpt lat="-26.6516044" lon="152.6823706">
<ele>111.400</ele>
<time>2017-10-25T03:44:29.835Z</time>
</trkpt>
<trkpt lat="-26.6519349" lon="152.6821199">
<ele>111.060</ele>
<time>2017-10-25T03:44:31.769Z</time>
</trkpt>
<trkpt lat="-26.6522511" lon="152.6818316">
<ele>111.093</ele>
<time>2017-10-25T03:44:33.762Z</time>
</trkpt>
<trkpt lat="-26.6525566" lon="152.6815406">
<ele>111.535</ele>
<time>2017-10-25T03:44:35.747Z</time>
</trkpt>
<trkpt lat="-26.6528428" lon="152.6812370">
<ele>112.211</ele>
<time>2017-10-25T03:44:37.721Z</time>
</trkpt>
<trkpt lat="-26.6531350" lon="152.6809507">
<ele>112.893</ele>
<time>2017-10-25T03:44:39.701Z</time>
</trkpt>
<trkpt lat="-26.6534477" lon="152.6807217">
<ele>113.421</ele>
<time>2017-10-25T03:44:41.643Z</time>
</trkpt>
<trkpt lat="-26.6538143" lon="152.6805735">
<ele>113.603</ele>
<time>2017-10-25T03:44:43.688Z</time>
</trkpt>
<trkpt lat="-26.6541781" lon="152.6804135">
<ele>113.432</ele>
<time>2017-10-25T03:44:45.717Z</time>
</trkpt>
<trkpt lat="-26.6545359" lon="152.6802932">
<ele>113.241</ele>
<time>2017-10-25T03:44:47.573Z</time>
</trkpt>
<trkpt lat="-26.6549533" lon="152.6802672">
<ele>113.383</ele>
<time>2017-10-25T03:44:49.540Z</time>
</trkpt>
<trkpt lat="-26.6553983" lon="152.6802836">
<ele>113.802</ele>
<time>2017-10-25T03:44:51.564Z</time>
</trkpt>
<trkpt lat="-26.6558450" lon="152.6803376">
<ele>114.150</ele>
<time>2017-10-25T03:44:53.571Z</time>
</trkpt>
<trkpt lat="-26.6563127" lon="152.6803406">
<ele>114.160</ele>
<time>2017-10-25T03:44:55.643Z</time>
</trkpt>
<trkpt lat="-26.6567457" lon="152.6804471">
<ele>113.774</ele>
<time>2017-10-25T03:44:57.610Z</time>
</trkpt>
<trkpt lat="-26.6572065" lon="152.6804703">
<ele>113.031</ele>
<time>2017-10-25T03:44:59.677Z</time>
</trkpt>
<trkpt lat="-26.6576399" lon="152.6805175">
<ele>112.053</ele>
<time>2017-10-25T03:45:01.648Z</time>
</trkpt>
<trkpt lat="-26.6580805" lon="152.6805485">
<ele>111.131</ele>
<time>2017-10-25T03:45:03.654Z</time>
</trkpt>
<trkpt lat="-26.6585204" lon="152.6805621">
<ele>110.542</ele>
<time>2017-10-25T03:45:05.656Z</time>
</trkpt>
<trkpt lat="-26.6589702" lon="152.6805913">
<ele>110.298</ele>
<time>2017-10-25T03:45:07.708Z</time>
</trkpt>
<trkpt lat="-26.6593811" lon="152.6806817">
<ele>110.253</ele>
<time>2017-10-25T03:45:09.604Z</time>
</trkpt>
<trkpt lat="-26.6598162" lon="152.6806877">
<ele>110.305</ele>
<time>2017-10-25T03:45:11.562Z</time>
</trkpt>
<trkpt lat="-26.6604665" lon="152.6807572">
<ele>110.385</ele>
<time>2017-10-25T03:45:14.535Z</time>
</trkpt>
<trkpt lat="-26.6608805" lon="152.6808206">
<ele>110.303</ele>
<time>2017-10-25T03:45:16.475Z</time>
</trkpt>
<trkpt lat="-26.6613039" lon="152.6808697">
<ele>109.901</ele>
<time>2017-10-25T03:45:18.471Z</time>
</trkpt>
<trkpt lat="-26.6616822" lon="152.6810739">
<ele>109.384</ele>
<time>2017-10-25T03:45:20.441Z</time>
</trkpt>
<trkpt lat="-26.6620602" lon="152.6813253">
<ele>109.092</ele>
<time>2017-10-25T03:45:22.498Z</time>
</trkpt>
<trkpt lat="-26.6624501" lon="152.6815510">
<ele>109.086</ele>
<time>2017-10-25T03:45:24.565Z</time>
</trkpt>
<trkpt lat="-26.6628329" lon="152.6817507">
<ele>109.176</ele>
<time>2017-10-25T03:45:26.554Z</time>
</trkpt>
<trkpt lat="-26.6632432" lon="152.6818299">
<ele>109.203</ele>
<time>2017-10-25T03:45:28.464Z</time>
</trkpt>
<trkpt lat="-26.6636876" lon="152.6818490">
<ele>109.182</ele>
<time>2017-10-25T03:45:30.410Z</time>
</trkpt>
<trkpt lat="-26.6641565" lon="152.6818791">
<ele>109.216</ele>
<time>2017-10-25T03:45:32.394Z</time>
</trkpt>
<trkpt lat="-26.6646323" lon="152.6819120">
<ele>109.405</ele>
<time>2017-10-25T03:45:34.391Z</time>
</trkpt>
<trkpt lat="-26.6650948" lon="152.6819532">
<ele>109.912</ele>
<time>2017-10-25T03:45:36.352Z</time>
</trkpt>
<trkpt lat="-26.6655567" lon="152.6819593">
<ele>110.874</ele>
<time>2017-10-25T03:45:38.350Z</time>
</trkpt>
<trkpt lat="-26.6660070" lon="152.6819498">
<ele>112.169</ele>
<time>2017-10-25T03:45:40.351Z</time>
</trkpt>
<trkpt lat="-26.6664194" lon="152.6819790">
<ele>113.369</ele>
<time>2017-10-25T03:45:42.203Z</time>
</trkpt>
<trkpt lat="-26.6668628" lon="152.6819946">
<ele>113.947</ele>
<time>2017-10-25T03:45:44.156Z</time>
</trkpt>
<trkpt lat="-26.6673186" lon="152.6820964">
<ele>113.705</ele>
<time>2017-10-25T03:45:46.170Z</time>
</trkpt>
<trkpt lat="-26.6677965" lon="152.6821010">
<ele>112.979</ele>
<time>2017-10-25T03:45:48.257Z</time>
</trkpt>
<trkpt lat="-26.6682363" lon="152.6821423">
<ele>112.230</ele>
<time>2017-10-25T03:45:50.212Z</time>
</trkpt>
<trkpt lat="-26.6686827" lon="152.6821789">
<ele>111.729</ele>
<time>2017-10-25T03:45:52.208Z</time>
</trkpt>
<trkpt lat="-26.6691246" lon="152.6822006">
<ele>111.596</ele>
<time>2017-10-25T03:45:54.155Z</time>
</trkpt>
<trkpt lat="-26.6695898" lon="152.6822048">
<ele>111.821</ele>
<time>2017-10-25T03:45:56.121Z</time>
</trkpt>
<trkpt lat="-26.6700779" lon="152.6822583">
<ele>112.191</ele>
<time>2017-10-25T03:45:58.130Z</time>
</trkpt>
<trkpt lat="-26.6705705" lon="152.6823171">
<ele>112.464</ele>
<time>2017-10-25T03:46:00.172Z</time>
</trkpt>
<trkpt lat="-26.6710378" lon="152.6823326">
<ele>112.678</ele>
<time>2017-10-25T03:46:02.142Z</time>
</trkpt>
<trkpt lat="-26.6714973" lon="152.6823537">
<ele>112.944</ele>
<time>2017-10-25T03:46:04.094Z</time>
</trkpt>
<trkpt lat="-26.6719649" lon="152.6824008">
<ele>113.146</ele>
<time>2017-10-25T03:46:06.055Z</time>
</trkpt>
<trkpt lat="-26.6724467" lon="152.6824520">
<ele>113.164</ele>
<time>2017-10-25T03:46:08.049Z</time>
</trkpt>
<trkpt lat="-26.6729349" lon="152.6824141">
<ele>113.153</ele>
<time>2017-10-25T03:46:10.079Z</time>
</trkpt>
<trkpt lat="-26.6734032" lon="152.6823650">
<ele>113.260</ele>
<time>2017-10-25T03:46:12.050Z</time>
</trkpt>
<trkpt lat="-26.6738785" lon="152.6822859">
<ele>113.309</ele>
<time>2017-10-25T03:46:14.102Z</time>
</trkpt>
<trkpt lat="-26.6743335" lon="152.6822066">
<ele>112.996</ele>
<time>2017-10-25T03:46:16.132Z</time>
</trkpt>
<trkpt lat="-26.6747562" lon="152.6820788">
<ele>112.395</ele>
<time>2017-10-25T03:46:18.114Z</time>
</trkpt>
<trkpt lat="-26.6751650" lon="152.6819666">
<ele>112.028</ele>
<time>2017-10-25T03:46:20.025Z</time>
</trkpt>
<trkpt lat="-26.6755928" lon="152.6818630">
<ele>112.301</ele>
<time>2017-10-25T03:46:21.976Z</time>
</trkpt>
<trkpt lat="-26.6760396" lon="152.6817676">
<ele>113.215</ele>
<time>2017-10-25T03:46:23.989Z</time>
</trkpt>
<trkpt lat="-26.6764715" lon="152.6816635">
<ele>114.654</ele>
<time>2017-10-25T03:46:25.974Z</time>
</trkpt>
<trkpt lat="-26.6769008" lon="152.6815491">
<ele>116.428</ele>
<time>2017-10-25T03:46:27.999Z</time>
</trkpt>
<trkpt lat="-26.6773192" lon="152.6815055">
<ele>118.019</ele>
<time>2017-10-25T03:46:29.900Z</time>
</trkpt>
<trkpt lat="-26.6777596" lon="152.6813492">
<ele>118.917</ele>
<time>2017-10-25T03:46:31.910Z</time>
</trkpt>
<trkpt lat="-26.6782437" lon="152.6813069">
<ele>119.051</ele>
<time>2017-10-25T03:46:33.944Z</time>
</trkpt>
<trkpt lat="-26.6787317" lon="152.6813382">
<ele>118.530</ele>
<time>2017-10-25T03:46:35.927Z</time>
</trkpt>
<trkpt lat="-26.6792292" lon="152.6814615">
<ele>117.426</ele>
<time>2017-10-25T03:46:37.967Z</time>
</trkpt>
<trkpt lat="-26.6797110" lon="152.6815629">
<ele>116.032</ele>
<time>2017-10-25T03:46:39.943Z</time>
</trkpt>
<trkpt lat="-26.6801699" lon="152.6816807">
<ele>114.742</ele>
<time>2017-10-25T03:46:41.906Z</time>
</trkpt>
<trkpt lat="-26.6806161" lon="152.6817483">
<ele>113.668</ele>
<time>2017-10-25T03:46:43.865Z</time>
</trkpt>
<trkpt lat="-26.6810513" lon="152.6818372">
<ele>112.674</ele>
<time>2017-10-25T03:46:45.865Z</time>
</trkpt>
<trkpt lat="-26.6814836" lon="152.6818559">
<ele>111.595</ele>
<time>2017-10-25T03:46:47.871Z</time>
</trkpt>
<trkpt lat="-26.6819270" lon="152.6817326">
<ele>110.518</ele>
<time>2017-10-25T03:46:49.965Z</time>
</trkpt>
<trkpt lat="-26.6822977" lon="152.6815003">
<ele>109.779</ele>
<time>2017-10-25T03:46:51.869Z</time>
</trkpt>
<trkpt lat="-26.6826747" lon="152.6812235">
<ele>109.670</ele>
<time>2017-10-25T03:46:53.825Z</time>
</trkpt>
<trkpt lat="-26.6830951" lon="152.6809368">
<ele>110.269</ele>
<time>2017-10-25T03:46:55.886Z</time>
</trkpt>
<trkpt lat="-26.6835400" lon="152.6807077">
<ele>111.255</ele>
<time>2017-10-25T03:46:57.949Z</time>
</trkpt>
<trkpt lat="-26.6839377" lon="152.6804877">
<ele>112.056</ele>
<time>2017-10-25T03:46:59.903Z</time>
</trkpt>
<trkpt lat="-26.6843087" lon="152.6802736">
<ele>112.447</ele>
<time>2017-10-25T03:47:01.831Z</time>
</trkpt>
<trkpt lat="-26.6846699" lon="152.6800929">
<ele>112.601</ele>
<time>2017-10-25T03:47:03.737Z</time>
</trkpt>
<trkpt lat="-26.6850172" lon="152.6798893">
<ele>112.830</ele>
<time>2017-10-25T03:47:05.715Z</time>
</trkpt>
<trkpt lat="-26.6853124" lon="152.6796393">
<ele>113.372</ele>
<time>2017-10-25T03:47:07.670Z</time>
</trkpt>
<trkpt lat="-26.6855971" lon="152.6793397">
<ele>114.289</ele>
<time>2017-10-25T03:47:09.776Z</time>
</trkpt>
<trkpt lat="-26.6857987" lon="152.6789676">
<ele>115.377</ele>
<time>2017-10-25T03:47:11.902Z</time>
</trkpt>
<trkpt lat="-26.6859826" lon="152.6786419">
<ele>116.219</ele>
<time>2017-10-25T03:47:13.881Z</time>
</trkpt>
<trkpt lat="-26.6862797" lon="152.6784779">
<ele>116.430</ele>
<time>2017-10-25T03:47:15.891Z</time>
</trkpt>
<trkpt lat="-26.6866068" lon="152.6784025">
<ele>115.897</ele>
<time>2017-10-25T03:47:18.066Z</time>
</trkpt>
<trkpt lat="-26.6869002" lon="152.6783949">
<ele>114.909</ele>
<time>2017-10-25T03:47:20.092Z</time>
</trkpt>
<trkpt lat="-26.6871680" lon="152.6785701">
<ele>114.021</ele>
<time>2017-10-25T03:47:22.045Z</time>
</trkpt>
<trkpt lat="-26.6874252" lon="152.6788630">
<ele>113.825</ele>
<time>2017-10-25T03:47:24.044Z</time>
</trkpt>
<trkpt lat="-26.6877256" lon="152.6791748">
<ele>114.717</ele>
<time>2017-10-25T03:47:26.140Z</time>
</trkpt>
<trkpt lat="-26.6880078" lon="152.6794794">
<ele>116.483</ele>
<time>2017-10-25T03:47:28.139Z</time>
</trkpt>
<trkpt lat="-26.6882848" lon="152.6797866">
<ele>118.393</ele>
<time>2017-10-25T03:47:30.135Z</time>
</trkpt>
<trkpt lat="-26.6886175" lon="152.6799782">
<ele>119.819</ele>
<time>2017-10-25T03:47:31.972Z</time>
</trkpt>
<trkpt lat="-26.6890242" lon="152.6801464">
<ele>120.625</ele>
<time>2017-10-25T03:47:33.993Z</time>
</trkpt>
<trkpt lat="-26.6894383" lon="152.6803055">
<ele>121.028</ele>
<time>2017-10-25T03:47:36.058Z</time>
</trkpt>
<trkpt lat="-26.6898036" lon="152.6804952">
<ele>121.310</ele>
<time>2017-10-25T03:47:38.046Z</time>
</trkpt>
<trkpt lat="-26.6901725" lon="152.6806047">
<ele>121.863</ele>
<time>2017-10-25T03:47:40.010Z</time>
</trkpt>
<trkpt lat="-26.6905458" lon="152.6806734">
<ele>122.953</ele>
<time>2017-10-25T03:47:41.952Z</time>
</trkpt>
<trkpt lat="-26.6909483" lon="152.6806647">
<ele>124.206</ele>
<time>2017-10-25T03:47:43.973Z</time>
</trkpt>
<trkpt lat="-26.6913556" lon="152.6805843">
<ele>125.008</ele>
<time>2017-10-25T03:47:46.070Z</time>
</trkpt>
<trkpt lat="-26.6917362" lon="152.6805315">
<ele>125.104</ele>
<time>2017-10-25T03:47:48.075Z</time>
</trkpt>
<trkpt lat="-26.6921049" lon="152.6805203">
<ele>124.532</ele>
<time>2017-10-25T03:47:50.036Z</time>
</trkpt>
<trkpt lat="-26.6924644" lon="152.6804804">
<ele>123.460</ele>
<time>2017-10-25T03:47:51.952Z</time>
</trkpt>
<trkpt lat="-26.6928435" lon="152.6804634">
<ele>122.191</ele>
<time>2017-10-25T03:47:53.946Z</time>
</trkpt>
<trkpt lat="-26.6932504" lon="152.6804378">
<ele>121.034</ele>
<time>2017-10-25T03:47:56.058Z</time>
</trkpt>
<trkpt lat="-26.6936410" lon="152.6804272">
<ele>120.238</ele>
<time>2017-10-25T03:47:57.992Z</time>
</trkpt>
<trkpt lat="-26.6940637" lon="152.6805128">
<ele>119.893</ele>
<time>2017-10-25T03:47:59.996Z</time>
</trkpt>
<trkpt lat="-26.6944815" lon="152.6806523">
<ele>119.881</ele>
<time>2017-10-25T03:48:01.951Z</time>
</trkpt>
<trkpt lat="-26.6949414" lon="152.6806865">
<ele>120.057</ele>
<time>2017-10-25T03:48:03.956Z</time>
</trkpt>
<trkpt lat="-26.6953937" lon="152.6808101">
<ele>120.312</ele>
<time>2017-10-25T03:48:05.928Z</time>
</trkpt>
<trkpt lat="-26.6958537" lon="152.6809390">
<ele>120.512</ele>
<time>2017-10-25T03:48:07.917Z</time>
</trkpt>
<trkpt lat="-26.6962989" lon="152.6810445">
<ele>120.602</ele>
<time>2017-10-25T03:48:09.882Z</time>
</trkpt>
<trkpt lat="-26.6967184" lon="152.6811497">
<ele>120.627</ele>
<time>2017-10-25T03:48:11.814Z</time>
</trkpt>
<trkpt lat="-26.6971245" lon="152.6812635">
<ele>120.611</ele>
<time>2017-10-25T03:48:13.768Z</time>
</trkpt>
<trkpt lat="-26.6975144" lon="152.6813472">
<ele>120.561</ele>
<time>2017-10-25T03:48:15.672Z</time>
</trkpt>
<trkpt lat="-26.6979319" lon="152.6814367">
<ele>120.569</ele>
<time>2017-10-25T03:48:17.691Z</time>
</trkpt>
<trkpt lat="-26.6983636" lon="152.6815221">
<ele>120.764</ele>
<time>2017-10-25T03:48:19.711Z</time>
</trkpt>
<trkpt lat="-26.6988025" lon="152.6816455">
<ele>121.094</ele>
<time>2017-10-25T03:48:21.719Z</time>
</trkpt>
<trkpt lat="-26.6992467" lon="152.6817926">
<ele>121.370</ele>
<time>2017-10-25T03:48:23.720Z</time>
</trkpt>
<trkpt lat="-26.6996825" lon="152.6819327">
<ele>121.496</ele>
<time>2017-10-25T03:48:25.655Z</time>
</trkpt>
<trkpt lat="-26.7000919" lon="152.6821893">
<ele>121.513</ele>
<time>2017-10-25T03:48:27.659Z</time>
</trkpt>
<trkpt lat="-26.7004836" lon="152.6824559">
<ele>121.602</ele>
<time>2017-10-25T03:48:29.690Z</time>
</trkpt>
<trkpt lat="-26.7008192" lon="152.6827304">
<ele>121.922</ele>
<time>2017-10-25T03:48:31.651Z</time>
</trkpt>
<trkpt lat="-26.7011748" lon="152.6829323">
<ele>122.568</ele>
<time>2017-10-25T03:48:33.604Z</time>
</trkpt>
<trkpt lat="-26.7015106" lon="152.6831528">
<ele>123.642</ele>
<time>2017-10-25T03:48:35.510Z</time>
</trkpt>
<trkpt lat="-26.7018864" lon="152.6833684">
<ele>125.067</ele>
<time>2017-10-25T03:48:37.541Z</time>
</trkpt>
<trkpt lat="-26.7022677" lon="152.6835910">
<ele>126.403</ele>
<time>2017-10-25T03:48:39.596Z</time>
</trkpt>
<trkpt lat="-26.7026037" lon="152.6838231">
<ele>127.201</ele>
<time>2017-10-25T03:48:41.522Z</time>
</trkpt>
<trkpt lat="-26.7029625" lon="152.6840279">
<ele>127.335</ele>
<time>2017-10-25T03:48:43.555Z</time>
</trkpt>
<trkpt lat="-26.7032645" lon="152.6842580">
<ele>126.927</ele>
<time>2017-10-25T03:48:45.502Z</time>
</trkpt>
<trkpt lat="-26.7035369" lon="152.6844709">
<ele>126.177</ele>
<time>2017-10-25T03:48:47.427Z</time>
</trkpt>
<trkpt lat="-26.7037299" lon="152.6847112">
<ele>125.262</ele>
<time>2017-10-25T03:48:49.200Z</time>
</trkpt>
<trkpt lat="-26.7038569" lon="152.6850458">
<ele>124.185</ele>
<time>2017-10-25T03:48:51.163Z</time>
</trkpt>
<trkpt lat="-26.7039833" lon="152.6854449">
<ele>122.866</ele>
<time>2017-10-25T03:48:53.280Z</time>
</trkpt>
<trkpt lat="-26.7041091" lon="152.6858747">
<ele>121.218</ele>
<time>2017-10-25T03:48:55.362Z</time>
</trkpt>
<trkpt lat="-26.7042390" lon="152.6863161">
<ele>119.275</ele>
<time>2017-10-25T03:48:57.358Z</time>
</trkpt>
<trkpt lat="-26.7043861" lon="152.6867764">
<ele>117.428</ele>
<time>2017-10-25T03:48:59.327Z</time>
</trkpt>
<trkpt lat="-26.7045566" lon="152.6872697">
<ele>116.198</ele>
<time>2017-10-25T03:49:01.344Z</time>
</trkpt>
<trkpt lat="-26.7047209" lon="152.6877836">
<ele>115.736</ele>
<time>2017-10-25T03:49:03.359Z</time>
</trkpt>
<trkpt lat="-26.7048844" lon="152.6883065">
<ele>115.873</ele>
<time>2017-10-25T03:49:05.419Z</time>
</trkpt>
<trkpt lat="-26.7050499" lon="152.6887937">
<ele>116.378</ele>
<time>2017-10-25T03:49:07.428Z</time>
</trkpt>
<trkpt lat="-26.7051965" lon="152.6892407">
<ele>117.163</ele>
<time>2017-10-25T03:49:09.356Z</time>
</trkpt>
<trkpt lat="-26.7053224" lon="152.6896429">
<ele>118.496</ele>
<time>2017-10-25T03:49:11.182Z</time>
</trkpt>
<trkpt lat="-26.7054871" lon="152.6900298">
<ele>120.752</ele>
<time>2017-10-25T03:49:13.073Z</time>
</trkpt>
<trkpt lat="-26.7057556" lon="152.6903821">
<ele>123.794</ele>
<time>2017-10-25T03:49:15.084Z</time>
</trkpt>
<trkpt lat="-26.7060673" lon="152.6907273">
<ele>126.945</ele>
<time>2017-10-25T03:49:17.158Z</time>
</trkpt>
<trkpt lat="-26.7064189" lon="152.6909937">
<ele>129.577</ele>
<time>2017-10-25T03:49:19.169Z</time>
</trkpt>
<trkpt lat="-26.7068090" lon="152.6912029">
<ele>131.541</ele>
<time>2017-10-25T03:49:21.220Z</time>
</trkpt>
<trkpt lat="-26.7072050" lon="152.6913693">
<ele>132.977</ele>
<time>2017-10-25T03:49:23.211Z</time>
</trkpt>
<trkpt lat="-26.7075751" lon="152.6915594">
<ele>134.020</ele>
<time>2017-10-25T03:49:25.177Z</time>
</trkpt>
<trkpt lat="-26.7079100" lon="152.6917436">
<ele>134.745</ele>
<time>2017-10-25T03:49:27.139Z</time>
</trkpt>
<trkpt lat="-26.7081491" lon="152.6919499">
<ele>135.341</ele>
<time>2017-10-25T03:49:28.866Z</time>
</trkpt>
<trkpt lat="-26.7083473" lon="152.6922738">
<ele>135.923</ele>
<time>2017-10-25T03:49:30.935Z</time>
</trkpt>
<trkpt lat="-26.7083665" lon="152.6927199">
<ele>136.406</ele>
<time>2017-10-25T03:49:33.138Z</time>
</trkpt>
<trkpt lat="-26.7082518" lon="152.6931998">
<ele>136.843</ele>
<time>2017-10-25T03:49:35.271Z</time>
</trkpt>
<trkpt lat="-26.7080870" lon="152.6937558">
<ele>137.398</ele>
<time>2017-10-25T03:49:37.544Z</time>
</trkpt>
<trkpt lat="-26.7079688" lon="152.6942840">
<ele>137.967</ele>
<time>2017-10-25T03:49:39.615Z</time>
</trkpt>
<trkpt lat="-26.7078903" lon="152.6947846">
<ele>138.326</ele>
<time>2017-10-25T03:49:41.612Z</time>
</trkpt>
<trkpt lat="-26.7077820" lon="152.6952262">
<ele>138.182</ele>
<time>2017-10-25T03:49:43.525Z</time>
</trkpt>
<trkpt lat="-26.7076825" lon="152.6956436">
<ele>137.412</ele>
<time>2017-10-25T03:49:45.451Z</time>
</trkpt>
<trkpt lat="-26.7076424" lon="152.6960499">
<ele>136.278</ele>
<time>2017-10-25T03:49:47.383Z</time>
</trkpt>
<trkpt lat="-26.7077716" lon="152.6964433">
<ele>134.923</ele>
<time>2017-10-25T03:49:49.417Z</time>
</trkpt>
<trkpt lat="-26.7079647" lon="152.6967870">
<ele>133.342</ele>
<time>2017-10-25T03:49:51.295Z</time>
</trkpt>
<trkpt lat="-26.7084547" lon="152.6972521">
<ele>131.901</ele>
<time>2017-10-25T03:49:54.337Z</time>
</trkpt>
<trkpt lat="-26.7088636" lon="152.6975748">
<ele>130.882</ele>
<time>2017-10-25T03:49:56.376Z</time>
</trkpt>
<trkpt lat="-26.7093070" lon="152.6979362">
<ele>130.154</ele>
<time>2017-10-25T03:49:58.433Z</time>
</trkpt>
<trkpt lat="-26.7097612" lon="152.6983266">
<ele>129.573</ele>
<time>2017-10-25T03:50:00.459Z</time>
</trkpt>
<trkpt lat="-26.7102331" lon="152.6987058">
<ele>129.115</ele>
<time>2017-10-25T03:50:02.502Z</time>
</trkpt>
<trkpt lat="-26.7108581" lon="152.6992421">
<ele>128.740</ele>
<time>2017-10-25T03:50:05.347Z</time>
</trkpt>
<trkpt lat="-26.7112587" lon="152.6995647">
<ele>128.304</ele>
<time>2017-10-25T03:50:07.228Z</time>
</trkpt>
<trkpt lat="-26.7116596" lon="152.6998936">
<ele>127.668</ele>
<time>2017-10-25T03:50:09.172Z</time>
</trkpt>
<trkpt lat="-26.7120683" lon="152.7002103">
<ele>126.947</ele>
<time>2017-10-25T03:50:11.142Z</time>
</trkpt>
<trkpt lat="-26.7124622" lon="152.7005771">
<ele>126.411</ele>
<time>2017-10-25T03:50:13.170Z</time>
</trkpt>
<trkpt lat="-26.7128960" lon="152.7008598">
<ele>126.222</ele>
<time>2017-10-25T03:50:15.127Z</time>
</trkpt>
<trkpt lat="-26.7133078" lon="152.7012391">
<ele>126.332</ele>
<time>2017-10-25T03:50:17.170Z</time>
</trkpt>
<trkpt lat="-26.7137273" lon="152.7016029">
<ele>126.417</ele>
<time>2017-10-25T03:50:19.183Z</time>
</trkpt>
<trkpt lat="-26.7141404" lon="152.7019506">
<ele>126.220</ele>
<time>2017-10-25T03:50:21.147Z</time>
</trkpt>
<trkpt lat="-26.7145573" lon="152.7022851">
<ele>125.780</ele>
<time>2017-10-25T03:50:23.102Z</time>
</trkpt>
<trkpt lat="-26.7150270" lon="152.7025607">
<ele>125.295</ele>
<time>2017-10-25T03:50:25.103Z</time>
</trkpt>
<trkpt lat="-26.7154928" lon="152.7028835">
<ele>124.916</ele>
<time>2017-10-25T03:50:27.131Z</time>
</trkpt>
<trkpt lat="-26.7159380" lon="152.7032265">
<ele>124.665</ele>
<time>2017-10-25T03:50:29.123Z</time>
</trkpt>
<trkpt lat="-26.7163781" lon="152.7035390">
<ele>124.502</ele>
<time>2017-10-25T03:50:31.054Z</time>
</trkpt>
<trkpt lat="-26.7168225" lon="152.7038853">
<ele>124.429</ele>
<time>2017-10-25T03:50:33.055Z</time>
</trkpt>
<trkpt lat="-26.7172839" lon="152.7042136">
<ele>124.471</ele>
<time>2017-10-25T03:50:35.050Z</time>
</trkpt>
<trkpt lat="-26.7177279" lon="152.7045848">
<ele>124.750</ele>
<time>2017-10-25T03:50:37.056Z</time>
</trkpt>
<trkpt lat="-26.7181149" lon="152.7050200">
<ele>125.254</ele>
<time>2017-10-25T03:50:39.046Z</time>
</trkpt>
<trkpt lat="-26.7184695" lon="152.7054843">
<ele>125.701</ele>
<time>2017-10-25T03:50:41.031Z</time>
</trkpt>
<trkpt lat="-26.7188638" lon="152.7058955">
<ele>125.903</ele>
<time>2017-10-25T03:50:42.995Z</time>
</trkpt>
<trkpt lat="-26.7192983" lon="152.7062525">
<ele>126.056</ele>
<time>2017-10-25T03:50:44.988Z</time>
</trkpt>
<trkpt lat="-26.7197390" lon="152.7065418">
<ele>126.548</ele>
<time>2017-10-25T03:50:46.944Z</time>
</trkpt>
<trkpt lat="-26.7201687" lon="152.7067764">
<ele>127.516</ele>
<time>2017-10-25T03:50:48.851Z</time>
</trkpt>
<trkpt lat="-26.7205377" lon="152.7070643">
<ele>128.686</ele>
<time>2017-10-25T03:50:50.705Z</time>
</trkpt>
<trkpt lat="-26.7209361" lon="152.7073664">
<ele>129.771</ele>
<time>2017-10-25T03:50:52.699Z</time>
</trkpt>
<trkpt lat="-26.7213721" lon="152.7076537">
<ele>130.635</ele>
<time>2017-10-25T03:50:54.744Z</time>
</trkpt>
<trkpt lat="-26.7217660" lon="152.7079529">
<ele>131.208</ele>
<time>2017-10-25T03:50:56.684Z</time>
</trkpt>
<trkpt lat="-26.7220901" lon="152.7082174">
<ele>131.599</ele>
<time>2017-10-25T03:50:58.444Z</time>
</trkpt>
<trkpt lat="-26.7223983" lon="152.7084418">
<ele>132.149</ele>
<time>2017-10-25T03:51:00.232Z</time>
</trkpt>
<trkpt lat="-26.7227176" lon="152.7086578">
<ele>133.018</ele>
<time>2017-10-25T03:51:02.156Z</time>
</trkpt>
<trkpt lat="-26.7230134" lon="152.7088747">
<ele>133.912</ele>
<time>2017-10-25T03:51:04.027Z</time>
</trkpt>
<trkpt lat="-26.7233450" lon="152.7090485">
<ele>134.498</ele>
<time>2017-10-25T03:51:06.028Z</time>
</trkpt>
<trkpt lat="-26.7237385" lon="152.7089782">
<ele>134.785</ele>
<time>2017-10-25T03:51:08.244Z</time>
</trkpt>
<trkpt lat="-26.7241058" lon="152.7089253">
<ele>134.981</ele>
<time>2017-10-25T03:51:10.292Z</time>
</trkpt>
<trkpt lat="-26.7244530" lon="152.7090101">
<ele>135.362</ele>
<time>2017-10-25T03:51:12.270Z</time>
</trkpt>
<trkpt lat="-26.7247498" lon="152.7092629">
<ele>136.244</ele>
<time>2017-10-25T03:51:14.334Z</time>
</trkpt>
<trkpt lat="-26.7250018" lon="152.7095992">
<ele>137.987</ele>
<time>2017-10-25T03:51:16.397Z</time>
</trkpt>
<trkpt lat="-26.7252612" lon="152.7100349">
<ele>140.696</ele>
<time>2017-10-25T03:51:18.630Z</time>
</trkpt>
<trkpt lat="-26.7254893" lon="152.7104850">
<ele>143.641</ele>
<time>2017-10-25T03:51:20.690Z</time>
</trkpt>
<trkpt lat="-26.7257020" lon="152.7108642">
<ele>145.702</ele>
<time>2017-10-25T03:51:22.474Z</time>
</trkpt>
<trkpt lat="-26.7259458" lon="152.7112438">
<ele>146.492</ele>
<time>2017-10-25T03:51:24.399Z</time>
</trkpt>
<trkpt lat="-26.7261808" lon="152.7116101">
<ele>146.269</ele>
<time>2017-10-25T03:51:26.347Z</time>
</trkpt>
<trkpt lat="-26.7264608" lon="152.7117917">
<ele>145.132</ele>
<time>2017-10-25T03:51:28.019Z</time>
</trkpt>
<trkpt lat="-26.7267764" lon="152.7118912">
<ele>143.078</ele>
<time>2017-10-25T03:51:29.899Z</time>
</trkpt>
<trkpt lat="-26.7272035" lon="152.7120810">
<ele>140.408</ele>
<time>2017-10-25T03:51:32.793Z</time>
</trkpt>
<trkpt lat="-26.7274815" lon="152.7122407">
<ele>137.665</ele>
<time>2017-10-25T03:51:34.867Z</time>
</trkpt>
<trkpt lat="-26.7277456" lon="152.7123583">
<ele>135.491</ele>
<time>2017-10-25T03:51:36.782Z</time>
</trkpt>
<trkpt lat="-26.7280204" lon="152.7125032">
<ele>134.313</ele>
<time>2017-10-25T03:51:38.826Z</time>
</trkpt>
<trkpt lat="-26.7282609" lon="152.7126657">
<ele>133.990</ele>
<time>2017-10-25T03:51:40.728Z</time>
</trkpt>
<trkpt lat="-26.7284492" lon="152.7128717">
<ele>134.104</ele>
<time>2017-10-25T03:51:42.574Z</time>
</trkpt>
<trkpt lat="-26.7285297" lon="152.7131506">
<ele>134.410</ele>
<time>2017-10-25T03:51:44.501Z</time>
</trkpt>
<trkpt lat="-26.7285205" lon="152.7135192">
<ele>134.964</ele>
<time>2017-10-25T03:51:46.890Z</time>
</trkpt>
<trkpt lat="-26.7285582" lon="152.7138577">
<ele>135.891</ele>
<time>2017-10-25T03:51:48.943Z</time>
</trkpt>
<trkpt lat="-26.7285957" lon="152.7141920">
<ele>136.926</ele>
<time>2017-10-25T03:51:50.926Z</time>
</trkpt>
<trkpt lat="-26.7286196" lon="152.7145224">
<ele>137.583</ele>
<time>2017-10-25T03:51:52.883Z</time>
</trkpt>
<trkpt lat="-26.7286635" lon="152.7148520">
<ele>137.621</ele>
<time>2017-10-25T03:51:54.866Z</time>
</trkpt>
<trkpt lat="-26.7287761" lon="152.7151765">
<ele>137.103</ele>
<time>2017-10-25T03:51:56.940Z</time>
</trkpt>
<trkpt lat="-26.7288965" lon="152.7154860">
<ele>136.240</ele>
<time>2017-10-25T03:51:58.934Z</time>
</trkpt>
<trkpt lat="-26.7290017" lon="152.7157904">
<ele>135.289</ele>
<time>2017-10-25T03:52:00.855Z</time>
</trkpt>
<trkpt lat="-26.7290957" lon="152.7161056">
<ele>134.474</ele>
<time>2017-10-25T03:52:02.813Z</time>
</trkpt>
<trkpt lat="-26.7292012" lon="152.7164114">
<ele>133.927</ele>
<time>2017-10-25T03:52:04.746Z</time>
</trkpt>
<trkpt lat="-26.7293154" lon="152.7167191">
<ele>133.654</ele>
<time>2017-10-25T03:52:06.737Z</time>
</trkpt>
<trkpt lat="-26.7293510" lon="152.7170644">
<ele>133.686</ele>
<time>2017-10-25T03:52:08.844Z</time>
</trkpt>
<trkpt lat="-26.7293923" lon="152.7173727">
<ele>134.193</ele>
<time>2017-10-25T03:52:10.736Z</time>
</trkpt>
<trkpt lat="-26.7294313" lon="152.7176768">
<ele>135.235</ele>
<time>2017-10-25T03:52:12.618Z</time>
</trkpt>
<trkpt lat="-26.7294644" lon="152.7179894">
<ele>136.412</ele>
<time>2017-10-25T03:52:14.581Z</time>
</trkpt>
<trkpt lat="-26.7295257" lon="152.7182865">
<ele>137.329</ele>
<time>2017-10-25T03:52:16.493Z</time>
</trkpt>
<trkpt lat="-26.7295739" lon="152.7186115">
<ele>138.064</ele>
<time>2017-10-25T03:52:18.542Z</time>
</trkpt>
<trkpt lat="-26.7296298" lon="152.7189434">
<ele>138.914</ele>
<time>2017-10-25T03:52:20.620Z</time>
</trkpt>
<trkpt lat="-26.7297069" lon="152.7192661">
<ele>140.136</ele>
<time>2017-10-25T03:52:22.659Z</time>
</trkpt>
<trkpt lat="-26.7297922" lon="152.7195779">
<ele>141.716</ele>
<time>2017-10-25T03:52:24.638Z</time>
</trkpt>
<trkpt lat="-26.7298927" lon="152.7198843">
<ele>143.180</ele>
<time>2017-10-25T03:52:26.590Z</time>
</trkpt>
<trkpt lat="-26.7299743" lon="152.7201909">
<ele>144.100</ele>
<time>2017-10-25T03:52:28.473Z</time>
</trkpt>
<trkpt lat="-26.7300965" lon="152.7204855">
<ele>144.494</ele>
<time>2017-10-25T03:52:30.384Z</time>
</trkpt>
<trkpt lat="-26.7301784" lon="152.7207919">
<ele>144.456</ele>
<time>2017-10-25T03:52:32.286Z</time>
</trkpt>
<trkpt lat="-26.7302724" lon="152.7211003">
<ele>143.946</ele>
<time>2017-10-25T03:52:34.249Z</time>
</trkpt>
<trkpt lat="-26.7303631" lon="152.7214243">
<ele>142.982</ele>
<time>2017-10-25T03:52:36.318Z</time>
</trkpt>
<trkpt lat="-26.7303860" lon="152.7218259">
<ele>141.704</ele>
<time>2017-10-25T03:52:38.629Z</time>
</trkpt>
<trkpt lat="-26.7304554" lon="152.7222507">
<ele>140.374</ele>
<time>2017-10-25T03:52:40.801Z</time>
</trkpt>
<trkpt lat="-26.7305371" lon="152.7226984">
<ele>139.283</ele>
<time>2017-10-25T03:52:42.878Z</time>
</trkpt>
<trkpt lat="-26.7305782" lon="152.7231689">
<ele>138.465</ele>
<time>2017-10-25T03:52:44.901Z</time>
</trkpt>
<trkpt lat="-26.7306642" lon="152.7235687">
<ele>137.791</ele>
<time>2017-10-25T03:52:46.684Z</time>
</trkpt>
<trkpt lat="-26.7307126" lon="152.7239911">
<ele>137.172</ele>
<time>2017-10-25T03:52:48.615Z</time>
</trkpt>
<trkpt lat="-26.7307557" lon="152.7244254">
<ele>136.626</ele>
<time>2017-10-25T03:52:50.652Z</time>
</trkpt>
<trkpt lat="-26.7308119" lon="152.7248310">
<ele>136.266</ele>
<time>2017-10-25T03:52:52.581Z</time>
</trkpt>
<trkpt lat="-26.7308787" lon="152.7252720">
<ele>136.183</ele>
<time>2017-10-25T03:52:54.661Z</time>
</trkpt>
<trkpt lat="-26.7309159" lon="152.7257114">
<ele>136.334</ele>
<time>2017-10-25T03:52:56.665Z</time>
</trkpt>
<trkpt lat="-26.7310449" lon="152.7263395">
<ele>136.628</ele>
<time>2017-10-25T03:52:59.519Z</time>
</trkpt>
<trkpt lat="-26.7313195" lon="152.7269605">
<ele>137.009</ele>
<time>2017-10-25T03:53:02.542Z</time>
</trkpt>
<trkpt lat="-26.7317641" lon="152.7275292">
<ele>137.399</ele>
<time>2017-10-25T03:53:05.734Z</time>
</trkpt>
<trkpt lat="-26.7321550" lon="152.7281397">
<ele>137.534</ele>
<time>2017-10-25T03:53:08.795Z</time>
</trkpt>
<trkpt lat="-26.7325362" lon="152.7286786">
<ele>137.056</ele>
<time>2017-10-25T03:53:11.614Z</time>
</trkpt>
<trkpt lat="-26.7327662" lon="152.7290312">
<ele>136.009</ele>
<time>2017-10-25T03:53:13.449Z</time>
</trkpt>
<trkpt lat="-26.7331242" lon="152.7295499">
<ele>134.960</ele>
<time>2017-10-25T03:53:16.312Z</time>
</trkpt>
<trkpt lat="-26.7333221" lon="152.7298876">
<ele>134.386</ele>
<time>2017-10-25T03:53:18.135Z</time>
</trkpt>
<trkpt lat="-26.7337164" lon="152.7304044">
<ele>134.186</ele>
<time>2017-10-25T03:53:21.282Z</time>
</trkpt>
<trkpt lat="-26.7339591" lon="152.7307736">
<ele>133.971</ele>
<time>2017-10-25T03:53:23.377Z</time>
</trkpt>
<trkpt lat="-26.7341521" lon="152.7311114">
<ele>133.569</ele>
<time>2017-10-25T03:53:25.187Z</time>
</trkpt>
<trkpt lat="-26.7343450" lon="152.7314724">
<ele>133.063</ele>
<time>2017-10-25T03:53:27.102Z</time>
</trkpt>
<trkpt lat="-26.7345887" lon="152.7320463">
<ele>132.289</ele>
<time>2017-10-25T03:53:30.060Z</time>
</trkpt>
<trkpt lat="-26.7349256" lon="152.7324824">
<ele>131.201</ele>
<time>2017-10-25T03:53:32.838Z</time>
</trkpt>
<trkpt lat="-26.7354461" lon="152.7327852">
<ele>130.435</ele>
<time>2017-10-25T03:53:36.054Z</time>
</trkpt>
<trkpt lat="-26.7357852" lon="152.7329866">
<ele>130.584</ele>
<time>2017-10-25T03:53:38.129Z</time>
</trkpt>
<trkpt lat="-26.7360453" lon="152.7332753">
<ele>131.481</ele>
<time>2017-10-25T03:53:40.095Z</time>
</trkpt>
<trkpt lat="-26.7362115" lon="152.7335999">
<ele>132.602</ele>
<time>2017-10-25T03:53:41.948Z</time>
</trkpt>
<trkpt lat="-26.7362826" lon="152.7338987">
<ele>133.484</ele>
<time>2017-10-25T03:53:43.596Z</time>
</trkpt>
<trkpt lat="-26.7363254" lon="152.7340878">
<ele>133.924</ele>
<time>2017-10-25T03:53:44.735Z</time>
</trkpt>
<trkpt lat="-26.7362977" lon="152.7342463">
<ele>133.970</ele>
<time>2017-10-25T03:53:45.817Z</time>
</trkpt>
<trkpt lat="-26.7363237" lon="152.7343719">
<ele>133.632</ele>
<time>2017-10-25T03:53:46.728Z</time>
</trkpt>
<trkpt lat="-26.7364783" lon="152.7344541">
<ele>132.988</ele>
<time>2017-10-25T03:53:48.405Z</time>
</trkpt>
<trkpt lat="-26.7366769" lon="152.7343600">
<ele>132.520</ele>
<time>2017-10-25T03:53:51.162Z</time>
</trkpt>
<trkpt lat="-26.7368702" lon="152.7342419">
<ele>132.702</ele>
<time>2017-10-25T03:53:54.354Z</time>
</trkpt>
<trkpt lat="-26.7370940" lon="152.7340891">
<ele>133.526</ele>
<time>2017-10-25T03:53:57.213Z</time>
</trkpt>
<trkpt lat="-26.7373511" lon="152.7338955">
<ele>134.581</ele>
<time>2017-10-25T03:53:59.771Z</time>
</trkpt>
<trkpt lat="-26.7376634" lon="152.7337154">
<ele>135.363</ele>
<time>2017-10-25T03:54:02.204Z</time>
</trkpt>
<trkpt lat="-26.7379751" lon="152.7335466">
<ele>135.609</ele>
<time>2017-10-25T03:54:04.326Z</time>
</trkpt>
<trkpt lat="-26.7382565" lon="152.7333748">
<ele>135.428</ele>
<time>2017-10-25T03:54:06.196Z</time>
</trkpt>
<trkpt lat="-26.7385650" lon="152.7332055">
<ele>135.147</ele>
<time>2017-10-25T03:54:08.173Z</time>
</trkpt>
<trkpt lat="-26.7389298" lon="152.7330501">
<ele>135.078</ele>
<time>2017-10-25T03:54:10.349Z</time>
</trkpt>
<trkpt lat="-26.7392941" lon="152.7328971">
<ele>135.347</ele>
<time>2017-10-25T03:54:12.420Z</time>
</trkpt>
<trkpt lat="-26.7396224" lon="152.7327595">
<ele>135.800</ele>
<time>2017-10-25T03:54:14.279Z</time>
</trkpt>
<trkpt lat="-26.7399530" lon="152.7326498">
<ele>136.165</ele>
<time>2017-10-25T03:54:16.173Z</time>
</trkpt>
<trkpt lat="-26.7402505" lon="152.7325888">
<ele>136.358</ele>
<time>2017-10-25T03:54:17.911Z</time>
</trkpt>
<trkpt lat="-26.7405883" lon="152.7326376">
<ele>136.548</ele>
<time>2017-10-25T03:54:19.933Z</time>
</trkpt>
<trkpt lat="-26.7409290" lon="152.7328090">
<ele>136.965</ele>
<time>2017-10-25T03:54:22.133Z</time>
</trkpt>
<trkpt lat="-26.7412541" lon="152.7330291">
<ele>137.683</ele>
<time>2017-10-25T03:54:24.246Z</time>
</trkpt>
<trkpt lat="-26.7416226" lon="152.7332440">
<ele>138.634</ele>
<time>2017-10-25T03:54:26.429Z</time>
</trkpt>
<trkpt lat="-26.7419681" lon="152.7334934">
<ele>139.850</ele>
<time>2017-10-25T03:54:28.509Z</time>
</trkpt>
<trkpt lat="-26.7423359" lon="152.7336075">
<ele>141.395</ele>
<time>2017-10-25T03:54:30.427Z</time>
</trkpt>
<trkpt lat="-26.7427694" lon="152.7335687">
<ele>143.332</ele>
<time>2017-10-25T03:54:32.605Z</time>
</trkpt>
<trkpt lat="-26.7431678" lon="152.7335712">
<ele>145.863</ele>
<time>2017-10-25T03:54:34.578Z</time>
</trkpt>
<trkpt lat="-26.7435886" lon="152.7335677">
<ele>149.137</ele>
<time>2017-10-25T03:54:36.659Z</time>
</trkpt>
<trkpt lat="-26.7440013" lon="152.7335569">
<ele>152.819</ele>
<time>2017-10-25T03:54:38.682Z</time>
</trkpt>
<trkpt lat="-26.7443726" lon="152.7336012">
<ele>156.283</ele>
<time>2017-10-25T03:54:40.544Z</time>
</trkpt>
<trkpt lat="-26.7447154" lon="152.7336534">
<ele>159.192</ele>
<time>2017-10-25T03:54:42.354Z</time>
</trkpt>
<trkpt lat="-26.7450343" lon="152.7338174">
<ele>161.459</ele>
<time>2017-10-25T03:54:44.268Z</time>
</trkpt>
<trkpt lat="-26.7454816" lon="152.7341886">
<ele>163.126</ele>
<time>2017-10-25T03:54:47.325Z</time>
</trkpt>
<trkpt lat="-26.7457153" lon="152.7345265">
<ele>164.481</ele>
<time>2017-10-25T03:54:49.384Z</time>
</trkpt>
<trkpt lat="-26.7459451" lon="152.7348582">
<ele>165.621</ele>
<time>2017-10-25T03:54:51.398Z</time>
</trkpt>
<trkpt lat="-26.7461852" lon="152.7351699">
<ele>166.274</ele>
<time>2017-10-25T03:54:53.412Z</time>
</trkpt>
<trkpt lat="-26.7464467" lon="152.7354028">
<ele>166.135</ele>
<time>2017-10-25T03:54:55.293Z</time>
</trkpt>
<trkpt lat="-26.7467547" lon="152.7354958">
<ele>165.125</ele>
<time>2017-10-25T03:54:57.155Z</time>
</trkpt>
<trkpt lat="-26.7470572" lon="152.7354347">
<ele>163.418</ele>
<time>2017-10-25T03:54:59.023Z</time>
</trkpt>
<trkpt lat="-26.7473559" lon="152.7352544">
<ele>161.251</ele>
<time>2017-10-25T03:55:01.159Z</time>
</trkpt>
<trkpt lat="-26.7476557" lon="152.7351626">
<ele>159.052</ele>
<time>2017-10-25T03:55:03.178Z</time>
</trkpt>
<trkpt lat="-26.7479343" lon="152.7352202">
<ele>157.472</ele>
<time>2017-10-25T03:55:05.122Z</time>
</trkpt>
<trkpt lat="-26.7481932" lon="152.7353467">
<ele>156.757</ele>
<time>2017-10-25T03:55:07.169Z</time>
</trkpt>
<trkpt lat="-26.7485217" lon="152.7354694">
<ele>156.633</ele>
<time>2017-10-25T03:55:09.837Z</time>
</trkpt>
<trkpt lat="-26.7487833" lon="152.7353140">
<ele>156.673</ele>
<time>2017-10-25T03:55:12.354Z</time>
</trkpt>
<trkpt lat="-26.7489129" lon="152.7350600">
<ele>156.607</ele>
<time>2017-10-25T03:55:14.761Z</time>
</trkpt>
<trkpt lat="-26.7491738" lon="152.7346761">
<ele>156.665</ele>
<time>2017-10-25T03:55:18.317Z</time>
</trkpt>
<trkpt lat="-26.7493619" lon="152.7344336">
<ele>157.411</ele>
<time>2017-10-25T03:55:20.384Z</time>
</trkpt>
<trkpt lat="-26.7495663" lon="152.7341817">
<ele>158.807</ele>
<time>2017-10-25T03:55:22.452Z</time>
</trkpt>
<trkpt lat="-26.7497667" lon="152.7339198">
<ele>160.154</ele>
<time>2017-10-25T03:55:24.484Z</time>
</trkpt>
<trkpt lat="-26.7500148" lon="152.7336289">
<ele>161.128</ele>
<time>2017-10-25T03:55:26.711Z</time>
</trkpt>
<trkpt lat="-26.7502908" lon="152.7333149">
<ele>161.829</ele>
<time>2017-10-25T03:55:28.945Z</time>
</trkpt>
<trkpt lat="-26.7505285" lon="152.7330097">
<ele>162.060</ele>
<time>2017-10-25T03:55:30.899Z</time>
</trkpt>
<trkpt lat="-26.7508010" lon="152.7324980">
<ele>161.601</ele>
<time>2017-10-25T03:55:33.796Z</time>
</trkpt>
<trkpt lat="-26.7508653" lon="152.7320566">
<ele>160.124</ele>
<time>2017-10-25T03:55:35.961Z</time>
</trkpt>
<trkpt lat="-26.7510179" lon="152.7316238">
<ele>157.267</ele>
<time>2017-10-25T03:55:38.081Z</time>
</trkpt>
<trkpt lat="-26.7511870" lon="152.7312014">
<ele>153.679</ele>
<time>2017-10-25T03:55:40.097Z</time>
</trkpt>
<trkpt lat="-26.7513669" lon="152.7307698">
<ele>150.629</ele>
<time>2017-10-25T03:55:42.133Z</time>
</trkpt>
<trkpt lat="-26.7515502" lon="152.7303079">
<ele>148.314</ele>
<time>2017-10-25T03:55:44.228Z</time>
</trkpt>
<trkpt lat="-26.7517442" lon="152.7298562">
<ele>146.286</ele>
<time>2017-10-25T03:55:46.265Z</time>
</trkpt>
<trkpt lat="-26.7519052" lon="152.7294239">
<ele>144.688</ele>
<time>2017-10-25T03:55:48.183Z</time>
</trkpt>
<trkpt lat="-26.7520642" lon="152.7290133">
<ele>143.892</ele>
<time>2017-10-25T03:55:50.065Z</time>
</trkpt>
<trkpt lat="-26.7522485" lon="152.7285857">
<ele>143.757</ele>
<time>2017-10-25T03:55:52.089Z</time>
</trkpt>
<trkpt lat="-26.7523979" lon="152.7281165">
<ele>143.827</ele>
<time>2017-10-25T03:55:54.172Z</time>
</trkpt>
<trkpt lat="-26.7525432" lon="152.7276742">
<ele>143.689</ele>
<time>2017-10-25T03:55:56.119Z</time>
</trkpt>
<trkpt lat="-26.7526478" lon="152.7272373">
<ele>143.071</ele>
<time>2017-10-25T03:55:58.014Z</time>
</trkpt>
<trkpt lat="-26.7526040" lon="152.7267651">
<ele>141.887</ele>
<time>2017-10-25T03:56:00.029Z</time>
</trkpt>
<trkpt lat="-26.7525492" lon="152.7263232">
<ele>140.504</ele>
<time>2017-10-25T03:56:01.955Z</time>
</trkpt>
<trkpt lat="-26.7524465" lon="152.7259125">
<ele>139.553</ele>
<time>2017-10-25T03:56:03.858Z</time>
</trkpt>
<trkpt lat="-26.7524368" lon="152.7254850">
<ele>139.346</ele>
<time>2017-10-25T03:56:05.832Z</time>
</trkpt>
<trkpt lat="-26.7524717" lon="152.7251371">
<ele>139.714</ele>
<time>2017-10-25T03:56:07.553Z</time>
</trkpt>
<trkpt lat="-26.7525125" lon="152.7248485">
<ele>140.254</ele>
<time>2017-10-25T03:56:09.124Z</time>
</trkpt>
<trkpt lat="-26.7525644" lon="152.7244833">
<ele>140.677</ele>
<time>2017-10-25T03:56:11.258Z</time>
</trkpt>
<trkpt lat="-26.7526124" lon="152.7240309">
<ele>141.007</ele>
<time>2017-10-25T03:56:13.766Z</time>
</trkpt>
<trkpt lat="-26.7527259" lon="152.7233384">
<ele>141.295</ele>
<time>2017-10-25T03:56:17.052Z</time>
</trkpt>
<trkpt lat="-26.7527679" lon="152.7229187">
<ele>141.270</ele>
<time>2017-10-25T03:56:18.915Z</time>
</trkpt>
<trkpt lat="-26.7528449" lon="152.7225124">
<ele>140.779</ele>
<time>2017-10-25T03:56:20.814Z</time>
</trkpt>
<trkpt lat="-26.7529363" lon="152.7221436">
<ele>140.429</ele>
<time>2017-10-25T03:56:22.649Z</time>
</trkpt>
<trkpt lat="-26.7530530" lon="152.7217741">
<ele>140.827</ele>
<time>2017-10-25T03:56:24.596Z</time>
</trkpt>
<trkpt lat="-26.7531985" lon="152.7214397">
<ele>141.698</ele>
<time>2017-10-25T03:56:26.475Z</time>
</trkpt>
<trkpt lat="-26.7533871" lon="152.7211117">
<ele>142.439</ele>
<time>2017-10-25T03:56:28.471Z</time>
</trkpt>
<trkpt lat="-26.7536215" lon="152.7208749">
<ele>142.794</ele>
<time>2017-10-25T03:56:30.334Z</time>
</trkpt>
<trkpt lat="-26.7540055" lon="152.7207983">
<ele>142.847</ele>
<time>2017-10-25T03:56:32.656Z</time>
</trkpt>
<trkpt lat="-26.7544226" lon="152.7207616">
<ele>142.838</ele>
<time>2017-10-25T03:56:34.978Z</time>
</trkpt>
<trkpt lat="-26.7548337" lon="152.7207010">
<ele>142.981</ele>
<time>2017-10-25T03:56:37.093Z</time>
</trkpt>
<trkpt lat="-26.7552286" lon="152.7205584">
<ele>143.361</ele>
<time>2017-10-25T03:56:39.147Z</time>
</trkpt>
<trkpt lat="-26.7555936" lon="152.7203426">
<ele>143.853</ele>
<time>2017-10-25T03:56:41.170Z</time>
</trkpt>
<trkpt lat="-26.7559468" lon="152.7202014">
<ele>144.047</ele>
<time>2017-10-25T03:56:43.030Z</time>
</trkpt>
<trkpt lat="-26.7563414" lon="152.7201515">
<ele>143.496</ele>
<time>2017-10-25T03:56:45.030Z</time>
</trkpt>
<trkpt lat="-26.7567621" lon="152.7202183">
<ele>142.332</ele>
<time>2017-10-25T03:56:47.030Z</time>
</trkpt>
<trkpt lat="-26.7571778" lon="152.7203127">
<ele>141.235</ele>
<time>2017-10-25T03:56:49.022Z</time>
</trkpt>
<trkpt lat="-26.7576193" lon="152.7203548">
<ele>140.699</ele>
<time>2017-10-25T03:56:51.030Z</time>
</trkpt>
<trkpt lat="-26.7580882" lon="152.7203176">
<ele>140.844</ele>
<time>2017-10-25T03:56:53.126Z</time>
</trkpt>
<trkpt lat="-26.7584944" lon="152.7203434">
<ele>141.466</ele>
<time>2017-10-25T03:56:55.001Z</time>
</trkpt>
<trkpt lat="-26.7588166" lon="152.7203206">
<ele>142.064</ele>
<time>2017-10-25T03:56:56.648Z</time>
</trkpt>
<trkpt lat="-26.7591533" lon="152.7199992">
<ele>142.192</ele>
<time>2017-10-25T03:56:59.214Z</time>
</trkpt>
<trkpt lat="-26.7592656" lon="152.7196685">
<ele>141.861</ele>
<time>2017-10-25T03:57:01.166Z</time>
</trkpt>
<trkpt lat="-26.7593794" lon="152.7192779">
<ele>141.487</ele>
<time>2017-10-25T03:57:03.399Z</time>
</trkpt>
<trkpt lat="-26.7595030" lon="152.7188929">
<ele>141.440</ele>
<time>2017-10-25T03:57:05.450Z</time>
</trkpt>
<trkpt lat="-26.7596309" lon="152.7184599">
<ele>141.656</ele>
<time>2017-10-25T03:57:07.591Z</time>
</trkpt>
<trkpt lat="-26.7596967" lon="152.7180115">
<ele>141.847</ele>
<time>2017-10-25T03:57:09.625Z</time>
</trkpt>
<trkpt lat="-26.7597018" lon="152.7175935">
<ele>141.863</ele>
<time>2017-10-25T03:57:11.491Z</time>
</trkpt>
<trkpt lat="-26.7596556" lon="152.7171829">
<ele>141.942</ele>
<time>2017-10-25T03:57:13.379Z</time>
</trkpt>
<trkpt lat="-26.7595814" lon="152.7167799">
<ele>142.511</ele>
<time>2017-10-25T03:57:15.289Z</time>
</trkpt>
<trkpt lat="-26.7595535" lon="152.7163380">
<ele>143.481</ele>
<time>2017-10-25T03:57:17.358Z</time>
</trkpt>
<trkpt lat="-26.7595325" lon="152.7158946">
<ele>144.305</ele>
<time>2017-10-25T03:57:19.411Z</time>
</trkpt>
<trkpt lat="-26.7594854" lon="152.7154406">
<ele>144.720</ele>
<time>2017-10-25T03:57:21.469Z</time>
</trkpt>
<trkpt lat="-26.7594534" lon="152.7149853">
<ele>144.898</ele>
<time>2017-10-25T03:57:23.489Z</time>
</trkpt>
<trkpt lat="-26.7594132" lon="152.7145334">
<ele>145.123</ele>
<time>2017-10-25T03:57:25.496Z</time>
</trkpt>
<trkpt lat="-26.7593655" lon="152.7141172">
<ele>145.547</ele>
<time>2017-10-25T03:57:27.392Z</time>
</trkpt>
<trkpt lat="-26.7592616" lon="152.7137639">
<ele>146.182</ele>
<time>2017-10-25T03:57:29.152Z</time>
</trkpt>
<trkpt lat="-26.7593248" lon="152.7134553">
<ele>146.924</ele>
<time>2017-10-25T03:57:30.744Z</time>
</trkpt>
<trkpt lat="-26.7595016" lon="152.7131117">
<ele>147.601</ele>
<time>2017-10-25T03:57:32.865Z</time>
</trkpt>
<trkpt lat="-26.7596921" lon="152.7127251">
<ele>148.216</ele>
<time>2017-10-25T03:57:35.167Z</time>
</trkpt>
<trkpt lat="-26.7598663" lon="152.7123154">
<ele>148.846</ele>
<time>2017-10-25T03:57:37.324Z</time>
</trkpt>
<trkpt lat="-26.7600689" lon="152.7119280">
<ele>149.353</ele>
<time>2017-10-25T03:57:39.362Z</time>
</trkpt>
<trkpt lat="-26.7603245" lon="152.7116326">
<ele>149.608</ele>
<time>2017-10-25T03:57:41.225Z</time>
</trkpt>
<trkpt lat="-26.7605736" lon="152.7113971">
<ele>149.690</ele>
<time>2017-10-25T03:57:42.958Z</time>
</trkpt>
<trkpt lat="-26.7608028" lon="152.7112317">
<ele>149.761</ele>
<time>2017-10-25T03:57:44.527Z</time>
</trkpt>
<trkpt lat="-26.7611591" lon="152.7112502">
<ele>149.947</ele>
<time>2017-10-25T03:57:46.802Z</time>
</trkpt>
<trkpt lat="-26.7615506" lon="152.7112472">
<ele>150.449</ele>
<time>2017-10-25T03:57:49.231Z</time>
</trkpt>
<trkpt lat="-26.7619242" lon="152.7112763">
<ele>151.577</ele>
<time>2017-10-25T03:57:51.362Z</time>
</trkpt>
<trkpt lat="-26.7622562" lon="152.7113219">
<ele>153.376</ele>
<time>2017-10-25T03:57:53.248Z</time>
</trkpt>
<trkpt lat="-26.7626207" lon="152.7114841">
<ele>155.271</ele>
<time>2017-10-25T03:57:55.452Z</time>
</trkpt>
<trkpt lat="-26.7629449" lon="152.7116453">
<ele>156.526</ele>
<time>2017-10-25T03:57:57.390Z</time>
</trkpt>
<trkpt lat="-26.7632582" lon="152.7118131">
<ele>156.778</ele>
<time>2017-10-25T03:57:59.294Z</time>
</trkpt>
<trkpt lat="-26.7636067" lon="152.7118861">
<ele>156.215</ele>
<time>2017-10-25T03:58:01.279Z</time>
</trkpt>
<trkpt lat="-26.7640014" lon="152.7119126">
<ele>155.462</ele>
<time>2017-10-25T03:58:03.496Z</time>
</trkpt>
<trkpt lat="-26.7643864" lon="152.7119729">
<ele>155.054</ele>
<time>2017-10-25T03:58:05.598Z</time>
</trkpt>
<trkpt lat="-26.7647994" lon="152.7120849">
<ele>155.065</ele>
<time>2017-10-25T03:58:07.782Z</time>
</trkpt>
<trkpt lat="-26.7651816" lon="152.7121972">
<ele>155.362</ele>
<time>2017-10-25T03:58:09.750Z</time>
</trkpt>
<trkpt lat="-26.7655463" lon="152.7124287">
<ele>155.758</ele>
<time>2017-10-25T03:58:11.842Z</time>
</trkpt>
<trkpt lat="-26.7658511" lon="152.7127009">
<ele>156.067</ele>
<time>2017-10-25T03:58:13.805Z</time>
</trkpt>
<trkpt lat="-26.7661102" lon="152.7130368">
<ele>156.183</ele>
<time>2017-10-25T03:58:15.819Z</time>
</trkpt>
<trkpt lat="-26.7663023" lon="152.7134125">
<ele>156.017</ele>
<time>2017-10-25T03:58:17.819Z</time>
</trkpt>
<trkpt lat="-26.7664100" lon="152.7137943">
<ele>155.595</ele>
<time>2017-10-25T03:58:19.734Z</time>
</trkpt>
<trkpt lat="-26.7665857" lon="152.7141351">
<ele>155.180</ele>
<time>2017-10-25T03:58:21.699Z</time>
</trkpt>
<trkpt lat="-26.7668562" lon="152.7144503">
<ele>155.043</ele>
<time>2017-10-25T03:58:23.870Z</time>
</trkpt>
<trkpt lat="-26.7671383" lon="152.7147405">
<ele>155.356</ele>
<time>2017-10-25T03:58:25.904Z</time>
</trkpt>
<trkpt lat="-26.7674030" lon="152.7150491">
<ele>156.162</ele>
<time>2017-10-25T03:58:27.889Z</time>
</trkpt>
<trkpt lat="-26.7676326" lon="152.7153959">
<ele>157.185</ele>
<time>2017-10-25T03:58:29.889Z</time>
</trkpt>
<trkpt lat="-26.7678555" lon="152.7157958">
<ele>158.006</ele>
<time>2017-10-25T03:58:32.020Z</time>
</trkpt>
<trkpt lat="-26.7680911" lon="152.7161759">
<ele>158.462</ele>
<time>2017-10-25T03:58:34.034Z</time>
</trkpt>
<trkpt lat="-26.7683700" lon="152.7165251">
<ele>158.743</ele>
<time>2017-10-25T03:58:36.038Z</time>
</trkpt>
<trkpt lat="-26.7687298" lon="152.7167920">
<ele>159.130</ele>
<time>2017-10-25T03:58:38.082Z</time>
</trkpt>
<trkpt lat="-26.7691522" lon="152.7169706">
<ele>159.723</ele>
<time>2017-10-25T03:58:40.178Z</time>
</trkpt>
<trkpt lat="-26.7695637" lon="152.7171467">
<ele>160.565</ele>
<time>2017-10-25T03:58:42.193Z</time>
</trkpt>
<trkpt lat="-26.7699774" lon="152.7172887">
<ele>161.687</ele>
<time>2017-10-25T03:58:44.166Z</time>
</trkpt>
<trkpt lat="-26.7704223" lon="152.7173318">
<ele>162.906</ele>
<time>2017-10-25T03:58:46.174Z</time>
</trkpt>
<trkpt lat="-26.7709140" lon="152.7173676">
<ele>163.843</ele>
<time>2017-10-25T03:58:48.295Z</time>
</trkpt>
<trkpt lat="-26.7713881" lon="152.7174776">
<ele>164.235</ele>
<time>2017-10-25T03:58:50.316Z</time>
</trkpt>
<trkpt lat="-26.7718732" lon="152.7176131">
<ele>164.105</ele>
<time>2017-10-25T03:58:52.394Z</time>
</trkpt>
<trkpt lat="-26.7723238" lon="152.7177289">
<ele>163.671</ele>
<time>2017-10-25T03:58:54.321Z</time>
</trkpt>
<trkpt lat="-26.7727866" lon="152.7178465">
<ele>163.192</ele>
<time>2017-10-25T03:58:56.322Z</time>
</trkpt>
<trkpt lat="-26.7732241" lon="152.7179305">
<ele>162.854</ele>
<time>2017-10-25T03:58:58.239Z</time>
</trkpt>
<trkpt lat="-26.7736333" lon="152.7179192">
<ele>162.659</ele>
<time>2017-10-25T03:59:00.078Z</time>
</trkpt>
<trkpt lat="-26.7740135" lon="152.7180137">
<ele>162.393</ele>
<time>2017-10-25T03:59:01.913Z</time>
</trkpt>
<trkpt lat="-26.7743962" lon="152.7182469">
<ele>161.948</ele>
<time>2017-10-25T03:59:03.974Z</time>
</trkpt>
<trkpt lat="-26.7747506" lon="152.7186118">
<ele>161.472</ele>
<time>2017-10-25T03:59:06.152Z</time>
</trkpt>
<trkpt lat="-26.7750981" lon="152.7189281">
<ele>161.103</ele>
<time>2017-10-25T03:59:08.132Z</time>
</trkpt>
<trkpt lat="-26.7754593" lon="152.7192481">
<ele>160.857</ele>
<time>2017-10-25T03:59:10.171Z</time>
</trkpt>
<trkpt lat="-26.7758296" lon="152.7195837">
<ele>160.744</ele>
<time>2017-10-25T03:59:12.228Z</time>
</trkpt>
<trkpt lat="-26.7761884" lon="152.7199525">
<ele>160.717</ele>
<time>2017-10-25T03:59:14.271Z</time>
</trkpt>
<trkpt lat="-26.7765486" lon="152.7203160">
<ele>160.706</ele>
<time>2017-10-25T03:59:16.286Z</time>
</trkpt>
<trkpt lat="-26.7769198" lon="152.7206629">
<ele>160.688</ele>
<time>2017-10-25T03:59:18.292Z</time>
</trkpt>
<trkpt lat="-26.7772607" lon="152.7210308">
<ele>160.621</ele>
<time>2017-10-25T03:59:20.271Z</time>
</trkpt>
<trkpt lat="-26.7775780" lon="152.7214022">
<ele>160.473</ele>
<time>2017-10-25T03:59:22.220Z</time>
</trkpt>
<trkpt lat="-26.7779318" lon="152.7217162">
<ele>160.306</ele>
<time>2017-10-25T03:59:24.165Z</time>
</trkpt>
<trkpt lat="-26.7783216" lon="152.7219985">
<ele>160.223</ele>
<time>2017-10-25T03:59:26.174Z</time>
</trkpt>
<trkpt lat="-26.7787301" lon="152.7222440">
<ele>160.235</ele>
<time>2017-10-25T03:59:28.159Z</time>
</trkpt>
<trkpt lat="-26.7791663" lon="152.7224713">
<ele>160.286</ele>
<time>2017-10-25T03:59:30.178Z</time>
</trkpt>
<trkpt lat="-26.7796242" lon="152.7226896">
<ele>160.329</ele>
<time>2017-10-25T03:59:32.229Z</time>
</trkpt>
<trkpt lat="-26.7801110" lon="152.7228427">
<ele>160.496</ele>
<time>2017-10-25T03:59:34.274Z</time>
</trkpt>
<trkpt lat="-26.7805702" lon="152.7230632">
<ele>160.930</ele>
<time>2017-10-25T03:59:36.262Z</time>
</trkpt>
<trkpt lat="-26.7810225" lon="152.7232522">
<ele>161.593</ele>
<time>2017-10-25T03:59:38.184Z</time>
</trkpt>
<trkpt lat="-26.7814616" lon="152.7234464">
<ele>162.337</ele>
<time>2017-10-25T03:59:40.102Z</time>
</trkpt>
<trkpt lat="-26.7819190" lon="152.7236506">
<ele>162.960</ele>
<time>2017-10-25T03:59:42.141Z</time>
</trkpt>
<trkpt lat="-26.7823544" lon="152.7238309">
<ele>163.332</ele>
<time>2017-10-25T03:59:44.072Z</time>
</trkpt>
<trkpt lat="-26.7828030" lon="152.7240304">
<ele>163.625</ele>
<time>2017-10-25T03:59:46.079Z</time>
</trkpt>
<trkpt lat="-26.7832252" lon="152.7242029">
<ele>164.043</ele>
<time>2017-10-25T03:59:47.984Z</time>
</trkpt>
<trkpt lat="-26.7835884" lon="152.7243602">
<ele>164.561</ele>
<time>2017-10-25T03:59:49.722Z</time>
</trkpt>
<trkpt lat="-26.7839153" lon="152.7245733">
<ele>165.186</ele>
<time>2017-10-25T03:59:51.519Z</time>
</trkpt>
<trkpt lat="-26.7841836" lon="152.7249510">
<ele>165.996</ele>
<time>2017-10-25T03:59:53.646Z</time>
</trkpt>
<trkpt lat="-26.7844647" lon="152.7253248">
<ele>166.791</ele>
<time>2017-10-25T03:59:55.765Z</time>
</trkpt>
<trkpt lat="-26.7849614" lon="152.7258454">
<ele>167.250</ele>
<time>2017-10-25T03:59:58.918Z</time>
</trkpt>
<trkpt lat="-26.7854721" lon="152.7264287">
<ele>167.220</ele>
<time>2017-10-25T04:00:02.096Z</time>
</trkpt>
<trkpt lat="-26.7859243" lon="152.7270802">
<ele>166.742</ele>
<time>2017-10-25T04:00:05.156Z</time>
</trkpt>
<trkpt lat="-26.7864342" lon="152.7276550">
<ele>166.129</ele>
<time>2017-10-25T04:00:08.164Z</time>
</trkpt>
<trkpt lat="-26.7869918" lon="152.7281251">
<ele>165.868</ele>
<time>2017-10-25T04:00:11.101Z</time>
</trkpt>
<trkpt lat="-26.7875207" lon="152.7286534">
<ele>166.248</ele>
<time>2017-10-25T04:00:14.072Z</time>
</trkpt>
<trkpt lat="-26.7880195" lon="152.7291948">
<ele>167.219</ele>
<time>2017-10-25T04:00:16.993Z</time>
</trkpt>
<trkpt lat="-26.7883231" lon="152.7295926">
<ele>168.356</ele>
<time>2017-10-25T04:00:18.965Z</time>
</trkpt>
<trkpt lat="-26.7887337" lon="152.7302411">
<ele>169.112</ele>
<time>2017-10-25T04:00:21.996Z</time>
</trkpt>
<trkpt lat="-26.7890285" lon="152.7305978">
<ele>169.261</ele>
<time>2017-10-25T04:00:23.914Z</time>
</trkpt>
<trkpt lat="-26.7894652" lon="152.7310654">
<ele>169.015</ele>
<time>2017-10-25T04:00:26.736Z</time>
</trkpt>
<trkpt lat="-26.7897713" lon="152.7313136">
<ele>168.707</ele>
<time>2017-10-25T04:00:28.597Z</time>
</trkpt>
<trkpt lat="-26.7900867" lon="152.7315153">
<ele>168.565</ele>
<time>2017-10-25T04:00:30.465Z</time>
</trkpt>
<trkpt lat="-26.7904416" lon="152.7318968">
<ele>168.597</ele>
<time>2017-10-25T04:00:33.191Z</time>
</trkpt>
<trkpt lat="-26.7907366" lon="152.7322675">
<ele>168.585</ele>
<time>2017-10-25T04:00:35.899Z</time>
</trkpt>
<trkpt lat="-26.7909912" lon="152.7324931">
<ele>168.372</ele>
<time>2017-10-25T04:00:37.994Z</time>
</trkpt>
<trkpt lat="-26.7913498" lon="152.7329658">
<ele>168.301</ele>
<time>2017-10-25T04:00:41.452Z</time>
</trkpt>
<trkpt lat="-26.7915964" lon="152.7333182">
<ele>168.953</ele>
<time>2017-10-25T04:00:43.699Z</time>
</trkpt>
<trkpt lat="-26.7918431" lon="152.7336625">
<ele>170.232</ele>
<time>2017-10-25T04:00:45.756Z</time>
</trkpt>
<trkpt lat="-26.7921294" lon="152.7339933">
<ele>171.475</ele>
<time>2017-10-25T04:00:47.838Z</time>
</trkpt>
<trkpt lat="-26.7923966" lon="152.7343205">
<ele>172.488</ele>
<time>2017-10-25T04:00:49.803Z</time>
</trkpt>
<trkpt lat="-26.7926917" lon="152.7345947">
<ele>173.730</ele>
<time>2017-10-25T04:00:51.716Z</time>
</trkpt>
<trkpt lat="-26.7929866" lon="152.7348572">
<ele>175.510</ele>
<time>2017-10-25T04:00:53.640Z</time>
</trkpt>
<trkpt lat="-26.7932372" lon="152.7351733">
<ele>177.614</ele>
<time>2017-10-25T04:00:55.617Z</time>
</trkpt>
<trkpt lat="-26.7934748" lon="152.7354692">
<ele>179.472</ele>
<time>2017-10-25T04:00:57.501Z</time>
</trkpt>
<trkpt lat="-26.7937259" lon="152.7357625">
<ele>180.855</ele>
<time>2017-10-25T04:00:59.455Z</time>
</trkpt>
<trkpt lat="-26.7939999" lon="152.7360378">
<ele>182.169</ele>
<time>2017-10-25T04:01:01.482Z</time>
</trkpt>
<trkpt lat="-26.7944852" lon="152.7362448">
<ele>183.770</ele>
<time>2017-10-25T04:01:04.400Z</time>
</trkpt>
<trkpt lat="-26.7948557" lon="152.7363384">
<ele>185.608</ele>
<time>2017-10-25T04:01:06.501Z</time>
</trkpt>
<trkpt lat="-26.7951935" lon="152.7365180">
<ele>187.472</ele>
<time>2017-10-25T04:01:08.492Z</time>
</trkpt>
<trkpt lat="-26.7954705" lon="152.7368190">
<ele>189.074</ele>
<time>2017-10-25T04:01:10.544Z</time>
</trkpt>
<trkpt lat="-26.7956685" lon="152.7371854">
<ele>190.270</ele>
<time>2017-10-25T04:01:12.610Z</time>
</trkpt>
<trkpt lat="-26.7958423" lon="152.7375735">
<ele>191.257</ele>
<time>2017-10-25T04:01:14.692Z</time>
</trkpt>
<trkpt lat="-26.7960192" lon="152.7379080">
<ele>192.313</ele>
<time>2017-10-25T04:01:16.567Z</time>
</trkpt>
<trkpt lat="-26.7962209" lon="152.7382395">
<ele>193.460</ele>
<time>2017-10-25T04:01:18.542Z</time>
</trkpt>
<trkpt lat="-26.7964542" lon="152.7385323">
<ele>194.420</ele>
<time>2017-10-25T04:01:20.497Z</time>
</trkpt>
<trkpt lat="-26.7967151" lon="152.7388393">
<ele>195.034</ele>
<time>2017-10-25T04:01:22.601Z</time>
</trkpt>
<trkpt lat="-26.7969662" lon="152.7391244">
<ele>195.476</ele>
<time>2017-10-25T04:01:24.556Z</time>
</trkpt>
<trkpt lat="-26.7974016" lon="152.7394973">
<ele>196.085</ele>
<time>2017-10-25T04:01:27.576Z</time>
</trkpt>
<trkpt lat="-26.7976381" lon="152.7397515">
<ele>197.272</ele>
<time>2017-10-25T04:01:29.449Z</time>
</trkpt>
<trkpt lat="-26.7978550" lon="152.7400716">
<ele>199.048</ele>
<time>2017-10-25T04:01:31.509Z</time>
</trkpt>
<trkpt lat="-26.7980871" lon="152.7403770">
<ele>200.782</ele>
<time>2017-10-25T04:01:33.513Z</time>
</trkpt>
<trkpt lat="-26.7983741" lon="152.7406398">
<ele>201.986</ele>
<time>2017-10-25T04:01:35.555Z</time>
</trkpt>
<trkpt lat="-26.7986761" lon="152.7408938">
<ele>202.703</ele>
<time>2017-10-25T04:01:37.617Z</time>
</trkpt>
<trkpt lat="-26.7989671" lon="152.7410741">
<ele>203.182</ele>
<time>2017-10-25T04:01:39.468Z</time>
</trkpt>
<trkpt lat="-26.7992312" lon="152.7412711">
<ele>203.611</ele>
<time>2017-10-25T04:01:41.294Z</time>
</trkpt>
<trkpt lat="-26.7995191" lon="152.7414759">
<ele>203.961</ele>
<time>2017-10-25T04:01:43.291Z</time>
</trkpt>
<trkpt lat="-26.7998421" lon="152.7415743">
<ele>204.135</ele>
<time>2017-10-25T04:01:45.269Z</time>
</trkpt>
<trkpt lat="-26.8001926" lon="152.7415398">
<ele>204.196</ele>
<time>2017-10-25T04:01:47.363Z</time>
</trkpt>
<trkpt lat="-26.8005513" lon="152.7414540">
<ele>204.264</ele>
<time>2017-10-25T04:01:49.513Z</time>
</trkpt>
<trkpt lat="-26.8009376" lon="152.7413917">
<ele>204.362</ele>
<time>2017-10-25T04:01:51.664Z</time>
</trkpt>
<trkpt lat="-26.8013318" lon="152.7413002">
<ele>204.514</ele>
<time>2017-10-25T04:01:53.733Z</time>
</trkpt>
<trkpt lat="-26.8016895" lon="152.7412511">
<ele>205.006</ele>
<time>2017-10-25T04:01:55.569Z</time>
</trkpt>
<trkpt lat="-26.8020461" lon="152.7411802">
<ele>206.072</ele>
<time>2017-10-25T04:01:57.472Z</time>
</trkpt>
<trkpt lat="-26.8024029" lon="152.7410965">
<ele>207.506</ele>
<time>2017-10-25T04:01:59.433Z</time>
</trkpt>
<trkpt lat="-26.8027616" lon="152.7410122">
<ele>208.956</ele>
<time>2017-10-25T04:02:01.410Z</time>
</trkpt>
<trkpt lat="-26.8031111" lon="152.7408604">
<ele>210.345</ele>
<time>2017-10-25T04:02:03.412Z</time>
</trkpt>
<trkpt lat="-26.8034620" lon="152.7406827">
<ele>211.740</ele>
<time>2017-10-25T04:02:05.441Z</time>
</trkpt>
<trkpt lat="-26.8038512" lon="152.7406411">
<ele>213.121</ele>
<time>2017-10-25T04:02:07.463Z</time>
</trkpt>
<trkpt lat="-26.8042694" lon="152.7406536">
<ele>214.322</ele>
<time>2017-10-25T04:02:09.573Z</time>
</trkpt>
<trkpt lat="-26.8046352" lon="152.7405883">
<ele>215.156</ele>
<time>2017-10-25T04:02:11.456Z</time>
</trkpt>
<trkpt lat="-26.8049680" lon="152.7405113">
<ele>215.703</ele>
<time>2017-10-25T04:02:13.249Z</time>
</trkpt>
<trkpt lat="-26.8052901" lon="152.7404081">
<ele>216.338</ele>
<time>2017-10-25T04:02:15.090Z</time>
</trkpt>
<trkpt lat="-26.8056445" lon="152.7403442">
<ele>217.416</ele>
<time>2017-10-25T04:02:17.135Z</time>
</trkpt>
<trkpt lat="-26.8059805" lon="152.7402827">
<ele>219.390</ele>
<time>2017-10-25T04:02:19.126Z</time>
</trkpt>
<trkpt lat="-26.8063152" lon="152.7403258">
<ele>222.619</ele>
<time>2017-10-25T04:02:21.117Z</time>
</trkpt>
<trkpt lat="-26.8066142" lon="152.7404770">
<ele>226.774</ele>
<time>2017-10-25T04:02:23.072Z</time>
</trkpt>
<trkpt lat="-26.8068949" lon="152.7405797">
<ele>230.909</ele>
<time>2017-10-25T04:02:24.879Z</time>
</trkpt>
<trkpt lat="-26.8071528" lon="152.7407768">
<ele>234.127</ele>
<time>2017-10-25T04:02:26.842Z</time>
</trkpt>
<trkpt lat="-26.8075489" lon="152.7410826">
<ele>236.118</ele>
<time>2017-10-25T04:02:29.872Z</time>
</trkpt>
<trkpt lat="-26.8078312" lon="152.7412560">
<ele>237.141</ele>
<time>2017-10-25T04:02:31.881Z</time>
</trkpt>
<trkpt lat="-26.8082251" lon="152.7413874">
<ele>237.710</ele>
<time>2017-10-25T04:02:34.518Z</time>
</trkpt>
<trkpt lat="-26.8084940" lon="152.7414972">
<ele>238.465</ele>
<time>2017-10-25T04:02:36.437Z</time>
</trkpt>
<trkpt lat="-26.8088494" lon="152.7416631">
<ele>239.776</ele>
<time>2017-10-25T04:02:39.276Z</time>
</trkpt>
<trkpt lat="-26.8090763" lon="152.7418368">
<ele>241.426</ele>
<time>2017-10-25T04:02:41.350Z</time>
</trkpt>
<trkpt lat="-26.8092955" lon="152.7420222">
<ele>243.033</ele>
<time>2017-10-25T04:02:43.399Z</time>
</trkpt>
<trkpt lat="-26.8095889" lon="152.7421776">
<ele>244.563</ele>
<time>2017-10-25T04:02:45.737Z</time>
</trkpt>
<trkpt lat="-26.8098680" lon="152.7423634">
<ele>246.171</ele>
<time>2017-10-25T04:02:47.902Z</time>
</trkpt>
<trkpt lat="-26.8101583" lon="152.7425400">
<ele>247.745</ele>
<time>2017-10-25T04:02:49.986Z</time>
</trkpt>
<trkpt lat="-26.8104216" lon="152.7426766">
<ele>249.139</ele>
<time>2017-10-25T04:02:51.807Z</time>
</trkpt>
<trkpt lat="-26.8106976" lon="152.7428154">
<ele>250.628</ele>
<time>2017-10-25T04:02:53.745Z</time>
</trkpt>
<trkpt lat="-26.8109448" lon="152.7429750">
<ele>252.633</ele>
<time>2017-10-25T04:02:55.628Z</time>
</trkpt>
<trkpt lat="-26.8110670" lon="152.7431793">
<ele>255.249</ele>
<time>2017-10-25T04:02:57.120Z</time>
</trkpt>
<trkpt lat="-26.8111604" lon="152.7433794">
<ele>258.528</ele>
<time>2017-10-25T04:02:58.664Z</time>
</trkpt>
<trkpt lat="-26.8112562" lon="152.7435650">
<ele>262.546</ele>
<time>2017-10-25T04:03:00.334Z</time>
</trkpt>
<trkpt lat="-26.8113232" lon="152.7437591">
<ele>266.874</ele>
<time>2017-10-25T04:03:02.115Z</time>
</trkpt>
<trkpt lat="-26.8114520" lon="152.7438999">
<ele>270.818</ele>
<time>2017-10-25T04:03:03.963Z</time>
</trkpt>
<trkpt lat="-26.8115546" lon="152.7440629">
<ele>274.148</ele>
<time>2017-10-25T04:03:05.920Z</time>
</trkpt>
<trkpt lat="-26.8116725" lon="152.7441994">
<ele>277.169</ele>
<time>2017-10-25T04:03:07.906Z</time>
</trkpt>
<trkpt lat="-26.8118409" lon="152.7443767">
<ele>280.391</ele>
<time>2017-10-25T04:03:10.672Z</time>
</trkpt>
<trkpt lat="-26.8120751" lon="152.7444654">
<ele>284.367</ele>
<time>2017-10-25T04:03:13.676Z</time>
</trkpt>
<trkpt lat="-26.8122041" lon="152.7445883">
<ele>289.342</ele>
<time>2017-10-25T04:03:15.831Z</time>
</trkpt>
<trkpt lat="-26.8122703" lon="152.7447180">
<ele>294.736</ele>
<time>2017-10-25T04:03:17.546Z</time>
</trkpt>
<trkpt lat="-26.8123212" lon="152.7448353">
<ele>299.708</ele>
<time>2017-10-25T04:03:19.052Z</time>
</trkpt>
<trkpt lat="-26.8123840" lon="152.7449880">
<ele>304.110</ele>
<time>2017-10-25T04:03:21.075Z</time>
</trkpt>
<trkpt lat="-26.8124164" lon="152.7451713">
<ele>308.322</ele>
<time>2017-10-25T04:03:23.678Z</time>
</trkpt>
<trkpt lat="-26.8124800" lon="152.7453320">
<ele>312.647</ele>
<time>2017-10-25T04:03:26.061Z</time>
</trkpt>
<trkpt lat="-26.8125754" lon="152.7454973">
<ele>317.016</ele>
<time>2017-10-25T04:03:28.506Z</time>
</trkpt>
<trkpt lat="-26.8127099" lon="152.7456555">
<ele>321.184</ele>
<time>2017-10-25T04:03:30.991Z</time>
</trkpt>
<trkpt lat="-26.8129059" lon="152.7458040">
<ele>325.047</ele>
<time>2017-10-25T04:03:33.604Z</time>
</trkpt>
<trkpt lat="-26.8130436" lon="152.7459262">
<ele>328.736</ele>
<time>2017-10-25T04:03:35.555Z</time>
</trkpt>
<trkpt lat="-26.8132079" lon="152.7459571">
<ele>332.500</ele>
<time>2017-10-25T04:03:37.499Z</time>
</trkpt>
<trkpt lat="-26.8133381" lon="152.7460102">
<ele>336.272</ele>
<time>2017-10-25T04:03:39.188Z</time>
</trkpt>
<trkpt lat="-26.8134545" lon="152.7460906">
<ele>339.715</ele>
<time>2017-10-25T04:03:40.926Z</time>
</trkpt>
<trkpt lat="-26.8135658" lon="152.7461805">
<ele>342.763</ele>
<time>2017-10-25T04:03:42.765Z</time>
</trkpt>
<trkpt lat="-26.8137245" lon="152.7462607">
<ele>345.724</ele>
<time>2017-10-25T04:03:45.258Z</time>
</trkpt>
<trkpt lat="-26.8139202" lon="152.7462927">
<ele>348.979</ele>
<time>2017-10-25T04:03:48.059Z</time>
</trkpt>
<trkpt lat="-26.8140893" lon="152.7463703">
<ele>352.671</ele>
<time>2017-10-25T04:03:50.247Z</time>
</trkpt>
<trkpt lat="-26.8141670" lon="152.7464888">
<ele>356.781</ele>
<time>2017-10-25T04:03:51.746Z</time>
</trkpt>
<trkpt lat="-26.8142976" lon="152.7466186">
<ele>361.342</ele>
<time>2017-10-25T04:03:53.866Z</time>
</trkpt>
<trkpt lat="-26.8144727" lon="152.7467404">
<ele>366.329</ele>
<time>2017-10-25T04:03:56.392Z</time>
</trkpt>
<trkpt lat="-26.8146163" lon="152.7468732">
<ele>371.299</ele>
<time>2017-10-25T04:03:58.478Z</time>
</trkpt>
<trkpt lat="-26.8147430" lon="152.7469887">
<ele>375.532</ele>
<time>2017-10-25T04:04:00.281Z</time>
</trkpt>
<trkpt lat="-26.8149744" lon="152.7471640">
<ele>378.653</ele>
<time>2017-10-25T04:04:03.469Z</time>
</trkpt>
<trkpt lat="-26.8152826" lon="152.7474416">
<ele>380.840</ele>
<time>2017-10-25T04:04:07.705Z</time>
</trkpt>
<trkpt lat="-26.8155684" lon="152.7476773">
<ele>382.361</ele>
<time>2017-10-25T04:04:10.860Z</time>
</trkpt>
<trkpt lat="-26.8157706" lon="152.7478772">
<ele>383.278</ele>
<time>2017-10-25T04:04:13.370Z</time>
</trkpt>
<trkpt lat="-26.8158800" lon="152.7480761">
<ele>383.685</ele>
<time>2017-10-25T04:04:15.752Z</time>
</trkpt>
<trkpt lat="-26.8159640" lon="152.7482265">
<ele>384.196</ele>
<time>2017-10-25T04:04:17.827Z</time>
</trkpt>
<trkpt lat="-26.8160564" lon="152.7483804">
<ele>385.578</ele>
<time>2017-10-25T04:04:20.094Z</time>
</trkpt>
<trkpt lat="-26.8161213" lon="152.7484867">
<ele>387.970</ele>
<time>2017-10-25T04:04:21.634Z</time>
</trkpt>
<trkpt lat="-26.8161914" lon="152.7486562">
<ele>391.132</ele>
<time>2017-10-25T04:04:24.051Z</time>
</trkpt>
<trkpt lat="-26.8161917" lon="152.7488614">
<ele>394.956</ele>
<time>2017-10-25T04:04:26.788Z</time>
</trkpt>
<trkpt lat="-26.8161883" lon="152.7490677">
<ele>399.204</ele>
<time>2017-10-25T04:04:29.231Z</time>
</trkpt>
<trkpt lat="-26.8161288" lon="152.7491547">
<ele>403.600</ele>
<time>2017-10-25T04:04:30.584Z</time>
</trkpt>
<trkpt lat="-26.8160165" lon="152.7492280">
<ele>408.159</ele>
<time>2017-10-25T04:04:32.530Z</time>
</trkpt>
<trkpt lat="-26.8159062" lon="152.7493256">
<ele>412.964</ele>
<time>2017-10-25T04:04:34.921Z</time>
</trkpt>
<trkpt lat="-26.8157998" lon="152.7494076">
<ele>417.811</ele>
<time>2017-10-25T04:04:37.774Z</time>
</trkpt>
<trkpt lat="-26.8157231" lon="152.7495087">
<ele>422.527</ele>
<time>2017-10-25T04:04:41.034Z</time>
</trkpt>
<trkpt lat="-26.8157231" lon="152.7495087">
<ele>426.561</ele>
<time>2017-10-25T04:04:46.034Z</time>
</trkpt>
<trkpt lat="-26.8157231" lon="152.7495087">
<ele>428.562</ele>
<time>2017-10-25T04:04:46.134Z</time>
</trkpt>
<trkpt lat="-26.8155605" lon="152.7496801">
<ele>428.194</ele>
<time>2017-10-25T04:04:52.373Z</time>
</trkpt>
<trkpt lat="-26.8154865" lon="152.7498112">
<ele>428.715</ele>
<time>2017-10-25T04:04:54.516Z</time>
</trkpt>
<trkpt lat="-26.8154058" lon="152.7499338">
<ele>432.543</ele>
<time>2017-10-25T04:04:56.459Z</time>
</trkpt>
<trkpt lat="-26.8153840" lon="152.7501061">
<ele>437.370</ele>
<time>2017-10-25T04:04:58.691Z</time>
</trkpt>
<trkpt lat="-26.8153696" lon="152.7502600">
<ele>440.642</ele>
<time>2017-10-25T04:05:00.870Z</time>
</trkpt>
<trkpt lat="-26.8153099" lon="152.7503678">
<ele>442.734</ele>
<time>2017-10-25T04:05:02.689Z</time>
</trkpt>
<trkpt lat="-26.8151933" lon="152.7504626">
<ele>444.398</ele>
<time>2017-10-25T04:05:04.853Z</time>
</trkpt>
<trkpt lat="-26.8151459" lon="152.7506128">
<ele>445.909</ele>
<time>2017-10-25T04:05:06.755Z</time>
</trkpt>
<trkpt lat="-26.8151869" lon="152.7508178">
<ele>447.253</ele>
<time>2017-10-25T04:05:09.164Z</time>
</trkpt>
<trkpt lat="-26.8152495" lon="152.7509944">
<ele>448.492</ele>
<time>2017-10-25T04:05:11.952Z</time>
</trkpt>
<trkpt lat="-26.8152246" lon="152.7511319">
<ele>449.799</ele>
<time>2017-10-25T04:05:14.387Z</time>
</trkpt>
<trkpt lat="-26.8151563" lon="152.7512742">
<ele>451.231</ele>
<time>2017-10-25T04:05:16.881Z</time>
</trkpt>
<trkpt lat="-26.8150558" lon="152.7513582">
<ele>452.790</ele>
<time>2017-10-25T04:05:18.657Z</time>
</trkpt>
<trkpt lat="-26.8149297" lon="152.7514341">
<ele>454.423</ele>
<time>2017-10-25T04:05:20.416Z</time>
</trkpt>
<trkpt lat="-26.8148297" lon="152.7515736">
<ele>455.901</ele>
<time>2017-10-25T04:05:22.259Z</time>
</trkpt>
<trkpt lat="-26.8147405" lon="152.7517686">
<ele>457.043</ele>
<time>2017-10-25T04:05:24.625Z</time>
</trkpt>
<trkpt lat="-26.8146877" lon="152.7519524">
<ele>457.935</ele>
<time>2017-10-25T04:05:26.732Z</time>
</trkpt>
<trkpt lat="-26.8146545" lon="152.7521208">
<ele>458.809</ele>
<time>2017-10-25T04:05:28.432Z</time>
</trkpt>
<trkpt lat="-26.8146619" lon="152.7523292">
<ele>459.812</ele>
<time>2017-10-25T04:05:30.649Z</time>
</trkpt>
<trkpt lat="-26.8146450" lon="152.7525354">
<ele>461.001</ele>
<time>2017-10-25T04:05:33.472Z</time>
</trkpt>
<trkpt lat="-26.8145978" lon="152.7526761">
<ele>462.429</ele>
<time>2017-10-25T04:05:35.250Z</time>
</trkpt>
<trkpt lat="-26.8144770" lon="152.7527361">
<ele>463.985</ele>
<time>2017-10-25T04:05:36.633Z</time>
</trkpt>
<trkpt lat="-26.8142829" lon="152.7526800">
<ele>465.337</ele>
<time>2017-10-25T04:05:38.585Z</time>
</trkpt>
<trkpt lat="-26.8140760" lon="152.7526821">
<ele>466.265</ele>
<time>2017-10-25T04:05:40.450Z</time>
</trkpt>
<trkpt lat="-26.8138820" lon="152.7528387">
<ele>466.876</ele>
<time>2017-10-25T04:05:42.521Z</time>
</trkpt>
<trkpt lat="-26.8137262" lon="152.7530543">
<ele>467.366</ele>
<time>2017-10-25T04:05:44.723Z</time>
</trkpt>
<trkpt lat="-26.8135728" lon="152.7532580">
<ele>467.800</ele>
<time>2017-10-25T04:05:46.871Z</time>
</trkpt>
<trkpt lat="-26.8134279" lon="152.7534367">
<ele>468.216</ele>
<time>2017-10-25T04:05:48.705Z</time>
</trkpt>
<trkpt lat="-26.8133275" lon="152.7536818">
<ele>468.590</ele>
<time>2017-10-25T04:05:50.741Z</time>
</trkpt>
<trkpt lat="-26.8131549" lon="152.7540602">
<ele>468.885</ele>
<time>2017-10-25T04:05:54.003Z</time>
</trkpt>
<trkpt lat="-26.8129983" lon="152.7544235">
<ele>469.211</ele>
<time>2017-10-25T04:05:57.214Z</time>
</trkpt>
<trkpt lat="-26.8128514" lon="152.7547466">
<ele>469.613</ele>
<time>2017-10-25T04:05:59.945Z</time>
</trkpt>
<trkpt lat="-26.8126461" lon="152.7550767">
<ele>470.001</ele>
<time>2017-10-25T04:06:02.727Z</time>
</trkpt>
<trkpt lat="-26.8124121" lon="152.7554527">
<ele>477.975</ele>
<time>2017-10-25T04:06:05.806Z</time>
</trkpt>
<trkpt lat="-26.8122439" lon="152.7558695">
<ele>498.262</ele>
<time>2017-10-25T04:06:09.195Z</time>
</trkpt>
<trkpt lat="-26.8121740" lon="152.7562812">
<ele>519.036</ele>
<time>2017-10-25T04:06:12.752Z</time>
</trkpt>
<trkpt lat="-26.8122459" lon="152.7565842">
<ele>526.419</ele>
<time>2017-10-25T04:06:15.107Z</time>
</trkpt>
<trkpt lat="-26.8125625" lon="152.7568123">
<ele>519.320</ele>
<time>2017-10-25T04:06:17.867Z</time>
</trkpt>
<trkpt lat="-26.8128888" lon="152.7571658">
<ele>504.341</ele>
<time>2017-10-25T04:06:21.164Z</time>
</trkpt>
<trkpt lat="-26.8131846" lon="152.7575060">
<ele>490.569</ele>
<time>2017-10-25T04:06:24.351Z</time>
</trkpt>
<trkpt lat="-26.8133973" lon="152.7578622">
<ele>482.733</ele>
<time>2017-10-25T04:06:27.301Z</time>
</trkpt>
<trkpt lat="-26.8135636" lon="152.7581048">
<ele>483.759</ele>
<time>2017-10-25T04:06:29.653Z</time>
</trkpt>
<trkpt lat="-26.8137312" lon="152.7583258">
<ele>493.039</ele>
<time>2017-10-25T04:06:32.021Z</time>
</trkpt>
<trkpt lat="-26.8139025" lon="152.7584940">
<ele>502.210</ele>
<time>2017-10-25T04:06:34.096Z</time>
</trkpt>
<trkpt lat="-26.8140357" lon="152.7586871">
<ele>504.282</ele>
<time>2017-10-25T04:06:36.071Z</time>
</trkpt>
<trkpt lat="-26.8141180" lon="152.7589301">
<ele>501.110</ele>
<time>2017-10-25T04:06:38.122Z</time>
</trkpt>
<trkpt lat="-26.8141796" lon="152.7592956">
<ele>497.119</ele>
<time>2017-10-25T04:06:40.695Z</time>
</trkpt>
<trkpt lat="-26.8142428" lon="152.7595657">
<ele>499.535</ele>
<time>2017-10-25T04:06:42.474Z</time>
</trkpt>
<trkpt lat="-26.8143054" lon="152.7598738">
<ele>511.360</ele>
<time>2017-10-25T04:06:44.453Z</time>
</trkpt>
<trkpt lat="-26.8142652" lon="152.7602133">
<ele>524.111</ele>
<time>2017-10-25T04:06:46.618Z</time>
</trkpt>
<trkpt lat="-26.8142143" lon="152.7605289">
<ele>529.477</ele>
<time>2017-10-25T04:06:48.596Z</time>
</trkpt>
<trkpt lat="-26.8141981" lon="152.7608415">
<ele>528.889</ele>
<time>2017-10-25T04:06:50.473Z</time>
</trkpt>
<trkpt lat="-26.8142917" lon="152.7611678">
<ele>526.733</ele>
<time>2017-10-25T04:06:52.560Z</time>
</trkpt>
<trkpt lat="-26.8143931" lon="152.7615035">
<ele>526.099</ele>
<time>2017-10-25T04:06:54.745Z</time>
</trkpt>
<trkpt lat="-26.8144933" lon="152.7618123">
<ele>527.649</ele>
<time>2017-10-25T04:06:56.791Z</time>
</trkpt>
<trkpt lat="-26.8146555" lon="152.7621006">
<ele>530.578</ele>
<time>2017-10-25T04:06:59.129Z</time>
</trkpt>
<trkpt lat="-26.8148259" lon="152.7623900">
<ele>533.854</ele>
<time>2017-10-25T04:07:02.009Z</time>
</trkpt>
<trkpt lat="-26.8149260" lon="152.7626542">
<ele>536.852</ele>
<time>2017-10-25T04:07:04.413Z</time>
</trkpt>
<trkpt lat="-26.8150023" lon="152.7628655">
<ele>539.233</ele>
<time>2017-10-25T04:07:06.230Z</time>
</trkpt>
<trkpt lat="-26.8150804" lon="152.7630812">
<ele>540.853</ele>
<time>2017-10-25T04:07:08.050Z</time>
</trkpt>
<trkpt lat="-26.8151578" lon="152.7633212">
<ele>541.855</ele>
<time>2017-10-25T04:07:10.088Z</time>
</trkpt>
<trkpt lat="-26.8152303" lon="152.7635623">
<ele>542.495</ele>
<time>2017-10-25T04:07:12.734Z</time>
</trkpt>
<trkpt lat="-26.8152945" lon="152.7638125">
<ele>542.891</ele>
<time>2017-10-25T04:07:17.563Z</time>
</trkpt>
<trkpt lat="-26.8153204" lon="152.7640455">
<ele>542.980</ele>
<time>2017-10-25T04:07:21.006Z</time>
</trkpt>
<trkpt lat="-26.8152854" lon="152.7642089">
<ele>542.604</ele>
<time>2017-10-25T04:07:22.487Z</time>
</trkpt>
<trkpt lat="-26.8152470" lon="152.7643282">
<ele>541.774</ele>
<time>2017-10-25T04:07:23.356Z</time>
</trkpt>
<trkpt lat="-26.8152194" lon="152.7644475">
<ele>540.877</ele>
<time>2017-10-25T04:07:24.164Z</time>
</trkpt>
<trkpt lat="-26.8152561" lon="152.7646063">
<ele>540.319</ele>
<time>2017-10-25T04:07:25.044Z</time>
</trkpt>
<trkpt lat="-26.8154231" lon="152.7648015">
<ele>540.142</ele>
<time>2017-10-25T04:07:26.442Z</time>
</trkpt>
<trkpt lat="-26.8156456" lon="152.7650502">
<ele>540.145</ele>
<time>2017-10-25T04:07:28.108Z</time>
</trkpt>
<trkpt lat="-26.8159364" lon="152.7653368">
<ele>540.135</ele>
<time>2017-10-25T04:07:30.040Z</time>
</trkpt>
<trkpt lat="-26.8162509" lon="152.7656428">
<ele>540.062</ele>
<time>2017-10-25T04:07:32.129Z</time>
</trkpt>
<trkpt lat="-26.8165780" lon="152.7659061">
<ele>539.848</ele>
<time>2017-10-25T04:07:34.202Z</time>
</trkpt>
<trkpt lat="-26.8169155" lon="152.7661402">
<ele>538.957</ele>
<time>2017-10-25T04:07:36.293Z</time>
</trkpt>
<trkpt lat="-26.8172595" lon="152.7663224">
<ele>537.291</ele>
<time>2017-10-25T04:07:38.353Z</time>
</trkpt>
<trkpt lat="-26.8175726" lon="152.7665517">
<ele>535.875</ele>
<time>2017-10-25T04:07:40.428Z</time>
</trkpt>
<trkpt lat="-26.8178662" lon="152.7667852">
<ele>535.642</ele>
<time>2017-10-25T04:07:42.420Z</time>
</trkpt>
<trkpt lat="-26.8181670" lon="152.7669830">
<ele>536.625</ele>
<time>2017-10-25T04:07:44.279Z</time>
</trkpt>
<trkpt lat="-26.8185045" lon="152.7671102">
<ele>538.356</ele>
<time>2017-10-25T04:07:46.104Z</time>
</trkpt>
<trkpt lat="-26.8188978" lon="152.7671884">
<ele>540.186</ele>
<time>2017-10-25T04:07:48.121Z</time>
</trkpt>
<trkpt lat="-26.8192757" lon="152.7673020">
<ele>541.806</ele>
<time>2017-10-25T04:07:50.106Z</time>
</trkpt>
<trkpt lat="-26.8196525" lon="152.7674073">
<ele>543.471</ele>
<time>2017-10-25T04:07:52.116Z</time>
</trkpt>
<trkpt lat="-26.8200243" lon="152.7675323">
<ele>545.301</ele>
<time>2017-10-25T04:07:54.149Z</time>
</trkpt>
<trkpt lat="-26.8203944" lon="152.7676394">
<ele>546.875</ele>
<time>2017-10-25T04:07:56.176Z</time>
</trkpt>
<trkpt lat="-26.8207725" lon="152.7677495">
<ele>547.804</ele>
<time>2017-10-25T04:07:58.305Z</time>
</trkpt>
<trkpt lat="-26.8211126" lon="152.7678567">
<ele>548.241</ele>
<time>2017-10-25T04:08:00.240Z</time>
</trkpt>
<trkpt lat="-26.8214361" lon="152.7679511">
<ele>548.799</ele>
<time>2017-10-25T04:08:02.024Z</time>
</trkpt>
<trkpt lat="-26.8217871" lon="152.7681627">
<ele>549.852</ele>
<time>2017-10-25T04:08:04.074Z</time>
</trkpt>
<trkpt lat="-26.8220997" lon="152.7684098">
<ele>550.962</ele>
<time>2017-10-25T04:08:05.997Z</time>
</trkpt>
<trkpt lat="-26.8223882" lon="152.7687028">
<ele>551.314</ele>
<time>2017-10-25T04:08:07.949Z</time>
</trkpt>
<trkpt lat="-26.8226241" lon="152.7690683">
<ele>550.658</ele>
<time>2017-10-25T04:08:09.965Z</time>
</trkpt>
<trkpt lat="-26.8227965" lon="152.7694730">
<ele>549.550</ele>
<time>2017-10-25T04:08:11.971Z</time>
</trkpt>
<trkpt lat="-26.8229094" lon="152.7699056">
<ele>548.672</ele>
<time>2017-10-25T04:08:14.041Z</time>
</trkpt>
<trkpt lat="-26.8229247" lon="152.7705698">
<ele>548.049</ele>
<time>2017-10-25T04:08:17.301Z</time>
</trkpt>
<trkpt lat="-26.8228348" lon="152.7711609">
<ele>546.962</ele>
<time>2017-10-25T04:08:20.583Z</time>
</trkpt>
<trkpt lat="-26.8227375" lon="152.7716818">
<ele>544.376</ele>
<time>2017-10-25T04:08:23.779Z</time>
</trkpt>
<trkpt lat="-26.8225530" lon="152.7720760">
<ele>540.041</ele>
<time>2017-10-25T04:08:26.631Z</time>
</trkpt>
<trkpt lat="-26.8221704" lon="152.7723208">
<ele>533.600</ele>
<time>2017-10-25T04:08:30.021Z</time>
</trkpt>
<trkpt lat="-26.8218125" lon="152.7725345">
<ele>525.448</ele>
<time>2017-10-25T04:08:33.042Z</time>
</trkpt>
<trkpt lat="-26.8217430" lon="152.7729321">
<ele>518.172</ele>
<time>2017-10-25T04:08:35.424Z</time>
</trkpt>
<trkpt lat="-26.8219843" lon="152.7734156">
<ele>513.996</ele>
<time>2017-10-25T04:08:38.536Z</time>
</trkpt>
<trkpt lat="-26.8222073" lon="152.7739463">
<ele>512.603</ele>
<time>2017-10-25T04:08:42.082Z</time>
</trkpt>
<trkpt lat="-26.8221922" lon="152.7744632">
<ele>512.186</ele>
<time>2017-10-25T04:08:45.592Z</time>
</trkpt>
<trkpt lat="-26.8219489" lon="152.7748305">
<ele>509.885</ele>
<time>2017-10-25T04:08:48.711Z</time>
</trkpt>
<trkpt lat="-26.8219977" lon="152.7752274">
<ele>503.978</ele>
<time>2017-10-25T04:08:51.055Z</time>
</trkpt>
<trkpt lat="-26.8223873" lon="152.7754900">
<ele>495.481</ele>
<time>2017-10-25T04:08:53.729Z</time>
</trkpt>
<trkpt lat="-26.8227448" lon="152.7758582">
<ele>486.520</ele>
<time>2017-10-25T04:08:56.241Z</time>
</trkpt>
<trkpt lat="-26.8229564" lon="152.7763146">
<ele>478.874</ele>
<time>2017-10-25T04:08:58.543Z</time>
</trkpt>
<trkpt lat="-26.8232241" lon="152.7769166">
<ele>473.180</ele>
<time>2017-10-25T04:09:01.494Z</time>
</trkpt>
<trkpt lat="-26.8235382" lon="152.7775106">
<ele>468.097</ele>
<time>2017-10-25T04:09:04.433Z</time>
</trkpt>
<trkpt lat="-26.8238129" lon="152.7781444">
<ele>462.068</ele>
<time>2017-10-25T04:09:07.306Z</time>
</trkpt>
<trkpt lat="-26.8240842" lon="152.7788179">
<ele>455.328</ele>
<time>2017-10-25T04:09:10.255Z</time>
</trkpt>
<trkpt lat="-26.8242500" lon="152.7795673">
<ele>449.036</ele>
<time>2017-10-25T04:09:13.507Z</time>
</trkpt>
<trkpt lat="-26.8242558" lon="152.7800266">
<ele>443.965</ele>
<time>2017-10-25T04:09:15.512Z</time>
</trkpt>
<trkpt lat="-26.8243971" lon="152.7806439">
<ele>440.278</ele>
<time>2017-10-25T04:09:18.278Z</time>
</trkpt>
<trkpt lat="-26.8246093" lon="152.7810591">
<ele>437.612</ele>
<time>2017-10-25T04:09:20.373Z</time>
</trkpt>
<trkpt lat="-26.8250091" lon="152.7816041">
<ele>435.597</ele>
<time>2017-10-25T04:09:23.462Z</time>
</trkpt>
<trkpt lat="-26.8251062" lon="152.7822476">
<ele>433.852</ele>
<time>2017-10-25T04:09:26.235Z</time>
</trkpt>
<trkpt lat="-26.8250378" lon="152.7829793">
<ele>432.117</ele>
<time>2017-10-25T04:09:29.258Z</time>
</trkpt>
<trkpt lat="-26.8250080" lon="152.7837034">
<ele>430.654</ele>
<time>2017-10-25T04:09:32.224Z</time>
</trkpt>
<trkpt lat="-26.8249805" lon="152.7842156">
<ele>429.931</ele>
<time>2017-10-25T04:09:34.376Z</time>
</trkpt>
<trkpt lat="-26.8249630" lon="152.7846748">
<ele>430.430</ele>
<time>2017-10-25T04:09:36.364Z</time>
</trkpt>
<trkpt lat="-26.8249152" lon="152.7853659">
<ele>432.106</ele>
<time>2017-10-25T04:09:39.486Z</time>
</trkpt>
<trkpt lat="-26.8248811" lon="152.7860271">
<ele>433.112</ele>
<time>2017-10-25T04:09:42.628Z</time>
</trkpt>
<trkpt lat="-26.8247808" lon="152.7866371">
<ele>432.206</ele>
<time>2017-10-25T04:09:45.579Z</time>
</trkpt>
<trkpt lat="-26.8246587" lon="152.7870251">
<ele>430.584</ele>
<time>2017-10-25T04:09:47.493Z</time>
</trkpt>
<trkpt lat="-26.8242796" lon="152.7875246">
<ele>430.043</ele>
<time>2017-10-25T04:09:50.630Z</time>
</trkpt>
<trkpt lat="-26.8238816" lon="152.7879852">
<ele>432.390</ele>
<time>2017-10-25T04:09:53.845Z</time>
</trkpt>
<trkpt lat="-26.8236809" lon="152.7884892">
<ele>437.495</ele>
<time>2017-10-25T04:09:56.497Z</time>
</trkpt>
<trkpt lat="-26.8237812" lon="152.7891288">
<ele>441.779</ele>
<time>2017-10-25T04:09:59.402Z</time>
</trkpt>
<trkpt lat="-26.8241435" lon="152.7897035">
<ele>442.832</ele>
<time>2017-10-25T04:10:02.485Z</time>
</trkpt>
<trkpt lat="-26.8246195" lon="152.7901603">
<ele>441.796</ele>
<time>2017-10-25T04:10:05.754Z</time>
</trkpt>
<trkpt lat="-26.8249585" lon="152.7906956">
<ele>440.208</ele>
<time>2017-10-25T04:10:09.161Z</time>
</trkpt>
<trkpt lat="-26.8252828" lon="152.7911374">
<ele>438.612</ele>
<time>2017-10-25T04:10:12.318Z</time>
</trkpt>
<trkpt lat="-26.8257331" lon="152.7912484">
<ele>437.503</ele>
<time>2017-10-25T04:10:15.177Z</time>
</trkpt>
<trkpt lat="-26.8262356" lon="152.7913207">
<ele>437.373</ele>
<time>2017-10-25T04:10:18.285Z</time>
</trkpt>
<trkpt lat="-26.8266545" lon="152.7915577">
<ele>438.313</ele>
<time>2017-10-25T04:10:21.277Z</time>
</trkpt>
<trkpt lat="-26.8271143" lon="152.7917322">
<ele>439.846</ele>
<time>2017-10-25T04:10:24.355Z</time>
</trkpt>
<trkpt lat="-26.8275088" lon="152.7920165">
<ele>440.795</ele>
<time>2017-10-25T04:10:27.009Z</time>
</trkpt>
<trkpt lat="-26.8275472" lon="152.7926733">
<ele>439.785</ele>
<time>2017-10-25T04:10:30.075Z</time>
</trkpt>
<trkpt lat="-26.8275563" lon="152.7933864">
<ele>436.969</ele>
<time>2017-10-25T04:10:33.258Z</time>
</trkpt>
<trkpt lat="-26.8274605" lon="152.7940455">
<ele>434.060</ele>
<time>2017-10-25T04:10:36.212Z</time>
</trkpt>
<trkpt lat="-26.8272711" lon="152.7947112">
<ele>432.011</ele>
<time>2017-10-25T04:10:39.315Z</time>
</trkpt>
<trkpt lat="-26.8271781" lon="152.7951626">
<ele>428.118</ele>
<time>2017-10-25T04:10:41.373Z</time>
</trkpt>
<trkpt lat="-26.8271648" lon="152.7958582">
<ele>419.981</ele>
<time>2017-10-25T04:10:44.528Z</time>
</trkpt>
<trkpt lat="-26.8271836" lon="152.7963156">
<ele>409.894</ele>
<time>2017-10-25T04:10:46.728Z</time>
</trkpt>
<trkpt lat="-26.8271657" lon="152.7969776">
<ele>401.960</ele>
<time>2017-10-25T04:10:49.920Z</time>
</trkpt>
<trkpt lat="-26.8270601" lon="152.7973577">
<ele>399.491</ele>
<time>2017-10-25T04:10:51.658Z</time>
</trkpt>
<trkpt lat="-26.8269452" lon="152.7977504">
<ele>403.345</ele>
<time>2017-10-25T04:10:53.388Z</time>
</trkpt>
<trkpt lat="-26.8269535" lon="152.7982154">
<ele>409.589</ele>
<time>2017-10-25T04:10:55.302Z</time>
</trkpt>
<trkpt lat="-26.8269840" lon="152.7986962">
<ele>413.179</ele>
<time>2017-10-25T04:10:57.270Z</time>
</trkpt>
<trkpt lat="-26.8270414" lon="152.7991926">
<ele>411.905</ele>
<time>2017-10-25T04:10:59.291Z</time>
</trkpt>
<trkpt lat="-26.8270597" lon="152.7996539">
<ele>406.613</ele>
<time>2017-10-25T04:11:01.150Z</time>
</trkpt>
<trkpt lat="-26.8270730" lon="152.8001631">
<ele>400.140</ele>
<time>2017-10-25T04:11:03.221Z</time>
</trkpt>
<trkpt lat="-26.8270453" lon="152.8006650">
<ele>394.939</ele>
<time>2017-10-25T04:11:05.283Z</time>
</trkpt>
<trkpt lat="-26.8269306" lon="152.8011313">
<ele>391.759</ele>
<time>2017-10-25T04:11:07.258Z</time>
</trkpt>
<trkpt lat="-26.8267431" lon="152.8015677">
<ele>390.228</ele>
<time>2017-10-25T04:11:09.209Z</time>
</trkpt>
<trkpt lat="-26.8265094" lon="152.8019697">
<ele>389.594</ele>
<time>2017-10-25T04:11:11.131Z</time>
</trkpt>
<trkpt lat="-26.8262054" lon="152.8023310">
<ele>389.184</ele>
<time>2017-10-25T04:11:13.138Z</time>
</trkpt>
<trkpt lat="-26.8257198" lon="152.8028720">
<ele>388.599</ele>
<time>2017-10-25T04:11:16.377Z</time>
</trkpt>
<trkpt lat="-26.8252546" lon="152.8033569">
<ele>387.531</ele>
<time>2017-10-25T04:11:19.666Z</time>
</trkpt>
<trkpt lat="-26.8249184" lon="152.8039093">
<ele>385.248</ele>
<time>2017-10-25T04:11:23.021Z</time>
</trkpt>
<trkpt lat="-26.8247098" lon="152.8044655">
<ele>381.707</ele>
<time>2017-10-25T04:11:25.873Z</time>
</trkpt>
<trkpt lat="-26.8247449" lon="152.8050450">
<ele>378.093</ele>
<time>2017-10-25T04:11:28.279Z</time>
</trkpt>
<trkpt lat="-26.8250961" lon="152.8055744">
<ele>375.102</ele>
<time>2017-10-25T04:11:30.813Z</time>
</trkpt>
<trkpt lat="-26.8254447" lon="152.8059074">
<ele>372.495</ele>
<time>2017-10-25T04:11:32.730Z</time>
</trkpt>
<trkpt lat="-26.8259544" lon="152.8064603">
<ele>370.251</ele>
<time>2017-10-25T04:11:35.749Z</time>
</trkpt>
<trkpt lat="-26.8262994" lon="152.8068153">
<ele>368.225</ele>
<time>2017-10-25T04:11:37.803Z</time>
</trkpt>
<trkpt lat="-26.8266387" lon="152.8071586">
<ele>365.952</ele>
<time>2017-10-25T04:11:39.838Z</time>
</trkpt>
<trkpt lat="-26.8269352" lon="152.8075297">
<ele>363.207</ele>
<time>2017-10-25T04:11:41.835Z</time>
</trkpt>
<trkpt lat="-26.8271575" lon="152.8079696">
<ele>360.203</ele>
<time>2017-10-25T04:11:43.858Z</time>
</trkpt>
<trkpt lat="-26.8273722" lon="152.8083922">
<ele>357.121</ele>
<time>2017-10-25T04:11:45.784Z</time>
</trkpt>
<trkpt lat="-26.8274960" lon="152.8088754">
<ele>353.810</ele>
<time>2017-10-25T04:11:47.759Z</time>
</trkpt>
<trkpt lat="-26.8275856" lon="152.8093701">
<ele>350.210</ele>
<time>2017-10-25T04:11:49.780Z</time>
</trkpt>
<trkpt lat="-26.8278411" lon="152.8100694">
<ele>346.751</ele>
<time>2017-10-25T04:11:52.983Z</time>
</trkpt>
<trkpt lat="-26.8280963" lon="152.8107220">
<ele>343.553</ele>
<time>2017-10-25T04:11:56.393Z</time>
</trkpt>
<trkpt lat="-26.8281507" lon="152.8113422">
<ele>340.090</ele>
<time>2017-10-25T04:11:59.867Z</time>
</trkpt>
<trkpt lat="-26.8279955" lon="152.8118648">
<ele>336.102</ele>
<time>2017-10-25T04:12:03.216Z</time>
</trkpt>
<trkpt lat="-26.8279056" lon="152.8123446">
<ele>331.988</ele>
<time>2017-10-25T04:12:06.155Z</time>
</trkpt>
<trkpt lat="-26.8281949" lon="152.8127876">
<ele>328.308</ele>
<time>2017-10-25T04:12:09.083Z</time>
</trkpt>
<trkpt lat="-26.8286647" lon="152.8128390">
<ele>325.570</ele>
<time>2017-10-25T04:12:11.655Z</time>
</trkpt>
<trkpt lat="-26.8289926" lon="152.8126772">
<ele>324.008</ele>
<time>2017-10-25T04:12:13.495Z</time>
</trkpt>
<trkpt lat="-26.8295582" lon="152.8124930">
<ele>323.344</ele>
<time>2017-10-25T04:12:16.373Z</time>
</trkpt>
<trkpt lat="-26.8301607" lon="152.8125190">
<ele>322.966</ele>
<time>2017-10-25T04:12:19.194Z</time>
</trkpt>
<trkpt lat="-26.8307536" lon="152.8127726">
<ele>322.329</ele>
<time>2017-10-25T04:12:22.122Z</time>
</trkpt>
<trkpt lat="-26.8312713" lon="152.8132174">
<ele>321.291</ele>
<time>2017-10-25T04:12:25.185Z</time>
</trkpt>
<trkpt lat="-26.8317130" lon="152.8137411">
<ele>320.142</ele>
<time>2017-10-25T04:12:28.270Z</time>
</trkpt>
<trkpt lat="-26.8321092" lon="152.8142720">
<ele>318.927</ele>
<time>2017-10-25T04:12:31.209Z</time>
</trkpt>
<trkpt lat="-26.8325739" lon="152.8147192">
<ele>317.031</ele>
<time>2017-10-25T04:12:34.008Z</time>
</trkpt>
<trkpt lat="-26.8329952" lon="152.8148562">
<ele>314.098</ele>
<time>2017-10-25T04:12:36.002Z</time>
</trkpt>
<trkpt lat="-26.8336602" lon="152.8150573">
<ele>310.667</ele>
<time>2017-10-25T04:12:39.131Z</time>
</trkpt>
<trkpt lat="-26.8341938" lon="152.8154458">
<ele>307.061</ele>
<time>2017-10-25T04:12:42.085Z</time>
</trkpt>
<trkpt lat="-26.8344992" lon="152.8158815">
<ele>302.984</ele>
<time>2017-10-25T04:12:44.641Z</time>
</trkpt>
<trkpt lat="-26.8349018" lon="152.8163903">
<ele>298.838</ele>
<time>2017-10-25T04:12:48.981Z</time>
</trkpt>
<trkpt lat="-26.8351335" lon="152.8167140">
<ele>295.585</ele>
<time>2017-10-25T04:12:54.371Z</time>
</trkpt>
<trkpt lat="-26.8353168" lon="152.8169168">
<ele>293.526</ele>
<time>2017-10-25T04:12:58.548Z</time>
</trkpt>
<trkpt lat="-26.8354472" lon="152.8170731">
<ele>292.146</ele>
<time>2017-10-25T04:13:00.434Z</time>
</trkpt>
<trkpt lat="-26.8355355" lon="152.8171972">
<ele>290.740</ele>
<time>2017-10-25T04:13:01.508Z</time>
</trkpt>
<trkpt lat="-26.8355313" lon="152.8173428">
<ele>289.074</ele>
<time>2017-10-25T04:13:02.442Z</time>
</trkpt>
<trkpt lat="-26.8355577" lon="152.8174457">
<ele>287.410</ele>
<time>2017-10-25T04:13:03.085Z</time>
</trkpt>
<trkpt lat="-26.8356237" lon="152.8175496">
<ele>285.994</ele>
<time>2017-10-25T04:13:03.851Z</time>
</trkpt>
<trkpt lat="-26.8357744" lon="152.8176030">
<ele>284.921</ele>
<time>2017-10-25T04:13:04.928Z</time>
</trkpt>
<trkpt lat="-26.8360415" lon="152.8175411">
<ele>284.163</ele>
<time>2017-10-25T04:13:06.787Z</time>
</trkpt>
<trkpt lat="-26.8363558" lon="152.8175455">
<ele>283.677</ele>
<time>2017-10-25T04:13:08.876Z</time>
</trkpt>
<trkpt lat="-26.8366314" lon="152.8176504">
<ele>283.437</ele>
<time>2017-10-25T04:13:10.680Z</time>
</trkpt>
<trkpt lat="-26.8369116" lon="152.8176471">
<ele>283.349</ele>
<time>2017-10-25T04:13:12.282Z</time>
</trkpt>
<trkpt lat="-26.8372113" lon="152.8175239">
<ele>283.243</ele>
<time>2017-10-25T04:13:13.966Z</time>
</trkpt>
<trkpt lat="-26.8375246" lon="152.8173720">
<ele>282.867</ele>
<time>2017-10-25T04:13:15.762Z</time>
</trkpt>
<trkpt lat="-26.8379095" lon="152.8173697">
<ele>282.032</ele>
<time>2017-10-25T04:13:17.808Z</time>
</trkpt>
<trkpt lat="-26.8384950" lon="152.8176108">
<ele>280.877</ele>
<time>2017-10-25T04:13:21.370Z</time>
</trkpt>
<trkpt lat="-26.8388647" lon="152.8175946">
<ele>279.607</ele>
<time>2017-10-25T04:13:23.661Z</time>
</trkpt>
<trkpt lat="-26.8391958" lon="152.8173889">
<ele>278.264</ele>
<time>2017-10-25T04:13:26.125Z</time>
</trkpt>
<trkpt lat="-26.8394043" lon="152.8170952">
<ele>276.813</ele>
<time>2017-10-25T04:13:28.362Z</time>
</trkpt>
<trkpt lat="-26.8396553" lon="152.8166629">
<ele>275.202</ele>
<time>2017-10-25T04:13:31.425Z</time>
</trkpt>
<trkpt lat="-26.8399474" lon="152.8162947">
<ele>273.296</ele>
<time>2017-10-25T04:13:34.248Z</time>
</trkpt>
<trkpt lat="-26.8403974" lon="152.8162618">
<ele>270.907</ele>
<time>2017-10-25T04:13:37.067Z</time>
</trkpt>
<trkpt lat="-26.8408662" lon="152.8164001">
<ele>268.157</ele>
<time>2017-10-25T04:13:40.135Z</time>
</trkpt>
<trkpt lat="-26.8412418" lon="152.8167952">
<ele>265.294</ele>
<time>2017-10-25T04:13:43.634Z</time>
</trkpt>
<trkpt lat="-26.8415087" lon="152.8172870">
<ele>261.787</ele>
<time>2017-10-25T04:13:47.244Z</time>
</trkpt>
<trkpt lat="-26.8417555" lon="152.8176692">
<ele>256.995</ele>
<time>2017-10-25T04:13:50.108Z</time>
</trkpt>
<trkpt lat="-26.8422170" lon="152.8177440">
<ele>251.343</ele>
<time>2017-10-25T04:13:53.166Z</time>
</trkpt>
<trkpt lat="-26.8426606" lon="152.8177671">
<ele>245.933</ele>
<time>2017-10-25T04:13:55.998Z</time>
</trkpt>
<trkpt lat="-26.8430327" lon="152.8180537">
<ele>241.440</ele>
<time>2017-10-25T04:13:58.809Z</time>
</trkpt>
<trkpt lat="-26.8433613" lon="152.8184667">
<ele>237.613</ele>
<time>2017-10-25T04:14:01.800Z</time>
</trkpt>
<trkpt lat="-26.8438059" lon="152.8186547">
<ele>233.763</ele>
<time>2017-10-25T04:14:04.547Z</time>
</trkpt>
<trkpt lat="-26.8443359" lon="152.8186461">
<ele>229.823</ele>
<time>2017-10-25T04:14:07.429Z</time>
</trkpt>
<trkpt lat="-26.8448810" lon="152.8186367">
<ele>226.308</ele>
<time>2017-10-25T04:14:10.217Z</time>
</trkpt>
<trkpt lat="-26.8453592" lon="152.8189368">
<ele>223.413</ele>
<time>2017-10-25T04:14:13.001Z</time>
</trkpt>
<trkpt lat="-26.8456634" lon="152.8192401">
<ele>220.395</ele>
<time>2017-10-25T04:14:15.066Z</time>
</trkpt>
<trkpt lat="-26.8461226" lon="152.8196852">
<ele>216.474</ele>
<time>2017-10-25T04:14:18.095Z</time>
</trkpt>
<trkpt lat="-26.8466328" lon="152.8200012">
<ele>211.628</ele>
<time>2017-10-25T04:14:20.990Z</time>
</trkpt>
<trkpt lat="-26.8470537" lon="152.8199486">
<ele>206.405</ele>
<time>2017-10-25T04:14:23.051Z</time>
</trkpt>
<trkpt lat="-26.8476344" lon="152.8197282">
<ele>201.843</ele>
<time>2017-10-25T04:14:25.907Z</time>
</trkpt>
<trkpt lat="-26.8480589" lon="152.8192354">
<ele>198.737</ele>
<time>2017-10-25T04:14:28.612Z</time>
</trkpt>
<trkpt lat="-26.8482625" lon="152.8185363">
<ele>196.557</ele>
<time>2017-10-25T04:14:31.533Z</time>
</trkpt>
<trkpt lat="-26.8483398" lon="152.8177813">
<ele>194.351</ele>
<time>2017-10-25T04:14:34.680Z</time>
</trkpt>
<trkpt lat="-26.8484122" lon="152.8170690">
<ele>191.851</ele>
<time>2017-10-25T04:14:37.668Z</time>
</trkpt>
<trkpt lat="-26.8486831" lon="152.8164138">
<ele>189.153</ele>
<time>2017-10-25T04:14:40.568Z</time>
</trkpt>
<trkpt lat="-26.8492263" lon="152.8159528">
<ele>186.108</ele>
<time>2017-10-25T04:14:43.533Z</time>
</trkpt>
<trkpt lat="-26.8496484" lon="152.8157659">
<ele>182.507</ele>
<time>2017-10-25T04:14:45.483Z</time>
</trkpt>
<trkpt lat="-26.8503800" lon="152.8157055">
<ele>178.753</ele>
<time>2017-10-25T04:14:48.628Z</time>
</trkpt>
<trkpt lat="-26.8510823" lon="152.8157446">
<ele>175.583</ele>
<time>2017-10-25T04:14:51.608Z</time>
</trkpt>
<trkpt lat="-26.8517986" lon="152.8157404">
<ele>173.216</ele>
<time>2017-10-25T04:14:54.635Z</time>
</trkpt>
<trkpt lat="-26.8522731" lon="152.8157246">
<ele>171.540</ele>
<time>2017-10-25T04:14:56.637Z</time>
</trkpt>
<trkpt lat="-26.8529624" lon="152.8157065">
<ele>170.558</ele>
<time>2017-10-25T04:14:59.557Z</time>
</trkpt>
<trkpt lat="-26.8536881" lon="152.8157053">
<ele>170.184</ele>
<time>2017-10-25T04:15:02.663Z</time>
</trkpt>
<trkpt lat="-26.8543770" lon="152.8156589">
<ele>169.955</ele>
<time>2017-10-25T04:15:05.528Z</time>
</trkpt>
<trkpt lat="-26.8550818" lon="152.8156282">
<ele>169.167</ele>
<time>2017-10-25T04:15:08.388Z</time>
</trkpt>
<trkpt lat="-26.8555697" lon="152.8156232">
<ele>167.175</ele>
<time>2017-10-25T04:15:10.348Z</time>
</trkpt>
<trkpt lat="-26.8563047" lon="152.8156455">
<ele>163.803</ele>
<time>2017-10-25T04:15:13.172Z</time>
</trkpt>
<trkpt lat="-26.8567897" lon="152.8156143">
<ele>159.353</ele>
<time>2017-10-25T04:15:14.937Z</time>
</trkpt>
<trkpt lat="-26.8572808" lon="152.8156197">
<ele>154.350</ele>
<time>2017-10-25T04:15:16.661Z</time>
</trkpt>
<trkpt lat="-26.8581353" lon="152.8155861">
<ele>149.340</ele>
<time>2017-10-25T04:15:19.733Z</time>
</trkpt>
<trkpt lat="-26.8587389" lon="152.8155931">
<ele>144.621</ele>
<time>2017-10-25T04:15:22.023Z</time>
</trkpt>
<trkpt lat="-26.8595249" lon="152.8155904">
<ele>140.288</ele>
<time>2017-10-25T04:15:25.146Z</time>
</trkpt>
<trkpt lat="-26.8602497" lon="152.8155728">
<ele>136.351</ele>
<time>2017-10-25T04:15:28.026Z</time>
</trkpt>
<trkpt lat="-26.8609840" lon="152.8155542">
<ele>132.888</ele>
<time>2017-10-25T04:15:30.880Z</time>
</trkpt>
<trkpt lat="-26.8617389" lon="152.8154075">
<ele>130.317</ele>
<time>2017-10-25T04:15:33.839Z</time>
</trkpt>
<trkpt lat="-26.8624778" lon="152.8151235">
<ele>128.779</ele>
<time>2017-10-25T04:15:36.890Z</time>
</trkpt>
<trkpt lat="-26.8629487" lon="152.8148978">
<ele>127.818</ele>
<time>2017-10-25T04:15:38.926Z</time>
</trkpt>
<trkpt lat="-26.8634071" lon="152.8146837">
<ele>127.119</ele>
<time>2017-10-25T04:15:40.934Z</time>
</trkpt>
<trkpt lat="-26.8640689" lon="152.8142570">
<ele>126.622</ele>
<time>2017-10-25T04:15:44.116Z</time>
</trkpt>
<trkpt lat="-26.8646331" lon="152.8137718">
<ele>126.192</ele>
<time>2017-10-25T04:15:47.081Z</time>
</trkpt>
<trkpt lat="-26.8651563" lon="152.8132571">
<ele>125.620</ele>
<time>2017-10-25T04:15:49.959Z</time>
</trkpt>
<trkpt lat="-26.8655306" lon="152.8128968">
<ele>124.901</ele>
<time>2017-10-25T04:15:52.003Z</time>
</trkpt>
<trkpt lat="-26.8659174" lon="152.8125527">
<ele>124.260</ele>
<time>2017-10-25T04:15:54.047Z</time>
</trkpt>
<trkpt lat="-26.8664578" lon="152.8120599">
<ele>123.791</ele>
<time>2017-10-25T04:15:56.906Z</time>
</trkpt>
<trkpt lat="-26.8668173" lon="152.8117152">
<ele>123.416</ele>
<time>2017-10-25T04:15:58.851Z</time>
</trkpt>
<trkpt lat="-26.8672106" lon="152.8113670">
<ele>123.131</ele>
<time>2017-10-25T04:16:00.921Z</time>
</trkpt>
<trkpt lat="-26.8677782" lon="152.8108417">
<ele>122.987</ele>
<time>2017-10-25T04:16:03.953Z</time>
</trkpt>
<trkpt lat="-26.8683321" lon="152.8103384">
<ele>122.890</ele>
<time>2017-10-25T04:16:06.808Z</time>
</trkpt>
<trkpt lat="-26.8689151" lon="152.8098018">
<ele>122.752</ele>
<time>2017-10-25T04:16:09.813Z</time>
</trkpt>
<trkpt lat="-26.8692718" lon="152.8094152">
<ele>122.803</ele>
<time>2017-10-25T04:16:11.799Z</time>
</trkpt>
<trkpt lat="-26.8695986" lon="152.8090186">
<ele>123.382</ele>
<time>2017-10-25T04:16:13.735Z</time>
</trkpt>
<trkpt lat="-26.8699999" lon="152.8083347">
<ele>124.394</ele>
<time>2017-10-25T04:16:16.697Z</time>
</trkpt>
<trkpt lat="-26.8702404" lon="152.8078406">
<ele>125.510</ele>
<time>2017-10-25T04:16:18.738Z</time>
</trkpt>
<trkpt lat="-26.8704278" lon="152.8073476">
<ele>126.658</ele>
<time>2017-10-25T04:16:20.671Z</time>
</trkpt>
<trkpt lat="-26.8706986" lon="152.8065663">
<ele>128.012</ele>
<time>2017-10-25T04:16:23.660Z</time>
</trkpt>
<trkpt lat="-26.8708632" lon="152.8057531">
<ele>129.717</ele>
<time>2017-10-25T04:16:26.643Z</time>
</trkpt>
<trkpt lat="-26.8709709" lon="152.8052115">
<ele>131.544</ele>
<time>2017-10-25T04:16:28.682Z</time>
</trkpt>
<trkpt lat="-26.8711568" lon="152.8044244">
<ele>133.004</ele>
<time>2017-10-25T04:16:31.731Z</time>
</trkpt>
<trkpt lat="-26.8712738" lon="152.8039365">
<ele>133.833</ele>
<time>2017-10-25T04:16:33.579Z</time>
</trkpt>
<trkpt lat="-26.8714690" lon="152.8031932">
<ele>134.133</ele>
<time>2017-10-25T04:16:36.273Z</time>
</trkpt>
<trkpt lat="-26.8716176" lon="152.8026185">
<ele>134.284</ele>
<time>2017-10-25T04:16:38.323Z</time>
</trkpt>
<trkpt lat="-26.8718256" lon="152.8020519">
<ele>134.653</ele>
<time>2017-10-25T04:16:40.457Z</time>
</trkpt>
<trkpt lat="-26.8721392" lon="152.8012735">
<ele>135.269</ele>
<time>2017-10-25T04:16:43.537Z</time>
</trkpt>
<trkpt lat="-26.8723741" lon="152.8007835">
<ele>136.023</ele>
<time>2017-10-25T04:16:45.601Z</time>
</trkpt>
<trkpt lat="-26.8726892" lon="152.8000803">
<ele>136.767</ele>
<time>2017-10-25T04:16:48.445Z</time>
</trkpt>
<trkpt lat="-26.8730224" lon="152.7993789">
<ele>137.045</ele>
<time>2017-10-25T04:16:51.215Z</time>
</trkpt>
<trkpt lat="-26.8732683" lon="152.7988650">
<ele>136.571</ele>
<time>2017-10-25T04:16:53.247Z</time>
</trkpt>
<trkpt lat="-26.8736119" lon="152.7980785">
<ele>135.781</ele>
<time>2017-10-25T04:16:56.318Z</time>
</trkpt>
<trkpt lat="-26.8738177" lon="152.7975991">
<ele>136.317</ele>
<time>2017-10-25T04:16:58.170Z</time>
</trkpt>
<trkpt lat="-26.8741344" lon="152.7968553">
<ele>138.984</ele>
<time>2017-10-25T04:17:01.034Z</time>
</trkpt>
<trkpt lat="-26.8744830" lon="152.7960920">
<ele>141.976</ele>
<time>2017-10-25T04:17:04.030Z</time>
</trkpt>
<trkpt lat="-26.8747263" lon="152.7956008">
<ele>143.462</ele>
<time>2017-10-25T04:17:06.011Z</time>
</trkpt>
<trkpt lat="-26.8750757" lon="152.7948546">
<ele>143.582</ele>
<time>2017-10-25T04:17:09.007Z</time>
</trkpt>
<trkpt lat="-26.8754107" lon="152.7941165">
<ele>142.819</ele>
<time>2017-10-25T04:17:12.033Z</time>
</trkpt>
<trkpt lat="-26.8756207" lon="152.7936036">
<ele>141.343</ele>
<time>2017-10-25T04:17:14.141Z</time>
</trkpt>
<trkpt lat="-26.8759303" lon="152.7929000">
<ele>139.517</ele>
<time>2017-10-25T04:17:17.067Z</time>
</trkpt>
<trkpt lat="-26.8762497" lon="152.7922070">
<ele>138.089</ele>
<time>2017-10-25T04:17:19.936Z</time>
</trkpt>
<trkpt lat="-26.8764667" lon="152.7917302">
<ele>137.271</ele>
<time>2017-10-25T04:17:21.911Z</time>
</trkpt>
<trkpt lat="-26.8767808" lon="152.7910088">
<ele>136.632</ele>
<time>2017-10-25T04:17:24.844Z</time>
</trkpt>
<trkpt lat="-26.8770144" lon="152.7905422">
<ele>135.947</ele>
<time>2017-10-25T04:17:26.745Z</time>
</trkpt>
<trkpt lat="-26.8772791" lon="152.7900869">
<ele>135.004</ele>
<time>2017-10-25T04:17:28.603Z</time>
</trkpt>
<trkpt lat="-26.8778085" lon="152.7894092">
<ele>133.711</ele>
<time>2017-10-25T04:17:31.637Z</time>
</trkpt>
<trkpt lat="-26.8781931" lon="152.7889869">
<ele>132.601</ele>
<time>2017-10-25T04:17:33.673Z</time>
</trkpt>
<trkpt lat="-26.8788105" lon="152.7884235">
<ele>132.129</ele>
<time>2017-10-25T04:17:36.673Z</time>
</trkpt>
<trkpt lat="-26.8792402" lon="152.7881062">
<ele>132.312</ele>
<time>2017-10-25T04:17:38.622Z</time>
</trkpt>
<trkpt lat="-26.8799495" lon="152.7876857">
<ele>132.934</ele>
<time>2017-10-25T04:17:41.690Z</time>
</trkpt>
<trkpt lat="-26.8806765" lon="152.7873759">
<ele>133.706</ele>
<time>2017-10-25T04:17:44.705Z</time>
</trkpt>
<trkpt lat="-26.8814304" lon="152.7871184">
<ele>135.079</ele>
<time>2017-10-25T04:17:47.798Z</time>
</trkpt>
<trkpt lat="-26.8821558" lon="152.7869822">
<ele>137.283</ele>
<time>2017-10-25T04:17:50.666Z</time>
</trkpt>
<trkpt lat="-26.8829248" lon="152.7869589">
<ele>139.097</ele>
<time>2017-10-25T04:17:53.562Z</time>
</trkpt>
<trkpt lat="-26.8834632" lon="152.7869309">
<ele>138.654</ele>
<time>2017-10-25T04:17:55.578Z</time>
</trkpt>
<trkpt lat="-26.8842753" lon="152.7869701">
<ele>135.537</ele>
<time>2017-10-25T04:17:58.668Z</time>
</trkpt>
<trkpt lat="-26.8848040" lon="152.7870208">
<ele>131.690</ele>
<time>2017-10-25T04:18:00.720Z</time>
</trkpt>
<trkpt lat="-26.8853089" lon="152.7870948">
<ele>129.697</ele>
<time>2017-10-25T04:18:02.708Z</time>
</trkpt>
<trkpt lat="-26.8858108" lon="152.7870931">
<ele>129.978</ele>
<time>2017-10-25T04:18:04.676Z</time>
</trkpt>
<trkpt lat="-26.8863057" lon="152.7870648">
<ele>131.153</ele>
<time>2017-10-25T04:18:06.627Z</time>
</trkpt>
<trkpt lat="-26.8868246" lon="152.7869565">
<ele>132.082</ele>
<time>2017-10-25T04:18:08.714Z</time>
</trkpt>
<trkpt lat="-26.8872975" lon="152.7868446">
<ele>132.699</ele>
<time>2017-10-25T04:18:10.609Z</time>
</trkpt>
<trkpt lat="-26.8877814" lon="152.7867083">
<ele>133.183</ele>
<time>2017-10-25T04:18:12.547Z</time>
</trkpt>
<trkpt lat="-26.8882788" lon="152.7865303">
<ele>133.555</ele>
<time>2017-10-25T04:18:14.583Z</time>
</trkpt>
<trkpt lat="-26.8887579" lon="152.7862826">
<ele>133.245</ele>
<time>2017-10-25T04:18:16.654Z</time>
</trkpt>
<trkpt lat="-26.8892056" lon="152.7860139">
<ele>131.220</ele>
<time>2017-10-25T04:18:18.673Z</time>
</trkpt>
<trkpt lat="-26.8898264" lon="152.7855893">
<ele>127.902</ele>
<time>2017-10-25T04:18:21.594Z</time>
</trkpt>
<trkpt lat="-26.8904410" lon="152.7851263">
<ele>125.427</ele>
<time>2017-10-25T04:18:24.578Z</time>
</trkpt>
<trkpt lat="-26.8910526" lon="152.7846658">
<ele>124.905</ele>
<time>2017-10-25T04:18:27.520Z</time>
</trkpt>
<trkpt lat="-26.8916870" lon="152.7841874">
<ele>125.499</ele>
<time>2017-10-25T04:18:30.581Z</time>
</trkpt>
<trkpt lat="-26.8923178" lon="152.7837535">
<ele>126.150</ele>
<time>2017-10-25T04:18:33.590Z</time>
</trkpt>
<trkpt lat="-26.8929076" lon="152.7833250">
<ele>126.440</ele>
<time>2017-10-25T04:18:36.467Z</time>
</trkpt>
<trkpt lat="-26.8935053" lon="152.7828567">
<ele>126.400</ele>
<time>2017-10-25T04:18:39.459Z</time>
</trkpt>
<trkpt lat="-26.8941106" lon="152.7824136">
<ele>126.247</ele>
<time>2017-10-25T04:18:42.431Z</time>
</trkpt>
<trkpt lat="-26.8947202" lon="152.7819552">
<ele>126.139</ele>
<time>2017-10-25T04:18:45.411Z</time>
</trkpt>
<trkpt lat="-26.8953256" lon="152.7814888">
<ele>126.242</ele>
<time>2017-10-25T04:18:48.333Z</time>
</trkpt>
<trkpt lat="-26.8959819" lon="152.7810642">
<ele>127.426</ele>
<time>2017-10-25T04:18:51.324Z</time>
</trkpt>
<trkpt lat="-26.8966333" lon="152.7805988">
<ele>129.928</ele>
<time>2017-10-25T04:18:54.366Z</time>
</trkpt>
<trkpt lat="-26.8972939" lon="152.7801971">
<ele>131.727</ele>
<time>2017-10-25T04:18:57.301Z</time>
</trkpt>
<trkpt lat="-26.8979836" lon="152.7798203">
<ele>130.607</ele>
<time>2017-10-25T04:19:00.277Z</time>
</trkpt>
<trkpt lat="-26.8986628" lon="152.7794263">
<ele>127.311</ele>
<time>2017-10-25T04:19:03.241Z</time>
</trkpt>
<trkpt lat="-26.8993332" lon="152.7789868">
<ele>124.712</ele>
<time>2017-10-25T04:19:06.250Z</time>
</trkpt>
<trkpt lat="-26.8999931" lon="152.7785900">
<ele>124.279</ele>
<time>2017-10-25T04:19:09.168Z</time>
</trkpt>
<trkpt lat="-26.9004408" lon="152.7783326">
<ele>124.939</ele>
<time>2017-10-25T04:19:11.153Z</time>
</trkpt>
<trkpt lat="-26.9011237" lon="152.7780105">
<ele>125.432</ele>
<time>2017-10-25T04:19:14.105Z</time>
</trkpt>
<trkpt lat="-26.9018498" lon="152.7777679">
<ele>125.571</ele>
<time>2017-10-25T04:19:17.126Z</time>
</trkpt>
<trkpt lat="-26.9025709" lon="152.7775667">
<ele>125.581</ele>
<time>2017-10-25T04:19:20.060Z</time>
</trkpt>
<trkpt lat="-26.9033356" lon="152.7774484">
<ele>124.827</ele>
<time>2017-10-25T04:19:23.074Z</time>
</trkpt>
<trkpt lat="-26.9041026" lon="152.7774252">
<ele>122.420</ele>
<time>2017-10-25T04:19:26.108Z</time>
</trkpt>
<trkpt lat="-26.9048399" lon="152.7774489">
<ele>118.707</ele>
<time>2017-10-25T04:19:29.125Z</time>
</trkpt>
<trkpt lat="-26.9055616" lon="152.7773493">
<ele>115.168</ele>
<time>2017-10-25T04:19:32.161Z</time>
</trkpt>
<trkpt lat="-26.9062605" lon="152.7771804">
<ele>113.269</ele>
<time>2017-10-25T04:19:35.113Z</time>
</trkpt>
<trkpt lat="-26.9069746" lon="152.7770025">
<ele>113.400</ele>
<time>2017-10-25T04:19:38.043Z</time>
</trkpt>
<trkpt lat="-26.9076987" lon="152.7767062">
<ele>114.491</ele>
<time>2017-10-25T04:19:41.051Z</time>
</trkpt>
<trkpt lat="-26.9081591" lon="152.7764783">
<ele>115.163</ele>
<time>2017-10-25T04:19:42.991Z</time>
</trkpt>
<trkpt lat="-26.9088257" lon="152.7760659">
<ele>114.748</ele>
<time>2017-10-25T04:19:45.916Z</time>
</trkpt>
<trkpt lat="-26.9094980" lon="152.7756565">
<ele>113.368</ele>
<time>2017-10-25T04:19:48.921Z</time>
</trkpt>
<trkpt lat="-26.9100891" lon="152.7751821">
<ele>111.443</ele>
<time>2017-10-25T04:19:51.853Z</time>
</trkpt>
<trkpt lat="-26.9106520" lon="152.7746633">
<ele>109.607</ele>
<time>2017-10-25T04:19:54.806Z</time>
</trkpt>
<trkpt lat="-26.9112360" lon="152.7741610">
<ele>108.592</ele>
<time>2017-10-25T04:19:57.745Z</time>
</trkpt>
<trkpt lat="-26.9116351" lon="152.7737849">
<ele>108.567</ele>
<time>2017-10-25T04:19:59.807Z</time>
</trkpt>
<trkpt lat="-26.9122457" lon="152.7733084">
<ele>109.054</ele>
<time>2017-10-25T04:20:02.702Z</time>
</trkpt>
<trkpt lat="-26.9128969" lon="152.7728526">
<ele>109.389</ele>
<time>2017-10-25T04:20:05.619Z</time>
</trkpt>
<trkpt lat="-26.9136021" lon="152.7723965">
<ele>109.265</ele>
<time>2017-10-25T04:20:08.706Z</time>
</trkpt>
<trkpt lat="-26.9140621" lon="152.7721148">
<ele>108.789</ele>
<time>2017-10-25T04:20:10.717Z</time>
</trkpt>
<trkpt lat="-26.9147361" lon="152.7717164">
<ele>108.142</ele>
<time>2017-10-25T04:20:13.677Z</time>
</trkpt>
<trkpt lat="-26.9154193" lon="152.7713112">
<ele>107.409</ele>
<time>2017-10-25T04:20:16.726Z</time>
</trkpt>
<trkpt lat="-26.9160922" lon="152.7709270">
<ele>106.731</ele>
<time>2017-10-25T04:20:19.781Z</time>
</trkpt>
<trkpt lat="-26.9167265" lon="152.7705446">
<ele>106.300</ele>
<time>2017-10-25T04:20:22.786Z</time>
</trkpt>
<trkpt lat="-26.9173569" lon="152.7702195">
<ele>106.174</ele>
<time>2017-10-25T04:20:25.893Z</time>
</trkpt>
<trkpt lat="-26.9177417" lon="152.7699769">
<ele>106.200</ele>
<time>2017-10-25T04:20:28.190Z</time>
</trkpt>
<trkpt lat="-26.9182561" lon="152.7696815">
<ele>106.041</ele>
<time>2017-10-25T04:20:32.838Z</time>
</trkpt>
<trkpt lat="-26.9185722" lon="152.7695365">
<ele>105.535</ele>
<time>2017-10-25T04:20:36.800Z</time>
</trkpt>
<trkpt lat="-26.9186821" lon="152.7695224">
<ele>105.060</ele>
<time>2017-10-25T04:20:37.727Z</time>
</trkpt>
<trkpt lat="-26.9186988" lon="152.7698961">
<ele>105.132</ele>
<time>2017-10-25T04:20:40.123Z</time>
</trkpt>
<trkpt lat="-26.9187382" lon="152.7704179">
<ele>105.703</ele>
<time>2017-10-25T04:20:42.824Z</time>
</trkpt>
<trkpt lat="-26.9188454" lon="152.7710214">
<ele>106.283</ele>
<time>2017-10-25T04:20:45.610Z</time>
</trkpt>
<trkpt lat="-26.9190359" lon="152.7716770">
<ele>106.051</ele>
<time>2017-10-25T04:20:48.698Z</time>
</trkpt>
<trkpt lat="-26.9193227" lon="152.7722431">
<ele>104.611</ele>
<time>2017-10-25T04:20:51.827Z</time>
</trkpt>
<trkpt lat="-26.9195728" lon="152.7727561">
<ele>102.713</ele>
<time>2017-10-25T04:20:54.853Z</time>
</trkpt>
<trkpt lat="-26.9197609" lon="152.7732663">
<ele>101.227</ele>
<time>2017-10-25T04:20:57.755Z</time>
</trkpt>
<trkpt lat="-26.9199815" lon="152.7737988">
<ele>100.256</ele>
<time>2017-10-25T04:21:00.946Z</time>
</trkpt>
<trkpt lat="-26.9201108" lon="152.7741410">
<ele>99.955</ele>
<time>2017-10-25T04:21:03.169Z</time>
</trkpt>
<trkpt lat="-26.9202940" lon="152.7745716">
<ele>100.393</ele>
<time>2017-10-25T04:21:06.531Z</time>
</trkpt>
<trkpt lat="-26.9204223" lon="152.7749305">
<ele>101.168</ele>
<time>2017-10-25T04:21:10.272Z</time>
</trkpt>
<trkpt lat="-26.9205185" lon="152.7751865">
<ele>101.927</ele>
<time>2017-10-25T04:21:13.063Z</time>
</trkpt>
<trkpt lat="-26.9207093" lon="152.7751099">
<ele>102.543</ele>
<time>2017-10-25T04:21:14.823Z</time>
</trkpt>
<trkpt lat="-26.9210683" lon="152.7749805">
<ele>102.671</ele>
<time>2017-10-25T04:21:17.337Z</time>
</trkpt>
<trkpt lat="-26.9215749" lon="152.7748656">
<ele>102.079</ele>
<time>2017-10-25T04:21:19.967Z</time>
</trkpt>
<trkpt lat="-26.9222413" lon="152.7746416">
<ele>101.182</ele>
<time>2017-10-25T04:21:23.079Z</time>
</trkpt>
<trkpt lat="-26.9228739" lon="152.7744157">
<ele>100.785</ele>
<time>2017-10-25T04:21:26.107Z</time>
</trkpt>
<trkpt lat="-26.9234708" lon="152.7742421">
<ele>101.423</ele>
<time>2017-10-25T04:21:29.037Z</time>
</trkpt>
<trkpt lat="-26.9240670" lon="152.7740334">
<ele>102.883</ele>
<time>2017-10-25T04:21:32.026Z</time>
</trkpt>
<trkpt lat="-26.9246469" lon="152.7738126">
<ele>104.348</ele>
<time>2017-10-25T04:21:35.007Z</time>
</trkpt>
<trkpt lat="-26.9252275" lon="152.7736060">
<ele>105.226</ele>
<time>2017-10-25T04:21:38.062Z</time>
</trkpt>
<trkpt lat="-26.9257889" lon="152.7734217">
<ele>105.575</ele>
<time>2017-10-25T04:21:41.053Z</time>
</trkpt>
<trkpt lat="-26.9263426" lon="152.7732643">
<ele>105.733</ele>
<time>2017-10-25T04:21:43.952Z</time>
</trkpt>
<trkpt lat="-26.9269170" lon="152.7730741">
<ele>105.862</ele>
<time>2017-10-25T04:21:46.903Z</time>
</trkpt>
<trkpt lat="-26.9275053" lon="152.7728718">
<ele>105.940</ele>
<time>2017-10-25T04:21:49.829Z</time>
</trkpt>
<trkpt lat="-26.9281270" lon="152.7726935">
<ele>105.949</ele>
<time>2017-10-25T04:21:52.826Z</time>
</trkpt>
<trkpt lat="-26.9287446" lon="152.7724738">
<ele>105.898</ele>
<time>2017-10-25T04:21:55.772Z</time>
</trkpt>
<trkpt lat="-26.9291769" lon="152.7723133">
<ele>105.812</ele>
<time>2017-10-25T04:21:57.783Z</time>
</trkpt>
<trkpt lat="-26.9298455" lon="152.7720570">
<ele>105.628</ele>
<time>2017-10-25T04:22:00.798Z</time>
</trkpt>
<trkpt lat="-26.9304952" lon="152.7717806">
<ele>105.111</ele>
<time>2017-10-25T04:22:03.727Z</time>
</trkpt>
<trkpt lat="-26.9311459" lon="152.7715320">
<ele>104.205</ele>
<time>2017-10-25T04:22:06.777Z</time>
</trkpt>
<trkpt lat="-26.9317237" lon="152.7713472">
<ele>103.252</ele>
<time>2017-10-25T04:22:09.640Z</time>
</trkpt>
<trkpt lat="-26.9323203" lon="152.7712062">
<ele>102.469</ele>
<time>2017-10-25T04:22:12.521Z</time>
</trkpt>
<trkpt lat="-26.9329713" lon="152.7711782">
<ele>101.634</ele>
<time>2017-10-25T04:22:15.426Z</time>
</trkpt>
<trkpt lat="-26.9336801" lon="152.7714255">
<ele>100.411</ele>
<time>2017-10-25T04:22:18.587Z</time>
</trkpt>
<trkpt lat="-26.9343567" lon="152.7716251">
<ele>98.779</ele>
<time>2017-10-25T04:22:21.512Z</time>
</trkpt>
<trkpt lat="-26.9350642" lon="152.7718136">
<ele>97.257</ele>
<time>2017-10-25T04:22:24.637Z</time>
</trkpt>
<trkpt lat="-26.9354982" lon="152.7719090">
<ele>96.419</ele>
<time>2017-10-25T04:22:26.670Z</time>
</trkpt>
<trkpt lat="-26.9360853" lon="152.7720435">
<ele>96.259</ele>
<time>2017-10-25T04:22:29.795Z</time>
</trkpt>
<trkpt lat="-26.9365880" lon="152.7720012">
<ele>96.382</ele>
<time>2017-10-25T04:22:32.622Z</time>
</trkpt>
<trkpt lat="-26.9370563" lon="152.7716782">
<ele>96.434</ele>
<time>2017-10-25T04:22:35.650Z</time>
</trkpt>
<trkpt lat="-26.9375473" lon="152.7714167">
<ele>96.345</ele>
<time>2017-10-25T04:22:38.643Z</time>
</trkpt>
<trkpt lat="-26.9378501" lon="152.7711997">
<ele>96.260</ele>
<time>2017-10-25T04:22:40.588Z</time>
</trkpt>
<trkpt lat="-26.9382410" lon="152.7707099">
<ele>96.318</ele>
<time>2017-10-25T04:22:43.648Z</time>
</trkpt>
<trkpt lat="-26.9385803" lon="152.7701521">
<ele>96.718</ele>
<time>2017-10-25T04:22:46.746Z</time>
</trkpt>
<trkpt lat="-26.9389374" lon="152.7696387">
<ele>97.646</ele>
<time>2017-10-25T04:22:49.774Z</time>
</trkpt>
<trkpt lat="-26.9391583" lon="152.7692754">
<ele>99.164</ele>
<time>2017-10-25T04:22:51.884Z</time>
</trkpt>
<trkpt lat="-26.9394629" lon="152.7688139">
<ele>101.250</ele>
<time>2017-10-25T04:22:55.010Z</time>
</trkpt>
<trkpt lat="-26.9396603" lon="152.7685441">
<ele>103.773</ele>
<time>2017-10-25T04:22:57.088Z</time>
</trkpt>
<trkpt lat="-26.9399193" lon="152.7681539">
<ele>106.371</ele>
<time>2017-10-25T04:23:00.300Z</time>
</trkpt>
<trkpt lat="-26.9401291" lon="152.7678211">
<ele>108.463</ele>
<time>2017-10-25T04:23:03.190Z</time>
</trkpt>
<trkpt lat="-26.9403772" lon="152.7675421">
<ele>109.646</ele>
<time>2017-10-25T04:23:06.641Z</time>
</trkpt>
<trkpt lat="-26.9405555" lon="152.7673829">
<ele>110.022</ele>
<time>2017-10-25T04:23:09.596Z</time>
</trkpt>
<trkpt lat="-26.9407238" lon="152.7672648">
<ele>109.859</ele>
<time>2017-10-25T04:23:12.863Z</time>
</trkpt>
<trkpt lat="-26.9408774" lon="152.7671772">
<ele>109.442</ele>
<time>2017-10-25T04:23:16.703Z</time>
</trkpt>
<trkpt lat="-26.9409860" lon="152.7671176">
<ele>109.111</ele>
<time>2017-10-25T04:23:19.847Z</time>
</trkpt>
<trkpt lat="-26.9411236" lon="152.7671347">
<ele>109.062</ele>
<time>2017-10-25T04:23:21.730Z</time>
</trkpt>
<trkpt lat="-26.9413491" lon="152.7674573">
<ele>109.316</ele>
<time>2017-10-25T04:23:24.919Z</time>
</trkpt>
<trkpt lat="-26.9416367" lon="152.7679250">
<ele>109.781</ele>
<time>2017-10-25T04:23:28.048Z</time>
</trkpt>
<trkpt lat="-26.9419693" lon="152.7684501">
<ele>110.222</ele>
<time>2017-10-25T04:23:31.109Z</time>
</trkpt>
<trkpt lat="-26.9424048" lon="152.7689452">
<ele>110.375</ele>
<time>2017-10-25T04:23:34.254Z</time>
</trkpt>
<trkpt lat="-26.9428305" lon="152.7694161">
<ele>110.132</ele>
<time>2017-10-25T04:23:37.298Z</time>
</trkpt>
<trkpt lat="-26.9432499" lon="152.7698534">
<ele>109.473</ele>
<time>2017-10-25T04:23:40.220Z</time>
</trkpt>
<trkpt lat="-26.9436844" lon="152.7702652">
<ele>108.608</ele>
<time>2017-10-25T04:23:43.147Z</time>
</trkpt>
<trkpt lat="-26.9441437" lon="152.7706596">
<ele>107.957</ele>
<time>2017-10-25T04:23:46.169Z</time>
</trkpt>
<trkpt lat="-26.9445899" lon="152.7710348">
<ele>107.777</ele>
<time>2017-10-25T04:23:49.128Z</time>
</trkpt>
<trkpt lat="-26.9450490" lon="152.7713805">
<ele>107.944</ele>
<time>2017-10-25T04:23:52.094Z</time>
</trkpt>
<trkpt lat="-26.9454992" lon="152.7717216">
<ele>108.183</ele>
<time>2017-10-25T04:23:55.034Z</time>
</trkpt>
<trkpt lat="-26.9459509" lon="152.7720354">
<ele>108.354</ele>
<time>2017-10-25T04:23:57.954Z</time>
</trkpt>
<trkpt lat="-26.9463958" lon="152.7723634">
<ele>108.527</ele>
<time>2017-10-25T04:24:00.913Z</time>
</trkpt>
<trkpt lat="-26.9468150" lon="152.7727225">
<ele>108.786</ele>
<time>2017-10-25T04:24:03.832Z</time>
</trkpt>
<trkpt lat="-26.9472670" lon="152.7730923">
<ele>109.247</ele>
<time>2017-10-25T04:24:06.876Z</time>
</trkpt>
<trkpt lat="-26.9476912" lon="152.7735058">
<ele>109.891</ele>
<time>2017-10-25T04:24:09.879Z</time>
</trkpt>
<trkpt lat="-26.9481119" lon="152.7739585">
<ele>110.431</ele>
<time>2017-10-25T04:24:12.979Z</time>
</trkpt>
<trkpt lat="-26.9484994" lon="152.7743877">
<ele>110.578</ele>
<time>2017-10-25T04:24:15.950Z</time>
</trkpt>
<trkpt lat="-26.9488100" lon="152.7748225">
<ele>110.363</ele>
<time>2017-10-25T04:24:18.820Z</time>
</trkpt>
<trkpt lat="-26.9491466" lon="152.7752027">
<ele>110.134</ele>
<time>2017-10-25T04:24:21.817Z</time>
</trkpt>
<trkpt lat="-26.9494135" lon="152.7755611">
<ele>110.270</ele>
<time>2017-10-25T04:24:24.624Z</time>
</trkpt>
<trkpt lat="-26.9497019" lon="152.7759314">
<ele>110.753</ele>
<time>2017-10-25T04:24:27.678Z</time>
</trkpt>
<trkpt lat="-26.9499916" lon="152.7762690">
<ele>111.312</ele>
<time>2017-10-25T04:24:30.606Z</time>
</trkpt>
<trkpt lat="-26.9503602" lon="152.7764544">
<ele>111.805</ele>
<time>2017-10-25T04:24:33.445Z</time>
</trkpt>
<trkpt lat="-26.9507683" lon="152.7766121">
<ele>112.189</ele>
<time>2017-10-25T04:24:36.500Z</time>
</trkpt>
<trkpt lat="-26.9511574" lon="152.7767238">
<ele>112.630</ele>
<time>2017-10-25T04:24:39.409Z</time>
</trkpt>
<trkpt lat="-26.9515300" lon="152.7768674">
<ele>113.362</ele>
<time>2017-10-25T04:24:42.352Z</time>
</trkpt>
<trkpt lat="-26.9519264" lon="152.7769639">
<ele>114.197</ele>
<time>2017-10-25T04:24:45.430Z</time>
</trkpt>
<trkpt lat="-26.9521728" lon="152.7770622">
<ele>114.785</ele>
<time>2017-10-25T04:24:47.441Z</time>
</trkpt>
<trkpt lat="-26.9525352" lon="152.7771615">
<ele>115.050</ele>
<time>2017-10-25T04:24:50.263Z</time>
</trkpt>
<trkpt lat="-26.9529473" lon="152.7773305">
<ele>115.134</ele>
<time>2017-10-25T04:24:53.403Z</time>
</trkpt>
<trkpt lat="-26.9533816" lon="152.7774696">
<ele>115.236</ele>
<time>2017-10-25T04:24:56.561Z</time>
</trkpt>
<trkpt lat="-26.9537739" lon="152.7775890">
<ele>115.556</ele>
<time>2017-10-25T04:24:59.509Z</time>
</trkpt>
<trkpt lat="-26.9540172" lon="152.7776864">
<ele>116.338</ele>
<time>2017-10-25T04:25:01.415Z</time>
</trkpt>
<trkpt lat="-26.9542568" lon="152.7777650">
<ele>117.517</ele>
<time>2017-10-25T04:25:03.232Z</time>
</trkpt>
<trkpt lat="-26.9545181" lon="152.7778420">
<ele>118.577</ele>
<time>2017-10-25T04:25:05.183Z</time>
</trkpt>
<trkpt lat="-26.9547649" lon="152.7779382">
<ele>119.214</ele>
<time>2017-10-25T04:25:07.073Z</time>
</trkpt>
<trkpt lat="-26.9550493" lon="152.7780231">
<ele>119.559</ele>
<time>2017-10-25T04:25:09.231Z</time>
</trkpt>
<trkpt lat="-26.9553103" lon="152.7780998">
<ele>119.827</ele>
<time>2017-10-25T04:25:11.247Z</time>
</trkpt>
<trkpt lat="-26.9555584" lon="152.7781722">
<ele>120.196</ele>
<time>2017-10-25T04:25:13.188Z</time>
</trkpt>
<trkpt lat="-26.9558080" lon="152.7782433">
<ele>120.869</ele>
<time>2017-10-25T04:25:15.135Z</time>
</trkpt>
<trkpt lat="-26.9560684" lon="152.7783010">
<ele>121.913</ele>
<time>2017-10-25T04:25:17.119Z</time>
</trkpt>
<trkpt lat="-26.9563296" lon="152.7783671">
<ele>123.194</ele>
<time>2017-10-25T04:25:19.088Z</time>
</trkpt>
<trkpt lat="-26.9567282" lon="152.7784728">
<ele>124.457</ele>
<time>2017-10-25T04:25:22.046Z</time>
</trkpt>
<trkpt lat="-26.9571527" lon="152.7785974">
<ele>125.409</ele>
<time>2017-10-25T04:25:25.152Z</time>
</trkpt>
<trkpt lat="-26.9575701" lon="152.7787108">
<ele>125.843</ele>
<time>2017-10-25T04:25:28.165Z</time>
</trkpt>
<trkpt lat="-26.9580069" lon="152.7787992">
<ele>125.685</ele>
<time>2017-10-25T04:25:31.271Z</time>
</trkpt>
<trkpt lat="-26.9584136" lon="152.7788885">
<ele>124.937</ele>
<time>2017-10-25T04:25:34.160Z</time>
</trkpt>
<trkpt lat="-26.9588159" lon="152.7790120">
<ele>123.622</ele>
<time>2017-10-25T04:25:37.040Z</time>
</trkpt>
<trkpt lat="-26.9592350" lon="152.7791135">
<ele>121.916</ele>
<time>2017-10-25T04:25:40.041Z</time>
</trkpt>
<trkpt lat="-26.9595981" lon="152.7792353">
<ele>119.962</ele>
<time>2017-10-25T04:25:42.912Z</time>
</trkpt>
<trkpt lat="-26.9599395" lon="152.7793389">
<ele>117.824</ele>
<time>2017-10-25T04:25:45.927Z</time>
</trkpt>
<trkpt lat="-26.9602178" lon="152.7794058">
<ele>115.796</ele>
<time>2017-10-25T04:25:48.588Z</time>
</trkpt>
<trkpt lat="-26.9605279" lon="152.7794818">
<ele>114.324</ele>
<time>2017-10-25T04:25:51.740Z</time>
</trkpt>
<trkpt lat="-26.9607950" lon="152.7795974">
<ele>113.405</ele>
<time>2017-10-25T04:25:54.582Z</time>
</trkpt>
<trkpt lat="-26.9610714" lon="152.7797307">
<ele>112.812</ele>
<time>2017-10-25T04:25:57.505Z</time>
</trkpt>
<trkpt lat="-26.9613510" lon="152.7798792">
<ele>112.534</ele>
<time>2017-10-25T04:26:00.540Z</time>
</trkpt>
<trkpt lat="-26.9616229" lon="152.7800449">
<ele>112.703</ele>
<time>2017-10-25T04:26:03.614Z</time>
</trkpt>
<trkpt lat="-26.9618905" lon="152.7802541">
<ele>113.185</ele>
<time>2017-10-25T04:26:06.841Z</time>
</trkpt>
<trkpt lat="-26.9621409" lon="152.7804020">
<ele>113.808</ele>
<time>2017-10-25T04:26:09.658Z</time>
</trkpt>
<trkpt lat="-26.9624342" lon="152.7805295">
<ele>114.647</ele>
<time>2017-10-25T04:26:12.760Z</time>
</trkpt>
<trkpt lat="-26.9627116" lon="152.7806620">
<ele>115.599</ele>
<time>2017-10-25T04:26:15.680Z</time>
</trkpt>
<trkpt lat="-26.9630249" lon="152.7808849">
<ele>116.146</ele>
<time>2017-10-25T04:26:18.976Z</time>
</trkpt>
<trkpt lat="-26.9634425" lon="152.7811090">
<ele>116.093</ele>
<time>2017-10-25T04:26:22.309Z</time>
</trkpt>
<trkpt lat="-26.9638498" lon="152.7813560">
<ele>115.835</ele>
<time>2017-10-25T04:26:25.286Z</time>
</trkpt>
<trkpt lat="-26.9642807" lon="152.7815983">
<ele>115.735</ele>
<time>2017-10-25T04:26:28.369Z</time>
</trkpt>
<trkpt lat="-26.9646934" lon="152.7818202">
<ele>115.776</ele>
<time>2017-10-25T04:26:31.340Z</time>
</trkpt>
<trkpt lat="-26.9650824" lon="152.7820631">
<ele>115.853</ele>
<time>2017-10-25T04:26:34.258Z</time>
</trkpt>
<trkpt lat="-26.9654875" lon="152.7822945">
<ele>115.929</ele>
<time>2017-10-25T04:26:37.248Z</time>
</trkpt>
<trkpt lat="-26.9658552" lon="152.7825315">
<ele>115.982</ele>
<time>2017-10-25T04:26:40.141Z</time>
</trkpt>
<trkpt lat="-26.9661651" lon="152.7827501">
<ele>116.105</ele>
<time>2017-10-25T04:26:42.952Z</time>
</trkpt>
<trkpt lat="-26.9664021" lon="152.7829648">
<ele>116.535</ele>
<time>2017-10-25T04:26:45.680Z</time>
</trkpt>
<trkpt lat="-26.9666694" lon="152.7831636">
<ele>117.491</ele>
<time>2017-10-25T04:26:48.759Z</time>
</trkpt>
<trkpt lat="-26.9669257" lon="152.7833745">
<ele>118.956</ele>
<time>2017-10-25T04:26:51.765Z</time>
</trkpt>
<trkpt lat="-26.9671402" lon="152.7836184">
<ele>120.469</ele>
<time>2017-10-25T04:26:54.632Z</time>
</trkpt>
<trkpt lat="-26.9673961" lon="152.7838442">
<ele>121.789</ele>
<time>2017-10-25T04:26:57.673Z</time>
</trkpt>
<trkpt lat="-26.9676465" lon="152.7840788">
<ele>123.207</ele>
<time>2017-10-25T04:27:00.679Z</time>
</trkpt>
<trkpt lat="-26.9679164" lon="152.7842945">
<ele>124.766</ele>
<time>2017-10-25T04:27:03.717Z</time>
</trkpt>
<trkpt lat="-26.9681443" lon="152.7845711">
<ele>126.055</ele>
<time>2017-10-25T04:27:06.776Z</time>
</trkpt>
<trkpt lat="-26.9684178" lon="152.7847722">
<ele>126.796</ele>
<time>2017-10-25T04:27:09.751Z</time>
</trkpt>
<trkpt lat="-26.9686715" lon="152.7850015">
<ele>127.158</ele>
<time>2017-10-25T04:27:12.725Z</time>
</trkpt>
<trkpt lat="-26.9689353" lon="152.7852146">
<ele>127.861</ele>
<time>2017-10-25T04:27:15.718Z</time>
</trkpt>
<trkpt lat="-26.9691754" lon="152.7854297">
<ele>129.432</ele>
<time>2017-10-25T04:27:18.704Z</time>
</trkpt>
<trkpt lat="-26.9693309" lon="152.7855834">
<ele>131.333</ele>
<time>2017-10-25T04:27:21.046Z</time>
</trkpt>
<trkpt lat="-26.9693309" lon="152.7855834">
<ele>132.533</ele>
<time>2017-10-25T04:27:27.046Z</time>
</trkpt>
<trkpt lat="-26.9693309" lon="152.7855834">
<ele>132.767</ele>
<time>2017-10-25T04:28:43.450Z</time>
</trkpt>
<trkpt lat="-26.9694974" lon="152.7857210">
<ele>132.391</ele>
<time>2017-10-25T04:28:50.974Z</time>
</trkpt>
<trkpt lat="-26.9696791" lon="152.7858445">
<ele>131.286</ele>
<time>2017-10-25T04:28:54.200Z</time>
</trkpt>
<trkpt lat="-26.9698776" lon="152.7859849">
<ele>129.405</ele>
<time>2017-10-25T04:28:57.319Z</time>
</trkpt>
<trkpt lat="-26.9700644" lon="152.7861403">
<ele>127.618</ele>
<time>2017-10-25T04:29:00.263Z</time>
</trkpt>
<trkpt lat="-26.9702528" lon="152.7863072">
<ele>126.693</ele>
<time>2017-10-25T04:29:03.034Z</time>
</trkpt>
<trkpt lat="-26.9704823" lon="152.7865061">
<ele>126.495</ele>
<time>2017-10-25T04:29:06.101Z</time>
</trkpt>
<trkpt lat="-26.9707154" lon="152.7867101">
<ele>126.618</ele>
<time>2017-10-25T04:29:09.142Z</time>
</trkpt>
<trkpt lat="-26.9709450" lon="152.7869035">
<ele>126.794</ele>
<time>2017-10-25T04:29:12.123Z</time>
</trkpt>
<trkpt lat="-26.9711795" lon="152.7870926">
<ele>126.938</ele>
<time>2017-10-25T04:29:15.061Z</time>
</trkpt>
<trkpt lat="-26.9714281" lon="152.7872872">
<ele>127.064</ele>
<time>2017-10-25T04:29:18.007Z</time>
</trkpt>
<trkpt lat="-26.9716953" lon="152.7874861">
<ele>127.207</ele>
<time>2017-10-25T04:29:21.079Z</time>
</trkpt>
<trkpt lat="-26.9719504" lon="152.7876728">
<ele>127.398</ele>
<time>2017-10-25T04:29:23.955Z</time>
</trkpt>
<trkpt lat="-26.9722236" lon="152.7878777">
<ele>127.661</ele>
<time>2017-10-25T04:29:26.879Z</time>
</trkpt>
<trkpt lat="-26.9725263" lon="152.7880985">
<ele>128.004</ele>
<time>2017-10-25T04:29:29.928Z</time>
</trkpt>
<trkpt lat="-26.9728263" lon="152.7883176">
<ele>128.396</ele>
<time>2017-10-25T04:29:32.902Z</time>
</trkpt>
<trkpt lat="-26.9731281" lon="152.7885388">
<ele>128.782</ele>
<time>2017-10-25T04:29:35.829Z</time>
</trkpt>
<trkpt lat="-26.9734523" lon="152.7887781">
<ele>129.139</ele>
<time>2017-10-25T04:29:38.648Z</time>
</trkpt>
<trkpt lat="-26.9738751" lon="152.7890747">
<ele>129.480</ele>
<time>2017-10-25T04:29:41.758Z</time>
</trkpt>
<trkpt lat="-26.9743302" lon="152.7893842">
<ele>129.789</ele>
<time>2017-10-25T04:29:44.816Z</time>
</trkpt>
<trkpt lat="-26.9747762" lon="152.7896702">
<ele>130.008</ele>
<time>2017-10-25T04:29:47.676Z</time>
</trkpt>
<trkpt lat="-26.9752811" lon="152.7900317">
<ele>129.754</ele>
<time>2017-10-25T04:29:50.845Z</time>
</trkpt>
<trkpt lat="-26.9757871" lon="152.7904035">
<ele>128.716</ele>
<time>2017-10-25T04:29:53.893Z</time>
</trkpt>
<trkpt lat="-26.9763010" lon="152.7907479">
<ele>127.408</ele>
<time>2017-10-25T04:29:56.914Z</time>
</trkpt>
<trkpt lat="-26.9767760" lon="152.7910871">
<ele>126.606</ele>
<time>2017-10-25T04:29:59.816Z</time>
</trkpt>
<trkpt lat="-26.9772717" lon="152.7914076">
<ele>126.451</ele>
<time>2017-10-25T04:30:02.778Z</time>
</trkpt>
<trkpt lat="-26.9777559" lon="152.7917641">
<ele>126.649</ele>
<time>2017-10-25T04:30:05.722Z</time>
</trkpt>
<trkpt lat="-26.9782728" lon="152.7921550">
<ele>126.883</ele>
<time>2017-10-25T04:30:08.737Z</time>
</trkpt>
<trkpt lat="-26.9788553" lon="152.7925433">
<ele>127.053</ele>
<time>2017-10-25T04:30:11.871Z</time>
</trkpt>
<trkpt lat="-26.9793713" lon="152.7929221">
<ele>127.353</ele>
<time>2017-10-25T04:30:14.736Z</time>
</trkpt>
<trkpt lat="-26.9799235" lon="152.7932774">
<ele>127.868</ele>
<time>2017-10-25T04:30:17.781Z</time>
</trkpt>
<trkpt lat="-26.9804024" lon="152.7936478">
<ele>128.114</ele>
<time>2017-10-25T04:30:20.654Z</time>
</trkpt>
<trkpt lat="-26.9808973" lon="152.7939684">
<ele>127.535</ele>
<time>2017-10-25T04:30:23.575Z</time>
</trkpt>
<trkpt lat="-26.9813870" lon="152.7942405">
<ele>126.221</ele>
<time>2017-10-25T04:30:26.453Z</time>
</trkpt>
<trkpt lat="-26.9819104" lon="152.7944873">
<ele>124.800</ele>
<time>2017-10-25T04:30:29.436Z</time>
</trkpt>
<trkpt lat="-26.9824611" lon="152.7947821">
<ele>123.861</ele>
<time>2017-10-25T04:30:32.496Z</time>
</trkpt>
<trkpt lat="-26.9830492" lon="152.7950551">
<ele>123.617</ele>
<time>2017-10-25T04:30:35.568Z</time>
</trkpt>
<trkpt lat="-26.9836143" lon="152.7952975">
<ele>124.205</ele>
<time>2017-10-25T04:30:38.555Z</time>
</trkpt>
<trkpt lat="-26.9841306" lon="152.7954997">
<ele>125.879</ele>
<time>2017-10-25T04:30:41.500Z</time>
</trkpt>
<trkpt lat="-26.9845394" lon="152.7957103">
<ele>128.465</ele>
<time>2017-10-25T04:30:44.180Z</time>
</trkpt>
<trkpt lat="-26.9849625" lon="152.7959167">
<ele>131.267</ele>
<time>2017-10-25T04:30:47.104Z</time>
</trkpt>
<trkpt lat="-26.9853576" lon="152.7961716">
<ele>133.627</ele>
<time>2017-10-25T04:30:50.031Z</time>
</trkpt>
<trkpt lat="-26.9857449" lon="152.7964519">
<ele>135.177</ele>
<time>2017-10-25T04:30:53.021Z</time>
</trkpt>
<trkpt lat="-26.9861119" lon="152.7967727">
<ele>135.983</ele>
<time>2017-10-25T04:30:56.115Z</time>
</trkpt>
<trkpt lat="-26.9863949" lon="152.7970901">
<ele>136.496</ele>
<time>2017-10-25T04:30:58.930Z</time>
</trkpt>
<trkpt lat="-26.9866898" lon="152.7973847">
<ele>137.060</ele>
<time>2017-10-25T04:31:01.893Z</time>
</trkpt>
<trkpt lat="-26.9869462" lon="152.7976625">
<ele>137.750</ele>
<time>2017-10-25T04:31:04.826Z</time>
</trkpt>
<trkpt lat="-26.9870666" lon="152.7978336">
<ele>138.565</ele>
<time>2017-10-25T04:31:06.733Z</time>
</trkpt>
<trkpt lat="-26.9872044" lon="152.7978316">
<ele>139.403</ele>
<time>2017-10-25T04:31:08.649Z</time>
</trkpt>
<trkpt lat="-26.9874122" lon="152.7975875">
<ele>140.247</ele>
<time>2017-10-25T04:31:13.011Z</time>
</trkpt>
<trkpt lat="-26.9876975" lon="152.7972457">
<ele>141.077</ele>
<time>2017-10-25T04:31:17.091Z</time>
</trkpt>
<trkpt lat="-26.9880058" lon="152.7968523">
<ele>141.645</ele>
<time>2017-10-25T04:31:20.321Z</time>
</trkpt>
<trkpt lat="-26.9883576" lon="152.7964400">
<ele>141.645</ele>
<time>2017-10-25T04:31:23.516Z</time>
</trkpt>
<trkpt lat="-26.9887229" lon="152.7961028">
<ele>140.950</ele>
<time>2017-10-25T04:31:26.415Z</time>
</trkpt>
<trkpt lat="-26.9891135" lon="152.7957751">
<ele>139.498</ele>
<time>2017-10-25T04:31:29.393Z</time>
</trkpt>
<trkpt lat="-26.9895826" lon="152.7954894">
<ele>137.310</ele>
<time>2017-10-25T04:31:32.550Z</time>
</trkpt>
<trkpt lat="-26.9901304" lon="152.7952675">
<ele>134.469</ele>
<time>2017-10-25T04:31:35.794Z</time>
</trkpt>
<trkpt lat="-26.9906323" lon="152.7950846">
<ele>131.233</ele>
<time>2017-10-25T04:31:38.659Z</time>
</trkpt>
<trkpt lat="-26.9912038" lon="152.7949339">
<ele>128.249</ele>
<time>2017-10-25T04:31:41.781Z</time>
</trkpt>
<trkpt lat="-26.9918120" lon="152.7948649">
<ele>126.183</ele>
<time>2017-10-25T04:31:44.895Z</time>
</trkpt>
<trkpt lat="-26.9923895" lon="152.7947194">
<ele>125.123</ele>
<time>2017-10-25T04:31:47.816Z</time>
</trkpt>
<trkpt lat="-26.9930220" lon="152.7946751">
<ele>124.781</ele>
<time>2017-10-25T04:31:50.911Z</time>
</trkpt>
<trkpt lat="-26.9935805" lon="152.7946035">
<ele>124.968</ele>
<time>2017-10-25T04:31:53.706Z</time>
</trkpt>
<trkpt lat="-26.9941365" lon="152.7944755">
<ele>125.828</ele>
<time>2017-10-25T04:31:56.616Z</time>
</trkpt>
<trkpt lat="-26.9947322" lon="152.7943978">
<ele>127.357</ele>
<time>2017-10-25T04:31:59.713Z</time>
</trkpt>
<trkpt lat="-26.9953094" lon="152.7943090">
<ele>128.878</ele>
<time>2017-10-25T04:32:02.693Z</time>
</trkpt>
<trkpt lat="-26.9958728" lon="152.7942143">
<ele>129.509</ele>
<time>2017-10-25T04:32:05.580Z</time>
</trkpt>
<trkpt lat="-26.9964683" lon="152.7941576">
<ele>128.945</ele>
<time>2017-10-25T04:32:08.566Z</time>
</trkpt>
<trkpt lat="-26.9968808" lon="152.7941053">
<ele>127.761</ele>
<time>2017-10-25T04:32:10.611Z</time>
</trkpt>
<trkpt lat="-26.9972947" lon="152.7940165">
<ele>126.817</ele>
<time>2017-10-25T04:32:12.674Z</time>
</trkpt>
<trkpt lat="-26.9977029" lon="152.7939499">
<ele>126.405</ele>
<time>2017-10-25T04:32:14.691Z</time>
</trkpt>
<trkpt lat="-26.9980938" lon="152.7938930">
<ele>126.254</ele>
<time>2017-10-25T04:32:16.632Z</time>
</trkpt>
<trkpt lat="-26.9984825" lon="152.7938483">
<ele>125.992</ele>
<time>2017-10-25T04:32:18.604Z</time>
</trkpt>
<trkpt lat="-26.9988488" lon="152.7938237">
<ele>125.495</ele>
<time>2017-10-25T04:32:20.523Z</time>
</trkpt>
<trkpt lat="-26.9991799" lon="152.7937480">
<ele>124.953</ele>
<time>2017-10-25T04:32:22.378Z</time>
</trkpt>
<trkpt lat="-26.9995004" lon="152.7936638">
<ele>124.580</ele>
<time>2017-10-25T04:32:24.300Z</time>
</trkpt>
<trkpt lat="-26.9999147" lon="152.7934022">
<ele>124.416</ele>
<time>2017-10-25T04:32:27.219Z</time>
</trkpt>
<trkpt lat="-27.0003628" lon="152.7930708">
<ele>124.310</ele>
<time>2017-10-25T04:32:30.415Z</time>
</trkpt>
<trkpt lat="-27.0007359" lon="152.7926535">
<ele>124.145</ele>
<time>2017-10-25T04:32:33.336Z</time>
</trkpt>
<trkpt lat="-27.0010210" lon="152.7920907">
<ele>124.087</ele>
<time>2017-10-25T04:32:36.377Z</time>
</trkpt>
<trkpt lat="-27.0012020" lon="152.7914142">
<ele>124.300</ele>
<time>2017-10-25T04:32:39.564Z</time>
</trkpt>
<trkpt lat="-27.0012814" lon="152.7907232">
<ele>124.776</ele>
<time>2017-10-25T04:32:42.607Z</time>
</trkpt>
<trkpt lat="-27.0013422" lon="152.7900606">
<ele>125.538</ele>
<time>2017-10-25T04:32:45.491Z</time>
</trkpt>
<trkpt lat="-27.0014073" lon="152.7893589">
<ele>126.500</ele>
<time>2017-10-25T04:32:48.558Z</time>
</trkpt>
<trkpt lat="-27.0014714" lon="152.7886997">
<ele>127.421</ele>
<time>2017-10-25T04:32:51.446Z</time>
</trkpt>
<trkpt lat="-27.0015334" lon="152.7880299">
<ele>128.112</ele>
<time>2017-10-25T04:32:54.396Z</time>
</trkpt>
<trkpt lat="-27.0015981" lon="152.7873360">
<ele>128.528</ele>
<time>2017-10-25T04:32:57.436Z</time>
</trkpt>
<trkpt lat="-27.0017165" lon="152.7866763">
<ele>128.816</ele>
<time>2017-10-25T04:33:00.369Z</time>
</trkpt>
<trkpt lat="-27.0018568" lon="152.7860007">
<ele>129.115</ele>
<time>2017-10-25T04:33:03.402Z</time>
</trkpt>
<trkpt lat="-27.0020828" lon="152.7853693">
<ele>129.509</ele>
<time>2017-10-25T04:33:06.381Z</time>
</trkpt>
<trkpt lat="-27.0023755" lon="152.7847718">
<ele>130.351</ele>
<time>2017-10-25T04:33:09.362Z</time>
</trkpt>
<trkpt lat="-27.0027405" lon="152.7841775">
<ele>131.908</ele>
<time>2017-10-25T04:33:12.375Z</time>
</trkpt>
<trkpt lat="-27.0031682" lon="152.7834541">
<ele>133.830</ele>
<time>2017-10-25T04:33:15.660Z</time>
</trkpt>
<trkpt lat="-27.0036143" lon="152.7827294">
<ele>135.532</ele>
<time>2017-10-25T04:33:18.754Z</time>
</trkpt>
<trkpt lat="-27.0040438" lon="152.7820129">
<ele>136.693</ele>
<time>2017-10-25T04:33:21.739Z</time>
</trkpt>
<trkpt lat="-27.0044490" lon="152.7813387">
<ele>137.270</ele>
<time>2017-10-25T04:33:24.607Z</time>
</trkpt>
<trkpt lat="-27.0049183" lon="152.7806935">
<ele>137.517</ele>
<time>2017-10-25T04:33:27.577Z</time>
</trkpt>
<trkpt lat="-27.0054518" lon="152.7801037">
<ele>138.019</ele>
<time>2017-10-25T04:33:30.562Z</time>
</trkpt>
<trkpt lat="-27.0060633" lon="152.7796047">
<ele>139.209</ele>
<time>2017-10-25T04:33:33.573Z</time>
</trkpt>
<trkpt lat="-27.0067102" lon="152.7791891">
<ele>140.739</ele>
<time>2017-10-25T04:33:36.537Z</time>
</trkpt>
<trkpt lat="-27.0073904" lon="152.7788274">
<ele>141.909</ele>
<time>2017-10-25T04:33:39.521Z</time>
</trkpt>
<trkpt lat="-27.0081079" lon="152.7785605">
<ele>142.480</ele>
<time>2017-10-25T04:33:42.526Z</time>
</trkpt>
<trkpt lat="-27.0088446" lon="152.7784508">
<ele>142.430</ele>
<time>2017-10-25T04:33:45.490Z</time>
</trkpt>
<trkpt lat="-27.0096129" lon="152.7783536">
<ele>141.781</ele>
<time>2017-10-25T04:33:48.574Z</time>
</trkpt>
<trkpt lat="-27.0103572" lon="152.7783870">
<ele>140.949</ele>
<time>2017-10-25T04:33:51.543Z</time>
</trkpt>
<trkpt lat="-27.0111371" lon="152.7783799">
<ele>140.694</ele>
<time>2017-10-25T04:33:54.647Z</time>
</trkpt>
<trkpt lat="-27.0118647" lon="152.7784641">
<ele>141.512</ele>
<time>2017-10-25T04:33:57.564Z</time>
</trkpt>
<trkpt lat="-27.0126041" lon="152.7786168">
<ele>143.249</ele>
<time>2017-10-25T04:34:00.568Z</time>
</trkpt>
<trkpt lat="-27.0133615" lon="152.7787416">
<ele>145.318</ele>
<time>2017-10-25T04:34:03.615Z</time>
</trkpt>
<trkpt lat="-27.0141070" lon="152.7788290">
<ele>147.155</ele>
<time>2017-10-25T04:34:06.588Z</time>
</trkpt>
<trkpt lat="-27.0148642" lon="152.7788707">
<ele>148.419</ele>
<time>2017-10-25T04:34:09.585Z</time>
</trkpt>
<trkpt lat="-27.0156208" lon="152.7788255">
<ele>149.243</ele>
<time>2017-10-25T04:34:12.584Z</time>
</trkpt>
<trkpt lat="-27.0163570" lon="152.7788735">
<ele>150.225</ele>
<time>2017-10-25T04:34:15.536Z</time>
</trkpt>
<trkpt lat="-27.0171108" lon="152.7790789">
<ele>151.744</ele>
<time>2017-10-25T04:34:18.640Z</time>
</trkpt>
<trkpt lat="-27.0178665" lon="152.7791760">
<ele>153.487</ele>
<time>2017-10-25T04:34:21.660Z</time>
</trkpt>
<trkpt lat="-27.0186031" lon="152.7792574">
<ele>155.048</ele>
<time>2017-10-25T04:34:24.611Z</time>
</trkpt>
<trkpt lat="-27.0193257" lon="152.7794154">
<ele>156.565</ele>
<time>2017-10-25T04:34:27.555Z</time>
</trkpt>
<trkpt lat="-27.0200384" lon="152.7797189">
<ele>158.440</ele>
<time>2017-10-25T04:34:30.591Z</time>
</trkpt>
<trkpt lat="-27.0207666" lon="152.7800267">
<ele>160.813</ele>
<time>2017-10-25T04:34:33.671Z</time>
</trkpt>
<trkpt lat="-27.0214386" lon="152.7803061">
<ele>163.502</ele>
<time>2017-10-25T04:34:36.553Z</time>
</trkpt>
<trkpt lat="-27.0220355" lon="152.7805626">
<ele>166.516</ele>
<time>2017-10-25T04:34:39.294Z</time>
</trkpt>
<trkpt lat="-27.0225925" lon="152.7807540">
<ele>170.052</ele>
<time>2017-10-25T04:34:42.075Z</time>
</trkpt>
<trkpt lat="-27.0230576" lon="152.7809406">
<ele>173.950</ele>
<time>2017-10-25T04:34:44.725Z</time>
</trkpt>
<trkpt lat="-27.0235362" lon="152.7809116">
<ele>177.621</ele>
<time>2017-10-25T04:34:47.540Z</time>
</trkpt>
<trkpt lat="-27.0239405" lon="152.7805496">
<ele>180.764</ele>
<time>2017-10-25T04:34:50.671Z</time>
</trkpt>
<trkpt lat="-27.0240541" lon="152.7799566">
<ele>183.690</ele>
<time>2017-10-25T04:34:53.910Z</time>
</trkpt>
<trkpt lat="-27.0241741" lon="152.7795413">
<ele>186.969</ele>
<time>2017-10-25T04:34:56.485Z</time>
</trkpt>
<trkpt lat="-27.0245973" lon="152.7794859">
<ele>190.916</ele>
<time>2017-10-25T04:34:59.576Z</time>
</trkpt>
<trkpt lat="-27.0251293" lon="152.7795143">
<ele>195.241</ele>
<time>2017-10-25T04:35:03.106Z</time>
</trkpt>
<trkpt lat="-27.0255595" lon="152.7792610">
<ele>199.546</ele>
<time>2017-10-25T04:35:06.162Z</time>
</trkpt>
<trkpt lat="-27.0257208" lon="152.7788632">
<ele>203.740</ele>
<time>2017-10-25T04:35:08.955Z</time>
</trkpt>
<trkpt lat="-27.0256495" lon="152.7783996">
<ele>207.609</ele>
<time>2017-10-25T04:35:12.130Z</time>
</trkpt>
<trkpt lat="-27.0257530" lon="152.7780788">
<ele>210.828</ele>
<time>2017-10-25T04:35:14.739Z</time>
</trkpt>
<trkpt lat="-27.0262412" lon="152.7782327">
<ele>213.267</ele>
<time>2017-10-25T04:35:18.657Z</time>
</trkpt>
<trkpt lat="-27.0267110" lon="152.7787479">
<ele>214.789</ele>
<time>2017-10-25T04:35:22.397Z</time>
</trkpt>
<trkpt lat="-27.0270392" lon="152.7791808">
<ele>215.221</ele>
<time>2017-10-25T04:35:25.347Z</time>
</trkpt>
<trkpt lat="-27.0273774" lon="152.7794602">
<ele>214.400</ele>
<time>2017-10-25T04:35:28.079Z</time>
</trkpt>
<trkpt lat="-27.0278543" lon="152.7793414">
<ele>212.586</ele>
<time>2017-10-25T04:35:31.262Z</time>
</trkpt>
<trkpt lat="-27.0284081" lon="152.7791706">
<ele>210.385</ele>
<time>2017-10-25T04:35:34.677Z</time>
</trkpt>
<trkpt lat="-27.0289511" lon="152.7792996">
<ele>207.961</ele>
<time>2017-10-25T04:35:37.705Z</time>
</trkpt>
<trkpt lat="-27.0295444" lon="152.7793183">
<ele>204.762</ele>
<time>2017-10-25T04:35:40.750Z</time>
</trkpt>
<trkpt lat="-27.0301233" lon="152.7790905">
<ele>200.435</ele>
<time>2017-10-25T04:35:43.752Z</time>
</trkpt>
<trkpt lat="-27.0306234" lon="152.7786459">
<ele>195.646</ele>
<time>2017-10-25T04:35:46.789Z</time>
</trkpt>
<trkpt lat="-27.0311305" lon="152.7782436">
<ele>191.839</ele>
<time>2017-10-25T04:35:49.735Z</time>
</trkpt>
<trkpt lat="-27.0318045" lon="152.7781273">
<ele>190.080</ele>
<time>2017-10-25T04:35:53.083Z</time>
</trkpt>
<trkpt lat="-27.0323810" lon="152.7781255">
<ele>190.198</ele>
<time>2017-10-25T04:35:56.227Z</time>
</trkpt>
<trkpt lat="-27.0328680" lon="152.7780497">
<ele>191.584</ele>
<time>2017-10-25T04:35:59.151Z</time>
</trkpt>
<trkpt lat="-27.0332688" lon="152.7776796">
<ele>194.400</ele>
<time>2017-10-25T04:36:02.272Z</time>
</trkpt>
<trkpt lat="-27.0336430" lon="152.7773261">
<ele>198.729</ele>
<time>2017-10-25T04:36:05.348Z</time>
</trkpt>
<trkpt lat="-27.0340300" lon="152.7770277">
<ele>203.768</ele>
<time>2017-10-25T04:36:08.545Z</time>
</trkpt>
<trkpt lat="-27.0343815" lon="152.7767299">
<ele>209.162</ele>
<time>2017-10-25T04:36:11.879Z</time>
</trkpt>
<trkpt lat="-27.0346804" lon="152.7764987">
<ele>215.177</ele>
<time>2017-10-25T04:36:14.895Z</time>
</trkpt>
<trkpt lat="-27.0349868" lon="152.7767395">
<ele>221.709</ele>
<time>2017-10-25T04:36:17.772Z</time>
</trkpt>
<trkpt lat="-27.0353541" lon="152.7770265">
<ele>228.384</ele>
<time>2017-10-25T04:36:20.854Z</time>
</trkpt>
<trkpt lat="-27.0357919" lon="152.7772158">
<ele>234.921</ele>
<time>2017-10-25T04:36:23.935Z</time>
</trkpt>
<trkpt lat="-27.0361873" lon="152.7774670">
<ele>241.502</ele>
<time>2017-10-25T04:36:27.084Z</time>
</trkpt>
<trkpt lat="-27.0366000" lon="152.7774230">
<ele>248.603</ele>
<time>2017-10-25T04:36:30.120Z</time>
</trkpt>
<trkpt lat="-27.0369912" lon="152.7772751">
<ele>255.868</ele>
<time>2017-10-25T04:36:33.106Z</time>
</trkpt>
<trkpt lat="-27.0374263" lon="152.7773965">
<ele>262.217</ele>
<time>2017-10-25T04:36:36.192Z</time>
</trkpt>
<trkpt lat="-27.0378313" lon="152.7771737">
<ele>267.107</ele>
<time>2017-10-25T04:36:39.237Z</time>
</trkpt>
<trkpt lat="-27.0382939" lon="152.7772125">
<ele>270.771</ele>
<time>2017-10-25T04:36:42.425Z</time>
</trkpt>
<trkpt lat="-27.0387036" lon="152.7771294">
<ele>273.645</ele>
<time>2017-10-25T04:36:45.272Z</time>
</trkpt>
<trkpt lat="-27.0391109" lon="152.7768961">
<ele>276.234</ele>
<time>2017-10-25T04:36:48.374Z</time>
</trkpt>
<trkpt lat="-27.0395212" lon="152.7771134">
<ele>279.042</ele>
<time>2017-10-25T04:36:51.332Z</time>
</trkpt>
<trkpt lat="-27.0399832" lon="152.7772258">
<ele>282.211</ele>
<time>2017-10-25T04:36:54.087Z</time>
</trkpt>
<trkpt lat="-27.0405360" lon="152.7773190">
<ele>285.758</ele>
<time>2017-10-25T04:36:56.814Z</time>
</trkpt>
<trkpt lat="-27.0411931" lon="152.7774310">
<ele>289.960</ele>
<time>2017-10-25T04:36:59.621Z</time>
</trkpt>
<trkpt lat="-27.0419675" lon="152.7774468">
<ele>295.448</ele>
<time>2017-10-25T04:37:02.781Z</time>
</trkpt>
<trkpt lat="-27.0426514" lon="152.7775139">
<ele>302.451</ele>
<time>2017-10-25T04:37:05.843Z</time>
</trkpt>
<trkpt lat="-27.0432440" lon="152.7775893">
<ele>310.305</ele>
<time>2017-10-25T04:37:08.747Z</time>
</trkpt>
<trkpt lat="-27.0438788" lon="152.7774780">
<ele>318.593</ele>
<time>2017-10-25T04:37:11.878Z</time>
</trkpt>
<trkpt lat="-27.0444695" lon="152.7772580">
<ele>327.247</ele>
<time>2017-10-25T04:37:14.975Z</time>
</trkpt>
<trkpt lat="-27.0449826" lon="152.7769832">
<ele>335.558</ele>
<time>2017-10-25T04:37:18.337Z</time>
</trkpt>
<trkpt lat="-27.0454047" lon="152.7768195">
<ele>343.031</ele>
<time>2017-10-25T04:37:21.614Z</time>
</trkpt>
<trkpt lat="-27.0456004" lon="152.7764761">
<ele>350.169</ele>
<time>2017-10-25T04:37:24.425Z</time>
</trkpt>
<trkpt lat="-27.0457028" lon="152.7760117">
<ele>357.360</ele>
<time>2017-10-25T04:37:27.592Z</time>
</trkpt>
<trkpt lat="-27.0460874" lon="152.7757942">
<ele>364.400</ele>
<time>2017-10-25T04:37:30.680Z</time>
</trkpt>
<trkpt lat="-27.0463544" lon="152.7753755">
<ele>371.375</ele>
<time>2017-10-25T04:37:33.751Z</time>
</trkpt>
<trkpt lat="-27.0463530" lon="152.7747944">
<ele>378.343</ele>
<time>2017-10-25T04:37:37.188Z</time>
</trkpt>
<trkpt lat="-27.0463365" lon="152.7742653">
<ele>384.702</ele>
<time>2017-10-25T04:37:40.369Z</time>
</trkpt>
<trkpt lat="-27.0461844" lon="152.7738186">
<ele>390.363</ele>
<time>2017-10-25T04:37:43.084Z</time>
</trkpt>
<trkpt lat="-27.0461428" lon="152.7732926">
<ele>395.994</ele>
<time>2017-10-25T04:37:45.813Z</time>
</trkpt>
<trkpt lat="-27.0462983" lon="152.7727158">
<ele>401.860</ele>
<time>2017-10-25T04:37:48.544Z</time>
</trkpt>
<trkpt lat="-27.0468163" lon="152.7722672">
<ele>407.606</ele>
<time>2017-10-25T04:37:51.444Z</time>
</trkpt>
<trkpt lat="-27.0475020" lon="152.7719405">
<ele>412.912</ele>
<time>2017-10-25T04:37:54.588Z</time>
</trkpt>
<trkpt lat="-27.0481465" lon="152.7716086">
<ele>417.833</ele>
<time>2017-10-25T04:37:57.728Z</time>
</trkpt>
<trkpt lat="-27.0487362" lon="152.7712950">
<ele>422.596</ele>
<time>2017-10-25T04:38:00.957Z</time>
</trkpt>
<trkpt lat="-27.0492619" lon="152.7710162">
<ele>427.256</ele>
<time>2017-10-25T04:38:04.435Z</time>
</trkpt>
<trkpt lat="-27.0496684" lon="152.7708728">
<ele>431.663</ele>
<time>2017-10-25T04:38:07.053Z</time>
</trkpt>
<trkpt lat="-27.0501191" lon="152.7708285">
<ele>435.473</ele>
<time>2017-10-25T04:38:09.468Z</time>
</trkpt>
<trkpt lat="-27.0507714" lon="152.7709498">
<ele>438.238</ele>
<time>2017-10-25T04:38:12.378Z</time>
</trkpt>
<trkpt lat="-27.0514269" lon="152.7713175">
<ele>439.677</ele>
<time>2017-10-25T04:38:15.254Z</time>
</trkpt>
<trkpt lat="-27.0520409" lon="152.7719119">
<ele>439.754</ele>
<time>2017-10-25T04:38:18.257Z</time>
</trkpt>
<trkpt lat="-27.0526409" lon="152.7725393">
<ele>438.516</ele>
<time>2017-10-25T04:38:21.263Z</time>
</trkpt>
<trkpt lat="-27.0532803" lon="152.7730988">
<ele>436.221</ele>
<time>2017-10-25T04:38:24.274Z</time>
</trkpt>
<trkpt lat="-27.0539424" lon="152.7735850">
<ele>433.403</ele>
<time>2017-10-25T04:38:27.171Z</time>
</trkpt>
<trkpt lat="-27.0547484" lon="152.7738025">
<ele>430.644</ele>
<time>2017-10-25T04:38:30.090Z</time>
</trkpt>
<trkpt lat="-27.0555896" lon="152.7740338">
<ele>428.454</ele>
<time>2017-10-25T04:38:33.030Z</time>
</trkpt>
<trkpt lat="-27.0564556" lon="152.7742748">
<ele>427.110</ele>
<time>2017-10-25T04:38:36.045Z</time>
</trkpt>
<trkpt lat="-27.0573192" lon="152.7744935">
<ele>426.754</ele>
<time>2017-10-25T04:38:39.238Z</time>
</trkpt>
<trkpt lat="-27.0580659" lon="152.7746882">
<ele>427.395</ele>
<time>2017-10-25T04:38:42.216Z</time>
</trkpt>
<trkpt lat="-27.0587416" lon="152.7749907">
<ele>428.514</ele>
<time>2017-10-25T04:38:45.079Z</time>
</trkpt>
<trkpt lat="-27.0593620" lon="152.7755502">
<ele>429.395</ele>
<time>2017-10-25T04:38:48.174Z</time>
</trkpt>
<trkpt lat="-27.0598170" lon="152.7762476">
<ele>429.789</ele>
<time>2017-10-25T04:38:51.200Z</time>
</trkpt>
<trkpt lat="-27.0603011" lon="152.7768882">
<ele>430.067</ele>
<time>2017-10-25T04:38:54.155Z</time>
</trkpt>
<trkpt lat="-27.0607524" lon="152.7775465">
<ele>430.748</ele>
<time>2017-10-25T04:38:57.070Z</time>
</trkpt>
<trkpt lat="-27.0612539" lon="152.7782185">
<ele>432.000</ele>
<time>2017-10-25T04:39:00.154Z</time>
</trkpt>
<trkpt lat="-27.0617816" lon="152.7788190">
<ele>433.689</ele>
<time>2017-10-25T04:39:03.147Z</time>
</trkpt>
<trkpt lat="-27.0623691" lon="152.7793390">
<ele>435.733</ele>
<time>2017-10-25T04:39:06.149Z</time>
</trkpt>
<trkpt lat="-27.0629504" lon="152.7798394">
<ele>438.120</ele>
<time>2017-10-25T04:39:09.128Z</time>
</trkpt>
<trkpt lat="-27.0634860" lon="152.7803734">
<ele>441.001</ele>
<time>2017-10-25T04:39:12.163Z</time>
</trkpt>
<trkpt lat="-27.0641259" lon="152.7807110">
<ele>444.759</ele>
<time>2017-10-25T04:39:15.353Z</time>
</trkpt>
<trkpt lat="-27.0645372" lon="152.7808568">
<ele>449.359</ele>
<time>2017-10-25T04:39:17.412Z</time>
</trkpt>
<trkpt lat="-27.0649538" lon="152.7808995">
<ele>454.021</ele>
<time>2017-10-25T04:39:19.487Z</time>
</trkpt>
<trkpt lat="-27.0653382" lon="152.7808761">
<ele>458.273</ele>
<time>2017-10-25T04:39:21.418Z</time>
</trkpt>
<trkpt lat="-27.0657560" lon="152.7808544">
<ele>462.371</ele>
<time>2017-10-25T04:39:23.500Z</time>
</trkpt>
<trkpt lat="-27.0661489" lon="152.7808418">
<ele>466.376</ele>
<time>2017-10-25T04:39:25.462Z</time>
</trkpt>
<trkpt lat="-27.0665441" lon="152.7808881">
<ele>469.883</ele>
<time>2017-10-25T04:39:27.496Z</time>
</trkpt>
<trkpt lat="-27.0668976" lon="152.7809651">
<ele>472.626</ele>
<time>2017-10-25T04:39:29.389Z</time>
</trkpt>
<trkpt lat="-27.0672843" lon="152.7810132">
<ele>474.816</ele>
<time>2017-10-25T04:39:31.448Z</time>
</trkpt>
<trkpt lat="-27.0676437" lon="152.7810888">
<ele>476.790</ele>
<time>2017-10-25T04:39:33.381Z</time>
</trkpt>
<trkpt lat="-27.0682232" lon="152.7811365">
<ele>478.591</ele>
<time>2017-10-25T04:39:36.446Z</time>
</trkpt>
<trkpt lat="-27.0687784" lon="152.7812685">
<ele>480.064</ele>
<time>2017-10-25T04:39:39.457Z</time>
</trkpt>
<trkpt lat="-27.0693339" lon="152.7813832">
<ele>481.057</ele>
<time>2017-10-25T04:39:42.556Z</time>
</trkpt>
<trkpt lat="-27.0698045" lon="152.7815743">
<ele>481.523</ele>
<time>2017-10-25T04:39:45.419Z</time>
</trkpt>
<trkpt lat="-27.0703237" lon="152.7816469">
<ele>481.605</ele>
<time>2017-10-25T04:39:48.403Z</time>
</trkpt>
<trkpt lat="-27.0708582" lon="152.7816467">
<ele>481.375</ele>
<time>2017-10-25T04:39:51.353Z</time>
</trkpt>
<trkpt lat="-27.0714141" lon="152.7815810">
<ele>480.758</ele>
<time>2017-10-25T04:39:54.403Z</time>
</trkpt>
<trkpt lat="-27.0719479" lon="152.7816231">
<ele>479.899</ele>
<time>2017-10-25T04:39:57.343Z</time>
</trkpt>
<trkpt lat="-27.0724639" lon="152.7817767">
<ele>478.887</ele>
<time>2017-10-25T04:40:00.218Z</time>
</trkpt>
<trkpt lat="-27.0730224" lon="152.7819778">
<ele>477.300</ele>
<time>2017-10-25T04:40:03.139Z</time>
</trkpt>
<trkpt lat="-27.0736476" lon="152.7819605">
<ele>474.599</ele>
<time>2017-10-25T04:40:06.020Z</time>
</trkpt>
<trkpt lat="-27.0743080" lon="152.7818274">
<ele>470.895</ele>
<time>2017-10-25T04:40:09.097Z</time>
</trkpt>
<trkpt lat="-27.0749410" lon="152.7818038">
<ele>467.088</ele>
<time>2017-10-25T04:40:12.065Z</time>
</trkpt>
<trkpt lat="-27.0755549" lon="152.7819087">
<ele>464.227</ele>
<time>2017-10-25T04:40:14.993Z</time>
</trkpt>
<trkpt lat="-27.0761941" lon="152.7819860">
<ele>462.413</ele>
<time>2017-10-25T04:40:18.021Z</time>
</trkpt>
<trkpt lat="-27.0768251" lon="152.7818776">
<ele>460.858</ele>
<time>2017-10-25T04:40:21.035Z</time>
</trkpt>
<trkpt lat="-27.0773877" lon="152.7815979">
<ele>459.016</ele>
<time>2017-10-25T04:40:23.961Z</time>
</trkpt>
<trkpt lat="-27.0778966" lon="152.7811544">
<ele>457.247</ele>
<time>2017-10-25T04:40:27.147Z</time>
</trkpt>
<trkpt lat="-27.0782677" lon="152.7806535">
<ele>456.336</ele>
<time>2017-10-25T04:40:30.301Z</time>
</trkpt>
<trkpt lat="-27.0785991" lon="152.7802013">
<ele>457.041</ele>
<time>2017-10-25T04:40:33.443Z</time>
</trkpt>
<trkpt lat="-27.0788757" lon="152.7797692">
<ele>459.734</ele>
<time>2017-10-25T04:40:36.514Z</time>
</trkpt>
<trkpt lat="-27.0790596" lon="152.7793425">
<ele>463.812</ele>
<time>2017-10-25T04:40:39.300Z</time>
</trkpt>
<trkpt lat="-27.0791789" lon="152.7788279">
<ele>467.922</ele>
<time>2017-10-25T04:40:42.439Z</time>
</trkpt>
<trkpt lat="-27.0792110" lon="152.7783220">
<ele>471.428</ele>
<time>2017-10-25T04:40:45.476Z</time>
</trkpt>
<trkpt lat="-27.0792493" lon="152.7778456">
<ele>474.736</ele>
<time>2017-10-25T04:40:48.265Z</time>
</trkpt>
<trkpt lat="-27.0792675" lon="152.7773118">
<ele>478.156</ele>
<time>2017-10-25T04:40:51.252Z</time>
</trkpt>
<trkpt lat="-27.0792015" lon="152.7767874">
<ele>481.089</ele>
<time>2017-10-25T04:40:54.246Z</time>
</trkpt>
<trkpt lat="-27.0790731" lon="152.7762909">
<ele>482.398</ele>
<time>2017-10-25T04:40:57.327Z</time>
</trkpt>
<trkpt lat="-27.0789513" lon="152.7758708">
<ele>481.577</ele>
<time>2017-10-25T04:41:00.042Z</time>
</trkpt>
<trkpt lat="-27.0788978" lon="152.7753849">
<ele>479.611</ele>
<time>2017-10-25T04:41:02.989Z</time>
</trkpt>
<trkpt lat="-27.0789762" lon="152.7748775">
<ele>478.015</ele>
<time>2017-10-25T04:41:06.028Z</time>
</trkpt>
<trkpt lat="-27.0791368" lon="152.7744308">
<ele>477.649</ele>
<time>2017-10-25T04:41:08.919Z</time>
</trkpt>
<trkpt lat="-27.0793642" lon="152.7739758">
<ele>478.428</ele>
<time>2017-10-25T04:41:12.061Z</time>
</trkpt>
<trkpt lat="-27.0795975" lon="152.7735408">
<ele>479.546</ele>
<time>2017-10-25T04:41:15.028Z</time>
</trkpt>
<trkpt lat="-27.0799589" lon="152.7731942">
<ele>480.152</ele>
<time>2017-10-25T04:41:18.138Z</time>
</trkpt>
<trkpt lat="-27.0803181" lon="152.7728940">
<ele>480.116</ele>
<time>2017-10-25T04:41:21.258Z</time>
</trkpt>
<trkpt lat="-27.0806248" lon="152.7725751">
<ele>479.795</ele>
<time>2017-10-25T04:41:24.672Z</time>
</trkpt>
<trkpt lat="-27.0807477" lon="152.7722642">
<ele>479.525</ele>
<time>2017-10-25T04:41:27.515Z</time>
</trkpt>
<trkpt lat="-27.0807830" lon="152.7719312">
<ele>479.450</ele>
<time>2017-10-25T04:41:30.441Z</time>
</trkpt>
<trkpt lat="-27.0808518" lon="152.7715997">
<ele>479.616</ele>
<time>2017-10-25T04:41:33.456Z</time>
</trkpt>
<trkpt lat="-27.0808743" lon="152.7712777">
<ele>480.125</ele>
<time>2017-10-25T04:41:36.366Z</time>
</trkpt>
<trkpt lat="-27.0807594" lon="152.7709575">
<ele>481.038</ele>
<time>2017-10-25T04:41:39.468Z</time>
</trkpt>
<trkpt lat="-27.0806339" lon="152.7706761">
<ele>482.285</ele>
<time>2017-10-25T04:41:42.294Z</time>
</trkpt>
<trkpt lat="-27.0805084" lon="152.7703688">
<ele>483.695</ele>
<time>2017-10-25T04:41:45.342Z</time>
</trkpt>
<trkpt lat="-27.0805842" lon="152.7700148">
<ele>485.139</ele>
<time>2017-10-25T04:41:48.532Z</time>
</trkpt>
<trkpt lat="-27.0807827" lon="152.7697114">
<ele>486.689</ele>
<time>2017-10-25T04:41:51.545Z</time>
</trkpt>
<trkpt lat="-27.0808664" lon="152.7693692">
<ele>488.286</ele>
<time>2017-10-25T04:41:53.879Z</time>
</trkpt>
<trkpt lat="-27.0808837" lon="152.7687905">
<ele>489.520</ele>
<time>2017-10-25T04:41:56.812Z</time>
</trkpt>
<trkpt lat="-27.0809014" lon="152.7681249">
<ele>490.330</ele>
<time>2017-10-25T04:41:59.736Z</time>
</trkpt>
<trkpt lat="-27.0809496" lon="152.7674082">
<ele>491.343</ele>
<time>2017-10-25T04:42:02.613Z</time>
</trkpt>
<trkpt lat="-27.0809756" lon="152.7666165">
<ele>492.911</ele>
<time>2017-10-25T04:42:05.786Z</time>
</trkpt>
<trkpt lat="-27.0810520" lon="152.7659340">
<ele>494.446</ele>
<time>2017-10-25T04:42:08.767Z</time>
</trkpt>
<trkpt lat="-27.0811000" lon="152.7652786">
<ele>495.263</ele>
<time>2017-10-25T04:42:11.831Z</time>
</trkpt>
<trkpt lat="-27.0812480" lon="152.7646859">
<ele>495.309</ele>
<time>2017-10-25T04:42:14.918Z</time>
</trkpt>
<trkpt lat="-27.0814860" lon="152.7641925">
<ele>494.911</ele>
<time>2017-10-25T04:42:17.883Z</time>
</trkpt>
<trkpt lat="-27.0818180" lon="152.7637925">
<ele>494.819</ele>
<time>2017-10-25T04:42:20.855Z</time>
</trkpt>
<trkpt lat="-27.0821427" lon="152.7634054">
<ele>495.566</ele>
<time>2017-10-25T04:42:23.828Z</time>
</trkpt>
<trkpt lat="-27.0823762" lon="152.7629569">
<ele>496.681</ele>
<time>2017-10-25T04:42:26.873Z</time>
</trkpt>
<trkpt lat="-27.0824728" lon="152.7624823">
<ele>497.071</ele>
<time>2017-10-25T04:42:29.806Z</time>
</trkpt>
<trkpt lat="-27.0824065" lon="152.7619659">
<ele>496.133</ele>
<time>2017-10-25T04:42:32.976Z</time>
</trkpt>
<trkpt lat="-27.0823317" lon="152.7615124">
<ele>494.418</ele>
<time>2017-10-25T04:42:35.827Z</time>
</trkpt>
<trkpt lat="-27.0823043" lon="152.7610220">
<ele>492.723</ele>
<time>2017-10-25T04:42:38.838Z</time>
</trkpt>
<trkpt lat="-27.0824792" lon="152.7605586">
<ele>491.044</ele>
<time>2017-10-25T04:42:41.894Z</time>
</trkpt>
<trkpt lat="-27.0828451" lon="152.7602622">
<ele>489.350</ele>
<time>2017-10-25T04:42:44.930Z</time>
</trkpt>
<trkpt lat="-27.0833446" lon="152.7601565">
<ele>487.861</ele>
<time>2017-10-25T04:42:48.366Z</time>
</trkpt>
<trkpt lat="-27.0837080" lon="152.7599134">
<ele>486.678</ele>
<time>2017-10-25T04:42:51.148Z</time>
</trkpt>
<trkpt lat="-27.0840131" lon="152.7594719">
<ele>485.936</ele>
<time>2017-10-25T04:42:54.285Z</time>
</trkpt>
<trkpt lat="-27.0843255" lon="152.7590670">
<ele>485.690</ele>
<time>2017-10-25T04:42:57.303Z</time>
</trkpt>
<trkpt lat="-27.0846509" lon="152.7586748">
<ele>485.756</ele>
<time>2017-10-25T04:43:00.388Z</time>
</trkpt>
<trkpt lat="-27.0849489" lon="152.7582707">
<ele>486.241</ele>
<time>2017-10-25T04:43:03.495Z</time>
</trkpt>
<trkpt lat="-27.0852270" lon="152.7579026">
<ele>487.555</ele>
<time>2017-10-25T04:43:06.363Z</time>
</trkpt>
<trkpt lat="-27.0855056" lon="152.7575189">
<ele>489.690</ele>
<time>2017-10-25T04:43:09.202Z</time>
</trkpt>
<trkpt lat="-27.0857217" lon="152.7570127">
<ele>492.004</ele>
<time>2017-10-25T04:43:12.142Z</time>
</trkpt>
<trkpt lat="-27.0858590" lon="152.7564199">
<ele>493.820</ele>
<time>2017-10-25T04:43:15.152Z</time>
</trkpt>
<trkpt lat="-27.0859934" lon="152.7558291">
<ele>494.985</ele>
<time>2017-10-25T04:43:18.067Z</time>
</trkpt>
<trkpt lat="-27.0861552" lon="152.7552001">
<ele>495.896</ele>
<time>2017-10-25T04:43:21.055Z</time>
</trkpt>
<trkpt lat="-27.0864674" lon="152.7546070">
<ele>496.910</ele>
<time>2017-10-25T04:43:24.123Z</time>
</trkpt>
<trkpt lat="-27.0867672" lon="152.7540373">
<ele>497.899</ele>
<time>2017-10-25T04:43:26.895Z</time>
</trkpt>
<trkpt lat="-27.0870521" lon="152.7533392">
<ele>498.606</ele>
<time>2017-10-25T04:43:29.642Z</time>
</trkpt>
<trkpt lat="-27.0872606" lon="152.7524329">
<ele>499.307</ele>
<time>2017-10-25T04:43:32.613Z</time>
</trkpt>
<trkpt lat="-27.0874906" lon="152.7514505">
<ele>500.918</ele>
<time>2017-10-25T04:43:35.870Z</time>
</trkpt>
<trkpt lat="-27.0877315" lon="152.7506570">
<ele>504.237</ele>
<time>2017-10-25T04:43:38.881Z</time>
</trkpt>
<trkpt lat="-27.0879079" lon="152.7499265">
<ele>509.047</ele>
<time>2017-10-25T04:43:41.760Z</time>
</trkpt>
<trkpt lat="-27.0881081" lon="152.7492009">
<ele>514.528</ele>
<time>2017-10-25T04:43:44.719Z</time>
</trkpt>
<trkpt lat="-27.0882484" lon="152.7484754">
<ele>520.246</ele>
<time>2017-10-25T04:43:47.686Z</time>
</trkpt>
<trkpt lat="-27.0885618" lon="152.7478511">
<ele>525.948</ele>
<time>2017-10-25T04:43:50.443Z</time>
</trkpt>
<trkpt lat="-27.0891271" lon="152.7472834">
<ele>531.066</ele>
<time>2017-10-25T04:43:53.549Z</time>
</trkpt>
<trkpt lat="-27.0897991" lon="152.7468783">
<ele>535.045</ele>
<time>2017-10-25T04:43:56.652Z</time>
</trkpt>
<trkpt lat="-27.0905117" lon="152.7467201">
<ele>537.696</ele>
<time>2017-10-25T04:43:59.632Z</time>
</trkpt>
<trkpt lat="-27.0912346" lon="152.7467754">
<ele>539.121</ele>
<time>2017-10-25T04:44:02.559Z</time>
</trkpt>
<trkpt lat="-27.0919598" lon="152.7470256">
<ele>539.389</ele>
<time>2017-10-25T04:44:05.594Z</time>
</trkpt>
<trkpt lat="-27.0925775" lon="152.7475217">
<ele>538.412</ele>
<time>2017-10-25T04:44:08.701Z</time>
</trkpt>
<trkpt lat="-27.0931234" lon="152.7480419">
<ele>536.094</ele>
<time>2017-10-25T04:44:11.699Z</time>
</trkpt>
<trkpt lat="-27.0937025" lon="152.7484783">
<ele>532.888</ele>
<time>2017-10-25T04:44:14.619Z</time>
</trkpt>
<trkpt lat="-27.0943990" lon="152.7487683">
<ele>529.531</ele>
<time>2017-10-25T04:44:17.636Z</time>
</trkpt>
<trkpt lat="-27.0951692" lon="152.7487548">
<ele>526.054</ele>
<time>2017-10-25T04:44:20.557Z</time>
</trkpt>
<trkpt lat="-27.0959785" lon="152.7485772">
<ele>522.130</ele>
<time>2017-10-25T04:44:23.537Z</time>
</trkpt>
<trkpt lat="-27.0967905" lon="152.7484292">
<ele>517.961</ele>
<time>2017-10-25T04:44:26.583Z</time>
</trkpt>
<trkpt lat="-27.0975152" lon="152.7482931">
<ele>513.917</ele>
<time>2017-10-25T04:44:29.487Z</time>
</trkpt>
<trkpt lat="-27.0982338" lon="152.7482040">
<ele>510.194</ele>
<time>2017-10-25T04:44:32.422Z</time>
</trkpt>
<trkpt lat="-27.0989613" lon="152.7483515">
<ele>506.969</ele>
<time>2017-10-25T04:44:35.361Z</time>
</trkpt>
<trkpt lat="-27.0997043" lon="152.7486641">
<ele>504.293</ele>
<time>2017-10-25T04:44:38.481Z</time>
</trkpt>
<trkpt lat="-27.1003485" lon="152.7490972">
<ele>502.194</ele>
<time>2017-10-25T04:44:41.479Z</time>
</trkpt>
<trkpt lat="-27.1009085" lon="152.7496246">
<ele>500.868</ele>
<time>2017-10-25T04:44:44.470Z</time>
</trkpt>
<trkpt lat="-27.1013637" lon="152.7502344">
<ele>500.333</ele>
<time>2017-10-25T04:44:47.455Z</time>
</trkpt>
<trkpt lat="-27.1018712" lon="152.7508081">
<ele>500.038</ele>
<time>2017-10-25T04:44:50.513Z</time>
</trkpt>
<trkpt lat="-27.1025551" lon="152.7510741">
<ele>499.539</ele>
<time>2017-10-25T04:44:53.526Z</time>
</trkpt>
<trkpt lat="-27.1032807" lon="152.7512231">
<ele>499.121</ele>
<time>2017-10-25T04:44:56.581Z</time>
</trkpt>
<trkpt lat="-27.1039647" lon="152.7514057">
<ele>499.157</ele>
<time>2017-10-25T04:44:59.564Z</time>
</trkpt>
<trkpt lat="-27.1046399" lon="152.7514687">
<ele>499.469</ele>
<time>2017-10-25T04:45:02.437Z</time>
</trkpt>
<trkpt lat="-27.1053590" lon="152.7513123">
<ele>500.018</ele>
<time>2017-10-25T04:45:05.454Z</time>
</trkpt>
<trkpt lat="-27.1060563" lon="152.7511245">
<ele>501.140</ele>
<time>2017-10-25T04:45:08.322Z</time>
</trkpt>
<trkpt lat="-27.1068065" lon="152.7509592">
<ele>503.135</ele>
<time>2017-10-25T04:45:11.359Z</time>
</trkpt>
<trkpt lat="-27.1075297" lon="152.7508373">
<ele>505.895</ele>
<time>2017-10-25T04:45:14.290Z</time>
</trkpt>
<trkpt lat="-27.1082570" lon="152.7507079">
<ele>508.842</ele>
<time>2017-10-25T04:45:17.275Z</time>
</trkpt>
<trkpt lat="-27.1089551" lon="152.7505492">
<ele>511.529</ele>
<time>2017-10-25T04:45:20.258Z</time>
</trkpt>
<trkpt lat="-27.1096046" lon="152.7504347">
<ele>513.763</ele>
<time>2017-10-25T04:45:23.067Z</time>
</trkpt>
<trkpt lat="-27.1103333" lon="152.7504484">
<ele>515.281</ele>
<time>2017-10-25T04:45:26.104Z</time>
</trkpt>
<trkpt lat="-27.1110716" lon="152.7505941">
<ele>516.034</ele>
<time>2017-10-25T04:45:29.179Z</time>
</trkpt>
<trkpt lat="-27.1117672" lon="152.7508202">
<ele>516.076</ele>
<time>2017-10-25T04:45:32.234Z</time>
</trkpt>
<trkpt lat="-27.1123953" lon="152.7511263">
<ele>515.549</ele>
<time>2017-10-25T04:45:35.288Z</time>
</trkpt>
<trkpt lat="-27.1129823" lon="152.7514161">
<ele>515.036</ele>
<time>2017-10-25T04:45:38.294Z</time>
</trkpt>
<trkpt lat="-27.1135281" lon="152.7516766">
<ele>515.243</ele>
<time>2017-10-25T04:45:41.182Z</time>
</trkpt>
<trkpt lat="-27.1140668" lon="152.7519210">
<ele>516.424</ele>
<time>2017-10-25T04:45:44.089Z</time>
</trkpt>
<trkpt lat="-27.1146140" lon="152.7521998">
<ele>518.328</ele>
<time>2017-10-25T04:45:47.069Z</time>
</trkpt>
<trkpt lat="-27.1151768" lon="152.7524859">
<ele>520.669</ele>
<time>2017-10-25T04:45:50.062Z</time>
</trkpt>
<trkpt lat="-27.1156734" lon="152.7529235">
<ele>523.140</ele>
<time>2017-10-25T04:45:53.132Z</time>
</trkpt>
<trkpt lat="-27.1160594" lon="152.7534387">
<ele>525.065</ele>
<time>2017-10-25T04:45:56.123Z</time>
</trkpt>
<trkpt lat="-27.1164653" lon="152.7539329">
<ele>526.019</ele>
<time>2017-10-25T04:45:59.117Z</time>
</trkpt>
<trkpt lat="-27.1169542" lon="152.7543437">
<ele>526.207</ele>
<time>2017-10-25T04:46:02.089Z</time>
</trkpt>
<trkpt lat="-27.1175599" lon="152.7545791">
<ele>526.026</ele>
<time>2017-10-25T04:46:05.096Z</time>
</trkpt>
<trkpt lat="-27.1181775" lon="152.7548137">
<ele>525.655</ele>
<time>2017-10-25T04:46:08.094Z</time>
</trkpt>
<trkpt lat="-27.1188094" lon="152.7550204">
<ele>525.176</ele>
<time>2017-10-25T04:46:11.113Z</time>
</trkpt>
<trkpt lat="-27.1193972" lon="152.7553672">
<ele>524.808</ele>
<time>2017-10-25T04:46:14.178Z</time>
</trkpt>
<trkpt lat="-27.1199540" lon="152.7557346">
<ele>524.713</ele>
<time>2017-10-25T04:46:17.200Z</time>
</trkpt>
<trkpt lat="-27.1204659" lon="152.7561020">
<ele>524.620</ele>
<time>2017-10-25T04:46:20.132Z</time>
</trkpt>
<trkpt lat="-27.1208135" lon="152.7563204">
<ele>523.801</ele>
<time>2017-10-25T04:46:22.146Z</time>
</trkpt>
<trkpt lat="-27.1211396" lon="152.7565276">
<ele>521.802</ele>
<time>2017-10-25T04:46:24.053Z</time>
</trkpt>
<trkpt lat="-27.1214915" lon="152.7567373">
<ele>519.048</ele>
<time>2017-10-25T04:46:26.066Z</time>
</trkpt>
<trkpt lat="-27.1218272" lon="152.7570063">
<ele>516.213</ele>
<time>2017-10-25T04:46:28.111Z</time>
</trkpt>
<trkpt lat="-27.1221355" lon="152.7572826">
<ele>513.822</ele>
<time>2017-10-25T04:46:30.063Z</time>
</trkpt>
<trkpt lat="-27.1224042" lon="152.7575987">
<ele>512.199</ele>
<time>2017-10-25T04:46:32.048Z</time>
</trkpt>
<trkpt lat="-27.1226507" lon="152.7579609">
<ele>511.217</ele>
<time>2017-10-25T04:46:34.161Z</time>
</trkpt>
<trkpt lat="-27.1228484" lon="152.7583494">
<ele>510.459</ele>
<time>2017-10-25T04:46:36.244Z</time>
</trkpt>
<trkpt lat="-27.1229703" lon="152.7587543">
<ele>509.533</ele>
<time>2017-10-25T04:46:38.210Z</time>
</trkpt>
<trkpt lat="-27.1231689" lon="152.7593955">
<ele>508.376</ele>
<time>2017-10-25T04:46:41.234Z</time>
</trkpt>
<trkpt lat="-27.1234427" lon="152.7600287">
<ele>507.342</ele>
<time>2017-10-25T04:46:44.317Z</time>
</trkpt>
<trkpt lat="-27.1236564" lon="152.7606601">
<ele>506.738</ele>
<time>2017-10-25T04:46:47.340Z</time>
</trkpt>
<trkpt lat="-27.1237827" lon="152.7613214">
<ele>506.438</ele>
<time>2017-10-25T04:46:50.365Z</time>
</trkpt>
<trkpt lat="-27.1238600" lon="152.7619950">
<ele>506.172</ele>
<time>2017-10-25T04:46:53.306Z</time>
</trkpt>
<trkpt lat="-27.1239644" lon="152.7626832">
<ele>505.944</ele>
<time>2017-10-25T04:46:56.222Z</time>
</trkpt>
<trkpt lat="-27.1240770" lon="152.7634219">
<ele>505.728</ele>
<time>2017-10-25T04:46:59.342Z</time>
</trkpt>
<trkpt lat="-27.1242081" lon="152.7641197">
<ele>505.079</ele>
<time>2017-10-25T04:47:02.462Z</time>
</trkpt>
<trkpt lat="-27.1243842" lon="152.7647179">
<ele>503.506</ele>
<time>2017-10-25T04:47:05.412Z</time>
</trkpt>
<trkpt lat="-27.1246396" lon="152.7652634">
<ele>501.202</ele>
<time>2017-10-25T04:47:08.447Z</time>
</trkpt>
<trkpt lat="-27.1250015" lon="152.7657510">
<ele>499.110</ele>
<time>2017-10-25T04:47:11.620Z</time>
</trkpt>
<trkpt lat="-27.1255238" lon="152.7659614">
<ele>497.967</ele>
<time>2017-10-25T04:47:14.706Z</time>
</trkpt>
<trkpt lat="-27.1260350" lon="152.7661239">
<ele>497.860</ele>
<time>2017-10-25T04:47:17.592Z</time>
</trkpt>
<trkpt lat="-27.1265232" lon="152.7664356">
<ele>498.418</ele>
<time>2017-10-25T04:47:20.617Z</time>
</trkpt>
<trkpt lat="-27.1269919" lon="152.7668126">
<ele>498.820</ele>
<time>2017-10-25T04:47:23.777Z</time>
</trkpt>
<trkpt lat="-27.1273809" lon="152.7672183">
<ele>498.192</ele>
<time>2017-10-25T04:47:26.731Z</time>
</trkpt>
<trkpt lat="-27.1275453" lon="152.7677923">
<ele>496.059</ele>
<time>2017-10-25T04:47:29.750Z</time>
</trkpt>
<trkpt lat="-27.1275277" lon="152.7684058">
<ele>492.434</ele>
<time>2017-10-25T04:47:32.765Z</time>
</trkpt>
<trkpt lat="-27.1271703" lon="152.7689563">
<ele>487.884</ele>
<time>2017-10-25T04:47:35.905Z</time>
</trkpt>
<trkpt lat="-27.1266021" lon="152.7692413">
<ele>483.278</ele>
<time>2017-10-25T04:47:38.984Z</time>
</trkpt>
<trkpt lat="-27.1259822" lon="152.7693019">
<ele>479.310</ele>
<time>2017-10-25T04:47:42.104Z</time>
</trkpt>
<trkpt lat="-27.1254169" lon="152.7694690">
<ele>476.423</ele>
<time>2017-10-25T04:47:45.168Z</time>
</trkpt>
<trkpt lat="-27.1250718" lon="152.7699162">
<ele>474.829</ele>
<time>2017-10-25T04:47:47.923Z</time>
</trkpt>
<trkpt lat="-27.1248877" lon="152.7705619">
<ele>474.564</ele>
<time>2017-10-25T04:47:50.996Z</time>
</trkpt>
<trkpt lat="-27.1247770" lon="152.7712803">
<ele>475.373</ele>
<time>2017-10-25T04:47:54.389Z</time>
</trkpt>
<trkpt lat="-27.1243478" lon="152.7717627">
<ele>476.605</ele>
<time>2017-10-25T04:47:57.548Z</time>
</trkpt>
<trkpt lat="-27.1237957" lon="152.7720548">
<ele>477.553</ele>
<time>2017-10-25T04:48:00.567Z</time>
</trkpt>
<trkpt lat="-27.1232625" lon="152.7723801">
<ele>477.740</ele>
<time>2017-10-25T04:48:03.453Z</time>
</trkpt>
<trkpt lat="-27.1228733" lon="152.7729531">
<ele>477.163</ele>
<time>2017-10-25T04:48:06.472Z</time>
</trkpt>
<trkpt lat="-27.1224869" lon="152.7734930">
<ele>476.340</ele>
<time>2017-10-25T04:48:09.439Z</time>
</trkpt>
<trkpt lat="-27.1220786" lon="152.7740241">
<ele>475.626</ele>
<time>2017-10-25T04:48:12.541Z</time>
</trkpt>
<trkpt lat="-27.1216397" lon="152.7744819">
<ele>475.047</ele>
<time>2017-10-25T04:48:15.583Z</time>
</trkpt>
<trkpt lat="-27.1212066" lon="152.7749039">
<ele>474.710</ele>
<time>2017-10-25T04:48:18.590Z</time>
</trkpt>
<trkpt lat="-27.1207610" lon="152.7752529">
<ele>474.801</ele>
<time>2017-10-25T04:48:21.474Z</time>
</trkpt>
<trkpt lat="-27.1203222" lon="152.7756728">
<ele>475.456</ele>
<time>2017-10-25T04:48:24.463Z</time>
</trkpt>
<trkpt lat="-27.1199613" lon="152.7761836">
<ele>476.658</ele>
<time>2017-10-25T04:48:27.306Z</time>
</trkpt>
<trkpt lat="-27.1197653" lon="152.7768749">
<ele>477.999</ele>
<time>2017-10-25T04:48:30.291Z</time>
</trkpt>
<trkpt lat="-27.1195112" lon="152.7775366">
<ele>478.634</ele>
<time>2017-10-25T04:48:33.258Z</time>
</trkpt>
<trkpt lat="-27.1191650" lon="152.7781409">
<ele>477.985</ele>
<time>2017-10-25T04:48:36.326Z</time>
</trkpt>
<trkpt lat="-27.1187184" lon="152.7786398">
<ele>476.401</ele>
<time>2017-10-25T04:48:39.532Z</time>
</trkpt>
<trkpt lat="-27.1183383" lon="152.7790675">
<ele>474.575</ele>
<time>2017-10-25T04:48:42.371Z</time>
</trkpt>
<trkpt lat="-27.1179311" lon="152.7794951">
<ele>472.831</ele>
<time>2017-10-25T04:48:45.271Z</time>
</trkpt>
<trkpt lat="-27.1174765" lon="152.7799100">
<ele>471.352</ele>
<time>2017-10-25T04:48:48.244Z</time>
</trkpt>
<trkpt lat="-27.1169908" lon="152.7802840">
<ele>470.361</ele>
<time>2017-10-25T04:48:51.213Z</time>
</trkpt>
<trkpt lat="-27.1165550" lon="152.7807036">
<ele>469.665</ele>
<time>2017-10-25T04:48:54.063Z</time>
</trkpt>
<trkpt lat="-27.1162643" lon="152.7813474">
<ele>468.758</ele>
<time>2017-10-25T04:48:57.089Z</time>
</trkpt>
<trkpt lat="-27.1161019" lon="152.7820596">
<ele>467.298</ele>
<time>2017-10-25T04:49:00.025Z</time>
</trkpt>
<trkpt lat="-27.1161412" lon="152.7828209">
<ele>465.127</ele>
<time>2017-10-25T04:49:03.091Z</time>
</trkpt>
<trkpt lat="-27.1161862" lon="152.7835363">
<ele>462.592</ele>
<time>2017-10-25T04:49:06.076Z</time>
</trkpt>
<trkpt lat="-27.1162120" lon="152.7842328">
<ele>460.599</ele>
<time>2017-10-25T04:49:09.195Z</time>
</trkpt>
<trkpt lat="-27.1162017" lon="152.7848396">
<ele>459.954</ele>
<time>2017-10-25T04:49:12.040Z</time>
</trkpt>
<trkpt lat="-27.1162073" lon="152.7855045">
<ele>461.131</ele>
<time>2017-10-25T04:49:15.064Z</time>
</trkpt>
<trkpt lat="-27.1161901" lon="152.7861653">
<ele>464.098</ele>
<time>2017-10-25T04:49:17.969Z</time>
</trkpt>
<trkpt lat="-27.1162855" lon="152.7868430">
<ele>467.934</ele>
<time>2017-10-25T04:49:20.961Z</time>
</trkpt>
<trkpt lat="-27.1165360" lon="152.7874694">
<ele>471.609</ele>
<time>2017-10-25T04:49:24.035Z</time>
</trkpt>
<trkpt lat="-27.1168797" lon="152.7879705">
<ele>474.832</ele>
<time>2017-10-25T04:49:26.939Z</time>
</trkpt>
<trkpt lat="-27.1173338" lon="152.7883912">
<ele>477.369</ele>
<time>2017-10-25T04:49:29.991Z</time>
</trkpt>
<trkpt lat="-27.1178731" lon="152.7886078">
<ele>478.665</ele>
<time>2017-10-25T04:49:33.031Z</time>
</trkpt>
<trkpt lat="-27.1183957" lon="152.7888222">
<ele>478.449</ele>
<time>2017-10-25T04:49:36.223Z</time>
</trkpt>
<trkpt lat="-27.1188039" lon="152.7891801">
<ele>476.827</ele>
<time>2017-10-25T04:49:39.441Z</time>
</trkpt>
<trkpt lat="-27.1190447" lon="152.7896435">
<ele>474.045</ele>
<time>2017-10-25T04:49:42.532Z</time>
</trkpt>
<trkpt lat="-27.1193786" lon="152.7900145">
<ele>470.722</ele>
<time>2017-10-25T04:49:45.617Z</time>
</trkpt>
<trkpt lat="-27.1196559" lon="152.7904384">
<ele>467.877</ele>
<time>2017-10-25T04:49:48.613Z</time>
</trkpt>
<trkpt lat="-27.1198124" lon="152.7909578">
<ele>466.206</ele>
<time>2017-10-25T04:49:51.600Z</time>
</trkpt>
<trkpt lat="-27.1199580" lon="152.7915069">
<ele>465.541</ele>
<time>2017-10-25T04:49:54.713Z</time>
</trkpt>
<trkpt lat="-27.1202565" lon="152.7919488">
<ele>465.368</ele>
<time>2017-10-25T04:49:57.796Z</time>
</trkpt>
<trkpt lat="-27.1206241" lon="152.7923008">
<ele>465.035</ele>
<time>2017-10-25T04:50:00.843Z</time>
</trkpt>
<trkpt lat="-27.1210102" lon="152.7925899">
<ele>463.853</ele>
<time>2017-10-25T04:50:03.824Z</time>
</trkpt>
<trkpt lat="-27.1214424" lon="152.7927614">
<ele>461.869</ele>
<time>2017-10-25T04:50:06.780Z</time>
</trkpt>
<trkpt lat="-27.1218635" lon="152.7929529">
<ele>459.984</ele>
<time>2017-10-25T04:50:09.542Z</time>
</trkpt>
<trkpt lat="-27.1223141" lon="152.7932505">
<ele>458.914</ele>
<time>2017-10-25T04:50:12.555Z</time>
</trkpt>
<trkpt lat="-27.1226895" lon="152.7936292">
<ele>458.392</ele>
<time>2017-10-25T04:50:15.526Z</time>
</trkpt>
<trkpt lat="-27.1230326" lon="152.7940564">
<ele>457.379</ele>
<time>2017-10-25T04:50:18.735Z</time>
</trkpt>
<trkpt lat="-27.1232716" lon="152.7945152">
<ele>455.198</ele>
<time>2017-10-25T04:50:21.910Z</time>
</trkpt>
<trkpt lat="-27.1235159" lon="152.7949372">
<ele>452.412</ele>
<time>2017-10-25T04:50:24.948Z</time>
</trkpt>
<trkpt lat="-27.1238090" lon="152.7952957">
<ele>450.190</ele>
<time>2017-10-25T04:50:27.899Z</time>
</trkpt>
<trkpt lat="-27.1240684" lon="152.7957276">
<ele>448.796</ele>
<time>2017-10-25T04:50:31.299Z</time>
</trkpt>
<trkpt lat="-27.1238810" lon="152.7961822">
<ele>447.311</ele>
<time>2017-10-25T04:50:34.617Z</time>
</trkpt>
<trkpt lat="-27.1237440" lon="152.7966307">
<ele>445.311</ele>
<time>2017-10-25T04:50:37.548Z</time>
</trkpt>
<trkpt lat="-27.1240508" lon="152.7970095">
<ele>443.392</ele>
<time>2017-10-25T04:50:40.545Z</time>
</trkpt>
<trkpt lat="-27.1245241" lon="152.7972065">
<ele>441.889</ele>
<time>2017-10-25T04:50:43.805Z</time>
</trkpt>
<trkpt lat="-27.1249080" lon="152.7974840">
<ele>440.699</ele>
<time>2017-10-25T04:50:46.733Z</time>
</trkpt>
<trkpt lat="-27.1251205" lon="152.7980007">
<ele>439.896</ele>
<time>2017-10-25T04:50:50.102Z</time>
</trkpt>
<trkpt lat="-27.1253171" lon="152.7985028">
<ele>439.525</ele>
<time>2017-10-25T04:50:53.745Z</time>
</trkpt>
<trkpt lat="-27.1255592" lon="152.7988748">
<ele>439.367</ele>
<time>2017-10-25T04:50:56.990Z</time>
</trkpt>
<trkpt lat="-27.1259377" lon="152.7989137">
<ele>439.130</ele>
<time>2017-10-25T04:50:59.809Z</time>
</trkpt>
<trkpt lat="-27.1262493" lon="152.7992179">
<ele>438.565</ele>
<time>2017-10-25T04:51:02.692Z</time>
</trkpt>
<trkpt lat="-27.1263049" lon="152.7997124">
<ele>437.520</ele>
<time>2017-10-25T04:51:05.656Z</time>
</trkpt>
<trkpt lat="-27.1263681" lon="152.8001969">
<ele>436.036</ele>
<time>2017-10-25T04:51:08.472Z</time>
</trkpt>
<trkpt lat="-27.1262463" lon="152.8007050">
<ele>434.148</ele>
<time>2017-10-25T04:51:11.430Z</time>
</trkpt>
<trkpt lat="-27.1261720" lon="152.8012710">
<ele>431.799</ele>
<time>2017-10-25T04:51:14.436Z</time>
</trkpt>
<trkpt lat="-27.1263343" lon="152.8017830">
<ele>429.121</ele>
<time>2017-10-25T04:51:17.063Z</time>
</trkpt>
<trkpt lat="-27.1267706" lon="152.8021712">
<ele>426.320</ele>
<time>2017-10-25T04:51:20.006Z</time>
</trkpt>
<trkpt lat="-27.1273039" lon="152.8024699">
<ele>423.455</ele>
<time>2017-10-25T04:51:23.243Z</time>
</trkpt>
<trkpt lat="-27.1277939" lon="152.8027120">
<ele>420.356</ele>
<time>2017-10-25T04:51:26.357Z</time>
</trkpt>
<trkpt lat="-27.1282498" lon="152.8030012">
<ele>416.921</ele>
<time>2017-10-25T04:51:29.580Z</time>
</trkpt>
<trkpt lat="-27.1286272" lon="152.8033186">
<ele>413.336</ele>
<time>2017-10-25T04:51:32.533Z</time>
</trkpt>
<trkpt lat="-27.1289570" lon="152.8037155">
<ele>410.208</ele>
<time>2017-10-25T04:51:35.590Z</time>
</trkpt>
<trkpt lat="-27.1292093" lon="152.8041591">
<ele>408.102</ele>
<time>2017-10-25T04:51:38.534Z</time>
</trkpt>
<trkpt lat="-27.1294788" lon="152.8045997">
<ele>406.896</ele>
<time>2017-10-25T04:51:41.493Z</time>
</trkpt>
<trkpt lat="-27.1298516" lon="152.8049431">
<ele>406.107</ele>
<time>2017-10-25T04:51:44.506Z</time>
</trkpt>
<trkpt lat="-27.1302824" lon="152.8052097">
<ele>405.511</ele>
<time>2017-10-25T04:51:47.576Z</time>
</trkpt>
<trkpt lat="-27.1305386" lon="152.8056498">
<ele>404.542</ele>
<time>2017-10-25T04:51:50.463Z</time>
</trkpt>
<trkpt lat="-27.1306940" lon="152.8061946">
<ele>402.647</ele>
<time>2017-10-25T04:51:53.726Z</time>
</trkpt>
<trkpt lat="-27.1308644" lon="152.8066999">
<ele>400.126</ele>
<time>2017-10-25T04:51:57.106Z</time>
</trkpt>
<trkpt lat="-27.1311805" lon="152.8070422">
<ele>397.824</ele>
<time>2017-10-25T04:52:00.014Z</time>
</trkpt>
<trkpt lat="-27.1316223" lon="152.8071101">
<ele>396.332</ele>
<time>2017-10-25T04:52:02.614Z</time>
</trkpt>
<trkpt lat="-27.1320765" lon="152.8068681">
<ele>395.770</ele>
<time>2017-10-25T04:52:05.557Z</time>
</trkpt>
<trkpt lat="-27.1326149" lon="152.8068154">
<ele>395.775</ele>
<time>2017-10-25T04:52:08.785Z</time>
</trkpt>
<trkpt lat="-27.1330998" lon="152.8067694">
<ele>395.858</ele>
<time>2017-10-25T04:52:11.613Z</time>
</trkpt>
<trkpt lat="-27.1335763" lon="152.8069004">
<ele>395.767</ele>
<time>2017-10-25T04:52:14.429Z</time>
</trkpt>
<trkpt lat="-27.1340229" lon="152.8072656">
<ele>395.699</ele>
<time>2017-10-25T04:52:17.700Z</time>
</trkpt>
<trkpt lat="-27.1344687" lon="152.8075633">
<ele>396.047</ele>
<time>2017-10-25T04:52:20.955Z</time>
</trkpt>
<trkpt lat="-27.1348998" lon="152.8077295">
<ele>396.996</ele>
<time>2017-10-25T04:52:23.904Z</time>
</trkpt>
<trkpt lat="-27.1353500" lon="152.8078064">
<ele>398.348</ele>
<time>2017-10-25T04:52:26.900Z</time>
</trkpt>
<trkpt lat="-27.1358051" lon="152.8078921">
<ele>399.719</ele>
<time>2017-10-25T04:52:29.934Z</time>
</trkpt>
<trkpt lat="-27.1362424" lon="152.8080185">
<ele>401.181</ele>
<time>2017-10-25T04:52:32.801Z</time>
</trkpt>
<trkpt lat="-27.1366838" lon="152.8081205">
<ele>403.130</ele>
<time>2017-10-25T04:52:35.611Z</time>
</trkpt>
<trkpt lat="-27.1371731" lon="152.8081365">
<ele>405.370</ele>
<time>2017-10-25T04:52:38.639Z</time>
</trkpt>
<trkpt lat="-27.1376274" lon="152.8079984">
<ele>407.490</ele>
<time>2017-10-25T04:52:41.513Z</time>
</trkpt>
<trkpt lat="-27.1381014" lon="152.8078429">
<ele>409.273</ele>
<time>2017-10-25T04:52:44.481Z</time>
</trkpt>
<trkpt lat="-27.1385960" lon="152.8078804">
<ele>410.282</ele>
<time>2017-10-25T04:52:47.447Z</time>
</trkpt>
<trkpt lat="-27.1390467" lon="152.8081714">
<ele>409.903</ele>
<time>2017-10-25T04:52:50.517Z</time>
</trkpt>
<trkpt lat="-27.1394974" lon="152.8083846">
<ele>408.070</ele>
<time>2017-10-25T04:52:53.389Z</time>
</trkpt>
<trkpt lat="-27.1400026" lon="152.8086282">
<ele>405.173</ele>
<time>2017-10-25T04:52:56.760Z</time>
</trkpt>
<trkpt lat="-27.1404565" lon="152.8088286">
<ele>401.472</ele>
<time>2017-10-25T04:52:59.947Z</time>
</trkpt>
<trkpt lat="-27.1409082" lon="152.8089217">
<ele>396.951</ele>
<time>2017-10-25T04:53:03.116Z</time>
</trkpt>
<trkpt lat="-27.1413269" lon="152.8087584">
<ele>391.961</ele>
<time>2017-10-25T04:53:06.366Z</time>
</trkpt>
<trkpt lat="-27.1417323" lon="152.8087603">
<ele>387.311</ele>
<time>2017-10-25T04:53:09.439Z</time>
</trkpt>
<trkpt lat="-27.1419602" lon="152.8091483">
<ele>383.829</ele>
<time>2017-10-25T04:53:12.456Z</time>
</trkpt>
<trkpt lat="-27.1422039" lon="152.8095228">
<ele>381.871</ele>
<time>2017-10-25T04:53:15.386Z</time>
</trkpt>
<trkpt lat="-27.1426492" lon="152.8095744">
<ele>381.229</ele>
<time>2017-10-25T04:53:18.590Z</time>
</trkpt>
<trkpt lat="-27.1429969" lon="152.8098657">
<ele>381.279</ele>
<time>2017-10-25T04:53:21.801Z</time>
</trkpt>
<trkpt lat="-27.1430915" lon="152.8103579">
<ele>381.309</ele>
<time>2017-10-25T04:53:25.170Z</time>
</trkpt>
<trkpt lat="-27.1433670" lon="152.8106576">
<ele>380.756</ele>
<time>2017-10-25T04:53:28.004Z</time>
</trkpt>
<trkpt lat="-27.1437621" lon="152.8105681">
<ele>379.364</ele>
<time>2017-10-25T04:53:30.810Z</time>
</trkpt>
<trkpt lat="-27.1440167" lon="152.8106164">
<ele>377.310</ele>
<time>2017-10-25T04:53:32.487Z</time>
</trkpt>
<trkpt lat="-27.1442312" lon="152.8108551">
<ele>375.103</ele>
<time>2017-10-25T04:53:34.343Z</time>
</trkpt>
<trkpt lat="-27.1443772" lon="152.8111508">
<ele>373.145</ele>
<time>2017-10-25T04:53:36.158Z</time>
</trkpt>
<trkpt lat="-27.1446333" lon="152.8113547">
<ele>371.345</ele>
<time>2017-10-25T04:53:38.074Z</time>
</trkpt>
<trkpt lat="-27.1449385" lon="152.8114685">
<ele>369.312</ele>
<time>2017-10-25T04:53:40.045Z</time>
</trkpt>
<trkpt lat="-27.1452577" lon="152.8115277">
<ele>366.926</ele>
<time>2017-10-25T04:53:42.022Z</time>
</trkpt>
<trkpt lat="-27.1455682" lon="152.8116053">
<ele>364.586</ele>
<time>2017-10-25T04:53:43.989Z</time>
</trkpt>
<trkpt lat="-27.1458063" lon="152.8118482">
<ele>362.554</ele>
<time>2017-10-25T04:53:45.996Z</time>
</trkpt>
<trkpt lat="-27.1460124" lon="152.8121419">
<ele>360.650</ele>
<time>2017-10-25T04:53:48.095Z</time>
</trkpt>
<trkpt lat="-27.1464090" lon="152.8124954">
<ele>358.723</ele>
<time>2017-10-25T04:53:51.314Z</time>
</trkpt>
<trkpt lat="-27.1467764" lon="152.8128218">
<ele>356.611</ele>
<time>2017-10-25T04:53:54.455Z</time>
</trkpt>
<trkpt lat="-27.1471557" lon="152.8130868">
<ele>354.265</ele>
<time>2017-10-25T04:53:57.493Z</time>
</trkpt>
<trkpt lat="-27.1474753" lon="152.8133612">
<ele>352.089</ele>
<time>2017-10-25T04:54:00.037Z</time>
</trkpt>
<trkpt lat="-27.1476729" lon="152.8138509">
<ele>350.406</ele>
<time>2017-10-25T04:54:02.907Z</time>
</trkpt>
<trkpt lat="-27.1476476" lon="152.8144439">
<ele>348.911</ele>
<time>2017-10-25T04:54:06.168Z</time>
</trkpt>
<trkpt lat="-27.1475616" lon="152.8150068">
<ele>347.067</ele>
<time>2017-10-25T04:54:09.303Z</time>
</trkpt>
<trkpt lat="-27.1477410" lon="152.8155338">
<ele>345.038</ele>
<time>2017-10-25T04:54:12.318Z</time>
</trkpt>
<trkpt lat="-27.1482599" lon="152.8156794">
<ele>343.249</ele>
<time>2017-10-25T04:54:15.519Z</time>
</trkpt>
<trkpt lat="-27.1487620" lon="152.8157658">
<ele>341.292</ele>
<time>2017-10-25T04:54:18.631Z</time>
</trkpt>
<trkpt lat="-27.1490912" lon="152.8162093">
<ele>338.634</ele>
<time>2017-10-25T04:54:21.905Z</time>
</trkpt>
<trkpt lat="-27.1491923" lon="152.8167598">
<ele>335.904</ele>
<time>2017-10-25T04:54:25.049Z</time>
</trkpt>
<trkpt lat="-27.1492874" lon="152.8172452">
<ele>334.110</ele>
<time>2017-10-25T04:54:27.708Z</time>
</trkpt>
<trkpt lat="-27.1495381" lon="152.8177097">
<ele>333.057</ele>
<time>2017-10-25T04:54:30.586Z</time>
</trkpt>
<trkpt lat="-27.1500341" lon="152.8179356">
<ele>331.412</ele>
<time>2017-10-25T04:54:34.043Z</time>
</trkpt>
<trkpt lat="-27.1505074" lon="152.8180849">
<ele>328.611</ele>
<time>2017-10-25T04:54:37.770Z</time>
</trkpt>
<trkpt lat="-27.1509251" lon="152.8182889">
<ele>325.431</ele>
<time>2017-10-25T04:54:41.238Z</time>
</trkpt>
<trkpt lat="-27.1510024" lon="152.8186928">
<ele>322.441</ele>
<time>2017-10-25T04:54:43.786Z</time>
</trkpt>
<trkpt lat="-27.1507973" lon="152.8191702">
<ele>319.651</ele>
<time>2017-10-25T04:54:46.755Z</time>
</trkpt>
<trkpt lat="-27.1508400" lon="152.8196216">
<ele>317.409</ele>
<time>2017-10-25T04:54:49.216Z</time>
</trkpt>
<trkpt lat="-27.1512418" lon="152.8199508">
<ele>315.627</ele>
<time>2017-10-25T04:54:52.285Z</time>
</trkpt>
<trkpt lat="-27.1516263" lon="152.8203250">
<ele>313.306</ele>
<time>2017-10-25T04:54:55.354Z</time>
</trkpt>
<trkpt lat="-27.1517641" lon="152.8208716">
<ele>309.898</ele>
<time>2017-10-25T04:54:58.306Z</time>
</trkpt>
<trkpt lat="-27.1517334" lon="152.8214370">
<ele>306.195</ele>
<time>2017-10-25T04:55:01.304Z</time>
</trkpt>
<trkpt lat="-27.1517944" lon="152.8220119">
<ele>303.307</ele>
<time>2017-10-25T04:55:04.518Z</time>
</trkpt>
<trkpt lat="-27.1518661" lon="152.8225624">
<ele>301.183</ele>
<time>2017-10-25T04:55:07.696Z</time>
</trkpt>
<trkpt lat="-27.1519295" lon="152.8230658">
<ele>299.019</ele>
<time>2017-10-25T04:55:10.589Z</time>
</trkpt>
<trkpt lat="-27.1519612" lon="152.8235738">
<ele>296.455</ele>
<time>2017-10-25T04:55:13.398Z</time>
</trkpt>
<trkpt lat="-27.1522913" lon="152.8239664">
<ele>293.473</ele>
<time>2017-10-25T04:55:16.329Z</time>
</trkpt>
<trkpt lat="-27.1527261" lon="152.8242347">
<ele>290.345</ele>
<time>2017-10-25T04:55:19.419Z</time>
</trkpt>
<trkpt lat="-27.1531321" lon="152.8245505">
<ele>287.849</ele>
<time>2017-10-25T04:55:22.677Z</time>
</trkpt>
<trkpt lat="-27.1534128" lon="152.8249667">
<ele>286.192</ele>
<time>2017-10-25T04:55:26.175Z</time>
</trkpt>
<trkpt lat="-27.1537157" lon="152.8253814">
<ele>284.472</ele>
<time>2017-10-25T04:55:29.934Z</time>
</trkpt>
<trkpt lat="-27.1538556" lon="152.8258225">
<ele>281.743</ele>
<time>2017-10-25T04:55:32.872Z</time>
</trkpt>
<trkpt lat="-27.1542026" lon="152.8260029">
<ele>277.951</ele>
<time>2017-10-25T04:55:35.393Z</time>
</trkpt>
<trkpt lat="-27.1545606" lon="152.8257615">
<ele>273.659</ele>
<time>2017-10-25T04:55:38.132Z</time>
</trkpt>
<trkpt lat="-27.1549171" lon="152.8254207">
<ele>269.509</ele>
<time>2017-10-25T04:55:41.301Z</time>
</trkpt>
<trkpt lat="-27.1553725" lon="152.8254009">
<ele>265.995</ele>
<time>2017-10-25T04:55:44.466Z</time>
</trkpt>
<trkpt lat="-27.1558167" lon="152.8254674">
<ele>263.218</ele>
<time>2017-10-25T04:55:47.726Z</time>
</trkpt>
<trkpt lat="-27.1560592" lon="152.8250222">
<ele>260.782</ele>
<time>2017-10-25T04:55:51.084Z</time>
</trkpt>
<trkpt lat="-27.1562377" lon="152.8245654">
<ele>258.497</ele>
<time>2017-10-25T04:55:54.048Z</time>
</trkpt>
<trkpt lat="-27.1566065" lon="152.8244253">
<ele>256.410</ele>
<time>2017-10-25T04:55:56.633Z</time>
</trkpt>
<trkpt lat="-27.1570729" lon="152.8246015">
<ele>254.046</ele>
<time>2017-10-25T04:56:00.196Z</time>
</trkpt>
<trkpt lat="-27.1575168" lon="152.8246687">
<ele>250.655</ele>
<time>2017-10-25T04:56:03.821Z</time>
</trkpt>
<trkpt lat="-27.1579064" lon="152.8249191">
<ele>246.312</ele>
<time>2017-10-25T04:56:07.449Z</time>
</trkpt>
<trkpt lat="-27.1582924" lon="152.8249406">
<ele>241.921</ele>
<time>2017-10-25T04:56:10.395Z</time>
</trkpt>
<trkpt lat="-27.1586217" lon="152.8247154">
<ele>238.102</ele>
<time>2017-10-25T04:56:13.072Z</time>
</trkpt>
<trkpt lat="-27.1589366" lon="152.8249902">
<ele>234.534</ele>
<time>2017-10-25T04:56:15.686Z</time>
</trkpt>
<trkpt lat="-27.1592522" lon="152.8252980">
<ele>230.649</ele>
<time>2017-10-25T04:56:18.449Z</time>
</trkpt>
<trkpt lat="-27.1596753" lon="152.8251139">
<ele>226.519</ele>
<time>2017-10-25T04:56:21.506Z</time>
</trkpt>
<trkpt lat="-27.1600591" lon="152.8248043">
<ele>222.852</ele>
<time>2017-10-25T04:56:24.736Z</time>
</trkpt>
<trkpt lat="-27.1603634" lon="152.8244338">
<ele>220.174</ele>
<time>2017-10-25T04:56:27.718Z</time>
</trkpt>
<trkpt lat="-27.1607524" lon="152.8242210">
<ele>218.079</ele>
<time>2017-10-25T04:56:30.443Z</time>
</trkpt>
<trkpt lat="-27.1611852" lon="152.8240948">
<ele>215.674</ele>
<time>2017-10-25T04:56:33.269Z</time>
</trkpt>
<trkpt lat="-27.1614740" lon="152.8236417">
<ele>212.478</ele>
<time>2017-10-25T04:56:36.369Z</time>
</trkpt>
<trkpt lat="-27.1618535" lon="152.8232583">
<ele>208.487</ele>
<time>2017-10-25T04:56:39.358Z</time>
</trkpt>
<trkpt lat="-27.1622527" lon="152.8230059">
<ele>204.161</ele>
<time>2017-10-25T04:56:41.836Z</time>
</trkpt>
<trkpt lat="-27.1627513" lon="152.8230343">
<ele>200.374</ele>
<time>2017-10-25T04:56:44.420Z</time>
</trkpt>
<trkpt lat="-27.1632243" lon="152.8233221">
<ele>197.599</ele>
<time>2017-10-25T04:56:47.426Z</time>
</trkpt>
<trkpt lat="-27.1636851" lon="152.8237284">
<ele>195.441</ele>
<time>2017-10-25T04:56:50.911Z</time>
</trkpt>
<trkpt lat="-27.1640754" lon="152.8242064">
<ele>193.091</ele>
<time>2017-10-25T04:56:54.286Z</time>
</trkpt>
<trkpt lat="-27.1643361" lon="152.8246406">
<ele>190.138</ele>
<time>2017-10-25T04:56:57.289Z</time>
</trkpt>
<trkpt lat="-27.1642636" lon="152.8252246">
<ele>186.833</ele>
<time>2017-10-25T04:57:01.278Z</time>
</trkpt>
<trkpt lat="-27.1640628" lon="152.8257730">
<ele>183.472</ele>
<time>2017-10-25T04:57:05.110Z</time>
</trkpt>
<trkpt lat="-27.1638398" lon="152.8261995">
<ele>179.884</ele>
<time>2017-10-25T04:57:07.893Z</time>
</trkpt>
<trkpt lat="-27.1639080" lon="152.8266293">
<ele>175.834</ele>
<time>2017-10-25T04:57:10.185Z</time>
</trkpt>
<trkpt lat="-27.1642774" lon="152.8269030">
<ele>171.675</ele>
<time>2017-10-25T04:57:12.704Z</time>
</trkpt>
<trkpt lat="-27.1647354" lon="152.8270926">
<ele>168.062</ele>
<time>2017-10-25T04:57:15.459Z</time>
</trkpt>
<trkpt lat="-27.1652514" lon="152.8271960">
<ele>165.233</ele>
<time>2017-10-25T04:57:18.457Z</time>
</trkpt>
<trkpt lat="-27.1657998" lon="152.8269665">
<ele>162.866</ele>
<time>2017-10-25T04:57:21.793Z</time>
</trkpt>
<trkpt lat="-27.1662908" lon="152.8268002">
<ele>160.344</ele>
<time>2017-10-25T04:57:24.729Z</time>
</trkpt>
<trkpt lat="-27.1667815" lon="152.8266913">
<ele>157.471</ele>
<time>2017-10-25T04:57:27.622Z</time>
</trkpt>
<trkpt lat="-27.1673139" lon="152.8265432">
<ele>154.617</ele>
<time>2017-10-25T04:57:30.919Z</time>
</trkpt>
<trkpt lat="-27.1678017" lon="152.8267117">
<ele>151.662</ele>
<time>2017-10-25T04:57:34.193Z</time>
</trkpt>
<trkpt lat="-27.1682765" lon="152.8269891">
<ele>147.977</ele>
<time>2017-10-25T04:57:37.593Z</time>
</trkpt>
<trkpt lat="-27.1686863" lon="152.8272388">
<ele>143.569</ele>
<time>2017-10-25T04:57:40.425Z</time>
</trkpt>
<trkpt lat="-27.1691485" lon="152.8271759">
<ele>139.369</ele>
<time>2017-10-25T04:57:43.149Z</time>
</trkpt>
<trkpt lat="-27.1694151" lon="152.8266612">
<ele>136.437</ele>
<time>2017-10-25T04:57:46.232Z</time>
</trkpt>
<trkpt lat="-27.1694327" lon="152.8260685">
<ele>135.056</ele>
<time>2017-10-25T04:57:49.410Z</time>
</trkpt>
<trkpt lat="-27.1698089" lon="152.8256662">
<ele>134.381</ele>
<time>2017-10-25T04:57:52.518Z</time>
</trkpt>
<trkpt lat="-27.1702168" lon="152.8252934">
<ele>133.326</ele>
<time>2017-10-25T04:57:55.554Z</time>
</trkpt>
<trkpt lat="-27.1706259" lon="152.8250203">
<ele>131.688</ele>
<time>2017-10-25T04:57:58.269Z</time>
</trkpt>
<trkpt lat="-27.1711214" lon="152.8250124">
<ele>129.929</ele>
<time>2017-10-25T04:58:01.141Z</time>
</trkpt>
<trkpt lat="-27.1716558" lon="152.8251743">
<ele>127.926</ele>
<time>2017-10-25T04:58:04.469Z</time>
</trkpt>
<trkpt lat="-27.1721989" lon="152.8252241">
<ele>124.959</ele>
<time>2017-10-25T04:58:07.813Z</time>
</trkpt>
<trkpt lat="-27.1726941" lon="152.8250391">
<ele>120.776</ele>
<time>2017-10-25T04:58:11.001Z</time>
</trkpt>
<trkpt lat="-27.1731707" lon="152.8249445">
<ele>115.752</ele>
<time>2017-10-25T04:58:13.913Z</time>
</trkpt>
<trkpt lat="-27.1736521" lon="152.8249825">
<ele>110.551</ele>
<time>2017-10-25T04:58:16.760Z</time>
</trkpt>
<trkpt lat="-27.1741476" lon="152.8250306">
<ele>105.992</ele>
<time>2017-10-25T04:58:19.614Z</time>
</trkpt>
<trkpt lat="-27.1746060" lon="152.8252386">
<ele>102.321</ele>
<time>2017-10-25T04:58:22.379Z</time>
</trkpt>
<trkpt lat="-27.1749692" lon="152.8256990">
<ele>99.003</ele>
<time>2017-10-25T04:58:25.479Z</time>
</trkpt>
<trkpt lat="-27.1753623" lon="152.8260791">
<ele>95.827</ele>
<time>2017-10-25T04:58:28.598Z</time>
</trkpt>
<trkpt lat="-27.1758666" lon="152.8263147">
<ele>92.995</ele>
<time>2017-10-25T04:58:32.071Z</time>
</trkpt>
<trkpt lat="-27.1763867" lon="152.8264471">
<ele>90.413</ele>
<time>2017-10-25T04:58:35.502Z</time>
</trkpt>
<trkpt lat="-27.1768618" lon="152.8265277">
<ele>88.023</ele>
<time>2017-10-25T04:58:38.514Z</time>
</trkpt>
<trkpt lat="-27.1773169" lon="152.8266438">
<ele>86.008</ele>
<time>2017-10-25T04:58:41.335Z</time>
</trkpt>
<trkpt lat="-27.1777606" lon="152.8267582">
<ele>84.187</ele>
<time>2017-10-25T04:58:43.978Z</time>
</trkpt>
<trkpt lat="-27.1782398" lon="152.8268974">
<ele>82.465</ele>
<time>2017-10-25T04:58:46.740Z</time>
</trkpt>
<trkpt lat="-27.1787219" lon="152.8270355">
<ele>81.244</ele>
<time>2017-10-25T04:58:49.486Z</time>
</trkpt>
<trkpt lat="-27.1792179" lon="152.8271367">
<ele>80.834</ele>
<time>2017-10-25T04:58:52.311Z</time>
</trkpt>
<trkpt lat="-27.1797307" lon="152.8272621">
<ele>81.076</ele>
<time>2017-10-25T04:58:55.276Z</time>
</trkpt>
<trkpt lat="-27.1802722" lon="152.8273909">
<ele>81.528</ele>
<time>2017-10-25T04:58:58.394Z</time>
</trkpt>
<trkpt lat="-27.1807600" lon="152.8275456">
<ele>81.505</ele>
<time>2017-10-25T04:59:01.268Z</time>
</trkpt>
<trkpt lat="-27.1812864" lon="152.8276015">
<ele>80.367</ele>
<time>2017-10-25T04:59:04.288Z</time>
</trkpt>
<trkpt lat="-27.1818149" lon="152.8275853">
<ele>78.357</ele>
<time>2017-10-25T04:59:07.319Z</time>
</trkpt>
<trkpt lat="-27.1823285" lon="152.8276430">
<ele>76.392</ele>
<time>2017-10-25T04:59:10.269Z</time>
</trkpt>
<trkpt lat="-27.1828302" lon="152.8278485">
<ele>74.704</ele>
<time>2017-10-25T04:59:13.348Z</time>
</trkpt>
<trkpt lat="-27.1833374" lon="152.8279828">
<ele>73.004</ele>
<time>2017-10-25T04:59:16.500Z</time>
</trkpt>
<trkpt lat="-27.1838402" lon="152.8281370">
<ele>71.284</ele>
<time>2017-10-25T04:59:19.692Z</time>
</trkpt>
<trkpt lat="-27.1842812" lon="152.8284203">
<ele>69.612</ele>
<time>2017-10-25T04:59:22.578Z</time>
</trkpt>
<trkpt lat="-27.1846661" lon="152.8287871">
<ele>67.792</ele>
<time>2017-10-25T04:59:25.296Z</time>
</trkpt>
<trkpt lat="-27.1850946" lon="152.8289922">
<ele>65.480</ele>
<time>2017-10-25T04:59:27.806Z</time>
</trkpt>
<trkpt lat="-27.1856423" lon="152.8288713">
<ele>62.566</ele>
<time>2017-10-25T04:59:30.905Z</time>
</trkpt>
<trkpt lat="-27.1861103" lon="152.8285144">
<ele>59.253</ele>
<time>2017-10-25T04:59:34.119Z</time>
</trkpt>
<trkpt lat="-27.1865741" lon="152.8281686">
<ele>55.809</ele>
<time>2017-10-25T04:59:37.400Z</time>
</trkpt>
<trkpt lat="-27.1870282" lon="152.8278455">
<ele>52.831</ele>
<time>2017-10-25T04:59:40.824Z</time>
</trkpt>
<trkpt lat="-27.1874707" lon="152.8275218">
<ele>51.041</ele>
<time>2017-10-25T04:59:44.302Z</time>
</trkpt>
<trkpt lat="-27.1878511" lon="152.8271544">
<ele>50.658</ele>
<time>2017-10-25T04:59:47.564Z</time>
</trkpt>
<trkpt lat="-27.1881055" lon="152.8267301">
<ele>51.343</ele>
<time>2017-10-25T04:59:50.499Z</time>
</trkpt>
<trkpt lat="-27.1884649" lon="152.8264441">
<ele>52.384</ele>
<time>2017-10-25T04:59:53.347Z</time>
</trkpt>
<trkpt lat="-27.1889341" lon="152.8263623">
<ele>53.130</ele>
<time>2017-10-25T04:59:56.427Z</time>
</trkpt>
<trkpt lat="-27.1893971" lon="152.8263704">
<ele>53.334</ele>
<time>2017-10-25T04:59:59.395Z</time>
</trkpt>
<trkpt lat="-27.1898394" lon="152.8264249">
<ele>53.083</ele>
<time>2017-10-25T05:00:02.215Z</time>
</trkpt>
<trkpt lat="-27.1903063" lon="152.8264761">
<ele>52.575</ele>
<time>2017-10-25T05:00:05.176Z</time>
</trkpt>
<trkpt lat="-27.1907678" lon="152.8265257">
<ele>51.865</ele>
<time>2017-10-25T05:00:08.103Z</time>
</trkpt>
<trkpt lat="-27.1912336" lon="152.8265730">
<ele>51.006</ele>
<time>2017-10-25T05:00:11.069Z</time>
</trkpt>
<trkpt lat="-27.1917263" lon="152.8266090">
<ele>50.096</ele>
<time>2017-10-25T05:00:14.203Z</time>
</trkpt>
<trkpt lat="-27.1921888" lon="152.8266408">
<ele>49.248</ele>
<time>2017-10-25T05:00:17.127Z</time>
</trkpt>
<trkpt lat="-27.1926509" lon="152.8266993">
<ele>48.784</ele>
<time>2017-10-25T05:00:20.085Z</time>
</trkpt>
<trkpt lat="-27.1931182" lon="152.8267171">
<ele>48.981</ele>
<time>2017-10-25T05:00:23.143Z</time>
</trkpt>
<trkpt lat="-27.1935670" lon="152.8265471">
<ele>49.653</ele>
<time>2017-10-25T05:00:26.446Z</time>
</trkpt>
<trkpt lat="-27.1940415" lon="152.8263704">
<ele>50.386</ele>
<time>2017-10-25T05:00:30.472Z</time>
</trkpt>
<trkpt lat="-27.1944942" lon="152.8262194">
<ele>50.845</ele>
<time>2017-10-25T05:00:37.109Z</time>
</trkpt>
<trkpt lat="-27.1949243" lon="152.8260689">
<ele>50.673</ele>
<time>2017-10-25T05:00:42.581Z</time>
</trkpt>
<trkpt lat="-27.1952865" lon="152.8260115">
<ele>49.862</ele>
<time>2017-10-25T05:00:45.726Z</time>
</trkpt>
<trkpt lat="-27.1956108" lon="152.8260045">
<ele>49.021</ele>
<time>2017-10-25T05:00:48.306Z</time>
</trkpt>
<trkpt lat="-27.1957655" lon="152.8259947">
<ele>48.601</ele>
<time>2017-10-25T05:00:49.536Z</time>
</trkpt>
<trkpt lat="-27.1958760" lon="152.8260258">
<ele>48.365</ele>
<time>2017-10-25T05:00:50.439Z</time>
</trkpt>
<trkpt lat="-27.1958939" lon="152.8258458">
<ele>47.929</ele>
<time>2017-10-25T05:00:51.722Z</time>
</trkpt>
<trkpt lat="-27.1959448" lon="152.8256489">
<ele>47.023</ele>
<time>2017-10-25T05:00:53.180Z</time>
</trkpt>
<trkpt lat="-27.1959339" lon="152.8253834">
<ele>45.813</ele>
<time>2017-10-25T05:00:55.061Z</time>
</trkpt>
<trkpt lat="-27.1959547" lon="152.8250984">
<ele>44.864</ele>
<time>2017-10-25T05:00:57.078Z</time>
</trkpt>
<trkpt lat="-27.1959880" lon="152.8248178">
<ele>44.510</ele>
<time>2017-10-25T05:00:59.060Z</time>
</trkpt>
<trkpt lat="-27.1960318" lon="152.8245213">
<ele>44.703</ele>
<time>2017-10-25T05:01:01.213Z</time>
</trkpt>
<trkpt lat="-27.1962571" lon="152.8242083">
<ele>45.374</ele>
<time>2017-10-25T05:01:04.573Z</time>
</trkpt>
<trkpt lat="-27.1964987" lon="152.8238484">
<ele>46.240</ele>
<time>2017-10-25T05:01:09.389Z</time>
</trkpt>
<trkpt lat="-27.1967147" lon="152.8234909">
<ele>46.778</ele>
<time>2017-10-25T05:01:12.819Z</time>
</trkpt>
<trkpt lat="-27.1969078" lon="152.8231315">
<ele>46.781</ele>
<time>2017-10-25T05:01:15.711Z</time>
</trkpt>
<trkpt lat="-27.1971151" lon="152.8228434">
<ele>46.565</ele>
<time>2017-10-25T05:01:18.181Z</time>
</trkpt>
<trkpt lat="-27.1972183" lon="152.8226692">
<ele>46.434</ele>
<time>2017-10-25T05:01:19.606Z</time>
</trkpt>
<trkpt lat="-27.1974813" lon="152.8228186">
<ele>46.356</ele>
<time>2017-10-25T05:01:21.886Z</time>
</trkpt>
<trkpt lat="-27.1977967" lon="152.8230353">
<ele>46.130</ele>
<time>2017-10-25T05:01:24.804Z</time>
</trkpt>
<trkpt lat="-27.1982084" lon="152.8231376">
<ele>45.741</ele>
<time>2017-10-25T05:01:28.129Z</time>
</trkpt>
<trkpt lat="-27.1985738" lon="152.8232602">
<ele>45.573</ele>
<time>2017-10-25T05:01:31.095Z</time>
</trkpt>
<trkpt lat="-27.1989551" lon="152.8233270">
<ele>45.904</ele>
<time>2017-10-25T05:01:34.108Z</time>
</trkpt>
<trkpt lat="-27.1993217" lon="152.8233954">
<ele>46.487</ele>
<time>2017-10-25T05:01:37.041Z</time>
</trkpt>
<trkpt lat="-27.1996799" lon="152.8234686">
<ele>47.030</ele>
<time>2017-10-25T05:01:39.867Z</time>
</trkpt>
<trkpt lat="-27.2000700" lon="152.8235854">
<ele>47.476</ele>
<time>2017-10-25T05:01:42.713Z</time>
</trkpt>
<trkpt lat="-27.2004293" lon="152.8237332">
<ele>47.343</ele>
<time>2017-10-25T05:01:45.029Z</time>
</trkpt>
<trkpt lat="-27.2006947" lon="152.8240504">
<ele>46.165</ele>
<time>2017-10-25T05:01:47.098Z</time>
</trkpt>
<trkpt lat="-27.2009842" lon="152.8243215">
<ele>44.446</ele>
<time>2017-10-25T05:01:49.123Z</time>
</trkpt>
<trkpt lat="-27.2013210" lon="152.8246480">
<ele>42.971</ele>
<time>2017-10-25T05:01:51.532Z</time>
</trkpt>
<trkpt lat="-27.2018031" lon="152.8250514">
<ele>41.794</ele>
<time>2017-10-25T05:01:54.809Z</time>
</trkpt>
<trkpt lat="-27.2022192" lon="152.8254802">
<ele>40.738</ele>
<time>2017-10-25T05:01:57.888Z</time>
</trkpt>
<trkpt lat="-27.2026108" lon="152.8258944">
<ele>39.936</ele>
<time>2017-10-25T05:02:00.846Z</time>
</trkpt>
<trkpt lat="-27.2030184" lon="152.8262810">
<ele>39.715</ele>
<time>2017-10-25T05:02:03.786Z</time>
</trkpt>
<trkpt lat="-27.2034451" lon="152.8266727">
<ele>40.058</ele>
<time>2017-10-25T05:02:06.802Z</time>
</trkpt>
<trkpt lat="-27.2038603" lon="152.8270504">
<ele>40.526</ele>
<time>2017-10-25T05:02:09.732Z</time>
</trkpt>
<trkpt lat="-27.2042694" lon="152.8274511">
<ele>40.771</ele>
<time>2017-10-25T05:02:12.721Z</time>
</trkpt>
<trkpt lat="-27.2047040" lon="152.8278103">
<ele>41.283</ele>
<time>2017-10-25T05:02:15.633Z</time>
</trkpt>
<trkpt lat="-27.2051359" lon="152.8281805">
<ele>42.725</ele>
<time>2017-10-25T05:02:18.423Z</time>
</trkpt>
<trkpt lat="-27.2055804" lon="152.8285435">
<ele>44.688</ele>
<time>2017-10-25T05:02:21.123Z</time>
</trkpt>
<trkpt lat="-27.2060906" lon="152.8287836">
<ele>46.148</ele>
<time>2017-10-25T05:02:23.806Z</time>
</trkpt>
<trkpt lat="-27.2066319" lon="152.8290850">
<ele>46.709</ele>
<time>2017-10-25T05:02:26.750Z</time>
</trkpt>
<trkpt lat="-27.2071153" lon="152.8295022">
<ele>46.626</ele>
<time>2017-10-25T05:02:29.719Z</time>
</trkpt>
<trkpt lat="-27.2076076" lon="152.8299038">
<ele>46.439</ele>
<time>2017-10-25T05:02:32.674Z</time>
</trkpt>
<trkpt lat="-27.2081559" lon="152.8302208">
<ele>46.627</ele>
<time>2017-10-25T05:02:35.656Z</time>
</trkpt>
<trkpt lat="-27.2086898" lon="152.8305351">
<ele>47.182</ele>
<time>2017-10-25T05:02:38.570Z</time>
</trkpt>
<trkpt lat="-27.2092271" lon="152.8308353">
<ele>47.577</ele>
<time>2017-10-25T05:02:41.489Z</time>
</trkpt>
<trkpt lat="-27.2098034" lon="152.8311176">
<ele>47.494</ele>
<time>2017-10-25T05:02:44.552Z</time>
</trkpt>
<trkpt lat="-27.2103495" lon="152.8314077">
<ele>47.326</ele>
<time>2017-10-25T05:02:47.484Z</time>
</trkpt>
<trkpt lat="-27.2109352" lon="152.8316513">
<ele>47.456</ele>
<time>2017-10-25T05:02:50.510Z</time>
</trkpt>
<trkpt lat="-27.2115120" lon="152.8318874">
<ele>47.539</ele>
<time>2017-10-25T05:02:53.490Z</time>
</trkpt>
<trkpt lat="-27.2121040" lon="152.8321043">
<ele>46.933</ele>
<time>2017-10-25T05:02:56.530Z</time>
</trkpt>
<trkpt lat="-27.2126923" lon="152.8323173">
<ele>45.299</ele>
<time>2017-10-25T05:02:59.550Z</time>
</trkpt>
<trkpt lat="-27.2132576" lon="152.8325218">
<ele>42.832</ele>
<time>2017-10-25T05:03:02.437Z</time>
</trkpt>
<trkpt lat="-27.2138126" lon="152.8327804">
<ele>40.364</ele>
<time>2017-10-25T05:03:05.359Z</time>
</trkpt>
<trkpt lat="-27.2144156" lon="152.8329970">
<ele>38.785</ele>
<time>2017-10-25T05:03:08.439Z</time>
</trkpt>
<trkpt lat="-27.2150324" lon="152.8331045">
<ele>38.439</ele>
<time>2017-10-25T05:03:11.389Z</time>
</trkpt>
<trkpt lat="-27.2156230" lon="152.8332298">
<ele>39.040</ele>
<time>2017-10-25T05:03:14.001Z</time>
</trkpt>
<trkpt lat="-27.2162244" lon="152.8332864">
<ele>39.940</ele>
<time>2017-10-25T05:03:16.450Z</time>
</trkpt>
<trkpt lat="-27.2168704" lon="152.8332896">
<ele>40.906</ele>
<time>2017-10-25T05:03:18.977Z</time>
</trkpt>
<trkpt lat="-27.2176285" lon="152.8331515">
<ele>42.190</ele>
<time>2017-10-25T05:03:21.949Z</time>
</trkpt>
<trkpt lat="-27.2183710" lon="152.8329298">
<ele>43.772</ele>
<time>2017-10-25T05:03:24.921Z</time>
</trkpt>
<trkpt lat="-27.2190831" lon="152.8326034">
<ele>45.309</ele>
<time>2017-10-25T05:03:27.898Z</time>
</trkpt>
<trkpt lat="-27.2198028" lon="152.8322670">
<ele>46.589</ele>
<time>2017-10-25T05:03:30.917Z</time>
</trkpt>
<trkpt lat="-27.2205140" lon="152.8319272">
<ele>47.721</ele>
<time>2017-10-25T05:03:33.904Z</time>
</trkpt>
<trkpt lat="-27.2212073" lon="152.8316061">
<ele>49.067</ele>
<time>2017-10-25T05:03:36.798Z</time>
</trkpt>
<trkpt lat="-27.2219056" lon="152.8312607">
<ele>50.560</ele>
<time>2017-10-25T05:03:39.749Z</time>
</trkpt>
<trkpt lat="-27.2226100" lon="152.8309486">
<ele>51.591</ele>
<time>2017-10-25T05:03:42.683Z</time>
</trkpt>
<trkpt lat="-27.2233234" lon="152.8305906">
<ele>51.887</ele>
<time>2017-10-25T05:03:45.713Z</time>
</trkpt>
<trkpt lat="-27.2240264" lon="152.8302520">
<ele>51.904</ele>
<time>2017-10-25T05:03:48.674Z</time>
</trkpt>
<trkpt lat="-27.2247609" lon="152.8299691">
<ele>52.384</ele>
<time>2017-10-25T05:03:51.671Z</time>
</trkpt>
<trkpt lat="-27.2255277" lon="152.8298225">
<ele>53.726</ele>
<time>2017-10-25T05:03:54.665Z</time>
</trkpt>
<trkpt lat="-27.2262918" lon="152.8297027">
<ele>55.833</ele>
<time>2017-10-25T05:03:57.632Z</time>
</trkpt>
<trkpt lat="-27.2270704" lon="152.8296683">
<ele>58.554</ele>
<time>2017-10-25T05:04:00.640Z</time>
</trkpt>
<trkpt lat="-27.2278270" lon="152.8297564">
<ele>61.698</ele>
<time>2017-10-25T05:04:03.575Z</time>
</trkpt>
<trkpt lat="-27.2285742" lon="152.8298449">
<ele>64.737</ele>
<time>2017-10-25T05:04:06.465Z</time>
</trkpt>
<trkpt lat="-27.2293610" lon="152.8298851">
<ele>67.095</ele>
<time>2017-10-25T05:04:09.500Z</time>
</trkpt>
<trkpt lat="-27.2301385" lon="152.8299241">
<ele>68.704</ele>
<time>2017-10-25T05:04:12.500Z</time>
</trkpt>
<trkpt lat="-27.2309004" lon="152.8299516">
<ele>70.114</ele>
<time>2017-10-25T05:04:15.441Z</time>
</trkpt>
<trkpt lat="-27.2316744" lon="152.8299934">
<ele>71.958</ele>
<time>2017-10-25T05:04:18.438Z</time>
</trkpt>
<trkpt lat="-27.2324303" lon="152.8301430">
<ele>74.324</ele>
<time>2017-10-25T05:04:21.399Z</time>
</trkpt>
<trkpt lat="-27.2331765" lon="152.8303365">
<ele>76.969</ele>
<time>2017-10-25T05:04:24.348Z</time>
</trkpt>
<trkpt lat="-27.2339153" lon="152.8306274">
<ele>79.798</ele>
<time>2017-10-25T05:04:27.354Z</time>
</trkpt>
<trkpt lat="-27.2346352" lon="152.8309108">
<ele>82.654</ele>
<time>2017-10-25T05:04:30.282Z</time>
</trkpt>
<trkpt lat="-27.2353364" lon="152.8312938">
<ele>84.937</ele>
<time>2017-10-25T05:04:33.278Z</time>
</trkpt>
<trkpt lat="-27.2360341" lon="152.8316650">
<ele>86.082</ele>
<time>2017-10-25T05:04:36.239Z</time>
</trkpt>
<trkpt lat="-27.2367436" lon="152.8320113">
<ele>86.100</ele>
<time>2017-10-25T05:04:39.218Z</time>
</trkpt>
<trkpt lat="-27.2374839" lon="152.8322771">
<ele>85.253</ele>
<time>2017-10-25T05:04:42.229Z</time>
</trkpt>
<trkpt lat="-27.2382495" lon="152.8324608">
<ele>83.474</ele>
<time>2017-10-25T05:04:45.264Z</time>
</trkpt>
<trkpt lat="-27.2390123" lon="152.8325176">
<ele>80.865</ele>
<time>2017-10-25T05:04:48.236Z</time>
</trkpt>
<trkpt lat="-27.2397981" lon="152.8325172">
<ele>78.055</ele>
<time>2017-10-25T05:04:51.314Z</time>
</trkpt>
<trkpt lat="-27.2405436" lon="152.8325345">
<ele>75.598</ele>
<time>2017-10-25T05:04:54.215Z</time>
</trkpt>
<trkpt lat="-27.2412876" lon="152.8327040">
<ele>73.662</ele>
<time>2017-10-25T05:04:57.134Z</time>
</trkpt>
<trkpt lat="-27.2420332" lon="152.8330318">
<ele>72.240</ele>
<time>2017-10-25T05:05:00.209Z</time>
</trkpt>
<trkpt lat="-27.2427666" lon="152.8333524">
<ele>71.153</ele>
<time>2017-10-25T05:05:03.241Z</time>
</trkpt>
<trkpt lat="-27.2435211" lon="152.8335945">
<ele>70.259</ele>
<time>2017-10-25T05:05:06.281Z</time>
</trkpt>
<trkpt lat="-27.2442484" lon="152.8337135">
<ele>69.583</ele>
<time>2017-10-25T05:05:09.139Z</time>
</trkpt>
<trkpt lat="-27.2450168" lon="152.8338533">
<ele>68.987</ele>
<time>2017-10-25T05:05:12.166Z</time>
</trkpt>
<trkpt lat="-27.2457444" lon="152.8341210">
<ele>68.247</ele>
<time>2017-10-25T05:05:15.123Z</time>
</trkpt>
<trkpt lat="-27.2463929" lon="152.8346241">
<ele>67.458</ele>
<time>2017-10-25T05:05:18.157Z</time>
</trkpt>
<trkpt lat="-27.2469628" lon="152.8352176">
<ele>66.880</ele>
<time>2017-10-25T05:05:21.156Z</time>
</trkpt>
<trkpt lat="-27.2475204" lon="152.8358101">
<ele>66.462</ele>
<time>2017-10-25T05:05:24.130Z</time>
</trkpt>
<trkpt lat="-27.2480811" lon="152.8363982">
<ele>65.559</ele>
<time>2017-10-25T05:05:27.124Z</time>
</trkpt>
<trkpt lat="-27.2486074" lon="152.8370051">
<ele>63.117</ele>
<time>2017-10-25T05:05:30.082Z</time>
</trkpt>
<trkpt lat="-27.2491159" lon="152.8376532">
<ele>58.893</ele>
<time>2017-10-25T05:05:33.124Z</time>
</trkpt>
<trkpt lat="-27.2495359" lon="152.8383722">
<ele>54.439</ele>
<time>2017-10-25T05:05:36.102Z</time>
</trkpt>
<trkpt lat="-27.2498592" lon="152.8391461">
<ele>51.644</ele>
<time>2017-10-25T05:05:39.024Z</time>
</trkpt>
<trkpt lat="-27.2500989" lon="152.8400069">
<ele>51.080</ele>
<time>2017-10-25T05:05:42.139Z</time>
</trkpt>
<trkpt lat="-27.2502436" lon="152.8408294">
<ele>52.392</ele>
<time>2017-10-25T05:05:45.030Z</time>
</trkpt>
<trkpt lat="-27.2502980" lon="152.8413890">
<ele>54.555</ele>
<time>2017-10-25T05:05:46.969Z</time>
</trkpt>
<trkpt lat="-27.2504718" lon="152.8422446">
<ele>55.996</ele>
<time>2017-10-25T05:05:50.003Z</time>
</trkpt>
<trkpt lat="-27.2507201" lon="152.8430694">
<ele>55.737</ele>
<time>2017-10-25T05:05:53.002Z</time>
</trkpt>
<trkpt lat="-27.2510588" lon="152.8438361">
<ele>53.893</ele>
<time>2017-10-25T05:05:55.943Z</time>
</trkpt>
<trkpt lat="-27.2514854" lon="152.8445756">
<ele>51.178</ele>
<time>2017-10-25T05:05:58.978Z</time>
</trkpt>
<trkpt lat="-27.2519537" lon="152.8452515">
<ele>48.634</ele>
<time>2017-10-25T05:06:01.921Z</time>
</trkpt>
<trkpt lat="-27.2524469" lon="152.8459153">
<ele>47.217</ele>
<time>2017-10-25T05:06:04.896Z</time>
</trkpt>
<trkpt lat="-27.2529400" lon="152.8465785">
<ele>47.018</ele>
<time>2017-10-25T05:06:07.880Z</time>
</trkpt>
<trkpt lat="-27.2534122" lon="152.8472594">
<ele>47.189</ele>
<time>2017-10-25T05:06:10.863Z</time>
</trkpt>
<trkpt lat="-27.2539022" lon="152.8478945">
<ele>47.077</ele>
<time>2017-10-25T05:06:13.769Z</time>
</trkpt>
<trkpt lat="-27.2543870" lon="152.8485685">
<ele>46.782</ele>
<time>2017-10-25T05:06:16.763Z</time>
</trkpt>
<trkpt lat="-27.2548852" lon="152.8492174">
<ele>46.671</ele>
<time>2017-10-25T05:06:19.699Z</time>
</trkpt>
<trkpt lat="-27.2554773" lon="152.8497932">
<ele>46.899</ele>
<time>2017-10-25T05:06:22.698Z</time>
</trkpt>
<trkpt lat="-27.2561140" lon="152.8503168">
<ele>47.331</ele>
<time>2017-10-25T05:06:25.731Z</time>
</trkpt>
<trkpt lat="-27.2567770" lon="152.8507498">
<ele>47.726</ele>
<time>2017-10-25T05:06:28.673Z</time>
</trkpt>
<trkpt lat="-27.2574720" lon="152.8511115">
<ele>48.006</ele>
<time>2017-10-25T05:06:31.603Z</time>
</trkpt>
<trkpt lat="-27.2582198" lon="152.8513834">
<ele>48.229</ele>
<time>2017-10-25T05:06:34.633Z</time>
</trkpt>
<trkpt lat="-27.2589817" lon="152.8515743">
<ele>48.572</ele>
<time>2017-10-25T05:06:37.683Z</time>
</trkpt>
<trkpt lat="-27.2597314" lon="152.8517168">
<ele>49.081</ele>
<time>2017-10-25T05:06:40.672Z</time>
</trkpt>
<trkpt lat="-27.2604827" lon="152.8517498">
<ele>49.418</ele>
<time>2017-10-25T05:06:43.614Z</time>
</trkpt>
<trkpt lat="-27.2612264" lon="152.8517219">
<ele>49.082</ele>
<time>2017-10-25T05:06:46.520Z</time>
</trkpt>
<trkpt lat="-27.2619961" lon="152.8516240">
<ele>47.854</ele>
<time>2017-10-25T05:06:49.551Z</time>
</trkpt>
<trkpt lat="-27.2627374" lon="152.8514666">
<ele>46.021</ele>
<time>2017-10-25T05:06:52.495Z</time>
</trkpt>
<trkpt lat="-27.2634955" lon="152.8513435">
<ele>44.291</ele>
<time>2017-10-25T05:06:55.471Z</time>
</trkpt>
<trkpt lat="-27.2642503" lon="152.8512045">
<ele>43.344</ele>
<time>2017-10-25T05:06:58.435Z</time>
</trkpt>
<trkpt lat="-27.2650202" lon="152.8510613">
<ele>43.791</ele>
<time>2017-10-25T05:07:01.457Z</time>
</trkpt>
<trkpt lat="-27.2657899" lon="152.8509210">
<ele>45.887</ele>
<time>2017-10-25T05:07:04.471Z</time>
</trkpt>
<trkpt lat="-27.2665337" lon="152.8507974">
<ele>49.023</ele>
<time>2017-10-25T05:07:07.378Z</time>
</trkpt>
<trkpt lat="-27.2672887" lon="152.8505759">
<ele>52.117</ele>
<time>2017-10-25T05:07:10.393Z</time>
</trkpt>
<trkpt lat="-27.2680440" lon="152.8504365">
<ele>54.428</ele>
<time>2017-10-25T05:07:13.346Z</time>
</trkpt>
<trkpt lat="-27.2688188" lon="152.8503342">
<ele>55.659</ele>
<time>2017-10-25T05:07:16.347Z</time>
</trkpt>
<trkpt lat="-27.2695841" lon="152.8501859">
<ele>55.906</ele>
<time>2017-10-25T05:07:19.334Z</time>
</trkpt>
<trkpt lat="-27.2703525" lon="152.8500393">
<ele>55.420</ele>
<time>2017-10-25T05:07:22.334Z</time>
</trkpt>
<trkpt lat="-27.2711190" lon="152.8499190">
<ele>54.464</ele>
<time>2017-10-25T05:07:25.312Z</time>
</trkpt>
<trkpt lat="-27.2718673" lon="152.8497661">
<ele>53.457</ele>
<time>2017-10-25T05:07:28.241Z</time>
</trkpt>
<trkpt lat="-27.2726319" lon="152.8496242">
<ele>52.823</ele>
<time>2017-10-25T05:07:31.234Z</time>
</trkpt>
<trkpt lat="-27.2733907" lon="152.8494912">
<ele>52.445</ele>
<time>2017-10-25T05:07:34.215Z</time>
</trkpt>
<trkpt lat="-27.2741434" lon="152.8493070">
<ele>51.771</ele>
<time>2017-10-25T05:07:37.212Z</time>
</trkpt>
<trkpt lat="-27.2748738" lon="152.8490783">
<ele>50.661</ele>
<time>2017-10-25T05:07:40.148Z</time>
</trkpt>
<trkpt lat="-27.2753647" lon="152.8489622">
<ele>49.517</ele>
<time>2017-10-25T05:07:42.085Z</time>
</trkpt>
<trkpt lat="-27.2758727" lon="152.8488082">
<ele>48.727</ele>
<time>2017-10-25T05:07:44.114Z</time>
</trkpt>
<trkpt lat="-27.2763468" lon="152.8486064">
<ele>48.399</ele>
<time>2017-10-25T05:07:46.071Z</time>
</trkpt>
<trkpt lat="-27.2768413" lon="152.8484190">
<ele>48.593</ele>
<time>2017-10-25T05:07:48.088Z</time>
</trkpt>
<trkpt lat="-27.2773207" lon="152.8482275">
<ele>49.367</ele>
<time>2017-10-25T05:07:50.053Z</time>
</trkpt>
<trkpt lat="-27.2777919" lon="152.8480164">
<ele>50.550</ele>
<time>2017-10-25T05:07:52.015Z</time>
</trkpt>
<trkpt lat="-27.2782656" lon="152.8477700">
<ele>51.743</ele>
<time>2017-10-25T05:07:54.033Z</time>
</trkpt>
<trkpt lat="-27.2787232" lon="152.8475407">
<ele>52.597</ele>
<time>2017-10-25T05:07:55.965Z</time>
</trkpt>
<trkpt lat="-27.2791854" lon="152.8472955">
<ele>52.883</ele>
<time>2017-10-25T05:07:57.932Z</time>
</trkpt>
<trkpt lat="-27.2796556" lon="152.8470560">
<ele>52.492</ele>
<time>2017-10-25T05:07:59.922Z</time>
</trkpt>
<trkpt lat="-27.2803399" lon="152.8466762">
<ele>51.565</ele>
<time>2017-10-25T05:08:02.869Z</time>
</trkpt>
<trkpt lat="-27.2810568" lon="152.8462896">
<ele>50.523</ele>
<time>2017-10-25T05:08:05.941Z</time>
</trkpt>
<trkpt lat="-27.2817631" lon="152.8459503">
<ele>49.769</ele>
<time>2017-10-25T05:08:08.901Z</time>
</trkpt>
<trkpt lat="-27.2824495" lon="152.8455388">
<ele>49.392</ele>
<time>2017-10-25T05:08:11.897Z</time>
</trkpt>
<trkpt lat="-27.2831371" lon="152.8451526">
<ele>49.229</ele>
<time>2017-10-25T05:08:14.863Z</time>
</trkpt>
<trkpt lat="-27.2838341" lon="152.8447765">
<ele>48.987</ele>
<time>2017-10-25T05:08:17.849Z</time>
</trkpt>
<trkpt lat="-27.2845026" lon="152.8443658">
<ele>48.329</ele>
<time>2017-10-25T05:08:20.789Z</time>
</trkpt>
<trkpt lat="-27.2852100" lon="152.8440182">
<ele>47.031</ele>
<time>2017-10-25T05:08:23.767Z</time>
</trkpt>
<trkpt lat="-27.2859273" lon="152.8437093">
<ele>45.462</ele>
<time>2017-10-25T05:08:26.726Z</time>
</trkpt>
<trkpt lat="-27.2866728" lon="152.8434277">
<ele>44.485</ele>
<time>2017-10-25T05:08:29.754Z</time>
</trkpt>
<trkpt lat="-27.2874298" lon="152.8432514">
<ele>44.432</ele>
<time>2017-10-25T05:08:32.732Z</time>
</trkpt>
<trkpt lat="-27.2881832" lon="152.8430815">
<ele>44.722</ele>
<time>2017-10-25T05:08:35.690Z</time>
</trkpt>
<trkpt lat="-27.2889522" lon="152.8429277">
<ele>44.814</ele>
<time>2017-10-25T05:08:38.704Z</time>
</trkpt>
<trkpt lat="-27.2896959" lon="152.8427058">
<ele>44.616</ele>
<time>2017-10-25T05:08:41.686Z</time>
</trkpt>
<trkpt lat="-27.2904357" lon="152.8425180">
<ele>44.178</ele>
<time>2017-10-25T05:08:44.616Z</time>
</trkpt>
<trkpt lat="-27.2911913" lon="152.8423597">
<ele>43.425</ele>
<time>2017-10-25T05:08:47.572Z</time>
</trkpt>
<trkpt lat="-27.2919664" lon="152.8421732">
<ele>42.441</ele>
<time>2017-10-25T05:08:50.626Z</time>
</trkpt>
<trkpt lat="-27.2927286" lon="152.8420907">
<ele>41.882</ele>
<time>2017-10-25T05:08:53.583Z</time>
</trkpt>
<trkpt lat="-27.2935041" lon="152.8420937">
<ele>42.157</ele>
<time>2017-10-25T05:08:56.576Z</time>
</trkpt>
<trkpt lat="-27.2942680" lon="152.8421598">
<ele>42.678</ele>
<time>2017-10-25T05:08:59.527Z</time>
</trkpt>
<trkpt lat="-27.2950256" lon="152.8422622">
<ele>42.733</ele>
<time>2017-10-25T05:09:02.466Z</time>
</trkpt>
<trkpt lat="-27.2957962" lon="152.8424331">
<ele>42.291</ele>
<time>2017-10-25T05:09:05.496Z</time>
</trkpt>
<trkpt lat="-27.2965570" lon="152.8426183">
<ele>41.631</ele>
<time>2017-10-25T05:09:08.500Z</time>
</trkpt>
<trkpt lat="-27.2973097" lon="152.8427985">
<ele>40.920</ele>
<time>2017-10-25T05:09:11.464Z</time>
</trkpt>
<trkpt lat="-27.2980588" lon="152.8429739">
<ele>40.314</ele>
<time>2017-10-25T05:09:14.403Z</time>
</trkpt>
<trkpt lat="-27.2988148" lon="152.8431376">
<ele>39.991</ele>
<time>2017-10-25T05:09:17.361Z</time>
</trkpt>
<trkpt lat="-27.2996027" lon="152.8433065">
<ele>39.902</ele>
<time>2017-10-25T05:09:20.462Z</time>
</trkpt>
<trkpt lat="-27.3003531" lon="152.8434617">
<ele>39.584</ele>
<time>2017-10-25T05:09:23.430Z</time>
</trkpt>
<trkpt lat="-27.3011097" lon="152.8434114">
<ele>38.713</ele>
<time>2017-10-25T05:09:26.385Z</time>
</trkpt>
<trkpt lat="-27.3018594" lon="152.8433213">
<ele>37.710</ele>
<time>2017-10-25T05:09:29.325Z</time>
</trkpt>
<trkpt lat="-27.3026145" lon="152.8431525">
<ele>37.346</ele>
<time>2017-10-25T05:09:32.321Z</time>
</trkpt>
<trkpt lat="-27.3033346" lon="152.8429498">
<ele>38.045</ele>
<time>2017-10-25T05:09:35.192Z</time>
</trkpt>
<trkpt lat="-27.3041058" lon="152.8428024">
<ele>40.026</ele>
<time>2017-10-25T05:09:38.200Z</time>
</trkpt>
<trkpt lat="-27.3048703" lon="152.8426669">
<ele>43.424</ele>
<time>2017-10-25T05:09:41.172Z</time>
</trkpt>
<trkpt lat="-27.3056042" lon="152.8424723">
<ele>47.903</ele>
<time>2017-10-25T05:09:44.074Z</time>
</trkpt>
<trkpt lat="-27.3063770" lon="152.8424308">
<ele>52.281</ele>
<time>2017-10-25T05:09:47.056Z</time>
</trkpt>
<trkpt lat="-27.3071661" lon="152.8425237">
<ele>55.256</ele>
<time>2017-10-25T05:09:50.124Z</time>
</trkpt>
<trkpt lat="-27.3079360" lon="152.8427493">
<ele>56.458</ele>
<time>2017-10-25T05:09:53.212Z</time>
</trkpt>
<trkpt lat="-27.3086448" lon="152.8430556">
<ele>56.734</ele>
<time>2017-10-25T05:09:56.156Z</time>
</trkpt>
<trkpt lat="-27.3092666" lon="152.8435510">
<ele>57.335</ele>
<time>2017-10-25T05:09:59.095Z</time>
</trkpt>
<trkpt lat="-27.3098398" lon="152.8441616">
<ele>58.693</ele>
<time>2017-10-25T05:10:02.129Z</time>
</trkpt>
<trkpt lat="-27.3103313" lon="152.8448464">
<ele>60.161</ele>
<time>2017-10-25T05:10:05.148Z</time>
</trkpt>
<trkpt lat="-27.3107024" lon="152.8456198">
<ele>61.009</ele>
<time>2017-10-25T05:10:08.185Z</time>
</trkpt>
<trkpt lat="-27.3109602" lon="152.8464281">
<ele>61.101</ele>
<time>2017-10-25T05:10:11.161Z</time>
</trkpt>
<trkpt lat="-27.3111016" lon="152.8472910">
<ele>60.628</ele>
<time>2017-10-25T05:10:14.192Z</time>
</trkpt>
<trkpt lat="-27.3110976" lon="152.8481519">
<ele>59.802</ele>
<time>2017-10-25T05:10:17.148Z</time>
</trkpt>
<trkpt lat="-27.3109797" lon="152.8490203">
<ele>58.860</ele>
<time>2017-10-25T05:10:20.162Z</time>
</trkpt>
<trkpt lat="-27.3107729" lon="152.8498603">
<ele>58.017</ele>
<time>2017-10-25T05:10:23.158Z</time>
</trkpt>
<trkpt lat="-27.3105542" lon="152.8506856">
<ele>57.409</ele>
<time>2017-10-25T05:10:26.115Z</time>
</trkpt>
<trkpt lat="-27.3103636" lon="152.8515291">
<ele>57.104</ele>
<time>2017-10-25T05:10:29.094Z</time>
</trkpt>
<trkpt lat="-27.3102835" lon="152.8523955">
<ele>57.311</ele>
<time>2017-10-25T05:10:32.080Z</time>
</trkpt>
<trkpt lat="-27.3103651" lon="152.8532407">
<ele>58.333</ele>
<time>2017-10-25T05:10:35.018Z</time>
</trkpt>
<trkpt lat="-27.3105845" lon="152.8540676">
<ele>59.965</ele>
<time>2017-10-25T05:10:38.007Z</time>
</trkpt>
<trkpt lat="-27.3109371" lon="152.8548466">
<ele>61.689</ele>
<time>2017-10-25T05:10:41.016Z</time>
</trkpt>
<trkpt lat="-27.3114272" lon="152.8555116">
<ele>63.514</ele>
<time>2017-10-25T05:10:43.971Z</time>
</trkpt>
<trkpt lat="-27.3119787" lon="152.8561193">
<ele>65.614</ele>
<time>2017-10-25T05:10:46.937Z</time>
</trkpt>
<trkpt lat="-27.3126308" lon="152.8565767">
<ele>67.907</ele>
<time>2017-10-25T05:10:49.898Z</time>
</trkpt>
<trkpt lat="-27.3133693" lon="152.8568579">
<ele>70.490</ele>
<time>2017-10-25T05:10:52.911Z</time>
</trkpt>
<trkpt lat="-27.3141087" lon="152.8570893">
<ele>73.579</ele>
<time>2017-10-25T05:10:55.876Z</time>
</trkpt>
<trkpt lat="-27.3148042" lon="152.8574927">
<ele>77.027</ele>
<time>2017-10-25T05:10:58.901Z</time>
</trkpt>
<trkpt lat="-27.3153860" lon="152.8580504">
<ele>80.480</ele>
<time>2017-10-25T05:11:01.857Z</time>
</trkpt>
<trkpt lat="-27.3158738" lon="152.8587209">
<ele>83.536</ele>
<time>2017-10-25T05:11:04.862Z</time>
</trkpt>
<trkpt lat="-27.3163640" lon="152.8593663">
<ele>85.664</ele>
<time>2017-10-25T05:11:07.849Z</time>
</trkpt>
<trkpt lat="-27.3169767" lon="152.8598420">
<ele>86.544</ele>
<time>2017-10-25T05:11:10.793Z</time>
</trkpt>
<trkpt lat="-27.3176825" lon="152.8601814">
<ele>86.395</ele>
<time>2017-10-25T05:11:13.804Z</time>
</trkpt>
<trkpt lat="-27.3184398" lon="152.8603450">
<ele>85.732</ele>
<time>2017-10-25T05:11:16.829Z</time>
</trkpt>
<trkpt lat="-27.3191718" lon="152.8605408">
<ele>84.937</ele>
<time>2017-10-25T05:11:19.781Z</time>
</trkpt>
<trkpt lat="-27.3199135" lon="152.8607137">
<ele>84.014</ele>
<time>2017-10-25T05:11:22.784Z</time>
</trkpt>
<trkpt lat="-27.3206631" lon="152.8609259">
<ele>82.795</ele>
<time>2017-10-25T05:11:26.099Z</time>
</trkpt>
<trkpt lat="-27.3213234" lon="152.8611036">
<ele>81.303</ele>
<time>2017-10-25T05:11:29.347Z</time>
</trkpt>
<trkpt lat="-27.3218680" lon="152.8612415">
<ele>79.495</ele>
<time>2017-10-25T05:11:32.126Z</time>
</trkpt>
<trkpt lat="-27.3224459" lon="152.8614005">
<ele>77.239</ele>
<time>2017-10-25T05:11:35.076Z</time>
</trkpt>
<trkpt lat="-27.3230467" lon="152.8615533">
<ele>74.627</ele>
<time>2017-10-25T05:11:38.112Z</time>
</trkpt>
<trkpt lat="-27.3236206" lon="152.8617476">
<ele>71.935</ele>
<time>2017-10-25T05:11:41.063Z</time>
</trkpt>
<trkpt lat="-27.3241439" lon="152.8620824">
<ele>69.389</ele>
<time>2017-10-25T05:11:44.026Z</time>
</trkpt>
<trkpt lat="-27.3246194" lon="152.8625276">
<ele>66.973</ele>
<time>2017-10-25T05:11:47.077Z</time>
</trkpt>
<trkpt lat="-27.3250516" lon="152.8630116">
<ele>64.389</ele>
<time>2017-10-25T05:11:50.091Z</time>
</trkpt>
<trkpt lat="-27.3254122" lon="152.8635555">
<ele>61.676</ele>
<time>2017-10-25T05:11:53.070Z</time>
</trkpt>
<trkpt lat="-27.3257929" lon="152.8640766">
<ele>59.365</ele>
<time>2017-10-25T05:11:56.020Z</time>
</trkpt>
<trkpt lat="-27.3261807" lon="152.8646273">
<ele>57.910</ele>
<time>2017-10-25T05:11:59.092Z</time>
</trkpt>
<trkpt lat="-27.3265803" lon="152.8651407">
<ele>57.320</ele>
<time>2017-10-25T05:12:02.083Z</time>
</trkpt>
<trkpt lat="-27.3269856" lon="152.8656449">
<ele>57.293</ele>
<time>2017-10-25T05:12:05.058Z</time>
</trkpt>
<trkpt lat="-27.3274213" lon="152.8660996">
<ele>57.480</ele>
<time>2017-10-25T05:12:07.975Z</time>
</trkpt>
<trkpt lat="-27.3279552" lon="152.8664642">
<ele>57.473</ele>
<time>2017-10-25T05:12:11.045Z</time>
</trkpt>
<trkpt lat="-27.3285314" lon="152.8666880">
<ele>57.089</ele>
<time>2017-10-25T05:12:14.052Z</time>
</trkpt>
<trkpt lat="-27.3291227" lon="152.8668138">
<ele>56.643</ele>
<time>2017-10-25T05:12:17.037Z</time>
</trkpt>
<trkpt lat="-27.3296893" lon="152.8670233">
<ele>56.506</ele>
<time>2017-10-25T05:12:20.003Z</time>
</trkpt>
<trkpt lat="-27.3302566" lon="152.8672399">
<ele>56.813</ele>
<time>2017-10-25T05:12:22.982Z</time>
</trkpt>
<trkpt lat="-27.3307726" lon="152.8676138">
<ele>57.770</ele>
<time>2017-10-25T05:12:26.047Z</time>
</trkpt>
<trkpt lat="-27.3312691" lon="152.8679538">
<ele>59.831</ele>
<time>2017-10-25T05:12:28.938Z</time>
</trkpt>
<trkpt lat="-27.3316598" lon="152.8684777">
<ele>63.184</ele>
<time>2017-10-25T05:12:31.926Z</time>
</trkpt>
<trkpt lat="-27.3320286" lon="152.8690486">
<ele>67.338</ele>
<time>2017-10-25T05:12:35.004Z</time>
</trkpt>
<trkpt lat="-27.3322850" lon="152.8696829">
<ele>71.563</ele>
<time>2017-10-25T05:12:38.047Z</time>
</trkpt>
<trkpt lat="-27.3324903" lon="152.8703022">
<ele>74.977</ele>
<time>2017-10-25T05:12:40.909Z</time>
</trkpt>
<trkpt lat="-27.3326890" lon="152.8709470">
<ele>76.559</ele>
<time>2017-10-25T05:12:43.864Z</time>
</trkpt>
<trkpt lat="-27.3331143" lon="152.8714920">
<ele>75.563</ele>
<time>2017-10-25T05:12:47.082Z</time>
</trkpt>
<trkpt lat="-27.3336406" lon="152.8717819">
<ele>71.800</ele>
<time>2017-10-25T05:12:50.056Z</time>
</trkpt>
<trkpt lat="-27.3342271" lon="152.8719268">
<ele>66.780</ele>
<time>2017-10-25T05:12:53.099Z</time>
</trkpt>
<trkpt lat="-27.3348108" lon="152.8719066">
<ele>63.109</ele>
<time>2017-10-25T05:12:56.031Z</time>
</trkpt>
<trkpt lat="-27.3353810" lon="152.8716952">
<ele>62.360</ele>
<time>2017-10-25T05:12:58.997Z</time>
</trkpt>
<trkpt lat="-27.3359957" lon="152.8715049">
<ele>64.612</ele>
<time>2017-10-25T05:13:02.120Z</time>
</trkpt>
<trkpt lat="-27.3365961" lon="152.8714324">
<ele>68.850</ele>
<time>2017-10-25T05:13:05.068Z</time>
</trkpt>
<trkpt lat="-27.3372121" lon="152.8714799">
<ele>73.693</ele>
<time>2017-10-25T05:13:08.071Z</time>
</trkpt>
<trkpt lat="-27.3378255" lon="152.8715305">
<ele>78.088</ele>
<time>2017-10-25T05:13:11.062Z</time>
</trkpt>
<trkpt lat="-27.3384198" lon="152.8715766">
<ele>81.042</ele>
<time>2017-10-25T05:13:13.966Z</time>
</trkpt>
<trkpt lat="-27.3390338" lon="152.8716102">
<ele>82.021</ele>
<time>2017-10-25T05:13:16.974Z</time>
</trkpt>
<trkpt lat="-27.3396523" lon="152.8716482">
<ele>81.422</ele>
<time>2017-10-25T05:13:20.009Z</time>
</trkpt>
<trkpt lat="-27.3402454" lon="152.8716757">
<ele>80.028</ele>
<time>2017-10-25T05:13:22.926Z</time>
</trkpt>
<trkpt lat="-27.3408408" lon="152.8717002">
<ele>78.600</ele>
<time>2017-10-25T05:13:25.873Z</time>
</trkpt>
<trkpt lat="-27.3414381" lon="152.8717460">
<ele>77.792</ele>
<time>2017-10-25T05:13:28.842Z</time>
</trkpt>
<trkpt lat="-27.3420494" lon="152.8718004">
<ele>78.159</ele>
<time>2017-10-25T05:13:31.881Z</time>
</trkpt>
<trkpt lat="-27.3426524" lon="152.8718991">
<ele>79.788</ele>
<time>2017-10-25T05:13:34.912Z</time>
</trkpt>
<trkpt lat="-27.3432169" lon="152.8721657">
<ele>82.148</ele>
<time>2017-10-25T05:13:37.916Z</time>
</trkpt>
<trkpt lat="-27.3436978" lon="152.8725991">
<ele>84.286</ele>
<time>2017-10-25T05:13:40.878Z</time>
</trkpt>
<trkpt lat="-27.3442050" lon="152.8730055">
<ele>85.320</ele>
<time>2017-10-25T05:13:43.968Z</time>
</trkpt>
<trkpt lat="-27.3446979" lon="152.8733453">
<ele>84.848</ele>
<time>2017-10-25T05:13:47.067Z</time>
</trkpt>
<trkpt lat="-27.3450833" lon="152.8737743">
<ele>83.454</ele>
<time>2017-10-25T05:13:50.113Z</time>
</trkpt>
<trkpt lat="-27.3451886" lon="152.8743651">
<ele>82.652</ele>
<time>2017-10-25T05:13:53.115Z</time>
</trkpt>
<trkpt lat="-27.3452343" lon="152.8749921">
<ele>83.544</ele>
<time>2017-10-25T05:13:56.202Z</time>
</trkpt>
<trkpt lat="-27.3454269" lon="152.8755626">
<ele>85.641</ele>
<time>2017-10-25T05:13:59.194Z</time>
</trkpt>
<trkpt lat="-27.3456307" lon="152.8761127">
<ele>87.620</ele>
<time>2017-10-25T05:14:02.157Z</time>
</trkpt>
<trkpt lat="-27.3458500" lon="152.8766605">
<ele>88.830</ele>
<time>2017-10-25T05:14:05.202Z</time>
</trkpt>
<trkpt lat="-27.3460439" lon="152.8772123">
<ele>89.681</ele>
<time>2017-10-25T05:14:08.229Z</time>
</trkpt>
<trkpt lat="-27.3462031" lon="152.8777630">
<ele>90.836</ele>
<time>2017-10-25T05:14:11.165Z</time>
</trkpt>
<trkpt lat="-27.3462537" lon="152.8783527">
<ele>92.432</ele>
<time>2017-10-25T05:14:14.152Z</time>
</trkpt>
<trkpt lat="-27.3464634" lon="152.8789050">
<ele>94.106</ele>
<time>2017-10-25T05:14:17.131Z</time>
</trkpt>
<trkpt lat="-27.3468888" lon="152.8793393">
<ele>95.464</ele>
<time>2017-10-25T05:14:20.291Z</time>
</trkpt>
<trkpt lat="-27.3472474" lon="152.8797827">
<ele>96.334</ele>
<time>2017-10-25T05:14:23.250Z</time>
</trkpt>
<trkpt lat="-27.3475851" lon="152.8802486">
<ele>96.355</ele>
<time>2017-10-25T05:14:26.272Z</time>
</trkpt>
<trkpt lat="-27.3479242" lon="152.8806803">
<ele>95.174</ele>
<time>2017-10-25T05:14:29.183Z</time>
</trkpt>
<trkpt lat="-27.3482730" lon="152.8811210">
<ele>93.162</ele>
<time>2017-10-25T05:14:32.187Z</time>
</trkpt>
<trkpt lat="-27.3486937" lon="152.8815375">
<ele>90.821</ele>
<time>2017-10-25T05:14:35.692Z</time>
</trkpt>
<trkpt lat="-27.3490582" lon="152.8818555">
<ele>88.217</ele>
<time>2017-10-25T05:14:39.026Z</time>
</trkpt>
<trkpt lat="-27.3493661" lon="152.8820764">
<ele>85.645</ele>
<time>2017-10-25T05:14:41.739Z</time>
</trkpt>
<trkpt lat="-27.3494762" lon="152.8824491">
<ele>83.693</ele>
<time>2017-10-25T05:14:44.102Z</time>
</trkpt>
<trkpt lat="-27.3496753" lon="152.8827368">
<ele>82.638</ele>
<time>2017-10-25T05:14:46.164Z</time>
</trkpt>
<trkpt lat="-27.3498219" lon="152.8830659">
<ele>82.467</ele>
<time>2017-10-25T05:14:48.246Z</time>
</trkpt>
<trkpt lat="-27.3498985" lon="152.8834143">
<ele>83.085</ele>
<time>2017-10-25T05:14:50.306Z</time>
</trkpt>
<trkpt lat="-27.3499145" lon="152.8837434">
<ele>84.096</ele>
<time>2017-10-25T05:14:52.142Z</time>
</trkpt>
<trkpt lat="-27.3499251" lon="152.8840915">
<ele>85.111</ele>
<time>2017-10-25T05:14:53.975Z</time>
</trkpt>
<trkpt lat="-27.3498519" lon="152.8844604">
<ele>86.145</ele>
<time>2017-10-25T05:14:55.807Z</time>
</trkpt>
<trkpt lat="-27.3497631" lon="152.8848619">
<ele>87.341</ele>
<time>2017-10-25T05:14:57.691Z</time>
</trkpt>
<trkpt lat="-27.3496110" lon="152.8852885">
<ele>88.834</ele>
<time>2017-10-25T05:14:59.744Z</time>
</trkpt>
<trkpt lat="-27.3493972" lon="152.8856674">
<ele>90.681</ele>
<time>2017-10-25T05:15:01.727Z</time>
</trkpt>
<trkpt lat="-27.3491641" lon="152.8860328">
<ele>92.575</ele>
<time>2017-10-25T05:15:03.711Z</time>
</trkpt>
<trkpt lat="-27.3488400" lon="152.8866030">
<ele>93.984</ele>
<time>2017-10-25T05:15:06.697Z</time>
</trkpt>
<trkpt lat="-27.3485190" lon="152.8871518">
<ele>94.320</ele>
<time>2017-10-25T05:15:09.603Z</time>
</trkpt>
<trkpt lat="-27.3481512" lon="152.8876854">
<ele>93.225</ele>
<time>2017-10-25T05:15:12.597Z</time>
</trkpt>
<trkpt lat="-27.3476862" lon="152.8881188">
<ele>90.881</ele>
<time>2017-10-25T05:15:15.627Z</time>
</trkpt>
<trkpt lat="-27.3472244" lon="152.8885318">
<ele>87.781</ele>
<time>2017-10-25T05:15:18.613Z</time>
</trkpt>
<trkpt lat="-27.3468858" lon="152.8890477">
<ele>84.589</ele>
<time>2017-10-25T05:15:21.521Z</time>
</trkpt>
<trkpt lat="-27.3466145" lon="152.8896625">
<ele>81.992</ele>
<time>2017-10-25T05:15:24.680Z</time>
</trkpt>
<trkpt lat="-27.3464562" lon="152.8902776">
<ele>80.356</ele>
<time>2017-10-25T05:15:27.672Z</time>
</trkpt>
<trkpt lat="-27.3464328" lon="152.8908882">
<ele>79.849</ele>
<time>2017-10-25T05:15:30.509Z</time>
</trkpt>
<trkpt lat="-27.3464923" lon="152.8915279">
<ele>80.484</ele>
<time>2017-10-25T05:15:33.474Z</time>
</trkpt>
<trkpt lat="-27.3466434" lon="152.8921400">
<ele>81.911</ele>
<time>2017-10-25T05:15:36.448Z</time>
</trkpt>
<trkpt lat="-27.3468326" lon="152.8927182">
<ele>83.484</ele>
<time>2017-10-25T05:15:39.409Z</time>
</trkpt>
<trkpt lat="-27.3469223" lon="152.8933202">
<ele>84.796</ele>
<time>2017-10-25T05:15:42.358Z</time>
</trkpt>
<trkpt lat="-27.3469120" lon="152.8939506">
<ele>86.307</ele>
<time>2017-10-25T05:15:45.354Z</time>
</trkpt>
<trkpt lat="-27.3469368" lon="152.8945686">
<ele>88.711</ele>
<time>2017-10-25T05:15:48.270Z</time>
</trkpt>
<trkpt lat="-27.3470556" lon="152.8951794">
<ele>91.792</ele>
<time>2017-10-25T05:15:51.220Z</time>
</trkpt>
<trkpt lat="-27.3472330" lon="152.8957922">
<ele>94.857</ele>
<time>2017-10-25T05:15:54.297Z</time>
</trkpt>
<trkpt lat="-27.3473845" lon="152.8963940">
<ele>97.534</ele>
<time>2017-10-25T05:15:57.339Z</time>
</trkpt>
<trkpt lat="-27.3475817" lon="152.8969599">
<ele>99.895</ele>
<time>2017-10-25T05:16:00.383Z</time>
</trkpt>
<trkpt lat="-27.3477452" lon="152.8975170">
<ele>102.297</ele>
<time>2017-10-25T05:16:03.373Z</time>
</trkpt>
<trkpt lat="-27.3478302" lon="152.8980740">
<ele>104.816</ele>
<time>2017-10-25T05:16:06.224Z</time>
</trkpt>
<trkpt lat="-27.3478602" lon="152.8986657">
<ele>107.056</ele>
<time>2017-10-25T05:16:09.193Z</time>
</trkpt>
<trkpt lat="-27.3478808" lon="152.8992582">
<ele>108.590</ele>
<time>2017-10-25T05:16:12.161Z</time>
</trkpt>
<trkpt lat="-27.3478727" lon="152.8996505">
<ele>109.153</ele>
<time>2017-10-25T05:16:14.109Z</time>
</trkpt>
<trkpt lat="-27.3479152" lon="152.9002730">
<ele>108.729</ele>
<time>2017-10-25T05:16:17.179Z</time>
</trkpt>
<trkpt lat="-27.3480220" lon="152.9008387">
<ele>107.775</ele>
<time>2017-10-25T05:16:20.023Z</time>
</trkpt>
<trkpt lat="-27.3481206" lon="152.9014269">
<ele>107.035</ele>
<time>2017-10-25T05:16:22.976Z</time>
</trkpt>
<trkpt lat="-27.3481532" lon="152.9020226">
<ele>106.989</ele>
<time>2017-10-25T05:16:25.962Z</time>
</trkpt>
<trkpt lat="-27.3482507" lon="152.9026115">
<ele>107.799</ele>
<time>2017-10-25T05:16:29.031Z</time>
</trkpt>
<trkpt lat="-27.3481893" lon="152.9031535">
<ele>109.188</ele>
<time>2017-10-25T05:16:31.877Z</time>
</trkpt>
<trkpt lat="-27.3480456" lon="152.9037266">
<ele>110.392</ele>
<time>2017-10-25T05:16:34.911Z</time>
</trkpt>
<trkpt lat="-27.3477801" lon="152.9042464">
<ele>110.726</ele>
<time>2017-10-25T05:16:37.929Z</time>
</trkpt>
<trkpt lat="-27.3474657" lon="152.9047307">
<ele>110.114</ele>
<time>2017-10-25T05:16:40.903Z</time>
</trkpt>
<trkpt lat="-27.3471873" lon="152.9052627">
<ele>108.783</ele>
<time>2017-10-25T05:16:43.915Z</time>
</trkpt>
<trkpt lat="-27.3468977" lon="152.9057704">
<ele>106.779</ele>
<time>2017-10-25T05:16:46.871Z</time>
</trkpt>
<trkpt lat="-27.3466118" lon="152.9062853">
<ele>103.998</ele>
<time>2017-10-25T05:16:49.849Z</time>
</trkpt>
<trkpt lat="-27.3462470" lon="152.9067363">
<ele>100.595</ele>
<time>2017-10-25T05:16:52.866Z</time>
</trkpt>
<trkpt lat="-27.3458705" lon="152.9071719">
<ele>96.680</ele>
<time>2017-10-25T05:16:55.852Z</time>
</trkpt>
<trkpt lat="-27.3455112" lon="152.9076278">
<ele>92.114</ele>
<time>2017-10-25T05:16:58.782Z</time>
</trkpt>
<trkpt lat="-27.3451346" lon="152.9080844">
<ele>87.056</ele>
<time>2017-10-25T05:17:01.761Z</time>
</trkpt>
<trkpt lat="-27.3447205" lon="152.9085068">
<ele>82.035</ele>
<time>2017-10-25T05:17:04.774Z</time>
</trkpt>
<trkpt lat="-27.3443420" lon="152.9089451">
<ele>77.086</ele>
<time>2017-10-25T05:17:07.706Z</time>
</trkpt>
<trkpt lat="-27.3439663" lon="152.9093779">
<ele>71.988</ele>
<time>2017-10-25T05:17:10.635Z</time>
</trkpt>
<trkpt lat="-27.3436159" lon="152.9098500">
<ele>67.015</ele>
<time>2017-10-25T05:17:13.613Z</time>
</trkpt>
<trkpt lat="-27.3433832" lon="152.9104265">
<ele>62.111</ele>
<time>2017-10-25T05:17:16.596Z</time>
</trkpt>
<trkpt lat="-27.3432578" lon="152.9110924">
<ele>56.747</ele>
<time>2017-10-25T05:17:19.629Z</time>
</trkpt>
<trkpt lat="-27.3432505" lon="152.9117703">
<ele>51.049</ele>
<time>2017-10-25T05:17:22.506Z</time>
</trkpt>
<trkpt lat="-27.3433342" lon="152.9124669">
<ele>45.836</ele>
<time>2017-10-25T05:17:25.433Z</time>
</trkpt>
<trkpt lat="-27.3434429" lon="152.9131628">
<ele>42.042</ele>
<time>2017-10-25T05:17:28.422Z</time>
</trkpt>
<trkpt lat="-27.3435673" lon="152.9138411">
<ele>40.219</ele>
<time>2017-10-25T05:17:31.521Z</time>
</trkpt>
<trkpt lat="-27.3435384" lon="152.9144448">
<ele>40.271</ele>
<time>2017-10-25T05:17:34.335Z</time>
</trkpt>
<trkpt lat="-27.3432856" lon="152.9150513">
<ele>41.969</ele>
<time>2017-10-25T05:17:37.486Z</time>
</trkpt>
<trkpt lat="-27.3429075" lon="152.9155232">
<ele>44.805</ele>
<time>2017-10-25T05:17:40.517Z</time>
</trkpt>
<trkpt lat="-27.3424280" lon="152.9158556">
<ele>47.973</ele>
<time>2017-10-25T05:17:43.601Z</time>
</trkpt>
<trkpt lat="-27.3419208" lon="152.9160127">
<ele>51.228</ele>
<time>2017-10-25T05:17:46.511Z</time>
</trkpt>
<trkpt lat="-27.3413610" lon="152.9159877">
<ele>54.662</ele>
<time>2017-10-25T05:17:49.536Z</time>
</trkpt>
<trkpt lat="-27.3408100" lon="152.9158251">
<ele>58.042</ele>
<time>2017-10-25T05:17:52.499Z</time>
</trkpt>
<trkpt lat="-27.3402436" lon="152.9156188">
<ele>61.183</ele>
<time>2017-10-25T05:17:55.561Z</time>
</trkpt>
<trkpt lat="-27.3396868" lon="152.9154328">
<ele>64.286</ele>
<time>2017-10-25T05:17:58.580Z</time>
</trkpt>
<trkpt lat="-27.3391423" lon="152.9152672">
<ele>67.468</ele>
<time>2017-10-25T05:18:01.546Z</time>
</trkpt>
<trkpt lat="-27.3385913" lon="152.9151220">
<ele>70.468</ele>
<time>2017-10-25T05:18:04.546Z</time>
</trkpt>
<trkpt lat="-27.3380451" lon="152.9150110">
<ele>73.002</ele>
<time>2017-10-25T05:18:07.482Z</time>
</trkpt>
<trkpt lat="-27.3374545" lon="152.9149374">
<ele>75.032</ele>
<time>2017-10-25T05:18:10.631Z</time>
</trkpt>
<trkpt lat="-27.3369289" lon="152.9151310">
<ele>76.550</ele>
<time>2017-10-25T05:18:13.585Z</time>
</trkpt>
<trkpt lat="-27.3364419" lon="152.9154081">
<ele>77.825</ele>
<time>2017-10-25T05:18:16.524Z</time>
</trkpt>
<trkpt lat="-27.3360607" lon="152.9158534">
<ele>79.256</ele>
<time>2017-10-25T05:18:19.556Z</time>
</trkpt>
<trkpt lat="-27.3357342" lon="152.9163319">
<ele>80.749</ele>
<time>2017-10-25T05:18:22.662Z</time>
</trkpt>
<trkpt lat="-27.3354053" lon="152.9167225">
<ele>81.974</ele>
<time>2017-10-25T05:18:25.627Z</time>
</trkpt>
<trkpt lat="-27.3349921" lon="152.9169616">
<ele>83.087</ele>
<time>2017-10-25T05:18:28.605Z</time>
</trkpt>
<trkpt lat="-27.3345357" lon="152.9170495">
<ele>84.582</ele>
<time>2017-10-25T05:18:31.438Z</time>
</trkpt>
<trkpt lat="-27.3340145" lon="152.9169141">
<ele>86.960</ele>
<time>2017-10-25T05:18:34.542Z</time>
</trkpt>
<trkpt lat="-27.3335048" lon="152.9167942">
<ele>90.626</ele>
<time>2017-10-25T05:18:37.679Z</time>
</trkpt>
<trkpt lat="-27.3330460" lon="152.9168126">
<ele>95.657</ele>
<time>2017-10-25T05:18:40.734Z</time>
</trkpt>
<trkpt lat="-27.3327565" lon="152.9171773">
<ele>101.332</ele>
<time>2017-10-25T05:18:43.699Z</time>
</trkpt>
<trkpt lat="-27.3326338" lon="152.9176665">
<ele>106.457</ele>
<time>2017-10-25T05:18:46.661Z</time>
</trkpt>
<trkpt lat="-27.3325860" lon="152.9181867">
<ele>110.302</ele>
<time>2017-10-25T05:18:49.609Z</time>
</trkpt>
<trkpt lat="-27.3325506" lon="152.9187179">
<ele>112.883</ele>
<time>2017-10-25T05:18:52.605Z</time>
</trkpt>
<trkpt lat="-27.3323508" lon="152.9192215">
<ele>114.551</ele>
<time>2017-10-25T05:18:55.642Z</time>
</trkpt>
<trkpt lat="-27.3320093" lon="152.9196306">
<ele>115.547</ele>
<time>2017-10-25T05:18:58.622Z</time>
</trkpt>
<trkpt lat="-27.3315805" lon="152.9199385">
<ele>115.805</ele>
<time>2017-10-25T05:19:01.652Z</time>
</trkpt>
<trkpt lat="-27.3311495" lon="152.9201945">
<ele>115.122</ele>
<time>2017-10-25T05:19:04.536Z</time>
</trkpt>
<trkpt lat="-27.3307167" lon="152.9205331">
<ele>113.576</ele>
<time>2017-10-25T05:19:07.665Z</time>
</trkpt>
<trkpt lat="-27.3303894" lon="152.9209589">
<ele>111.599</ele>
<time>2017-10-25T05:19:10.700Z</time>
</trkpt>
<trkpt lat="-27.3303082" lon="152.9215120">
<ele>109.586</ele>
<time>2017-10-25T05:19:13.673Z</time>
</trkpt>
<trkpt lat="-27.3303884" lon="152.9220850">
<ele>107.856</ele>
<time>2017-10-25T05:19:16.568Z</time>
</trkpt>
<trkpt lat="-27.3305520" lon="152.9226937">
<ele>106.638</ele>
<time>2017-10-25T05:19:19.512Z</time>
</trkpt>
<trkpt lat="-27.3307258" lon="152.9233206">
<ele>105.870</ele>
<time>2017-10-25T05:19:22.438Z</time>
</trkpt>
<trkpt lat="-27.3308386" lon="152.9239728">
<ele>105.180</ele>
<time>2017-10-25T05:19:25.487Z</time>
</trkpt>
<trkpt lat="-27.3308746" lon="152.9245910">
<ele>103.943</ele>
<time>2017-10-25T05:19:28.515Z</time>
</trkpt>
<trkpt lat="-27.3308329" lon="152.9251761">
<ele>101.851</ele>
<time>2017-10-25T05:19:31.519Z</time>
</trkpt>
<trkpt lat="-27.3308418" lon="152.9257742">
<ele>99.651</ele>
<time>2017-10-25T05:19:34.562Z</time>
</trkpt>
<trkpt lat="-27.3310309" lon="152.9263647">
<ele>98.523</ele>
<time>2017-10-25T05:19:37.706Z</time>
</trkpt>
<trkpt lat="-27.3312519" lon="152.9268834">
<ele>98.694</ele>
<time>2017-10-25T05:19:40.587Z</time>
</trkpt>
<trkpt lat="-27.3312963" lon="152.9274940">
<ele>99.357</ele>
<time>2017-10-25T05:19:43.600Z</time>
</trkpt>
<trkpt lat="-27.3312134" lon="152.9281107">
<ele>99.702</ele>
<time>2017-10-25T05:19:46.635Z</time>
</trkpt>
<trkpt lat="-27.3311165" lon="152.9287129">
<ele>99.419</ele>
<time>2017-10-25T05:19:49.641Z</time>
</trkpt>
<trkpt lat="-27.3309184" lon="152.9292663">
<ele>98.556</ele>
<time>2017-10-25T05:19:52.584Z</time>
</trkpt>
<trkpt lat="-27.3305360" lon="152.9297214">
<ele>97.550</ele>
<time>2017-10-25T05:19:55.649Z</time>
</trkpt>
<trkpt lat="-27.3301062" lon="152.9301107">
<ele>97.026</ele>
<time>2017-10-25T05:19:58.729Z</time>
</trkpt>
<trkpt lat="-27.3297021" lon="152.9304823">
<ele>97.182</ele>
<time>2017-10-25T05:20:01.707Z</time>
</trkpt>
<trkpt lat="-27.3293921" lon="152.9309487">
<ele>97.606</ele>
<time>2017-10-25T05:20:04.621Z</time>
</trkpt>
<trkpt lat="-27.3291135" lon="152.9314872">
<ele>97.595</ele>
<time>2017-10-25T05:20:07.688Z</time>
</trkpt>
<trkpt lat="-27.3288666" lon="152.9320304">
<ele>96.573</ele>
<time>2017-10-25T05:20:10.668Z</time>
</trkpt>
<trkpt lat="-27.3285889" lon="152.9325626">
<ele>94.490</ele>
<time>2017-10-25T05:20:13.697Z</time>
</trkpt>
<trkpt lat="-27.3283241" lon="152.9330882">
<ele>91.809</ele>
<time>2017-10-25T05:20:16.746Z</time>
</trkpt>
<trkpt lat="-27.3280854" lon="152.9335716">
<ele>89.148</ele>
<time>2017-10-25T05:20:19.804Z</time>
</trkpt>
<trkpt lat="-27.3278901" lon="152.9339626">
<ele>87.033</ele>
<time>2017-10-25T05:20:22.540Z</time>
</trkpt>
<trkpt lat="-27.3277659" lon="152.9344027">
<ele>85.690</ele>
<time>2017-10-25T05:20:25.470Z</time>
</trkpt>
<trkpt lat="-27.3278040" lon="152.9348538">
<ele>84.824</ele>
<time>2017-10-25T05:20:28.420Z</time>
</trkpt>
<trkpt lat="-27.3279575" lon="152.9353034">
<ele>83.474</ele>
<time>2017-10-25T05:20:31.534Z</time>
</trkpt>
<trkpt lat="-27.3282116" lon="152.9356826">
<ele>80.880</ele>
<time>2017-10-25T05:20:34.467Z</time>
</trkpt>
<trkpt lat="-27.3285876" lon="152.9359638">
<ele>77.811</ele>
<time>2017-10-25T05:20:37.466Z</time>
</trkpt>
<trkpt lat="-27.3289767" lon="152.9362407">
<ele>75.682</ele>
<time>2017-10-25T05:20:40.514Z</time>
</trkpt>
<trkpt lat="-27.3292975" lon="152.9365663">
<ele>74.814</ele>
<time>2017-10-25T05:20:43.351Z</time>
</trkpt>
<trkpt lat="-27.3295800" lon="152.9369973">
<ele>74.449</ele>
<time>2017-10-25T05:20:46.384Z</time>
</trkpt>
<trkpt lat="-27.3297586" lon="152.9375016">
<ele>73.596</ele>
<time>2017-10-25T05:20:49.366Z</time>
</trkpt>
<trkpt lat="-27.3298174" lon="152.9380577">
<ele>71.606</ele>
<time>2017-10-25T05:20:52.291Z</time>
</trkpt>
<trkpt lat="-27.3297560" lon="152.9386840">
<ele>68.655</ele>
<time>2017-10-25T05:20:55.382Z</time>
</trkpt>
<trkpt lat="-27.3296730" lon="152.9393335">
<ele>65.264</ele>
<time>2017-10-25T05:20:58.445Z</time>
</trkpt>
<trkpt lat="-27.3296396" lon="152.9399728">
<ele>61.683</ele>
<time>2017-10-25T05:21:01.387Z</time>
</trkpt>
<trkpt lat="-27.3296223" lon="152.9406324">
<ele>57.829</ele>
<time>2017-10-25T05:21:04.433Z</time>
</trkpt>
<trkpt lat="-27.3295716" lon="152.9412629">
<ele>53.587</ele>
<time>2017-10-25T05:21:07.364Z</time>
</trkpt>
<trkpt lat="-27.3295238" lon="152.9418996">
<ele>49.190</ele>
<time>2017-10-25T05:21:10.338Z</time>
</trkpt>
<trkpt lat="-27.3294684" lon="152.9425562">
<ele>45.166</ele>
<time>2017-10-25T05:21:13.437Z</time>
</trkpt>
<trkpt lat="-27.3294217" lon="152.9431899">
<ele>41.649</ele>
<time>2017-10-25T05:21:16.461Z</time>
</trkpt>
<trkpt lat="-27.3294068" lon="152.9437907">
<ele>38.595</ele>
<time>2017-10-25T05:21:19.360Z</time>
</trkpt>
<trkpt lat="-27.3293365" lon="152.9444079">
<ele>36.376</ele>
<time>2017-10-25T05:21:22.394Z</time>
</trkpt>
<trkpt lat="-27.3292678" lon="152.9450230">
<ele>35.318</ele>
<time>2017-10-25T05:21:25.470Z</time>
</trkpt>
<trkpt lat="-27.3292022" lon="152.9455837">
<ele>35.433</ele>
<time>2017-10-25T05:21:28.323Z</time>
</trkpt>
<trkpt lat="-27.3291664" lon="152.9461706">
<ele>36.751</ele>
<time>2017-10-25T05:21:31.299Z</time>
</trkpt>
<trkpt lat="-27.3292093" lon="152.9467371">
<ele>38.930</ele>
<time>2017-10-25T05:21:34.055Z</time>
</trkpt>
<trkpt lat="-27.3292403" lon="152.9474169">
<ele>41.006</ele>
<time>2017-10-25T05:21:37.245Z</time>
</trkpt>
<trkpt lat="-27.3293428" lon="152.9480400">
<ele>41.996</ele>
<time>2017-10-25T05:21:40.266Z</time>
</trkpt>
<trkpt lat="-27.3295276" lon="152.9486174">
<ele>41.790</ele>
<time>2017-10-25T05:21:43.251Z</time>
</trkpt>
<trkpt lat="-27.3297529" lon="152.9491611">
<ele>41.298</ele>
<time>2017-10-25T05:21:46.214Z</time>
</trkpt>
<trkpt lat="-27.3299587" lon="152.9497099">
<ele>41.391</ele>
<time>2017-10-25T05:21:49.185Z</time>
</trkpt>
<trkpt lat="-27.3300885" lon="152.9500712">
<ele>42.244</ele>
<time>2017-10-25T05:21:51.116Z</time>
</trkpt>
<trkpt lat="-27.3302389" lon="152.9504330">
<ele>43.437</ele>
<time>2017-10-25T05:21:53.035Z</time>
</trkpt>
<trkpt lat="-27.3304094" lon="152.9508271">
<ele>44.212</ele>
<time>2017-10-25T05:21:55.108Z</time>
</trkpt>
<trkpt lat="-27.3305555" lon="152.9512031">
<ele>44.039</ele>
<time>2017-10-25T05:21:57.051Z</time>
</trkpt>
<trkpt lat="-27.3306913" lon="152.9516103">
<ele>42.944</ele>
<time>2017-10-25T05:21:59.095Z</time>
</trkpt>
<trkpt lat="-27.3308523" lon="152.9519972">
<ele>41.233</ele>
<time>2017-10-25T05:22:01.120Z</time>
</trkpt>
<trkpt lat="-27.3310420" lon="152.9523479">
<ele>39.287</ele>
<time>2017-10-25T05:22:03.078Z</time>
</trkpt>
<trkpt lat="-27.3312481" lon="152.9526954">
<ele>37.364</ele>
<time>2017-10-25T05:22:05.113Z</time>
</trkpt>
<trkpt lat="-27.3314551" lon="152.9529968">
<ele>35.523</ele>
<time>2017-10-25T05:22:07.048Z</time>
</trkpt>
<trkpt lat="-27.3317416" lon="152.9534413">
<ele>33.760</ele>
<time>2017-10-25T05:22:09.974Z</time>
</trkpt>
<trkpt lat="-27.3319914" lon="152.9538813">
<ele>32.055</ele>
<time>2017-10-25T05:22:12.925Z</time>
</trkpt>
<trkpt lat="-27.3322226" lon="152.9543125">
<ele>30.494</ele>
<time>2017-10-25T05:22:15.831Z</time>
</trkpt>
<trkpt lat="-27.3325186" lon="152.9547132">
<ele>29.236</ele>
<time>2017-10-25T05:22:18.862Z</time>
</trkpt>
<trkpt lat="-27.3327548" lon="152.9550962">
<ele>28.185</ele>
<time>2017-10-25T05:22:21.715Z</time>
</trkpt>
<trkpt lat="-27.3329788" lon="152.9554599">
<ele>26.852</ele>
<time>2017-10-25T05:22:24.715Z</time>
</trkpt>
<trkpt lat="-27.3331620" lon="152.9557872">
<ele>24.869</ele>
<time>2017-10-25T05:22:27.667Z</time>
</trkpt>
<trkpt lat="-27.3333416" lon="152.9560575">
<ele>22.728</ele>
<time>2017-10-25T05:22:30.297Z</time>
</trkpt>
<trkpt lat="-27.3335811" lon="152.9564369">
<ele>21.439</ele>
<time>2017-10-25T05:22:33.561Z</time>
</trkpt>
<trkpt lat="-27.3338285" lon="152.9568330">
<ele>21.246</ele>
<time>2017-10-25T05:22:36.587Z</time>
</trkpt>
<trkpt lat="-27.3341370" lon="152.9571889">
<ele>21.485</ele>
<time>2017-10-25T05:22:39.569Z</time>
</trkpt>
<trkpt lat="-27.3344362" lon="152.9575487">
<ele>21.148</ele>
<time>2017-10-25T05:22:42.513Z</time>
</trkpt>
<trkpt lat="-27.3347661" lon="152.9578958">
<ele>19.658</ele>
<time>2017-10-25T05:22:45.564Z</time>
</trkpt>
<trkpt lat="-27.3350691" lon="152.9582498">
<ele>17.488</ele>
<time>2017-10-25T05:22:48.510Z</time>
</trkpt>
<trkpt lat="-27.3353735" lon="152.9585976">
<ele>15.661</ele>
<time>2017-10-25T05:22:51.537Z</time>
</trkpt>
<trkpt lat="-27.3355969" lon="152.9589092">
<ele>14.925</ele>
<time>2017-10-25T05:22:54.417Z</time>
</trkpt>
<trkpt lat="-27.3357762" lon="152.9591162">
<ele>15.489</ele>
<time>2017-10-25T05:22:57.024Z</time>
</trkpt>
<trkpt lat="-27.3358690" lon="152.9593309">
<ele>17.091</ele>
<time>2017-10-25T05:22:59.550Z</time>
</trkpt>
<trkpt lat="-27.3359834" lon="152.9596700">
<ele>19.126</ele>
<time>2017-10-25T05:23:03.145Z</time>
</trkpt>
<trkpt lat="-27.3360346" lon="152.9599613">
<ele>20.886</ele>
<time>2017-10-25T05:23:06.008Z</time>
</trkpt>
<trkpt lat="-27.3360562" lon="152.9601888">
<ele>22.035</ele>
<time>2017-10-25T05:23:08.500Z</time>
</trkpt>
<trkpt lat="-27.3360940" lon="152.9603148">
<ele>22.643</ele>
<time>2017-10-25T05:23:10.371Z</time>
</trkpt>
<trkpt lat="-27.3360942" lon="152.9604366">
<ele>22.752</ele>
<time>2017-10-25T05:23:12.520Z</time>
</trkpt>
<trkpt lat="-27.3361289" lon="152.9607153">
<ele>22.491</ele>
<time>2017-10-25T05:23:17.272Z</time>
</trkpt>
<trkpt lat="-27.3362303" lon="152.9609338">
<ele>22.351</ele>
<time>2017-10-25T05:23:20.623Z</time>
</trkpt>
<trkpt lat="-27.3364442" lon="152.9608984">
<ele>22.675</ele>
<time>2017-10-25T05:23:23.820Z</time>
</trkpt>
<trkpt lat="-27.3367139" lon="152.9608508">
<ele>23.303</ele>
<time>2017-10-25T05:23:27.053Z</time>
</trkpt>
<trkpt lat="-27.3370018" lon="152.9608452">
<ele>24.084</ele>
<time>2017-10-25T05:23:30.167Z</time>
</trkpt>
<trkpt lat="-27.3372201" lon="152.9607743">
<ele>25.117</ele>
<time>2017-10-25T05:23:32.845Z</time>
</trkpt>
<trkpt lat="-27.3374140" lon="152.9607788">
<ele>26.363</ele>
<time>2017-10-25T05:23:35.480Z</time>
</trkpt>
<trkpt lat="-27.3376199" lon="152.9607385">
<ele>27.560</ele>
<time>2017-10-25T05:23:38.602Z</time>
</trkpt>
<trkpt lat="-27.3378870" lon="152.9607433">
<ele>28.452</ele>
<time>2017-10-25T05:23:42.436Z</time>
</trkpt>
<trkpt lat="-27.3379888" lon="152.9607419">
<ele>28.957</ele>
<time>2017-10-25T05:23:44.019Z</time>
</trkpt>
<trkpt lat="-27.3379888" lon="152.9607419">
<ele>29.116</ele>
<time>2017-10-25T05:23:48.019Z</time>
</trkpt>
<trkpt lat="-27.3379888" lon="152.9607419">
<ele>29.070</ele>
<time>2017-10-25T05:24:19.893Z</time>
</trkpt>
<trkpt lat="-27.3381797" lon="152.9606718">
<ele>28.979</ele>
<time>2017-10-25T05:24:25.426Z</time>
</trkpt>
<trkpt lat="-27.3384671" lon="152.9606803">
<ele>28.776</ele>
<time>2017-10-25T05:24:28.646Z</time>
</trkpt>
<trkpt lat="-27.3388470" lon="152.9607337">
<ele>28.373</ele>
<time>2017-10-25T05:24:31.746Z</time>
</trkpt>
<trkpt lat="-27.3392702" lon="152.9608940">
<ele>28.014</ele>
<time>2017-10-25T05:24:34.889Z</time>
</trkpt>
<trkpt lat="-27.3396922" lon="152.9610565">
<ele>27.922</ele>
<time>2017-10-25T05:24:37.912Z</time>
</trkpt>
<trkpt lat="-27.3401214" lon="152.9611275">
<ele>27.855</ele>
<time>2017-10-25T05:24:40.763Z</time>
</trkpt>
<trkpt lat="-27.3405978" lon="152.9611499">
<ele>27.338</ele>
<time>2017-10-25T05:24:43.725Z</time>
</trkpt>
<trkpt lat="-27.3411125" lon="152.9612541">
<ele>25.954</ele>
<time>2017-10-25T05:24:46.794Z</time>
</trkpt>
<trkpt lat="-27.3416513" lon="152.9613360">
<ele>23.798</ele>
<time>2017-10-25T05:24:49.858Z</time>
</trkpt>
<trkpt lat="-27.3421849" lon="152.9613629">
<ele>21.505</ele>
<time>2017-10-25T05:24:52.695Z</time>
</trkpt>
<trkpt lat="-27.3428022" lon="152.9613904">
<ele>19.613</ele>
<time>2017-10-25T05:24:55.906Z</time>
</trkpt>
<trkpt lat="-27.3433115" lon="152.9614009">
<ele>18.032</ele>
<time>2017-10-25T05:24:58.722Z</time>
</trkpt>
<trkpt lat="-27.3438114" lon="152.9615543">
<ele>16.420</ele>
<time>2017-10-25T05:25:01.752Z</time>
</trkpt>
<trkpt lat="-27.3442803" lon="152.9617833">
<ele>14.924</ele>
<time>2017-10-25T05:25:04.836Z</time>
</trkpt>
<trkpt lat="-27.3446486" lon="152.9620859">
<ele>14.107</ele>
<time>2017-10-25T05:25:07.784Z</time>
</trkpt>
<trkpt lat="-27.3449450" lon="152.9623885">
<ele>14.284</ele>
<time>2017-10-25T05:25:10.693Z</time>
</trkpt>
<trkpt lat="-27.3451778" lon="152.9626617">
<ele>15.503</ele>
<time>2017-10-25T05:25:13.552Z</time>
</trkpt>
<trkpt lat="-27.3453528" lon="152.9628949">
<ele>17.289</ele>
<time>2017-10-25T05:25:16.422Z</time>
</trkpt>
<trkpt lat="-27.3454656" lon="152.9630509">
<ele>18.700</ele>
<time>2017-10-25T05:25:18.955Z</time>
</trkpt>
<trkpt lat="-27.3455034" lon="152.9631656">
<ele>19.388</ele>
<time>2017-10-25T05:25:21.018Z</time>
</trkpt>
<trkpt lat="-27.3455034" lon="152.9631656">
<ele>19.677</ele>
<time>2017-10-25T05:25:25.018Z</time>
</trkpt>
<trkpt lat="-27.3455034" lon="152.9631656">
<ele>19.773</ele>
<time>2017-10-25T05:26:10.333Z</time>
</trkpt>
<trkpt lat="-27.3456220" lon="152.9633152">
<ele>19.706</ele>
<time>2017-10-25T05:26:18.216Z</time>
</trkpt>
<trkpt lat="-27.3458648" lon="152.9636647">
<ele>19.178</ele>
<time>2017-10-25T05:26:22.033Z</time>
</trkpt>
<trkpt lat="-27.3460984" lon="152.9640529">
<ele>18.066</ele>
<time>2017-10-25T05:26:25.070Z</time>
</trkpt>
<trkpt lat="-27.3463741" lon="152.9643976">
<ele>16.976</ele>
<time>2017-10-25T05:26:28.034Z</time>
</trkpt>
<trkpt lat="-27.3465962" lon="152.9647857">
<ele>16.312</ele>
<time>2017-10-25T05:26:30.963Z</time>
</trkpt>
<trkpt lat="-27.3468786" lon="152.9651455">
<ele>15.728</ele>
<time>2017-10-25T05:26:33.902Z</time>
</trkpt>
<trkpt lat="-27.3472218" lon="152.9654973">
<ele>15.071</ele>
<time>2017-10-25T05:26:36.967Z</time>
</trkpt>
<trkpt lat="-27.3476288" lon="152.9657655">
<ele>14.638</ele>
<time>2017-10-25T05:26:39.969Z</time>
</trkpt>
<trkpt lat="-27.3480681" lon="152.9659913">
<ele>14.662</ele>
<time>2017-10-25T05:26:42.982Z</time>
</trkpt>
<trkpt lat="-27.3485015" lon="152.9661681">
<ele>15.074</ele>
<time>2017-10-25T05:26:45.891Z</time>
</trkpt>
<trkpt lat="-27.3489329" lon="152.9663071">
<ele>15.901</ele>
<time>2017-10-25T05:26:48.769Z</time>
</trkpt>
<trkpt lat="-27.3493986" lon="152.9664427">
<ele>17.311</ele>
<time>2017-10-25T05:26:51.894Z</time>
</trkpt>
<trkpt lat="-27.3498169" lon="152.9665897">
<ele>19.053</ele>
<time>2017-10-25T05:26:54.682Z</time>
</trkpt>
<trkpt lat="-27.3502895" lon="152.9666544">
<ele>20.707</ele>
<time>2017-10-25T05:26:57.506Z</time>
</trkpt>
<trkpt lat="-27.3508384" lon="152.9666902">
<ele>22.293</ele>
<time>2017-10-25T05:27:00.582Z</time>
</trkpt>
<trkpt lat="-27.3513611" lon="152.9666611">
<ele>24.171</ele>
<time>2017-10-25T05:27:03.482Z</time>
</trkpt>
<trkpt lat="-27.3519115" lon="152.9667221">
<ele>26.741</ele>
<time>2017-10-25T05:27:06.525Z</time>
</trkpt>
<trkpt lat="-27.3524339" lon="152.9669669">
<ele>29.755</ele>
<time>2017-10-25T05:27:09.599Z</time>
</trkpt>
<trkpt lat="-27.3529060" lon="152.9672236">
<ele>32.152</ele>
<time>2017-10-25T05:27:12.459Z</time>
</trkpt>
<trkpt lat="-27.3533136" lon="152.9676288">
<ele>33.084</ele>
<time>2017-10-25T05:27:15.477Z</time>
</trkpt>
<trkpt lat="-27.3536768" lon="152.9680739">
<ele>32.522</ele>
<time>2017-10-25T05:27:18.493Z</time>
</trkpt>
<trkpt lat="-27.3540128" lon="152.9685283">
<ele>31.083</ele>
<time>2017-10-25T05:27:21.447Z</time>
</trkpt>
<trkpt lat="-27.3544040" lon="152.9689400">
<ele>29.666</ele>
<time>2017-10-25T05:27:24.443Z</time>
</trkpt>
<trkpt lat="-27.3548816" lon="152.9692455">
<ele>28.971</ele>
<time>2017-10-25T05:27:27.495Z</time>
</trkpt>
<trkpt lat="-27.3553510" lon="152.9694951">
<ele>29.127</ele>
<time>2017-10-25T05:27:30.366Z</time>
</trkpt>
<trkpt lat="-27.3558937" lon="152.9696311">
<ele>29.851</ele>
<time>2017-10-25T05:27:33.455Z</time>
</trkpt>
<trkpt lat="-27.3564067" lon="152.9696416">
<ele>30.735</ele>
<time>2017-10-25T05:27:36.388Z</time>
</trkpt>
<trkpt lat="-27.3568657" lon="152.9695662">
<ele>31.374</ele>
<time>2017-10-25T05:27:39.314Z</time>
</trkpt>
<trkpt lat="-27.3572021" lon="152.9696109">
<ele>31.464</ele>
<time>2017-10-25T05:27:41.948Z</time>
</trkpt>
<trkpt lat="-27.3574451" lon="152.9696416">
<ele>31.017</ele>
<time>2017-10-25T05:27:44.630Z</time>
</trkpt>
<trkpt lat="-27.3575834" lon="152.9695684">
<ele>30.373</ele>
<time>2017-10-25T05:27:47.288Z</time>
</trkpt>
<trkpt lat="-27.3576898" lon="152.9692999">
<ele>29.778</ele>
<time>2017-10-25T05:27:51.592Z</time>
</trkpt>
<trkpt lat="-27.3578037" lon="152.9690443">
<ele>29.217</ele>
<time>2017-10-25T05:27:54.664Z</time>
</trkpt>
<trkpt lat="-27.3579068" lon="152.9687685">
<ele>28.770</ele>
<time>2017-10-25T05:27:57.752Z</time>
</trkpt>
<trkpt lat="-27.3580351" lon="152.9685338">
<ele>28.736</ele>
<time>2017-10-25T05:28:00.541Z</time>
</trkpt>
<trkpt lat="-27.3581781" lon="152.9682531">
<ele>29.279</ele>
<time>2017-10-25T05:28:03.695Z</time>
</trkpt>
<trkpt lat="-27.3583088" lon="152.9679723">
<ele>30.088</ele>
<time>2017-10-25T05:28:06.695Z</time>
</trkpt>
<trkpt lat="-27.3584336" lon="152.9676908">
<ele>30.724</ele>
<time>2017-10-25T05:28:09.716Z</time>
</trkpt>
<trkpt lat="-27.3585295" lon="152.9674984">
<ele>31.071</ele>
<time>2017-10-25T05:28:12.017Z</time>
</trkpt>
<trkpt lat="-27.3585295" lon="152.9674984">
<ele>31.185</ele>
<time>2017-10-25T05:28:16.017Z</time>
</trkpt>
<trkpt lat="-27.3585295" lon="152.9674984">
<ele>31.149</ele>
<time>2017-10-25T05:28:39.357Z</time>
</trkpt>
<trkpt lat="-27.3585977" lon="152.9672385">
<ele>31.094</ele>
<time>2017-10-25T05:28:44.363Z</time>
</trkpt>
<trkpt lat="-27.3587511" lon="152.9668996">
<ele>31.491</ele>
<time>2017-10-25T05:28:47.600Z</time>
</trkpt>
<trkpt lat="-27.3588404" lon="152.9664520">
<ele>32.656</ele>
<time>2017-10-25T05:28:50.727Z</time>
</trkpt>
<trkpt lat="-27.3587587" lon="152.9659741">
<ele>34.067</ele>
<time>2017-10-25T05:28:53.785Z</time>
</trkpt>
<trkpt lat="-27.3586871" lon="152.9656659">
<ele>35.361</ele>
<time>2017-10-25T05:28:55.696Z</time>
</trkpt>
<trkpt lat="-27.3585421" lon="152.9653469">
<ele>36.815</ele>
<time>2017-10-25T05:28:57.789Z</time>
</trkpt>
<trkpt lat="-27.3583787" lon="152.9650707">
<ele>38.230</ele>
<time>2017-10-25T05:28:59.779Z</time>
</trkpt>
<trkpt lat="-27.3582274" lon="152.9648411">
<ele>39.081</ele>
<time>2017-10-25T05:29:01.622Z</time>
</trkpt>
<trkpt lat="-27.3580535" lon="152.9646361">
<ele>39.280</ele>
<time>2017-10-25T05:29:03.504Z</time>
</trkpt>
<trkpt lat="-27.3578614" lon="152.9644175">
<ele>39.100</ele>
<time>2017-10-25T05:29:05.551Z</time>
</trkpt>
<trkpt lat="-27.3576868" lon="152.9641986">
<ele>38.756</ele>
<time>2017-10-25T05:29:07.496Z</time>
</trkpt>
<trkpt lat="-27.3574743" lon="152.9640022">
<ele>38.098</ele>
<time>2017-10-25T05:29:09.491Z</time>
</trkpt>
<trkpt lat="-27.3572647" lon="152.9637599">
<ele>36.806</ele>
<time>2017-10-25T05:29:11.593Z</time>
</trkpt>
<trkpt lat="-27.3570518" lon="152.9635572">
<ele>34.914</ele>
<time>2017-10-25T05:29:13.526Z</time>
</trkpt>
<trkpt lat="-27.3568115" lon="152.9631440">
<ele>32.686</ele>
<time>2017-10-25T05:29:16.626Z</time>
</trkpt>
<trkpt lat="-27.3565816" lon="152.9627708">
<ele>30.232</ele>
<time>2017-10-25T05:29:19.615Z</time>
</trkpt>
<trkpt lat="-27.3563846" lon="152.9624157">
<ele>27.700</ele>
<time>2017-10-25T05:29:22.519Z</time>
</trkpt>
<trkpt lat="-27.3562054" lon="152.9620535">
<ele>25.436</ele>
<time>2017-10-25T05:29:25.552Z</time>
</trkpt>
<trkpt lat="-27.3560186" lon="152.9617833">
<ele>23.635</ele>
<time>2017-10-25T05:29:28.306Z</time>
</trkpt>
<trkpt lat="-27.3558931" lon="152.9615504">
<ele>22.349</ele>
<time>2017-10-25T05:29:30.825Z</time>
</trkpt>
<trkpt lat="-27.3558210" lon="152.9612989">
<ele>21.554</ele>
<time>2017-10-25T05:29:33.691Z</time>
</trkpt>
<trkpt lat="-27.3557517" lon="152.9610588">
<ele>20.886</ele>
<time>2017-10-25T05:29:36.555Z</time>
</trkpt>
<trkpt lat="-27.3555760" lon="152.9607262">
<ele>20.092</ele>
<time>2017-10-25T05:29:40.132Z</time>
</trkpt>
<trkpt lat="-27.3554149" lon="152.9604024">
<ele>19.446</ele>
<time>2017-10-25T05:29:43.112Z</time>
</trkpt>
<trkpt lat="-27.3552711" lon="152.9600629">
<ele>19.151</ele>
<time>2017-10-25T05:29:46.009Z</time>
</trkpt>
<trkpt lat="-27.3551138" lon="152.9596704">
<ele>19.082</ele>
<time>2017-10-25T05:29:49.116Z</time>
</trkpt>
<trkpt lat="-27.3549694" lon="152.9592566">
<ele>18.974</ele>
<time>2017-10-25T05:29:52.163Z</time>
</trkpt>
<trkpt lat="-27.3549353" lon="152.9587987">
<ele>18.690</ele>
<time>2017-10-25T05:29:55.243Z</time>
</trkpt>
<trkpt lat="-27.3549491" lon="152.9583584">
<ele>18.425</ele>
<time>2017-10-25T05:29:58.206Z</time>
</trkpt>
<trkpt lat="-27.3549412" lon="152.9579468">
<ele>18.482</ele>
<time>2017-10-25T05:30:01.074Z</time>
</trkpt>
<trkpt lat="-27.3548995" lon="152.9575429">
<ele>18.844</ele>
<time>2017-10-25T05:30:04.293Z</time>
</trkpt>
<trkpt lat="-27.3549918" lon="152.9573065">
<ele>19.131</ele>
<time>2017-10-25T05:30:06.757Z</time>
</trkpt>
<trkpt lat="-27.3553129" lon="152.9573224">
<ele>19.089</ele>
<time>2017-10-25T05:30:10.137Z</time>
</trkpt>
<trkpt lat="-27.3556720" lon="152.9572343">
<ele>18.966</ele>
<time>2017-10-25T05:30:13.306Z</time>
</trkpt>
<trkpt lat="-27.3560042" lon="152.9571043">
<ele>19.021</ele>
<time>2017-10-25T05:30:16.391Z</time>
</trkpt>
<trkpt lat="-27.3562101" lon="152.9569562">
<ele>19.045</ele>
<time>2017-10-25T05:30:18.861Z</time>
</trkpt>
<trkpt lat="-27.3564087" lon="152.9567635">
<ele>18.815</ele>
<time>2017-10-25T05:30:21.947Z</time>
</trkpt>
<trkpt lat="-27.3565839" lon="152.9566493">
<ele>18.649</ele>
<time>2017-10-25T05:30:24.727Z</time>
</trkpt>
<trkpt lat="-27.3566988" lon="152.9565718">
<ele>19.053</ele>
<time>2017-10-25T05:30:27.021Z</time>
</trkpt>
<trkpt lat="-27.3566988" lon="152.9565718">
<ele>19.925</ele>
<time>2017-10-25T05:30:32.021Z</time>
</trkpt>
<trkpt lat="-27.3566988" lon="152.9565718">
<ele>20.540</ele>
<time>2017-10-25T05:31:53.680Z</time>
</trkpt>
<trkpt lat="-27.3568567" lon="152.9566926">
<ele>20.508</ele>
<time>2017-10-25T05:33:43.020Z</time>
</trkpt>
<trkpt lat="-27.3568567" lon="152.9566926">
<ele>20.257</ele>
<time>2017-10-25T05:33:47.020Z</time>
</trkpt>
<trkpt lat="-27.3568567" lon="152.9566926">
<ele>20.226</ele>
<time>2017-10-25T05:34:49.202Z</time>
</trkpt>
</trkseg>
</trk>
<extensions>
<fpdata xmlns="http://www.motionx.com/GPX-Extensions/1/1" sfv="10" origin="MotionXGPSFull 24.2 Build 5063R64">
<bin enc="base64">
RgIAAAACAAAA2EfH3e571kEBAAAAGvwTuQh81kEAALPS19LZQD8bAACsZDUC34KBdd8A
QUD4+/km/VE0QAAAAAARAAAATkcgS2FuZGFuZ3JhIFJ1bgAVAAAAMjUgT2N0IDIwMTcg
IDg6MTUgYW0AAAAAAEj8E7kIfNZBiLjjxAh81kGBpZIBjT2zrPnklUAsAAAAAgAAAA4o
EnEJH2NAJfwjS8ZbO8DfgoF13wBBQAAAAAAAACBAAAAAAAAACEAAAAAAAMSqQAAAAAAA
AAAAAAAAAAAAAAAAQDVA311a2HkNM0ABAAAAGXloahxrKT8BAAAAAQAAAA4t7jjzqsY/
53jisPPvwL8BAAAAAQAAAAEAAADfgoF13wBBQAAAAAAAAAAAAQAAABUAAABOR19LYW5k
YW5ncmFfUnVuLmdweAABAAAAd6HkxAh81kEKAAAAAQAAABEAAABORyBLYW5kYW5ncmEg
UnVuAAAAAAAAAAAAAAAAAAAAAAAAAAAAc1ABpAh81kEAAAAAAAAAAAAAAAAAAAAA/yVE
vAIAAAAAAAAAAAAAAAEAAAAnAAAAMjQuMiBCdWlsZCA1MDYzUjY0LCBNWEFFIDguMSBi
LiA2MjZSNjQAAAAAAFJwAAABAAAAAQIAAAB3u+9ZwiLwWQShSMfd7nvWQaFIx93ue9ZB
AAAAAABYDT8AAAAAAeBHx93ue9ZBkxqfsAh81kEAALPS19LZQAAAAAAAAAAA
</bin>
</fpdata>
</extensions>
</gpx> 